<?xml version="1.0" encoding="UTF-8" standalone="no" ?>
<gpx xmlns="http://www.topografix.com/GPX/1/1" xmlns:xsi="http://www.w3.org/2001/XMLSchema-instance" xsi:schemaLocation="http://www.topografix.com/GPX/1/1 http://www.topografix.com/GPX/1/1/gpx.xsd" version="1.1" creator="VisuGPX - https://www.visugpx.com">
  <metadata>
    <name>Mirvaux, Moliens-aux-bois, Pierregot</name>
  </metadata>
  <trk>
    <name><![CDATA[Mirvaux, Moliens-aux-bois, Pierregot_1]]></name>
    <trkseg>
      <trkpt lat="50.00957" lon="2.38425">
        <ele>125.2</ele>
        <time>2022-11-16T13:01:11Z</time>
      </trkpt>
      <trkpt lat="50.00957" lon="2.38425">
        <ele>125.2</ele>
        <time>2022-11-16T13:01:12Z</time>
      </trkpt>
      <trkpt lat="50.00957" lon="2.38425">
        <ele>125.2</ele>
        <time>2022-11-16T13:01:13Z</time>
      </trkpt>
      <trkpt lat="50.00957" lon="2.38425">
        <ele>125.2</ele>
        <time>2022-11-16T13:01:14Z</time>
      </trkpt>
      <trkpt lat="50.00957" lon="2.38425">
        <ele>125.2</ele>
        <time>2022-11-16T13:01:15Z</time>
      </trkpt>
      <trkpt lat="50.00957" lon="2.38425">
        <ele>125.2</ele>
        <time>2022-11-16T13:01:16Z</time>
      </trkpt>
      <trkpt lat="50.00957" lon="2.38425">
        <ele>125.2</ele>
        <time>2022-11-16T13:01:17Z</time>
      </trkpt>
      <trkpt lat="50.00957" lon="2.38425">
        <ele>125.2</ele>
        <time>2022-11-16T13:01:18Z</time>
      </trkpt>
      <trkpt lat="50.00958" lon="2.38424">
        <ele>125.2</ele>
        <time>2022-11-16T13:01:19Z</time>
      </trkpt>
      <trkpt lat="50.00958" lon="2.38424">
        <ele>125.2</ele>
        <time>2022-11-16T13:01:21Z</time>
      </trkpt>
      <trkpt lat="50.00958" lon="2.38424">
        <ele>125.2</ele>
        <time>2022-11-16T13:01:22Z</time>
      </trkpt>
      <trkpt lat="50.00958" lon="2.38424">
        <ele>125.2</ele>
        <time>2022-11-16T13:01:23Z</time>
      </trkpt>
      <trkpt lat="50.00958" lon="2.38423">
        <ele>125.2</ele>
        <time>2022-11-16T13:01:25Z</time>
      </trkpt>
      <trkpt lat="50.00957" lon="2.38423">
        <ele>125.2</ele>
        <time>2022-11-16T13:01:26Z</time>
      </trkpt>
      <trkpt lat="50.00955" lon="2.38423">
        <ele>125.2</ele>
        <time>2022-11-16T13:01:27Z</time>
      </trkpt>
      <trkpt lat="50.00954" lon="2.38422">
        <ele>125.2</ele>
        <time>2022-11-16T13:01:29Z</time>
      </trkpt>
      <trkpt lat="50.00953" lon="2.38423">
        <ele>125.2</ele>
        <time>2022-11-16T13:01:30Z</time>
      </trkpt>
      <trkpt lat="50.00951" lon="2.38423">
        <ele>125.1</ele>
        <time>2022-11-16T13:01:31Z</time>
      </trkpt>
      <trkpt lat="50.00949" lon="2.38424">
        <ele>125.1</ele>
        <time>2022-11-16T13:01:33Z</time>
      </trkpt>
      <trkpt lat="50.00948" lon="2.38424">
        <ele>125.1</ele>
        <time>2022-11-16T13:01:34Z</time>
      </trkpt>
      <trkpt lat="50.00946" lon="2.38424">
        <ele>125.1</ele>
        <time>2022-11-16T13:01:35Z</time>
      </trkpt>
      <trkpt lat="50.00945" lon="2.38423">
        <ele>125.1</ele>
        <time>2022-11-16T13:01:36Z</time>
      </trkpt>
      <trkpt lat="50.00943" lon="2.38422">
        <ele>125</ele>
        <time>2022-11-16T13:01:38Z</time>
      </trkpt>
      <trkpt lat="50.00942" lon="2.38422">
        <ele>125</ele>
        <time>2022-11-16T13:01:39Z</time>
      </trkpt>
      <trkpt lat="50.00941" lon="2.38421">
        <ele>125</ele>
        <time>2022-11-16T13:01:40Z</time>
      </trkpt>
      <trkpt lat="50.0094" lon="2.38421">
        <ele>125</ele>
        <time>2022-11-16T13:01:41Z</time>
      </trkpt>
      <trkpt lat="50.00939" lon="2.38421">
        <ele>125</ele>
        <time>2022-11-16T13:01:42Z</time>
      </trkpt>
      <trkpt lat="50.00939" lon="2.38421">
        <ele>125</ele>
        <time>2022-11-16T13:01:43Z</time>
      </trkpt>
      <trkpt lat="50.00938" lon="2.3842">
        <ele>125</ele>
        <time>2022-11-16T13:01:44Z</time>
      </trkpt>
      <trkpt lat="50.00938" lon="2.3842">
        <ele>124.9</ele>
        <time>2022-11-16T13:01:45Z</time>
      </trkpt>
      <trkpt lat="50.00937" lon="2.3842">
        <ele>124.9</ele>
        <time>2022-11-16T13:01:46Z</time>
      </trkpt>
      <trkpt lat="50.00937" lon="2.3842">
        <ele>124.9</ele>
        <time>2022-11-16T13:01:47Z</time>
      </trkpt>
      <trkpt lat="50.00937" lon="2.38419">
        <ele>124.9</ele>
        <time>2022-11-16T13:01:48Z</time>
      </trkpt>
      <trkpt lat="50.00937" lon="2.38419">
        <ele>124.9</ele>
        <time>2022-11-16T13:01:49Z</time>
      </trkpt>
      <trkpt lat="50.00936" lon="2.38419">
        <ele>124.9</ele>
        <time>2022-11-16T13:01:50Z</time>
      </trkpt>
      <trkpt lat="50.00936" lon="2.38419">
        <ele>124.9</ele>
        <time>2022-11-16T13:01:51Z</time>
      </trkpt>
      <trkpt lat="50.00935" lon="2.38418">
        <ele>124.9</ele>
        <time>2022-11-16T13:01:52Z</time>
      </trkpt>
      <trkpt lat="50.00934" lon="2.38418">
        <ele>124.9</ele>
        <time>2022-11-16T13:01:53Z</time>
      </trkpt>
      <trkpt lat="50.00933" lon="2.38418">
        <ele>124.9</ele>
        <time>2022-11-16T13:01:55Z</time>
      </trkpt>
      <trkpt lat="50.00932" lon="2.38418">
        <ele>124.8</ele>
        <time>2022-11-16T13:01:56Z</time>
      </trkpt>
      <trkpt lat="50.00931" lon="2.38418">
        <ele>124.8</ele>
        <time>2022-11-16T13:01:57Z</time>
      </trkpt>
      <trkpt lat="50.0093" lon="2.38418">
        <ele>124.8</ele>
        <time>2022-11-16T13:01:58Z</time>
      </trkpt>
      <trkpt lat="50.00929" lon="2.38419">
        <ele>124.8</ele>
        <time>2022-11-16T13:01:59Z</time>
      </trkpt>
      <trkpt lat="50.00928" lon="2.38419">
        <ele>124.8</ele>
        <time>2022-11-16T13:02:00Z</time>
      </trkpt>
      <trkpt lat="50.00927" lon="2.3842">
        <ele>124.8</ele>
        <time>2022-11-16T13:02:02Z</time>
      </trkpt>
      <trkpt lat="50.00926" lon="2.38421">
        <ele>124.7</ele>
        <time>2022-11-16T13:02:03Z</time>
      </trkpt>
      <trkpt lat="50.00925" lon="2.38421">
        <ele>124.7</ele>
        <time>2022-11-16T13:02:04Z</time>
      </trkpt>
      <trkpt lat="50.00924" lon="2.38422">
        <ele>124.7</ele>
        <time>2022-11-16T13:02:05Z</time>
      </trkpt>
      <trkpt lat="50.00924" lon="2.38423">
        <ele>124.7</ele>
        <time>2022-11-16T13:02:06Z</time>
      </trkpt>
      <trkpt lat="50.00923" lon="2.38423">
        <ele>124.7</ele>
        <time>2022-11-16T13:02:07Z</time>
      </trkpt>
      <trkpt lat="50.00922" lon="2.38424">
        <ele>124.6</ele>
        <time>2022-11-16T13:02:08Z</time>
      </trkpt>
      <trkpt lat="50.00922" lon="2.38424">
        <ele>124.6</ele>
        <time>2022-11-16T13:02:09Z</time>
      </trkpt>
      <trkpt lat="50.00921" lon="2.38425">
        <ele>124.6</ele>
        <time>2022-11-16T13:02:10Z</time>
      </trkpt>
      <trkpt lat="50.00921" lon="2.38426">
        <ele>124.6</ele>
        <time>2022-11-16T13:02:11Z</time>
      </trkpt>
      <trkpt lat="50.0092" lon="2.38427">
        <ele>124.6</ele>
        <time>2022-11-16T13:02:12Z</time>
      </trkpt>
      <trkpt lat="50.00919" lon="2.38428">
        <ele>124.6</ele>
        <time>2022-11-16T13:02:13Z</time>
      </trkpt>
      <trkpt lat="50.00918" lon="2.38428">
        <ele>124.5</ele>
        <time>2022-11-16T13:02:15Z</time>
      </trkpt>
      <trkpt lat="50.00918" lon="2.38429">
        <ele>124.5</ele>
        <time>2022-11-16T13:02:16Z</time>
      </trkpt>
      <trkpt lat="50.00917" lon="2.38429">
        <ele>124.5</ele>
        <time>2022-11-16T13:02:17Z</time>
      </trkpt>
      <trkpt lat="50.00917" lon="2.3843">
        <ele>124.5</ele>
        <time>2022-11-16T13:02:18Z</time>
      </trkpt>
      <trkpt lat="50.00916" lon="2.38431">
        <ele>124.5</ele>
        <time>2022-11-16T13:02:19Z</time>
      </trkpt>
      <trkpt lat="50.00915" lon="2.38432">
        <ele>124.4</ele>
        <time>2022-11-16T13:02:20Z</time>
      </trkpt>
      <trkpt lat="50.00914" lon="2.38434">
        <ele>124.4</ele>
        <time>2022-11-16T13:02:22Z</time>
      </trkpt>
      <trkpt lat="50.00913" lon="2.38436">
        <ele>124.4</ele>
        <time>2022-11-16T13:02:23Z</time>
      </trkpt>
      <trkpt lat="50.00912" lon="2.38438">
        <ele>124.3</ele>
        <time>2022-11-16T13:02:24Z</time>
      </trkpt>
      <trkpt lat="50.00911" lon="2.3844">
        <ele>124.3</ele>
        <time>2022-11-16T13:02:25Z</time>
      </trkpt>
      <trkpt lat="50.0091" lon="2.38441">
        <ele>124.2</ele>
        <time>2022-11-16T13:02:26Z</time>
      </trkpt>
      <trkpt lat="50.00909" lon="2.38443">
        <ele>124.2</ele>
        <time>2022-11-16T13:02:27Z</time>
      </trkpt>
      <trkpt lat="50.00908" lon="2.38445">
        <ele>124.2</ele>
        <time>2022-11-16T13:02:28Z</time>
      </trkpt>
      <trkpt lat="50.00907" lon="2.38447">
        <ele>124.1</ele>
        <time>2022-11-16T13:02:29Z</time>
      </trkpt>
      <trkpt lat="50.00907" lon="2.38449">
        <ele>124.1</ele>
        <time>2022-11-16T13:02:30Z</time>
      </trkpt>
      <trkpt lat="50.00906" lon="2.3845">
        <ele>124.1</ele>
        <time>2022-11-16T13:02:31Z</time>
      </trkpt>
      <trkpt lat="50.00905" lon="2.38452">
        <ele>124</ele>
        <time>2022-11-16T13:02:33Z</time>
      </trkpt>
      <trkpt lat="50.00905" lon="2.38453">
        <ele>124</ele>
        <time>2022-11-16T13:02:34Z</time>
      </trkpt>
      <trkpt lat="50.00904" lon="2.38454">
        <ele>124</ele>
        <time>2022-11-16T13:02:35Z</time>
      </trkpt>
      <trkpt lat="50.00903" lon="2.38456">
        <ele>123.9</ele>
        <time>2022-11-16T13:02:36Z</time>
      </trkpt>
      <trkpt lat="50.00903" lon="2.38457">
        <ele>123.9</ele>
        <time>2022-11-16T13:02:38Z</time>
      </trkpt>
      <trkpt lat="50.00902" lon="2.38459">
        <ele>123.9</ele>
        <time>2022-11-16T13:02:39Z</time>
      </trkpt>
      <trkpt lat="50.00902" lon="2.3846">
        <ele>123.9</ele>
        <time>2022-11-16T13:02:40Z</time>
      </trkpt>
      <trkpt lat="50.00901" lon="2.38462">
        <ele>123.8</ele>
        <time>2022-11-16T13:02:41Z</time>
      </trkpt>
      <trkpt lat="50.009" lon="2.38464">
        <ele>123.8</ele>
        <time>2022-11-16T13:02:42Z</time>
      </trkpt>
      <trkpt lat="50.00899" lon="2.38465">
        <ele>123.8</ele>
        <time>2022-11-16T13:02:43Z</time>
      </trkpt>
      <trkpt lat="50.00899" lon="2.38467">
        <ele>123.7</ele>
        <time>2022-11-16T13:02:44Z</time>
      </trkpt>
      <trkpt lat="50.00898" lon="2.38468">
        <ele>123.7</ele>
        <time>2022-11-16T13:02:45Z</time>
      </trkpt>
      <trkpt lat="50.00897" lon="2.3847">
        <ele>123.7</ele>
        <time>2022-11-16T13:02:46Z</time>
      </trkpt>
      <trkpt lat="50.00896" lon="2.38472">
        <ele>123.6</ele>
        <time>2022-11-16T13:02:47Z</time>
      </trkpt>
      <trkpt lat="50.00896" lon="2.38474">
        <ele>123.6</ele>
        <time>2022-11-16T13:02:48Z</time>
      </trkpt>
      <trkpt lat="50.00895" lon="2.38475">
        <ele>123.6</ele>
        <time>2022-11-16T13:02:49Z</time>
      </trkpt>
      <trkpt lat="50.00894" lon="2.38477">
        <ele>123.5</ele>
        <time>2022-11-16T13:02:50Z</time>
      </trkpt>
      <trkpt lat="50.00894" lon="2.38479">
        <ele>123.5</ele>
        <time>2022-11-16T13:02:51Z</time>
      </trkpt>
      <trkpt lat="50.00893" lon="2.38481">
        <ele>123.5</ele>
        <time>2022-11-16T13:02:52Z</time>
      </trkpt>
      <trkpt lat="50.00893" lon="2.38483">
        <ele>123.4</ele>
        <time>2022-11-16T13:02:54Z</time>
      </trkpt>
      <trkpt lat="50.00892" lon="2.38485">
        <ele>123.4</ele>
        <time>2022-11-16T13:02:55Z</time>
      </trkpt>
      <trkpt lat="50.00891" lon="2.38487">
        <ele>123.4</ele>
        <time>2022-11-16T13:02:56Z</time>
      </trkpt>
      <trkpt lat="50.0089" lon="2.3849">
        <ele>123.3</ele>
        <time>2022-11-16T13:02:57Z</time>
      </trkpt>
      <trkpt lat="50.00889" lon="2.38492">
        <ele>123.3</ele>
        <time>2022-11-16T13:02:59Z</time>
      </trkpt>
      <trkpt lat="50.00887" lon="2.38494">
        <ele>123.2</ele>
        <time>2022-11-16T13:03:00Z</time>
      </trkpt>
      <trkpt lat="50.00887" lon="2.38495">
        <ele>123.2</ele>
        <time>2022-11-16T13:03:01Z</time>
      </trkpt>
      <trkpt lat="50.00886" lon="2.38496">
        <ele>123.2</ele>
        <time>2022-11-16T13:03:02Z</time>
      </trkpt>
      <trkpt lat="50.00885" lon="2.38497">
        <ele>123.1</ele>
        <time>2022-11-16T13:03:03Z</time>
      </trkpt>
      <trkpt lat="50.00884" lon="2.38499">
        <ele>123.1</ele>
        <time>2022-11-16T13:03:04Z</time>
      </trkpt>
      <trkpt lat="50.00883" lon="2.38501">
        <ele>123.1</ele>
        <time>2022-11-16T13:03:06Z</time>
      </trkpt>
      <trkpt lat="50.00882" lon="2.38502">
        <ele>123</ele>
        <time>2022-11-16T13:03:07Z</time>
      </trkpt>
      <trkpt lat="50.00881" lon="2.38504">
        <ele>123</ele>
        <time>2022-11-16T13:03:08Z</time>
      </trkpt>
      <trkpt lat="50.0088" lon="2.38506">
        <ele>122.9</ele>
        <time>2022-11-16T13:03:09Z</time>
      </trkpt>
      <trkpt lat="50.0088" lon="2.38507">
        <ele>122.9</ele>
        <time>2022-11-16T13:03:10Z</time>
      </trkpt>
      <trkpt lat="50.00879" lon="2.38509">
        <ele>122.9</ele>
        <time>2022-11-16T13:03:11Z</time>
      </trkpt>
      <trkpt lat="50.00878" lon="2.38511">
        <ele>122.8</ele>
        <time>2022-11-16T13:03:12Z</time>
      </trkpt>
      <trkpt lat="50.00877" lon="2.38513">
        <ele>122.8</ele>
        <time>2022-11-16T13:03:13Z</time>
      </trkpt>
      <trkpt lat="50.00876" lon="2.38515">
        <ele>122.8</ele>
        <time>2022-11-16T13:03:14Z</time>
      </trkpt>
      <trkpt lat="50.00876" lon="2.38517">
        <ele>122.7</ele>
        <time>2022-11-16T13:03:16Z</time>
      </trkpt>
      <trkpt lat="50.00876" lon="2.38518">
        <ele>122.7</ele>
        <time>2022-11-16T13:03:17Z</time>
      </trkpt>
      <trkpt lat="50.00875" lon="2.3852">
        <ele>122.7</ele>
        <time>2022-11-16T13:03:18Z</time>
      </trkpt>
      <trkpt lat="50.00875" lon="2.38522">
        <ele>122.6</ele>
        <time>2022-11-16T13:03:19Z</time>
      </trkpt>
      <trkpt lat="50.00874" lon="2.38523">
        <ele>122.6</ele>
        <time>2022-11-16T13:03:20Z</time>
      </trkpt>
      <trkpt lat="50.00874" lon="2.38525">
        <ele>122.6</ele>
        <time>2022-11-16T13:03:21Z</time>
      </trkpt>
      <trkpt lat="50.00873" lon="2.38526">
        <ele>122.5</ele>
        <time>2022-11-16T13:03:22Z</time>
      </trkpt>
      <trkpt lat="50.00872" lon="2.38528">
        <ele>122.5</ele>
        <time>2022-11-16T13:03:24Z</time>
      </trkpt>
      <trkpt lat="50.00872" lon="2.3853">
        <ele>122.5</ele>
        <time>2022-11-16T13:03:25Z</time>
      </trkpt>
      <trkpt lat="50.00871" lon="2.38531">
        <ele>122.4</ele>
        <time>2022-11-16T13:03:26Z</time>
      </trkpt>
      <trkpt lat="50.00871" lon="2.38532">
        <ele>122.4</ele>
        <time>2022-11-16T13:03:27Z</time>
      </trkpt>
      <trkpt lat="50.0087" lon="2.38533">
        <ele>122.4</ele>
        <time>2022-11-16T13:03:28Z</time>
      </trkpt>
      <trkpt lat="50.0087" lon="2.38534">
        <ele>122.4</ele>
        <time>2022-11-16T13:03:29Z</time>
      </trkpt>
      <trkpt lat="50.00869" lon="2.38535">
        <ele>122.3</ele>
        <time>2022-11-16T13:03:31Z</time>
      </trkpt>
      <trkpt lat="50.00869" lon="2.38537">
        <ele>122.3</ele>
        <time>2022-11-16T13:03:32Z</time>
      </trkpt>
      <trkpt lat="50.00868" lon="2.38539">
        <ele>122.3</ele>
        <time>2022-11-16T13:03:33Z</time>
      </trkpt>
      <trkpt lat="50.00867" lon="2.3854">
        <ele>122.2</ele>
        <time>2022-11-16T13:03:34Z</time>
      </trkpt>
      <trkpt lat="50.00867" lon="2.38543">
        <ele>122.2</ele>
        <time>2022-11-16T13:03:35Z</time>
      </trkpt>
      <trkpt lat="50.00866" lon="2.38544">
        <ele>122.1</ele>
        <time>2022-11-16T13:03:36Z</time>
      </trkpt>
      <trkpt lat="50.00866" lon="2.38545">
        <ele>122.1</ele>
        <time>2022-11-16T13:03:37Z</time>
      </trkpt>
      <trkpt lat="50.00865" lon="2.38547">
        <ele>122.1</ele>
        <time>2022-11-16T13:03:38Z</time>
      </trkpt>
      <trkpt lat="50.00865" lon="2.38548">
        <ele>122</ele>
        <time>2022-11-16T13:03:39Z</time>
      </trkpt>
      <trkpt lat="50.00864" lon="2.38549">
        <ele>122</ele>
        <time>2022-11-16T13:03:40Z</time>
      </trkpt>
      <trkpt lat="50.00863" lon="2.3855">
        <ele>122</ele>
        <time>2022-11-16T13:03:41Z</time>
      </trkpt>
      <trkpt lat="50.00863" lon="2.38552">
        <ele>121.9</ele>
        <time>2022-11-16T13:03:43Z</time>
      </trkpt>
      <trkpt lat="50.00862" lon="2.38553">
        <ele>121.9</ele>
        <time>2022-11-16T13:03:44Z</time>
      </trkpt>
      <trkpt lat="50.0086" lon="2.38556">
        <ele>121.8</ele>
        <time>2022-11-16T13:03:45Z</time>
      </trkpt>
      <trkpt lat="50.0086" lon="2.38557">
        <ele>121.7</ele>
        <time>2022-11-16T13:03:46Z</time>
      </trkpt>
      <trkpt lat="50.00859" lon="2.38558">
        <ele>121.7</ele>
        <time>2022-11-16T13:03:47Z</time>
      </trkpt>
      <trkpt lat="50.00858" lon="2.38559">
        <ele>121.6</ele>
        <time>2022-11-16T13:03:48Z</time>
      </trkpt>
      <trkpt lat="50.00858" lon="2.38561">
        <ele>121.5</ele>
        <time>2022-11-16T13:03:49Z</time>
      </trkpt>
      <trkpt lat="50.00857" lon="2.38563">
        <ele>121.4</ele>
        <time>2022-11-16T13:03:50Z</time>
      </trkpt>
      <trkpt lat="50.00857" lon="2.38564">
        <ele>121.4</ele>
        <time>2022-11-16T13:03:51Z</time>
      </trkpt>
      <trkpt lat="50.00856" lon="2.38566">
        <ele>121.3</ele>
        <time>2022-11-16T13:03:52Z</time>
      </trkpt>
      <trkpt lat="50.00855" lon="2.38568">
        <ele>121.2</ele>
        <time>2022-11-16T13:03:54Z</time>
      </trkpt>
      <trkpt lat="50.00854" lon="2.38569">
        <ele>121.1</ele>
        <time>2022-11-16T13:03:55Z</time>
      </trkpt>
      <trkpt lat="50.00854" lon="2.3857">
        <ele>121.1</ele>
        <time>2022-11-16T13:03:56Z</time>
      </trkpt>
      <trkpt lat="50.00853" lon="2.38572">
        <ele>121</ele>
        <time>2022-11-16T13:03:57Z</time>
      </trkpt>
      <trkpt lat="50.00853" lon="2.38573">
        <ele>121</ele>
        <time>2022-11-16T13:03:58Z</time>
      </trkpt>
      <trkpt lat="50.00852" lon="2.38574">
        <ele>120.9</ele>
        <time>2022-11-16T13:03:59Z</time>
      </trkpt>
      <trkpt lat="50.00852" lon="2.38576">
        <ele>120.9</ele>
        <time>2022-11-16T13:04:00Z</time>
      </trkpt>
      <trkpt lat="50.00852" lon="2.38578">
        <ele>120.8</ele>
        <time>2022-11-16T13:04:02Z</time>
      </trkpt>
      <trkpt lat="50.00851" lon="2.38579">
        <ele>120.7</ele>
        <time>2022-11-16T13:04:03Z</time>
      </trkpt>
      <trkpt lat="50.0085" lon="2.38582">
        <ele>120.6</ele>
        <time>2022-11-16T13:04:04Z</time>
      </trkpt>
      <trkpt lat="50.0085" lon="2.38584">
        <ele>120.5</ele>
        <time>2022-11-16T13:04:05Z</time>
      </trkpt>
      <trkpt lat="50.00849" lon="2.38585">
        <ele>120.5</ele>
        <time>2022-11-16T13:04:06Z</time>
      </trkpt>
      <trkpt lat="50.00849" lon="2.38586">
        <ele>120.4</ele>
        <time>2022-11-16T13:04:07Z</time>
      </trkpt>
      <trkpt lat="50.00848" lon="2.38588">
        <ele>120.4</ele>
        <time>2022-11-16T13:04:09Z</time>
      </trkpt>
      <trkpt lat="50.00848" lon="2.3859">
        <ele>120.3</ele>
        <time>2022-11-16T13:04:10Z</time>
      </trkpt>
      <trkpt lat="50.00847" lon="2.38592">
        <ele>120.2</ele>
        <time>2022-11-16T13:04:11Z</time>
      </trkpt>
      <trkpt lat="50.00846" lon="2.38593">
        <ele>120.1</ele>
        <time>2022-11-16T13:04:12Z</time>
      </trkpt>
      <trkpt lat="50.00845" lon="2.38594">
        <ele>120.1</ele>
        <time>2022-11-16T13:04:13Z</time>
      </trkpt>
      <trkpt lat="50.00844" lon="2.38597">
        <ele>120</ele>
        <time>2022-11-16T13:04:14Z</time>
      </trkpt>
      <trkpt lat="50.00844" lon="2.38598">
        <ele>119.9</ele>
        <time>2022-11-16T13:04:16Z</time>
      </trkpt>
      <trkpt lat="50.00843" lon="2.38599">
        <ele>119.9</ele>
        <time>2022-11-16T13:04:17Z</time>
      </trkpt>
      <trkpt lat="50.00842" lon="2.38601">
        <ele>119.8</ele>
        <time>2022-11-16T13:04:18Z</time>
      </trkpt>
      <trkpt lat="50.00841" lon="2.38603">
        <ele>119.7</ele>
        <time>2022-11-16T13:04:19Z</time>
      </trkpt>
      <trkpt lat="50.0084" lon="2.38604">
        <ele>119.7</ele>
        <time>2022-11-16T13:04:20Z</time>
      </trkpt>
      <trkpt lat="50.00839" lon="2.38606">
        <ele>119.6</ele>
        <time>2022-11-16T13:04:21Z</time>
      </trkpt>
      <trkpt lat="50.00838" lon="2.38608">
        <ele>119.6</ele>
        <time>2022-11-16T13:04:23Z</time>
      </trkpt>
      <trkpt lat="50.00837" lon="2.38609">
        <ele>119.5</ele>
        <time>2022-11-16T13:04:24Z</time>
      </trkpt>
      <trkpt lat="50.00836" lon="2.38611">
        <ele>119.4</ele>
        <time>2022-11-16T13:04:25Z</time>
      </trkpt>
      <trkpt lat="50.00835" lon="2.38612">
        <ele>119.4</ele>
        <time>2022-11-16T13:04:26Z</time>
      </trkpt>
      <trkpt lat="50.00834" lon="2.38614">
        <ele>119.3</ele>
        <time>2022-11-16T13:04:27Z</time>
      </trkpt>
      <trkpt lat="50.00833" lon="2.38617">
        <ele>119.2</ele>
        <time>2022-11-16T13:04:28Z</time>
      </trkpt>
      <trkpt lat="50.00833" lon="2.38618">
        <ele>119.2</ele>
        <time>2022-11-16T13:04:29Z</time>
      </trkpt>
      <trkpt lat="50.00832" lon="2.38619">
        <ele>119.2</ele>
        <time>2022-11-16T13:04:30Z</time>
      </trkpt>
      <trkpt lat="50.00831" lon="2.3862">
        <ele>119.1</ele>
        <time>2022-11-16T13:04:32Z</time>
      </trkpt>
      <trkpt lat="50.0083" lon="2.38622">
        <ele>119.1</ele>
        <time>2022-11-16T13:04:33Z</time>
      </trkpt>
      <trkpt lat="50.0083" lon="2.38623">
        <ele>119</ele>
        <time>2022-11-16T13:04:34Z</time>
      </trkpt>
      <trkpt lat="50.00829" lon="2.38625">
        <ele>118.9</ele>
        <time>2022-11-16T13:04:35Z</time>
      </trkpt>
      <trkpt lat="50.00828" lon="2.38627">
        <ele>118.9</ele>
        <time>2022-11-16T13:04:36Z</time>
      </trkpt>
      <trkpt lat="50.00828" lon="2.38628">
        <ele>118.8</ele>
        <time>2022-11-16T13:04:37Z</time>
      </trkpt>
      <trkpt lat="50.00827" lon="2.3863">
        <ele>118.8</ele>
        <time>2022-11-16T13:04:39Z</time>
      </trkpt>
      <trkpt lat="50.00826" lon="2.38631">
        <ele>118.8</ele>
        <time>2022-11-16T13:04:40Z</time>
      </trkpt>
      <trkpt lat="50.00826" lon="2.38632">
        <ele>118.7</ele>
        <time>2022-11-16T13:04:41Z</time>
      </trkpt>
      <trkpt lat="50.00825" lon="2.38634">
        <ele>118.7</ele>
        <time>2022-11-16T13:04:42Z</time>
      </trkpt>
      <trkpt lat="50.00825" lon="2.38635">
        <ele>118.6</ele>
        <time>2022-11-16T13:04:43Z</time>
      </trkpt>
      <trkpt lat="50.00824" lon="2.38638">
        <ele>118.6</ele>
        <time>2022-11-16T13:04:44Z</time>
      </trkpt>
      <trkpt lat="50.00823" lon="2.38639">
        <ele>118.5</ele>
        <time>2022-11-16T13:04:45Z</time>
      </trkpt>
      <trkpt lat="50.00823" lon="2.3864">
        <ele>118.5</ele>
        <time>2022-11-16T13:04:46Z</time>
      </trkpt>
      <trkpt lat="50.00822" lon="2.38642">
        <ele>118.4</ele>
        <time>2022-11-16T13:04:47Z</time>
      </trkpt>
      <trkpt lat="50.00822" lon="2.38643">
        <ele>118.4</ele>
        <time>2022-11-16T13:04:48Z</time>
      </trkpt>
      <trkpt lat="50.00821" lon="2.38645">
        <ele>118.4</ele>
        <time>2022-11-16T13:04:49Z</time>
      </trkpt>
      <trkpt lat="50.0082" lon="2.38647">
        <ele>118.3</ele>
        <time>2022-11-16T13:04:50Z</time>
      </trkpt>
      <trkpt lat="50.0082" lon="2.38648">
        <ele>118.3</ele>
        <time>2022-11-16T13:04:52Z</time>
      </trkpt>
      <trkpt lat="50.0082" lon="2.38649">
        <ele>118.2</ele>
        <time>2022-11-16T13:04:53Z</time>
      </trkpt>
      <trkpt lat="50.0082" lon="2.3865">
        <ele>118.2</ele>
        <time>2022-11-16T13:04:54Z</time>
      </trkpt>
      <trkpt lat="50.00819" lon="2.38651">
        <ele>118.2</ele>
        <time>2022-11-16T13:04:55Z</time>
      </trkpt>
      <trkpt lat="50.00818" lon="2.38653">
        <ele>118.1</ele>
        <time>2022-11-16T13:04:56Z</time>
      </trkpt>
      <trkpt lat="50.00818" lon="2.38654">
        <ele>118.1</ele>
        <time>2022-11-16T13:04:57Z</time>
      </trkpt>
      <trkpt lat="50.00817" lon="2.38656">
        <ele>118</ele>
        <time>2022-11-16T13:04:59Z</time>
      </trkpt>
      <trkpt lat="50.00816" lon="2.38657">
        <ele>118</ele>
        <time>2022-11-16T13:05:00Z</time>
      </trkpt>
      <trkpt lat="50.00816" lon="2.38659">
        <ele>117.9</ele>
        <time>2022-11-16T13:05:01Z</time>
      </trkpt>
      <trkpt lat="50.00815" lon="2.3866">
        <ele>117.9</ele>
        <time>2022-11-16T13:05:02Z</time>
      </trkpt>
      <trkpt lat="50.00815" lon="2.38662">
        <ele>117.9</ele>
        <time>2022-11-16T13:05:03Z</time>
      </trkpt>
      <trkpt lat="50.00814" lon="2.38663">
        <ele>117.8</ele>
        <time>2022-11-16T13:05:04Z</time>
      </trkpt>
      <trkpt lat="50.00813" lon="2.38665">
        <ele>117.8</ele>
        <time>2022-11-16T13:05:05Z</time>
      </trkpt>
      <trkpt lat="50.00813" lon="2.38667">
        <ele>117.7</ele>
        <time>2022-11-16T13:05:06Z</time>
      </trkpt>
      <trkpt lat="50.00811" lon="2.3867">
        <ele>117.6</ele>
        <time>2022-11-16T13:05:08Z</time>
      </trkpt>
      <trkpt lat="50.00811" lon="2.38671">
        <ele>117.6</ele>
        <time>2022-11-16T13:05:09Z</time>
      </trkpt>
      <trkpt lat="50.00811" lon="2.38672">
        <ele>117.6</ele>
        <time>2022-11-16T13:05:10Z</time>
      </trkpt>
      <trkpt lat="50.0081" lon="2.38673">
        <ele>117.5</ele>
        <time>2022-11-16T13:05:11Z</time>
      </trkpt>
      <trkpt lat="50.00809" lon="2.38675">
        <ele>117.5</ele>
        <time>2022-11-16T13:05:12Z</time>
      </trkpt>
      <trkpt lat="50.00809" lon="2.38676">
        <ele>117.4</ele>
        <time>2022-11-16T13:05:13Z</time>
      </trkpt>
      <trkpt lat="50.00808" lon="2.38678">
        <ele>117.4</ele>
        <time>2022-11-16T13:05:15Z</time>
      </trkpt>
      <trkpt lat="50.00807" lon="2.3868">
        <ele>117.3</ele>
        <time>2022-11-16T13:05:16Z</time>
      </trkpt>
      <trkpt lat="50.00806" lon="2.38682">
        <ele>117.3</ele>
        <time>2022-11-16T13:05:17Z</time>
      </trkpt>
      <trkpt lat="50.00805" lon="2.38684">
        <ele>117.2</ele>
        <time>2022-11-16T13:05:18Z</time>
      </trkpt>
      <trkpt lat="50.00804" lon="2.38685">
        <ele>117.2</ele>
        <time>2022-11-16T13:05:19Z</time>
      </trkpt>
      <trkpt lat="50.00803" lon="2.38686">
        <ele>117.2</ele>
        <time>2022-11-16T13:05:20Z</time>
      </trkpt>
      <trkpt lat="50.00802" lon="2.38688">
        <ele>117.1</ele>
        <time>2022-11-16T13:05:21Z</time>
      </trkpt>
      <trkpt lat="50.00801" lon="2.38689">
        <ele>117.1</ele>
        <time>2022-11-16T13:05:23Z</time>
      </trkpt>
      <trkpt lat="50.008" lon="2.38691">
        <ele>117</ele>
        <time>2022-11-16T13:05:24Z</time>
      </trkpt>
      <trkpt lat="50.00798" lon="2.38693">
        <ele>116.9</ele>
        <time>2022-11-16T13:05:25Z</time>
      </trkpt>
      <trkpt lat="50.00797" lon="2.38694">
        <ele>116.9</ele>
        <time>2022-11-16T13:05:26Z</time>
      </trkpt>
      <trkpt lat="50.00797" lon="2.38695">
        <ele>116.9</ele>
        <time>2022-11-16T13:05:27Z</time>
      </trkpt>
      <trkpt lat="50.00796" lon="2.38696">
        <ele>116.8</ele>
        <time>2022-11-16T13:05:29Z</time>
      </trkpt>
      <trkpt lat="50.00795" lon="2.38698">
        <ele>116.8</ele>
        <time>2022-11-16T13:05:30Z</time>
      </trkpt>
      <trkpt lat="50.00793" lon="2.38699">
        <ele>116.7</ele>
        <time>2022-11-16T13:05:31Z</time>
      </trkpt>
      <trkpt lat="50.00792" lon="2.38701">
        <ele>116.7</ele>
        <time>2022-11-16T13:05:32Z</time>
      </trkpt>
      <trkpt lat="50.00791" lon="2.38702">
        <ele>116.6</ele>
        <time>2022-11-16T13:05:33Z</time>
      </trkpt>
      <trkpt lat="50.0079" lon="2.38703">
        <ele>116.6</ele>
        <time>2022-11-16T13:05:34Z</time>
      </trkpt>
      <trkpt lat="50.00789" lon="2.38705">
        <ele>116.5</ele>
        <time>2022-11-16T13:05:36Z</time>
      </trkpt>
      <trkpt lat="50.00788" lon="2.38707">
        <ele>116.5</ele>
        <time>2022-11-16T13:05:37Z</time>
      </trkpt>
      <trkpt lat="50.00786" lon="2.38709">
        <ele>116.5</ele>
        <time>2022-11-16T13:05:38Z</time>
      </trkpt>
      <trkpt lat="50.00786" lon="2.3871">
        <ele>116.4</ele>
        <time>2022-11-16T13:05:39Z</time>
      </trkpt>
      <trkpt lat="50.00786" lon="2.38711">
        <ele>116.4</ele>
        <time>2022-11-16T13:05:40Z</time>
      </trkpt>
      <trkpt lat="50.00784" lon="2.38714">
        <ele>116.4</ele>
        <time>2022-11-16T13:05:41Z</time>
      </trkpt>
      <trkpt lat="50.00784" lon="2.38715">
        <ele>116.3</ele>
        <time>2022-11-16T13:05:42Z</time>
      </trkpt>
      <trkpt lat="50.00783" lon="2.38716">
        <ele>116.3</ele>
        <time>2022-11-16T13:05:43Z</time>
      </trkpt>
      <trkpt lat="50.00782" lon="2.38719">
        <ele>116.2</ele>
        <time>2022-11-16T13:05:44Z</time>
      </trkpt>
      <trkpt lat="50.00781" lon="2.3872">
        <ele>116.2</ele>
        <time>2022-11-16T13:05:45Z</time>
      </trkpt>
      <trkpt lat="50.00781" lon="2.38722">
        <ele>116.2</ele>
        <time>2022-11-16T13:05:46Z</time>
      </trkpt>
      <trkpt lat="50.00779" lon="2.38725">
        <ele>116.1</ele>
        <time>2022-11-16T13:05:48Z</time>
      </trkpt>
      <trkpt lat="50.00779" lon="2.38726">
        <ele>116.1</ele>
        <time>2022-11-16T13:05:49Z</time>
      </trkpt>
      <trkpt lat="50.00778" lon="2.38727">
        <ele>116.1</ele>
        <time>2022-11-16T13:05:50Z</time>
      </trkpt>
      <trkpt lat="50.00778" lon="2.38728">
        <ele>116.1</ele>
        <time>2022-11-16T13:05:51Z</time>
      </trkpt>
      <trkpt lat="50.00777" lon="2.3873">
        <ele>116</ele>
        <time>2022-11-16T13:05:52Z</time>
      </trkpt>
      <trkpt lat="50.00776" lon="2.38731">
        <ele>116</ele>
        <time>2022-11-16T13:05:54Z</time>
      </trkpt>
      <trkpt lat="50.00775" lon="2.38733">
        <ele>116</ele>
        <time>2022-11-16T13:05:55Z</time>
      </trkpt>
      <trkpt lat="50.00775" lon="2.38734">
        <ele>115.9</ele>
        <time>2022-11-16T13:05:56Z</time>
      </trkpt>
      <trkpt lat="50.00774" lon="2.38735">
        <ele>115.9</ele>
        <time>2022-11-16T13:05:57Z</time>
      </trkpt>
      <trkpt lat="50.00773" lon="2.38737">
        <ele>115.9</ele>
        <time>2022-11-16T13:05:58Z</time>
      </trkpt>
      <trkpt lat="50.00773" lon="2.38738">
        <ele>115.8</ele>
        <time>2022-11-16T13:05:59Z</time>
      </trkpt>
      <trkpt lat="50.00772" lon="2.3874">
        <ele>115.8</ele>
        <time>2022-11-16T13:06:00Z</time>
      </trkpt>
      <trkpt lat="50.00771" lon="2.38742">
        <ele>115.7</ele>
        <time>2022-11-16T13:06:01Z</time>
      </trkpt>
      <trkpt lat="50.0077" lon="2.38743">
        <ele>115.7</ele>
        <time>2022-11-16T13:06:02Z</time>
      </trkpt>
      <trkpt lat="50.00769" lon="2.38744">
        <ele>115.7</ele>
        <time>2022-11-16T13:06:03Z</time>
      </trkpt>
      <trkpt lat="50.00768" lon="2.38747">
        <ele>115.6</ele>
        <time>2022-11-16T13:06:04Z</time>
      </trkpt>
      <trkpt lat="50.00768" lon="2.38748">
        <ele>115.6</ele>
        <time>2022-11-16T13:06:05Z</time>
      </trkpt>
      <trkpt lat="50.00767" lon="2.38749">
        <ele>115.6</ele>
        <time>2022-11-16T13:06:06Z</time>
      </trkpt>
      <trkpt lat="50.00766" lon="2.38751">
        <ele>115.5</ele>
        <time>2022-11-16T13:06:08Z</time>
      </trkpt>
      <trkpt lat="50.00765" lon="2.38752">
        <ele>115.5</ele>
        <time>2022-11-16T13:06:09Z</time>
      </trkpt>
      <trkpt lat="50.00764" lon="2.38753">
        <ele>115.5</ele>
        <time>2022-11-16T13:06:10Z</time>
      </trkpt>
      <trkpt lat="50.00763" lon="2.38755">
        <ele>115.5</ele>
        <time>2022-11-16T13:06:11Z</time>
      </trkpt>
      <trkpt lat="50.00762" lon="2.38757">
        <ele>115.4</ele>
        <time>2022-11-16T13:06:12Z</time>
      </trkpt>
      <trkpt lat="50.00762" lon="2.38759">
        <ele>115.4</ele>
        <time>2022-11-16T13:06:13Z</time>
      </trkpt>
      <trkpt lat="50.00761" lon="2.38761">
        <ele>115.3</ele>
        <time>2022-11-16T13:06:14Z</time>
      </trkpt>
      <trkpt lat="50.0076" lon="2.38763">
        <ele>115.3</ele>
        <time>2022-11-16T13:06:15Z</time>
      </trkpt>
      <trkpt lat="50.00759" lon="2.38764">
        <ele>115.2</ele>
        <time>2022-11-16T13:06:16Z</time>
      </trkpt>
      <trkpt lat="50.00757" lon="2.38767">
        <ele>115.2</ele>
        <time>2022-11-16T13:06:17Z</time>
      </trkpt>
      <trkpt lat="50.00757" lon="2.38768">
        <ele>115.1</ele>
        <time>2022-11-16T13:06:18Z</time>
      </trkpt>
      <trkpt lat="50.00756" lon="2.38769">
        <ele>115.1</ele>
        <time>2022-11-16T13:06:19Z</time>
      </trkpt>
      <trkpt lat="50.00755" lon="2.3877">
        <ele>115.1</ele>
        <time>2022-11-16T13:06:21Z</time>
      </trkpt>
      <trkpt lat="50.00755" lon="2.38772">
        <ele>115</ele>
        <time>2022-11-16T13:06:22Z</time>
      </trkpt>
      <trkpt lat="50.00754" lon="2.38773">
        <ele>115</ele>
        <time>2022-11-16T13:06:23Z</time>
      </trkpt>
      <trkpt lat="50.00753" lon="2.38775">
        <ele>115</ele>
        <time>2022-11-16T13:06:24Z</time>
      </trkpt>
      <trkpt lat="50.00752" lon="2.38776">
        <ele>114.9</ele>
        <time>2022-11-16T13:06:25Z</time>
      </trkpt>
      <trkpt lat="50.00751" lon="2.38777">
        <ele>114.9</ele>
        <time>2022-11-16T13:06:26Z</time>
      </trkpt>
      <trkpt lat="50.0075" lon="2.38779">
        <ele>114.8</ele>
        <time>2022-11-16T13:06:27Z</time>
      </trkpt>
      <trkpt lat="50.0075" lon="2.3878">
        <ele>114.8</ele>
        <time>2022-11-16T13:06:28Z</time>
      </trkpt>
      <trkpt lat="50.00748" lon="2.38783">
        <ele>114.7</ele>
        <time>2022-11-16T13:06:30Z</time>
      </trkpt>
      <trkpt lat="50.00748" lon="2.38784">
        <ele>114.7</ele>
        <time>2022-11-16T13:06:31Z</time>
      </trkpt>
      <trkpt lat="50.00747" lon="2.38785">
        <ele>114.7</ele>
        <time>2022-11-16T13:06:32Z</time>
      </trkpt>
      <trkpt lat="50.00746" lon="2.38786">
        <ele>114.7</ele>
        <time>2022-11-16T13:06:33Z</time>
      </trkpt>
      <trkpt lat="50.00746" lon="2.38787">
        <ele>114.6</ele>
        <time>2022-11-16T13:06:34Z</time>
      </trkpt>
      <trkpt lat="50.00745" lon="2.38788">
        <ele>114.6</ele>
        <time>2022-11-16T13:06:35Z</time>
      </trkpt>
      <trkpt lat="50.00743" lon="2.3879">
        <ele>114.5</ele>
        <time>2022-11-16T13:06:36Z</time>
      </trkpt>
      <trkpt lat="50.00743" lon="2.38791">
        <ele>114.5</ele>
        <time>2022-11-16T13:06:37Z</time>
      </trkpt>
      <trkpt lat="50.00742" lon="2.38793">
        <ele>114.5</ele>
        <time>2022-11-16T13:06:39Z</time>
      </trkpt>
      <trkpt lat="50.00741" lon="2.38794">
        <ele>114.5</ele>
        <time>2022-11-16T13:06:40Z</time>
      </trkpt>
      <trkpt lat="50.00741" lon="2.38795">
        <ele>114.4</ele>
        <time>2022-11-16T13:06:41Z</time>
      </trkpt>
      <trkpt lat="50.0074" lon="2.38796">
        <ele>114.4</ele>
        <time>2022-11-16T13:06:42Z</time>
      </trkpt>
      <trkpt lat="50.00738" lon="2.38799">
        <ele>114.3</ele>
        <time>2022-11-16T13:06:43Z</time>
      </trkpt>
      <trkpt lat="50.00737" lon="2.388">
        <ele>114.3</ele>
        <time>2022-11-16T13:06:45Z</time>
      </trkpt>
      <trkpt lat="50.00737" lon="2.38801">
        <ele>114.3</ele>
        <time>2022-11-16T13:06:46Z</time>
      </trkpt>
      <trkpt lat="50.00736" lon="2.38802">
        <ele>114.3</ele>
        <time>2022-11-16T13:06:47Z</time>
      </trkpt>
      <trkpt lat="50.00735" lon="2.38803">
        <ele>114.2</ele>
        <time>2022-11-16T13:06:48Z</time>
      </trkpt>
      <trkpt lat="50.00734" lon="2.38805">
        <ele>114.2</ele>
        <time>2022-11-16T13:06:49Z</time>
      </trkpt>
      <trkpt lat="50.00733" lon="2.38806">
        <ele>114.2</ele>
        <time>2022-11-16T13:06:50Z</time>
      </trkpt>
      <trkpt lat="50.00732" lon="2.38807">
        <ele>114.1</ele>
        <time>2022-11-16T13:06:51Z</time>
      </trkpt>
      <trkpt lat="50.00731" lon="2.38808">
        <ele>114.1</ele>
        <time>2022-11-16T13:06:52Z</time>
      </trkpt>
      <trkpt lat="50.0073" lon="2.38809">
        <ele>114.1</ele>
        <time>2022-11-16T13:06:53Z</time>
      </trkpt>
      <trkpt lat="50.00729" lon="2.38812">
        <ele>114</ele>
        <time>2022-11-16T13:06:54Z</time>
      </trkpt>
      <trkpt lat="50.00728" lon="2.38813">
        <ele>114</ele>
        <time>2022-11-16T13:06:55Z</time>
      </trkpt>
      <trkpt lat="50.00727" lon="2.38813">
        <ele>114</ele>
        <time>2022-11-16T13:06:56Z</time>
      </trkpt>
      <trkpt lat="50.00726" lon="2.38815">
        <ele>114</ele>
        <time>2022-11-16T13:06:57Z</time>
      </trkpt>
      <trkpt lat="50.00725" lon="2.38817">
        <ele>113.9</ele>
        <time>2022-11-16T13:06:59Z</time>
      </trkpt>
      <trkpt lat="50.00724" lon="2.38819">
        <ele>113.9</ele>
        <time>2022-11-16T13:07:00Z</time>
      </trkpt>
      <trkpt lat="50.00723" lon="2.3882">
        <ele>113.9</ele>
        <time>2022-11-16T13:07:01Z</time>
      </trkpt>
      <trkpt lat="50.00722" lon="2.38822">
        <ele>113.8</ele>
        <time>2022-11-16T13:07:02Z</time>
      </trkpt>
      <trkpt lat="50.00721" lon="2.38824">
        <ele>113.8</ele>
        <time>2022-11-16T13:07:03Z</time>
      </trkpt>
      <trkpt lat="50.0072" lon="2.38826">
        <ele>113.8</ele>
        <time>2022-11-16T13:07:04Z</time>
      </trkpt>
      <trkpt lat="50.00718" lon="2.38827">
        <ele>113.7</ele>
        <time>2022-11-16T13:07:05Z</time>
      </trkpt>
      <trkpt lat="50.00717" lon="2.38829">
        <ele>113.7</ele>
        <time>2022-11-16T13:07:07Z</time>
      </trkpt>
      <trkpt lat="50.00716" lon="2.3883">
        <ele>113.7</ele>
        <time>2022-11-16T13:07:08Z</time>
      </trkpt>
      <trkpt lat="50.00715" lon="2.38831">
        <ele>113.6</ele>
        <time>2022-11-16T13:07:09Z</time>
      </trkpt>
      <trkpt lat="50.00715" lon="2.38832">
        <ele>113.6</ele>
        <time>2022-11-16T13:07:10Z</time>
      </trkpt>
      <trkpt lat="50.00714" lon="2.38833">
        <ele>113.6</ele>
        <time>2022-11-16T13:07:11Z</time>
      </trkpt>
      <trkpt lat="50.00713" lon="2.38834">
        <ele>113.6</ele>
        <time>2022-11-16T13:07:12Z</time>
      </trkpt>
      <trkpt lat="50.00712" lon="2.38836">
        <ele>113.5</ele>
        <time>2022-11-16T13:07:13Z</time>
      </trkpt>
      <trkpt lat="50.0071" lon="2.38838">
        <ele>113.5</ele>
        <time>2022-11-16T13:07:14Z</time>
      </trkpt>
      <trkpt lat="50.00709" lon="2.38838">
        <ele>113.5</ele>
        <time>2022-11-16T13:07:15Z</time>
      </trkpt>
      <trkpt lat="50.00709" lon="2.38839">
        <ele>113.5</ele>
        <time>2022-11-16T13:07:16Z</time>
      </trkpt>
      <trkpt lat="50.00708" lon="2.3884">
        <ele>113.4</ele>
        <time>2022-11-16T13:07:18Z</time>
      </trkpt>
      <trkpt lat="50.00706" lon="2.38841">
        <ele>113.4</ele>
        <time>2022-11-16T13:07:19Z</time>
      </trkpt>
      <trkpt lat="50.00705" lon="2.38842">
        <ele>113.4</ele>
        <time>2022-11-16T13:07:20Z</time>
      </trkpt>
      <trkpt lat="50.00704" lon="2.38843">
        <ele>113.4</ele>
        <time>2022-11-16T13:07:21Z</time>
      </trkpt>
      <trkpt lat="50.00704" lon="2.38843">
        <ele>113.3</ele>
        <time>2022-11-16T13:07:22Z</time>
      </trkpt>
      <trkpt lat="50.00702" lon="2.38844">
        <ele>113.3</ele>
        <time>2022-11-16T13:07:23Z</time>
      </trkpt>
      <trkpt lat="50.00701" lon="2.38845">
        <ele>113.3</ele>
        <time>2022-11-16T13:07:25Z</time>
      </trkpt>
      <trkpt lat="50.007" lon="2.38845">
        <ele>113.2</ele>
        <time>2022-11-16T13:07:26Z</time>
      </trkpt>
      <trkpt lat="50.00699" lon="2.38846">
        <ele>113.2</ele>
        <time>2022-11-16T13:07:27Z</time>
      </trkpt>
      <trkpt lat="50.00698" lon="2.38846">
        <ele>113.1</ele>
        <time>2022-11-16T13:07:28Z</time>
      </trkpt>
      <trkpt lat="50.00697" lon="2.38847">
        <ele>113.1</ele>
        <time>2022-11-16T13:07:30Z</time>
      </trkpt>
      <trkpt lat="50.00695" lon="2.38848">
        <ele>113</ele>
        <time>2022-11-16T13:07:31Z</time>
      </trkpt>
      <trkpt lat="50.00694" lon="2.38849">
        <ele>113</ele>
        <time>2022-11-16T13:07:32Z</time>
      </trkpt>
      <trkpt lat="50.00693" lon="2.3885">
        <ele>113</ele>
        <time>2022-11-16T13:07:33Z</time>
      </trkpt>
      <trkpt lat="50.00693" lon="2.3885">
        <ele>112.9</ele>
        <time>2022-11-16T13:07:34Z</time>
      </trkpt>
      <trkpt lat="50.00692" lon="2.38851">
        <ele>112.9</ele>
        <time>2022-11-16T13:07:35Z</time>
      </trkpt>
      <trkpt lat="50.0069" lon="2.38853">
        <ele>112.8</ele>
        <time>2022-11-16T13:07:37Z</time>
      </trkpt>
      <trkpt lat="50.00689" lon="2.38854">
        <ele>112.7</ele>
        <time>2022-11-16T13:07:38Z</time>
      </trkpt>
      <trkpt lat="50.00688" lon="2.38855">
        <ele>112.7</ele>
        <time>2022-11-16T13:07:39Z</time>
      </trkpt>
      <trkpt lat="50.00686" lon="2.38856">
        <ele>112.6</ele>
        <time>2022-11-16T13:07:40Z</time>
      </trkpt>
      <trkpt lat="50.00685" lon="2.38857">
        <ele>112.5</ele>
        <time>2022-11-16T13:07:41Z</time>
      </trkpt>
      <trkpt lat="50.00684" lon="2.38858">
        <ele>112.4</ele>
        <time>2022-11-16T13:07:42Z</time>
      </trkpt>
      <trkpt lat="50.00683" lon="2.38859">
        <ele>112.3</ele>
        <time>2022-11-16T13:07:43Z</time>
      </trkpt>
      <trkpt lat="50.00681" lon="2.3886">
        <ele>112.2</ele>
        <time>2022-11-16T13:07:44Z</time>
      </trkpt>
      <trkpt lat="50.0068" lon="2.38861">
        <ele>112.2</ele>
        <time>2022-11-16T13:07:46Z</time>
      </trkpt>
      <trkpt lat="50.00679" lon="2.38861">
        <ele>112.1</ele>
        <time>2022-11-16T13:07:47Z</time>
      </trkpt>
      <trkpt lat="50.00678" lon="2.38863">
        <ele>112</ele>
        <time>2022-11-16T13:07:48Z</time>
      </trkpt>
      <trkpt lat="50.00677" lon="2.38864">
        <ele>112</ele>
        <time>2022-11-16T13:07:49Z</time>
      </trkpt>
      <trkpt lat="50.00675" lon="2.38865">
        <ele>111.8</ele>
        <time>2022-11-16T13:07:50Z</time>
      </trkpt>
      <trkpt lat="50.00674" lon="2.38866">
        <ele>111.8</ele>
        <time>2022-11-16T13:07:51Z</time>
      </trkpt>
      <trkpt lat="50.00673" lon="2.38867">
        <ele>111.7</ele>
        <time>2022-11-16T13:07:52Z</time>
      </trkpt>
      <trkpt lat="50.00672" lon="2.38868">
        <ele>111.7</ele>
        <time>2022-11-16T13:07:54Z</time>
      </trkpt>
      <trkpt lat="50.00671" lon="2.38869">
        <ele>111.6</ele>
        <time>2022-11-16T13:07:55Z</time>
      </trkpt>
      <trkpt lat="50.00671" lon="2.3887">
        <ele>111.5</ele>
        <time>2022-11-16T13:07:56Z</time>
      </trkpt>
      <trkpt lat="50.0067" lon="2.38871">
        <ele>111.5</ele>
        <time>2022-11-16T13:07:57Z</time>
      </trkpt>
      <trkpt lat="50.00669" lon="2.38872">
        <ele>111.4</ele>
        <time>2022-11-16T13:07:58Z</time>
      </trkpt>
      <trkpt lat="50.00668" lon="2.38874">
        <ele>111.3</ele>
        <time>2022-11-16T13:07:59Z</time>
      </trkpt>
      <trkpt lat="50.00667" lon="2.38876">
        <ele>111.2</ele>
        <time>2022-11-16T13:08:00Z</time>
      </trkpt>
      <trkpt lat="50.00666" lon="2.38877">
        <ele>111.2</ele>
        <time>2022-11-16T13:08:01Z</time>
      </trkpt>
      <trkpt lat="50.00666" lon="2.38879">
        <ele>111.1</ele>
        <time>2022-11-16T13:08:02Z</time>
      </trkpt>
      <trkpt lat="50.00665" lon="2.3888">
        <ele>111</ele>
        <time>2022-11-16T13:08:03Z</time>
      </trkpt>
      <trkpt lat="50.00664" lon="2.38881">
        <ele>111</ele>
        <time>2022-11-16T13:08:04Z</time>
      </trkpt>
      <trkpt lat="50.00663" lon="2.38884">
        <ele>110.8</ele>
        <time>2022-11-16T13:08:05Z</time>
      </trkpt>
      <trkpt lat="50.00662" lon="2.38885">
        <ele>110.8</ele>
        <time>2022-11-16T13:08:06Z</time>
      </trkpt>
      <trkpt lat="50.00662" lon="2.38886">
        <ele>110.7</ele>
        <time>2022-11-16T13:08:07Z</time>
      </trkpt>
      <trkpt lat="50.0066" lon="2.38888">
        <ele>110.6</ele>
        <time>2022-11-16T13:08:08Z</time>
      </trkpt>
      <trkpt lat="50.00659" lon="2.3889">
        <ele>110.5</ele>
        <time>2022-11-16T13:08:10Z</time>
      </trkpt>
      <trkpt lat="50.00658" lon="2.38891">
        <ele>110.5</ele>
        <time>2022-11-16T13:08:11Z</time>
      </trkpt>
      <trkpt lat="50.00658" lon="2.38892">
        <ele>110.4</ele>
        <time>2022-11-16T13:08:12Z</time>
      </trkpt>
      <trkpt lat="50.00657" lon="2.38893">
        <ele>110.3</ele>
        <time>2022-11-16T13:08:13Z</time>
      </trkpt>
      <trkpt lat="50.00656" lon="2.38895">
        <ele>110.2</ele>
        <time>2022-11-16T13:08:14Z</time>
      </trkpt>
      <trkpt lat="50.00655" lon="2.38896">
        <ele>110.2</ele>
        <time>2022-11-16T13:08:15Z</time>
      </trkpt>
      <trkpt lat="50.00654" lon="2.38898">
        <ele>110.1</ele>
        <time>2022-11-16T13:08:16Z</time>
      </trkpt>
      <trkpt lat="50.00653" lon="2.38901">
        <ele>110</ele>
        <time>2022-11-16T13:08:17Z</time>
      </trkpt>
      <trkpt lat="50.00652" lon="2.38902">
        <ele>109.9</ele>
        <time>2022-11-16T13:08:18Z</time>
      </trkpt>
      <trkpt lat="50.00651" lon="2.38904">
        <ele>109.8</ele>
        <time>2022-11-16T13:08:20Z</time>
      </trkpt>
      <trkpt lat="50.0065" lon="2.38906">
        <ele>109.8</ele>
        <time>2022-11-16T13:08:21Z</time>
      </trkpt>
      <trkpt lat="50.00649" lon="2.38907">
        <ele>109.7</ele>
        <time>2022-11-16T13:08:22Z</time>
      </trkpt>
      <trkpt lat="50.00649" lon="2.38909">
        <ele>109.6</ele>
        <time>2022-11-16T13:08:23Z</time>
      </trkpt>
      <trkpt lat="50.00648" lon="2.3891">
        <ele>109.6</ele>
        <time>2022-11-16T13:08:24Z</time>
      </trkpt>
      <trkpt lat="50.00647" lon="2.38912">
        <ele>109.5</ele>
        <time>2022-11-16T13:08:25Z</time>
      </trkpt>
      <trkpt lat="50.00647" lon="2.38913">
        <ele>109.5</ele>
        <time>2022-11-16T13:08:26Z</time>
      </trkpt>
      <trkpt lat="50.00646" lon="2.38915">
        <ele>109.4</ele>
        <time>2022-11-16T13:08:27Z</time>
      </trkpt>
      <trkpt lat="50.00645" lon="2.38917">
        <ele>109.3</ele>
        <time>2022-11-16T13:08:28Z</time>
      </trkpt>
      <trkpt lat="50.00644" lon="2.38919">
        <ele>109.2</ele>
        <time>2022-11-16T13:08:29Z</time>
      </trkpt>
      <trkpt lat="50.00643" lon="2.38921">
        <ele>109.2</ele>
        <time>2022-11-16T13:08:30Z</time>
      </trkpt>
      <trkpt lat="50.00642" lon="2.38923">
        <ele>109.1</ele>
        <time>2022-11-16T13:08:31Z</time>
      </trkpt>
      <trkpt lat="50.00642" lon="2.38924">
        <ele>109.1</ele>
        <time>2022-11-16T13:08:32Z</time>
      </trkpt>
      <trkpt lat="50.00641" lon="2.38926">
        <ele>109</ele>
        <time>2022-11-16T13:08:33Z</time>
      </trkpt>
      <trkpt lat="50.0064" lon="2.38927">
        <ele>108.9</ele>
        <time>2022-11-16T13:08:34Z</time>
      </trkpt>
      <trkpt lat="50.0064" lon="2.38928">
        <ele>108.9</ele>
        <time>2022-11-16T13:08:35Z</time>
      </trkpt>
      <trkpt lat="50.00639" lon="2.3893">
        <ele>108.8</ele>
        <time>2022-11-16T13:08:37Z</time>
      </trkpt>
      <trkpt lat="50.00639" lon="2.38931">
        <ele>108.8</ele>
        <time>2022-11-16T13:08:38Z</time>
      </trkpt>
      <trkpt lat="50.00638" lon="2.38932">
        <ele>108.7</ele>
        <time>2022-11-16T13:08:39Z</time>
      </trkpt>
      <trkpt lat="50.00637" lon="2.38934">
        <ele>108.7</ele>
        <time>2022-11-16T13:08:40Z</time>
      </trkpt>
      <trkpt lat="50.00636" lon="2.38936">
        <ele>108.6</ele>
        <time>2022-11-16T13:08:41Z</time>
      </trkpt>
      <trkpt lat="50.00635" lon="2.38938">
        <ele>108.5</ele>
        <time>2022-11-16T13:08:42Z</time>
      </trkpt>
      <trkpt lat="50.00635" lon="2.3894">
        <ele>108.5</ele>
        <time>2022-11-16T13:08:43Z</time>
      </trkpt>
      <trkpt lat="50.00634" lon="2.38942">
        <ele>108.4</ele>
        <time>2022-11-16T13:08:45Z</time>
      </trkpt>
      <trkpt lat="50.00633" lon="2.38943">
        <ele>108.4</ele>
        <time>2022-11-16T13:08:46Z</time>
      </trkpt>
      <trkpt lat="50.00632" lon="2.38946">
        <ele>108.3</ele>
        <time>2022-11-16T13:08:47Z</time>
      </trkpt>
      <trkpt lat="50.00631" lon="2.38948">
        <ele>108.2</ele>
        <time>2022-11-16T13:08:48Z</time>
      </trkpt>
      <trkpt lat="50.0063" lon="2.38949">
        <ele>108.2</ele>
        <time>2022-11-16T13:08:49Z</time>
      </trkpt>
      <trkpt lat="50.0063" lon="2.38951">
        <ele>108.1</ele>
        <time>2022-11-16T13:08:50Z</time>
      </trkpt>
      <trkpt lat="50.00628" lon="2.38953">
        <ele>108.1</ele>
        <time>2022-11-16T13:08:51Z</time>
      </trkpt>
      <trkpt lat="50.00628" lon="2.38954">
        <ele>108</ele>
        <time>2022-11-16T13:08:52Z</time>
      </trkpt>
      <trkpt lat="50.00627" lon="2.38955">
        <ele>108</ele>
        <time>2022-11-16T13:08:53Z</time>
      </trkpt>
      <trkpt lat="50.00627" lon="2.38956">
        <ele>108</ele>
        <time>2022-11-16T13:08:54Z</time>
      </trkpt>
      <trkpt lat="50.00626" lon="2.38957">
        <ele>107.9</ele>
        <time>2022-11-16T13:08:56Z</time>
      </trkpt>
      <trkpt lat="50.00625" lon="2.38959">
        <ele>107.9</ele>
        <time>2022-11-16T13:08:57Z</time>
      </trkpt>
      <trkpt lat="50.00624" lon="2.38961">
        <ele>107.8</ele>
        <time>2022-11-16T13:08:58Z</time>
      </trkpt>
      <trkpt lat="50.00623" lon="2.38963">
        <ele>107.7</ele>
        <time>2022-11-16T13:08:59Z</time>
      </trkpt>
      <trkpt lat="50.00622" lon="2.38965">
        <ele>107.6</ele>
        <time>2022-11-16T13:09:00Z</time>
      </trkpt>
      <trkpt lat="50.00621" lon="2.38968">
        <ele>107.5</ele>
        <time>2022-11-16T13:09:02Z</time>
      </trkpt>
      <trkpt lat="50.00619" lon="2.38971">
        <ele>107.4</ele>
        <time>2022-11-16T13:09:03Z</time>
      </trkpt>
      <trkpt lat="50.00618" lon="2.38972">
        <ele>107.4</ele>
        <time>2022-11-16T13:09:04Z</time>
      </trkpt>
      <trkpt lat="50.00617" lon="2.38974">
        <ele>107.3</ele>
        <time>2022-11-16T13:09:05Z</time>
      </trkpt>
      <trkpt lat="50.00616" lon="2.38975">
        <ele>107.2</ele>
        <time>2022-11-16T13:09:06Z</time>
      </trkpt>
      <trkpt lat="50.00615" lon="2.38978">
        <ele>107.1</ele>
        <time>2022-11-16T13:09:07Z</time>
      </trkpt>
      <trkpt lat="50.00615" lon="2.38979">
        <ele>107.1</ele>
        <time>2022-11-16T13:09:09Z</time>
      </trkpt>
      <trkpt lat="50.00614" lon="2.3898">
        <ele>107.1</ele>
        <time>2022-11-16T13:09:10Z</time>
      </trkpt>
      <trkpt lat="50.00613" lon="2.38982">
        <ele>107</ele>
        <time>2022-11-16T13:09:11Z</time>
      </trkpt>
      <trkpt lat="50.00612" lon="2.38983">
        <ele>107</ele>
        <time>2022-11-16T13:09:12Z</time>
      </trkpt>
      <trkpt lat="50.00612" lon="2.38984">
        <ele>107</ele>
        <time>2022-11-16T13:09:13Z</time>
      </trkpt>
      <trkpt lat="50.00611" lon="2.38986">
        <ele>106.9</ele>
        <time>2022-11-16T13:09:14Z</time>
      </trkpt>
      <trkpt lat="50.0061" lon="2.38988">
        <ele>106.9</ele>
        <time>2022-11-16T13:09:15Z</time>
      </trkpt>
      <trkpt lat="50.00609" lon="2.38989">
        <ele>106.8</ele>
        <time>2022-11-16T13:09:17Z</time>
      </trkpt>
      <trkpt lat="50.00608" lon="2.38991">
        <ele>106.8</ele>
        <time>2022-11-16T13:09:18Z</time>
      </trkpt>
      <trkpt lat="50.00607" lon="2.38993">
        <ele>106.7</ele>
        <time>2022-11-16T13:09:19Z</time>
      </trkpt>
      <trkpt lat="50.00606" lon="2.38994">
        <ele>106.7</ele>
        <time>2022-11-16T13:09:20Z</time>
      </trkpt>
      <trkpt lat="50.00605" lon="2.38995">
        <ele>106.7</ele>
        <time>2022-11-16T13:09:21Z</time>
      </trkpt>
      <trkpt lat="50.00604" lon="2.38998">
        <ele>106.6</ele>
        <time>2022-11-16T13:09:22Z</time>
      </trkpt>
      <trkpt lat="50.00603" lon="2.38999">
        <ele>106.6</ele>
        <time>2022-11-16T13:09:23Z</time>
      </trkpt>
      <trkpt lat="50.00603" lon="2.39">
        <ele>106.6</ele>
        <time>2022-11-16T13:09:24Z</time>
      </trkpt>
      <trkpt lat="50.00602" lon="2.39002">
        <ele>106.6</ele>
        <time>2022-11-16T13:09:26Z</time>
      </trkpt>
      <trkpt lat="50.00601" lon="2.39003">
        <ele>106.5</ele>
        <time>2022-11-16T13:09:27Z</time>
      </trkpt>
      <trkpt lat="50.00601" lon="2.39004">
        <ele>106.5</ele>
        <time>2022-11-16T13:09:28Z</time>
      </trkpt>
      <trkpt lat="50.006" lon="2.39005">
        <ele>106.5</ele>
        <time>2022-11-16T13:09:29Z</time>
      </trkpt>
      <trkpt lat="50.00599" lon="2.39007">
        <ele>106.4</ele>
        <time>2022-11-16T13:09:30Z</time>
      </trkpt>
      <trkpt lat="50.00599" lon="2.39009">
        <ele>106.4</ele>
        <time>2022-11-16T13:09:31Z</time>
      </trkpt>
      <trkpt lat="50.00598" lon="2.39011">
        <ele>106.4</ele>
        <time>2022-11-16T13:09:32Z</time>
      </trkpt>
      <trkpt lat="50.00597" lon="2.39012">
        <ele>106.3</ele>
        <time>2022-11-16T13:09:33Z</time>
      </trkpt>
      <trkpt lat="50.00597" lon="2.39014">
        <ele>106.3</ele>
        <time>2022-11-16T13:09:34Z</time>
      </trkpt>
      <trkpt lat="50.00596" lon="2.39017">
        <ele>106.2</ele>
        <time>2022-11-16T13:09:36Z</time>
      </trkpt>
      <trkpt lat="50.00595" lon="2.39018">
        <ele>106.1</ele>
        <time>2022-11-16T13:09:37Z</time>
      </trkpt>
      <trkpt lat="50.00595" lon="2.39019">
        <ele>106.1</ele>
        <time>2022-11-16T13:09:38Z</time>
      </trkpt>
      <trkpt lat="50.00594" lon="2.3902">
        <ele>106.1</ele>
        <time>2022-11-16T13:09:39Z</time>
      </trkpt>
      <trkpt lat="50.00593" lon="2.39023">
        <ele>106</ele>
        <time>2022-11-16T13:09:40Z</time>
      </trkpt>
      <trkpt lat="50.00592" lon="2.39024">
        <ele>105.9</ele>
        <time>2022-11-16T13:09:41Z</time>
      </trkpt>
      <trkpt lat="50.00592" lon="2.39025">
        <ele>105.9</ele>
        <time>2022-11-16T13:09:42Z</time>
      </trkpt>
      <trkpt lat="50.0059" lon="2.39028">
        <ele>105.8</ele>
        <time>2022-11-16T13:09:43Z</time>
      </trkpt>
      <trkpt lat="50.0059" lon="2.39029">
        <ele>105.8</ele>
        <time>2022-11-16T13:09:44Z</time>
      </trkpt>
      <trkpt lat="50.00589" lon="2.3903">
        <ele>105.7</ele>
        <time>2022-11-16T13:09:45Z</time>
      </trkpt>
      <trkpt lat="50.00588" lon="2.39031">
        <ele>105.7</ele>
        <time>2022-11-16T13:09:47Z</time>
      </trkpt>
      <trkpt lat="50.00588" lon="2.39032">
        <ele>105.7</ele>
        <time>2022-11-16T13:09:48Z</time>
      </trkpt>
      <trkpt lat="50.00587" lon="2.39034">
        <ele>105.6</ele>
        <time>2022-11-16T13:09:49Z</time>
      </trkpt>
      <trkpt lat="50.00586" lon="2.39036">
        <ele>105.6</ele>
        <time>2022-11-16T13:09:50Z</time>
      </trkpt>
      <trkpt lat="50.00586" lon="2.39037">
        <ele>105.5</ele>
        <time>2022-11-16T13:09:51Z</time>
      </trkpt>
      <trkpt lat="50.00584" lon="2.3904">
        <ele>105.4</ele>
        <time>2022-11-16T13:09:52Z</time>
      </trkpt>
      <trkpt lat="50.00583" lon="2.39042">
        <ele>105.4</ele>
        <time>2022-11-16T13:09:54Z</time>
      </trkpt>
      <trkpt lat="50.00583" lon="2.39043">
        <ele>105.4</ele>
        <time>2022-11-16T13:09:55Z</time>
      </trkpt>
      <trkpt lat="50.00582" lon="2.39044">
        <ele>105.3</ele>
        <time>2022-11-16T13:09:56Z</time>
      </trkpt>
      <trkpt lat="50.00581" lon="2.39046">
        <ele>105.3</ele>
        <time>2022-11-16T13:09:57Z</time>
      </trkpt>
      <trkpt lat="50.0058" lon="2.39047">
        <ele>105.2</ele>
        <time>2022-11-16T13:09:58Z</time>
      </trkpt>
      <trkpt lat="50.00579" lon="2.3905">
        <ele>105.2</ele>
        <time>2022-11-16T13:09:59Z</time>
      </trkpt>
      <trkpt lat="50.00578" lon="2.39051">
        <ele>105.1</ele>
        <time>2022-11-16T13:10:01Z</time>
      </trkpt>
      <trkpt lat="50.00577" lon="2.39052">
        <ele>105.1</ele>
        <time>2022-11-16T13:10:02Z</time>
      </trkpt>
      <trkpt lat="50.00576" lon="2.39053">
        <ele>105.1</ele>
        <time>2022-11-16T13:10:03Z</time>
      </trkpt>
      <trkpt lat="50.00575" lon="2.39056">
        <ele>105</ele>
        <time>2022-11-16T13:10:04Z</time>
      </trkpt>
      <trkpt lat="50.00575" lon="2.39057">
        <ele>104.9</ele>
        <time>2022-11-16T13:10:05Z</time>
      </trkpt>
      <trkpt lat="50.00574" lon="2.39058">
        <ele>104.9</ele>
        <time>2022-11-16T13:10:06Z</time>
      </trkpt>
      <trkpt lat="50.00573" lon="2.3906">
        <ele>104.8</ele>
        <time>2022-11-16T13:10:07Z</time>
      </trkpt>
      <trkpt lat="50.00572" lon="2.39062">
        <ele>104.8</ele>
        <time>2022-11-16T13:10:08Z</time>
      </trkpt>
      <trkpt lat="50.00571" lon="2.39064">
        <ele>104.7</ele>
        <time>2022-11-16T13:10:10Z</time>
      </trkpt>
      <trkpt lat="50.0057" lon="2.39066">
        <ele>104.7</ele>
        <time>2022-11-16T13:10:11Z</time>
      </trkpt>
      <trkpt lat="50.00569" lon="2.39067">
        <ele>104.6</ele>
        <time>2022-11-16T13:10:12Z</time>
      </trkpt>
      <trkpt lat="50.00568" lon="2.39069">
        <ele>104.5</ele>
        <time>2022-11-16T13:10:13Z</time>
      </trkpt>
      <trkpt lat="50.00566" lon="2.39073">
        <ele>104.4</ele>
        <time>2022-11-16T13:10:14Z</time>
      </trkpt>
      <trkpt lat="50.00566" lon="2.39073">
        <ele>104.4</ele>
        <time>2022-11-16T13:10:15Z</time>
      </trkpt>
      <trkpt lat="50.00565" lon="2.39075">
        <ele>104.4</ele>
        <time>2022-11-16T13:10:16Z</time>
      </trkpt>
      <trkpt lat="50.00564" lon="2.39076">
        <ele>104.3</ele>
        <time>2022-11-16T13:10:18Z</time>
      </trkpt>
      <trkpt lat="50.00564" lon="2.39078">
        <ele>104.3</ele>
        <time>2022-11-16T13:10:19Z</time>
      </trkpt>
      <trkpt lat="50.00562" lon="2.39081">
        <ele>104.2</ele>
        <time>2022-11-16T13:10:20Z</time>
      </trkpt>
      <trkpt lat="50.00562" lon="2.39082">
        <ele>104.2</ele>
        <time>2022-11-16T13:10:21Z</time>
      </trkpt>
      <trkpt lat="50.00561" lon="2.39083">
        <ele>104.2</ele>
        <time>2022-11-16T13:10:22Z</time>
      </trkpt>
      <trkpt lat="50.0056" lon="2.39085">
        <ele>104.1</ele>
        <time>2022-11-16T13:10:23Z</time>
      </trkpt>
      <trkpt lat="50.00559" lon="2.39088">
        <ele>104</ele>
        <time>2022-11-16T13:10:25Z</time>
      </trkpt>
      <trkpt lat="50.00558" lon="2.3909">
        <ele>104</ele>
        <time>2022-11-16T13:10:26Z</time>
      </trkpt>
      <trkpt lat="50.00558" lon="2.39091">
        <ele>104</ele>
        <time>2022-11-16T13:10:27Z</time>
      </trkpt>
      <trkpt lat="50.00556" lon="2.39094">
        <ele>103.9</ele>
        <time>2022-11-16T13:10:28Z</time>
      </trkpt>
      <trkpt lat="50.00556" lon="2.39095">
        <ele>103.9</ele>
        <time>2022-11-16T13:10:29Z</time>
      </trkpt>
      <trkpt lat="50.00556" lon="2.39096">
        <ele>103.8</ele>
        <time>2022-11-16T13:10:30Z</time>
      </trkpt>
      <trkpt lat="50.00555" lon="2.39098">
        <ele>103.8</ele>
        <time>2022-11-16T13:10:31Z</time>
      </trkpt>
      <trkpt lat="50.00555" lon="2.39099">
        <ele>103.8</ele>
        <time>2022-11-16T13:10:32Z</time>
      </trkpt>
      <trkpt lat="50.00554" lon="2.391">
        <ele>103.8</ele>
        <time>2022-11-16T13:10:33Z</time>
      </trkpt>
      <trkpt lat="50.00554" lon="2.39102">
        <ele>103.7</ele>
        <time>2022-11-16T13:10:34Z</time>
      </trkpt>
      <trkpt lat="50.00553" lon="2.39103">
        <ele>103.7</ele>
        <time>2022-11-16T13:10:35Z</time>
      </trkpt>
      <trkpt lat="50.00552" lon="2.39105">
        <ele>103.7</ele>
        <time>2022-11-16T13:10:36Z</time>
      </trkpt>
      <trkpt lat="50.00552" lon="2.39106">
        <ele>103.7</ele>
        <time>2022-11-16T13:10:38Z</time>
      </trkpt>
      <trkpt lat="50.00551" lon="2.39107">
        <ele>103.6</ele>
        <time>2022-11-16T13:10:39Z</time>
      </trkpt>
      <trkpt lat="50.00551" lon="2.39108">
        <ele>103.6</ele>
        <time>2022-11-16T13:10:40Z</time>
      </trkpt>
      <trkpt lat="50.0055" lon="2.3911">
        <ele>103.6</ele>
        <time>2022-11-16T13:10:41Z</time>
      </trkpt>
      <trkpt lat="50.00549" lon="2.39112">
        <ele>103.5</ele>
        <time>2022-11-16T13:10:42Z</time>
      </trkpt>
      <trkpt lat="50.00548" lon="2.39115">
        <ele>103.5</ele>
        <time>2022-11-16T13:10:43Z</time>
      </trkpt>
      <trkpt lat="50.00548" lon="2.39116">
        <ele>103.5</ele>
        <time>2022-11-16T13:10:44Z</time>
      </trkpt>
      <trkpt lat="50.00547" lon="2.39117">
        <ele>103.4</ele>
        <time>2022-11-16T13:10:45Z</time>
      </trkpt>
      <trkpt lat="50.00547" lon="2.39118">
        <ele>103.4</ele>
        <time>2022-11-16T13:10:46Z</time>
      </trkpt>
      <trkpt lat="50.00546" lon="2.3912">
        <ele>103.4</ele>
        <time>2022-11-16T13:10:48Z</time>
      </trkpt>
      <trkpt lat="50.00546" lon="2.39121">
        <ele>103.4</ele>
        <time>2022-11-16T13:10:49Z</time>
      </trkpt>
      <trkpt lat="50.00546" lon="2.39123">
        <ele>103.3</ele>
        <time>2022-11-16T13:10:50Z</time>
      </trkpt>
      <trkpt lat="50.00545" lon="2.39124">
        <ele>103.3</ele>
        <time>2022-11-16T13:10:51Z</time>
      </trkpt>
      <trkpt lat="50.00545" lon="2.39126">
        <ele>103.3</ele>
        <time>2022-11-16T13:10:52Z</time>
      </trkpt>
      <trkpt lat="50.00544" lon="2.39128">
        <ele>103.2</ele>
        <time>2022-11-16T13:10:53Z</time>
      </trkpt>
      <trkpt lat="50.00544" lon="2.39129">
        <ele>103.2</ele>
        <time>2022-11-16T13:10:54Z</time>
      </trkpt>
      <trkpt lat="50.00544" lon="2.39131">
        <ele>103.2</ele>
        <time>2022-11-16T13:10:55Z</time>
      </trkpt>
      <trkpt lat="50.00543" lon="2.39134">
        <ele>103.1</ele>
        <time>2022-11-16T13:10:56Z</time>
      </trkpt>
      <trkpt lat="50.00543" lon="2.39135">
        <ele>103.1</ele>
        <time>2022-11-16T13:10:57Z</time>
      </trkpt>
      <trkpt lat="50.00542" lon="2.39136">
        <ele>103.1</ele>
        <time>2022-11-16T13:10:58Z</time>
      </trkpt>
      <trkpt lat="50.00541" lon="2.39139">
        <ele>103</ele>
        <time>2022-11-16T13:10:59Z</time>
      </trkpt>
      <trkpt lat="50.00541" lon="2.39141">
        <ele>103</ele>
        <time>2022-11-16T13:11:01Z</time>
      </trkpt>
      <trkpt lat="50.00541" lon="2.39142">
        <ele>103</ele>
        <time>2022-11-16T13:11:02Z</time>
      </trkpt>
      <trkpt lat="50.0054" lon="2.39145">
        <ele>103</ele>
        <time>2022-11-16T13:11:03Z</time>
      </trkpt>
      <trkpt lat="50.00539" lon="2.39146">
        <ele>103</ele>
        <time>2022-11-16T13:11:04Z</time>
      </trkpt>
      <trkpt lat="50.00539" lon="2.39147">
        <ele>103</ele>
        <time>2022-11-16T13:11:05Z</time>
      </trkpt>
      <trkpt lat="50.00538" lon="2.39149">
        <ele>102.9</ele>
        <time>2022-11-16T13:11:06Z</time>
      </trkpt>
      <trkpt lat="50.00537" lon="2.3915">
        <ele>102.9</ele>
        <time>2022-11-16T13:11:07Z</time>
      </trkpt>
      <trkpt lat="50.00537" lon="2.39152">
        <ele>102.9</ele>
        <time>2022-11-16T13:11:08Z</time>
      </trkpt>
      <trkpt lat="50.00536" lon="2.39153">
        <ele>102.9</ele>
        <time>2022-11-16T13:11:09Z</time>
      </trkpt>
      <trkpt lat="50.00535" lon="2.39154">
        <ele>102.9</ele>
        <time>2022-11-16T13:11:10Z</time>
      </trkpt>
      <trkpt lat="50.00535" lon="2.39156">
        <ele>102.9</ele>
        <time>2022-11-16T13:11:11Z</time>
      </trkpt>
      <trkpt lat="50.00535" lon="2.39157">
        <ele>102.9</ele>
        <time>2022-11-16T13:11:12Z</time>
      </trkpt>
      <trkpt lat="50.00534" lon="2.39158">
        <ele>102.9</ele>
        <time>2022-11-16T13:11:14Z</time>
      </trkpt>
      <trkpt lat="50.00534" lon="2.3916">
        <ele>102.9</ele>
        <time>2022-11-16T13:11:15Z</time>
      </trkpt>
      <trkpt lat="50.00533" lon="2.39161">
        <ele>102.9</ele>
        <time>2022-11-16T13:11:16Z</time>
      </trkpt>
      <trkpt lat="50.00533" lon="2.39163">
        <ele>102.9</ele>
        <time>2022-11-16T13:11:17Z</time>
      </trkpt>
      <trkpt lat="50.00532" lon="2.39164">
        <ele>102.9</ele>
        <time>2022-11-16T13:11:18Z</time>
      </trkpt>
      <trkpt lat="50.00532" lon="2.39166">
        <ele>102.9</ele>
        <time>2022-11-16T13:11:19Z</time>
      </trkpt>
      <trkpt lat="50.00531" lon="2.39167">
        <ele>102.9</ele>
        <time>2022-11-16T13:11:20Z</time>
      </trkpt>
      <trkpt lat="50.00531" lon="2.39169">
        <ele>102.9</ele>
        <time>2022-11-16T13:11:21Z</time>
      </trkpt>
      <trkpt lat="50.0053" lon="2.39171">
        <ele>102.9</ele>
        <time>2022-11-16T13:11:22Z</time>
      </trkpt>
      <trkpt lat="50.00529" lon="2.39172">
        <ele>102.9</ele>
        <time>2022-11-16T13:11:23Z</time>
      </trkpt>
      <trkpt lat="50.00529" lon="2.39173">
        <ele>102.9</ele>
        <time>2022-11-16T13:11:24Z</time>
      </trkpt>
      <trkpt lat="50.00528" lon="2.39176">
        <ele>102.9</ele>
        <time>2022-11-16T13:11:25Z</time>
      </trkpt>
      <trkpt lat="50.00528" lon="2.39178">
        <ele>102.9</ele>
        <time>2022-11-16T13:11:27Z</time>
      </trkpt>
      <trkpt lat="50.00527" lon="2.39179">
        <ele>102.9</ele>
        <time>2022-11-16T13:11:28Z</time>
      </trkpt>
      <trkpt lat="50.00527" lon="2.3918">
        <ele>102.9</ele>
        <time>2022-11-16T13:11:29Z</time>
      </trkpt>
      <trkpt lat="50.00526" lon="2.39181">
        <ele>102.9</ele>
        <time>2022-11-16T13:11:30Z</time>
      </trkpt>
      <trkpt lat="50.00525" lon="2.39183">
        <ele>102.9</ele>
        <time>2022-11-16T13:11:31Z</time>
      </trkpt>
      <trkpt lat="50.00524" lon="2.39185">
        <ele>103</ele>
        <time>2022-11-16T13:11:32Z</time>
      </trkpt>
      <trkpt lat="50.00523" lon="2.39187">
        <ele>103</ele>
        <time>2022-11-16T13:11:33Z</time>
      </trkpt>
      <trkpt lat="50.00522" lon="2.39189">
        <ele>103</ele>
        <time>2022-11-16T13:11:34Z</time>
      </trkpt>
      <trkpt lat="50.00521" lon="2.3919">
        <ele>103</ele>
        <time>2022-11-16T13:11:35Z</time>
      </trkpt>
      <trkpt lat="50.00521" lon="2.39191">
        <ele>103</ele>
        <time>2022-11-16T13:11:36Z</time>
      </trkpt>
      <trkpt lat="50.0052" lon="2.39192">
        <ele>103</ele>
        <time>2022-11-16T13:11:37Z</time>
      </trkpt>
      <trkpt lat="50.00519" lon="2.39193">
        <ele>103</ele>
        <time>2022-11-16T13:11:38Z</time>
      </trkpt>
      <trkpt lat="50.00518" lon="2.39195">
        <ele>103</ele>
        <time>2022-11-16T13:11:40Z</time>
      </trkpt>
      <trkpt lat="50.00516" lon="2.39196">
        <ele>103</ele>
        <time>2022-11-16T13:11:41Z</time>
      </trkpt>
      <trkpt lat="50.00515" lon="2.39197">
        <ele>103</ele>
        <time>2022-11-16T13:11:42Z</time>
      </trkpt>
      <trkpt lat="50.00513" lon="2.392">
        <ele>103.1</ele>
        <time>2022-11-16T13:11:43Z</time>
      </trkpt>
      <trkpt lat="50.00512" lon="2.39201">
        <ele>103.1</ele>
        <time>2022-11-16T13:11:44Z</time>
      </trkpt>
      <trkpt lat="50.00511" lon="2.39202">
        <ele>103.1</ele>
        <time>2022-11-16T13:11:45Z</time>
      </trkpt>
      <trkpt lat="50.0051" lon="2.39203">
        <ele>103.1</ele>
        <time>2022-11-16T13:11:47Z</time>
      </trkpt>
      <trkpt lat="50.00508" lon="2.39205">
        <ele>103.1</ele>
        <time>2022-11-16T13:11:48Z</time>
      </trkpt>
      <trkpt lat="50.00507" lon="2.39206">
        <ele>103.1</ele>
        <time>2022-11-16T13:11:49Z</time>
      </trkpt>
      <trkpt lat="50.00505" lon="2.39207">
        <ele>103.2</ele>
        <time>2022-11-16T13:11:50Z</time>
      </trkpt>
      <trkpt lat="50.00504" lon="2.39208">
        <ele>103.2</ele>
        <time>2022-11-16T13:11:52Z</time>
      </trkpt>
      <trkpt lat="50.00503" lon="2.3921">
        <ele>103.2</ele>
        <time>2022-11-16T13:11:53Z</time>
      </trkpt>
      <trkpt lat="50.00501" lon="2.3921">
        <ele>103.2</ele>
        <time>2022-11-16T13:11:54Z</time>
      </trkpt>
      <trkpt lat="50.005" lon="2.39211">
        <ele>103.2</ele>
        <time>2022-11-16T13:11:55Z</time>
      </trkpt>
      <trkpt lat="50.00498" lon="2.39213">
        <ele>103.2</ele>
        <time>2022-11-16T13:11:56Z</time>
      </trkpt>
      <trkpt lat="50.00497" lon="2.39214">
        <ele>103.3</ele>
        <time>2022-11-16T13:11:57Z</time>
      </trkpt>
      <trkpt lat="50.00496" lon="2.39215">
        <ele>103.3</ele>
        <time>2022-11-16T13:11:58Z</time>
      </trkpt>
      <trkpt lat="50.00494" lon="2.39216">
        <ele>103.3</ele>
        <time>2022-11-16T13:11:59Z</time>
      </trkpt>
      <trkpt lat="50.00493" lon="2.39217">
        <ele>103.3</ele>
        <time>2022-11-16T13:12:00Z</time>
      </trkpt>
      <trkpt lat="50.00492" lon="2.39218">
        <ele>103.3</ele>
        <time>2022-11-16T13:12:01Z</time>
      </trkpt>
      <trkpt lat="50.0049" lon="2.39219">
        <ele>103.3</ele>
        <time>2022-11-16T13:12:02Z</time>
      </trkpt>
      <trkpt lat="50.0049" lon="2.3922">
        <ele>103.3</ele>
        <time>2022-11-16T13:12:04Z</time>
      </trkpt>
      <trkpt lat="50.00489" lon="2.3922">
        <ele>103.3</ele>
        <time>2022-11-16T13:12:05Z</time>
      </trkpt>
      <trkpt lat="50.00487" lon="2.39221">
        <ele>103.4</ele>
        <time>2022-11-16T13:12:06Z</time>
      </trkpt>
      <trkpt lat="50.00486" lon="2.39222">
        <ele>103.4</ele>
        <time>2022-11-16T13:12:07Z</time>
      </trkpt>
      <trkpt lat="50.00484" lon="2.39222">
        <ele>103.4</ele>
        <time>2022-11-16T13:12:08Z</time>
      </trkpt>
      <trkpt lat="50.00483" lon="2.39223">
        <ele>103.4</ele>
        <time>2022-11-16T13:12:09Z</time>
      </trkpt>
      <trkpt lat="50.00482" lon="2.39223">
        <ele>103.4</ele>
        <time>2022-11-16T13:12:10Z</time>
      </trkpt>
      <trkpt lat="50.00481" lon="2.39224">
        <ele>103.4</ele>
        <time>2022-11-16T13:12:11Z</time>
      </trkpt>
      <trkpt lat="50.0048" lon="2.39225">
        <ele>103.4</ele>
        <time>2022-11-16T13:12:13Z</time>
      </trkpt>
      <trkpt lat="50.00478" lon="2.39225">
        <ele>103.4</ele>
        <time>2022-11-16T13:12:14Z</time>
      </trkpt>
      <trkpt lat="50.00478" lon="2.39225">
        <ele>103.4</ele>
        <time>2022-11-16T13:12:15Z</time>
      </trkpt>
      <trkpt lat="50.00476" lon="2.39225">
        <ele>103.4</ele>
        <time>2022-11-16T13:12:16Z</time>
      </trkpt>
      <trkpt lat="50.00474" lon="2.39225">
        <ele>103.3</ele>
        <time>2022-11-16T13:12:17Z</time>
      </trkpt>
      <trkpt lat="50.00474" lon="2.39225">
        <ele>103.3</ele>
        <time>2022-11-16T13:12:18Z</time>
      </trkpt>
      <trkpt lat="50.00473" lon="2.39225">
        <ele>103.3</ele>
        <time>2022-11-16T13:12:19Z</time>
      </trkpt>
      <trkpt lat="50.00471" lon="2.39225">
        <ele>103.3</ele>
        <time>2022-11-16T13:12:20Z</time>
      </trkpt>
      <trkpt lat="50.0047" lon="2.39225">
        <ele>103.3</ele>
        <time>2022-11-16T13:12:21Z</time>
      </trkpt>
      <trkpt lat="50.00469" lon="2.39225">
        <ele>103.3</ele>
        <time>2022-11-16T13:12:22Z</time>
      </trkpt>
      <trkpt lat="50.00468" lon="2.39225">
        <ele>103.2</ele>
        <time>2022-11-16T13:12:23Z</time>
      </trkpt>
      <trkpt lat="50.00467" lon="2.39225">
        <ele>103.2</ele>
        <time>2022-11-16T13:12:24Z</time>
      </trkpt>
      <trkpt lat="50.00466" lon="2.39225">
        <ele>103.2</ele>
        <time>2022-11-16T13:12:25Z</time>
      </trkpt>
      <trkpt lat="50.00463" lon="2.39225">
        <ele>103.1</ele>
        <time>2022-11-16T13:12:26Z</time>
      </trkpt>
      <trkpt lat="50.00462" lon="2.39225">
        <ele>103.1</ele>
        <time>2022-11-16T13:12:28Z</time>
      </trkpt>
      <trkpt lat="50.00461" lon="2.39225">
        <ele>103.1</ele>
        <time>2022-11-16T13:12:29Z</time>
      </trkpt>
      <trkpt lat="50.0046" lon="2.39225">
        <ele>103</ele>
        <time>2022-11-16T13:12:30Z</time>
      </trkpt>
      <trkpt lat="50.00459" lon="2.39225">
        <ele>103</ele>
        <time>2022-11-16T13:12:31Z</time>
      </trkpt>
      <trkpt lat="50.00457" lon="2.39225">
        <ele>103</ele>
        <time>2022-11-16T13:12:32Z</time>
      </trkpt>
      <trkpt lat="50.00455" lon="2.39225">
        <ele>102.9</ele>
        <time>2022-11-16T13:12:33Z</time>
      </trkpt>
      <trkpt lat="50.00453" lon="2.39225">
        <ele>102.8</ele>
        <time>2022-11-16T13:12:35Z</time>
      </trkpt>
      <trkpt lat="50.00452" lon="2.39225">
        <ele>102.8</ele>
        <time>2022-11-16T13:12:36Z</time>
      </trkpt>
      <trkpt lat="50.00452" lon="2.39225">
        <ele>102.8</ele>
        <time>2022-11-16T13:12:37Z</time>
      </trkpt>
      <trkpt lat="50.0045" lon="2.39225">
        <ele>102.7</ele>
        <time>2022-11-16T13:12:38Z</time>
      </trkpt>
      <trkpt lat="50.00449" lon="2.39225">
        <ele>102.7</ele>
        <time>2022-11-16T13:12:39Z</time>
      </trkpt>
      <trkpt lat="50.00448" lon="2.39225">
        <ele>102.6</ele>
        <time>2022-11-16T13:12:40Z</time>
      </trkpt>
      <trkpt lat="50.00446" lon="2.39226">
        <ele>102.6</ele>
        <time>2022-11-16T13:12:41Z</time>
      </trkpt>
      <trkpt lat="50.00444" lon="2.39226">
        <ele>102.5</ele>
        <time>2022-11-16T13:12:43Z</time>
      </trkpt>
      <trkpt lat="50.00443" lon="2.39227">
        <ele>102.4</ele>
        <time>2022-11-16T13:12:44Z</time>
      </trkpt>
      <trkpt lat="50.00442" lon="2.39227">
        <ele>102.4</ele>
        <time>2022-11-16T13:12:45Z</time>
      </trkpt>
      <trkpt lat="50.0044" lon="2.39227">
        <ele>102.3</ele>
        <time>2022-11-16T13:12:46Z</time>
      </trkpt>
      <trkpt lat="50.00439" lon="2.39227">
        <ele>102.2</ele>
        <time>2022-11-16T13:12:47Z</time>
      </trkpt>
      <trkpt lat="50.00437" lon="2.39228">
        <ele>102.2</ele>
        <time>2022-11-16T13:12:48Z</time>
      </trkpt>
      <trkpt lat="50.00435" lon="2.39228">
        <ele>102.1</ele>
        <time>2022-11-16T13:12:50Z</time>
      </trkpt>
      <trkpt lat="50.00434" lon="2.39228">
        <ele>102</ele>
        <time>2022-11-16T13:12:51Z</time>
      </trkpt>
      <trkpt lat="50.00432" lon="2.3923">
        <ele>101.9</ele>
        <time>2022-11-16T13:12:52Z</time>
      </trkpt>
      <trkpt lat="50.00431" lon="2.3923">
        <ele>101.9</ele>
        <time>2022-11-16T13:12:53Z</time>
      </trkpt>
      <trkpt lat="50.0043" lon="2.39231">
        <ele>101.8</ele>
        <time>2022-11-16T13:12:54Z</time>
      </trkpt>
      <trkpt lat="50.00428" lon="2.39231">
        <ele>101.7</ele>
        <time>2022-11-16T13:12:55Z</time>
      </trkpt>
      <trkpt lat="50.00427" lon="2.39231">
        <ele>101.7</ele>
        <time>2022-11-16T13:12:57Z</time>
      </trkpt>
      <trkpt lat="50.00426" lon="2.39232">
        <ele>101.6</ele>
        <time>2022-11-16T13:12:58Z</time>
      </trkpt>
      <trkpt lat="50.00424" lon="2.39232">
        <ele>101.5</ele>
        <time>2022-11-16T13:12:59Z</time>
      </trkpt>
      <trkpt lat="50.00423" lon="2.39232">
        <ele>101.5</ele>
        <time>2022-11-16T13:13:00Z</time>
      </trkpt>
      <trkpt lat="50.00422" lon="2.39232">
        <ele>101.4</ele>
        <time>2022-11-16T13:13:01Z</time>
      </trkpt>
      <trkpt lat="50.00421" lon="2.39232">
        <ele>101.4</ele>
        <time>2022-11-16T13:13:02Z</time>
      </trkpt>
      <trkpt lat="50.00419" lon="2.39232">
        <ele>101.3</ele>
        <time>2022-11-16T13:13:04Z</time>
      </trkpt>
      <trkpt lat="50.00418" lon="2.39233">
        <ele>101.2</ele>
        <time>2022-11-16T13:13:05Z</time>
      </trkpt>
      <trkpt lat="50.00417" lon="2.39233">
        <ele>101.2</ele>
        <time>2022-11-16T13:13:06Z</time>
      </trkpt>
      <trkpt lat="50.00415" lon="2.39234">
        <ele>101.1</ele>
        <time>2022-11-16T13:13:07Z</time>
      </trkpt>
      <trkpt lat="50.00414" lon="2.39234">
        <ele>101.1</ele>
        <time>2022-11-16T13:13:08Z</time>
      </trkpt>
      <trkpt lat="50.00413" lon="2.39235">
        <ele>101</ele>
        <time>2022-11-16T13:13:09Z</time>
      </trkpt>
      <trkpt lat="50.00412" lon="2.39235">
        <ele>101</ele>
        <time>2022-11-16T13:13:10Z</time>
      </trkpt>
      <trkpt lat="50.0041" lon="2.39236">
        <ele>100.9</ele>
        <time>2022-11-16T13:13:11Z</time>
      </trkpt>
      <trkpt lat="50.00409" lon="2.39236">
        <ele>100.8</ele>
        <time>2022-11-16T13:13:13Z</time>
      </trkpt>
      <trkpt lat="50.00407" lon="2.39237">
        <ele>100.8</ele>
        <time>2022-11-16T13:13:14Z</time>
      </trkpt>
      <trkpt lat="50.00406" lon="2.39238">
        <ele>100.7</ele>
        <time>2022-11-16T13:13:15Z</time>
      </trkpt>
      <trkpt lat="50.00404" lon="2.39238">
        <ele>100.6</ele>
        <time>2022-11-16T13:13:16Z</time>
      </trkpt>
      <trkpt lat="50.00403" lon="2.39238">
        <ele>100.6</ele>
        <time>2022-11-16T13:13:17Z</time>
      </trkpt>
      <trkpt lat="50.00401" lon="2.39239">
        <ele>100.5</ele>
        <time>2022-11-16T13:13:18Z</time>
      </trkpt>
      <trkpt lat="50.004" lon="2.39239">
        <ele>100.4</ele>
        <time>2022-11-16T13:13:19Z</time>
      </trkpt>
      <trkpt lat="50.00399" lon="2.3924">
        <ele>100.4</ele>
        <time>2022-11-16T13:13:20Z</time>
      </trkpt>
      <trkpt lat="50.00397" lon="2.3924">
        <ele>100.2</ele>
        <time>2022-11-16T13:13:21Z</time>
      </trkpt>
      <trkpt lat="50.00396" lon="2.3924">
        <ele>100.2</ele>
        <time>2022-11-16T13:13:22Z</time>
      </trkpt>
      <trkpt lat="50.00395" lon="2.3924">
        <ele>100.2</ele>
        <time>2022-11-16T13:13:23Z</time>
      </trkpt>
      <trkpt lat="50.00394" lon="2.3924">
        <ele>100.1</ele>
        <time>2022-11-16T13:13:24Z</time>
      </trkpt>
      <trkpt lat="50.00393" lon="2.3924">
        <ele>100.1</ele>
        <time>2022-11-16T13:13:25Z</time>
      </trkpt>
      <trkpt lat="50.00392" lon="2.3924">
        <ele>100</ele>
        <time>2022-11-16T13:13:26Z</time>
      </trkpt>
      <trkpt lat="50.0039" lon="2.39241">
        <ele>99.9</ele>
        <time>2022-11-16T13:13:27Z</time>
      </trkpt>
      <trkpt lat="50.00389" lon="2.39242">
        <ele>99.9</ele>
        <time>2022-11-16T13:13:29Z</time>
      </trkpt>
      <trkpt lat="50.00388" lon="2.39242">
        <ele>99.8</ele>
        <time>2022-11-16T13:13:30Z</time>
      </trkpt>
      <trkpt lat="50.00386" lon="2.39242">
        <ele>99.7</ele>
        <time>2022-11-16T13:13:31Z</time>
      </trkpt>
      <trkpt lat="50.00385" lon="2.39242">
        <ele>99.7</ele>
        <time>2022-11-16T13:13:32Z</time>
      </trkpt>
      <trkpt lat="50.00384" lon="2.39242">
        <ele>99.6</ele>
        <time>2022-11-16T13:13:33Z</time>
      </trkpt>
      <trkpt lat="50.00382" lon="2.39243">
        <ele>99.5</ele>
        <time>2022-11-16T13:13:34Z</time>
      </trkpt>
      <trkpt lat="50.00381" lon="2.39243">
        <ele>99.5</ele>
        <time>2022-11-16T13:13:35Z</time>
      </trkpt>
      <trkpt lat="50.00381" lon="2.39243">
        <ele>99.5</ele>
        <time>2022-11-16T13:13:36Z</time>
      </trkpt>
      <trkpt lat="50.00379" lon="2.39243">
        <ele>99.4</ele>
        <time>2022-11-16T13:13:37Z</time>
      </trkpt>
      <trkpt lat="50.00378" lon="2.39243">
        <ele>99.3</ele>
        <time>2022-11-16T13:13:38Z</time>
      </trkpt>
      <trkpt lat="50.00377" lon="2.39243">
        <ele>99.3</ele>
        <time>2022-11-16T13:13:39Z</time>
      </trkpt>
      <trkpt lat="50.00375" lon="2.39244">
        <ele>99.2</ele>
        <time>2022-11-16T13:13:40Z</time>
      </trkpt>
      <trkpt lat="50.00374" lon="2.39244">
        <ele>99.1</ele>
        <time>2022-11-16T13:13:41Z</time>
      </trkpt>
      <trkpt lat="50.00373" lon="2.39244">
        <ele>99.1</ele>
        <time>2022-11-16T13:13:42Z</time>
      </trkpt>
      <trkpt lat="50.00371" lon="2.39245">
        <ele>99</ele>
        <time>2022-11-16T13:13:43Z</time>
      </trkpt>
      <trkpt lat="50.0037" lon="2.39245">
        <ele>98.9</ele>
        <time>2022-11-16T13:13:45Z</time>
      </trkpt>
      <trkpt lat="50.00369" lon="2.39246">
        <ele>98.8</ele>
        <time>2022-11-16T13:13:46Z</time>
      </trkpt>
      <trkpt lat="50.00367" lon="2.39247">
        <ele>98.8</ele>
        <time>2022-11-16T13:13:47Z</time>
      </trkpt>
      <trkpt lat="50.00366" lon="2.39248">
        <ele>98.7</ele>
        <time>2022-11-16T13:13:48Z</time>
      </trkpt>
      <trkpt lat="50.00364" lon="2.39249">
        <ele>98.6</ele>
        <time>2022-11-16T13:13:49Z</time>
      </trkpt>
      <trkpt lat="50.00363" lon="2.3925">
        <ele>98.5</ele>
        <time>2022-11-16T13:13:50Z</time>
      </trkpt>
      <trkpt lat="50.00361" lon="2.3925">
        <ele>98.5</ele>
        <time>2022-11-16T13:13:51Z</time>
      </trkpt>
      <trkpt lat="50.0036" lon="2.39252">
        <ele>98.4</ele>
        <time>2022-11-16T13:13:52Z</time>
      </trkpt>
      <trkpt lat="50.00358" lon="2.39252">
        <ele>98.3</ele>
        <time>2022-11-16T13:13:54Z</time>
      </trkpt>
      <trkpt lat="50.00357" lon="2.39252">
        <ele>98.3</ele>
        <time>2022-11-16T13:13:55Z</time>
      </trkpt>
      <trkpt lat="50.00356" lon="2.39253">
        <ele>98.2</ele>
        <time>2022-11-16T13:13:56Z</time>
      </trkpt>
      <trkpt lat="50.00355" lon="2.39253">
        <ele>98.2</ele>
        <time>2022-11-16T13:13:57Z</time>
      </trkpt>
      <trkpt lat="50.00354" lon="2.39254">
        <ele>98.1</ele>
        <time>2022-11-16T13:13:58Z</time>
      </trkpt>
      <trkpt lat="50.00353" lon="2.39254">
        <ele>98.1</ele>
        <time>2022-11-16T13:13:59Z</time>
      </trkpt>
      <trkpt lat="50.00351" lon="2.39255">
        <ele>98</ele>
        <time>2022-11-16T13:14:00Z</time>
      </trkpt>
      <trkpt lat="50.0035" lon="2.39255">
        <ele>97.9</ele>
        <time>2022-11-16T13:14:01Z</time>
      </trkpt>
      <trkpt lat="50.00349" lon="2.39256">
        <ele>97.9</ele>
        <time>2022-11-16T13:14:02Z</time>
      </trkpt>
      <trkpt lat="50.00347" lon="2.39256">
        <ele>97.8</ele>
        <time>2022-11-16T13:14:03Z</time>
      </trkpt>
      <trkpt lat="50.00346" lon="2.39256">
        <ele>97.7</ele>
        <time>2022-11-16T13:14:05Z</time>
      </trkpt>
      <trkpt lat="50.00345" lon="2.39257">
        <ele>97.7</ele>
        <time>2022-11-16T13:14:06Z</time>
      </trkpt>
      <trkpt lat="50.00344" lon="2.39257">
        <ele>97.6</ele>
        <time>2022-11-16T13:14:07Z</time>
      </trkpt>
      <trkpt lat="50.00342" lon="2.39257">
        <ele>97.6</ele>
        <time>2022-11-16T13:14:08Z</time>
      </trkpt>
      <trkpt lat="50.0034" lon="2.39257">
        <ele>97.4</ele>
        <time>2022-11-16T13:14:09Z</time>
      </trkpt>
      <trkpt lat="50.0034" lon="2.39257">
        <ele>97.4</ele>
        <time>2022-11-16T13:14:10Z</time>
      </trkpt>
      <trkpt lat="50.00339" lon="2.39258">
        <ele>97.4</ele>
        <time>2022-11-16T13:14:11Z</time>
      </trkpt>
      <trkpt lat="50.00337" lon="2.39258">
        <ele>97.2</ele>
        <time>2022-11-16T13:14:12Z</time>
      </trkpt>
      <trkpt lat="50.00335" lon="2.39259">
        <ele>97.2</ele>
        <time>2022-11-16T13:14:14Z</time>
      </trkpt>
      <trkpt lat="50.00334" lon="2.3926">
        <ele>97.1</ele>
        <time>2022-11-16T13:14:15Z</time>
      </trkpt>
      <trkpt lat="50.00332" lon="2.3926">
        <ele>97</ele>
        <time>2022-11-16T13:14:17Z</time>
      </trkpt>
      <trkpt lat="50.00331" lon="2.39261">
        <ele>97</ele>
        <time>2022-11-16T13:14:18Z</time>
      </trkpt>
      <trkpt lat="50.00331" lon="2.39261">
        <ele>96.9</ele>
        <time>2022-11-16T13:14:19Z</time>
      </trkpt>
      <trkpt lat="50.00328" lon="2.39262">
        <ele>96.8</ele>
        <time>2022-11-16T13:14:20Z</time>
      </trkpt>
      <trkpt lat="50.00328" lon="2.39262">
        <ele>96.8</ele>
        <time>2022-11-16T13:14:21Z</time>
      </trkpt>
      <trkpt lat="50.00327" lon="2.39263">
        <ele>96.7</ele>
        <time>2022-11-16T13:14:22Z</time>
      </trkpt>
      <trkpt lat="50.00325" lon="2.39264">
        <ele>96.6</ele>
        <time>2022-11-16T13:14:23Z</time>
      </trkpt>
      <trkpt lat="50.00324" lon="2.39264">
        <ele>96.5</ele>
        <time>2022-11-16T13:14:24Z</time>
      </trkpt>
      <trkpt lat="50.00323" lon="2.39265">
        <ele>96.5</ele>
        <time>2022-11-16T13:14:25Z</time>
      </trkpt>
      <trkpt lat="50.00322" lon="2.39265">
        <ele>96.4</ele>
        <time>2022-11-16T13:14:26Z</time>
      </trkpt>
      <trkpt lat="50.00321" lon="2.39266">
        <ele>96.4</ele>
        <time>2022-11-16T13:14:27Z</time>
      </trkpt>
      <trkpt lat="50.0032" lon="2.39266">
        <ele>96.3</ele>
        <time>2022-11-16T13:14:28Z</time>
      </trkpt>
      <trkpt lat="50.00319" lon="2.39266">
        <ele>96.3</ele>
        <time>2022-11-16T13:14:29Z</time>
      </trkpt>
      <trkpt lat="50.00318" lon="2.39267">
        <ele>96.2</ele>
        <time>2022-11-16T13:14:30Z</time>
      </trkpt>
      <trkpt lat="50.00316" lon="2.39267">
        <ele>96.1</ele>
        <time>2022-11-16T13:14:31Z</time>
      </trkpt>
      <trkpt lat="50.00314" lon="2.39268">
        <ele>96</ele>
        <time>2022-11-16T13:14:32Z</time>
      </trkpt>
      <trkpt lat="50.00313" lon="2.39269">
        <ele>95.9</ele>
        <time>2022-11-16T13:14:34Z</time>
      </trkpt>
      <trkpt lat="50.00312" lon="2.39269">
        <ele>95.9</ele>
        <time>2022-11-16T13:14:35Z</time>
      </trkpt>
      <trkpt lat="50.00311" lon="2.3927">
        <ele>95.8</ele>
        <time>2022-11-16T13:14:36Z</time>
      </trkpt>
      <trkpt lat="50.0031" lon="2.3927">
        <ele>95.8</ele>
        <time>2022-11-16T13:14:37Z</time>
      </trkpt>
      <trkpt lat="50.00309" lon="2.39271">
        <ele>95.7</ele>
        <time>2022-11-16T13:14:38Z</time>
      </trkpt>
      <trkpt lat="50.00307" lon="2.39272">
        <ele>95.6</ele>
        <time>2022-11-16T13:14:39Z</time>
      </trkpt>
      <trkpt lat="50.00306" lon="2.39273">
        <ele>95.5</ele>
        <time>2022-11-16T13:14:40Z</time>
      </trkpt>
      <trkpt lat="50.00304" lon="2.39273">
        <ele>95.4</ele>
        <time>2022-11-16T13:14:41Z</time>
      </trkpt>
      <trkpt lat="50.00303" lon="2.39274">
        <ele>95.4</ele>
        <time>2022-11-16T13:14:42Z</time>
      </trkpt>
      <trkpt lat="50.00301" lon="2.39274">
        <ele>95.3</ele>
        <time>2022-11-16T13:14:43Z</time>
      </trkpt>
      <trkpt lat="50.003" lon="2.39275">
        <ele>95.2</ele>
        <time>2022-11-16T13:14:44Z</time>
      </trkpt>
      <trkpt lat="50.00299" lon="2.39276">
        <ele>95.2</ele>
        <time>2022-11-16T13:14:45Z</time>
      </trkpt>
      <trkpt lat="50.00297" lon="2.39277">
        <ele>95.1</ele>
        <time>2022-11-16T13:14:46Z</time>
      </trkpt>
      <trkpt lat="50.00296" lon="2.39278">
        <ele>95</ele>
        <time>2022-11-16T13:14:48Z</time>
      </trkpt>
      <trkpt lat="50.00294" lon="2.39278">
        <ele>95</ele>
        <time>2022-11-16T13:14:49Z</time>
      </trkpt>
      <trkpt lat="50.00293" lon="2.39279">
        <ele>94.9</ele>
        <time>2022-11-16T13:14:50Z</time>
      </trkpt>
      <trkpt lat="50.00291" lon="2.3928">
        <ele>94.8</ele>
        <time>2022-11-16T13:14:51Z</time>
      </trkpt>
      <trkpt lat="50.0029" lon="2.3928">
        <ele>94.8</ele>
        <time>2022-11-16T13:14:52Z</time>
      </trkpt>
      <trkpt lat="50.00289" lon="2.39281">
        <ele>94.7</ele>
        <time>2022-11-16T13:14:53Z</time>
      </trkpt>
      <trkpt lat="50.00287" lon="2.39282">
        <ele>94.7</ele>
        <time>2022-11-16T13:14:54Z</time>
      </trkpt>
      <trkpt lat="50.00285" lon="2.39283">
        <ele>94.6</ele>
        <time>2022-11-16T13:14:55Z</time>
      </trkpt>
      <trkpt lat="50.00284" lon="2.39283">
        <ele>94.5</ele>
        <time>2022-11-16T13:14:56Z</time>
      </trkpt>
      <trkpt lat="50.00284" lon="2.39283">
        <ele>94.5</ele>
        <time>2022-11-16T13:14:57Z</time>
      </trkpt>
      <trkpt lat="50.00282" lon="2.39284">
        <ele>94.4</ele>
        <time>2022-11-16T13:14:59Z</time>
      </trkpt>
      <trkpt lat="50.00281" lon="2.39284">
        <ele>94.4</ele>
        <time>2022-11-16T13:15:00Z</time>
      </trkpt>
      <trkpt lat="50.00279" lon="2.39285">
        <ele>94.3</ele>
        <time>2022-11-16T13:15:01Z</time>
      </trkpt>
      <trkpt lat="50.00278" lon="2.39285">
        <ele>94.3</ele>
        <time>2022-11-16T13:15:02Z</time>
      </trkpt>
      <trkpt lat="50.00277" lon="2.39285">
        <ele>94.2</ele>
        <time>2022-11-16T13:15:03Z</time>
      </trkpt>
      <trkpt lat="50.00275" lon="2.39285">
        <ele>94.1</ele>
        <time>2022-11-16T13:15:04Z</time>
      </trkpt>
      <trkpt lat="50.00274" lon="2.39285">
        <ele>94.1</ele>
        <time>2022-11-16T13:15:05Z</time>
      </trkpt>
      <trkpt lat="50.00273" lon="2.39285">
        <ele>94.1</ele>
        <time>2022-11-16T13:15:06Z</time>
      </trkpt>
      <trkpt lat="50.00272" lon="2.39285">
        <ele>94</ele>
        <time>2022-11-16T13:15:07Z</time>
      </trkpt>
      <trkpt lat="50.00271" lon="2.39285">
        <ele>94</ele>
        <time>2022-11-16T13:15:08Z</time>
      </trkpt>
      <trkpt lat="50.0027" lon="2.39285">
        <ele>94</ele>
        <time>2022-11-16T13:15:10Z</time>
      </trkpt>
      <trkpt lat="50.00269" lon="2.39285">
        <ele>93.9</ele>
        <time>2022-11-16T13:15:11Z</time>
      </trkpt>
      <trkpt lat="50.00268" lon="2.39284">
        <ele>93.9</ele>
        <time>2022-11-16T13:15:12Z</time>
      </trkpt>
      <trkpt lat="50.00267" lon="2.39284">
        <ele>93.8</ele>
        <time>2022-11-16T13:15:13Z</time>
      </trkpt>
      <trkpt lat="50.00266" lon="2.39285">
        <ele>93.8</ele>
        <time>2022-11-16T13:15:14Z</time>
      </trkpt>
      <trkpt lat="50.00265" lon="2.39286">
        <ele>93.8</ele>
        <time>2022-11-16T13:15:15Z</time>
      </trkpt>
      <trkpt lat="50.00264" lon="2.39286">
        <ele>93.8</ele>
        <time>2022-11-16T13:15:16Z</time>
      </trkpt>
      <trkpt lat="50.00262" lon="2.39286">
        <ele>93.7</ele>
        <time>2022-11-16T13:15:17Z</time>
      </trkpt>
      <trkpt lat="50.00262" lon="2.39286">
        <ele>93.7</ele>
        <time>2022-11-16T13:15:18Z</time>
      </trkpt>
      <trkpt lat="50.00261" lon="2.39286">
        <ele>93.7</ele>
        <time>2022-11-16T13:15:19Z</time>
      </trkpt>
      <trkpt lat="50.0026" lon="2.39287">
        <ele>93.6</ele>
        <time>2022-11-16T13:15:20Z</time>
      </trkpt>
      <trkpt lat="50.00259" lon="2.39288">
        <ele>93.6</ele>
        <time>2022-11-16T13:15:22Z</time>
      </trkpt>
      <trkpt lat="50.00258" lon="2.39288">
        <ele>93.6</ele>
        <time>2022-11-16T13:15:23Z</time>
      </trkpt>
      <trkpt lat="50.00257" lon="2.39289">
        <ele>93.6</ele>
        <time>2022-11-16T13:15:24Z</time>
      </trkpt>
      <trkpt lat="50.00256" lon="2.39289">
        <ele>93.6</ele>
        <time>2022-11-16T13:15:25Z</time>
      </trkpt>
      <trkpt lat="50.00255" lon="2.3929">
        <ele>93.6</ele>
        <time>2022-11-16T13:15:26Z</time>
      </trkpt>
      <trkpt lat="50.00254" lon="2.3929">
        <ele>93.5</ele>
        <time>2022-11-16T13:15:28Z</time>
      </trkpt>
      <trkpt lat="50.00253" lon="2.39291">
        <ele>93.5</ele>
        <time>2022-11-16T13:15:29Z</time>
      </trkpt>
      <trkpt lat="50.00252" lon="2.3929">
        <ele>93.5</ele>
        <time>2022-11-16T13:15:30Z</time>
      </trkpt>
      <trkpt lat="50.00251" lon="2.3929">
        <ele>93.5</ele>
        <time>2022-11-16T13:15:31Z</time>
      </trkpt>
      <trkpt lat="50.0025" lon="2.3929">
        <ele>93.5</ele>
        <time>2022-11-16T13:15:33Z</time>
      </trkpt>
      <trkpt lat="50.0025" lon="2.3929">
        <ele>93.5</ele>
        <time>2022-11-16T13:15:34Z</time>
      </trkpt>
      <trkpt lat="50.00249" lon="2.39291">
        <ele>93.5</ele>
        <time>2022-11-16T13:15:35Z</time>
      </trkpt>
      <trkpt lat="50.00248" lon="2.39293">
        <ele>93.5</ele>
        <time>2022-11-16T13:15:37Z</time>
      </trkpt>
      <trkpt lat="50.00249" lon="2.39294">
        <ele>93.5</ele>
        <time>2022-11-16T13:15:38Z</time>
      </trkpt>
      <trkpt lat="50.00249" lon="2.39295">
        <ele>93.5</ele>
        <time>2022-11-16T13:15:39Z</time>
      </trkpt>
      <trkpt lat="50.00249" lon="2.39296">
        <ele>93.4</ele>
        <time>2022-11-16T13:15:40Z</time>
      </trkpt>
      <trkpt lat="50.0025" lon="2.39296">
        <ele>93.4</ele>
        <time>2022-11-16T13:15:41Z</time>
      </trkpt>
      <trkpt lat="50.0025" lon="2.39297">
        <ele>93.4</ele>
        <time>2022-11-16T13:15:42Z</time>
      </trkpt>
      <trkpt lat="50.0025" lon="2.39297">
        <ele>93.4</ele>
        <time>2022-11-16T13:15:43Z</time>
      </trkpt>
      <trkpt lat="50.0025" lon="2.39297">
        <ele>93.4</ele>
        <time>2022-11-16T13:15:44Z</time>
      </trkpt>
      <trkpt lat="50.00251" lon="2.39296">
        <ele>93.4</ele>
        <time>2022-11-16T13:15:45Z</time>
      </trkpt>
      <trkpt lat="50.00251" lon="2.39296">
        <ele>93.4</ele>
        <time>2022-11-16T13:15:46Z</time>
      </trkpt>
      <trkpt lat="50.00251" lon="2.39297">
        <ele>93.4</ele>
        <time>2022-11-16T13:15:47Z</time>
      </trkpt>
      <trkpt lat="50.00251" lon="2.39298">
        <ele>93.4</ele>
        <time>2022-11-16T13:15:48Z</time>
      </trkpt>
      <trkpt lat="50.00251" lon="2.39299">
        <ele>93.4</ele>
        <time>2022-11-16T13:15:50Z</time>
      </trkpt>
      <trkpt lat="50.00252" lon="2.39301">
        <ele>93.3</ele>
        <time>2022-11-16T13:15:51Z</time>
      </trkpt>
      <trkpt lat="50.00252" lon="2.39302">
        <ele>93.3</ele>
        <time>2022-11-16T13:15:52Z</time>
      </trkpt>
      <trkpt lat="50.00253" lon="2.39304">
        <ele>93.3</ele>
        <time>2022-11-16T13:15:53Z</time>
      </trkpt>
      <trkpt lat="50.00254" lon="2.39306">
        <ele>93.3</ele>
        <time>2022-11-16T13:15:54Z</time>
      </trkpt>
      <trkpt lat="50.00254" lon="2.39308">
        <ele>93.2</ele>
        <time>2022-11-16T13:15:55Z</time>
      </trkpt>
      <trkpt lat="50.00254" lon="2.3931">
        <ele>93.2</ele>
        <time>2022-11-16T13:15:56Z</time>
      </trkpt>
      <trkpt lat="50.00253" lon="2.39311">
        <ele>93.2</ele>
        <time>2022-11-16T13:15:58Z</time>
      </trkpt>
      <trkpt lat="50.00252" lon="2.39312">
        <ele>93.2</ele>
        <time>2022-11-16T13:15:59Z</time>
      </trkpt>
      <trkpt lat="50.00252" lon="2.39313">
        <ele>93.1</ele>
        <time>2022-11-16T13:16:00Z</time>
      </trkpt>
      <trkpt lat="50.00251" lon="2.39314">
        <ele>93.1</ele>
        <time>2022-11-16T13:16:01Z</time>
      </trkpt>
      <trkpt lat="50.00251" lon="2.39315">
        <ele>93.1</ele>
        <time>2022-11-16T13:16:02Z</time>
      </trkpt>
      <trkpt lat="50.00252" lon="2.39317">
        <ele>93.1</ele>
        <time>2022-11-16T13:16:04Z</time>
      </trkpt>
      <trkpt lat="50.00253" lon="2.39318">
        <ele>93.1</ele>
        <time>2022-11-16T13:16:05Z</time>
      </trkpt>
      <trkpt lat="50.00254" lon="2.39318">
        <ele>93.1</ele>
        <time>2022-11-16T13:16:06Z</time>
      </trkpt>
      <trkpt lat="50.00254" lon="2.39319">
        <ele>93</ele>
        <time>2022-11-16T13:16:07Z</time>
      </trkpt>
      <trkpt lat="50.00255" lon="2.3932">
        <ele>93</ele>
        <time>2022-11-16T13:16:08Z</time>
      </trkpt>
      <trkpt lat="50.00257" lon="2.39321">
        <ele>93</ele>
        <time>2022-11-16T13:16:09Z</time>
      </trkpt>
      <trkpt lat="50.00258" lon="2.39322">
        <ele>93</ele>
        <time>2022-11-16T13:16:10Z</time>
      </trkpt>
      <trkpt lat="50.00259" lon="2.39323">
        <ele>92.9</ele>
        <time>2022-11-16T13:16:12Z</time>
      </trkpt>
      <trkpt lat="50.0026" lon="2.39325">
        <ele>92.9</ele>
        <time>2022-11-16T13:16:13Z</time>
      </trkpt>
      <trkpt lat="50.00261" lon="2.39326">
        <ele>92.9</ele>
        <time>2022-11-16T13:16:14Z</time>
      </trkpt>
      <trkpt lat="50.00262" lon="2.39328">
        <ele>92.8</ele>
        <time>2022-11-16T13:16:15Z</time>
      </trkpt>
      <trkpt lat="50.00263" lon="2.3933">
        <ele>92.8</ele>
        <time>2022-11-16T13:16:16Z</time>
      </trkpt>
      <trkpt lat="50.00263" lon="2.39333">
        <ele>92.7</ele>
        <time>2022-11-16T13:16:17Z</time>
      </trkpt>
      <trkpt lat="50.00265" lon="2.39336">
        <ele>92.7</ele>
        <time>2022-11-16T13:16:18Z</time>
      </trkpt>
      <trkpt lat="50.00265" lon="2.39337">
        <ele>92.7</ele>
        <time>2022-11-16T13:16:19Z</time>
      </trkpt>
      <trkpt lat="50.00265" lon="2.39338">
        <ele>92.7</ele>
        <time>2022-11-16T13:16:20Z</time>
      </trkpt>
      <trkpt lat="50.00266" lon="2.3934">
        <ele>92.6</ele>
        <time>2022-11-16T13:16:22Z</time>
      </trkpt>
      <trkpt lat="50.00267" lon="2.39342">
        <ele>92.6</ele>
        <time>2022-11-16T13:16:23Z</time>
      </trkpt>
      <trkpt lat="50.00267" lon="2.39345">
        <ele>92.5</ele>
        <time>2022-11-16T13:16:24Z</time>
      </trkpt>
      <trkpt lat="50.00268" lon="2.39347">
        <ele>92.5</ele>
        <time>2022-11-16T13:16:25Z</time>
      </trkpt>
      <trkpt lat="50.00269" lon="2.3935">
        <ele>92.5</ele>
        <time>2022-11-16T13:16:26Z</time>
      </trkpt>
      <trkpt lat="50.00269" lon="2.39351">
        <ele>92.4</ele>
        <time>2022-11-16T13:16:27Z</time>
      </trkpt>
      <trkpt lat="50.00269" lon="2.39352">
        <ele>92.4</ele>
        <time>2022-11-16T13:16:28Z</time>
      </trkpt>
      <trkpt lat="50.0027" lon="2.39355">
        <ele>92.4</ele>
        <time>2022-11-16T13:16:29Z</time>
      </trkpt>
      <trkpt lat="50.0027" lon="2.39356">
        <ele>92.3</ele>
        <time>2022-11-16T13:16:31Z</time>
      </trkpt>
      <trkpt lat="50.0027" lon="2.39358">
        <ele>92.3</ele>
        <time>2022-11-16T13:16:32Z</time>
      </trkpt>
      <trkpt lat="50.0027" lon="2.39359">
        <ele>92.3</ele>
        <time>2022-11-16T13:16:33Z</time>
      </trkpt>
      <trkpt lat="50.00271" lon="2.39361">
        <ele>92.3</ele>
        <time>2022-11-16T13:16:34Z</time>
      </trkpt>
      <trkpt lat="50.00271" lon="2.39363">
        <ele>92.2</ele>
        <time>2022-11-16T13:16:35Z</time>
      </trkpt>
      <trkpt lat="50.00271" lon="2.39367">
        <ele>92.2</ele>
        <time>2022-11-16T13:16:36Z</time>
      </trkpt>
      <trkpt lat="50.00272" lon="2.39368">
        <ele>92.2</ele>
        <time>2022-11-16T13:16:37Z</time>
      </trkpt>
      <trkpt lat="50.00272" lon="2.39369">
        <ele>92.1</ele>
        <time>2022-11-16T13:16:38Z</time>
      </trkpt>
      <trkpt lat="50.00272" lon="2.39372">
        <ele>92.1</ele>
        <time>2022-11-16T13:16:40Z</time>
      </trkpt>
      <trkpt lat="50.00272" lon="2.39373">
        <ele>92.1</ele>
        <time>2022-11-16T13:16:41Z</time>
      </trkpt>
      <trkpt lat="50.00271" lon="2.39375">
        <ele>92.1</ele>
        <time>2022-11-16T13:16:42Z</time>
      </trkpt>
      <trkpt lat="50.00271" lon="2.39377">
        <ele>92</ele>
        <time>2022-11-16T13:16:43Z</time>
      </trkpt>
      <trkpt lat="50.00271" lon="2.39379">
        <ele>92</ele>
        <time>2022-11-16T13:16:44Z</time>
      </trkpt>
      <trkpt lat="50.00271" lon="2.39381">
        <ele>92</ele>
        <time>2022-11-16T13:16:45Z</time>
      </trkpt>
      <trkpt lat="50.00271" lon="2.39383">
        <ele>92</ele>
        <time>2022-11-16T13:16:47Z</time>
      </trkpt>
      <trkpt lat="50.00271" lon="2.39384">
        <ele>92</ele>
        <time>2022-11-16T13:16:48Z</time>
      </trkpt>
      <trkpt lat="50.00269" lon="2.39385">
        <ele>91.9</ele>
        <time>2022-11-16T13:16:49Z</time>
      </trkpt>
      <trkpt lat="50.00268" lon="2.39386">
        <ele>91.9</ele>
        <time>2022-11-16T13:16:50Z</time>
      </trkpt>
      <trkpt lat="50.00267" lon="2.39387">
        <ele>91.9</ele>
        <time>2022-11-16T13:16:51Z</time>
      </trkpt>
      <trkpt lat="50.00265" lon="2.39387">
        <ele>91.9</ele>
        <time>2022-11-16T13:16:52Z</time>
      </trkpt>
      <trkpt lat="50.00264" lon="2.39388">
        <ele>91.9</ele>
        <time>2022-11-16T13:16:53Z</time>
      </trkpt>
      <trkpt lat="50.00262" lon="2.39388">
        <ele>91.9</ele>
        <time>2022-11-16T13:16:55Z</time>
      </trkpt>
      <trkpt lat="50.00261" lon="2.39388">
        <ele>91.9</ele>
        <time>2022-11-16T13:16:56Z</time>
      </trkpt>
      <trkpt lat="50.00259" lon="2.39387">
        <ele>91.9</ele>
        <time>2022-11-16T13:16:57Z</time>
      </trkpt>
      <trkpt lat="50.00257" lon="2.39387">
        <ele>91.9</ele>
        <time>2022-11-16T13:16:58Z</time>
      </trkpt>
      <trkpt lat="50.00255" lon="2.39387">
        <ele>91.9</ele>
        <time>2022-11-16T13:16:59Z</time>
      </trkpt>
      <trkpt lat="50.00253" lon="2.39388">
        <ele>91.8</ele>
        <time>2022-11-16T13:17:00Z</time>
      </trkpt>
      <trkpt lat="50.00252" lon="2.39388">
        <ele>91.8</ele>
        <time>2022-11-16T13:17:01Z</time>
      </trkpt>
      <trkpt lat="50.0025" lon="2.39389">
        <ele>91.8</ele>
        <time>2022-11-16T13:17:02Z</time>
      </trkpt>
      <trkpt lat="50.00248" lon="2.39389">
        <ele>91.8</ele>
        <time>2022-11-16T13:17:03Z</time>
      </trkpt>
      <trkpt lat="50.00246" lon="2.39389">
        <ele>91.7</ele>
        <time>2022-11-16T13:17:05Z</time>
      </trkpt>
      <trkpt lat="50.00245" lon="2.39389">
        <ele>91.7</ele>
        <time>2022-11-16T13:17:06Z</time>
      </trkpt>
      <trkpt lat="50.00243" lon="2.3939">
        <ele>91.7</ele>
        <time>2022-11-16T13:17:07Z</time>
      </trkpt>
      <trkpt lat="50.00241" lon="2.3939">
        <ele>91.7</ele>
        <time>2022-11-16T13:17:08Z</time>
      </trkpt>
      <trkpt lat="50.00238" lon="2.39391">
        <ele>91.6</ele>
        <time>2022-11-16T13:17:09Z</time>
      </trkpt>
      <trkpt lat="50.00237" lon="2.39392">
        <ele>91.6</ele>
        <time>2022-11-16T13:17:11Z</time>
      </trkpt>
      <trkpt lat="50.00236" lon="2.39393">
        <ele>91.6</ele>
        <time>2022-11-16T13:17:12Z</time>
      </trkpt>
      <trkpt lat="50.00235" lon="2.39393">
        <ele>91.6</ele>
        <time>2022-11-16T13:17:13Z</time>
      </trkpt>
      <trkpt lat="50.00234" lon="2.39394">
        <ele>91.5</ele>
        <time>2022-11-16T13:17:14Z</time>
      </trkpt>
      <trkpt lat="50.00233" lon="2.39394">
        <ele>91.5</ele>
        <time>2022-11-16T13:17:15Z</time>
      </trkpt>
      <trkpt lat="50.00231" lon="2.39394">
        <ele>91.5</ele>
        <time>2022-11-16T13:17:16Z</time>
      </trkpt>
      <trkpt lat="50.00229" lon="2.39394">
        <ele>91.4</ele>
        <time>2022-11-16T13:17:17Z</time>
      </trkpt>
      <trkpt lat="50.00228" lon="2.39395">
        <ele>91.3</ele>
        <time>2022-11-16T13:17:18Z</time>
      </trkpt>
      <trkpt lat="50.00226" lon="2.39395">
        <ele>91.3</ele>
        <time>2022-11-16T13:17:19Z</time>
      </trkpt>
      <trkpt lat="50.00225" lon="2.39395">
        <ele>91.2</ele>
        <time>2022-11-16T13:17:20Z</time>
      </trkpt>
      <trkpt lat="50.00223" lon="2.39395">
        <ele>91.2</ele>
        <time>2022-11-16T13:17:22Z</time>
      </trkpt>
      <trkpt lat="50.00221" lon="2.39395">
        <ele>91.1</ele>
        <time>2022-11-16T13:17:23Z</time>
      </trkpt>
      <trkpt lat="50.0022" lon="2.39395">
        <ele>91</ele>
        <time>2022-11-16T13:17:24Z</time>
      </trkpt>
      <trkpt lat="50.00219" lon="2.39395">
        <ele>91</ele>
        <time>2022-11-16T13:17:25Z</time>
      </trkpt>
      <trkpt lat="50.00218" lon="2.39395">
        <ele>90.9</ele>
        <time>2022-11-16T13:17:26Z</time>
      </trkpt>
      <trkpt lat="50.00217" lon="2.39395">
        <ele>90.9</ele>
        <time>2022-11-16T13:17:27Z</time>
      </trkpt>
      <trkpt lat="50.00215" lon="2.39395">
        <ele>90.8</ele>
        <time>2022-11-16T13:17:29Z</time>
      </trkpt>
      <trkpt lat="50.00214" lon="2.39395">
        <ele>90.8</ele>
        <time>2022-11-16T13:17:30Z</time>
      </trkpt>
      <trkpt lat="50.00212" lon="2.39395">
        <ele>90.7</ele>
        <time>2022-11-16T13:17:31Z</time>
      </trkpt>
      <trkpt lat="50.00212" lon="2.39395">
        <ele>90.6</ele>
        <time>2022-11-16T13:17:32Z</time>
      </trkpt>
      <trkpt lat="50.00211" lon="2.39395">
        <ele>90.6</ele>
        <time>2022-11-16T13:17:33Z</time>
      </trkpt>
      <trkpt lat="50.0021" lon="2.39396">
        <ele>90.5</ele>
        <time>2022-11-16T13:17:34Z</time>
      </trkpt>
      <trkpt lat="50.00209" lon="2.39396">
        <ele>90.5</ele>
        <time>2022-11-16T13:17:35Z</time>
      </trkpt>
      <trkpt lat="50.00208" lon="2.39396">
        <ele>90.4</ele>
        <time>2022-11-16T13:17:36Z</time>
      </trkpt>
      <trkpt lat="50.00207" lon="2.39397">
        <ele>90.4</ele>
        <time>2022-11-16T13:17:37Z</time>
      </trkpt>
      <trkpt lat="50.00206" lon="2.39398">
        <ele>90.3</ele>
        <time>2022-11-16T13:17:39Z</time>
      </trkpt>
      <trkpt lat="50.00205" lon="2.39398">
        <ele>90.2</ele>
        <time>2022-11-16T13:17:40Z</time>
      </trkpt>
      <trkpt lat="50.00203" lon="2.39399">
        <ele>90.1</ele>
        <time>2022-11-16T13:17:41Z</time>
      </trkpt>
      <trkpt lat="50.00202" lon="2.394">
        <ele>90.1</ele>
        <time>2022-11-16T13:17:42Z</time>
      </trkpt>
      <trkpt lat="50.00201" lon="2.394">
        <ele>90</ele>
        <time>2022-11-16T13:17:43Z</time>
      </trkpt>
      <trkpt lat="50.00199" lon="2.394">
        <ele>89.9</ele>
        <time>2022-11-16T13:17:44Z</time>
      </trkpt>
      <trkpt lat="50.00198" lon="2.39401">
        <ele>89.9</ele>
        <time>2022-11-16T13:17:45Z</time>
      </trkpt>
      <trkpt lat="50.00196" lon="2.39402">
        <ele>89.7</ele>
        <time>2022-11-16T13:17:46Z</time>
      </trkpt>
      <trkpt lat="50.00195" lon="2.39402">
        <ele>89.7</ele>
        <time>2022-11-16T13:17:47Z</time>
      </trkpt>
      <trkpt lat="50.00195" lon="2.39403">
        <ele>89.7</ele>
        <time>2022-11-16T13:17:48Z</time>
      </trkpt>
      <trkpt lat="50.00193" lon="2.39403">
        <ele>89.6</ele>
        <time>2022-11-16T13:17:50Z</time>
      </trkpt>
      <trkpt lat="50.00192" lon="2.39404">
        <ele>89.5</ele>
        <time>2022-11-16T13:17:51Z</time>
      </trkpt>
      <trkpt lat="50.0019" lon="2.39405">
        <ele>89.4</ele>
        <time>2022-11-16T13:17:52Z</time>
      </trkpt>
      <trkpt lat="50.00189" lon="2.39405">
        <ele>89.3</ele>
        <time>2022-11-16T13:17:53Z</time>
      </trkpt>
      <trkpt lat="50.00188" lon="2.39406">
        <ele>89.3</ele>
        <time>2022-11-16T13:17:54Z</time>
      </trkpt>
      <trkpt lat="50.00186" lon="2.39407">
        <ele>89.2</ele>
        <time>2022-11-16T13:17:55Z</time>
      </trkpt>
      <trkpt lat="50.00185" lon="2.39408">
        <ele>89.1</ele>
        <time>2022-11-16T13:17:56Z</time>
      </trkpt>
      <trkpt lat="50.00182" lon="2.39409">
        <ele>88.9</ele>
        <time>2022-11-16T13:17:57Z</time>
      </trkpt>
      <trkpt lat="50.00181" lon="2.3941">
        <ele>88.9</ele>
        <time>2022-11-16T13:17:59Z</time>
      </trkpt>
      <trkpt lat="50.0018" lon="2.39411">
        <ele>88.8</ele>
        <time>2022-11-16T13:18:00Z</time>
      </trkpt>
      <trkpt lat="50.00179" lon="2.39411">
        <ele>88.7</ele>
        <time>2022-11-16T13:18:01Z</time>
      </trkpt>
      <trkpt lat="50.00178" lon="2.39412">
        <ele>88.7</ele>
        <time>2022-11-16T13:18:02Z</time>
      </trkpt>
      <trkpt lat="50.00177" lon="2.39412">
        <ele>88.6</ele>
        <time>2022-11-16T13:18:03Z</time>
      </trkpt>
      <trkpt lat="50.00175" lon="2.39412">
        <ele>88.5</ele>
        <time>2022-11-16T13:18:04Z</time>
      </trkpt>
      <trkpt lat="50.00174" lon="2.39413">
        <ele>88.4</ele>
        <time>2022-11-16T13:18:05Z</time>
      </trkpt>
      <trkpt lat="50.00172" lon="2.39413">
        <ele>88.4</ele>
        <time>2022-11-16T13:18:06Z</time>
      </trkpt>
      <trkpt lat="50.0017" lon="2.39413">
        <ele>88.2</ele>
        <time>2022-11-16T13:18:07Z</time>
      </trkpt>
      <trkpt lat="50.0017" lon="2.39414">
        <ele>88.2</ele>
        <time>2022-11-16T13:18:08Z</time>
      </trkpt>
      <trkpt lat="50.00169" lon="2.39414">
        <ele>88.1</ele>
        <time>2022-11-16T13:18:09Z</time>
      </trkpt>
      <trkpt lat="50.00167" lon="2.39415">
        <ele>88</ele>
        <time>2022-11-16T13:18:10Z</time>
      </trkpt>
      <trkpt lat="50.00166" lon="2.39415">
        <ele>88</ele>
        <time>2022-11-16T13:18:11Z</time>
      </trkpt>
      <trkpt lat="50.00165" lon="2.39415">
        <ele>87.9</ele>
        <time>2022-11-16T13:18:12Z</time>
      </trkpt>
      <trkpt lat="50.00164" lon="2.39416">
        <ele>87.8</ele>
        <time>2022-11-16T13:18:14Z</time>
      </trkpt>
      <trkpt lat="50.00163" lon="2.39416">
        <ele>87.8</ele>
        <time>2022-11-16T13:18:15Z</time>
      </trkpt>
      <trkpt lat="50.00162" lon="2.39417">
        <ele>87.7</ele>
        <time>2022-11-16T13:18:16Z</time>
      </trkpt>
      <trkpt lat="50.00161" lon="2.39417">
        <ele>87.6</ele>
        <time>2022-11-16T13:18:17Z</time>
      </trkpt>
      <trkpt lat="50.0016" lon="2.39418">
        <ele>87.6</ele>
        <time>2022-11-16T13:18:18Z</time>
      </trkpt>
      <trkpt lat="50.00159" lon="2.39419">
        <ele>87.6</ele>
        <time>2022-11-16T13:18:19Z</time>
      </trkpt>
      <trkpt lat="50.00158" lon="2.39419">
        <ele>87.6</ele>
        <time>2022-11-16T13:18:20Z</time>
      </trkpt>
      <trkpt lat="50.00157" lon="2.39419">
        <ele>87.7</ele>
        <time>2022-11-16T13:18:21Z</time>
      </trkpt>
      <trkpt lat="50.00155" lon="2.39419">
        <ele>87.7</ele>
        <time>2022-11-16T13:18:22Z</time>
      </trkpt>
      <trkpt lat="50.00154" lon="2.3942">
        <ele>87.7</ele>
        <time>2022-11-16T13:18:23Z</time>
      </trkpt>
      <trkpt lat="50.00153" lon="2.3942">
        <ele>87.7</ele>
        <time>2022-11-16T13:18:24Z</time>
      </trkpt>
      <trkpt lat="50.00152" lon="2.39421">
        <ele>87.7</ele>
        <time>2022-11-16T13:18:26Z</time>
      </trkpt>
      <trkpt lat="50.00151" lon="2.39422">
        <ele>87.8</ele>
        <time>2022-11-16T13:18:27Z</time>
      </trkpt>
      <trkpt lat="50.0015" lon="2.39423">
        <ele>87.8</ele>
        <time>2022-11-16T13:18:28Z</time>
      </trkpt>
      <trkpt lat="50.00149" lon="2.39424">
        <ele>87.8</ele>
        <time>2022-11-16T13:18:29Z</time>
      </trkpt>
      <trkpt lat="50.00148" lon="2.39425">
        <ele>87.8</ele>
        <time>2022-11-16T13:18:30Z</time>
      </trkpt>
      <trkpt lat="50.00147" lon="2.39425">
        <ele>87.9</ele>
        <time>2022-11-16T13:18:31Z</time>
      </trkpt>
      <trkpt lat="50.00146" lon="2.39425">
        <ele>87.9</ele>
        <time>2022-11-16T13:18:32Z</time>
      </trkpt>
      <trkpt lat="50.00144" lon="2.39426">
        <ele>87.9</ele>
        <time>2022-11-16T13:18:33Z</time>
      </trkpt>
      <trkpt lat="50.00143" lon="2.39426">
        <ele>87.9</ele>
        <time>2022-11-16T13:18:34Z</time>
      </trkpt>
      <trkpt lat="50.00142" lon="2.39427">
        <ele>88</ele>
        <time>2022-11-16T13:18:36Z</time>
      </trkpt>
      <trkpt lat="50.0014" lon="2.39428">
        <ele>88</ele>
        <time>2022-11-16T13:18:37Z</time>
      </trkpt>
      <trkpt lat="50.00139" lon="2.39429">
        <ele>88</ele>
        <time>2022-11-16T13:18:38Z</time>
      </trkpt>
      <trkpt lat="50.00139" lon="2.39429">
        <ele>88.1</ele>
        <time>2022-11-16T13:18:39Z</time>
      </trkpt>
      <trkpt lat="50.00137" lon="2.39431">
        <ele>88.1</ele>
        <time>2022-11-16T13:18:40Z</time>
      </trkpt>
      <trkpt lat="50.00136" lon="2.39432">
        <ele>88.2</ele>
        <time>2022-11-16T13:18:42Z</time>
      </trkpt>
      <trkpt lat="50.00134" lon="2.39434">
        <ele>88.2</ele>
        <time>2022-11-16T13:18:43Z</time>
      </trkpt>
      <trkpt lat="50.00133" lon="2.39434">
        <ele>88.2</ele>
        <time>2022-11-16T13:18:44Z</time>
      </trkpt>
      <trkpt lat="50.00131" lon="2.39435">
        <ele>88.3</ele>
        <time>2022-11-16T13:18:45Z</time>
      </trkpt>
      <trkpt lat="50.0013" lon="2.39436">
        <ele>88.3</ele>
        <time>2022-11-16T13:18:47Z</time>
      </trkpt>
      <trkpt lat="50.00129" lon="2.39436">
        <ele>88.4</ele>
        <time>2022-11-16T13:18:48Z</time>
      </trkpt>
      <trkpt lat="50.00128" lon="2.39437">
        <ele>88.4</ele>
        <time>2022-11-16T13:18:49Z</time>
      </trkpt>
      <trkpt lat="50.00127" lon="2.39437">
        <ele>88.5</ele>
        <time>2022-11-16T13:18:50Z</time>
      </trkpt>
      <trkpt lat="50.00125" lon="2.39438">
        <ele>88.6</ele>
        <time>2022-11-16T13:18:51Z</time>
      </trkpt>
      <trkpt lat="50.00124" lon="2.39438">
        <ele>88.7</ele>
        <time>2022-11-16T13:18:52Z</time>
      </trkpt>
      <trkpt lat="50.00123" lon="2.39439">
        <ele>88.7</ele>
        <time>2022-11-16T13:18:53Z</time>
      </trkpt>
      <trkpt lat="50.00122" lon="2.39439">
        <ele>88.8</ele>
        <time>2022-11-16T13:18:55Z</time>
      </trkpt>
      <trkpt lat="50.00121" lon="2.39439">
        <ele>88.9</ele>
        <time>2022-11-16T13:18:56Z</time>
      </trkpt>
      <trkpt lat="50.0012" lon="2.3944">
        <ele>89</ele>
        <time>2022-11-16T13:18:57Z</time>
      </trkpt>
      <trkpt lat="50.00119" lon="2.3944">
        <ele>89.1</ele>
        <time>2022-11-16T13:18:58Z</time>
      </trkpt>
      <trkpt lat="50.00117" lon="2.39439">
        <ele>89.2</ele>
        <time>2022-11-16T13:18:59Z</time>
      </trkpt>
      <trkpt lat="50.00116" lon="2.39439">
        <ele>89.2</ele>
        <time>2022-11-16T13:19:01Z</time>
      </trkpt>
      <trkpt lat="50.00115" lon="2.39439">
        <ele>89.3</ele>
        <time>2022-11-16T13:19:02Z</time>
      </trkpt>
      <trkpt lat="50.00114" lon="2.39439">
        <ele>89.4</ele>
        <time>2022-11-16T13:19:03Z</time>
      </trkpt>
      <trkpt lat="50.00113" lon="2.39439">
        <ele>89.5</ele>
        <time>2022-11-16T13:19:04Z</time>
      </trkpt>
      <trkpt lat="50.00113" lon="2.39438">
        <ele>89.5</ele>
        <time>2022-11-16T13:19:05Z</time>
      </trkpt>
      <trkpt lat="50.00112" lon="2.39438">
        <ele>89.6</ele>
        <time>2022-11-16T13:19:06Z</time>
      </trkpt>
      <trkpt lat="50.00111" lon="2.39437">
        <ele>89.6</ele>
        <time>2022-11-16T13:19:07Z</time>
      </trkpt>
      <trkpt lat="50.00111" lon="2.39436">
        <ele>89.7</ele>
        <time>2022-11-16T13:19:08Z</time>
      </trkpt>
      <trkpt lat="50.0011" lon="2.39436">
        <ele>89.8</ele>
        <time>2022-11-16T13:19:10Z</time>
      </trkpt>
      <trkpt lat="50.00109" lon="2.39435">
        <ele>89.8</ele>
        <time>2022-11-16T13:19:11Z</time>
      </trkpt>
      <trkpt lat="50.00109" lon="2.39435">
        <ele>89.8</ele>
        <time>2022-11-16T13:19:12Z</time>
      </trkpt>
      <trkpt lat="50.00108" lon="2.39434">
        <ele>89.9</ele>
        <time>2022-11-16T13:19:13Z</time>
      </trkpt>
      <trkpt lat="50.00107" lon="2.39433">
        <ele>90</ele>
        <time>2022-11-16T13:19:14Z</time>
      </trkpt>
      <trkpt lat="50.00106" lon="2.39431">
        <ele>90.1</ele>
        <time>2022-11-16T13:19:15Z</time>
      </trkpt>
      <trkpt lat="50.00105" lon="2.3943">
        <ele>90.2</ele>
        <time>2022-11-16T13:19:17Z</time>
      </trkpt>
      <trkpt lat="50.00104" lon="2.3943">
        <ele>90.3</ele>
        <time>2022-11-16T13:19:18Z</time>
      </trkpt>
      <trkpt lat="50.00103" lon="2.39429">
        <ele>90.4</ele>
        <time>2022-11-16T13:19:19Z</time>
      </trkpt>
      <trkpt lat="50.00102" lon="2.39428">
        <ele>90.5</ele>
        <time>2022-11-16T13:19:20Z</time>
      </trkpt>
      <trkpt lat="50.00101" lon="2.39426">
        <ele>90.6</ele>
        <time>2022-11-16T13:19:21Z</time>
      </trkpt>
      <trkpt lat="50.001" lon="2.39425">
        <ele>90.7</ele>
        <time>2022-11-16T13:19:22Z</time>
      </trkpt>
      <trkpt lat="50.00099" lon="2.39424">
        <ele>90.8</ele>
        <time>2022-11-16T13:19:23Z</time>
      </trkpt>
      <trkpt lat="50.00099" lon="2.39422">
        <ele>90.9</ele>
        <time>2022-11-16T13:19:25Z</time>
      </trkpt>
      <trkpt lat="50.00098" lon="2.39421">
        <ele>91.1</ele>
        <time>2022-11-16T13:19:26Z</time>
      </trkpt>
      <trkpt lat="50.00097" lon="2.39419">
        <ele>91.2</ele>
        <time>2022-11-16T13:19:27Z</time>
      </trkpt>
      <trkpt lat="50.00096" lon="2.39417">
        <ele>91.3</ele>
        <time>2022-11-16T13:19:29Z</time>
      </trkpt>
      <trkpt lat="50.00096" lon="2.39416">
        <ele>91.5</ele>
        <time>2022-11-16T13:19:30Z</time>
      </trkpt>
      <trkpt lat="50.00095" lon="2.39414">
        <ele>91.6</ele>
        <time>2022-11-16T13:19:31Z</time>
      </trkpt>
      <trkpt lat="50.00095" lon="2.39413">
        <ele>91.6</ele>
        <time>2022-11-16T13:19:32Z</time>
      </trkpt>
      <trkpt lat="50.00095" lon="2.39412">
        <ele>91.7</ele>
        <time>2022-11-16T13:19:33Z</time>
      </trkpt>
      <trkpt lat="50.00094" lon="2.39411">
        <ele>91.9</ele>
        <time>2022-11-16T13:19:34Z</time>
      </trkpt>
      <trkpt lat="50.00094" lon="2.39409">
        <ele>92</ele>
        <time>2022-11-16T13:19:35Z</time>
      </trkpt>
      <trkpt lat="50.00094" lon="2.39408">
        <ele>92.1</ele>
        <time>2022-11-16T13:19:37Z</time>
      </trkpt>
      <trkpt lat="50.00094" lon="2.39407">
        <ele>92.1</ele>
        <time>2022-11-16T13:19:38Z</time>
      </trkpt>
      <trkpt lat="50.00094" lon="2.39406">
        <ele>92.2</ele>
        <time>2022-11-16T13:19:39Z</time>
      </trkpt>
      <trkpt lat="50.00095" lon="2.39406">
        <ele>92.2</ele>
        <time>2022-11-16T13:19:40Z</time>
      </trkpt>
      <trkpt lat="50.00095" lon="2.39405">
        <ele>92.3</ele>
        <time>2022-11-16T13:19:41Z</time>
      </trkpt>
      <trkpt lat="50.00095" lon="2.39405">
        <ele>92.3</ele>
        <time>2022-11-16T13:19:42Z</time>
      </trkpt>
      <trkpt lat="50.00095" lon="2.39405">
        <ele>92.3</ele>
        <time>2022-11-16T13:19:43Z</time>
      </trkpt>
      <trkpt lat="50.00095" lon="2.39405">
        <ele>92.4</ele>
        <time>2022-11-16T13:19:44Z</time>
      </trkpt>
      <trkpt lat="50.00095" lon="2.39405">
        <ele>92.4</ele>
        <time>2022-11-16T13:19:45Z</time>
      </trkpt>
      <trkpt lat="50.00095" lon="2.39405">
        <ele>92.4</ele>
        <time>2022-11-16T13:19:47Z</time>
      </trkpt>
      <trkpt lat="50.00095" lon="2.39404">
        <ele>92.5</ele>
        <time>2022-11-16T13:19:48Z</time>
      </trkpt>
      <trkpt lat="50.00094" lon="2.39403">
        <ele>92.6</ele>
        <time>2022-11-16T13:19:50Z</time>
      </trkpt>
      <trkpt lat="50.00093" lon="2.39404">
        <ele>92.7</ele>
        <time>2022-11-16T13:19:51Z</time>
      </trkpt>
      <trkpt lat="50.00092" lon="2.39404">
        <ele>92.8</ele>
        <time>2022-11-16T13:19:52Z</time>
      </trkpt>
      <trkpt lat="50.00091" lon="2.39404">
        <ele>92.9</ele>
        <time>2022-11-16T13:19:53Z</time>
      </trkpt>
      <trkpt lat="50.0009" lon="2.39404">
        <ele>93</ele>
        <time>2022-11-16T13:19:55Z</time>
      </trkpt>
      <trkpt lat="50.0009" lon="2.39404">
        <ele>93.1</ele>
        <time>2022-11-16T13:19:56Z</time>
      </trkpt>
      <trkpt lat="50.00089" lon="2.39404">
        <ele>93.2</ele>
        <time>2022-11-16T13:19:57Z</time>
      </trkpt>
      <trkpt lat="50.00089" lon="2.39404">
        <ele>93.3</ele>
        <time>2022-11-16T13:19:58Z</time>
      </trkpt>
      <trkpt lat="50.00088" lon="2.39404">
        <ele>93.3</ele>
        <time>2022-11-16T13:20:00Z</time>
      </trkpt>
      <trkpt lat="50.00087" lon="2.39403">
        <ele>93.4</ele>
        <time>2022-11-16T13:20:01Z</time>
      </trkpt>
      <trkpt lat="50.00086" lon="2.39403">
        <ele>93.6</ele>
        <time>2022-11-16T13:20:02Z</time>
      </trkpt>
      <trkpt lat="50.00084" lon="2.39403">
        <ele>93.9</ele>
        <time>2022-11-16T13:20:03Z</time>
      </trkpt>
      <trkpt lat="50.00083" lon="2.39402">
        <ele>94</ele>
        <time>2022-11-16T13:20:05Z</time>
      </trkpt>
      <trkpt lat="50.00082" lon="2.39402">
        <ele>94.1</ele>
        <time>2022-11-16T13:20:06Z</time>
      </trkpt>
      <trkpt lat="50.00081" lon="2.39402">
        <ele>94.2</ele>
        <time>2022-11-16T13:20:07Z</time>
      </trkpt>
      <trkpt lat="50.0008" lon="2.39402">
        <ele>94.4</ele>
        <time>2022-11-16T13:20:08Z</time>
      </trkpt>
      <trkpt lat="50.00079" lon="2.39402">
        <ele>94.6</ele>
        <time>2022-11-16T13:20:10Z</time>
      </trkpt>
      <trkpt lat="50.00078" lon="2.39401">
        <ele>94.7</ele>
        <time>2022-11-16T13:20:11Z</time>
      </trkpt>
      <trkpt lat="50.00077" lon="2.39401">
        <ele>94.8</ele>
        <time>2022-11-16T13:20:12Z</time>
      </trkpt>
      <trkpt lat="50.00076" lon="2.39401">
        <ele>94.9</ele>
        <time>2022-11-16T13:20:13Z</time>
      </trkpt>
      <trkpt lat="50.00075" lon="2.394">
        <ele>95.1</ele>
        <time>2022-11-16T13:20:14Z</time>
      </trkpt>
      <trkpt lat="50.00074" lon="2.394">
        <ele>95.2</ele>
        <time>2022-11-16T13:20:15Z</time>
      </trkpt>
      <trkpt lat="50.00073" lon="2.394">
        <ele>95.4</ele>
        <time>2022-11-16T13:20:16Z</time>
      </trkpt>
      <trkpt lat="50.00072" lon="2.39399">
        <ele>95.5</ele>
        <time>2022-11-16T13:20:18Z</time>
      </trkpt>
      <trkpt lat="50.00071" lon="2.39399">
        <ele>95.6</ele>
        <time>2022-11-16T13:20:19Z</time>
      </trkpt>
      <trkpt lat="50.0007" lon="2.39398">
        <ele>95.8</ele>
        <time>2022-11-16T13:20:20Z</time>
      </trkpt>
      <trkpt lat="50.00069" lon="2.39398">
        <ele>95.9</ele>
        <time>2022-11-16T13:20:21Z</time>
      </trkpt>
      <trkpt lat="50.00068" lon="2.39398">
        <ele>96.1</ele>
        <time>2022-11-16T13:20:23Z</time>
      </trkpt>
      <trkpt lat="50.00066" lon="2.39398">
        <ele>96.2</ele>
        <time>2022-11-16T13:20:24Z</time>
      </trkpt>
      <trkpt lat="50.00064" lon="2.39397">
        <ele>96.5</ele>
        <time>2022-11-16T13:20:25Z</time>
      </trkpt>
      <trkpt lat="50.00063" lon="2.39397">
        <ele>96.6</ele>
        <time>2022-11-16T13:20:26Z</time>
      </trkpt>
      <trkpt lat="50.00062" lon="2.39396">
        <ele>96.8</ele>
        <time>2022-11-16T13:20:27Z</time>
      </trkpt>
      <trkpt lat="50.00061" lon="2.39395">
        <ele>97</ele>
        <time>2022-11-16T13:20:28Z</time>
      </trkpt>
      <trkpt lat="50.00059" lon="2.39395">
        <ele>97.1</ele>
        <time>2022-11-16T13:20:29Z</time>
      </trkpt>
      <trkpt lat="50.00057" lon="2.39394">
        <ele>97.4</ele>
        <time>2022-11-16T13:20:31Z</time>
      </trkpt>
      <trkpt lat="50.00056" lon="2.39393">
        <ele>97.5</ele>
        <time>2022-11-16T13:20:32Z</time>
      </trkpt>
      <trkpt lat="50.00056" lon="2.39393">
        <ele>97.6</ele>
        <time>2022-11-16T13:20:33Z</time>
      </trkpt>
      <trkpt lat="50.00054" lon="2.39393">
        <ele>97.8</ele>
        <time>2022-11-16T13:20:34Z</time>
      </trkpt>
      <trkpt lat="50.00053" lon="2.39392">
        <ele>98</ele>
        <time>2022-11-16T13:20:35Z</time>
      </trkpt>
      <trkpt lat="50.00052" lon="2.39392">
        <ele>98.1</ele>
        <time>2022-11-16T13:20:36Z</time>
      </trkpt>
      <trkpt lat="50.00051" lon="2.39391">
        <ele>98.3</ele>
        <time>2022-11-16T13:20:38Z</time>
      </trkpt>
      <trkpt lat="50.0005" lon="2.3939">
        <ele>98.4</ele>
        <time>2022-11-16T13:20:39Z</time>
      </trkpt>
      <trkpt lat="50.00049" lon="2.39389">
        <ele>98.6</ele>
        <time>2022-11-16T13:20:40Z</time>
      </trkpt>
      <trkpt lat="50.00048" lon="2.39389">
        <ele>98.7</ele>
        <time>2022-11-16T13:20:41Z</time>
      </trkpt>
      <trkpt lat="50.00047" lon="2.39388">
        <ele>98.8</ele>
        <time>2022-11-16T13:20:42Z</time>
      </trkpt>
      <trkpt lat="50.00046" lon="2.39388">
        <ele>98.9</ele>
        <time>2022-11-16T13:20:44Z</time>
      </trkpt>
      <trkpt lat="50.00045" lon="2.39387">
        <ele>99</ele>
        <time>2022-11-16T13:20:45Z</time>
      </trkpt>
      <trkpt lat="50.00045" lon="2.39387">
        <ele>99.2</ele>
        <time>2022-11-16T13:20:46Z</time>
      </trkpt>
      <trkpt lat="50.00044" lon="2.39386">
        <ele>99.3</ele>
        <time>2022-11-16T13:20:47Z</time>
      </trkpt>
      <trkpt lat="50.00043" lon="2.39385">
        <ele>99.4</ele>
        <time>2022-11-16T13:20:48Z</time>
      </trkpt>
      <trkpt lat="50.00042" lon="2.39384">
        <ele>99.5</ele>
        <time>2022-11-16T13:20:50Z</time>
      </trkpt>
      <trkpt lat="50.00042" lon="2.39383">
        <ele>99.6</ele>
        <time>2022-11-16T13:20:51Z</time>
      </trkpt>
      <trkpt lat="50.00042" lon="2.39382">
        <ele>99.7</ele>
        <time>2022-11-16T13:20:52Z</time>
      </trkpt>
      <trkpt lat="50.00041" lon="2.39381">
        <ele>99.8</ele>
        <time>2022-11-16T13:20:54Z</time>
      </trkpt>
      <trkpt lat="50.0004" lon="2.3938">
        <ele>99.9</ele>
        <time>2022-11-16T13:20:55Z</time>
      </trkpt>
      <trkpt lat="50.0004" lon="2.39379">
        <ele>100</ele>
        <time>2022-11-16T13:20:56Z</time>
      </trkpt>
      <trkpt lat="50.0004" lon="2.39378">
        <ele>100.1</ele>
        <time>2022-11-16T13:20:57Z</time>
      </trkpt>
      <trkpt lat="50.0004" lon="2.39377">
        <ele>100.2</ele>
        <time>2022-11-16T13:20:58Z</time>
      </trkpt>
      <trkpt lat="50.00039" lon="2.39376">
        <ele>100.3</ele>
        <time>2022-11-16T13:20:59Z</time>
      </trkpt>
      <trkpt lat="50.00039" lon="2.39375">
        <ele>100.4</ele>
        <time>2022-11-16T13:21:01Z</time>
      </trkpt>
      <trkpt lat="50.00038" lon="2.39374">
        <ele>100.5</ele>
        <time>2022-11-16T13:21:02Z</time>
      </trkpt>
      <trkpt lat="50.00038" lon="2.39372">
        <ele>100.6</ele>
        <time>2022-11-16T13:21:03Z</time>
      </trkpt>
      <trkpt lat="50.00038" lon="2.39371">
        <ele>100.7</ele>
        <time>2022-11-16T13:21:05Z</time>
      </trkpt>
      <trkpt lat="50.00038" lon="2.3937">
        <ele>100.8</ele>
        <time>2022-11-16T13:21:06Z</time>
      </trkpt>
      <trkpt lat="50.00037" lon="2.39369">
        <ele>100.8</ele>
        <time>2022-11-16T13:21:07Z</time>
      </trkpt>
      <trkpt lat="50.00037" lon="2.39367">
        <ele>101</ele>
        <time>2022-11-16T13:21:08Z</time>
      </trkpt>
      <trkpt lat="50.00037" lon="2.39366">
        <ele>101.1</ele>
        <time>2022-11-16T13:21:10Z</time>
      </trkpt>
      <trkpt lat="50.00036" lon="2.39365">
        <ele>101.1</ele>
        <time>2022-11-16T13:21:11Z</time>
      </trkpt>
      <trkpt lat="50.00036" lon="2.39364">
        <ele>101.2</ele>
        <time>2022-11-16T13:21:12Z</time>
      </trkpt>
      <trkpt lat="50.00036" lon="2.39363">
        <ele>101.3</ele>
        <time>2022-11-16T13:21:14Z</time>
      </trkpt>
      <trkpt lat="50.00036" lon="2.39362">
        <ele>101.4</ele>
        <time>2022-11-16T13:21:15Z</time>
      </trkpt>
      <trkpt lat="50.00036" lon="2.39361">
        <ele>101.4</ele>
        <time>2022-11-16T13:21:16Z</time>
      </trkpt>
      <trkpt lat="50.00036" lon="2.39359">
        <ele>101.5</ele>
        <time>2022-11-16T13:21:17Z</time>
      </trkpt>
      <trkpt lat="50.00036" lon="2.39357">
        <ele>101.7</ele>
        <time>2022-11-16T13:21:19Z</time>
      </trkpt>
      <trkpt lat="50.00036" lon="2.39356">
        <ele>101.8</ele>
        <time>2022-11-16T13:21:20Z</time>
      </trkpt>
      <trkpt lat="50.00036" lon="2.39355">
        <ele>101.8</ele>
        <time>2022-11-16T13:21:21Z</time>
      </trkpt>
      <trkpt lat="50.00036" lon="2.39354">
        <ele>101.9</ele>
        <time>2022-11-16T13:21:23Z</time>
      </trkpt>
      <trkpt lat="50.00035" lon="2.39353">
        <ele>102</ele>
        <time>2022-11-16T13:21:24Z</time>
      </trkpt>
      <trkpt lat="50.00035" lon="2.39352">
        <ele>102.1</ele>
        <time>2022-11-16T13:21:25Z</time>
      </trkpt>
      <trkpt lat="50.00035" lon="2.39351">
        <ele>102.1</ele>
        <time>2022-11-16T13:21:27Z</time>
      </trkpt>
      <trkpt lat="50.00035" lon="2.39349">
        <ele>102.2</ele>
        <time>2022-11-16T13:21:28Z</time>
      </trkpt>
      <trkpt lat="50.00035" lon="2.39347">
        <ele>102.3</ele>
        <time>2022-11-16T13:21:29Z</time>
      </trkpt>
      <trkpt lat="50.00035" lon="2.39345">
        <ele>102.5</ele>
        <time>2022-11-16T13:21:31Z</time>
      </trkpt>
      <trkpt lat="50.00034" lon="2.39342">
        <ele>102.7</ele>
        <time>2022-11-16T13:21:32Z</time>
      </trkpt>
      <trkpt lat="50.00034" lon="2.3934">
        <ele>102.8</ele>
        <time>2022-11-16T13:21:33Z</time>
      </trkpt>
      <trkpt lat="50.00034" lon="2.39338">
        <ele>103</ele>
        <time>2022-11-16T13:21:34Z</time>
      </trkpt>
      <trkpt lat="50.00034" lon="2.39334">
        <ele>103.2</ele>
        <time>2022-11-16T13:21:36Z</time>
      </trkpt>
      <trkpt lat="50.00034" lon="2.39332">
        <ele>103.3</ele>
        <time>2022-11-16T13:21:37Z</time>
      </trkpt>
      <trkpt lat="50.00034" lon="2.3933">
        <ele>103.4</ele>
        <time>2022-11-16T13:21:38Z</time>
      </trkpt>
      <trkpt lat="50.00034" lon="2.39328">
        <ele>103.5</ele>
        <time>2022-11-16T13:21:40Z</time>
      </trkpt>
      <trkpt lat="50.00034" lon="2.39326">
        <ele>103.7</ele>
        <time>2022-11-16T13:21:41Z</time>
      </trkpt>
      <trkpt lat="50.00035" lon="2.39324">
        <ele>103.8</ele>
        <time>2022-11-16T13:21:42Z</time>
      </trkpt>
      <trkpt lat="50.00035" lon="2.39323">
        <ele>103.8</ele>
        <time>2022-11-16T13:21:44Z</time>
      </trkpt>
      <trkpt lat="50.00035" lon="2.39322">
        <ele>103.9</ele>
        <time>2022-11-16T13:21:45Z</time>
      </trkpt>
      <trkpt lat="50.00035" lon="2.39321">
        <ele>104</ele>
        <time>2022-11-16T13:21:46Z</time>
      </trkpt>
      <trkpt lat="50.00035" lon="2.39319">
        <ele>104.1</ele>
        <time>2022-11-16T13:21:47Z</time>
      </trkpt>
      <trkpt lat="50.00035" lon="2.39318">
        <ele>104.1</ele>
        <time>2022-11-16T13:21:48Z</time>
      </trkpt>
      <trkpt lat="50.00035" lon="2.39317">
        <ele>104.2</ele>
        <time>2022-11-16T13:21:49Z</time>
      </trkpt>
      <trkpt lat="50.00036" lon="2.39315">
        <ele>104.3</ele>
        <time>2022-11-16T13:21:50Z</time>
      </trkpt>
      <trkpt lat="50.00036" lon="2.39314">
        <ele>104.4</ele>
        <time>2022-11-16T13:21:52Z</time>
      </trkpt>
      <trkpt lat="50.00036" lon="2.39312">
        <ele>104.5</ele>
        <time>2022-11-16T13:21:53Z</time>
      </trkpt>
      <trkpt lat="50.00036" lon="2.39311">
        <ele>104.6</ele>
        <time>2022-11-16T13:21:54Z</time>
      </trkpt>
      <trkpt lat="50.00036" lon="2.3931">
        <ele>104.6</ele>
        <time>2022-11-16T13:21:55Z</time>
      </trkpt>
      <trkpt lat="50.00036" lon="2.39309">
        <ele>104.7</ele>
        <time>2022-11-16T13:21:57Z</time>
      </trkpt>
      <trkpt lat="50.00035" lon="2.39308">
        <ele>104.8</ele>
        <time>2022-11-16T13:21:58Z</time>
      </trkpt>
      <trkpt lat="50.00035" lon="2.39306">
        <ele>104.9</ele>
        <time>2022-11-16T13:21:59Z</time>
      </trkpt>
      <trkpt lat="50.00034" lon="2.39305">
        <ele>105</ele>
        <time>2022-11-16T13:22:01Z</time>
      </trkpt>
      <trkpt lat="50.00033" lon="2.39303">
        <ele>105.1</ele>
        <time>2022-11-16T13:22:02Z</time>
      </trkpt>
      <trkpt lat="50.00033" lon="2.39302">
        <ele>105.2</ele>
        <time>2022-11-16T13:22:03Z</time>
      </trkpt>
      <trkpt lat="50.00032" lon="2.39301">
        <ele>105.3</ele>
        <time>2022-11-16T13:22:04Z</time>
      </trkpt>
      <trkpt lat="50.00032" lon="2.39299">
        <ele>105.4</ele>
        <time>2022-11-16T13:22:06Z</time>
      </trkpt>
      <trkpt lat="50.00031" lon="2.39298">
        <ele>105.5</ele>
        <time>2022-11-16T13:22:07Z</time>
      </trkpt>
      <trkpt lat="50.00031" lon="2.39296">
        <ele>105.6</ele>
        <time>2022-11-16T13:22:08Z</time>
      </trkpt>
      <trkpt lat="50.00031" lon="2.39295">
        <ele>105.7</ele>
        <time>2022-11-16T13:22:10Z</time>
      </trkpt>
      <trkpt lat="50.0003" lon="2.39294">
        <ele>105.7</ele>
        <time>2022-11-16T13:22:11Z</time>
      </trkpt>
      <trkpt lat="50.0003" lon="2.39293">
        <ele>105.8</ele>
        <time>2022-11-16T13:22:12Z</time>
      </trkpt>
      <trkpt lat="50.0003" lon="2.39292">
        <ele>105.9</ele>
        <time>2022-11-16T13:22:13Z</time>
      </trkpt>
      <trkpt lat="50.00029" lon="2.39291">
        <ele>105.9</ele>
        <time>2022-11-16T13:22:14Z</time>
      </trkpt>
      <trkpt lat="50.00029" lon="2.39291">
        <ele>106</ele>
        <time>2022-11-16T13:22:16Z</time>
      </trkpt>
      <trkpt lat="50.00028" lon="2.39291">
        <ele>106</ele>
        <time>2022-11-16T13:22:17Z</time>
      </trkpt>
      <trkpt lat="50.00028" lon="2.3929">
        <ele>106.1</ele>
        <time>2022-11-16T13:22:18Z</time>
      </trkpt>
      <trkpt lat="50.00028" lon="2.3929">
        <ele>106.1</ele>
        <time>2022-11-16T13:22:19Z</time>
      </trkpt>
      <trkpt lat="50.00027" lon="2.39289">
        <ele>106.2</ele>
        <time>2022-11-16T13:22:20Z</time>
      </trkpt>
      <trkpt lat="50.00027" lon="2.39288">
        <ele>106.3</ele>
        <time>2022-11-16T13:22:21Z</time>
      </trkpt>
      <trkpt lat="50.00025" lon="2.39286">
        <ele>106.5</ele>
        <time>2022-11-16T13:22:22Z</time>
      </trkpt>
      <trkpt lat="50.00025" lon="2.39285">
        <ele>106.6</ele>
        <time>2022-11-16T13:22:24Z</time>
      </trkpt>
      <trkpt lat="50.00024" lon="2.39284">
        <ele>106.7</ele>
        <time>2022-11-16T13:22:25Z</time>
      </trkpt>
      <trkpt lat="50.00022" lon="2.39282">
        <ele>106.9</ele>
        <time>2022-11-16T13:22:26Z</time>
      </trkpt>
      <trkpt lat="50.00021" lon="2.39281">
        <ele>107</ele>
        <time>2022-11-16T13:22:27Z</time>
      </trkpt>
      <trkpt lat="50.0002" lon="2.39281">
        <ele>107.1</ele>
        <time>2022-11-16T13:22:28Z</time>
      </trkpt>
      <trkpt lat="50.00019" lon="2.39279">
        <ele>107.2</ele>
        <time>2022-11-16T13:22:29Z</time>
      </trkpt>
      <trkpt lat="50.00018" lon="2.39278">
        <ele>107.4</ele>
        <time>2022-11-16T13:22:31Z</time>
      </trkpt>
      <trkpt lat="50.00017" lon="2.39277">
        <ele>107.5</ele>
        <time>2022-11-16T13:22:32Z</time>
      </trkpt>
      <trkpt lat="50.00015" lon="2.39276">
        <ele>107.7</ele>
        <time>2022-11-16T13:22:33Z</time>
      </trkpt>
      <trkpt lat="50.00014" lon="2.39275">
        <ele>107.8</ele>
        <time>2022-11-16T13:22:35Z</time>
      </trkpt>
      <trkpt lat="50.00013" lon="2.39274">
        <ele>108</ele>
        <time>2022-11-16T13:22:36Z</time>
      </trkpt>
      <trkpt lat="50.00011" lon="2.39272">
        <ele>108.2</ele>
        <time>2022-11-16T13:22:37Z</time>
      </trkpt>
      <trkpt lat="50.0001" lon="2.39272">
        <ele>108.3</ele>
        <time>2022-11-16T13:22:39Z</time>
      </trkpt>
      <trkpt lat="50.00009" lon="2.39271">
        <ele>108.4</ele>
        <time>2022-11-16T13:22:40Z</time>
      </trkpt>
      <trkpt lat="50.00008" lon="2.3927">
        <ele>108.6</ele>
        <time>2022-11-16T13:22:41Z</time>
      </trkpt>
      <trkpt lat="50.00007" lon="2.39269">
        <ele>108.7</ele>
        <time>2022-11-16T13:22:42Z</time>
      </trkpt>
      <trkpt lat="50.00006" lon="2.39268">
        <ele>108.8</ele>
        <time>2022-11-16T13:22:44Z</time>
      </trkpt>
      <trkpt lat="50.00005" lon="2.39267">
        <ele>109</ele>
        <time>2022-11-16T13:22:45Z</time>
      </trkpt>
      <trkpt lat="50.00004" lon="2.39266">
        <ele>109.1</ele>
        <time>2022-11-16T13:22:47Z</time>
      </trkpt>
      <trkpt lat="50.00003" lon="2.39265">
        <ele>109.2</ele>
        <time>2022-11-16T13:22:48Z</time>
      </trkpt>
      <trkpt lat="50.00002" lon="2.39264">
        <ele>109.4</ele>
        <time>2022-11-16T13:22:49Z</time>
      </trkpt>
      <trkpt lat="50.00001" lon="2.39264">
        <ele>109.5</ele>
        <time>2022-11-16T13:22:51Z</time>
      </trkpt>
      <trkpt lat="50" lon="2.39264">
        <ele>109.5</ele>
        <time>2022-11-16T13:22:52Z</time>
      </trkpt>
      <trkpt lat="50" lon="2.39263">
        <ele>109.6</ele>
        <time>2022-11-16T13:22:53Z</time>
      </trkpt>
      <trkpt lat="49.99999" lon="2.39263">
        <ele>109.7</ele>
        <time>2022-11-16T13:22:55Z</time>
      </trkpt>
      <trkpt lat="49.99999" lon="2.39263">
        <ele>109.7</ele>
        <time>2022-11-16T13:22:56Z</time>
      </trkpt>
      <trkpt lat="49.99998" lon="2.39262">
        <ele>109.8</ele>
        <time>2022-11-16T13:22:58Z</time>
      </trkpt>
      <trkpt lat="49.99998" lon="2.39262">
        <ele>109.8</ele>
        <time>2022-11-16T13:22:59Z</time>
      </trkpt>
      <trkpt lat="49.99998" lon="2.39262">
        <ele>109.9</ele>
        <time>2022-11-16T13:23:00Z</time>
      </trkpt>
      <trkpt lat="49.99998" lon="2.39261">
        <ele>109.9</ele>
        <time>2022-11-16T13:23:01Z</time>
      </trkpt>
      <trkpt lat="49.99997" lon="2.39261">
        <ele>109.9</ele>
        <time>2022-11-16T13:23:03Z</time>
      </trkpt>
      <trkpt lat="49.99997" lon="2.39261">
        <ele>110</ele>
        <time>2022-11-16T13:23:04Z</time>
      </trkpt>
      <trkpt lat="49.99997" lon="2.39261">
        <ele>110</ele>
        <time>2022-11-16T13:23:05Z</time>
      </trkpt>
      <trkpt lat="49.99997" lon="2.39261">
        <ele>110</ele>
        <time>2022-11-16T13:23:06Z</time>
      </trkpt>
      <trkpt lat="49.99997" lon="2.39261">
        <ele>110</ele>
        <time>2022-11-16T13:23:07Z</time>
      </trkpt>
      <trkpt lat="49.99996" lon="2.3926">
        <ele>110.1</ele>
        <time>2022-11-16T13:23:08Z</time>
      </trkpt>
      <trkpt lat="49.99996" lon="2.39259">
        <ele>110.2</ele>
        <time>2022-11-16T13:23:10Z</time>
      </trkpt>
      <trkpt lat="49.99995" lon="2.39258">
        <ele>110.3</ele>
        <time>2022-11-16T13:23:11Z</time>
      </trkpt>
      <trkpt lat="49.99994" lon="2.39257">
        <ele>110.4</ele>
        <time>2022-11-16T13:23:12Z</time>
      </trkpt>
      <trkpt lat="49.99994" lon="2.39257">
        <ele>110.4</ele>
        <time>2022-11-16T13:23:14Z</time>
      </trkpt>
      <trkpt lat="49.99993" lon="2.39256">
        <ele>110.5</ele>
        <time>2022-11-16T13:23:15Z</time>
      </trkpt>
      <trkpt lat="49.99993" lon="2.39255">
        <ele>110.6</ele>
        <time>2022-11-16T13:23:16Z</time>
      </trkpt>
      <trkpt lat="49.99992" lon="2.39255">
        <ele>110.7</ele>
        <time>2022-11-16T13:23:17Z</time>
      </trkpt>
      <trkpt lat="49.99991" lon="2.39254">
        <ele>110.7</ele>
        <time>2022-11-16T13:23:19Z</time>
      </trkpt>
      <trkpt lat="49.99991" lon="2.39254">
        <ele>110.8</ele>
        <time>2022-11-16T13:23:20Z</time>
      </trkpt>
      <trkpt lat="49.9999" lon="2.39253">
        <ele>110.9</ele>
        <time>2022-11-16T13:23:21Z</time>
      </trkpt>
      <trkpt lat="49.9999" lon="2.39252">
        <ele>110.9</ele>
        <time>2022-11-16T13:23:22Z</time>
      </trkpt>
      <trkpt lat="49.99989" lon="2.39252">
        <ele>111</ele>
        <time>2022-11-16T13:23:23Z</time>
      </trkpt>
      <trkpt lat="49.99988" lon="2.39251">
        <ele>111.1</ele>
        <time>2022-11-16T13:23:24Z</time>
      </trkpt>
      <trkpt lat="49.99988" lon="2.3925">
        <ele>111.2</ele>
        <time>2022-11-16T13:23:25Z</time>
      </trkpt>
      <trkpt lat="49.99987" lon="2.39249">
        <ele>111.3</ele>
        <time>2022-11-16T13:23:26Z</time>
      </trkpt>
      <trkpt lat="49.99986" lon="2.39248">
        <ele>111.4</ele>
        <time>2022-11-16T13:23:27Z</time>
      </trkpt>
      <trkpt lat="49.99985" lon="2.39247">
        <ele>111.5</ele>
        <time>2022-11-16T13:23:29Z</time>
      </trkpt>
      <trkpt lat="49.99984" lon="2.39247">
        <ele>111.5</ele>
        <time>2022-11-16T13:23:30Z</time>
      </trkpt>
      <trkpt lat="49.99984" lon="2.39246">
        <ele>111.6</ele>
        <time>2022-11-16T13:23:31Z</time>
      </trkpt>
      <trkpt lat="49.99983" lon="2.39245">
        <ele>111.7</ele>
        <time>2022-11-16T13:23:33Z</time>
      </trkpt>
      <trkpt lat="49.99981" lon="2.39244">
        <ele>111.8</ele>
        <time>2022-11-16T13:23:34Z</time>
      </trkpt>
      <trkpt lat="49.99981" lon="2.39243">
        <ele>111.9</ele>
        <time>2022-11-16T13:23:35Z</time>
      </trkpt>
      <trkpt lat="49.9998" lon="2.39243">
        <ele>112</ele>
        <time>2022-11-16T13:23:37Z</time>
      </trkpt>
      <trkpt lat="49.99979" lon="2.39242">
        <ele>112.1</ele>
        <time>2022-11-16T13:23:38Z</time>
      </trkpt>
      <trkpt lat="49.99978" lon="2.39242">
        <ele>112.1</ele>
        <time>2022-11-16T13:23:39Z</time>
      </trkpt>
      <trkpt lat="49.99978" lon="2.39242">
        <ele>112.2</ele>
        <time>2022-11-16T13:23:40Z</time>
      </trkpt>
      <trkpt lat="49.99978" lon="2.39241">
        <ele>112.2</ele>
        <time>2022-11-16T13:23:41Z</time>
      </trkpt>
      <trkpt lat="49.99977" lon="2.3924">
        <ele>112.3</ele>
        <time>2022-11-16T13:23:43Z</time>
      </trkpt>
      <trkpt lat="49.99976" lon="2.39239">
        <ele>112.4</ele>
        <time>2022-11-16T13:23:44Z</time>
      </trkpt>
      <trkpt lat="49.99974" lon="2.39238">
        <ele>112.5</ele>
        <time>2022-11-16T13:23:45Z</time>
      </trkpt>
      <trkpt lat="49.99973" lon="2.39238">
        <ele>112.6</ele>
        <time>2022-11-16T13:23:47Z</time>
      </trkpt>
      <trkpt lat="49.99972" lon="2.39237">
        <ele>112.7</ele>
        <time>2022-11-16T13:23:48Z</time>
      </trkpt>
      <trkpt lat="49.99971" lon="2.39237">
        <ele>112.8</ele>
        <time>2022-11-16T13:23:49Z</time>
      </trkpt>
      <trkpt lat="49.9997" lon="2.39237">
        <ele>112.8</ele>
        <time>2022-11-16T13:23:50Z</time>
      </trkpt>
      <trkpt lat="49.9997" lon="2.39236">
        <ele>112.9</ele>
        <time>2022-11-16T13:23:52Z</time>
      </trkpt>
      <trkpt lat="49.99969" lon="2.39236">
        <ele>112.9</ele>
        <time>2022-11-16T13:23:53Z</time>
      </trkpt>
      <trkpt lat="49.99968" lon="2.39236">
        <ele>113</ele>
        <time>2022-11-16T13:23:54Z</time>
      </trkpt>
      <trkpt lat="49.99967" lon="2.39236">
        <ele>113.1</ele>
        <time>2022-11-16T13:23:55Z</time>
      </trkpt>
      <trkpt lat="49.99965" lon="2.39235">
        <ele>113.2</ele>
        <time>2022-11-16T13:23:57Z</time>
      </trkpt>
      <trkpt lat="49.99965" lon="2.39236">
        <ele>113.2</ele>
        <time>2022-11-16T13:23:58Z</time>
      </trkpt>
      <trkpt lat="49.99964" lon="2.39236">
        <ele>113.3</ele>
        <time>2022-11-16T13:23:59Z</time>
      </trkpt>
      <trkpt lat="49.99963" lon="2.39236">
        <ele>113.3</ele>
        <time>2022-11-16T13:24:01Z</time>
      </trkpt>
      <trkpt lat="49.99962" lon="2.39236">
        <ele>113.4</ele>
        <time>2022-11-16T13:24:02Z</time>
      </trkpt>
      <trkpt lat="49.99961" lon="2.39236">
        <ele>113.5</ele>
        <time>2022-11-16T13:24:03Z</time>
      </trkpt>
      <trkpt lat="49.99958" lon="2.39235">
        <ele>113.6</ele>
        <time>2022-11-16T13:24:04Z</time>
      </trkpt>
      <trkpt lat="49.99957" lon="2.39235">
        <ele>113.7</ele>
        <time>2022-11-16T13:24:06Z</time>
      </trkpt>
      <trkpt lat="49.99956" lon="2.39235">
        <ele>113.7</ele>
        <time>2022-11-16T13:24:07Z</time>
      </trkpt>
      <trkpt lat="49.99954" lon="2.39235">
        <ele>113.8</ele>
        <time>2022-11-16T13:24:08Z</time>
      </trkpt>
      <trkpt lat="49.99953" lon="2.39235">
        <ele>113.9</ele>
        <time>2022-11-16T13:24:10Z</time>
      </trkpt>
      <trkpt lat="49.99952" lon="2.39235">
        <ele>114</ele>
        <time>2022-11-16T13:24:11Z</time>
      </trkpt>
      <trkpt lat="49.99951" lon="2.39234">
        <ele>114</ele>
        <time>2022-11-16T13:24:13Z</time>
      </trkpt>
      <trkpt lat="49.9995" lon="2.39234">
        <ele>114.1</ele>
        <time>2022-11-16T13:24:14Z</time>
      </trkpt>
      <trkpt lat="49.99949" lon="2.39233">
        <ele>114.1</ele>
        <time>2022-11-16T13:24:15Z</time>
      </trkpt>
      <trkpt lat="49.99948" lon="2.39233">
        <ele>114.2</ele>
        <time>2022-11-16T13:24:16Z</time>
      </trkpt>
      <trkpt lat="49.99947" lon="2.39233">
        <ele>114.2</ele>
        <time>2022-11-16T13:24:17Z</time>
      </trkpt>
      <trkpt lat="49.99946" lon="2.39233">
        <ele>114.3</ele>
        <time>2022-11-16T13:24:18Z</time>
      </trkpt>
      <trkpt lat="49.99945" lon="2.39233">
        <ele>114.3</ele>
        <time>2022-11-16T13:24:19Z</time>
      </trkpt>
      <trkpt lat="49.99944" lon="2.39233">
        <ele>114.4</ele>
        <time>2022-11-16T13:24:20Z</time>
      </trkpt>
      <trkpt lat="49.99943" lon="2.39232">
        <ele>114.4</ele>
        <time>2022-11-16T13:24:21Z</time>
      </trkpt>
      <trkpt lat="49.99943" lon="2.39232">
        <ele>114.5</ele>
        <time>2022-11-16T13:24:22Z</time>
      </trkpt>
      <trkpt lat="49.99942" lon="2.39232">
        <ele>114.5</ele>
        <time>2022-11-16T13:24:23Z</time>
      </trkpt>
      <trkpt lat="49.99941" lon="2.39232">
        <ele>114.5</ele>
        <time>2022-11-16T13:24:24Z</time>
      </trkpt>
      <trkpt lat="49.9994" lon="2.39231">
        <ele>114.6</ele>
        <time>2022-11-16T13:24:25Z</time>
      </trkpt>
      <trkpt lat="49.9994" lon="2.39231">
        <ele>114.6</ele>
        <time>2022-11-16T13:24:26Z</time>
      </trkpt>
      <trkpt lat="49.99938" lon="2.39231">
        <ele>114.7</ele>
        <time>2022-11-16T13:24:27Z</time>
      </trkpt>
      <trkpt lat="49.99937" lon="2.39231">
        <ele>114.7</ele>
        <time>2022-11-16T13:24:28Z</time>
      </trkpt>
      <trkpt lat="49.99936" lon="2.39231">
        <ele>114.7</ele>
        <time>2022-11-16T13:24:30Z</time>
      </trkpt>
      <trkpt lat="49.99935" lon="2.39231">
        <ele>114.8</ele>
        <time>2022-11-16T13:24:31Z</time>
      </trkpt>
      <trkpt lat="49.99934" lon="2.39231">
        <ele>114.8</ele>
        <time>2022-11-16T13:24:32Z</time>
      </trkpt>
      <trkpt lat="49.99933" lon="2.39231">
        <ele>114.9</ele>
        <time>2022-11-16T13:24:33Z</time>
      </trkpt>
      <trkpt lat="49.99932" lon="2.3923">
        <ele>114.9</ele>
        <time>2022-11-16T13:24:34Z</time>
      </trkpt>
      <trkpt lat="49.99931" lon="2.3923">
        <ele>114.9</ele>
        <time>2022-11-16T13:24:36Z</time>
      </trkpt>
      <trkpt lat="49.99931" lon="2.39231">
        <ele>114.9</ele>
        <time>2022-11-16T13:24:37Z</time>
      </trkpt>
      <trkpt lat="49.9993" lon="2.39231">
        <ele>115</ele>
        <time>2022-11-16T13:24:38Z</time>
      </trkpt>
      <trkpt lat="49.99929" lon="2.39232">
        <ele>115</ele>
        <time>2022-11-16T13:24:39Z</time>
      </trkpt>
      <trkpt lat="49.99928" lon="2.39232">
        <ele>115</ele>
        <time>2022-11-16T13:24:40Z</time>
      </trkpt>
      <trkpt lat="49.99927" lon="2.39232">
        <ele>115</ele>
        <time>2022-11-16T13:24:41Z</time>
      </trkpt>
      <trkpt lat="49.99927" lon="2.39232">
        <ele>115</ele>
        <time>2022-11-16T13:24:42Z</time>
      </trkpt>
      <trkpt lat="49.99926" lon="2.39231">
        <ele>115</ele>
        <time>2022-11-16T13:24:43Z</time>
      </trkpt>
      <trkpt lat="49.99926" lon="2.39231">
        <ele>115.1</ele>
        <time>2022-11-16T13:24:44Z</time>
      </trkpt>
      <trkpt lat="49.99926" lon="2.3923">
        <ele>115.1</ele>
        <time>2022-11-16T13:24:45Z</time>
      </trkpt>
      <trkpt lat="49.99925" lon="2.3923">
        <ele>115.1</ele>
        <time>2022-11-16T13:24:46Z</time>
      </trkpt>
      <trkpt lat="49.99925" lon="2.3923">
        <ele>115.1</ele>
        <time>2022-11-16T13:24:47Z</time>
      </trkpt>
      <trkpt lat="49.99924" lon="2.3923">
        <ele>115.1</ele>
        <time>2022-11-16T13:24:48Z</time>
      </trkpt>
      <trkpt lat="49.99924" lon="2.3923">
        <ele>115.1</ele>
        <time>2022-11-16T13:24:50Z</time>
      </trkpt>
      <trkpt lat="49.99924" lon="2.3923">
        <ele>115.1</ele>
        <time>2022-11-16T13:24:51Z</time>
      </trkpt>
      <trkpt lat="49.99924" lon="2.39231">
        <ele>115.1</ele>
        <time>2022-11-16T13:24:52Z</time>
      </trkpt>
      <trkpt lat="49.99923" lon="2.39231">
        <ele>115.1</ele>
        <time>2022-11-16T13:24:53Z</time>
      </trkpt>
      <trkpt lat="49.99923" lon="2.39232">
        <ele>115.1</ele>
        <time>2022-11-16T13:24:54Z</time>
      </trkpt>
      <trkpt lat="49.99924" lon="2.39233">
        <ele>115.1</ele>
        <time>2022-11-16T13:24:55Z</time>
      </trkpt>
      <trkpt lat="49.99925" lon="2.39234">
        <ele>115.2</ele>
        <time>2022-11-16T13:24:56Z</time>
      </trkpt>
      <trkpt lat="49.99925" lon="2.39235">
        <ele>115.2</ele>
        <time>2022-11-16T13:24:57Z</time>
      </trkpt>
      <trkpt lat="49.99926" lon="2.39235">
        <ele>115.2</ele>
        <time>2022-11-16T13:24:58Z</time>
      </trkpt>
      <trkpt lat="49.99926" lon="2.39235">
        <ele>115.2</ele>
        <time>2022-11-16T13:24:59Z</time>
      </trkpt>
      <trkpt lat="49.99927" lon="2.39235">
        <ele>115.2</ele>
        <time>2022-11-16T13:25:00Z</time>
      </trkpt>
      <trkpt lat="49.99927" lon="2.39235">
        <ele>115.2</ele>
        <time>2022-11-16T13:25:01Z</time>
      </trkpt>
      <trkpt lat="49.99927" lon="2.39235">
        <ele>115.2</ele>
        <time>2022-11-16T13:25:02Z</time>
      </trkpt>
      <trkpt lat="49.99927" lon="2.39235">
        <ele>115.2</ele>
        <time>2022-11-16T13:25:03Z</time>
      </trkpt>
      <trkpt lat="49.99927" lon="2.39235">
        <ele>115.2</ele>
        <time>2022-11-16T13:25:04Z</time>
      </trkpt>
      <trkpt lat="49.99928" lon="2.39235">
        <ele>115.2</ele>
        <time>2022-11-16T13:25:05Z</time>
      </trkpt>
      <trkpt lat="49.99928" lon="2.39235">
        <ele>115.2</ele>
        <time>2022-11-16T13:25:06Z</time>
      </trkpt>
      <trkpt lat="49.99928" lon="2.39234">
        <ele>115.2</ele>
        <time>2022-11-16T13:25:07Z</time>
      </trkpt>
      <trkpt lat="49.99928" lon="2.39234">
        <ele>115.2</ele>
        <time>2022-11-16T13:25:08Z</time>
      </trkpt>
      <trkpt lat="49.99928" lon="2.39234">
        <ele>115.2</ele>
        <time>2022-11-16T13:25:09Z</time>
      </trkpt>
      <trkpt lat="49.99929" lon="2.39233">
        <ele>115.2</ele>
        <time>2022-11-16T13:25:10Z</time>
      </trkpt>
      <trkpt lat="49.99929" lon="2.39232">
        <ele>115.3</ele>
        <time>2022-11-16T13:25:11Z</time>
      </trkpt>
      <trkpt lat="49.99929" lon="2.39232">
        <ele>115.3</ele>
        <time>2022-11-16T13:25:12Z</time>
      </trkpt>
      <trkpt lat="49.99929" lon="2.39232">
        <ele>115.3</ele>
        <time>2022-11-16T13:25:13Z</time>
      </trkpt>
      <trkpt lat="49.99929" lon="2.39232">
        <ele>115.3</ele>
        <time>2022-11-16T13:25:14Z</time>
      </trkpt>
      <trkpt lat="49.99929" lon="2.39232">
        <ele>115.3</ele>
        <time>2022-11-16T13:25:15Z</time>
      </trkpt>
      <trkpt lat="49.99929" lon="2.39232">
        <ele>115.3</ele>
        <time>2022-11-16T13:25:16Z</time>
      </trkpt>
      <trkpt lat="49.99929" lon="2.39232">
        <ele>115.3</ele>
        <time>2022-11-16T13:25:17Z</time>
      </trkpt>
      <trkpt lat="49.99929" lon="2.39232">
        <ele>115.3</ele>
        <time>2022-11-16T13:25:18Z</time>
      </trkpt>
      <trkpt lat="49.99929" lon="2.39232">
        <ele>115.3</ele>
        <time>2022-11-16T13:25:19Z</time>
      </trkpt>
      <trkpt lat="49.99929" lon="2.39232">
        <ele>115.3</ele>
        <time>2022-11-16T13:25:20Z</time>
      </trkpt>
      <trkpt lat="49.99929" lon="2.39232">
        <ele>115.3</ele>
        <time>2022-11-16T13:25:21Z</time>
      </trkpt>
      <trkpt lat="49.99929" lon="2.39232">
        <ele>115.3</ele>
        <time>2022-11-16T13:25:22Z</time>
      </trkpt>
      <trkpt lat="49.99929" lon="2.39232">
        <ele>115.3</ele>
        <time>2022-11-16T13:25:23Z</time>
      </trkpt>
      <trkpt lat="49.99929" lon="2.39232">
        <ele>115.3</ele>
        <time>2022-11-16T13:25:24Z</time>
      </trkpt>
      <trkpt lat="49.99929" lon="2.39232">
        <ele>115.3</ele>
        <time>2022-11-16T13:25:25Z</time>
      </trkpt>
      <trkpt lat="49.99929" lon="2.39232">
        <ele>115.3</ele>
        <time>2022-11-16T13:25:26Z</time>
      </trkpt>
      <trkpt lat="49.99929" lon="2.39232">
        <ele>115.3</ele>
        <time>2022-11-16T13:25:27Z</time>
      </trkpt>
      <trkpt lat="49.99929" lon="2.39232">
        <ele>115.3</ele>
        <time>2022-11-16T13:25:28Z</time>
      </trkpt>
      <trkpt lat="49.99929" lon="2.39232">
        <ele>115.3</ele>
        <time>2022-11-16T13:25:29Z</time>
      </trkpt>
      <trkpt lat="49.99929" lon="2.39232">
        <ele>115.3</ele>
        <time>2022-11-16T13:25:30Z</time>
      </trkpt>
      <trkpt lat="49.99929" lon="2.39232">
        <ele>115.3</ele>
        <time>2022-11-16T13:25:31Z</time>
      </trkpt>
      <trkpt lat="49.99929" lon="2.39232">
        <ele>115.3</ele>
        <time>2022-11-16T13:25:32Z</time>
      </trkpt>
      <trkpt lat="49.99929" lon="2.39232">
        <ele>115.3</ele>
        <time>2022-11-16T13:25:33Z</time>
      </trkpt>
      <trkpt lat="49.99929" lon="2.39232">
        <ele>115.3</ele>
        <time>2022-11-16T13:25:34Z</time>
      </trkpt>
      <trkpt lat="49.99929" lon="2.39232">
        <ele>115.3</ele>
        <time>2022-11-16T13:25:35Z</time>
      </trkpt>
      <trkpt lat="49.99929" lon="2.39232">
        <ele>115.3</ele>
        <time>2022-11-16T13:25:36Z</time>
      </trkpt>
      <trkpt lat="49.99929" lon="2.39232">
        <ele>115.3</ele>
        <time>2022-11-16T13:25:37Z</time>
      </trkpt>
      <trkpt lat="49.99929" lon="2.39231">
        <ele>115.3</ele>
        <time>2022-11-16T13:25:38Z</time>
      </trkpt>
      <trkpt lat="49.99929" lon="2.39229">
        <ele>115.3</ele>
        <time>2022-11-16T13:25:39Z</time>
      </trkpt>
      <trkpt lat="49.99929" lon="2.39229">
        <ele>115.3</ele>
        <time>2022-11-16T13:25:40Z</time>
      </trkpt>
      <trkpt lat="49.99928" lon="2.39229">
        <ele>115.4</ele>
        <time>2022-11-16T13:25:41Z</time>
      </trkpt>
      <trkpt lat="49.99927" lon="2.3923">
        <ele>115.4</ele>
        <time>2022-11-16T13:25:42Z</time>
      </trkpt>
      <trkpt lat="49.99927" lon="2.3923">
        <ele>115.4</ele>
        <time>2022-11-16T13:25:43Z</time>
      </trkpt>
      <trkpt lat="49.99926" lon="2.3923">
        <ele>115.4</ele>
        <time>2022-11-16T13:25:44Z</time>
      </trkpt>
      <trkpt lat="49.99924" lon="2.3923">
        <ele>115.4</ele>
        <time>2022-11-16T13:25:45Z</time>
      </trkpt>
      <trkpt lat="49.99923" lon="2.39231">
        <ele>115.4</ele>
        <time>2022-11-16T13:25:47Z</time>
      </trkpt>
      <trkpt lat="49.99921" lon="2.3923">
        <ele>115.4</ele>
        <time>2022-11-16T13:25:48Z</time>
      </trkpt>
      <trkpt lat="49.9992" lon="2.3923">
        <ele>115.4</ele>
        <time>2022-11-16T13:25:49Z</time>
      </trkpt>
      <trkpt lat="49.99919" lon="2.3923">
        <ele>115.4</ele>
        <time>2022-11-16T13:25:50Z</time>
      </trkpt>
      <trkpt lat="49.99917" lon="2.39229">
        <ele>115.5</ele>
        <time>2022-11-16T13:25:51Z</time>
      </trkpt>
      <trkpt lat="49.99916" lon="2.3923">
        <ele>115.5</ele>
        <time>2022-11-16T13:25:53Z</time>
      </trkpt>
      <trkpt lat="49.99915" lon="2.3923">
        <ele>115.5</ele>
        <time>2022-11-16T13:25:54Z</time>
      </trkpt>
      <trkpt lat="49.99915" lon="2.3923">
        <ele>115.5</ele>
        <time>2022-11-16T13:25:55Z</time>
      </trkpt>
      <trkpt lat="49.99914" lon="2.3923">
        <ele>115.5</ele>
        <time>2022-11-16T13:25:56Z</time>
      </trkpt>
      <trkpt lat="49.99913" lon="2.3923">
        <ele>115.5</ele>
        <time>2022-11-16T13:25:57Z</time>
      </trkpt>
      <trkpt lat="49.99912" lon="2.39229">
        <ele>115.5</ele>
        <time>2022-11-16T13:25:58Z</time>
      </trkpt>
      <trkpt lat="49.99911" lon="2.39229">
        <ele>115.5</ele>
        <time>2022-11-16T13:25:59Z</time>
      </trkpt>
      <trkpt lat="49.9991" lon="2.39229">
        <ele>115.5</ele>
        <time>2022-11-16T13:26:00Z</time>
      </trkpt>
      <trkpt lat="49.99908" lon="2.39229">
        <ele>115.5</ele>
        <time>2022-11-16T13:26:01Z</time>
      </trkpt>
      <trkpt lat="49.99907" lon="2.39228">
        <ele>115.5</ele>
        <time>2022-11-16T13:26:02Z</time>
      </trkpt>
      <trkpt lat="49.99906" lon="2.39228">
        <ele>115.5</ele>
        <time>2022-11-16T13:26:03Z</time>
      </trkpt>
      <trkpt lat="49.99904" lon="2.39228">
        <ele>115.5</ele>
        <time>2022-11-16T13:26:05Z</time>
      </trkpt>
      <trkpt lat="49.99903" lon="2.39227">
        <ele>115.5</ele>
        <time>2022-11-16T13:26:06Z</time>
      </trkpt>
      <trkpt lat="49.99901" lon="2.39227">
        <ele>115.5</ele>
        <time>2022-11-16T13:26:07Z</time>
      </trkpt>
      <trkpt lat="49.999" lon="2.39227">
        <ele>115.5</ele>
        <time>2022-11-16T13:26:08Z</time>
      </trkpt>
      <trkpt lat="49.99899" lon="2.39227">
        <ele>115.5</ele>
        <time>2022-11-16T13:26:09Z</time>
      </trkpt>
      <trkpt lat="49.99897" lon="2.39227">
        <ele>115.5</ele>
        <time>2022-11-16T13:26:10Z</time>
      </trkpt>
      <trkpt lat="49.99896" lon="2.39227">
        <ele>115.5</ele>
        <time>2022-11-16T13:26:11Z</time>
      </trkpt>
      <trkpt lat="49.99894" lon="2.39226">
        <ele>115.5</ele>
        <time>2022-11-16T13:26:12Z</time>
      </trkpt>
      <trkpt lat="49.99893" lon="2.39226">
        <ele>115.5</ele>
        <time>2022-11-16T13:26:13Z</time>
      </trkpt>
      <trkpt lat="49.99892" lon="2.39226">
        <ele>115.6</ele>
        <time>2022-11-16T13:26:15Z</time>
      </trkpt>
      <trkpt lat="49.99891" lon="2.39227">
        <ele>115.6</ele>
        <time>2022-11-16T13:26:16Z</time>
      </trkpt>
      <trkpt lat="49.9989" lon="2.39227">
        <ele>115.6</ele>
        <time>2022-11-16T13:26:17Z</time>
      </trkpt>
      <trkpt lat="49.99889" lon="2.39227">
        <ele>115.6</ele>
        <time>2022-11-16T13:26:18Z</time>
      </trkpt>
      <trkpt lat="49.99887" lon="2.39226">
        <ele>115.6</ele>
        <time>2022-11-16T13:26:19Z</time>
      </trkpt>
      <trkpt lat="49.99886" lon="2.39226">
        <ele>115.6</ele>
        <time>2022-11-16T13:26:20Z</time>
      </trkpt>
      <trkpt lat="49.99885" lon="2.39226">
        <ele>115.6</ele>
        <time>2022-11-16T13:26:22Z</time>
      </trkpt>
      <trkpt lat="49.99884" lon="2.39226">
        <ele>115.6</ele>
        <time>2022-11-16T13:26:23Z</time>
      </trkpt>
      <trkpt lat="49.99883" lon="2.39226">
        <ele>115.7</ele>
        <time>2022-11-16T13:26:24Z</time>
      </trkpt>
      <trkpt lat="49.99882" lon="2.39226">
        <ele>115.7</ele>
        <time>2022-11-16T13:26:25Z</time>
      </trkpt>
      <trkpt lat="49.99879" lon="2.39225">
        <ele>115.7</ele>
        <time>2022-11-16T13:26:26Z</time>
      </trkpt>
      <trkpt lat="49.99879" lon="2.39225">
        <ele>115.7</ele>
        <time>2022-11-16T13:26:28Z</time>
      </trkpt>
      <trkpt lat="49.99878" lon="2.39225">
        <ele>115.7</ele>
        <time>2022-11-16T13:26:29Z</time>
      </trkpt>
      <trkpt lat="49.99876" lon="2.39226">
        <ele>115.7</ele>
        <time>2022-11-16T13:26:30Z</time>
      </trkpt>
      <trkpt lat="49.99875" lon="2.39226">
        <ele>115.8</ele>
        <time>2022-11-16T13:26:31Z</time>
      </trkpt>
      <trkpt lat="49.99873" lon="2.39226">
        <ele>115.8</ele>
        <time>2022-11-16T13:26:32Z</time>
      </trkpt>
      <trkpt lat="49.99872" lon="2.39226">
        <ele>115.8</ele>
        <time>2022-11-16T13:26:33Z</time>
      </trkpt>
      <trkpt lat="49.99871" lon="2.39226">
        <ele>115.8</ele>
        <time>2022-11-16T13:26:35Z</time>
      </trkpt>
      <trkpt lat="49.9987" lon="2.39226">
        <ele>115.8</ele>
        <time>2022-11-16T13:26:36Z</time>
      </trkpt>
      <trkpt lat="49.99869" lon="2.39226">
        <ele>115.8</ele>
        <time>2022-11-16T13:26:37Z</time>
      </trkpt>
      <trkpt lat="49.99868" lon="2.39226">
        <ele>115.9</ele>
        <time>2022-11-16T13:26:38Z</time>
      </trkpt>
      <trkpt lat="49.99866" lon="2.39226">
        <ele>115.9</ele>
        <time>2022-11-16T13:26:39Z</time>
      </trkpt>
      <trkpt lat="49.99865" lon="2.39226">
        <ele>115.9</ele>
        <time>2022-11-16T13:26:40Z</time>
      </trkpt>
      <trkpt lat="49.99864" lon="2.39226">
        <ele>115.9</ele>
        <time>2022-11-16T13:26:41Z</time>
      </trkpt>
      <trkpt lat="49.99862" lon="2.39226">
        <ele>115.9</ele>
        <time>2022-11-16T13:26:43Z</time>
      </trkpt>
      <trkpt lat="49.99861" lon="2.39226">
        <ele>115.9</ele>
        <time>2022-11-16T13:26:44Z</time>
      </trkpt>
      <trkpt lat="49.9986" lon="2.39226">
        <ele>115.9</ele>
        <time>2022-11-16T13:26:45Z</time>
      </trkpt>
      <trkpt lat="49.99858" lon="2.39226">
        <ele>116</ele>
        <time>2022-11-16T13:26:46Z</time>
      </trkpt>
      <trkpt lat="49.99857" lon="2.39226">
        <ele>116</ele>
        <time>2022-11-16T13:26:47Z</time>
      </trkpt>
      <trkpt lat="49.99857" lon="2.39226">
        <ele>116</ele>
        <time>2022-11-16T13:26:48Z</time>
      </trkpt>
      <trkpt lat="49.99854" lon="2.39226">
        <ele>116</ele>
        <time>2022-11-16T13:26:49Z</time>
      </trkpt>
      <trkpt lat="49.99854" lon="2.39226">
        <ele>116</ele>
        <time>2022-11-16T13:26:50Z</time>
      </trkpt>
      <trkpt lat="49.99853" lon="2.39225">
        <ele>116</ele>
        <time>2022-11-16T13:26:51Z</time>
      </trkpt>
      <trkpt lat="49.99851" lon="2.39225">
        <ele>116</ele>
        <time>2022-11-16T13:26:53Z</time>
      </trkpt>
      <trkpt lat="49.9985" lon="2.39225">
        <ele>116</ele>
        <time>2022-11-16T13:26:54Z</time>
      </trkpt>
      <trkpt lat="49.99849" lon="2.39225">
        <ele>116.1</ele>
        <time>2022-11-16T13:26:55Z</time>
      </trkpt>
      <trkpt lat="49.99847" lon="2.39225">
        <ele>116.1</ele>
        <time>2022-11-16T13:26:56Z</time>
      </trkpt>
      <trkpt lat="49.99845" lon="2.39224">
        <ele>116.1</ele>
        <time>2022-11-16T13:26:57Z</time>
      </trkpt>
      <trkpt lat="49.99844" lon="2.39224">
        <ele>116.1</ele>
        <time>2022-11-16T13:26:58Z</time>
      </trkpt>
      <trkpt lat="49.99844" lon="2.39224">
        <ele>116.1</ele>
        <time>2022-11-16T13:26:59Z</time>
      </trkpt>
      <trkpt lat="49.99842" lon="2.39224">
        <ele>116.1</ele>
        <time>2022-11-16T13:27:00Z</time>
      </trkpt>
      <trkpt lat="49.99841" lon="2.39223">
        <ele>116.2</ele>
        <time>2022-11-16T13:27:02Z</time>
      </trkpt>
      <trkpt lat="49.9984" lon="2.39223">
        <ele>116.2</ele>
        <time>2022-11-16T13:27:03Z</time>
      </trkpt>
      <trkpt lat="49.99839" lon="2.39223">
        <ele>116.2</ele>
        <time>2022-11-16T13:27:04Z</time>
      </trkpt>
      <trkpt lat="49.99838" lon="2.39222">
        <ele>116.2</ele>
        <time>2022-11-16T13:27:05Z</time>
      </trkpt>
      <trkpt lat="49.99837" lon="2.39222">
        <ele>116.2</ele>
        <time>2022-11-16T13:27:06Z</time>
      </trkpt>
      <trkpt lat="49.99836" lon="2.39222">
        <ele>116.2</ele>
        <time>2022-11-16T13:27:07Z</time>
      </trkpt>
      <trkpt lat="49.99835" lon="2.39221">
        <ele>116.3</ele>
        <time>2022-11-16T13:27:08Z</time>
      </trkpt>
      <trkpt lat="49.99834" lon="2.39221">
        <ele>116.3</ele>
        <time>2022-11-16T13:27:09Z</time>
      </trkpt>
      <trkpt lat="49.99832" lon="2.39219">
        <ele>116.3</ele>
        <time>2022-11-16T13:27:11Z</time>
      </trkpt>
      <trkpt lat="49.99831" lon="2.39219">
        <ele>116.3</ele>
        <time>2022-11-16T13:27:12Z</time>
      </trkpt>
      <trkpt lat="49.9983" lon="2.39218">
        <ele>116.4</ele>
        <time>2022-11-16T13:27:13Z</time>
      </trkpt>
      <trkpt lat="49.99828" lon="2.39216">
        <ele>116.4</ele>
        <time>2022-11-16T13:27:14Z</time>
      </trkpt>
      <trkpt lat="49.99828" lon="2.39216">
        <ele>116.4</ele>
        <time>2022-11-16T13:27:15Z</time>
      </trkpt>
      <trkpt lat="49.99827" lon="2.39215">
        <ele>116.4</ele>
        <time>2022-11-16T13:27:16Z</time>
      </trkpt>
      <trkpt lat="49.99826" lon="2.39214">
        <ele>116.5</ele>
        <time>2022-11-16T13:27:17Z</time>
      </trkpt>
      <trkpt lat="49.99824" lon="2.39213">
        <ele>116.5</ele>
        <time>2022-11-16T13:27:19Z</time>
      </trkpt>
      <trkpt lat="49.99823" lon="2.39212">
        <ele>116.5</ele>
        <time>2022-11-16T13:27:20Z</time>
      </trkpt>
      <trkpt lat="49.99822" lon="2.39211">
        <ele>116.6</ele>
        <time>2022-11-16T13:27:21Z</time>
      </trkpt>
      <trkpt lat="49.9982" lon="2.3921">
        <ele>116.6</ele>
        <time>2022-11-16T13:27:22Z</time>
      </trkpt>
      <trkpt lat="49.99819" lon="2.39209">
        <ele>116.6</ele>
        <time>2022-11-16T13:27:23Z</time>
      </trkpt>
      <trkpt lat="49.99818" lon="2.39209">
        <ele>116.6</ele>
        <time>2022-11-16T13:27:24Z</time>
      </trkpt>
      <trkpt lat="49.99816" lon="2.39207">
        <ele>116.7</ele>
        <time>2022-11-16T13:27:25Z</time>
      </trkpt>
      <trkpt lat="49.99816" lon="2.39206">
        <ele>116.7</ele>
        <time>2022-11-16T13:27:27Z</time>
      </trkpt>
      <trkpt lat="49.99815" lon="2.39205">
        <ele>116.7</ele>
        <time>2022-11-16T13:27:28Z</time>
      </trkpt>
      <trkpt lat="49.99813" lon="2.39203">
        <ele>116.8</ele>
        <time>2022-11-16T13:27:29Z</time>
      </trkpt>
      <trkpt lat="49.99813" lon="2.39203">
        <ele>116.8</ele>
        <time>2022-11-16T13:27:30Z</time>
      </trkpt>
      <trkpt lat="49.99812" lon="2.39202">
        <ele>116.8</ele>
        <time>2022-11-16T13:27:31Z</time>
      </trkpt>
      <trkpt lat="49.99811" lon="2.39199">
        <ele>116.8</ele>
        <time>2022-11-16T13:27:32Z</time>
      </trkpt>
      <trkpt lat="49.9981" lon="2.39198">
        <ele>116.8</ele>
        <time>2022-11-16T13:27:33Z</time>
      </trkpt>
      <trkpt lat="49.99809" lon="2.39197">
        <ele>116.9</ele>
        <time>2022-11-16T13:27:34Z</time>
      </trkpt>
      <trkpt lat="49.99809" lon="2.39196">
        <ele>116.9</ele>
        <time>2022-11-16T13:27:35Z</time>
      </trkpt>
      <trkpt lat="49.99807" lon="2.39194">
        <ele>116.9</ele>
        <time>2022-11-16T13:27:37Z</time>
      </trkpt>
      <trkpt lat="49.99807" lon="2.39192">
        <ele>116.9</ele>
        <time>2022-11-16T13:27:38Z</time>
      </trkpt>
      <trkpt lat="49.99805" lon="2.39191">
        <ele>117</ele>
        <time>2022-11-16T13:27:39Z</time>
      </trkpt>
      <trkpt lat="49.99804" lon="2.39188">
        <ele>117</ele>
        <time>2022-11-16T13:27:40Z</time>
      </trkpt>
      <trkpt lat="49.99804" lon="2.39187">
        <ele>117</ele>
        <time>2022-11-16T13:27:41Z</time>
      </trkpt>
      <trkpt lat="49.99803" lon="2.39186">
        <ele>117.1</ele>
        <time>2022-11-16T13:27:42Z</time>
      </trkpt>
      <trkpt lat="49.99802" lon="2.39185">
        <ele>117.1</ele>
        <time>2022-11-16T13:27:43Z</time>
      </trkpt>
      <trkpt lat="49.99802" lon="2.39183">
        <ele>117.1</ele>
        <time>2022-11-16T13:27:44Z</time>
      </trkpt>
      <trkpt lat="49.99802" lon="2.39182">
        <ele>117.1</ele>
        <time>2022-11-16T13:27:46Z</time>
      </trkpt>
      <trkpt lat="49.99801" lon="2.39181">
        <ele>117.1</ele>
        <time>2022-11-16T13:27:47Z</time>
      </trkpt>
      <trkpt lat="49.998" lon="2.39179">
        <ele>117.2</ele>
        <time>2022-11-16T13:27:48Z</time>
      </trkpt>
      <trkpt lat="49.998" lon="2.39178">
        <ele>117.2</ele>
        <time>2022-11-16T13:27:49Z</time>
      </trkpt>
      <trkpt lat="49.99799" lon="2.39177">
        <ele>117.2</ele>
        <time>2022-11-16T13:27:50Z</time>
      </trkpt>
      <trkpt lat="49.99798" lon="2.39175">
        <ele>117.3</ele>
        <time>2022-11-16T13:27:51Z</time>
      </trkpt>
      <trkpt lat="49.99798" lon="2.39174">
        <ele>117.3</ele>
        <time>2022-11-16T13:27:52Z</time>
      </trkpt>
      <trkpt lat="49.99797" lon="2.39173">
        <ele>117.3</ele>
        <time>2022-11-16T13:27:54Z</time>
      </trkpt>
      <trkpt lat="49.99796" lon="2.39172">
        <ele>117.3</ele>
        <time>2022-11-16T13:27:55Z</time>
      </trkpt>
      <trkpt lat="49.99796" lon="2.3917">
        <ele>117.4</ele>
        <time>2022-11-16T13:27:56Z</time>
      </trkpt>
      <trkpt lat="49.99795" lon="2.39169">
        <ele>117.4</ele>
        <time>2022-11-16T13:27:57Z</time>
      </trkpt>
      <trkpt lat="49.99795" lon="2.39167">
        <ele>117.4</ele>
        <time>2022-11-16T13:27:58Z</time>
      </trkpt>
      <trkpt lat="49.99794" lon="2.39166">
        <ele>117.4</ele>
        <time>2022-11-16T13:27:59Z</time>
      </trkpt>
      <trkpt lat="49.99794" lon="2.39165">
        <ele>117.5</ele>
        <time>2022-11-16T13:28:00Z</time>
      </trkpt>
      <trkpt lat="49.99793" lon="2.39163">
        <ele>117.5</ele>
        <time>2022-11-16T13:28:02Z</time>
      </trkpt>
      <trkpt lat="49.99793" lon="2.39162">
        <ele>117.5</ele>
        <time>2022-11-16T13:28:03Z</time>
      </trkpt>
      <trkpt lat="49.99792" lon="2.39161">
        <ele>117.5</ele>
        <time>2022-11-16T13:28:04Z</time>
      </trkpt>
      <trkpt lat="49.99792" lon="2.39159">
        <ele>117.6</ele>
        <time>2022-11-16T13:28:05Z</time>
      </trkpt>
      <trkpt lat="49.99791" lon="2.39157">
        <ele>117.6</ele>
        <time>2022-11-16T13:28:06Z</time>
      </trkpt>
      <trkpt lat="49.9979" lon="2.39155">
        <ele>117.7</ele>
        <time>2022-11-16T13:28:07Z</time>
      </trkpt>
      <trkpt lat="49.99789" lon="2.39153">
        <ele>117.7</ele>
        <time>2022-11-16T13:28:08Z</time>
      </trkpt>
      <trkpt lat="49.99789" lon="2.39152">
        <ele>117.7</ele>
        <time>2022-11-16T13:28:10Z</time>
      </trkpt>
      <trkpt lat="49.99788" lon="2.3915">
        <ele>117.7</ele>
        <time>2022-11-16T13:28:11Z</time>
      </trkpt>
      <trkpt lat="49.99788" lon="2.39149">
        <ele>117.8</ele>
        <time>2022-11-16T13:28:12Z</time>
      </trkpt>
      <trkpt lat="49.99787" lon="2.39148">
        <ele>117.8</ele>
        <time>2022-11-16T13:28:13Z</time>
      </trkpt>
      <trkpt lat="49.99786" lon="2.39145">
        <ele>117.8</ele>
        <time>2022-11-16T13:28:14Z</time>
      </trkpt>
      <trkpt lat="49.99786" lon="2.39144">
        <ele>117.9</ele>
        <time>2022-11-16T13:28:15Z</time>
      </trkpt>
      <trkpt lat="49.99785" lon="2.39143">
        <ele>117.9</ele>
        <time>2022-11-16T13:28:16Z</time>
      </trkpt>
      <trkpt lat="49.99785" lon="2.39141">
        <ele>117.9</ele>
        <time>2022-11-16T13:28:18Z</time>
      </trkpt>
      <trkpt lat="49.99784" lon="2.3914">
        <ele>117.9</ele>
        <time>2022-11-16T13:28:19Z</time>
      </trkpt>
      <trkpt lat="49.99783" lon="2.39138">
        <ele>118</ele>
        <time>2022-11-16T13:28:20Z</time>
      </trkpt>
      <trkpt lat="49.99783" lon="2.39137">
        <ele>118</ele>
        <time>2022-11-16T13:28:21Z</time>
      </trkpt>
      <trkpt lat="49.99782" lon="2.39135">
        <ele>118</ele>
        <time>2022-11-16T13:28:22Z</time>
      </trkpt>
      <trkpt lat="49.99782" lon="2.39134">
        <ele>118.1</ele>
        <time>2022-11-16T13:28:23Z</time>
      </trkpt>
      <trkpt lat="49.99782" lon="2.39132">
        <ele>118.1</ele>
        <time>2022-11-16T13:28:24Z</time>
      </trkpt>
      <trkpt lat="49.99781" lon="2.39131">
        <ele>118.1</ele>
        <time>2022-11-16T13:28:26Z</time>
      </trkpt>
      <trkpt lat="49.9978" lon="2.39129">
        <ele>118.1</ele>
        <time>2022-11-16T13:28:27Z</time>
      </trkpt>
      <trkpt lat="49.9978" lon="2.39128">
        <ele>118.2</ele>
        <time>2022-11-16T13:28:28Z</time>
      </trkpt>
      <trkpt lat="49.99779" lon="2.39126">
        <ele>118.2</ele>
        <time>2022-11-16T13:28:29Z</time>
      </trkpt>
      <trkpt lat="49.99778" lon="2.39124">
        <ele>118.2</ele>
        <time>2022-11-16T13:28:30Z</time>
      </trkpt>
      <trkpt lat="49.99777" lon="2.39123">
        <ele>118.3</ele>
        <time>2022-11-16T13:28:31Z</time>
      </trkpt>
      <trkpt lat="49.99777" lon="2.39122">
        <ele>118.3</ele>
        <time>2022-11-16T13:28:33Z</time>
      </trkpt>
      <trkpt lat="49.99776" lon="2.39121">
        <ele>118.3</ele>
        <time>2022-11-16T13:28:34Z</time>
      </trkpt>
      <trkpt lat="49.99775" lon="2.3912">
        <ele>118.4</ele>
        <time>2022-11-16T13:28:35Z</time>
      </trkpt>
      <trkpt lat="49.99774" lon="2.39119">
        <ele>118.4</ele>
        <time>2022-11-16T13:28:36Z</time>
      </trkpt>
      <trkpt lat="49.99773" lon="2.39117">
        <ele>118.4</ele>
        <time>2022-11-16T13:28:37Z</time>
      </trkpt>
      <trkpt lat="49.99773" lon="2.39116">
        <ele>118.5</ele>
        <time>2022-11-16T13:28:38Z</time>
      </trkpt>
      <trkpt lat="49.99772" lon="2.39115">
        <ele>118.5</ele>
        <time>2022-11-16T13:28:39Z</time>
      </trkpt>
      <trkpt lat="49.99771" lon="2.39113">
        <ele>118.5</ele>
        <time>2022-11-16T13:28:40Z</time>
      </trkpt>
      <trkpt lat="49.9977" lon="2.39112">
        <ele>118.6</ele>
        <time>2022-11-16T13:28:42Z</time>
      </trkpt>
      <trkpt lat="49.99769" lon="2.39111">
        <ele>118.6</ele>
        <time>2022-11-16T13:28:43Z</time>
      </trkpt>
      <trkpt lat="49.99768" lon="2.39109">
        <ele>118.6</ele>
        <time>2022-11-16T13:28:44Z</time>
      </trkpt>
      <trkpt lat="49.99767" lon="2.39108">
        <ele>118.7</ele>
        <time>2022-11-16T13:28:45Z</time>
      </trkpt>
      <trkpt lat="49.99766" lon="2.39106">
        <ele>118.7</ele>
        <time>2022-11-16T13:28:46Z</time>
      </trkpt>
      <trkpt lat="49.99766" lon="2.39105">
        <ele>118.7</ele>
        <time>2022-11-16T13:28:47Z</time>
      </trkpt>
      <trkpt lat="49.99765" lon="2.39103">
        <ele>118.7</ele>
        <time>2022-11-16T13:28:48Z</time>
      </trkpt>
      <trkpt lat="49.99764" lon="2.39102">
        <ele>118.8</ele>
        <time>2022-11-16T13:28:50Z</time>
      </trkpt>
      <trkpt lat="49.99763" lon="2.39101">
        <ele>118.8</ele>
        <time>2022-11-16T13:28:51Z</time>
      </trkpt>
      <trkpt lat="49.99762" lon="2.391">
        <ele>118.8</ele>
        <time>2022-11-16T13:28:52Z</time>
      </trkpt>
      <trkpt lat="49.99761" lon="2.39099">
        <ele>118.8</ele>
        <time>2022-11-16T13:28:53Z</time>
      </trkpt>
      <trkpt lat="49.9976" lon="2.39097">
        <ele>118.9</ele>
        <time>2022-11-16T13:28:54Z</time>
      </trkpt>
      <trkpt lat="49.99759" lon="2.39096">
        <ele>118.9</ele>
        <time>2022-11-16T13:28:55Z</time>
      </trkpt>
      <trkpt lat="49.99758" lon="2.39095">
        <ele>118.9</ele>
        <time>2022-11-16T13:28:56Z</time>
      </trkpt>
      <trkpt lat="49.99757" lon="2.39094">
        <ele>118.9</ele>
        <time>2022-11-16T13:28:58Z</time>
      </trkpt>
      <trkpt lat="49.99756" lon="2.39092">
        <ele>119</ele>
        <time>2022-11-16T13:28:59Z</time>
      </trkpt>
      <trkpt lat="49.99756" lon="2.39091">
        <ele>119</ele>
        <time>2022-11-16T13:29:00Z</time>
      </trkpt>
      <trkpt lat="49.99755" lon="2.3909">
        <ele>119</ele>
        <time>2022-11-16T13:29:01Z</time>
      </trkpt>
      <trkpt lat="49.99753" lon="2.39087">
        <ele>119.1</ele>
        <time>2022-11-16T13:29:02Z</time>
      </trkpt>
      <trkpt lat="49.99752" lon="2.39087">
        <ele>119.1</ele>
        <time>2022-11-16T13:29:03Z</time>
      </trkpt>
      <trkpt lat="49.99752" lon="2.39086">
        <ele>119.1</ele>
        <time>2022-11-16T13:29:04Z</time>
      </trkpt>
      <trkpt lat="49.99751" lon="2.39085">
        <ele>119.1</ele>
        <time>2022-11-16T13:29:06Z</time>
      </trkpt>
      <trkpt lat="49.9975" lon="2.39084">
        <ele>119.1</ele>
        <time>2022-11-16T13:29:07Z</time>
      </trkpt>
      <trkpt lat="49.9975" lon="2.39082">
        <ele>119.2</ele>
        <time>2022-11-16T13:29:08Z</time>
      </trkpt>
      <trkpt lat="49.99748" lon="2.3908">
        <ele>119.2</ele>
        <time>2022-11-16T13:29:09Z</time>
      </trkpt>
      <trkpt lat="49.99747" lon="2.39079">
        <ele>119.2</ele>
        <time>2022-11-16T13:29:10Z</time>
      </trkpt>
      <trkpt lat="49.99747" lon="2.39078">
        <ele>119.2</ele>
        <time>2022-11-16T13:29:11Z</time>
      </trkpt>
      <trkpt lat="49.99746" lon="2.39077">
        <ele>119.2</ele>
        <time>2022-11-16T13:29:12Z</time>
      </trkpt>
      <trkpt lat="49.99745" lon="2.39076">
        <ele>119.3</ele>
        <time>2022-11-16T13:29:14Z</time>
      </trkpt>
      <trkpt lat="49.99745" lon="2.39074">
        <ele>119.3</ele>
        <time>2022-11-16T13:29:15Z</time>
      </trkpt>
      <trkpt lat="49.99743" lon="2.39072">
        <ele>119.3</ele>
        <time>2022-11-16T13:29:16Z</time>
      </trkpt>
      <trkpt lat="49.99742" lon="2.39071">
        <ele>119.3</ele>
        <time>2022-11-16T13:29:17Z</time>
      </trkpt>
      <trkpt lat="49.99742" lon="2.3907">
        <ele>119.3</ele>
        <time>2022-11-16T13:29:18Z</time>
      </trkpt>
      <trkpt lat="49.99741" lon="2.39068">
        <ele>119.4</ele>
        <time>2022-11-16T13:29:19Z</time>
      </trkpt>
      <trkpt lat="49.9974" lon="2.39067">
        <ele>119.4</ele>
        <time>2022-11-16T13:29:20Z</time>
      </trkpt>
      <trkpt lat="49.99739" lon="2.39066">
        <ele>119.4</ele>
        <time>2022-11-16T13:29:22Z</time>
      </trkpt>
      <trkpt lat="49.99739" lon="2.39065">
        <ele>119.4</ele>
        <time>2022-11-16T13:29:23Z</time>
      </trkpt>
      <trkpt lat="49.99738" lon="2.39064">
        <ele>119.4</ele>
        <time>2022-11-16T13:29:24Z</time>
      </trkpt>
      <trkpt lat="49.99737" lon="2.39063">
        <ele>119.4</ele>
        <time>2022-11-16T13:29:25Z</time>
      </trkpt>
      <trkpt lat="49.99737" lon="2.39061">
        <ele>119.4</ele>
        <time>2022-11-16T13:29:26Z</time>
      </trkpt>
      <trkpt lat="49.99736" lon="2.3906">
        <ele>119.4</ele>
        <time>2022-11-16T13:29:27Z</time>
      </trkpt>
      <trkpt lat="49.99736" lon="2.39059">
        <ele>119.4</ele>
        <time>2022-11-16T13:29:29Z</time>
      </trkpt>
      <trkpt lat="49.99735" lon="2.39058">
        <ele>119.4</ele>
        <time>2022-11-16T13:29:30Z</time>
      </trkpt>
      <trkpt lat="49.99734" lon="2.39057">
        <ele>119.4</ele>
        <time>2022-11-16T13:29:31Z</time>
      </trkpt>
      <trkpt lat="49.99733" lon="2.39055">
        <ele>119.4</ele>
        <time>2022-11-16T13:29:32Z</time>
      </trkpt>
      <trkpt lat="49.99733" lon="2.39054">
        <ele>119.4</ele>
        <time>2022-11-16T13:29:33Z</time>
      </trkpt>
      <trkpt lat="49.99732" lon="2.39053">
        <ele>119.5</ele>
        <time>2022-11-16T13:29:34Z</time>
      </trkpt>
      <trkpt lat="49.99731" lon="2.39052">
        <ele>119.5</ele>
        <time>2022-11-16T13:29:35Z</time>
      </trkpt>
      <trkpt lat="49.9973" lon="2.39051">
        <ele>119.5</ele>
        <time>2022-11-16T13:29:36Z</time>
      </trkpt>
      <trkpt lat="49.99729" lon="2.3905">
        <ele>119.5</ele>
        <time>2022-11-16T13:29:38Z</time>
      </trkpt>
      <trkpt lat="49.99729" lon="2.39048">
        <ele>119.5</ele>
        <time>2022-11-16T13:29:39Z</time>
      </trkpt>
      <trkpt lat="49.99727" lon="2.39046">
        <ele>119.5</ele>
        <time>2022-11-16T13:29:40Z</time>
      </trkpt>
      <trkpt lat="49.99726" lon="2.39045">
        <ele>119.5</ele>
        <time>2022-11-16T13:29:41Z</time>
      </trkpt>
      <trkpt lat="49.99726" lon="2.39044">
        <ele>119.5</ele>
        <time>2022-11-16T13:29:42Z</time>
      </trkpt>
      <trkpt lat="49.99725" lon="2.39043">
        <ele>119.5</ele>
        <time>2022-11-16T13:29:43Z</time>
      </trkpt>
      <trkpt lat="49.99724" lon="2.39041">
        <ele>119.5</ele>
        <time>2022-11-16T13:29:44Z</time>
      </trkpt>
      <trkpt lat="49.99723" lon="2.3904">
        <ele>119.5</ele>
        <time>2022-11-16T13:29:45Z</time>
      </trkpt>
      <trkpt lat="49.99723" lon="2.39038">
        <ele>119.5</ele>
        <time>2022-11-16T13:29:47Z</time>
      </trkpt>
      <trkpt lat="49.99722" lon="2.39037">
        <ele>119.5</ele>
        <time>2022-11-16T13:29:48Z</time>
      </trkpt>
      <trkpt lat="49.99721" lon="2.39036">
        <ele>119.5</ele>
        <time>2022-11-16T13:29:49Z</time>
      </trkpt>
      <trkpt lat="49.9972" lon="2.39035">
        <ele>119.5</ele>
        <time>2022-11-16T13:29:50Z</time>
      </trkpt>
      <trkpt lat="49.9972" lon="2.39034">
        <ele>119.6</ele>
        <time>2022-11-16T13:29:51Z</time>
      </trkpt>
      <trkpt lat="49.99719" lon="2.39033">
        <ele>119.6</ele>
        <time>2022-11-16T13:29:52Z</time>
      </trkpt>
      <trkpt lat="49.99718" lon="2.39032">
        <ele>119.6</ele>
        <time>2022-11-16T13:29:53Z</time>
      </trkpt>
      <trkpt lat="49.99718" lon="2.39031">
        <ele>119.6</ele>
        <time>2022-11-16T13:29:55Z</time>
      </trkpt>
      <trkpt lat="49.99717" lon="2.3903">
        <ele>119.6</ele>
        <time>2022-11-16T13:29:56Z</time>
      </trkpt>
      <trkpt lat="49.99716" lon="2.39029">
        <ele>119.6</ele>
        <time>2022-11-16T13:29:57Z</time>
      </trkpt>
      <trkpt lat="49.99715" lon="2.39027">
        <ele>119.6</ele>
        <time>2022-11-16T13:29:58Z</time>
      </trkpt>
      <trkpt lat="49.99715" lon="2.39026">
        <ele>119.6</ele>
        <time>2022-11-16T13:29:59Z</time>
      </trkpt>
      <trkpt lat="49.99714" lon="2.39024">
        <ele>119.6</ele>
        <time>2022-11-16T13:30:00Z</time>
      </trkpt>
      <trkpt lat="49.99713" lon="2.39023">
        <ele>119.6</ele>
        <time>2022-11-16T13:30:01Z</time>
      </trkpt>
      <trkpt lat="49.99712" lon="2.39022">
        <ele>119.6</ele>
        <time>2022-11-16T13:30:02Z</time>
      </trkpt>
      <trkpt lat="49.99711" lon="2.39021">
        <ele>119.6</ele>
        <time>2022-11-16T13:30:03Z</time>
      </trkpt>
      <trkpt lat="49.99711" lon="2.3902">
        <ele>119.6</ele>
        <time>2022-11-16T13:30:05Z</time>
      </trkpt>
      <trkpt lat="49.9971" lon="2.39018">
        <ele>119.6</ele>
        <time>2022-11-16T13:30:06Z</time>
      </trkpt>
      <trkpt lat="49.99708" lon="2.39016">
        <ele>119.6</ele>
        <time>2022-11-16T13:30:07Z</time>
      </trkpt>
      <trkpt lat="49.99707" lon="2.39016">
        <ele>119.6</ele>
        <time>2022-11-16T13:30:08Z</time>
      </trkpt>
      <trkpt lat="49.99707" lon="2.39015">
        <ele>119.6</ele>
        <time>2022-11-16T13:30:09Z</time>
      </trkpt>
      <trkpt lat="49.99706" lon="2.39013">
        <ele>119.6</ele>
        <time>2022-11-16T13:30:10Z</time>
      </trkpt>
      <trkpt lat="49.99705" lon="2.39012">
        <ele>119.6</ele>
        <time>2022-11-16T13:30:11Z</time>
      </trkpt>
      <trkpt lat="49.99704" lon="2.39011">
        <ele>119.5</ele>
        <time>2022-11-16T13:30:12Z</time>
      </trkpt>
      <trkpt lat="49.99703" lon="2.3901">
        <ele>119.5</ele>
        <time>2022-11-16T13:30:14Z</time>
      </trkpt>
      <trkpt lat="49.99702" lon="2.39009">
        <ele>119.5</ele>
        <time>2022-11-16T13:30:15Z</time>
      </trkpt>
      <trkpt lat="49.99701" lon="2.39008">
        <ele>119.5</ele>
        <time>2022-11-16T13:30:16Z</time>
      </trkpt>
      <trkpt lat="49.99699" lon="2.39006">
        <ele>119.5</ele>
        <time>2022-11-16T13:30:17Z</time>
      </trkpt>
      <trkpt lat="49.99699" lon="2.39005">
        <ele>119.5</ele>
        <time>2022-11-16T13:30:18Z</time>
      </trkpt>
      <trkpt lat="49.99698" lon="2.39004">
        <ele>119.5</ele>
        <time>2022-11-16T13:30:19Z</time>
      </trkpt>
      <trkpt lat="49.99696" lon="2.39002">
        <ele>119.5</ele>
        <time>2022-11-16T13:30:20Z</time>
      </trkpt>
      <trkpt lat="49.99696" lon="2.39002">
        <ele>119.5</ele>
        <time>2022-11-16T13:30:22Z</time>
      </trkpt>
      <trkpt lat="49.99695" lon="2.39001">
        <ele>119.5</ele>
        <time>2022-11-16T13:30:23Z</time>
      </trkpt>
      <trkpt lat="49.99694" lon="2.39">
        <ele>119.5</ele>
        <time>2022-11-16T13:30:24Z</time>
      </trkpt>
      <trkpt lat="49.99693" lon="2.38999">
        <ele>119.5</ele>
        <time>2022-11-16T13:30:25Z</time>
      </trkpt>
      <trkpt lat="49.99692" lon="2.38998">
        <ele>119.5</ele>
        <time>2022-11-16T13:30:26Z</time>
      </trkpt>
      <trkpt lat="49.99691" lon="2.38997">
        <ele>119.4</ele>
        <time>2022-11-16T13:30:27Z</time>
      </trkpt>
      <trkpt lat="49.9969" lon="2.38995">
        <ele>119.4</ele>
        <time>2022-11-16T13:30:28Z</time>
      </trkpt>
      <trkpt lat="49.99689" lon="2.38994">
        <ele>119.4</ele>
        <time>2022-11-16T13:30:29Z</time>
      </trkpt>
      <trkpt lat="49.99688" lon="2.38993">
        <ele>119.4</ele>
        <time>2022-11-16T13:30:30Z</time>
      </trkpt>
      <trkpt lat="49.99687" lon="2.38991">
        <ele>119.4</ele>
        <time>2022-11-16T13:30:31Z</time>
      </trkpt>
      <trkpt lat="49.99686" lon="2.38989">
        <ele>119.4</ele>
        <time>2022-11-16T13:30:33Z</time>
      </trkpt>
      <trkpt lat="49.99685" lon="2.38988">
        <ele>119.4</ele>
        <time>2022-11-16T13:30:34Z</time>
      </trkpt>
      <trkpt lat="49.99684" lon="2.38988">
        <ele>119.4</ele>
        <time>2022-11-16T13:30:35Z</time>
      </trkpt>
      <trkpt lat="49.99682" lon="2.38986">
        <ele>119.3</ele>
        <time>2022-11-16T13:30:36Z</time>
      </trkpt>
      <trkpt lat="49.99681" lon="2.38985">
        <ele>119.3</ele>
        <time>2022-11-16T13:30:37Z</time>
      </trkpt>
      <trkpt lat="49.99681" lon="2.38984">
        <ele>119.3</ele>
        <time>2022-11-16T13:30:38Z</time>
      </trkpt>
      <trkpt lat="49.9968" lon="2.38983">
        <ele>119.3</ele>
        <time>2022-11-16T13:30:39Z</time>
      </trkpt>
      <trkpt lat="49.99679" lon="2.38982">
        <ele>119.3</ele>
        <time>2022-11-16T13:30:40Z</time>
      </trkpt>
      <trkpt lat="49.99678" lon="2.38981">
        <ele>119.3</ele>
        <time>2022-11-16T13:30:41Z</time>
      </trkpt>
      <trkpt lat="49.99676" lon="2.38979">
        <ele>119.3</ele>
        <time>2022-11-16T13:30:43Z</time>
      </trkpt>
      <trkpt lat="49.99675" lon="2.38979">
        <ele>119.3</ele>
        <time>2022-11-16T13:30:44Z</time>
      </trkpt>
      <trkpt lat="49.99675" lon="2.38978">
        <ele>119.3</ele>
        <time>2022-11-16T13:30:45Z</time>
      </trkpt>
      <trkpt lat="49.99673" lon="2.38977">
        <ele>119.3</ele>
        <time>2022-11-16T13:30:46Z</time>
      </trkpt>
      <trkpt lat="49.99672" lon="2.38977">
        <ele>119.3</ele>
        <time>2022-11-16T13:30:47Z</time>
      </trkpt>
      <trkpt lat="49.99672" lon="2.38976">
        <ele>119.3</ele>
        <time>2022-11-16T13:30:48Z</time>
      </trkpt>
      <trkpt lat="49.99671" lon="2.38975">
        <ele>119.3</ele>
        <time>2022-11-16T13:30:49Z</time>
      </trkpt>
      <trkpt lat="49.9967" lon="2.38974">
        <ele>119.3</ele>
        <time>2022-11-16T13:30:50Z</time>
      </trkpt>
      <trkpt lat="49.99669" lon="2.38973">
        <ele>119.3</ele>
        <time>2022-11-16T13:30:51Z</time>
      </trkpt>
      <trkpt lat="49.99668" lon="2.38972">
        <ele>119.3</ele>
        <time>2022-11-16T13:30:53Z</time>
      </trkpt>
      <trkpt lat="49.99666" lon="2.38971">
        <ele>119.3</ele>
        <time>2022-11-16T13:30:54Z</time>
      </trkpt>
      <trkpt lat="49.99666" lon="2.3897">
        <ele>119.2</ele>
        <time>2022-11-16T13:30:55Z</time>
      </trkpt>
      <trkpt lat="49.99665" lon="2.3897">
        <ele>119.2</ele>
        <time>2022-11-16T13:30:56Z</time>
      </trkpt>
      <trkpt lat="49.99664" lon="2.38969">
        <ele>119.2</ele>
        <time>2022-11-16T13:30:57Z</time>
      </trkpt>
      <trkpt lat="49.99663" lon="2.38968">
        <ele>119.2</ele>
        <time>2022-11-16T13:30:58Z</time>
      </trkpt>
      <trkpt lat="49.99662" lon="2.38967">
        <ele>119.2</ele>
        <time>2022-11-16T13:30:59Z</time>
      </trkpt>
      <trkpt lat="49.99661" lon="2.38966">
        <ele>119.2</ele>
        <time>2022-11-16T13:31:01Z</time>
      </trkpt>
      <trkpt lat="49.9966" lon="2.38965">
        <ele>119.2</ele>
        <time>2022-11-16T13:31:02Z</time>
      </trkpt>
      <trkpt lat="49.99659" lon="2.38964">
        <ele>119.2</ele>
        <time>2022-11-16T13:31:03Z</time>
      </trkpt>
      <trkpt lat="49.99657" lon="2.38963">
        <ele>119.2</ele>
        <time>2022-11-16T13:31:04Z</time>
      </trkpt>
      <trkpt lat="49.99656" lon="2.38962">
        <ele>119.1</ele>
        <time>2022-11-16T13:31:05Z</time>
      </trkpt>
      <trkpt lat="49.99656" lon="2.38961">
        <ele>119.1</ele>
        <time>2022-11-16T13:31:06Z</time>
      </trkpt>
      <trkpt lat="49.99654" lon="2.3896">
        <ele>119.1</ele>
        <time>2022-11-16T13:31:07Z</time>
      </trkpt>
      <trkpt lat="49.99653" lon="2.38959">
        <ele>119.1</ele>
        <time>2022-11-16T13:31:09Z</time>
      </trkpt>
      <trkpt lat="49.99652" lon="2.38958">
        <ele>119.1</ele>
        <time>2022-11-16T13:31:10Z</time>
      </trkpt>
      <trkpt lat="49.9965" lon="2.38956">
        <ele>119.1</ele>
        <time>2022-11-16T13:31:11Z</time>
      </trkpt>
      <trkpt lat="49.9965" lon="2.38955">
        <ele>119</ele>
        <time>2022-11-16T13:31:12Z</time>
      </trkpt>
      <trkpt lat="49.99649" lon="2.38954">
        <ele>119</ele>
        <time>2022-11-16T13:31:13Z</time>
      </trkpt>
      <trkpt lat="49.99648" lon="2.38953">
        <ele>119</ele>
        <time>2022-11-16T13:31:14Z</time>
      </trkpt>
      <trkpt lat="49.99647" lon="2.38951">
        <ele>119</ele>
        <time>2022-11-16T13:31:15Z</time>
      </trkpt>
      <trkpt lat="49.99645" lon="2.38949">
        <ele>119</ele>
        <time>2022-11-16T13:31:16Z</time>
      </trkpt>
      <trkpt lat="49.99644" lon="2.38948">
        <ele>118.9</ele>
        <time>2022-11-16T13:31:17Z</time>
      </trkpt>
      <trkpt lat="49.99644" lon="2.38947">
        <ele>118.9</ele>
        <time>2022-11-16T13:31:19Z</time>
      </trkpt>
      <trkpt lat="49.99643" lon="2.38946">
        <ele>118.9</ele>
        <time>2022-11-16T13:31:20Z</time>
      </trkpt>
      <trkpt lat="49.99642" lon="2.38945">
        <ele>118.9</ele>
        <time>2022-11-16T13:31:21Z</time>
      </trkpt>
      <trkpt lat="49.99641" lon="2.38944">
        <ele>118.9</ele>
        <time>2022-11-16T13:31:22Z</time>
      </trkpt>
      <trkpt lat="49.9964" lon="2.38943">
        <ele>118.9</ele>
        <time>2022-11-16T13:31:23Z</time>
      </trkpt>
      <trkpt lat="49.99639" lon="2.38942">
        <ele>118.9</ele>
        <time>2022-11-16T13:31:24Z</time>
      </trkpt>
      <trkpt lat="49.99638" lon="2.38941">
        <ele>118.9</ele>
        <time>2022-11-16T13:31:25Z</time>
      </trkpt>
      <trkpt lat="49.99637" lon="2.38941">
        <ele>118.9</ele>
        <time>2022-11-16T13:31:26Z</time>
      </trkpt>
      <trkpt lat="49.99636" lon="2.3894">
        <ele>118.8</ele>
        <time>2022-11-16T13:31:28Z</time>
      </trkpt>
      <trkpt lat="49.99636" lon="2.38939">
        <ele>118.8</ele>
        <time>2022-11-16T13:31:29Z</time>
      </trkpt>
      <trkpt lat="49.99634" lon="2.38937">
        <ele>118.8</ele>
        <time>2022-11-16T13:31:30Z</time>
      </trkpt>
      <trkpt lat="49.99633" lon="2.38936">
        <ele>118.8</ele>
        <time>2022-11-16T13:31:31Z</time>
      </trkpt>
      <trkpt lat="49.99633" lon="2.38935">
        <ele>118.8</ele>
        <time>2022-11-16T13:31:32Z</time>
      </trkpt>
      <trkpt lat="49.99631" lon="2.38933">
        <ele>118.8</ele>
        <time>2022-11-16T13:31:33Z</time>
      </trkpt>
      <trkpt lat="49.9963" lon="2.38933">
        <ele>118.8</ele>
        <time>2022-11-16T13:31:34Z</time>
      </trkpt>
      <trkpt lat="49.9963" lon="2.38932">
        <ele>118.8</ele>
        <time>2022-11-16T13:31:35Z</time>
      </trkpt>
      <trkpt lat="49.99628" lon="2.3893">
        <ele>118.8</ele>
        <time>2022-11-16T13:31:36Z</time>
      </trkpt>
      <trkpt lat="49.99627" lon="2.38929">
        <ele>118.8</ele>
        <time>2022-11-16T13:31:38Z</time>
      </trkpt>
      <trkpt lat="49.99627" lon="2.38928">
        <ele>118.8</ele>
        <time>2022-11-16T13:31:39Z</time>
      </trkpt>
      <trkpt lat="49.99625" lon="2.38926">
        <ele>118.8</ele>
        <time>2022-11-16T13:31:40Z</time>
      </trkpt>
      <trkpt lat="49.99624" lon="2.38926">
        <ele>118.8</ele>
        <time>2022-11-16T13:31:41Z</time>
      </trkpt>
      <trkpt lat="49.99623" lon="2.38925">
        <ele>118.7</ele>
        <time>2022-11-16T13:31:42Z</time>
      </trkpt>
      <trkpt lat="49.99623" lon="2.38924">
        <ele>118.7</ele>
        <time>2022-11-16T13:31:43Z</time>
      </trkpt>
      <trkpt lat="49.99622" lon="2.38922">
        <ele>118.7</ele>
        <time>2022-11-16T13:31:44Z</time>
      </trkpt>
      <trkpt lat="49.99621" lon="2.38921">
        <ele>118.7</ele>
        <time>2022-11-16T13:31:45Z</time>
      </trkpt>
      <trkpt lat="49.9962" lon="2.3892">
        <ele>118.7</ele>
        <time>2022-11-16T13:31:46Z</time>
      </trkpt>
      <trkpt lat="49.99619" lon="2.38919">
        <ele>118.7</ele>
        <time>2022-11-16T13:31:48Z</time>
      </trkpt>
      <trkpt lat="49.99618" lon="2.38917">
        <ele>118.7</ele>
        <time>2022-11-16T13:31:49Z</time>
      </trkpt>
      <trkpt lat="49.99617" lon="2.38915">
        <ele>118.7</ele>
        <time>2022-11-16T13:31:50Z</time>
      </trkpt>
      <trkpt lat="49.99616" lon="2.38914">
        <ele>118.7</ele>
        <time>2022-11-16T13:31:51Z</time>
      </trkpt>
      <trkpt lat="49.99615" lon="2.38913">
        <ele>118.7</ele>
        <time>2022-11-16T13:31:52Z</time>
      </trkpt>
      <trkpt lat="49.99614" lon="2.38912">
        <ele>118.7</ele>
        <time>2022-11-16T13:31:53Z</time>
      </trkpt>
      <trkpt lat="49.99613" lon="2.38911">
        <ele>118.7</ele>
        <time>2022-11-16T13:31:54Z</time>
      </trkpt>
      <trkpt lat="49.99613" lon="2.3891">
        <ele>118.7</ele>
        <time>2022-11-16T13:31:56Z</time>
      </trkpt>
      <trkpt lat="49.99612" lon="2.38909">
        <ele>118.7</ele>
        <time>2022-11-16T13:31:57Z</time>
      </trkpt>
      <trkpt lat="49.99612" lon="2.38908">
        <ele>118.7</ele>
        <time>2022-11-16T13:31:58Z</time>
      </trkpt>
      <trkpt lat="49.99611" lon="2.38906">
        <ele>118.7</ele>
        <time>2022-11-16T13:31:59Z</time>
      </trkpt>
      <trkpt lat="49.9961" lon="2.38905">
        <ele>118.7</ele>
        <time>2022-11-16T13:32:01Z</time>
      </trkpt>
      <trkpt lat="49.99609" lon="2.38904">
        <ele>118.7</ele>
        <time>2022-11-16T13:32:02Z</time>
      </trkpt>
      <trkpt lat="49.99609" lon="2.38903">
        <ele>118.6</ele>
        <time>2022-11-16T13:32:03Z</time>
      </trkpt>
      <trkpt lat="49.99608" lon="2.38902">
        <ele>118.6</ele>
        <time>2022-11-16T13:32:05Z</time>
      </trkpt>
      <trkpt lat="49.99607" lon="2.38902">
        <ele>118.6</ele>
        <time>2022-11-16T13:32:06Z</time>
      </trkpt>
      <trkpt lat="49.99606" lon="2.38902">
        <ele>118.6</ele>
        <time>2022-11-16T13:32:07Z</time>
      </trkpt>
      <trkpt lat="49.99606" lon="2.38902">
        <ele>118.6</ele>
        <time>2022-11-16T13:32:08Z</time>
      </trkpt>
      <trkpt lat="49.99605" lon="2.38902">
        <ele>118.6</ele>
        <time>2022-11-16T13:32:09Z</time>
      </trkpt>
      <trkpt lat="49.99605" lon="2.38903">
        <ele>118.6</ele>
        <time>2022-11-16T13:32:10Z</time>
      </trkpt>
      <trkpt lat="49.99605" lon="2.38903">
        <ele>118.6</ele>
        <time>2022-11-16T13:32:11Z</time>
      </trkpt>
      <trkpt lat="49.99605" lon="2.38904">
        <ele>118.6</ele>
        <time>2022-11-16T13:32:12Z</time>
      </trkpt>
      <trkpt lat="49.99605" lon="2.38904">
        <ele>118.6</ele>
        <time>2022-11-16T13:32:13Z</time>
      </trkpt>
      <trkpt lat="49.99605" lon="2.38904">
        <ele>118.6</ele>
        <time>2022-11-16T13:32:14Z</time>
      </trkpt>
      <trkpt lat="49.99605" lon="2.38905">
        <ele>118.6</ele>
        <time>2022-11-16T13:32:15Z</time>
      </trkpt>
      <trkpt lat="49.99605" lon="2.38905">
        <ele>118.6</ele>
        <time>2022-11-16T13:32:16Z</time>
      </trkpt>
      <trkpt lat="49.99605" lon="2.38906">
        <ele>118.6</ele>
        <time>2022-11-16T13:32:17Z</time>
      </trkpt>
      <trkpt lat="49.99605" lon="2.38906">
        <ele>118.6</ele>
        <time>2022-11-16T13:32:18Z</time>
      </trkpt>
      <trkpt lat="49.99605" lon="2.38906">
        <ele>118.6</ele>
        <time>2022-11-16T13:32:19Z</time>
      </trkpt>
      <trkpt lat="49.99605" lon="2.38906">
        <ele>118.6</ele>
        <time>2022-11-16T13:32:20Z</time>
      </trkpt>
      <trkpt lat="49.99605" lon="2.38906">
        <ele>118.6</ele>
        <time>2022-11-16T13:32:21Z</time>
      </trkpt>
      <trkpt lat="49.99606" lon="2.38906">
        <ele>118.6</ele>
        <time>2022-11-16T13:32:22Z</time>
      </trkpt>
      <trkpt lat="49.99606" lon="2.38906">
        <ele>118.6</ele>
        <time>2022-11-16T13:32:23Z</time>
      </trkpt>
      <trkpt lat="49.99606" lon="2.38906">
        <ele>118.6</ele>
        <time>2022-11-16T13:32:24Z</time>
      </trkpt>
      <trkpt lat="49.99606" lon="2.38906">
        <ele>118.6</ele>
        <time>2022-11-16T13:32:25Z</time>
      </trkpt>
      <trkpt lat="49.99606" lon="2.38906">
        <ele>118.6</ele>
        <time>2022-11-16T13:32:26Z</time>
      </trkpt>
      <trkpt lat="49.99606" lon="2.38906">
        <ele>118.6</ele>
        <time>2022-11-16T13:32:27Z</time>
      </trkpt>
      <trkpt lat="49.99606" lon="2.38906">
        <ele>118.6</ele>
        <time>2022-11-16T13:32:28Z</time>
      </trkpt>
      <trkpt lat="49.99606" lon="2.38906">
        <ele>118.6</ele>
        <time>2022-11-16T13:32:29Z</time>
      </trkpt>
      <trkpt lat="49.99606" lon="2.38906">
        <ele>118.6</ele>
        <time>2022-11-16T13:32:30Z</time>
      </trkpt>
      <trkpt lat="49.99606" lon="2.38906">
        <ele>118.6</ele>
        <time>2022-11-16T13:32:31Z</time>
      </trkpt>
      <trkpt lat="49.99606" lon="2.38906">
        <ele>118.6</ele>
        <time>2022-11-16T13:32:32Z</time>
      </trkpt>
      <trkpt lat="49.99606" lon="2.38906">
        <ele>118.6</ele>
        <time>2022-11-16T13:32:33Z</time>
      </trkpt>
      <trkpt lat="49.99608" lon="2.38905">
        <ele>118.5</ele>
        <time>2022-11-16T13:32:34Z</time>
      </trkpt>
      <trkpt lat="49.99609" lon="2.38904">
        <ele>118.5</ele>
        <time>2022-11-16T13:32:35Z</time>
      </trkpt>
      <trkpt lat="49.99609" lon="2.38904">
        <ele>118.5</ele>
        <time>2022-11-16T13:32:36Z</time>
      </trkpt>
      <trkpt lat="49.99608" lon="2.38903">
        <ele>118.5</ele>
        <time>2022-11-16T13:32:37Z</time>
      </trkpt>
      <trkpt lat="49.99608" lon="2.38902">
        <ele>118.5</ele>
        <time>2022-11-16T13:32:38Z</time>
      </trkpt>
      <trkpt lat="49.99607" lon="2.389">
        <ele>118.5</ele>
        <time>2022-11-16T13:32:39Z</time>
      </trkpt>
      <trkpt lat="49.99607" lon="2.38899">
        <ele>118.5</ele>
        <time>2022-11-16T13:32:40Z</time>
      </trkpt>
      <trkpt lat="49.99606" lon="2.38898">
        <ele>118.5</ele>
        <time>2022-11-16T13:32:41Z</time>
      </trkpt>
      <trkpt lat="49.99605" lon="2.38896">
        <ele>118.5</ele>
        <time>2022-11-16T13:32:42Z</time>
      </trkpt>
      <trkpt lat="49.99604" lon="2.38894">
        <ele>118.5</ele>
        <time>2022-11-16T13:32:44Z</time>
      </trkpt>
      <trkpt lat="49.99603" lon="2.38892">
        <ele>118.5</ele>
        <time>2022-11-16T13:32:45Z</time>
      </trkpt>
      <trkpt lat="49.99602" lon="2.3889">
        <ele>118.4</ele>
        <time>2022-11-16T13:32:46Z</time>
      </trkpt>
      <trkpt lat="49.99601" lon="2.38889">
        <ele>118.4</ele>
        <time>2022-11-16T13:32:47Z</time>
      </trkpt>
      <trkpt lat="49.99601" lon="2.38888">
        <ele>118.4</ele>
        <time>2022-11-16T13:32:48Z</time>
      </trkpt>
      <trkpt lat="49.99599" lon="2.38885">
        <ele>118.4</ele>
        <time>2022-11-16T13:32:49Z</time>
      </trkpt>
      <trkpt lat="49.99599" lon="2.38884">
        <ele>118.4</ele>
        <time>2022-11-16T13:32:51Z</time>
      </trkpt>
      <trkpt lat="49.99598" lon="2.38883">
        <ele>118.4</ele>
        <time>2022-11-16T13:32:52Z</time>
      </trkpt>
      <trkpt lat="49.99597" lon="2.38882">
        <ele>118.4</ele>
        <time>2022-11-16T13:32:53Z</time>
      </trkpt>
      <trkpt lat="49.99596" lon="2.38881">
        <ele>118.4</ele>
        <time>2022-11-16T13:32:54Z</time>
      </trkpt>
      <trkpt lat="49.99595" lon="2.38879">
        <ele>118.4</ele>
        <time>2022-11-16T13:32:55Z</time>
      </trkpt>
      <trkpt lat="49.99594" lon="2.38878">
        <ele>118.4</ele>
        <time>2022-11-16T13:32:56Z</time>
      </trkpt>
      <trkpt lat="49.99593" lon="2.38877">
        <ele>118.4</ele>
        <time>2022-11-16T13:32:57Z</time>
      </trkpt>
      <trkpt lat="49.99592" lon="2.38875">
        <ele>118.4</ele>
        <time>2022-11-16T13:32:58Z</time>
      </trkpt>
      <trkpt lat="49.99591" lon="2.38874">
        <ele>118.3</ele>
        <time>2022-11-16T13:33:00Z</time>
      </trkpt>
      <trkpt lat="49.9959" lon="2.38872">
        <ele>118.3</ele>
        <time>2022-11-16T13:33:01Z</time>
      </trkpt>
      <trkpt lat="49.99589" lon="2.38871">
        <ele>118.3</ele>
        <time>2022-11-16T13:33:02Z</time>
      </trkpt>
      <trkpt lat="49.99588" lon="2.38869">
        <ele>118.3</ele>
        <time>2022-11-16T13:33:03Z</time>
      </trkpt>
      <trkpt lat="49.99587" lon="2.38868">
        <ele>118.3</ele>
        <time>2022-11-16T13:33:04Z</time>
      </trkpt>
      <trkpt lat="49.99586" lon="2.38866">
        <ele>118.3</ele>
        <time>2022-11-16T13:33:05Z</time>
      </trkpt>
      <trkpt lat="49.99585" lon="2.38865">
        <ele>118.3</ele>
        <time>2022-11-16T13:33:06Z</time>
      </trkpt>
      <trkpt lat="49.99584" lon="2.38863">
        <ele>118.3</ele>
        <time>2022-11-16T13:33:08Z</time>
      </trkpt>
      <trkpt lat="49.99583" lon="2.38862">
        <ele>118.3</ele>
        <time>2022-11-16T13:33:09Z</time>
      </trkpt>
      <trkpt lat="49.99582" lon="2.38861">
        <ele>118.3</ele>
        <time>2022-11-16T13:33:10Z</time>
      </trkpt>
      <trkpt lat="49.99582" lon="2.3886">
        <ele>118.3</ele>
        <time>2022-11-16T13:33:11Z</time>
      </trkpt>
      <trkpt lat="49.99581" lon="2.38859">
        <ele>118.3</ele>
        <time>2022-11-16T13:33:12Z</time>
      </trkpt>
      <trkpt lat="49.9958" lon="2.38859">
        <ele>118.3</ele>
        <time>2022-11-16T13:33:13Z</time>
      </trkpt>
      <trkpt lat="49.99579" lon="2.38858">
        <ele>118.3</ele>
        <time>2022-11-16T13:33:15Z</time>
      </trkpt>
      <trkpt lat="49.99578" lon="2.38856">
        <ele>118.3</ele>
        <time>2022-11-16T13:33:16Z</time>
      </trkpt>
      <trkpt lat="49.99578" lon="2.38855">
        <ele>118.3</ele>
        <time>2022-11-16T13:33:17Z</time>
      </trkpt>
      <trkpt lat="49.99577" lon="2.38854">
        <ele>118.3</ele>
        <time>2022-11-16T13:33:18Z</time>
      </trkpt>
      <trkpt lat="49.99577" lon="2.38853">
        <ele>118.3</ele>
        <time>2022-11-16T13:33:19Z</time>
      </trkpt>
      <trkpt lat="49.99576" lon="2.38851">
        <ele>118.3</ele>
        <time>2022-11-16T13:33:20Z</time>
      </trkpt>
      <trkpt lat="49.99575" lon="2.3885">
        <ele>118.2</ele>
        <time>2022-11-16T13:33:21Z</time>
      </trkpt>
      <trkpt lat="49.99574" lon="2.38849">
        <ele>118.2</ele>
        <time>2022-11-16T13:33:22Z</time>
      </trkpt>
      <trkpt lat="49.99573" lon="2.38848">
        <ele>118.2</ele>
        <time>2022-11-16T13:33:24Z</time>
      </trkpt>
      <trkpt lat="49.99573" lon="2.38847">
        <ele>118.2</ele>
        <time>2022-11-16T13:33:25Z</time>
      </trkpt>
      <trkpt lat="49.99572" lon="2.38846">
        <ele>118.2</ele>
        <time>2022-11-16T13:33:26Z</time>
      </trkpt>
      <trkpt lat="49.99571" lon="2.38845">
        <ele>118.2</ele>
        <time>2022-11-16T13:33:27Z</time>
      </trkpt>
      <trkpt lat="49.9957" lon="2.38843">
        <ele>118.2</ele>
        <time>2022-11-16T13:33:28Z</time>
      </trkpt>
      <trkpt lat="49.99569" lon="2.38843">
        <ele>118.2</ele>
        <time>2022-11-16T13:33:29Z</time>
      </trkpt>
      <trkpt lat="49.99568" lon="2.38842">
        <ele>118.2</ele>
        <time>2022-11-16T13:33:31Z</time>
      </trkpt>
      <trkpt lat="49.99568" lon="2.3884">
        <ele>118.2</ele>
        <time>2022-11-16T13:33:32Z</time>
      </trkpt>
      <trkpt lat="49.99567" lon="2.38839">
        <ele>118.2</ele>
        <time>2022-11-16T13:33:33Z</time>
      </trkpt>
      <trkpt lat="49.99566" lon="2.38838">
        <ele>118.1</ele>
        <time>2022-11-16T13:33:34Z</time>
      </trkpt>
      <trkpt lat="49.99566" lon="2.38838">
        <ele>118.1</ele>
        <time>2022-11-16T13:33:35Z</time>
      </trkpt>
      <trkpt lat="49.99565" lon="2.38836">
        <ele>118.1</ele>
        <time>2022-11-16T13:33:36Z</time>
      </trkpt>
      <trkpt lat="49.99564" lon="2.38835">
        <ele>118.1</ele>
        <time>2022-11-16T13:33:37Z</time>
      </trkpt>
      <trkpt lat="49.99564" lon="2.38834">
        <ele>118.1</ele>
        <time>2022-11-16T13:33:38Z</time>
      </trkpt>
      <trkpt lat="49.99563" lon="2.38833">
        <ele>118.1</ele>
        <time>2022-11-16T13:33:39Z</time>
      </trkpt>
      <trkpt lat="49.99563" lon="2.38832">
        <ele>118.1</ele>
        <time>2022-11-16T13:33:40Z</time>
      </trkpt>
      <trkpt lat="49.99562" lon="2.38831">
        <ele>118.1</ele>
        <time>2022-11-16T13:33:41Z</time>
      </trkpt>
      <trkpt lat="49.99561" lon="2.38829">
        <ele>118.1</ele>
        <time>2022-11-16T13:33:42Z</time>
      </trkpt>
      <trkpt lat="49.99561" lon="2.38828">
        <ele>118.1</ele>
        <time>2022-11-16T13:33:43Z</time>
      </trkpt>
      <trkpt lat="49.9956" lon="2.38827">
        <ele>118.1</ele>
        <time>2022-11-16T13:33:44Z</time>
      </trkpt>
      <trkpt lat="49.9956" lon="2.38826">
        <ele>118.1</ele>
        <time>2022-11-16T13:33:45Z</time>
      </trkpt>
      <trkpt lat="49.99559" lon="2.38825">
        <ele>118.1</ele>
        <time>2022-11-16T13:33:46Z</time>
      </trkpt>
      <trkpt lat="49.99559" lon="2.38824">
        <ele>118</ele>
        <time>2022-11-16T13:33:47Z</time>
      </trkpt>
      <trkpt lat="49.99557" lon="2.38821">
        <ele>118</ele>
        <time>2022-11-16T13:33:48Z</time>
      </trkpt>
      <trkpt lat="49.99557" lon="2.3882">
        <ele>118</ele>
        <time>2022-11-16T13:33:49Z</time>
      </trkpt>
      <trkpt lat="49.99556" lon="2.38819">
        <ele>118</ele>
        <time>2022-11-16T13:33:50Z</time>
      </trkpt>
      <trkpt lat="49.99555" lon="2.38817">
        <ele>118</ele>
        <time>2022-11-16T13:33:52Z</time>
      </trkpt>
      <trkpt lat="49.99555" lon="2.38816">
        <ele>118</ele>
        <time>2022-11-16T13:33:53Z</time>
      </trkpt>
      <trkpt lat="49.99554" lon="2.38815">
        <ele>118</ele>
        <time>2022-11-16T13:33:54Z</time>
      </trkpt>
      <trkpt lat="49.99553" lon="2.38812">
        <ele>118</ele>
        <time>2022-11-16T13:33:55Z</time>
      </trkpt>
      <trkpt lat="49.99552" lon="2.38811">
        <ele>118</ele>
        <time>2022-11-16T13:33:56Z</time>
      </trkpt>
      <trkpt lat="49.99551" lon="2.3881">
        <ele>118</ele>
        <time>2022-11-16T13:33:57Z</time>
      </trkpt>
      <trkpt lat="49.9955" lon="2.38809">
        <ele>118</ele>
        <time>2022-11-16T13:33:58Z</time>
      </trkpt>
      <trkpt lat="49.99549" lon="2.38807">
        <ele>118</ele>
        <time>2022-11-16T13:33:59Z</time>
      </trkpt>
      <trkpt lat="49.99548" lon="2.38805">
        <ele>118.1</ele>
        <time>2022-11-16T13:34:00Z</time>
      </trkpt>
      <trkpt lat="49.99547" lon="2.38804">
        <ele>118.1</ele>
        <time>2022-11-16T13:34:01Z</time>
      </trkpt>
      <trkpt lat="49.99547" lon="2.38802">
        <ele>118.1</ele>
        <time>2022-11-16T13:34:03Z</time>
      </trkpt>
      <trkpt lat="49.99546" lon="2.38801">
        <ele>118.1</ele>
        <time>2022-11-16T13:34:04Z</time>
      </trkpt>
      <trkpt lat="49.99545" lon="2.388">
        <ele>118.1</ele>
        <time>2022-11-16T13:34:05Z</time>
      </trkpt>
      <trkpt lat="49.99544" lon="2.38799">
        <ele>118.1</ele>
        <time>2022-11-16T13:34:06Z</time>
      </trkpt>
      <trkpt lat="49.99543" lon="2.38797">
        <ele>118.1</ele>
        <time>2022-11-16T13:34:07Z</time>
      </trkpt>
      <trkpt lat="49.99541" lon="2.38795">
        <ele>118.1</ele>
        <time>2022-11-16T13:34:08Z</time>
      </trkpt>
      <trkpt lat="49.99541" lon="2.38794">
        <ele>118.1</ele>
        <time>2022-11-16T13:34:09Z</time>
      </trkpt>
      <trkpt lat="49.9954" lon="2.38793">
        <ele>118.1</ele>
        <time>2022-11-16T13:34:10Z</time>
      </trkpt>
      <trkpt lat="49.99539" lon="2.38792">
        <ele>118.1</ele>
        <time>2022-11-16T13:34:12Z</time>
      </trkpt>
      <trkpt lat="49.99538" lon="2.38791">
        <ele>118.1</ele>
        <time>2022-11-16T13:34:13Z</time>
      </trkpt>
      <trkpt lat="49.99538" lon="2.3879">
        <ele>118.1</ele>
        <time>2022-11-16T13:34:14Z</time>
      </trkpt>
      <trkpt lat="49.99536" lon="2.38788">
        <ele>118.1</ele>
        <time>2022-11-16T13:34:15Z</time>
      </trkpt>
      <trkpt lat="49.99535" lon="2.38787">
        <ele>118.1</ele>
        <time>2022-11-16T13:34:16Z</time>
      </trkpt>
      <trkpt lat="49.99535" lon="2.38786">
        <ele>118.1</ele>
        <time>2022-11-16T13:34:17Z</time>
      </trkpt>
      <trkpt lat="49.99534" lon="2.38784">
        <ele>118.1</ele>
        <time>2022-11-16T13:34:18Z</time>
      </trkpt>
      <trkpt lat="49.99533" lon="2.38782">
        <ele>118.1</ele>
        <time>2022-11-16T13:34:19Z</time>
      </trkpt>
      <trkpt lat="49.99532" lon="2.38781">
        <ele>118.1</ele>
        <time>2022-11-16T13:34:21Z</time>
      </trkpt>
      <trkpt lat="49.99532" lon="2.3878">
        <ele>118.1</ele>
        <time>2022-11-16T13:34:22Z</time>
      </trkpt>
      <trkpt lat="49.99531" lon="2.38779">
        <ele>118.1</ele>
        <time>2022-11-16T13:34:23Z</time>
      </trkpt>
      <trkpt lat="49.9953" lon="2.38778">
        <ele>118.1</ele>
        <time>2022-11-16T13:34:24Z</time>
      </trkpt>
      <trkpt lat="49.99528" lon="2.38776">
        <ele>118.1</ele>
        <time>2022-11-16T13:34:25Z</time>
      </trkpt>
      <trkpt lat="49.99528" lon="2.38775">
        <ele>118.2</ele>
        <time>2022-11-16T13:34:26Z</time>
      </trkpt>
      <trkpt lat="49.99527" lon="2.38774">
        <ele>118.2</ele>
        <time>2022-11-16T13:34:27Z</time>
      </trkpt>
      <trkpt lat="49.99526" lon="2.38772">
        <ele>118.2</ele>
        <time>2022-11-16T13:34:28Z</time>
      </trkpt>
      <trkpt lat="49.99525" lon="2.38771">
        <ele>118.2</ele>
        <time>2022-11-16T13:34:29Z</time>
      </trkpt>
      <trkpt lat="49.99524" lon="2.3877">
        <ele>118.2</ele>
        <time>2022-11-16T13:34:31Z</time>
      </trkpt>
      <trkpt lat="49.99523" lon="2.38769">
        <ele>118.2</ele>
        <time>2022-11-16T13:34:32Z</time>
      </trkpt>
      <trkpt lat="49.99523" lon="2.38767">
        <ele>118.2</ele>
        <time>2022-11-16T13:34:33Z</time>
      </trkpt>
      <trkpt lat="49.99522" lon="2.38766">
        <ele>118.2</ele>
        <time>2022-11-16T13:34:34Z</time>
      </trkpt>
      <trkpt lat="49.99521" lon="2.38765">
        <ele>118.2</ele>
        <time>2022-11-16T13:34:35Z</time>
      </trkpt>
      <trkpt lat="49.9952" lon="2.38764">
        <ele>118.2</ele>
        <time>2022-11-16T13:34:36Z</time>
      </trkpt>
      <trkpt lat="49.99518" lon="2.38761">
        <ele>118.2</ele>
        <time>2022-11-16T13:34:37Z</time>
      </trkpt>
      <trkpt lat="49.99518" lon="2.3876">
        <ele>118.2</ele>
        <time>2022-11-16T13:34:39Z</time>
      </trkpt>
      <trkpt lat="49.99517" lon="2.38759">
        <ele>118.2</ele>
        <time>2022-11-16T13:34:40Z</time>
      </trkpt>
      <trkpt lat="49.99517" lon="2.38758">
        <ele>118.2</ele>
        <time>2022-11-16T13:34:41Z</time>
      </trkpt>
      <trkpt lat="49.99516" lon="2.38757">
        <ele>118.2</ele>
        <time>2022-11-16T13:34:42Z</time>
      </trkpt>
      <trkpt lat="49.99515" lon="2.38755">
        <ele>118.2</ele>
        <time>2022-11-16T13:34:43Z</time>
      </trkpt>
      <trkpt lat="49.99513" lon="2.38753">
        <ele>118.2</ele>
        <time>2022-11-16T13:34:44Z</time>
      </trkpt>
      <trkpt lat="49.99513" lon="2.38752">
        <ele>118.2</ele>
        <time>2022-11-16T13:34:45Z</time>
      </trkpt>
      <trkpt lat="49.99512" lon="2.38751">
        <ele>118.2</ele>
        <time>2022-11-16T13:34:46Z</time>
      </trkpt>
      <trkpt lat="49.99511" lon="2.3875">
        <ele>118.2</ele>
        <time>2022-11-16T13:34:48Z</time>
      </trkpt>
      <trkpt lat="49.99511" lon="2.38749">
        <ele>118.3</ele>
        <time>2022-11-16T13:34:49Z</time>
      </trkpt>
      <trkpt lat="49.9951" lon="2.38748">
        <ele>118.3</ele>
        <time>2022-11-16T13:34:50Z</time>
      </trkpt>
      <trkpt lat="49.99508" lon="2.38746">
        <ele>118.3</ele>
        <time>2022-11-16T13:34:51Z</time>
      </trkpt>
      <trkpt lat="49.99508" lon="2.38745">
        <ele>118.3</ele>
        <time>2022-11-16T13:34:52Z</time>
      </trkpt>
      <trkpt lat="49.99507" lon="2.38744">
        <ele>118.3</ele>
        <time>2022-11-16T13:34:53Z</time>
      </trkpt>
      <trkpt lat="49.99506" lon="2.38743">
        <ele>118.3</ele>
        <time>2022-11-16T13:34:54Z</time>
      </trkpt>
      <trkpt lat="49.99506" lon="2.38742">
        <ele>118.3</ele>
        <time>2022-11-16T13:34:56Z</time>
      </trkpt>
      <trkpt lat="49.99505" lon="2.3874">
        <ele>118.3</ele>
        <time>2022-11-16T13:34:57Z</time>
      </trkpt>
      <trkpt lat="49.99504" lon="2.38739">
        <ele>118.3</ele>
        <time>2022-11-16T13:34:58Z</time>
      </trkpt>
      <trkpt lat="49.99503" lon="2.38738">
        <ele>118.3</ele>
        <time>2022-11-16T13:34:59Z</time>
      </trkpt>
      <trkpt lat="49.99503" lon="2.38736">
        <ele>118.3</ele>
        <time>2022-11-16T13:35:00Z</time>
      </trkpt>
      <trkpt lat="49.99502" lon="2.38735">
        <ele>118.3</ele>
        <time>2022-11-16T13:35:01Z</time>
      </trkpt>
      <trkpt lat="49.99501" lon="2.38734">
        <ele>118.3</ele>
        <time>2022-11-16T13:35:02Z</time>
      </trkpt>
      <trkpt lat="49.995" lon="2.38732">
        <ele>118.3</ele>
        <time>2022-11-16T13:35:04Z</time>
      </trkpt>
      <trkpt lat="49.99499" lon="2.38731">
        <ele>118.3</ele>
        <time>2022-11-16T13:35:05Z</time>
      </trkpt>
      <trkpt lat="49.99499" lon="2.38729">
        <ele>118.3</ele>
        <time>2022-11-16T13:35:06Z</time>
      </trkpt>
      <trkpt lat="49.99498" lon="2.38728">
        <ele>118.3</ele>
        <time>2022-11-16T13:35:07Z</time>
      </trkpt>
      <trkpt lat="49.99497" lon="2.38727">
        <ele>118.3</ele>
        <time>2022-11-16T13:35:08Z</time>
      </trkpt>
      <trkpt lat="49.99496" lon="2.38725">
        <ele>118.3</ele>
        <time>2022-11-16T13:35:09Z</time>
      </trkpt>
      <trkpt lat="49.99496" lon="2.38724">
        <ele>118.3</ele>
        <time>2022-11-16T13:35:10Z</time>
      </trkpt>
      <trkpt lat="49.99495" lon="2.38723">
        <ele>118.3</ele>
        <time>2022-11-16T13:35:12Z</time>
      </trkpt>
      <trkpt lat="49.99494" lon="2.38721">
        <ele>118.3</ele>
        <time>2022-11-16T13:35:13Z</time>
      </trkpt>
      <trkpt lat="49.99493" lon="2.3872">
        <ele>118.3</ele>
        <time>2022-11-16T13:35:14Z</time>
      </trkpt>
      <trkpt lat="49.99492" lon="2.38718">
        <ele>118.3</ele>
        <time>2022-11-16T13:35:15Z</time>
      </trkpt>
      <trkpt lat="49.99492" lon="2.38717">
        <ele>118.3</ele>
        <time>2022-11-16T13:35:16Z</time>
      </trkpt>
      <trkpt lat="49.99491" lon="2.38716">
        <ele>118.3</ele>
        <time>2022-11-16T13:35:17Z</time>
      </trkpt>
      <trkpt lat="49.9949" lon="2.38714">
        <ele>118.3</ele>
        <time>2022-11-16T13:35:18Z</time>
      </trkpt>
      <trkpt lat="49.99489" lon="2.38713">
        <ele>118.3</ele>
        <time>2022-11-16T13:35:19Z</time>
      </trkpt>
      <trkpt lat="49.99489" lon="2.38711">
        <ele>118.2</ele>
        <time>2022-11-16T13:35:21Z</time>
      </trkpt>
      <trkpt lat="49.99488" lon="2.3871">
        <ele>118.2</ele>
        <time>2022-11-16T13:35:22Z</time>
      </trkpt>
      <trkpt lat="49.99487" lon="2.38709">
        <ele>118.2</ele>
        <time>2022-11-16T13:35:23Z</time>
      </trkpt>
      <trkpt lat="49.99485" lon="2.38707">
        <ele>118.2</ele>
        <time>2022-11-16T13:35:24Z</time>
      </trkpt>
      <trkpt lat="49.99485" lon="2.38705">
        <ele>118.2</ele>
        <time>2022-11-16T13:35:25Z</time>
      </trkpt>
      <trkpt lat="49.99484" lon="2.38704">
        <ele>118.2</ele>
        <time>2022-11-16T13:35:26Z</time>
      </trkpt>
      <trkpt lat="49.99483" lon="2.38703">
        <ele>118.2</ele>
        <time>2022-11-16T13:35:27Z</time>
      </trkpt>
      <trkpt lat="49.99482" lon="2.38701">
        <ele>118.1</ele>
        <time>2022-11-16T13:35:28Z</time>
      </trkpt>
      <trkpt lat="49.9948" lon="2.38699">
        <ele>118.1</ele>
        <time>2022-11-16T13:35:29Z</time>
      </trkpt>
      <trkpt lat="49.9948" lon="2.38698">
        <ele>118.1</ele>
        <time>2022-11-16T13:35:31Z</time>
      </trkpt>
      <trkpt lat="49.99479" lon="2.38697">
        <ele>118.1</ele>
        <time>2022-11-16T13:35:32Z</time>
      </trkpt>
      <trkpt lat="49.99478" lon="2.38696">
        <ele>118.1</ele>
        <time>2022-11-16T13:35:33Z</time>
      </trkpt>
      <trkpt lat="49.99477" lon="2.38694">
        <ele>118.1</ele>
        <time>2022-11-16T13:35:34Z</time>
      </trkpt>
      <trkpt lat="49.99476" lon="2.38693">
        <ele>118.1</ele>
        <time>2022-11-16T13:35:35Z</time>
      </trkpt>
      <trkpt lat="49.99475" lon="2.38691">
        <ele>118</ele>
        <time>2022-11-16T13:35:36Z</time>
      </trkpt>
      <trkpt lat="49.99474" lon="2.3869">
        <ele>118</ele>
        <time>2022-11-16T13:35:37Z</time>
      </trkpt>
      <trkpt lat="49.99473" lon="2.38688">
        <ele>118</ele>
        <time>2022-11-16T13:35:38Z</time>
      </trkpt>
      <trkpt lat="49.99471" lon="2.38685">
        <ele>118</ele>
        <time>2022-11-16T13:35:39Z</time>
      </trkpt>
      <trkpt lat="49.9947" lon="2.38684">
        <ele>118</ele>
        <time>2022-11-16T13:35:41Z</time>
      </trkpt>
      <trkpt lat="49.99469" lon="2.38683">
        <ele>117.9</ele>
        <time>2022-11-16T13:35:42Z</time>
      </trkpt>
      <trkpt lat="49.99469" lon="2.38681">
        <ele>117.9</ele>
        <time>2022-11-16T13:35:43Z</time>
      </trkpt>
      <trkpt lat="49.99468" lon="2.3868">
        <ele>117.9</ele>
        <time>2022-11-16T13:35:44Z</time>
      </trkpt>
      <trkpt lat="49.99467" lon="2.38679">
        <ele>117.9</ele>
        <time>2022-11-16T13:35:45Z</time>
      </trkpt>
      <trkpt lat="49.99466" lon="2.38677">
        <ele>117.9</ele>
        <time>2022-11-16T13:35:46Z</time>
      </trkpt>
      <trkpt lat="49.99465" lon="2.38675">
        <ele>117.9</ele>
        <time>2022-11-16T13:35:47Z</time>
      </trkpt>
      <trkpt lat="49.99465" lon="2.38674">
        <ele>117.9</ele>
        <time>2022-11-16T13:35:48Z</time>
      </trkpt>
      <trkpt lat="49.99464" lon="2.38672">
        <ele>117.8</ele>
        <time>2022-11-16T13:35:50Z</time>
      </trkpt>
      <trkpt lat="49.99463" lon="2.3867">
        <ele>117.8</ele>
        <time>2022-11-16T13:35:51Z</time>
      </trkpt>
      <trkpt lat="49.99462" lon="2.38669">
        <ele>117.8</ele>
        <time>2022-11-16T13:35:52Z</time>
      </trkpt>
      <trkpt lat="49.99462" lon="2.38668">
        <ele>117.8</ele>
        <time>2022-11-16T13:35:53Z</time>
      </trkpt>
      <trkpt lat="49.99461" lon="2.38666">
        <ele>117.8</ele>
        <time>2022-11-16T13:35:54Z</time>
      </trkpt>
      <trkpt lat="49.9946" lon="2.38665">
        <ele>117.8</ele>
        <time>2022-11-16T13:35:55Z</time>
      </trkpt>
      <trkpt lat="49.9946" lon="2.38663">
        <ele>117.7</ele>
        <time>2022-11-16T13:35:56Z</time>
      </trkpt>
      <trkpt lat="49.99459" lon="2.38662">
        <ele>117.7</ele>
        <time>2022-11-16T13:35:57Z</time>
      </trkpt>
      <trkpt lat="49.99458" lon="2.38661">
        <ele>117.7</ele>
        <time>2022-11-16T13:35:58Z</time>
      </trkpt>
      <trkpt lat="49.99458" lon="2.3866">
        <ele>117.7</ele>
        <time>2022-11-16T13:36:00Z</time>
      </trkpt>
      <trkpt lat="49.99457" lon="2.38659">
        <ele>117.7</ele>
        <time>2022-11-16T13:36:01Z</time>
      </trkpt>
      <trkpt lat="49.99456" lon="2.38657">
        <ele>117.6</ele>
        <time>2022-11-16T13:36:02Z</time>
      </trkpt>
      <trkpt lat="49.99455" lon="2.38655">
        <ele>117.6</ele>
        <time>2022-11-16T13:36:03Z</time>
      </trkpt>
      <trkpt lat="49.99454" lon="2.38654">
        <ele>117.6</ele>
        <time>2022-11-16T13:36:04Z</time>
      </trkpt>
      <trkpt lat="49.99454" lon="2.38653">
        <ele>117.6</ele>
        <time>2022-11-16T13:36:05Z</time>
      </trkpt>
      <trkpt lat="49.99452" lon="2.3865">
        <ele>117.5</ele>
        <time>2022-11-16T13:36:06Z</time>
      </trkpt>
      <trkpt lat="49.99452" lon="2.38649">
        <ele>117.5</ele>
        <time>2022-11-16T13:36:07Z</time>
      </trkpt>
      <trkpt lat="49.99451" lon="2.38648">
        <ele>117.5</ele>
        <time>2022-11-16T13:36:08Z</time>
      </trkpt>
      <trkpt lat="49.99451" lon="2.38647">
        <ele>117.5</ele>
        <time>2022-11-16T13:36:10Z</time>
      </trkpt>
      <trkpt lat="49.9945" lon="2.38646">
        <ele>117.5</ele>
        <time>2022-11-16T13:36:11Z</time>
      </trkpt>
      <trkpt lat="49.99449" lon="2.38645">
        <ele>117.4</ele>
        <time>2022-11-16T13:36:12Z</time>
      </trkpt>
      <trkpt lat="49.99448" lon="2.38643">
        <ele>117.4</ele>
        <time>2022-11-16T13:36:13Z</time>
      </trkpt>
      <trkpt lat="49.99448" lon="2.38642">
        <ele>117.4</ele>
        <time>2022-11-16T13:36:14Z</time>
      </trkpt>
      <trkpt lat="49.99447" lon="2.38642">
        <ele>117.4</ele>
        <time>2022-11-16T13:36:15Z</time>
      </trkpt>
      <trkpt lat="49.99447" lon="2.38641">
        <ele>117.4</ele>
        <time>2022-11-16T13:36:16Z</time>
      </trkpt>
      <trkpt lat="49.99445" lon="2.38638">
        <ele>117.3</ele>
        <time>2022-11-16T13:36:17Z</time>
      </trkpt>
      <trkpt lat="49.99445" lon="2.38637">
        <ele>117.3</ele>
        <time>2022-11-16T13:36:18Z</time>
      </trkpt>
      <trkpt lat="49.99444" lon="2.38637">
        <ele>117.3</ele>
        <time>2022-11-16T13:36:19Z</time>
      </trkpt>
      <trkpt lat="49.99442" lon="2.38635">
        <ele>117.3</ele>
        <time>2022-11-16T13:36:20Z</time>
      </trkpt>
      <trkpt lat="49.99442" lon="2.38634">
        <ele>117.3</ele>
        <time>2022-11-16T13:36:22Z</time>
      </trkpt>
      <trkpt lat="49.99441" lon="2.38633">
        <ele>117.2</ele>
        <time>2022-11-16T13:36:23Z</time>
      </trkpt>
      <trkpt lat="49.9944" lon="2.38631">
        <ele>117.2</ele>
        <time>2022-11-16T13:36:24Z</time>
      </trkpt>
      <trkpt lat="49.99439" lon="2.3863">
        <ele>117.2</ele>
        <time>2022-11-16T13:36:25Z</time>
      </trkpt>
      <trkpt lat="49.99438" lon="2.38629">
        <ele>117.2</ele>
        <time>2022-11-16T13:36:26Z</time>
      </trkpt>
      <trkpt lat="49.99437" lon="2.38627">
        <ele>117.1</ele>
        <time>2022-11-16T13:36:27Z</time>
      </trkpt>
      <trkpt lat="49.99436" lon="2.38626">
        <ele>117.1</ele>
        <time>2022-11-16T13:36:28Z</time>
      </trkpt>
      <trkpt lat="49.99434" lon="2.38624">
        <ele>117.1</ele>
        <time>2022-11-16T13:36:29Z</time>
      </trkpt>
      <trkpt lat="49.99434" lon="2.38623">
        <ele>117</ele>
        <time>2022-11-16T13:36:31Z</time>
      </trkpt>
      <trkpt lat="49.99433" lon="2.38622">
        <ele>117</ele>
        <time>2022-11-16T13:36:32Z</time>
      </trkpt>
      <trkpt lat="49.99432" lon="2.38621">
        <ele>117</ele>
        <time>2022-11-16T13:36:33Z</time>
      </trkpt>
      <trkpt lat="49.99431" lon="2.3862">
        <ele>117</ele>
        <time>2022-11-16T13:36:34Z</time>
      </trkpt>
      <trkpt lat="49.99431" lon="2.38619">
        <ele>116.9</ele>
        <time>2022-11-16T13:36:35Z</time>
      </trkpt>
      <trkpt lat="49.99429" lon="2.38617">
        <ele>116.9</ele>
        <time>2022-11-16T13:36:36Z</time>
      </trkpt>
      <trkpt lat="49.99428" lon="2.38616">
        <ele>116.9</ele>
        <time>2022-11-16T13:36:37Z</time>
      </trkpt>
      <trkpt lat="49.99428" lon="2.38615">
        <ele>116.8</ele>
        <time>2022-11-16T13:36:38Z</time>
      </trkpt>
      <trkpt lat="49.99426" lon="2.38614">
        <ele>116.8</ele>
        <time>2022-11-16T13:36:39Z</time>
      </trkpt>
      <trkpt lat="49.99425" lon="2.38613">
        <ele>116.8</ele>
        <time>2022-11-16T13:36:41Z</time>
      </trkpt>
      <trkpt lat="49.99425" lon="2.38612">
        <ele>116.7</ele>
        <time>2022-11-16T13:36:42Z</time>
      </trkpt>
      <trkpt lat="49.99424" lon="2.38611">
        <ele>116.7</ele>
        <time>2022-11-16T13:36:43Z</time>
      </trkpt>
      <trkpt lat="49.99423" lon="2.38609">
        <ele>116.7</ele>
        <time>2022-11-16T13:36:44Z</time>
      </trkpt>
      <trkpt lat="49.99422" lon="2.38607">
        <ele>116.6</ele>
        <time>2022-11-16T13:36:45Z</time>
      </trkpt>
      <trkpt lat="49.99421" lon="2.38606">
        <ele>116.6</ele>
        <time>2022-11-16T13:36:46Z</time>
      </trkpt>
      <trkpt lat="49.9942" lon="2.38604">
        <ele>116.5</ele>
        <time>2022-11-16T13:36:47Z</time>
      </trkpt>
      <trkpt lat="49.99419" lon="2.38603">
        <ele>116.5</ele>
        <time>2022-11-16T13:36:48Z</time>
      </trkpt>
      <trkpt lat="49.99418" lon="2.38602">
        <ele>116.4</ele>
        <time>2022-11-16T13:36:49Z</time>
      </trkpt>
      <trkpt lat="49.99417" lon="2.386">
        <ele>116.4</ele>
        <time>2022-11-16T13:36:50Z</time>
      </trkpt>
      <trkpt lat="49.99416" lon="2.38599">
        <ele>116.4</ele>
        <time>2022-11-16T13:36:52Z</time>
      </trkpt>
      <trkpt lat="49.99415" lon="2.38598">
        <ele>116.3</ele>
        <time>2022-11-16T13:36:53Z</time>
      </trkpt>
      <trkpt lat="49.99414" lon="2.38596">
        <ele>116.3</ele>
        <time>2022-11-16T13:36:54Z</time>
      </trkpt>
      <trkpt lat="49.99414" lon="2.38595">
        <ele>116.2</ele>
        <time>2022-11-16T13:36:55Z</time>
      </trkpt>
      <trkpt lat="49.99412" lon="2.38593">
        <ele>116.2</ele>
        <time>2022-11-16T13:36:56Z</time>
      </trkpt>
      <trkpt lat="49.99411" lon="2.38592">
        <ele>116.1</ele>
        <time>2022-11-16T13:36:57Z</time>
      </trkpt>
      <trkpt lat="49.99411" lon="2.38591">
        <ele>116.1</ele>
        <time>2022-11-16T13:36:58Z</time>
      </trkpt>
      <trkpt lat="49.9941" lon="2.38589">
        <ele>116.1</ele>
        <time>2022-11-16T13:37:00Z</time>
      </trkpt>
      <trkpt lat="49.99409" lon="2.38588">
        <ele>116</ele>
        <time>2022-11-16T13:37:01Z</time>
      </trkpt>
      <trkpt lat="49.99408" lon="2.38586">
        <ele>116</ele>
        <time>2022-11-16T13:37:02Z</time>
      </trkpt>
      <trkpt lat="49.99407" lon="2.38585">
        <ele>115.9</ele>
        <time>2022-11-16T13:37:03Z</time>
      </trkpt>
      <trkpt lat="49.99407" lon="2.38584">
        <ele>115.9</ele>
        <time>2022-11-16T13:37:04Z</time>
      </trkpt>
      <trkpt lat="49.99405" lon="2.38581">
        <ele>115.9</ele>
        <time>2022-11-16T13:37:05Z</time>
      </trkpt>
      <trkpt lat="49.99405" lon="2.3858">
        <ele>115.8</ele>
        <time>2022-11-16T13:37:06Z</time>
      </trkpt>
      <trkpt lat="49.99404" lon="2.38579">
        <ele>115.8</ele>
        <time>2022-11-16T13:37:07Z</time>
      </trkpt>
      <trkpt lat="49.99403" lon="2.38577">
        <ele>115.8</ele>
        <time>2022-11-16T13:37:08Z</time>
      </trkpt>
      <trkpt lat="49.99402" lon="2.38576">
        <ele>115.7</ele>
        <time>2022-11-16T13:37:09Z</time>
      </trkpt>
      <trkpt lat="49.99401" lon="2.38574">
        <ele>115.7</ele>
        <time>2022-11-16T13:37:10Z</time>
      </trkpt>
      <trkpt lat="49.994" lon="2.38572">
        <ele>115.6</ele>
        <time>2022-11-16T13:37:11Z</time>
      </trkpt>
      <trkpt lat="49.99399" lon="2.3857">
        <ele>115.6</ele>
        <time>2022-11-16T13:37:13Z</time>
      </trkpt>
      <trkpt lat="49.99398" lon="2.38569">
        <ele>115.6</ele>
        <time>2022-11-16T13:37:14Z</time>
      </trkpt>
      <trkpt lat="49.99397" lon="2.38568">
        <ele>115.5</ele>
        <time>2022-11-16T13:37:15Z</time>
      </trkpt>
      <trkpt lat="49.99397" lon="2.38566">
        <ele>115.5</ele>
        <time>2022-11-16T13:37:16Z</time>
      </trkpt>
      <trkpt lat="49.99396" lon="2.38565">
        <ele>115.5</ele>
        <time>2022-11-16T13:37:17Z</time>
      </trkpt>
      <trkpt lat="49.99395" lon="2.38562">
        <ele>115.4</ele>
        <time>2022-11-16T13:37:18Z</time>
      </trkpt>
      <trkpt lat="49.99395" lon="2.38561">
        <ele>115.4</ele>
        <time>2022-11-16T13:37:19Z</time>
      </trkpt>
      <trkpt lat="49.99394" lon="2.3856">
        <ele>115.4</ele>
        <time>2022-11-16T13:37:20Z</time>
      </trkpt>
      <trkpt lat="49.99394" lon="2.38558">
        <ele>115.4</ele>
        <time>2022-11-16T13:37:21Z</time>
      </trkpt>
      <trkpt lat="49.99393" lon="2.38556">
        <ele>115.3</ele>
        <time>2022-11-16T13:37:22Z</time>
      </trkpt>
      <trkpt lat="49.99392" lon="2.38555">
        <ele>115.3</ele>
        <time>2022-11-16T13:37:24Z</time>
      </trkpt>
      <trkpt lat="49.99391" lon="2.38553">
        <ele>115.3</ele>
        <time>2022-11-16T13:37:25Z</time>
      </trkpt>
      <trkpt lat="49.99391" lon="2.38552">
        <ele>115.2</ele>
        <time>2022-11-16T13:37:26Z</time>
      </trkpt>
      <trkpt lat="49.9939" lon="2.38551">
        <ele>115.2</ele>
        <time>2022-11-16T13:37:27Z</time>
      </trkpt>
      <trkpt lat="49.99389" lon="2.38549">
        <ele>115.2</ele>
        <time>2022-11-16T13:37:28Z</time>
      </trkpt>
      <trkpt lat="49.99388" lon="2.38548">
        <ele>115.2</ele>
        <time>2022-11-16T13:37:29Z</time>
      </trkpt>
      <trkpt lat="49.99388" lon="2.38547">
        <ele>115.1</ele>
        <time>2022-11-16T13:37:30Z</time>
      </trkpt>
      <trkpt lat="49.99387" lon="2.38544">
        <ele>115.1</ele>
        <time>2022-11-16T13:37:31Z</time>
      </trkpt>
      <trkpt lat="49.99386" lon="2.38543">
        <ele>115.1</ele>
        <time>2022-11-16T13:37:33Z</time>
      </trkpt>
      <trkpt lat="49.99386" lon="2.38542">
        <ele>115.1</ele>
        <time>2022-11-16T13:37:34Z</time>
      </trkpt>
      <trkpt lat="49.99384" lon="2.38539">
        <ele>115</ele>
        <time>2022-11-16T13:37:35Z</time>
      </trkpt>
      <trkpt lat="49.99384" lon="2.38538">
        <ele>115</ele>
        <time>2022-11-16T13:37:36Z</time>
      </trkpt>
      <trkpt lat="49.99383" lon="2.38538">
        <ele>115</ele>
        <time>2022-11-16T13:37:37Z</time>
      </trkpt>
      <trkpt lat="49.99382" lon="2.38535">
        <ele>114.9</ele>
        <time>2022-11-16T13:37:38Z</time>
      </trkpt>
      <trkpt lat="49.99381" lon="2.38534">
        <ele>114.9</ele>
        <time>2022-11-16T13:37:39Z</time>
      </trkpt>
      <trkpt lat="49.9938" lon="2.38533">
        <ele>114.9</ele>
        <time>2022-11-16T13:37:40Z</time>
      </trkpt>
      <trkpt lat="49.99379" lon="2.38532">
        <ele>114.9</ele>
        <time>2022-11-16T13:37:41Z</time>
      </trkpt>
      <trkpt lat="49.99378" lon="2.38531">
        <ele>114.8</ele>
        <time>2022-11-16T13:37:43Z</time>
      </trkpt>
      <trkpt lat="49.99377" lon="2.38529">
        <ele>114.8</ele>
        <time>2022-11-16T13:37:44Z</time>
      </trkpt>
      <trkpt lat="49.99376" lon="2.38528">
        <ele>114.8</ele>
        <time>2022-11-16T13:37:45Z</time>
      </trkpt>
      <trkpt lat="49.99376" lon="2.38527">
        <ele>114.8</ele>
        <time>2022-11-16T13:37:46Z</time>
      </trkpt>
      <trkpt lat="49.99375" lon="2.38525">
        <ele>114.7</ele>
        <time>2022-11-16T13:37:47Z</time>
      </trkpt>
      <trkpt lat="49.99374" lon="2.38524">
        <ele>114.7</ele>
        <time>2022-11-16T13:37:48Z</time>
      </trkpt>
      <trkpt lat="49.99373" lon="2.38522">
        <ele>114.7</ele>
        <time>2022-11-16T13:37:49Z</time>
      </trkpt>
      <trkpt lat="49.99372" lon="2.38521">
        <ele>114.6</ele>
        <time>2022-11-16T13:37:50Z</time>
      </trkpt>
      <trkpt lat="49.9937" lon="2.38518">
        <ele>114.6</ele>
        <time>2022-11-16T13:37:51Z</time>
      </trkpt>
      <trkpt lat="49.99369" lon="2.38517">
        <ele>114.6</ele>
        <time>2022-11-16T13:37:53Z</time>
      </trkpt>
      <trkpt lat="49.99369" lon="2.38516">
        <ele>114.5</ele>
        <time>2022-11-16T13:37:54Z</time>
      </trkpt>
      <trkpt lat="49.99367" lon="2.38514">
        <ele>114.5</ele>
        <time>2022-11-16T13:37:55Z</time>
      </trkpt>
      <trkpt lat="49.99367" lon="2.38513">
        <ele>114.5</ele>
        <time>2022-11-16T13:37:56Z</time>
      </trkpt>
      <trkpt lat="49.99366" lon="2.38513">
        <ele>114.5</ele>
        <time>2022-11-16T13:37:57Z</time>
      </trkpt>
      <trkpt lat="49.99364" lon="2.38511">
        <ele>114.4</ele>
        <time>2022-11-16T13:37:58Z</time>
      </trkpt>
      <trkpt lat="49.99364" lon="2.3851">
        <ele>114.4</ele>
        <time>2022-11-16T13:37:59Z</time>
      </trkpt>
      <trkpt lat="49.99363" lon="2.38509">
        <ele>114.4</ele>
        <time>2022-11-16T13:38:00Z</time>
      </trkpt>
      <trkpt lat="49.99362" lon="2.38508">
        <ele>114.3</ele>
        <time>2022-11-16T13:38:02Z</time>
      </trkpt>
      <trkpt lat="49.99361" lon="2.38506">
        <ele>114.3</ele>
        <time>2022-11-16T13:38:03Z</time>
      </trkpt>
      <trkpt lat="49.9936" lon="2.38506">
        <ele>114.3</ele>
        <time>2022-11-16T13:38:04Z</time>
      </trkpt>
      <trkpt lat="49.99359" lon="2.38504">
        <ele>114.2</ele>
        <time>2022-11-16T13:38:05Z</time>
      </trkpt>
      <trkpt lat="49.99358" lon="2.38503">
        <ele>114.2</ele>
        <time>2022-11-16T13:38:06Z</time>
      </trkpt>
      <trkpt lat="49.99357" lon="2.38502">
        <ele>114.2</ele>
        <time>2022-11-16T13:38:07Z</time>
      </trkpt>
      <trkpt lat="49.99356" lon="2.385">
        <ele>114.2</ele>
        <time>2022-11-16T13:38:08Z</time>
      </trkpt>
      <trkpt lat="49.99355" lon="2.38499">
        <ele>114.1</ele>
        <time>2022-11-16T13:38:09Z</time>
      </trkpt>
      <trkpt lat="49.99354" lon="2.38498">
        <ele>114.1</ele>
        <time>2022-11-16T13:38:10Z</time>
      </trkpt>
      <trkpt lat="49.99353" lon="2.38497">
        <ele>114.1</ele>
        <time>2022-11-16T13:38:11Z</time>
      </trkpt>
      <trkpt lat="49.99352" lon="2.38495">
        <ele>114.1</ele>
        <time>2022-11-16T13:38:13Z</time>
      </trkpt>
      <trkpt lat="49.99351" lon="2.38494">
        <ele>114</ele>
        <time>2022-11-16T13:38:14Z</time>
      </trkpt>
      <trkpt lat="49.9935" lon="2.38493">
        <ele>114</ele>
        <time>2022-11-16T13:38:15Z</time>
      </trkpt>
      <trkpt lat="49.9935" lon="2.38493">
        <ele>114</ele>
        <time>2022-11-16T13:38:16Z</time>
      </trkpt>
      <trkpt lat="49.99348" lon="2.38491">
        <ele>114</ele>
        <time>2022-11-16T13:38:17Z</time>
      </trkpt>
      <trkpt lat="49.99347" lon="2.3849">
        <ele>113.9</ele>
        <time>2022-11-16T13:38:18Z</time>
      </trkpt>
      <trkpt lat="49.99347" lon="2.38489">
        <ele>113.9</ele>
        <time>2022-11-16T13:38:19Z</time>
      </trkpt>
      <trkpt lat="49.99345" lon="2.38487">
        <ele>113.9</ele>
        <time>2022-11-16T13:38:20Z</time>
      </trkpt>
      <trkpt lat="49.99344" lon="2.38486">
        <ele>113.9</ele>
        <time>2022-11-16T13:38:21Z</time>
      </trkpt>
      <trkpt lat="49.99344" lon="2.38485">
        <ele>113.9</ele>
        <time>2022-11-16T13:38:22Z</time>
      </trkpt>
      <trkpt lat="49.99343" lon="2.38482">
        <ele>113.8</ele>
        <time>2022-11-16T13:38:23Z</time>
      </trkpt>
      <trkpt lat="49.99342" lon="2.38481">
        <ele>113.8</ele>
        <time>2022-11-16T13:38:25Z</time>
      </trkpt>
      <trkpt lat="49.99342" lon="2.3848">
        <ele>113.8</ele>
        <time>2022-11-16T13:38:26Z</time>
      </trkpt>
      <trkpt lat="49.9934" lon="2.38478">
        <ele>113.8</ele>
        <time>2022-11-16T13:38:27Z</time>
      </trkpt>
      <trkpt lat="49.99339" lon="2.38477">
        <ele>113.7</ele>
        <time>2022-11-16T13:38:28Z</time>
      </trkpt>
      <trkpt lat="49.99339" lon="2.38476">
        <ele>113.7</ele>
        <time>2022-11-16T13:38:29Z</time>
      </trkpt>
      <trkpt lat="49.99337" lon="2.38474">
        <ele>113.7</ele>
        <time>2022-11-16T13:38:30Z</time>
      </trkpt>
      <trkpt lat="49.99336" lon="2.38473">
        <ele>113.7</ele>
        <time>2022-11-16T13:38:31Z</time>
      </trkpt>
      <trkpt lat="49.99335" lon="2.3847">
        <ele>113.6</ele>
        <time>2022-11-16T13:38:33Z</time>
      </trkpt>
      <trkpt lat="49.99334" lon="2.3847">
        <ele>113.6</ele>
        <time>2022-11-16T13:38:34Z</time>
      </trkpt>
      <trkpt lat="49.99333" lon="2.38469">
        <ele>113.6</ele>
        <time>2022-11-16T13:38:35Z</time>
      </trkpt>
      <trkpt lat="49.99332" lon="2.38467">
        <ele>113.6</ele>
        <time>2022-11-16T13:38:36Z</time>
      </trkpt>
      <trkpt lat="49.99331" lon="2.38466">
        <ele>113.6</ele>
        <time>2022-11-16T13:38:37Z</time>
      </trkpt>
      <trkpt lat="49.9933" lon="2.38464">
        <ele>113.5</ele>
        <time>2022-11-16T13:38:38Z</time>
      </trkpt>
      <trkpt lat="49.99329" lon="2.38463">
        <ele>113.5</ele>
        <time>2022-11-16T13:38:40Z</time>
      </trkpt>
      <trkpt lat="49.99329" lon="2.38462">
        <ele>113.5</ele>
        <time>2022-11-16T13:38:41Z</time>
      </trkpt>
      <trkpt lat="49.99328" lon="2.38461">
        <ele>113.5</ele>
        <time>2022-11-16T13:38:42Z</time>
      </trkpt>
      <trkpt lat="49.99327" lon="2.3846">
        <ele>113.5</ele>
        <time>2022-11-16T13:38:43Z</time>
      </trkpt>
      <trkpt lat="49.99326" lon="2.38459">
        <ele>113.4</ele>
        <time>2022-11-16T13:38:44Z</time>
      </trkpt>
      <trkpt lat="49.99325" lon="2.38458">
        <ele>113.4</ele>
        <time>2022-11-16T13:38:45Z</time>
      </trkpt>
      <trkpt lat="49.99324" lon="2.38456">
        <ele>113.4</ele>
        <time>2022-11-16T13:38:46Z</time>
      </trkpt>
      <trkpt lat="49.99323" lon="2.38455">
        <ele>113.4</ele>
        <time>2022-11-16T13:38:48Z</time>
      </trkpt>
      <trkpt lat="49.99322" lon="2.38454">
        <ele>113.4</ele>
        <time>2022-11-16T13:38:49Z</time>
      </trkpt>
      <trkpt lat="49.99321" lon="2.38453">
        <ele>113.4</ele>
        <time>2022-11-16T13:38:50Z</time>
      </trkpt>
      <trkpt lat="49.9932" lon="2.38451">
        <ele>113.3</ele>
        <time>2022-11-16T13:38:51Z</time>
      </trkpt>
      <trkpt lat="49.99319" lon="2.3845">
        <ele>113.3</ele>
        <time>2022-11-16T13:38:52Z</time>
      </trkpt>
      <trkpt lat="49.99318" lon="2.38449">
        <ele>113.3</ele>
        <time>2022-11-16T13:38:53Z</time>
      </trkpt>
      <trkpt lat="49.99318" lon="2.38448">
        <ele>113.3</ele>
        <time>2022-11-16T13:38:55Z</time>
      </trkpt>
      <trkpt lat="49.99317" lon="2.38447">
        <ele>113.3</ele>
        <time>2022-11-16T13:38:56Z</time>
      </trkpt>
      <trkpt lat="49.99317" lon="2.38445">
        <ele>113.3</ele>
        <time>2022-11-16T13:38:57Z</time>
      </trkpt>
      <trkpt lat="49.99316" lon="2.38444">
        <ele>113.3</ele>
        <time>2022-11-16T13:38:58Z</time>
      </trkpt>
      <trkpt lat="49.99315" lon="2.38442">
        <ele>113.3</ele>
        <time>2022-11-16T13:38:59Z</time>
      </trkpt>
      <trkpt lat="49.99313" lon="2.3844">
        <ele>113.2</ele>
        <time>2022-11-16T13:39:00Z</time>
      </trkpt>
      <trkpt lat="49.99312" lon="2.38439">
        <ele>113.2</ele>
        <time>2022-11-16T13:39:02Z</time>
      </trkpt>
      <trkpt lat="49.99311" lon="2.38438">
        <ele>113.2</ele>
        <time>2022-11-16T13:39:03Z</time>
      </trkpt>
      <trkpt lat="49.99309" lon="2.38436">
        <ele>113.2</ele>
        <time>2022-11-16T13:39:04Z</time>
      </trkpt>
      <trkpt lat="49.99309" lon="2.38436">
        <ele>113.2</ele>
        <time>2022-11-16T13:39:05Z</time>
      </trkpt>
      <trkpt lat="49.99308" lon="2.38435">
        <ele>113.2</ele>
        <time>2022-11-16T13:39:06Z</time>
      </trkpt>
      <trkpt lat="49.99306" lon="2.38432">
        <ele>113.1</ele>
        <time>2022-11-16T13:39:08Z</time>
      </trkpt>
      <trkpt lat="49.99306" lon="2.38431">
        <ele>113.1</ele>
        <time>2022-11-16T13:39:09Z</time>
      </trkpt>
      <trkpt lat="49.99305" lon="2.38431">
        <ele>113.1</ele>
        <time>2022-11-16T13:39:10Z</time>
      </trkpt>
      <trkpt lat="49.99304" lon="2.38429">
        <ele>113.1</ele>
        <time>2022-11-16T13:39:11Z</time>
      </trkpt>
      <trkpt lat="49.99304" lon="2.38429">
        <ele>113.1</ele>
        <time>2022-11-16T13:39:13Z</time>
      </trkpt>
      <trkpt lat="49.99304" lon="2.38428">
        <ele>113.1</ele>
        <time>2022-11-16T13:39:14Z</time>
      </trkpt>
      <trkpt lat="49.99304" lon="2.38427">
        <ele>113.1</ele>
        <time>2022-11-16T13:39:15Z</time>
      </trkpt>
      <trkpt lat="49.99304" lon="2.38427">
        <ele>113</ele>
        <time>2022-11-16T13:39:16Z</time>
      </trkpt>
      <trkpt lat="49.99305" lon="2.38426">
        <ele>113</ele>
        <time>2022-11-16T13:39:17Z</time>
      </trkpt>
      <trkpt lat="49.99305" lon="2.38426">
        <ele>113</ele>
        <time>2022-11-16T13:39:18Z</time>
      </trkpt>
      <trkpt lat="49.99305" lon="2.38426">
        <ele>113</ele>
        <time>2022-11-16T13:39:19Z</time>
      </trkpt>
      <trkpt lat="49.99306" lon="2.38426">
        <ele>113</ele>
        <time>2022-11-16T13:39:20Z</time>
      </trkpt>
      <trkpt lat="49.99306" lon="2.38426">
        <ele>113</ele>
        <time>2022-11-16T13:39:21Z</time>
      </trkpt>
      <trkpt lat="49.99306" lon="2.38426">
        <ele>113</ele>
        <time>2022-11-16T13:39:22Z</time>
      </trkpt>
      <trkpt lat="49.99306" lon="2.38426">
        <ele>113</ele>
        <time>2022-11-16T13:39:23Z</time>
      </trkpt>
      <trkpt lat="49.99307" lon="2.38426">
        <ele>113</ele>
        <time>2022-11-16T13:39:24Z</time>
      </trkpt>
      <trkpt lat="49.99307" lon="2.38426">
        <ele>113</ele>
        <time>2022-11-16T13:39:25Z</time>
      </trkpt>
      <trkpt lat="49.99308" lon="2.38426">
        <ele>113</ele>
        <time>2022-11-16T13:39:26Z</time>
      </trkpt>
      <trkpt lat="49.99308" lon="2.38426">
        <ele>112.9</ele>
        <time>2022-11-16T13:39:27Z</time>
      </trkpt>
      <trkpt lat="49.99308" lon="2.38426">
        <ele>112.9</ele>
        <time>2022-11-16T13:39:28Z</time>
      </trkpt>
      <trkpt lat="49.99309" lon="2.38425">
        <ele>112.9</ele>
        <time>2022-11-16T13:39:29Z</time>
      </trkpt>
      <trkpt lat="49.99309" lon="2.38425">
        <ele>112.9</ele>
        <time>2022-11-16T13:39:30Z</time>
      </trkpt>
      <trkpt lat="49.99309" lon="2.38425">
        <ele>112.9</ele>
        <time>2022-11-16T13:39:31Z</time>
      </trkpt>
      <trkpt lat="49.99309" lon="2.38425">
        <ele>112.9</ele>
        <time>2022-11-16T13:39:32Z</time>
      </trkpt>
      <trkpt lat="49.99309" lon="2.38425">
        <ele>112.9</ele>
        <time>2022-11-16T13:39:33Z</time>
      </trkpt>
      <trkpt lat="49.99309" lon="2.38425">
        <ele>112.9</ele>
        <time>2022-11-16T13:39:34Z</time>
      </trkpt>
      <trkpt lat="49.99309" lon="2.38425">
        <ele>112.9</ele>
        <time>2022-11-16T13:39:35Z</time>
      </trkpt>
      <trkpt lat="49.99309" lon="2.38425">
        <ele>112.9</ele>
        <time>2022-11-16T13:39:36Z</time>
      </trkpt>
      <trkpt lat="49.99309" lon="2.38426">
        <ele>112.9</ele>
        <time>2022-11-16T13:39:37Z</time>
      </trkpt>
      <trkpt lat="49.99309" lon="2.38426">
        <ele>112.9</ele>
        <time>2022-11-16T13:39:38Z</time>
      </trkpt>
      <trkpt lat="49.99309" lon="2.38426">
        <ele>112.9</ele>
        <time>2022-11-16T13:39:39Z</time>
      </trkpt>
      <trkpt lat="49.99309" lon="2.38426">
        <ele>112.9</ele>
        <time>2022-11-16T13:39:40Z</time>
      </trkpt>
      <trkpt lat="49.99309" lon="2.38426">
        <ele>112.9</ele>
        <time>2022-11-16T13:39:41Z</time>
      </trkpt>
      <trkpt lat="49.99309" lon="2.38426">
        <ele>112.9</ele>
        <time>2022-11-16T13:39:42Z</time>
      </trkpt>
      <trkpt lat="49.99309" lon="2.38426">
        <ele>112.9</ele>
        <time>2022-11-16T13:39:43Z</time>
      </trkpt>
      <trkpt lat="49.99309" lon="2.38426">
        <ele>112.9</ele>
        <time>2022-11-16T13:39:44Z</time>
      </trkpt>
      <trkpt lat="49.99309" lon="2.38426">
        <ele>112.9</ele>
        <time>2022-11-16T13:39:45Z</time>
      </trkpt>
      <trkpt lat="49.99309" lon="2.38426">
        <ele>112.9</ele>
        <time>2022-11-16T13:39:46Z</time>
      </trkpt>
      <trkpt lat="49.99309" lon="2.38426">
        <ele>112.9</ele>
        <time>2022-11-16T13:39:47Z</time>
      </trkpt>
      <trkpt lat="49.99309" lon="2.38426">
        <ele>112.9</ele>
        <time>2022-11-16T13:39:48Z</time>
      </trkpt>
      <trkpt lat="49.99309" lon="2.38426">
        <ele>112.9</ele>
        <time>2022-11-16T13:39:49Z</time>
      </trkpt>
      <trkpt lat="49.99309" lon="2.38426">
        <ele>112.9</ele>
        <time>2022-11-16T13:39:50Z</time>
      </trkpt>
      <trkpt lat="49.99309" lon="2.38426">
        <ele>112.9</ele>
        <time>2022-11-16T13:39:51Z</time>
      </trkpt>
      <trkpt lat="49.99309" lon="2.38426">
        <ele>112.9</ele>
        <time>2022-11-16T13:39:52Z</time>
      </trkpt>
      <trkpt lat="49.99309" lon="2.38426">
        <ele>112.9</ele>
        <time>2022-11-16T13:39:53Z</time>
      </trkpt>
      <trkpt lat="49.99309" lon="2.38426">
        <ele>112.9</ele>
        <time>2022-11-16T13:39:54Z</time>
      </trkpt>
      <trkpt lat="49.99309" lon="2.38426">
        <ele>112.9</ele>
        <time>2022-11-16T13:39:55Z</time>
      </trkpt>
      <trkpt lat="49.99309" lon="2.38426">
        <ele>112.9</ele>
        <time>2022-11-16T13:39:56Z</time>
      </trkpt>
      <trkpt lat="49.99309" lon="2.38426">
        <ele>112.9</ele>
        <time>2022-11-16T13:39:57Z</time>
      </trkpt>
      <trkpt lat="49.99309" lon="2.38426">
        <ele>112.9</ele>
        <time>2022-11-16T13:39:58Z</time>
      </trkpt>
      <trkpt lat="49.99309" lon="2.38426">
        <ele>112.9</ele>
        <time>2022-11-16T13:39:59Z</time>
      </trkpt>
      <trkpt lat="49.99309" lon="2.38426">
        <ele>112.9</ele>
        <time>2022-11-16T13:40:00Z</time>
      </trkpt>
      <trkpt lat="49.99309" lon="2.38426">
        <ele>112.9</ele>
        <time>2022-11-16T13:40:01Z</time>
      </trkpt>
      <trkpt lat="49.99309" lon="2.38426">
        <ele>112.9</ele>
        <time>2022-11-16T13:40:02Z</time>
      </trkpt>
      <trkpt lat="49.99309" lon="2.38426">
        <ele>112.9</ele>
        <time>2022-11-16T13:40:03Z</time>
      </trkpt>
      <trkpt lat="49.99309" lon="2.38426">
        <ele>112.9</ele>
        <time>2022-11-16T13:40:04Z</time>
      </trkpt>
      <trkpt lat="49.99309" lon="2.38426">
        <ele>112.9</ele>
        <time>2022-11-16T13:40:05Z</time>
      </trkpt>
      <trkpt lat="49.99309" lon="2.38426">
        <ele>112.9</ele>
        <time>2022-11-16T13:40:06Z</time>
      </trkpt>
      <trkpt lat="49.99309" lon="2.38426">
        <ele>112.9</ele>
        <time>2022-11-16T13:40:07Z</time>
      </trkpt>
      <trkpt lat="49.99309" lon="2.38426">
        <ele>112.9</ele>
        <time>2022-11-16T13:40:08Z</time>
      </trkpt>
      <trkpt lat="49.99309" lon="2.38426">
        <ele>112.9</ele>
        <time>2022-11-16T13:40:09Z</time>
      </trkpt>
      <trkpt lat="49.99309" lon="2.38426">
        <ele>112.9</ele>
        <time>2022-11-16T13:40:10Z</time>
      </trkpt>
      <trkpt lat="49.99309" lon="2.38426">
        <ele>112.9</ele>
        <time>2022-11-16T13:40:11Z</time>
      </trkpt>
      <trkpt lat="49.99309" lon="2.38426">
        <ele>112.9</ele>
        <time>2022-11-16T13:40:12Z</time>
      </trkpt>
      <trkpt lat="49.99309" lon="2.38426">
        <ele>112.9</ele>
        <time>2022-11-16T13:40:13Z</time>
      </trkpt>
      <trkpt lat="49.99309" lon="2.38426">
        <ele>112.9</ele>
        <time>2022-11-16T13:40:14Z</time>
      </trkpt>
      <trkpt lat="49.99309" lon="2.38426">
        <ele>112.9</ele>
        <time>2022-11-16T13:40:15Z</time>
      </trkpt>
      <trkpt lat="49.99309" lon="2.38426">
        <ele>112.9</ele>
        <time>2022-11-16T13:40:16Z</time>
      </trkpt>
      <trkpt lat="49.99309" lon="2.38426">
        <ele>112.9</ele>
        <time>2022-11-16T13:40:17Z</time>
      </trkpt>
      <trkpt lat="49.99309" lon="2.38426">
        <ele>112.9</ele>
        <time>2022-11-16T13:40:18Z</time>
      </trkpt>
      <trkpt lat="49.99309" lon="2.38426">
        <ele>112.9</ele>
        <time>2022-11-16T13:40:19Z</time>
      </trkpt>
      <trkpt lat="49.99309" lon="2.38426">
        <ele>112.9</ele>
        <time>2022-11-16T13:40:20Z</time>
      </trkpt>
      <trkpt lat="49.99309" lon="2.38426">
        <ele>112.9</ele>
        <time>2022-11-16T13:40:21Z</time>
      </trkpt>
      <trkpt lat="49.99309" lon="2.38426">
        <ele>112.9</ele>
        <time>2022-11-16T13:40:22Z</time>
      </trkpt>
      <trkpt lat="49.99309" lon="2.38426">
        <ele>112.9</ele>
        <time>2022-11-16T13:40:23Z</time>
      </trkpt>
      <trkpt lat="49.99309" lon="2.38426">
        <ele>112.9</ele>
        <time>2022-11-16T13:40:24Z</time>
      </trkpt>
      <trkpt lat="49.99309" lon="2.38426">
        <ele>112.9</ele>
        <time>2022-11-16T13:40:25Z</time>
      </trkpt>
      <trkpt lat="49.99309" lon="2.38426">
        <ele>112.9</ele>
        <time>2022-11-16T13:40:26Z</time>
      </trkpt>
      <trkpt lat="49.99309" lon="2.38426">
        <ele>112.9</ele>
        <time>2022-11-16T13:40:27Z</time>
      </trkpt>
      <trkpt lat="49.99309" lon="2.38426">
        <ele>112.9</ele>
        <time>2022-11-16T13:40:28Z</time>
      </trkpt>
      <trkpt lat="49.99309" lon="2.38426">
        <ele>112.9</ele>
        <time>2022-11-16T13:40:29Z</time>
      </trkpt>
      <trkpt lat="49.99309" lon="2.38426">
        <ele>112.9</ele>
        <time>2022-11-16T13:40:30Z</time>
      </trkpt>
      <trkpt lat="49.99309" lon="2.38426">
        <ele>112.9</ele>
        <time>2022-11-16T13:40:31Z</time>
      </trkpt>
      <trkpt lat="49.99309" lon="2.38426">
        <ele>112.9</ele>
        <time>2022-11-16T13:40:32Z</time>
      </trkpt>
      <trkpt lat="49.99309" lon="2.38426">
        <ele>112.9</ele>
        <time>2022-11-16T13:40:33Z</time>
      </trkpt>
      <trkpt lat="49.99309" lon="2.38426">
        <ele>112.9</ele>
        <time>2022-11-16T13:40:34Z</time>
      </trkpt>
      <trkpt lat="49.99309" lon="2.38426">
        <ele>112.9</ele>
        <time>2022-11-16T13:40:35Z</time>
      </trkpt>
      <trkpt lat="49.99309" lon="2.38426">
        <ele>112.9</ele>
        <time>2022-11-16T13:40:36Z</time>
      </trkpt>
      <trkpt lat="49.99309" lon="2.38426">
        <ele>112.9</ele>
        <time>2022-11-16T13:40:37Z</time>
      </trkpt>
      <trkpt lat="49.99309" lon="2.38426">
        <ele>112.9</ele>
        <time>2022-11-16T13:40:38Z</time>
      </trkpt>
      <trkpt lat="49.99309" lon="2.38426">
        <ele>112.9</ele>
        <time>2022-11-16T13:40:39Z</time>
      </trkpt>
      <trkpt lat="49.99309" lon="2.38426">
        <ele>112.9</ele>
        <time>2022-11-16T13:40:40Z</time>
      </trkpt>
      <trkpt lat="49.99309" lon="2.38426">
        <ele>112.9</ele>
        <time>2022-11-16T13:40:41Z</time>
      </trkpt>
      <trkpt lat="49.99309" lon="2.38426">
        <ele>112.9</ele>
        <time>2022-11-16T13:40:42Z</time>
      </trkpt>
      <trkpt lat="49.99309" lon="2.38426">
        <ele>112.9</ele>
        <time>2022-11-16T13:40:43Z</time>
      </trkpt>
      <trkpt lat="49.99309" lon="2.38426">
        <ele>112.9</ele>
        <time>2022-11-16T13:40:44Z</time>
      </trkpt>
      <trkpt lat="49.99309" lon="2.38426">
        <ele>112.9</ele>
        <time>2022-11-16T13:40:45Z</time>
      </trkpt>
      <trkpt lat="49.99309" lon="2.38426">
        <ele>112.9</ele>
        <time>2022-11-16T13:40:46Z</time>
      </trkpt>
      <trkpt lat="49.99309" lon="2.38426">
        <ele>112.9</ele>
        <time>2022-11-16T13:40:47Z</time>
      </trkpt>
      <trkpt lat="49.99309" lon="2.38426">
        <ele>112.9</ele>
        <time>2022-11-16T13:40:48Z</time>
      </trkpt>
      <trkpt lat="49.99309" lon="2.38426">
        <ele>112.9</ele>
        <time>2022-11-16T13:40:49Z</time>
      </trkpt>
      <trkpt lat="49.99309" lon="2.38426">
        <ele>112.9</ele>
        <time>2022-11-16T13:40:50Z</time>
      </trkpt>
      <trkpt lat="49.99309" lon="2.38426">
        <ele>112.9</ele>
        <time>2022-11-16T13:40:51Z</time>
      </trkpt>
      <trkpt lat="49.99309" lon="2.38426">
        <ele>112.9</ele>
        <time>2022-11-16T13:40:52Z</time>
      </trkpt>
      <trkpt lat="49.99309" lon="2.38426">
        <ele>112.9</ele>
        <time>2022-11-16T13:40:53Z</time>
      </trkpt>
      <trkpt lat="49.99309" lon="2.38426">
        <ele>112.9</ele>
        <time>2022-11-16T13:40:54Z</time>
      </trkpt>
      <trkpt lat="49.99309" lon="2.38426">
        <ele>112.9</ele>
        <time>2022-11-16T13:40:55Z</time>
      </trkpt>
      <trkpt lat="49.99309" lon="2.38426">
        <ele>112.9</ele>
        <time>2022-11-16T13:40:56Z</time>
      </trkpt>
      <trkpt lat="49.99309" lon="2.38426">
        <ele>112.9</ele>
        <time>2022-11-16T13:40:57Z</time>
      </trkpt>
      <trkpt lat="49.99309" lon="2.38426">
        <ele>112.9</ele>
        <time>2022-11-16T13:40:58Z</time>
      </trkpt>
      <trkpt lat="49.99309" lon="2.38426">
        <ele>112.9</ele>
        <time>2022-11-16T13:40:59Z</time>
      </trkpt>
      <trkpt lat="49.99309" lon="2.38426">
        <ele>112.9</ele>
        <time>2022-11-16T13:41:00Z</time>
      </trkpt>
      <trkpt lat="49.99309" lon="2.38426">
        <ele>112.9</ele>
        <time>2022-11-16T13:41:01Z</time>
      </trkpt>
      <trkpt lat="49.99309" lon="2.38426">
        <ele>112.9</ele>
        <time>2022-11-16T13:41:02Z</time>
      </trkpt>
      <trkpt lat="49.99309" lon="2.38426">
        <ele>112.9</ele>
        <time>2022-11-16T13:41:03Z</time>
      </trkpt>
      <trkpt lat="49.99309" lon="2.38426">
        <ele>112.9</ele>
        <time>2022-11-16T13:41:04Z</time>
      </trkpt>
      <trkpt lat="49.99309" lon="2.38426">
        <ele>112.9</ele>
        <time>2022-11-16T13:41:05Z</time>
      </trkpt>
      <trkpt lat="49.99307" lon="2.38427">
        <ele>112.8</ele>
        <time>2022-11-16T13:41:06Z</time>
      </trkpt>
      <trkpt lat="49.99305" lon="2.38428">
        <ele>112.8</ele>
        <time>2022-11-16T13:41:07Z</time>
      </trkpt>
      <trkpt lat="49.99304" lon="2.38428">
        <ele>112.7</ele>
        <time>2022-11-16T13:41:08Z</time>
      </trkpt>
      <trkpt lat="49.99303" lon="2.38428">
        <ele>112.7</ele>
        <time>2022-11-16T13:41:09Z</time>
      </trkpt>
      <trkpt lat="49.99303" lon="2.38427">
        <ele>112.7</ele>
        <time>2022-11-16T13:41:10Z</time>
      </trkpt>
      <trkpt lat="49.99302" lon="2.38427">
        <ele>112.7</ele>
        <time>2022-11-16T13:41:11Z</time>
      </trkpt>
      <trkpt lat="49.99301" lon="2.38426">
        <ele>112.6</ele>
        <time>2022-11-16T13:41:12Z</time>
      </trkpt>
      <trkpt lat="49.993" lon="2.38426">
        <ele>112.6</ele>
        <time>2022-11-16T13:41:13Z</time>
      </trkpt>
      <trkpt lat="49.99299" lon="2.38425">
        <ele>112.4</ele>
        <time>2022-11-16T13:41:14Z</time>
      </trkpt>
      <trkpt lat="49.99298" lon="2.38425">
        <ele>112.4</ele>
        <time>2022-11-16T13:41:16Z</time>
      </trkpt>
      <trkpt lat="49.99297" lon="2.38425">
        <ele>112.4</ele>
        <time>2022-11-16T13:41:17Z</time>
      </trkpt>
      <trkpt lat="49.99296" lon="2.38424">
        <ele>112.4</ele>
        <time>2022-11-16T13:41:18Z</time>
      </trkpt>
      <trkpt lat="49.99296" lon="2.38424">
        <ele>112.3</ele>
        <time>2022-11-16T13:41:19Z</time>
      </trkpt>
      <trkpt lat="49.99294" lon="2.38423">
        <ele>112.3</ele>
        <time>2022-11-16T13:41:20Z</time>
      </trkpt>
      <trkpt lat="49.99293" lon="2.38423">
        <ele>112.3</ele>
        <time>2022-11-16T13:41:22Z</time>
      </trkpt>
      <trkpt lat="49.99292" lon="2.38422">
        <ele>112.2</ele>
        <time>2022-11-16T13:41:23Z</time>
      </trkpt>
      <trkpt lat="49.9929" lon="2.38422">
        <ele>112.2</ele>
        <time>2022-11-16T13:41:24Z</time>
      </trkpt>
      <trkpt lat="49.99289" lon="2.38422">
        <ele>112.1</ele>
        <time>2022-11-16T13:41:25Z</time>
      </trkpt>
      <trkpt lat="49.99288" lon="2.38422">
        <ele>112.1</ele>
        <time>2022-11-16T13:41:26Z</time>
      </trkpt>
      <trkpt lat="49.99286" lon="2.38421">
        <ele>112</ele>
        <time>2022-11-16T13:41:27Z</time>
      </trkpt>
      <trkpt lat="49.99286" lon="2.38421">
        <ele>112</ele>
        <time>2022-11-16T13:41:28Z</time>
      </trkpt>
      <trkpt lat="49.99285" lon="2.38421">
        <ele>112</ele>
        <time>2022-11-16T13:41:29Z</time>
      </trkpt>
      <trkpt lat="49.99284" lon="2.38421">
        <ele>112</ele>
        <time>2022-11-16T13:41:31Z</time>
      </trkpt>
      <trkpt lat="49.99283" lon="2.38421">
        <ele>111.9</ele>
        <time>2022-11-16T13:41:32Z</time>
      </trkpt>
      <trkpt lat="49.99281" lon="2.38422">
        <ele>111.9</ele>
        <time>2022-11-16T13:41:33Z</time>
      </trkpt>
      <trkpt lat="49.99279" lon="2.38422">
        <ele>111.8</ele>
        <time>2022-11-16T13:41:34Z</time>
      </trkpt>
      <trkpt lat="49.99279" lon="2.38423">
        <ele>111.8</ele>
        <time>2022-11-16T13:41:35Z</time>
      </trkpt>
      <trkpt lat="49.99278" lon="2.38423">
        <ele>111.8</ele>
        <time>2022-11-16T13:41:36Z</time>
      </trkpt>
      <trkpt lat="49.99277" lon="2.38423">
        <ele>111.8</ele>
        <time>2022-11-16T13:41:37Z</time>
      </trkpt>
      <trkpt lat="49.99276" lon="2.38423">
        <ele>111.7</ele>
        <time>2022-11-16T13:41:38Z</time>
      </trkpt>
      <trkpt lat="49.99275" lon="2.38423">
        <ele>111.7</ele>
        <time>2022-11-16T13:41:39Z</time>
      </trkpt>
      <trkpt lat="49.99273" lon="2.38423">
        <ele>111.7</ele>
        <time>2022-11-16T13:41:41Z</time>
      </trkpt>
      <trkpt lat="49.99272" lon="2.38423">
        <ele>111.6</ele>
        <time>2022-11-16T13:41:42Z</time>
      </trkpt>
      <trkpt lat="49.99272" lon="2.38422">
        <ele>111.6</ele>
        <time>2022-11-16T13:41:43Z</time>
      </trkpt>
      <trkpt lat="49.99271" lon="2.38422">
        <ele>111.6</ele>
        <time>2022-11-16T13:41:44Z</time>
      </trkpt>
      <trkpt lat="49.9927" lon="2.38421">
        <ele>111.6</ele>
        <time>2022-11-16T13:41:45Z</time>
      </trkpt>
      <trkpt lat="49.99269" lon="2.38421">
        <ele>111.5</ele>
        <time>2022-11-16T13:41:46Z</time>
      </trkpt>
      <trkpt lat="49.99267" lon="2.3842">
        <ele>111.5</ele>
        <time>2022-11-16T13:41:47Z</time>
      </trkpt>
      <trkpt lat="49.99266" lon="2.3842">
        <ele>111.4</ele>
        <time>2022-11-16T13:41:48Z</time>
      </trkpt>
      <trkpt lat="49.99265" lon="2.3842">
        <ele>111.4</ele>
        <time>2022-11-16T13:41:49Z</time>
      </trkpt>
      <trkpt lat="49.99264" lon="2.3842">
        <ele>111.4</ele>
        <time>2022-11-16T13:41:50Z</time>
      </trkpt>
      <trkpt lat="49.99263" lon="2.3842">
        <ele>111.3</ele>
        <time>2022-11-16T13:41:51Z</time>
      </trkpt>
      <trkpt lat="49.99262" lon="2.3842">
        <ele>111.3</ele>
        <time>2022-11-16T13:41:53Z</time>
      </trkpt>
      <trkpt lat="49.99261" lon="2.3842">
        <ele>111.3</ele>
        <time>2022-11-16T13:41:54Z</time>
      </trkpt>
      <trkpt lat="49.9926" lon="2.3842">
        <ele>111.3</ele>
        <time>2022-11-16T13:41:55Z</time>
      </trkpt>
      <trkpt lat="49.99258" lon="2.38419">
        <ele>111.2</ele>
        <time>2022-11-16T13:41:56Z</time>
      </trkpt>
      <trkpt lat="49.99257" lon="2.38419">
        <ele>111.2</ele>
        <time>2022-11-16T13:41:57Z</time>
      </trkpt>
      <trkpt lat="49.99255" lon="2.38419">
        <ele>111.1</ele>
        <time>2022-11-16T13:41:58Z</time>
      </trkpt>
      <trkpt lat="49.99254" lon="2.38419">
        <ele>111.1</ele>
        <time>2022-11-16T13:41:59Z</time>
      </trkpt>
      <trkpt lat="49.99252" lon="2.38419">
        <ele>111</ele>
        <time>2022-11-16T13:42:00Z</time>
      </trkpt>
      <trkpt lat="49.99251" lon="2.38419">
        <ele>111</ele>
        <time>2022-11-16T13:42:01Z</time>
      </trkpt>
      <trkpt lat="49.9925" lon="2.38418">
        <ele>111</ele>
        <time>2022-11-16T13:42:02Z</time>
      </trkpt>
      <trkpt lat="49.99249" lon="2.38418">
        <ele>110.9</ele>
        <time>2022-11-16T13:42:04Z</time>
      </trkpt>
      <trkpt lat="49.99248" lon="2.38418">
        <ele>110.9</ele>
        <time>2022-11-16T13:42:05Z</time>
      </trkpt>
      <trkpt lat="49.99247" lon="2.38417">
        <ele>110.9</ele>
        <time>2022-11-16T13:42:06Z</time>
      </trkpt>
      <trkpt lat="49.99246" lon="2.38417">
        <ele>110.8</ele>
        <time>2022-11-16T13:42:07Z</time>
      </trkpt>
      <trkpt lat="49.99244" lon="2.38416">
        <ele>110.8</ele>
        <time>2022-11-16T13:42:08Z</time>
      </trkpt>
      <trkpt lat="49.99243" lon="2.38416">
        <ele>110.8</ele>
        <time>2022-11-16T13:42:09Z</time>
      </trkpt>
      <trkpt lat="49.99242" lon="2.38415">
        <ele>110.7</ele>
        <time>2022-11-16T13:42:10Z</time>
      </trkpt>
      <trkpt lat="49.99241" lon="2.38415">
        <ele>110.7</ele>
        <time>2022-11-16T13:42:11Z</time>
      </trkpt>
      <trkpt lat="49.9924" lon="2.38415">
        <ele>110.7</ele>
        <time>2022-11-16T13:42:12Z</time>
      </trkpt>
      <trkpt lat="49.99238" lon="2.38414">
        <ele>110.6</ele>
        <time>2022-11-16T13:42:13Z</time>
      </trkpt>
      <trkpt lat="49.99237" lon="2.38413">
        <ele>110.6</ele>
        <time>2022-11-16T13:42:14Z</time>
      </trkpt>
      <trkpt lat="49.99236" lon="2.38413">
        <ele>110.5</ele>
        <time>2022-11-16T13:42:15Z</time>
      </trkpt>
      <trkpt lat="49.99235" lon="2.38412">
        <ele>110.5</ele>
        <time>2022-11-16T13:42:17Z</time>
      </trkpt>
      <trkpt lat="49.99234" lon="2.38412">
        <ele>110.5</ele>
        <time>2022-11-16T13:42:18Z</time>
      </trkpt>
      <trkpt lat="49.99233" lon="2.38411">
        <ele>110.4</ele>
        <time>2022-11-16T13:42:19Z</time>
      </trkpt>
      <trkpt lat="49.99232" lon="2.38411">
        <ele>110.4</ele>
        <time>2022-11-16T13:42:20Z</time>
      </trkpt>
      <trkpt lat="49.99231" lon="2.38411">
        <ele>110.4</ele>
        <time>2022-11-16T13:42:21Z</time>
      </trkpt>
      <trkpt lat="49.99229" lon="2.38411">
        <ele>110.3</ele>
        <time>2022-11-16T13:42:22Z</time>
      </trkpt>
      <trkpt lat="49.99228" lon="2.38411">
        <ele>110.3</ele>
        <time>2022-11-16T13:42:23Z</time>
      </trkpt>
      <trkpt lat="49.99227" lon="2.3841">
        <ele>110.3</ele>
        <time>2022-11-16T13:42:24Z</time>
      </trkpt>
      <trkpt lat="49.99224" lon="2.3841">
        <ele>110.2</ele>
        <time>2022-11-16T13:42:25Z</time>
      </trkpt>
      <trkpt lat="49.99224" lon="2.3841">
        <ele>110.2</ele>
        <time>2022-11-16T13:42:26Z</time>
      </trkpt>
      <trkpt lat="49.99223" lon="2.3841">
        <ele>110.2</ele>
        <time>2022-11-16T13:42:27Z</time>
      </trkpt>
      <trkpt lat="49.99221" lon="2.3841">
        <ele>110.1</ele>
        <time>2022-11-16T13:42:28Z</time>
      </trkpt>
      <trkpt lat="49.9922" lon="2.3841">
        <ele>110.1</ele>
        <time>2022-11-16T13:42:30Z</time>
      </trkpt>
      <trkpt lat="49.99219" lon="2.3841">
        <ele>110</ele>
        <time>2022-11-16T13:42:31Z</time>
      </trkpt>
      <trkpt lat="49.99218" lon="2.3841">
        <ele>110</ele>
        <time>2022-11-16T13:42:32Z</time>
      </trkpt>
      <trkpt lat="49.99217" lon="2.38409">
        <ele>110</ele>
        <time>2022-11-16T13:42:33Z</time>
      </trkpt>
      <trkpt lat="49.99216" lon="2.38409">
        <ele>110</ele>
        <time>2022-11-16T13:42:34Z</time>
      </trkpt>
      <trkpt lat="49.99214" lon="2.38409">
        <ele>109.9</ele>
        <time>2022-11-16T13:42:35Z</time>
      </trkpt>
      <trkpt lat="49.99213" lon="2.38409">
        <ele>109.9</ele>
        <time>2022-11-16T13:42:36Z</time>
      </trkpt>
      <trkpt lat="49.99212" lon="2.38409">
        <ele>109.9</ele>
        <time>2022-11-16T13:42:37Z</time>
      </trkpt>
      <trkpt lat="49.99212" lon="2.38409">
        <ele>109.8</ele>
        <time>2022-11-16T13:42:38Z</time>
      </trkpt>
      <trkpt lat="49.9921" lon="2.38409">
        <ele>109.8</ele>
        <time>2022-11-16T13:42:39Z</time>
      </trkpt>
      <trkpt lat="49.99209" lon="2.38408">
        <ele>109.8</ele>
        <time>2022-11-16T13:42:41Z</time>
      </trkpt>
      <trkpt lat="49.99208" lon="2.38408">
        <ele>109.7</ele>
        <time>2022-11-16T13:42:42Z</time>
      </trkpt>
      <trkpt lat="49.99207" lon="2.38408">
        <ele>109.7</ele>
        <time>2022-11-16T13:42:43Z</time>
      </trkpt>
      <trkpt lat="49.99206" lon="2.38408">
        <ele>109.7</ele>
        <time>2022-11-16T13:42:44Z</time>
      </trkpt>
      <trkpt lat="49.99204" lon="2.38409">
        <ele>109.7</ele>
        <time>2022-11-16T13:42:45Z</time>
      </trkpt>
      <trkpt lat="49.99203" lon="2.38409">
        <ele>109.7</ele>
        <time>2022-11-16T13:42:46Z</time>
      </trkpt>
      <trkpt lat="49.99202" lon="2.38409">
        <ele>109.6</ele>
        <time>2022-11-16T13:42:47Z</time>
      </trkpt>
      <trkpt lat="49.99201" lon="2.38409">
        <ele>109.6</ele>
        <time>2022-11-16T13:42:48Z</time>
      </trkpt>
      <trkpt lat="49.99199" lon="2.38409">
        <ele>109.6</ele>
        <time>2022-11-16T13:42:49Z</time>
      </trkpt>
      <trkpt lat="49.99198" lon="2.38409">
        <ele>109.6</ele>
        <time>2022-11-16T13:42:50Z</time>
      </trkpt>
      <trkpt lat="49.99197" lon="2.38409">
        <ele>109.6</ele>
        <time>2022-11-16T13:42:51Z</time>
      </trkpt>
      <trkpt lat="49.99195" lon="2.38409">
        <ele>109.5</ele>
        <time>2022-11-16T13:42:52Z</time>
      </trkpt>
      <trkpt lat="49.99194" lon="2.3841">
        <ele>109.5</ele>
        <time>2022-11-16T13:42:53Z</time>
      </trkpt>
      <trkpt lat="49.99192" lon="2.3841">
        <ele>109.5</ele>
        <time>2022-11-16T13:42:55Z</time>
      </trkpt>
      <trkpt lat="49.99191" lon="2.3841">
        <ele>109.5</ele>
        <time>2022-11-16T13:42:56Z</time>
      </trkpt>
      <trkpt lat="49.9919" lon="2.3841">
        <ele>109.5</ele>
        <time>2022-11-16T13:42:57Z</time>
      </trkpt>
      <trkpt lat="49.99189" lon="2.3841">
        <ele>109.4</ele>
        <time>2022-11-16T13:42:58Z</time>
      </trkpt>
      <trkpt lat="49.99188" lon="2.3841">
        <ele>109.4</ele>
        <time>2022-11-16T13:42:59Z</time>
      </trkpt>
      <trkpt lat="49.99187" lon="2.3841">
        <ele>109.4</ele>
        <time>2022-11-16T13:43:00Z</time>
      </trkpt>
      <trkpt lat="49.99185" lon="2.3841">
        <ele>109.4</ele>
        <time>2022-11-16T13:43:01Z</time>
      </trkpt>
      <trkpt lat="49.99184" lon="2.3841">
        <ele>109.4</ele>
        <time>2022-11-16T13:43:02Z</time>
      </trkpt>
      <trkpt lat="49.99182" lon="2.3841">
        <ele>109.4</ele>
        <time>2022-11-16T13:43:03Z</time>
      </trkpt>
      <trkpt lat="49.99181" lon="2.38411">
        <ele>109.5</ele>
        <time>2022-11-16T13:43:04Z</time>
      </trkpt>
      <trkpt lat="49.9918" lon="2.38411">
        <ele>109.5</ele>
        <time>2022-11-16T13:43:05Z</time>
      </trkpt>
      <trkpt lat="49.99178" lon="2.38411">
        <ele>109.5</ele>
        <time>2022-11-16T13:43:06Z</time>
      </trkpt>
      <trkpt lat="49.99177" lon="2.38411">
        <ele>109.5</ele>
        <time>2022-11-16T13:43:08Z</time>
      </trkpt>
      <trkpt lat="49.99175" lon="2.38411">
        <ele>109.5</ele>
        <time>2022-11-16T13:43:09Z</time>
      </trkpt>
      <trkpt lat="49.99174" lon="2.38411">
        <ele>109.5</ele>
        <time>2022-11-16T13:43:10Z</time>
      </trkpt>
      <trkpt lat="49.99173" lon="2.38411">
        <ele>109.6</ele>
        <time>2022-11-16T13:43:11Z</time>
      </trkpt>
      <trkpt lat="49.99171" lon="2.38412">
        <ele>109.6</ele>
        <time>2022-11-16T13:43:12Z</time>
      </trkpt>
      <trkpt lat="49.9917" lon="2.38412">
        <ele>109.6</ele>
        <time>2022-11-16T13:43:13Z</time>
      </trkpt>
      <trkpt lat="49.99168" lon="2.38412">
        <ele>109.6</ele>
        <time>2022-11-16T13:43:14Z</time>
      </trkpt>
      <trkpt lat="49.99167" lon="2.38412">
        <ele>109.6</ele>
        <time>2022-11-16T13:43:15Z</time>
      </trkpt>
      <trkpt lat="49.99166" lon="2.38413">
        <ele>109.6</ele>
        <time>2022-11-16T13:43:17Z</time>
      </trkpt>
      <trkpt lat="49.99165" lon="2.38413">
        <ele>109.6</ele>
        <time>2022-11-16T13:43:18Z</time>
      </trkpt>
      <trkpt lat="49.99164" lon="2.38413">
        <ele>109.6</ele>
        <time>2022-11-16T13:43:19Z</time>
      </trkpt>
      <trkpt lat="49.99162" lon="2.38413">
        <ele>109.6</ele>
        <time>2022-11-16T13:43:20Z</time>
      </trkpt>
      <trkpt lat="49.99161" lon="2.38413">
        <ele>109.6</ele>
        <time>2022-11-16T13:43:21Z</time>
      </trkpt>
      <trkpt lat="49.9916" lon="2.38413">
        <ele>109.6</ele>
        <time>2022-11-16T13:43:22Z</time>
      </trkpt>
      <trkpt lat="49.99159" lon="2.38413">
        <ele>109.6</ele>
        <time>2022-11-16T13:43:23Z</time>
      </trkpt>
      <trkpt lat="49.99158" lon="2.38413">
        <ele>109.7</ele>
        <time>2022-11-16T13:43:24Z</time>
      </trkpt>
      <trkpt lat="49.99157" lon="2.38413">
        <ele>109.7</ele>
        <time>2022-11-16T13:43:25Z</time>
      </trkpt>
      <trkpt lat="49.99156" lon="2.38412">
        <ele>109.7</ele>
        <time>2022-11-16T13:43:26Z</time>
      </trkpt>
      <trkpt lat="49.99155" lon="2.38412">
        <ele>109.7</ele>
        <time>2022-11-16T13:43:28Z</time>
      </trkpt>
      <trkpt lat="49.99154" lon="2.38412">
        <ele>109.7</ele>
        <time>2022-11-16T13:43:29Z</time>
      </trkpt>
      <trkpt lat="49.99153" lon="2.38411">
        <ele>109.7</ele>
        <time>2022-11-16T13:43:30Z</time>
      </trkpt>
      <trkpt lat="49.99152" lon="2.38411">
        <ele>109.7</ele>
        <time>2022-11-16T13:43:31Z</time>
      </trkpt>
      <trkpt lat="49.99151" lon="2.38411">
        <ele>109.6</ele>
        <time>2022-11-16T13:43:32Z</time>
      </trkpt>
      <trkpt lat="49.99149" lon="2.38412">
        <ele>109.6</ele>
        <time>2022-11-16T13:43:33Z</time>
      </trkpt>
      <trkpt lat="49.99148" lon="2.38412">
        <ele>109.6</ele>
        <time>2022-11-16T13:43:34Z</time>
      </trkpt>
      <trkpt lat="49.99147" lon="2.38412">
        <ele>109.6</ele>
        <time>2022-11-16T13:43:35Z</time>
      </trkpt>
      <trkpt lat="49.99145" lon="2.38411">
        <ele>109.6</ele>
        <time>2022-11-16T13:43:36Z</time>
      </trkpt>
      <trkpt lat="49.99144" lon="2.38411">
        <ele>109.6</ele>
        <time>2022-11-16T13:43:37Z</time>
      </trkpt>
      <trkpt lat="49.99143" lon="2.38411">
        <ele>109.6</ele>
        <time>2022-11-16T13:43:38Z</time>
      </trkpt>
      <trkpt lat="49.99142" lon="2.3841">
        <ele>109.6</ele>
        <time>2022-11-16T13:43:40Z</time>
      </trkpt>
      <trkpt lat="49.99141" lon="2.3841">
        <ele>109.6</ele>
        <time>2022-11-16T13:43:41Z</time>
      </trkpt>
      <trkpt lat="49.9914" lon="2.3841">
        <ele>109.6</ele>
        <time>2022-11-16T13:43:42Z</time>
      </trkpt>
      <trkpt lat="49.99138" lon="2.3841">
        <ele>109.6</ele>
        <time>2022-11-16T13:43:43Z</time>
      </trkpt>
      <trkpt lat="49.99137" lon="2.3841">
        <ele>109.6</ele>
        <time>2022-11-16T13:43:44Z</time>
      </trkpt>
      <trkpt lat="49.99137" lon="2.38409">
        <ele>109.6</ele>
        <time>2022-11-16T13:43:45Z</time>
      </trkpt>
      <trkpt lat="49.99135" lon="2.38409">
        <ele>109.6</ele>
        <time>2022-11-16T13:43:46Z</time>
      </trkpt>
      <trkpt lat="49.99134" lon="2.38409">
        <ele>109.6</ele>
        <time>2022-11-16T13:43:47Z</time>
      </trkpt>
      <trkpt lat="49.99133" lon="2.38408">
        <ele>109.5</ele>
        <time>2022-11-16T13:43:48Z</time>
      </trkpt>
      <trkpt lat="49.99131" lon="2.38408">
        <ele>109.5</ele>
        <time>2022-11-16T13:43:49Z</time>
      </trkpt>
      <trkpt lat="49.9913" lon="2.38408">
        <ele>109.5</ele>
        <time>2022-11-16T13:43:51Z</time>
      </trkpt>
      <trkpt lat="49.99128" lon="2.38407">
        <ele>109.5</ele>
        <time>2022-11-16T13:43:52Z</time>
      </trkpt>
      <trkpt lat="49.99126" lon="2.38407">
        <ele>109.4</ele>
        <time>2022-11-16T13:43:53Z</time>
      </trkpt>
      <trkpt lat="49.99125" lon="2.38406">
        <ele>109.4</ele>
        <time>2022-11-16T13:43:54Z</time>
      </trkpt>
      <trkpt lat="49.99124" lon="2.38406">
        <ele>109.4</ele>
        <time>2022-11-16T13:43:55Z</time>
      </trkpt>
      <trkpt lat="49.99123" lon="2.38406">
        <ele>109.4</ele>
        <time>2022-11-16T13:43:56Z</time>
      </trkpt>
      <trkpt lat="49.99122" lon="2.38406">
        <ele>109.4</ele>
        <time>2022-11-16T13:43:57Z</time>
      </trkpt>
      <trkpt lat="49.9912" lon="2.38406">
        <ele>109.3</ele>
        <time>2022-11-16T13:43:58Z</time>
      </trkpt>
      <trkpt lat="49.99119" lon="2.38405">
        <ele>109.3</ele>
        <time>2022-11-16T13:43:59Z</time>
      </trkpt>
      <trkpt lat="49.99117" lon="2.38405">
        <ele>109.3</ele>
        <time>2022-11-16T13:44:00Z</time>
      </trkpt>
      <trkpt lat="49.99116" lon="2.38405">
        <ele>109.3</ele>
        <time>2022-11-16T13:44:01Z</time>
      </trkpt>
      <trkpt lat="49.99114" lon="2.38405">
        <ele>109.2</ele>
        <time>2022-11-16T13:44:02Z</time>
      </trkpt>
      <trkpt lat="49.99113" lon="2.38405">
        <ele>109.2</ele>
        <time>2022-11-16T13:44:04Z</time>
      </trkpt>
      <trkpt lat="49.99112" lon="2.38405">
        <ele>109.2</ele>
        <time>2022-11-16T13:44:05Z</time>
      </trkpt>
      <trkpt lat="49.99111" lon="2.38405">
        <ele>109.2</ele>
        <time>2022-11-16T13:44:06Z</time>
      </trkpt>
      <trkpt lat="49.9911" lon="2.38405">
        <ele>109.1</ele>
        <time>2022-11-16T13:44:07Z</time>
      </trkpt>
      <trkpt lat="49.99108" lon="2.38405">
        <ele>109.1</ele>
        <time>2022-11-16T13:44:08Z</time>
      </trkpt>
      <trkpt lat="49.99106" lon="2.38405">
        <ele>109.1</ele>
        <time>2022-11-16T13:44:09Z</time>
      </trkpt>
      <trkpt lat="49.99105" lon="2.38405">
        <ele>109.1</ele>
        <time>2022-11-16T13:44:10Z</time>
      </trkpt>
      <trkpt lat="49.99104" lon="2.38405">
        <ele>109</ele>
        <time>2022-11-16T13:44:11Z</time>
      </trkpt>
      <trkpt lat="49.99102" lon="2.38405">
        <ele>109</ele>
        <time>2022-11-16T13:44:12Z</time>
      </trkpt>
      <trkpt lat="49.99101" lon="2.38405">
        <ele>109</ele>
        <time>2022-11-16T13:44:13Z</time>
      </trkpt>
      <trkpt lat="49.99099" lon="2.38405">
        <ele>108.9</ele>
        <time>2022-11-16T13:44:14Z</time>
      </trkpt>
      <trkpt lat="49.99098" lon="2.38405">
        <ele>108.9</ele>
        <time>2022-11-16T13:44:16Z</time>
      </trkpt>
      <trkpt lat="49.99097" lon="2.38405">
        <ele>108.9</ele>
        <time>2022-11-16T13:44:17Z</time>
      </trkpt>
      <trkpt lat="49.99096" lon="2.38405">
        <ele>108.9</ele>
        <time>2022-11-16T13:44:18Z</time>
      </trkpt>
      <trkpt lat="49.99095" lon="2.38405">
        <ele>108.8</ele>
        <time>2022-11-16T13:44:19Z</time>
      </trkpt>
      <trkpt lat="49.99094" lon="2.38405">
        <ele>108.8</ele>
        <time>2022-11-16T13:44:20Z</time>
      </trkpt>
      <trkpt lat="49.99092" lon="2.38404">
        <ele>108.8</ele>
        <time>2022-11-16T13:44:21Z</time>
      </trkpt>
      <trkpt lat="49.99091" lon="2.38404">
        <ele>108.7</ele>
        <time>2022-11-16T13:44:22Z</time>
      </trkpt>
      <trkpt lat="49.9909" lon="2.38404">
        <ele>108.7</ele>
        <time>2022-11-16T13:44:23Z</time>
      </trkpt>
      <trkpt lat="49.99088" lon="2.38404">
        <ele>108.7</ele>
        <time>2022-11-16T13:44:24Z</time>
      </trkpt>
      <trkpt lat="49.99087" lon="2.38404">
        <ele>108.7</ele>
        <time>2022-11-16T13:44:25Z</time>
      </trkpt>
      <trkpt lat="49.99086" lon="2.38404">
        <ele>108.6</ele>
        <time>2022-11-16T13:44:26Z</time>
      </trkpt>
      <trkpt lat="49.99084" lon="2.38404">
        <ele>108.6</ele>
        <time>2022-11-16T13:44:27Z</time>
      </trkpt>
      <trkpt lat="49.99083" lon="2.38404">
        <ele>108.6</ele>
        <time>2022-11-16T13:44:29Z</time>
      </trkpt>
      <trkpt lat="49.99082" lon="2.38404">
        <ele>108.5</ele>
        <time>2022-11-16T13:44:30Z</time>
      </trkpt>
      <trkpt lat="49.9908" lon="2.38404">
        <ele>108.5</ele>
        <time>2022-11-16T13:44:31Z</time>
      </trkpt>
      <trkpt lat="49.9908" lon="2.38403">
        <ele>108.5</ele>
        <time>2022-11-16T13:44:32Z</time>
      </trkpt>
      <trkpt lat="49.99079" lon="2.38403">
        <ele>108.5</ele>
        <time>2022-11-16T13:44:33Z</time>
      </trkpt>
      <trkpt lat="49.99077" lon="2.38403">
        <ele>108.4</ele>
        <time>2022-11-16T13:44:34Z</time>
      </trkpt>
      <trkpt lat="49.99076" lon="2.38403">
        <ele>108.4</ele>
        <time>2022-11-16T13:44:35Z</time>
      </trkpt>
      <trkpt lat="49.99075" lon="2.38403">
        <ele>108.4</ele>
        <time>2022-11-16T13:44:36Z</time>
      </trkpt>
      <trkpt lat="49.99074" lon="2.38403">
        <ele>108.3</ele>
        <time>2022-11-16T13:44:37Z</time>
      </trkpt>
      <trkpt lat="49.99072" lon="2.38403">
        <ele>108.3</ele>
        <time>2022-11-16T13:44:38Z</time>
      </trkpt>
      <trkpt lat="49.99071" lon="2.38403">
        <ele>108.3</ele>
        <time>2022-11-16T13:44:40Z</time>
      </trkpt>
      <trkpt lat="49.9907" lon="2.38402">
        <ele>108.2</ele>
        <time>2022-11-16T13:44:41Z</time>
      </trkpt>
      <trkpt lat="49.99069" lon="2.38402">
        <ele>108.2</ele>
        <time>2022-11-16T13:44:42Z</time>
      </trkpt>
      <trkpt lat="49.99068" lon="2.38401">
        <ele>108.2</ele>
        <time>2022-11-16T13:44:43Z</time>
      </trkpt>
      <trkpt lat="49.99066" lon="2.38401">
        <ele>108.1</ele>
        <time>2022-11-16T13:44:44Z</time>
      </trkpt>
      <trkpt lat="49.99065" lon="2.38401">
        <ele>108.1</ele>
        <time>2022-11-16T13:44:45Z</time>
      </trkpt>
      <trkpt lat="49.99064" lon="2.38401">
        <ele>108.1</ele>
        <time>2022-11-16T13:44:46Z</time>
      </trkpt>
      <trkpt lat="49.99063" lon="2.384">
        <ele>108</ele>
        <time>2022-11-16T13:44:47Z</time>
      </trkpt>
      <trkpt lat="49.99062" lon="2.384">
        <ele>108</ele>
        <time>2022-11-16T13:44:48Z</time>
      </trkpt>
      <trkpt lat="49.99061" lon="2.384">
        <ele>108</ele>
        <time>2022-11-16T13:44:49Z</time>
      </trkpt>
      <trkpt lat="49.99058" lon="2.384">
        <ele>107.9</ele>
        <time>2022-11-16T13:44:50Z</time>
      </trkpt>
      <trkpt lat="49.99058" lon="2.384">
        <ele>107.9</ele>
        <time>2022-11-16T13:44:52Z</time>
      </trkpt>
      <trkpt lat="49.99057" lon="2.384">
        <ele>107.8</ele>
        <time>2022-11-16T13:44:53Z</time>
      </trkpt>
      <trkpt lat="49.99056" lon="2.38399">
        <ele>107.8</ele>
        <time>2022-11-16T13:44:54Z</time>
      </trkpt>
      <trkpt lat="49.99055" lon="2.38399">
        <ele>107.8</ele>
        <time>2022-11-16T13:44:55Z</time>
      </trkpt>
      <trkpt lat="49.99054" lon="2.38399">
        <ele>107.7</ele>
        <time>2022-11-16T13:44:56Z</time>
      </trkpt>
      <trkpt lat="49.99052" lon="2.38398">
        <ele>107.7</ele>
        <time>2022-11-16T13:44:57Z</time>
      </trkpt>
      <trkpt lat="49.99051" lon="2.38398">
        <ele>107.7</ele>
        <time>2022-11-16T13:44:58Z</time>
      </trkpt>
      <trkpt lat="49.9905" lon="2.38398">
        <ele>107.6</ele>
        <time>2022-11-16T13:44:59Z</time>
      </trkpt>
      <trkpt lat="49.99047" lon="2.38398">
        <ele>107.5</ele>
        <time>2022-11-16T13:45:00Z</time>
      </trkpt>
      <trkpt lat="49.99047" lon="2.38397">
        <ele>107.5</ele>
        <time>2022-11-16T13:45:01Z</time>
      </trkpt>
      <trkpt lat="49.99046" lon="2.38397">
        <ele>107.5</ele>
        <time>2022-11-16T13:45:02Z</time>
      </trkpt>
      <trkpt lat="49.99044" lon="2.38397">
        <ele>107.4</ele>
        <time>2022-11-16T13:45:03Z</time>
      </trkpt>
      <trkpt lat="49.99043" lon="2.38397">
        <ele>107.4</ele>
        <time>2022-11-16T13:45:05Z</time>
      </trkpt>
      <trkpt lat="49.99042" lon="2.38397">
        <ele>107.4</ele>
        <time>2022-11-16T13:45:06Z</time>
      </trkpt>
      <trkpt lat="49.9904" lon="2.38397">
        <ele>107.3</ele>
        <time>2022-11-16T13:45:07Z</time>
      </trkpt>
      <trkpt lat="49.99039" lon="2.38397">
        <ele>107.3</ele>
        <time>2022-11-16T13:45:08Z</time>
      </trkpt>
      <trkpt lat="49.99038" lon="2.38396">
        <ele>107.2</ele>
        <time>2022-11-16T13:45:09Z</time>
      </trkpt>
      <trkpt lat="49.99037" lon="2.38396">
        <ele>107.2</ele>
        <time>2022-11-16T13:45:10Z</time>
      </trkpt>
      <trkpt lat="49.99035" lon="2.38396">
        <ele>107.1</ele>
        <time>2022-11-16T13:45:11Z</time>
      </trkpt>
      <trkpt lat="49.99034" lon="2.38396">
        <ele>107</ele>
        <time>2022-11-16T13:45:12Z</time>
      </trkpt>
      <trkpt lat="49.99033" lon="2.38396">
        <ele>107</ele>
        <time>2022-11-16T13:45:13Z</time>
      </trkpt>
      <trkpt lat="49.9903" lon="2.38396">
        <ele>106.9</ele>
        <time>2022-11-16T13:45:14Z</time>
      </trkpt>
      <trkpt lat="49.99029" lon="2.38396">
        <ele>106.8</ele>
        <time>2022-11-16T13:45:16Z</time>
      </trkpt>
      <trkpt lat="49.99028" lon="2.38395">
        <ele>106.8</ele>
        <time>2022-11-16T13:45:17Z</time>
      </trkpt>
      <trkpt lat="49.99027" lon="2.38395">
        <ele>106.7</ele>
        <time>2022-11-16T13:45:18Z</time>
      </trkpt>
      <trkpt lat="49.99026" lon="2.38395">
        <ele>106.7</ele>
        <time>2022-11-16T13:45:19Z</time>
      </trkpt>
      <trkpt lat="49.99024" lon="2.38395">
        <ele>106.6</ele>
        <time>2022-11-16T13:45:20Z</time>
      </trkpt>
      <trkpt lat="49.99023" lon="2.38395">
        <ele>106.6</ele>
        <time>2022-11-16T13:45:21Z</time>
      </trkpt>
      <trkpt lat="49.99022" lon="2.38395">
        <ele>106.5</ele>
        <time>2022-11-16T13:45:22Z</time>
      </trkpt>
      <trkpt lat="49.99021" lon="2.38395">
        <ele>106.5</ele>
        <time>2022-11-16T13:45:23Z</time>
      </trkpt>
      <trkpt lat="49.9902" lon="2.38394">
        <ele>106.4</ele>
        <time>2022-11-16T13:45:24Z</time>
      </trkpt>
      <trkpt lat="49.99018" lon="2.38394">
        <ele>106.4</ele>
        <time>2022-11-16T13:45:25Z</time>
      </trkpt>
      <trkpt lat="49.99017" lon="2.38394">
        <ele>106.3</ele>
        <time>2022-11-16T13:45:26Z</time>
      </trkpt>
      <trkpt lat="49.99015" lon="2.38393">
        <ele>106.2</ele>
        <time>2022-11-16T13:45:28Z</time>
      </trkpt>
      <trkpt lat="49.99014" lon="2.38393">
        <ele>106.2</ele>
        <time>2022-11-16T13:45:29Z</time>
      </trkpt>
      <trkpt lat="49.99013" lon="2.38393">
        <ele>106.1</ele>
        <time>2022-11-16T13:45:30Z</time>
      </trkpt>
      <trkpt lat="49.99012" lon="2.38393">
        <ele>106.1</ele>
        <time>2022-11-16T13:45:31Z</time>
      </trkpt>
      <trkpt lat="49.99011" lon="2.38393">
        <ele>106</ele>
        <time>2022-11-16T13:45:32Z</time>
      </trkpt>
      <trkpt lat="49.9901" lon="2.38393">
        <ele>106</ele>
        <time>2022-11-16T13:45:33Z</time>
      </trkpt>
      <trkpt lat="49.99009" lon="2.38393">
        <ele>105.9</ele>
        <time>2022-11-16T13:45:34Z</time>
      </trkpt>
      <trkpt lat="49.99007" lon="2.38393">
        <ele>105.9</ele>
        <time>2022-11-16T13:45:35Z</time>
      </trkpt>
      <trkpt lat="49.99006" lon="2.38393">
        <ele>105.9</ele>
        <time>2022-11-16T13:45:36Z</time>
      </trkpt>
      <trkpt lat="49.99005" lon="2.38393">
        <ele>105.8</ele>
        <time>2022-11-16T13:45:37Z</time>
      </trkpt>
      <trkpt lat="49.99004" lon="2.38393">
        <ele>105.8</ele>
        <time>2022-11-16T13:45:38Z</time>
      </trkpt>
      <trkpt lat="49.99003" lon="2.38392">
        <ele>105.8</ele>
        <time>2022-11-16T13:45:39Z</time>
      </trkpt>
      <trkpt lat="49.99002" lon="2.38392">
        <ele>105.7</ele>
        <time>2022-11-16T13:45:41Z</time>
      </trkpt>
      <trkpt lat="49.99001" lon="2.38392">
        <ele>105.7</ele>
        <time>2022-11-16T13:45:42Z</time>
      </trkpt>
      <trkpt lat="49.99" lon="2.38392">
        <ele>105.7</ele>
        <time>2022-11-16T13:45:43Z</time>
      </trkpt>
      <trkpt lat="49.98999" lon="2.38392">
        <ele>105.6</ele>
        <time>2022-11-16T13:45:44Z</time>
      </trkpt>
      <trkpt lat="49.98997" lon="2.38393">
        <ele>105.6</ele>
        <time>2022-11-16T13:45:45Z</time>
      </trkpt>
      <trkpt lat="49.98996" lon="2.38393">
        <ele>105.5</ele>
        <time>2022-11-16T13:45:46Z</time>
      </trkpt>
      <trkpt lat="49.98995" lon="2.38393">
        <ele>105.5</ele>
        <time>2022-11-16T13:45:47Z</time>
      </trkpt>
      <trkpt lat="49.98993" lon="2.38393">
        <ele>105.5</ele>
        <time>2022-11-16T13:45:48Z</time>
      </trkpt>
      <trkpt lat="49.98992" lon="2.38394">
        <ele>105.4</ele>
        <time>2022-11-16T13:45:49Z</time>
      </trkpt>
      <trkpt lat="49.9899" lon="2.38394">
        <ele>105.4</ele>
        <time>2022-11-16T13:45:50Z</time>
      </trkpt>
      <trkpt lat="49.98989" lon="2.38395">
        <ele>105.4</ele>
        <time>2022-11-16T13:45:51Z</time>
      </trkpt>
      <trkpt lat="49.98988" lon="2.38395">
        <ele>105.3</ele>
        <time>2022-11-16T13:45:53Z</time>
      </trkpt>
      <trkpt lat="49.98987" lon="2.38396">
        <ele>105.3</ele>
        <time>2022-11-16T13:45:54Z</time>
      </trkpt>
      <trkpt lat="49.98986" lon="2.38396">
        <ele>105.3</ele>
        <time>2022-11-16T13:45:55Z</time>
      </trkpt>
      <trkpt lat="49.98985" lon="2.38397">
        <ele>105.2</ele>
        <time>2022-11-16T13:45:56Z</time>
      </trkpt>
      <trkpt lat="49.98983" lon="2.38397">
        <ele>105.2</ele>
        <time>2022-11-16T13:45:57Z</time>
      </trkpt>
      <trkpt lat="49.98982" lon="2.38397">
        <ele>105.1</ele>
        <time>2022-11-16T13:45:58Z</time>
      </trkpt>
      <trkpt lat="49.98979" lon="2.38398">
        <ele>105.1</ele>
        <time>2022-11-16T13:45:59Z</time>
      </trkpt>
      <trkpt lat="49.98978" lon="2.38398">
        <ele>105</ele>
        <time>2022-11-16T13:46:01Z</time>
      </trkpt>
      <trkpt lat="49.98977" lon="2.38398">
        <ele>105</ele>
        <time>2022-11-16T13:46:02Z</time>
      </trkpt>
      <trkpt lat="49.98976" lon="2.38398">
        <ele>105</ele>
        <time>2022-11-16T13:46:03Z</time>
      </trkpt>
      <trkpt lat="49.98975" lon="2.38398">
        <ele>104.9</ele>
        <time>2022-11-16T13:46:04Z</time>
      </trkpt>
      <trkpt lat="49.98974" lon="2.38399">
        <ele>104.9</ele>
        <time>2022-11-16T13:46:05Z</time>
      </trkpt>
      <trkpt lat="49.98972" lon="2.38399">
        <ele>104.9</ele>
        <time>2022-11-16T13:46:06Z</time>
      </trkpt>
      <trkpt lat="49.98971" lon="2.38399">
        <ele>104.8</ele>
        <time>2022-11-16T13:46:07Z</time>
      </trkpt>
      <trkpt lat="49.9897" lon="2.384">
        <ele>104.8</ele>
        <time>2022-11-16T13:46:08Z</time>
      </trkpt>
      <trkpt lat="49.98969" lon="2.38401">
        <ele>104.8</ele>
        <time>2022-11-16T13:46:09Z</time>
      </trkpt>
      <trkpt lat="49.98967" lon="2.38402">
        <ele>104.7</ele>
        <time>2022-11-16T13:46:10Z</time>
      </trkpt>
      <trkpt lat="49.98966" lon="2.38402">
        <ele>104.7</ele>
        <time>2022-11-16T13:46:11Z</time>
      </trkpt>
      <trkpt lat="49.98965" lon="2.38402">
        <ele>104.6</ele>
        <time>2022-11-16T13:46:12Z</time>
      </trkpt>
      <trkpt lat="49.98963" lon="2.38403">
        <ele>104.6</ele>
        <time>2022-11-16T13:46:14Z</time>
      </trkpt>
      <trkpt lat="49.98962" lon="2.38403">
        <ele>104.6</ele>
        <time>2022-11-16T13:46:15Z</time>
      </trkpt>
      <trkpt lat="49.98962" lon="2.38403">
        <ele>104.5</ele>
        <time>2022-11-16T13:46:16Z</time>
      </trkpt>
      <trkpt lat="49.9896" lon="2.38402">
        <ele>104.5</ele>
        <time>2022-11-16T13:46:17Z</time>
      </trkpt>
      <trkpt lat="49.98959" lon="2.38401">
        <ele>104.4</ele>
        <time>2022-11-16T13:46:18Z</time>
      </trkpt>
      <trkpt lat="49.98958" lon="2.38401">
        <ele>104.4</ele>
        <time>2022-11-16T13:46:19Z</time>
      </trkpt>
      <trkpt lat="49.98956" lon="2.384">
        <ele>104.4</ele>
        <time>2022-11-16T13:46:20Z</time>
      </trkpt>
      <trkpt lat="49.98955" lon="2.38399">
        <ele>104.3</ele>
        <time>2022-11-16T13:46:22Z</time>
      </trkpt>
      <trkpt lat="49.98954" lon="2.38399">
        <ele>104.3</ele>
        <time>2022-11-16T13:46:23Z</time>
      </trkpt>
      <trkpt lat="49.98953" lon="2.38398">
        <ele>104.3</ele>
        <time>2022-11-16T13:46:24Z</time>
      </trkpt>
      <trkpt lat="49.98952" lon="2.38398">
        <ele>104.3</ele>
        <time>2022-11-16T13:46:25Z</time>
      </trkpt>
      <trkpt lat="49.98951" lon="2.38397">
        <ele>104.2</ele>
        <time>2022-11-16T13:46:26Z</time>
      </trkpt>
      <trkpt lat="49.98949" lon="2.38397">
        <ele>104.2</ele>
        <time>2022-11-16T13:46:27Z</time>
      </trkpt>
      <trkpt lat="49.98949" lon="2.38397">
        <ele>104.1</ele>
        <time>2022-11-16T13:46:28Z</time>
      </trkpt>
      <trkpt lat="49.98948" lon="2.38397">
        <ele>104.1</ele>
        <time>2022-11-16T13:46:29Z</time>
      </trkpt>
      <trkpt lat="49.98946" lon="2.38396">
        <ele>104.1</ele>
        <time>2022-11-16T13:46:30Z</time>
      </trkpt>
      <trkpt lat="49.98945" lon="2.38395">
        <ele>104</ele>
        <time>2022-11-16T13:46:32Z</time>
      </trkpt>
      <trkpt lat="49.98944" lon="2.38395">
        <ele>104</ele>
        <time>2022-11-16T13:46:33Z</time>
      </trkpt>
      <trkpt lat="49.98942" lon="2.38394">
        <ele>103.9</ele>
        <time>2022-11-16T13:46:34Z</time>
      </trkpt>
      <trkpt lat="49.98941" lon="2.38394">
        <ele>103.9</ele>
        <time>2022-11-16T13:46:35Z</time>
      </trkpt>
      <trkpt lat="49.9894" lon="2.38394">
        <ele>103.9</ele>
        <time>2022-11-16T13:46:36Z</time>
      </trkpt>
      <trkpt lat="49.98939" lon="2.38394">
        <ele>103.8</ele>
        <time>2022-11-16T13:46:37Z</time>
      </trkpt>
      <trkpt lat="49.98938" lon="2.38393">
        <ele>103.8</ele>
        <time>2022-11-16T13:46:38Z</time>
      </trkpt>
      <trkpt lat="49.98936" lon="2.38393">
        <ele>103.7</ele>
        <time>2022-11-16T13:46:39Z</time>
      </trkpt>
      <trkpt lat="49.98935" lon="2.38393">
        <ele>103.7</ele>
        <time>2022-11-16T13:46:40Z</time>
      </trkpt>
      <trkpt lat="49.98934" lon="2.38393">
        <ele>103.7</ele>
        <time>2022-11-16T13:46:41Z</time>
      </trkpt>
      <trkpt lat="49.98933" lon="2.38393">
        <ele>103.6</ele>
        <time>2022-11-16T13:46:43Z</time>
      </trkpt>
      <trkpt lat="49.98931" lon="2.38393">
        <ele>103.6</ele>
        <time>2022-11-16T13:46:44Z</time>
      </trkpt>
      <trkpt lat="49.9893" lon="2.38392">
        <ele>103.6</ele>
        <time>2022-11-16T13:46:45Z</time>
      </trkpt>
      <trkpt lat="49.98928" lon="2.38392">
        <ele>103.5</ele>
        <time>2022-11-16T13:46:46Z</time>
      </trkpt>
      <trkpt lat="49.98928" lon="2.38392">
        <ele>103.5</ele>
        <time>2022-11-16T13:46:47Z</time>
      </trkpt>
      <trkpt lat="49.98927" lon="2.38392">
        <ele>103.4</ele>
        <time>2022-11-16T13:46:48Z</time>
      </trkpt>
      <trkpt lat="49.98925" lon="2.38391">
        <ele>103.4</ele>
        <time>2022-11-16T13:46:49Z</time>
      </trkpt>
      <trkpt lat="49.98924" lon="2.38391">
        <ele>103.3</ele>
        <time>2022-11-16T13:46:50Z</time>
      </trkpt>
      <trkpt lat="49.98922" lon="2.3839">
        <ele>103.3</ele>
        <time>2022-11-16T13:46:51Z</time>
      </trkpt>
      <trkpt lat="49.98921" lon="2.38389">
        <ele>103.2</ele>
        <time>2022-11-16T13:46:52Z</time>
      </trkpt>
      <trkpt lat="49.9892" lon="2.38389">
        <ele>103.2</ele>
        <time>2022-11-16T13:46:53Z</time>
      </trkpt>
      <trkpt lat="49.98919" lon="2.38388">
        <ele>103.1</ele>
        <time>2022-11-16T13:46:55Z</time>
      </trkpt>
      <trkpt lat="49.98918" lon="2.38388">
        <ele>103.1</ele>
        <time>2022-11-16T13:46:56Z</time>
      </trkpt>
      <trkpt lat="49.98917" lon="2.38387">
        <ele>103.1</ele>
        <time>2022-11-16T13:46:57Z</time>
      </trkpt>
      <trkpt lat="49.98916" lon="2.38387">
        <ele>103</ele>
        <time>2022-11-16T13:46:58Z</time>
      </trkpt>
      <trkpt lat="49.98915" lon="2.38386">
        <ele>103</ele>
        <time>2022-11-16T13:46:59Z</time>
      </trkpt>
      <trkpt lat="49.98914" lon="2.38385">
        <ele>102.9</ele>
        <time>2022-11-16T13:47:01Z</time>
      </trkpt>
      <trkpt lat="49.98913" lon="2.38385">
        <ele>102.9</ele>
        <time>2022-11-16T13:47:02Z</time>
      </trkpt>
      <trkpt lat="49.98912" lon="2.38385">
        <ele>102.8</ele>
        <time>2022-11-16T13:47:03Z</time>
      </trkpt>
      <trkpt lat="49.9891" lon="2.38384">
        <ele>102.8</ele>
        <time>2022-11-16T13:47:04Z</time>
      </trkpt>
      <trkpt lat="49.98908" lon="2.38384">
        <ele>102.7</ele>
        <time>2022-11-16T13:47:05Z</time>
      </trkpt>
      <trkpt lat="49.98907" lon="2.38384">
        <ele>102.7</ele>
        <time>2022-11-16T13:47:06Z</time>
      </trkpt>
      <trkpt lat="49.98907" lon="2.38384">
        <ele>102.6</ele>
        <time>2022-11-16T13:47:07Z</time>
      </trkpt>
      <trkpt lat="49.98905" lon="2.38384">
        <ele>102.6</ele>
        <time>2022-11-16T13:47:08Z</time>
      </trkpt>
      <trkpt lat="49.98904" lon="2.38384">
        <ele>102.5</ele>
        <time>2022-11-16T13:47:09Z</time>
      </trkpt>
      <trkpt lat="49.98903" lon="2.38384">
        <ele>102.5</ele>
        <time>2022-11-16T13:47:10Z</time>
      </trkpt>
      <trkpt lat="49.98901" lon="2.38385">
        <ele>102.4</ele>
        <time>2022-11-16T13:47:12Z</time>
      </trkpt>
      <trkpt lat="49.989" lon="2.38385">
        <ele>102.3</ele>
        <time>2022-11-16T13:47:13Z</time>
      </trkpt>
      <trkpt lat="49.98899" lon="2.38385">
        <ele>102.3</ele>
        <time>2022-11-16T13:47:14Z</time>
      </trkpt>
      <trkpt lat="49.98897" lon="2.38385">
        <ele>102.2</ele>
        <time>2022-11-16T13:47:15Z</time>
      </trkpt>
      <trkpt lat="49.98896" lon="2.38384">
        <ele>102.2</ele>
        <time>2022-11-16T13:47:16Z</time>
      </trkpt>
      <trkpt lat="49.98895" lon="2.38384">
        <ele>102.1</ele>
        <time>2022-11-16T13:47:17Z</time>
      </trkpt>
      <trkpt lat="49.98893" lon="2.38384">
        <ele>102.1</ele>
        <time>2022-11-16T13:47:18Z</time>
      </trkpt>
      <trkpt lat="49.98892" lon="2.38384">
        <ele>102</ele>
        <time>2022-11-16T13:47:19Z</time>
      </trkpt>
      <trkpt lat="49.98891" lon="2.38384">
        <ele>102</ele>
        <time>2022-11-16T13:47:21Z</time>
      </trkpt>
      <trkpt lat="49.9889" lon="2.38385">
        <ele>101.9</ele>
        <time>2022-11-16T13:47:22Z</time>
      </trkpt>
      <trkpt lat="49.98889" lon="2.38385">
        <ele>101.9</ele>
        <time>2022-11-16T13:47:23Z</time>
      </trkpt>
      <trkpt lat="49.98887" lon="2.38385">
        <ele>101.8</ele>
        <time>2022-11-16T13:47:24Z</time>
      </trkpt>
      <trkpt lat="49.98886" lon="2.38385">
        <ele>101.8</ele>
        <time>2022-11-16T13:47:25Z</time>
      </trkpt>
      <trkpt lat="49.98885" lon="2.38385">
        <ele>101.7</ele>
        <time>2022-11-16T13:47:26Z</time>
      </trkpt>
      <trkpt lat="49.98883" lon="2.38385">
        <ele>101.6</ele>
        <time>2022-11-16T13:47:27Z</time>
      </trkpt>
      <trkpt lat="49.98882" lon="2.38385">
        <ele>101.6</ele>
        <time>2022-11-16T13:47:28Z</time>
      </trkpt>
      <trkpt lat="49.98881" lon="2.38384">
        <ele>101.6</ele>
        <time>2022-11-16T13:47:29Z</time>
      </trkpt>
      <trkpt lat="49.98879" lon="2.38384">
        <ele>101.5</ele>
        <time>2022-11-16T13:47:30Z</time>
      </trkpt>
      <trkpt lat="49.98878" lon="2.38384">
        <ele>101.4</ele>
        <time>2022-11-16T13:47:32Z</time>
      </trkpt>
      <trkpt lat="49.98878" lon="2.38384">
        <ele>101.4</ele>
        <time>2022-11-16T13:47:33Z</time>
      </trkpt>
      <trkpt lat="49.98877" lon="2.38384">
        <ele>101.3</ele>
        <time>2022-11-16T13:47:34Z</time>
      </trkpt>
      <trkpt lat="49.98875" lon="2.38383">
        <ele>101.3</ele>
        <time>2022-11-16T13:47:35Z</time>
      </trkpt>
      <trkpt lat="49.98874" lon="2.38383">
        <ele>101.2</ele>
        <time>2022-11-16T13:47:36Z</time>
      </trkpt>
      <trkpt lat="49.98873" lon="2.38384">
        <ele>101.2</ele>
        <time>2022-11-16T13:47:37Z</time>
      </trkpt>
      <trkpt lat="49.98871" lon="2.38384">
        <ele>101.1</ele>
        <time>2022-11-16T13:47:38Z</time>
      </trkpt>
      <trkpt lat="49.9887" lon="2.38384">
        <ele>101</ele>
        <time>2022-11-16T13:47:39Z</time>
      </trkpt>
      <trkpt lat="49.98868" lon="2.38384">
        <ele>100.9</ele>
        <time>2022-11-16T13:47:40Z</time>
      </trkpt>
      <trkpt lat="49.98867" lon="2.38385">
        <ele>100.8</ele>
        <time>2022-11-16T13:47:41Z</time>
      </trkpt>
      <trkpt lat="49.98865" lon="2.38385">
        <ele>100.8</ele>
        <time>2022-11-16T13:47:42Z</time>
      </trkpt>
      <trkpt lat="49.98864" lon="2.38386">
        <ele>100.7</ele>
        <time>2022-11-16T13:47:43Z</time>
      </trkpt>
      <trkpt lat="49.98862" lon="2.38386">
        <ele>100.6</ele>
        <time>2022-11-16T13:47:45Z</time>
      </trkpt>
      <trkpt lat="49.98861" lon="2.38387">
        <ele>100.5</ele>
        <time>2022-11-16T13:47:46Z</time>
      </trkpt>
      <trkpt lat="49.9886" lon="2.38387">
        <ele>100.5</ele>
        <time>2022-11-16T13:47:47Z</time>
      </trkpt>
      <trkpt lat="49.98858" lon="2.38388">
        <ele>100.4</ele>
        <time>2022-11-16T13:47:48Z</time>
      </trkpt>
      <trkpt lat="49.98857" lon="2.38389">
        <ele>100.3</ele>
        <time>2022-11-16T13:47:49Z</time>
      </trkpt>
      <trkpt lat="49.98855" lon="2.38389">
        <ele>100.2</ele>
        <time>2022-11-16T13:47:50Z</time>
      </trkpt>
      <trkpt lat="49.98854" lon="2.38389">
        <ele>100.1</ele>
        <time>2022-11-16T13:47:51Z</time>
      </trkpt>
      <trkpt lat="49.98852" lon="2.3839">
        <ele>100</ele>
        <time>2022-11-16T13:47:52Z</time>
      </trkpt>
      <trkpt lat="49.9885" lon="2.3839">
        <ele>99.9</ele>
        <time>2022-11-16T13:47:53Z</time>
      </trkpt>
      <trkpt lat="49.98849" lon="2.3839">
        <ele>99.9</ele>
        <time>2022-11-16T13:47:54Z</time>
      </trkpt>
      <trkpt lat="49.98847" lon="2.38391">
        <ele>99.8</ele>
        <time>2022-11-16T13:47:55Z</time>
      </trkpt>
      <trkpt lat="49.98845" lon="2.38391">
        <ele>99.6</ele>
        <time>2022-11-16T13:47:56Z</time>
      </trkpt>
      <trkpt lat="49.98844" lon="2.38391">
        <ele>99.6</ele>
        <time>2022-11-16T13:47:58Z</time>
      </trkpt>
      <trkpt lat="49.98843" lon="2.38391">
        <ele>99.5</ele>
        <time>2022-11-16T13:47:59Z</time>
      </trkpt>
      <trkpt lat="49.98841" lon="2.38391">
        <ele>99.5</ele>
        <time>2022-11-16T13:48:00Z</time>
      </trkpt>
      <trkpt lat="49.9884" lon="2.38391">
        <ele>99.4</ele>
        <time>2022-11-16T13:48:01Z</time>
      </trkpt>
      <trkpt lat="49.98838" lon="2.38391">
        <ele>99.3</ele>
        <time>2022-11-16T13:48:02Z</time>
      </trkpt>
      <trkpt lat="49.98837" lon="2.38391">
        <ele>99.2</ele>
        <time>2022-11-16T13:48:03Z</time>
      </trkpt>
      <trkpt lat="49.98836" lon="2.38391">
        <ele>99.2</ele>
        <time>2022-11-16T13:48:04Z</time>
      </trkpt>
      <trkpt lat="49.98835" lon="2.38391">
        <ele>99.1</ele>
        <time>2022-11-16T13:48:05Z</time>
      </trkpt>
      <trkpt lat="49.98834" lon="2.38391">
        <ele>99.1</ele>
        <time>2022-11-16T13:48:06Z</time>
      </trkpt>
      <trkpt lat="49.98833" lon="2.38391">
        <ele>99</ele>
        <time>2022-11-16T13:48:07Z</time>
      </trkpt>
      <trkpt lat="49.98832" lon="2.38391">
        <ele>99</ele>
        <time>2022-11-16T13:48:09Z</time>
      </trkpt>
      <trkpt lat="49.98831" lon="2.38391">
        <ele>98.9</ele>
        <time>2022-11-16T13:48:10Z</time>
      </trkpt>
      <trkpt lat="49.9883" lon="2.3839">
        <ele>98.8</ele>
        <time>2022-11-16T13:48:11Z</time>
      </trkpt>
      <trkpt lat="49.9883" lon="2.3839">
        <ele>98.8</ele>
        <time>2022-11-16T13:48:12Z</time>
      </trkpt>
      <trkpt lat="49.98829" lon="2.3839">
        <ele>98.7</ele>
        <time>2022-11-16T13:48:13Z</time>
      </trkpt>
      <trkpt lat="49.98827" lon="2.3839">
        <ele>98.7</ele>
        <time>2022-11-16T13:48:14Z</time>
      </trkpt>
      <trkpt lat="49.98825" lon="2.3839">
        <ele>98.6</ele>
        <time>2022-11-16T13:48:15Z</time>
      </trkpt>
      <trkpt lat="49.98824" lon="2.3839">
        <ele>98.5</ele>
        <time>2022-11-16T13:48:16Z</time>
      </trkpt>
      <trkpt lat="49.98823" lon="2.3839">
        <ele>98.4</ele>
        <time>2022-11-16T13:48:17Z</time>
      </trkpt>
      <trkpt lat="49.98822" lon="2.38389">
        <ele>98.4</ele>
        <time>2022-11-16T13:48:18Z</time>
      </trkpt>
      <trkpt lat="49.98821" lon="2.38389">
        <ele>98.3</ele>
        <time>2022-11-16T13:48:19Z</time>
      </trkpt>
      <trkpt lat="49.98819" lon="2.38388">
        <ele>98.1</ele>
        <time>2022-11-16T13:48:20Z</time>
      </trkpt>
      <trkpt lat="49.98818" lon="2.38388">
        <ele>98.1</ele>
        <time>2022-11-16T13:48:22Z</time>
      </trkpt>
      <trkpt lat="49.98817" lon="2.38388">
        <ele>98</ele>
        <time>2022-11-16T13:48:23Z</time>
      </trkpt>
      <trkpt lat="49.98816" lon="2.38387">
        <ele>98</ele>
        <time>2022-11-16T13:48:24Z</time>
      </trkpt>
      <trkpt lat="49.98815" lon="2.38387">
        <ele>97.9</ele>
        <time>2022-11-16T13:48:25Z</time>
      </trkpt>
      <trkpt lat="49.98814" lon="2.38387">
        <ele>97.8</ele>
        <time>2022-11-16T13:48:26Z</time>
      </trkpt>
      <trkpt lat="49.98813" lon="2.38386">
        <ele>97.7</ele>
        <time>2022-11-16T13:48:27Z</time>
      </trkpt>
      <trkpt lat="49.98811" lon="2.38386">
        <ele>97.6</ele>
        <time>2022-11-16T13:48:29Z</time>
      </trkpt>
      <trkpt lat="49.98811" lon="2.38385">
        <ele>97.5</ele>
        <time>2022-11-16T13:48:30Z</time>
      </trkpt>
      <trkpt lat="49.98809" lon="2.38385">
        <ele>97.5</ele>
        <time>2022-11-16T13:48:31Z</time>
      </trkpt>
      <trkpt lat="49.98808" lon="2.38384">
        <ele>97.3</ele>
        <time>2022-11-16T13:48:32Z</time>
      </trkpt>
      <trkpt lat="49.98806" lon="2.38384">
        <ele>97.2</ele>
        <time>2022-11-16T13:48:33Z</time>
      </trkpt>
      <trkpt lat="49.98805" lon="2.38383">
        <ele>97.1</ele>
        <time>2022-11-16T13:48:35Z</time>
      </trkpt>
      <trkpt lat="49.98804" lon="2.38383">
        <ele>97</ele>
        <time>2022-11-16T13:48:36Z</time>
      </trkpt>
      <trkpt lat="49.98803" lon="2.38384">
        <ele>97</ele>
        <time>2022-11-16T13:48:37Z</time>
      </trkpt>
      <trkpt lat="49.98802" lon="2.38384">
        <ele>96.9</ele>
        <time>2022-11-16T13:48:38Z</time>
      </trkpt>
      <trkpt lat="49.988" lon="2.38384">
        <ele>96.7</ele>
        <time>2022-11-16T13:48:39Z</time>
      </trkpt>
      <trkpt lat="49.98799" lon="2.38384">
        <ele>96.7</ele>
        <time>2022-11-16T13:48:40Z</time>
      </trkpt>
      <trkpt lat="49.98798" lon="2.38384">
        <ele>96.6</ele>
        <time>2022-11-16T13:48:41Z</time>
      </trkpt>
      <trkpt lat="49.98796" lon="2.38384">
        <ele>96.4</ele>
        <time>2022-11-16T13:48:42Z</time>
      </trkpt>
      <trkpt lat="49.98795" lon="2.38384">
        <ele>96.4</ele>
        <time>2022-11-16T13:48:43Z</time>
      </trkpt>
      <trkpt lat="49.98795" lon="2.38384">
        <ele>96.3</ele>
        <time>2022-11-16T13:48:44Z</time>
      </trkpt>
      <trkpt lat="49.98793" lon="2.38383">
        <ele>96.2</ele>
        <time>2022-11-16T13:48:45Z</time>
      </trkpt>
      <trkpt lat="49.98792" lon="2.38383">
        <ele>96.1</ele>
        <time>2022-11-16T13:48:46Z</time>
      </trkpt>
      <trkpt lat="49.98791" lon="2.38383">
        <ele>96</ele>
        <time>2022-11-16T13:48:48Z</time>
      </trkpt>
      <trkpt lat="49.98789" lon="2.38382">
        <ele>95.9</ele>
        <time>2022-11-16T13:48:49Z</time>
      </trkpt>
      <trkpt lat="49.98788" lon="2.38382">
        <ele>95.8</ele>
        <time>2022-11-16T13:48:50Z</time>
      </trkpt>
      <trkpt lat="49.98787" lon="2.38382">
        <ele>95.7</ele>
        <time>2022-11-16T13:48:51Z</time>
      </trkpt>
      <trkpt lat="49.98785" lon="2.38381">
        <ele>95.6</ele>
        <time>2022-11-16T13:48:52Z</time>
      </trkpt>
      <trkpt lat="49.98784" lon="2.38381">
        <ele>95.5</ele>
        <time>2022-11-16T13:48:53Z</time>
      </trkpt>
      <trkpt lat="49.98783" lon="2.38381">
        <ele>95.5</ele>
        <time>2022-11-16T13:48:54Z</time>
      </trkpt>
      <trkpt lat="49.98781" lon="2.38381">
        <ele>95.3</ele>
        <time>2022-11-16T13:48:55Z</time>
      </trkpt>
      <trkpt lat="49.9878" lon="2.3838">
        <ele>95.2</ele>
        <time>2022-11-16T13:48:56Z</time>
      </trkpt>
      <trkpt lat="49.98779" lon="2.3838">
        <ele>95.2</ele>
        <time>2022-11-16T13:48:57Z</time>
      </trkpt>
      <trkpt lat="49.98778" lon="2.3838">
        <ele>95.1</ele>
        <time>2022-11-16T13:48:58Z</time>
      </trkpt>
      <trkpt lat="49.98777" lon="2.38379">
        <ele>95</ele>
        <time>2022-11-16T13:49:00Z</time>
      </trkpt>
      <trkpt lat="49.98776" lon="2.38379">
        <ele>95</ele>
        <time>2022-11-16T13:49:01Z</time>
      </trkpt>
      <trkpt lat="49.98775" lon="2.38378">
        <ele>94.9</ele>
        <time>2022-11-16T13:49:02Z</time>
      </trkpt>
      <trkpt lat="49.98774" lon="2.38378">
        <ele>94.8</ele>
        <time>2022-11-16T13:49:03Z</time>
      </trkpt>
      <trkpt lat="49.98773" lon="2.38378">
        <ele>94.8</ele>
        <time>2022-11-16T13:49:04Z</time>
      </trkpt>
      <trkpt lat="49.98771" lon="2.38377">
        <ele>94.6</ele>
        <time>2022-11-16T13:49:05Z</time>
      </trkpt>
      <trkpt lat="49.9877" lon="2.38377">
        <ele>94.5</ele>
        <time>2022-11-16T13:49:07Z</time>
      </trkpt>
      <trkpt lat="49.98769" lon="2.38377">
        <ele>94.4</ele>
        <time>2022-11-16T13:49:08Z</time>
      </trkpt>
      <trkpt lat="49.98767" lon="2.38377">
        <ele>94.4</ele>
        <time>2022-11-16T13:49:09Z</time>
      </trkpt>
      <trkpt lat="49.98766" lon="2.38377">
        <ele>94.3</ele>
        <time>2022-11-16T13:49:10Z</time>
      </trkpt>
      <trkpt lat="49.98765" lon="2.38376">
        <ele>94.2</ele>
        <time>2022-11-16T13:49:11Z</time>
      </trkpt>
      <trkpt lat="49.98764" lon="2.38376">
        <ele>94.1</ele>
        <time>2022-11-16T13:49:12Z</time>
      </trkpt>
      <trkpt lat="49.98762" lon="2.38375">
        <ele>94.1</ele>
        <time>2022-11-16T13:49:14Z</time>
      </trkpt>
      <trkpt lat="49.98761" lon="2.38375">
        <ele>94</ele>
        <time>2022-11-16T13:49:15Z</time>
      </trkpt>
      <trkpt lat="49.9876" lon="2.38375">
        <ele>93.9</ele>
        <time>2022-11-16T13:49:16Z</time>
      </trkpt>
      <trkpt lat="49.98758" lon="2.38375">
        <ele>93.8</ele>
        <time>2022-11-16T13:49:17Z</time>
      </trkpt>
      <trkpt lat="49.98757" lon="2.38375">
        <ele>93.7</ele>
        <time>2022-11-16T13:49:18Z</time>
      </trkpt>
      <trkpt lat="49.98756" lon="2.38374">
        <ele>93.7</ele>
        <time>2022-11-16T13:49:19Z</time>
      </trkpt>
      <trkpt lat="49.98755" lon="2.38375">
        <ele>93.6</ele>
        <time>2022-11-16T13:49:20Z</time>
      </trkpt>
      <trkpt lat="49.98754" lon="2.38375">
        <ele>93.6</ele>
        <time>2022-11-16T13:49:21Z</time>
      </trkpt>
      <trkpt lat="49.98752" lon="2.38375">
        <ele>93.5</ele>
        <time>2022-11-16T13:49:23Z</time>
      </trkpt>
      <trkpt lat="49.98751" lon="2.38375">
        <ele>93.4</ele>
        <time>2022-11-16T13:49:24Z</time>
      </trkpt>
      <trkpt lat="49.9875" lon="2.38375">
        <ele>93.4</ele>
        <time>2022-11-16T13:49:25Z</time>
      </trkpt>
      <trkpt lat="49.98749" lon="2.38375">
        <ele>93.3</ele>
        <time>2022-11-16T13:49:26Z</time>
      </trkpt>
      <trkpt lat="49.98747" lon="2.38374">
        <ele>93.2</ele>
        <time>2022-11-16T13:49:27Z</time>
      </trkpt>
      <trkpt lat="49.98746" lon="2.38374">
        <ele>93.2</ele>
        <time>2022-11-16T13:49:28Z</time>
      </trkpt>
      <trkpt lat="49.98744" lon="2.38373">
        <ele>93.1</ele>
        <time>2022-11-16T13:49:30Z</time>
      </trkpt>
      <trkpt lat="49.98743" lon="2.38372">
        <ele>93</ele>
        <time>2022-11-16T13:49:31Z</time>
      </trkpt>
      <trkpt lat="49.98741" lon="2.38371">
        <ele>92.9</ele>
        <time>2022-11-16T13:49:32Z</time>
      </trkpt>
      <trkpt lat="49.9874" lon="2.38371">
        <ele>92.9</ele>
        <time>2022-11-16T13:49:33Z</time>
      </trkpt>
      <trkpt lat="49.9874" lon="2.38371">
        <ele>92.9</ele>
        <time>2022-11-16T13:49:34Z</time>
      </trkpt>
      <trkpt lat="49.98738" lon="2.3837">
        <ele>92.8</ele>
        <time>2022-11-16T13:49:35Z</time>
      </trkpt>
      <trkpt lat="49.98737" lon="2.38369">
        <ele>92.8</ele>
        <time>2022-11-16T13:49:36Z</time>
      </trkpt>
      <trkpt lat="49.98735" lon="2.38368">
        <ele>92.7</ele>
        <time>2022-11-16T13:49:37Z</time>
      </trkpt>
      <trkpt lat="49.98734" lon="2.38367">
        <ele>92.6</ele>
        <time>2022-11-16T13:49:38Z</time>
      </trkpt>
      <trkpt lat="49.98732" lon="2.38366">
        <ele>92.6</ele>
        <time>2022-11-16T13:49:39Z</time>
      </trkpt>
      <trkpt lat="49.98731" lon="2.38366">
        <ele>92.5</ele>
        <time>2022-11-16T13:49:41Z</time>
      </trkpt>
      <trkpt lat="49.98731" lon="2.38365">
        <ele>92.5</ele>
        <time>2022-11-16T13:49:42Z</time>
      </trkpt>
      <trkpt lat="49.98729" lon="2.38364">
        <ele>92.4</ele>
        <time>2022-11-16T13:49:43Z</time>
      </trkpt>
      <trkpt lat="49.98728" lon="2.38364">
        <ele>92.3</ele>
        <time>2022-11-16T13:49:44Z</time>
      </trkpt>
      <trkpt lat="49.98727" lon="2.38364">
        <ele>92.3</ele>
        <time>2022-11-16T13:49:45Z</time>
      </trkpt>
      <trkpt lat="49.98726" lon="2.38363">
        <ele>92.2</ele>
        <time>2022-11-16T13:49:46Z</time>
      </trkpt>
      <trkpt lat="49.98724" lon="2.38362">
        <ele>92.1</ele>
        <time>2022-11-16T13:49:47Z</time>
      </trkpt>
      <trkpt lat="49.98722" lon="2.38361">
        <ele>92</ele>
        <time>2022-11-16T13:49:48Z</time>
      </trkpt>
      <trkpt lat="49.98722" lon="2.3836">
        <ele>92</ele>
        <time>2022-11-16T13:49:49Z</time>
      </trkpt>
      <trkpt lat="49.98721" lon="2.38359">
        <ele>91.9</ele>
        <time>2022-11-16T13:49:50Z</time>
      </trkpt>
      <trkpt lat="49.9872" lon="2.38357">
        <ele>91.8</ele>
        <time>2022-11-16T13:49:52Z</time>
      </trkpt>
      <trkpt lat="49.98719" lon="2.38356">
        <ele>91.8</ele>
        <time>2022-11-16T13:49:53Z</time>
      </trkpt>
      <trkpt lat="49.98719" lon="2.38355">
        <ele>91.7</ele>
        <time>2022-11-16T13:49:54Z</time>
      </trkpt>
      <trkpt lat="49.98718" lon="2.38353">
        <ele>91.7</ele>
        <time>2022-11-16T13:49:55Z</time>
      </trkpt>
      <trkpt lat="49.98718" lon="2.3835">
        <ele>91.7</ele>
        <time>2022-11-16T13:49:56Z</time>
      </trkpt>
      <trkpt lat="49.98718" lon="2.38347">
        <ele>91.7</ele>
        <time>2022-11-16T13:49:57Z</time>
      </trkpt>
      <trkpt lat="49.98718" lon="2.38345">
        <ele>91.7</ele>
        <time>2022-11-16T13:49:58Z</time>
      </trkpt>
      <trkpt lat="49.98719" lon="2.3834">
        <ele>91.7</ele>
        <time>2022-11-16T13:49:59Z</time>
      </trkpt>
      <trkpt lat="49.98719" lon="2.38339">
        <ele>91.7</ele>
        <time>2022-11-16T13:50:00Z</time>
      </trkpt>
      <trkpt lat="49.9872" lon="2.38335">
        <ele>91.7</ele>
        <time>2022-11-16T13:50:01Z</time>
      </trkpt>
      <trkpt lat="49.9872" lon="2.38333">
        <ele>91.7</ele>
        <time>2022-11-16T13:50:02Z</time>
      </trkpt>
      <trkpt lat="49.98721" lon="2.38329">
        <ele>91.7</ele>
        <time>2022-11-16T13:50:04Z</time>
      </trkpt>
      <trkpt lat="49.98722" lon="2.38328">
        <ele>91.7</ele>
        <time>2022-11-16T13:50:05Z</time>
      </trkpt>
      <trkpt lat="49.98724" lon="2.38324">
        <ele>91.7</ele>
        <time>2022-11-16T13:50:06Z</time>
      </trkpt>
      <trkpt lat="49.98724" lon="2.38323">
        <ele>91.7</ele>
        <time>2022-11-16T13:50:07Z</time>
      </trkpt>
      <trkpt lat="49.98726" lon="2.38319">
        <ele>91.7</ele>
        <time>2022-11-16T13:50:08Z</time>
      </trkpt>
      <trkpt lat="49.98726" lon="2.38318">
        <ele>91.7</ele>
        <time>2022-11-16T13:50:09Z</time>
      </trkpt>
      <trkpt lat="49.98728" lon="2.38313">
        <ele>91.8</ele>
        <time>2022-11-16T13:50:10Z</time>
      </trkpt>
      <trkpt lat="49.98729" lon="2.38311">
        <ele>91.8</ele>
        <time>2022-11-16T13:50:11Z</time>
      </trkpt>
      <trkpt lat="49.9873" lon="2.38308">
        <ele>91.8</ele>
        <time>2022-11-16T13:50:12Z</time>
      </trkpt>
      <trkpt lat="49.9873" lon="2.38306">
        <ele>91.8</ele>
        <time>2022-11-16T13:50:13Z</time>
      </trkpt>
      <trkpt lat="49.98731" lon="2.38304">
        <ele>91.8</ele>
        <time>2022-11-16T13:50:15Z</time>
      </trkpt>
      <trkpt lat="49.98732" lon="2.38302">
        <ele>91.8</ele>
        <time>2022-11-16T13:50:16Z</time>
      </trkpt>
      <trkpt lat="49.98733" lon="2.38301">
        <ele>91.8</ele>
        <time>2022-11-16T13:50:17Z</time>
      </trkpt>
      <trkpt lat="49.98735" lon="2.38298">
        <ele>91.8</ele>
        <time>2022-11-16T13:50:18Z</time>
      </trkpt>
      <trkpt lat="49.98736" lon="2.38296">
        <ele>91.8</ele>
        <time>2022-11-16T13:50:19Z</time>
      </trkpt>
      <trkpt lat="49.98737" lon="2.38294">
        <ele>91.8</ele>
        <time>2022-11-16T13:50:20Z</time>
      </trkpt>
      <trkpt lat="49.98737" lon="2.38292">
        <ele>91.8</ele>
        <time>2022-11-16T13:50:21Z</time>
      </trkpt>
      <trkpt lat="49.98738" lon="2.3829">
        <ele>91.8</ele>
        <time>2022-11-16T13:50:22Z</time>
      </trkpt>
      <trkpt lat="49.98738" lon="2.38288">
        <ele>91.8</ele>
        <time>2022-11-16T13:50:24Z</time>
      </trkpt>
      <trkpt lat="49.98739" lon="2.38287">
        <ele>91.8</ele>
        <time>2022-11-16T13:50:25Z</time>
      </trkpt>
      <trkpt lat="49.98739" lon="2.38285">
        <ele>91.8</ele>
        <time>2022-11-16T13:50:26Z</time>
      </trkpt>
      <trkpt lat="49.9874" lon="2.38282">
        <ele>91.8</ele>
        <time>2022-11-16T13:50:27Z</time>
      </trkpt>
      <trkpt lat="49.98741" lon="2.38281">
        <ele>91.8</ele>
        <time>2022-11-16T13:50:28Z</time>
      </trkpt>
      <trkpt lat="49.98741" lon="2.3828">
        <ele>91.8</ele>
        <time>2022-11-16T13:50:29Z</time>
      </trkpt>
      <trkpt lat="49.98741" lon="2.38277">
        <ele>91.8</ele>
        <time>2022-11-16T13:50:30Z</time>
      </trkpt>
      <trkpt lat="49.98741" lon="2.38276">
        <ele>91.8</ele>
        <time>2022-11-16T13:50:31Z</time>
      </trkpt>
      <trkpt lat="49.98741" lon="2.38274">
        <ele>91.8</ele>
        <time>2022-11-16T13:50:32Z</time>
      </trkpt>
      <trkpt lat="49.98741" lon="2.38271">
        <ele>91.8</ele>
        <time>2022-11-16T13:50:33Z</time>
      </trkpt>
      <trkpt lat="49.98741" lon="2.3827">
        <ele>91.8</ele>
        <time>2022-11-16T13:50:34Z</time>
      </trkpt>
      <trkpt lat="49.98742" lon="2.38269">
        <ele>91.8</ele>
        <time>2022-11-16T13:50:35Z</time>
      </trkpt>
      <trkpt lat="49.98742" lon="2.38267">
        <ele>91.8</ele>
        <time>2022-11-16T13:50:37Z</time>
      </trkpt>
      <trkpt lat="49.98742" lon="2.38265">
        <ele>91.8</ele>
        <time>2022-11-16T13:50:38Z</time>
      </trkpt>
      <trkpt lat="49.98742" lon="2.38264">
        <ele>91.8</ele>
        <time>2022-11-16T13:50:39Z</time>
      </trkpt>
      <trkpt lat="49.98742" lon="2.3826">
        <ele>91.8</ele>
        <time>2022-11-16T13:50:40Z</time>
      </trkpt>
      <trkpt lat="49.98742" lon="2.38259">
        <ele>91.8</ele>
        <time>2022-11-16T13:50:41Z</time>
      </trkpt>
      <trkpt lat="49.98743" lon="2.38258">
        <ele>91.8</ele>
        <time>2022-11-16T13:50:42Z</time>
      </trkpt>
      <trkpt lat="49.98743" lon="2.38256">
        <ele>91.8</ele>
        <time>2022-11-16T13:50:44Z</time>
      </trkpt>
      <trkpt lat="49.98743" lon="2.38254">
        <ele>91.8</ele>
        <time>2022-11-16T13:50:45Z</time>
      </trkpt>
      <trkpt lat="49.98744" lon="2.38253">
        <ele>91.8</ele>
        <time>2022-11-16T13:50:46Z</time>
      </trkpt>
      <trkpt lat="49.98744" lon="2.38251">
        <ele>91.8</ele>
        <time>2022-11-16T13:50:47Z</time>
      </trkpt>
      <trkpt lat="49.98744" lon="2.38249">
        <ele>91.8</ele>
        <time>2022-11-16T13:50:48Z</time>
      </trkpt>
      <trkpt lat="49.98745" lon="2.38245">
        <ele>91.9</ele>
        <time>2022-11-16T13:50:49Z</time>
      </trkpt>
      <trkpt lat="49.98745" lon="2.38244">
        <ele>91.9</ele>
        <time>2022-11-16T13:50:50Z</time>
      </trkpt>
      <trkpt lat="49.98745" lon="2.38243">
        <ele>91.9</ele>
        <time>2022-11-16T13:50:51Z</time>
      </trkpt>
      <trkpt lat="49.98745" lon="2.3824">
        <ele>91.9</ele>
        <time>2022-11-16T13:50:52Z</time>
      </trkpt>
      <trkpt lat="49.98746" lon="2.38239">
        <ele>91.9</ele>
        <time>2022-11-16T13:50:54Z</time>
      </trkpt>
      <trkpt lat="49.98746" lon="2.38237">
        <ele>91.9</ele>
        <time>2022-11-16T13:50:55Z</time>
      </trkpt>
      <trkpt lat="49.98746" lon="2.38234">
        <ele>91.9</ele>
        <time>2022-11-16T13:50:56Z</time>
      </trkpt>
      <trkpt lat="49.98746" lon="2.38233">
        <ele>91.9</ele>
        <time>2022-11-16T13:50:57Z</time>
      </trkpt>
      <trkpt lat="49.98745" lon="2.38232">
        <ele>91.9</ele>
        <time>2022-11-16T13:50:58Z</time>
      </trkpt>
      <trkpt lat="49.98745" lon="2.38228">
        <ele>91.9</ele>
        <time>2022-11-16T13:50:59Z</time>
      </trkpt>
      <trkpt lat="49.98745" lon="2.38227">
        <ele>91.9</ele>
        <time>2022-11-16T13:51:00Z</time>
      </trkpt>
      <trkpt lat="49.98745" lon="2.38226">
        <ele>91.9</ele>
        <time>2022-11-16T13:51:01Z</time>
      </trkpt>
      <trkpt lat="49.98746" lon="2.38223">
        <ele>91.9</ele>
        <time>2022-11-16T13:51:03Z</time>
      </trkpt>
      <trkpt lat="49.98746" lon="2.38222">
        <ele>91.9</ele>
        <time>2022-11-16T13:51:04Z</time>
      </trkpt>
      <trkpt lat="49.98746" lon="2.38221">
        <ele>91.9</ele>
        <time>2022-11-16T13:51:05Z</time>
      </trkpt>
      <trkpt lat="49.98747" lon="2.38219">
        <ele>91.9</ele>
        <time>2022-11-16T13:51:06Z</time>
      </trkpt>
      <trkpt lat="49.98748" lon="2.38218">
        <ele>91.9</ele>
        <time>2022-11-16T13:51:07Z</time>
      </trkpt>
      <trkpt lat="49.98748" lon="2.38216">
        <ele>91.9</ele>
        <time>2022-11-16T13:51:08Z</time>
      </trkpt>
      <trkpt lat="49.98749" lon="2.38213">
        <ele>91.9</ele>
        <time>2022-11-16T13:51:09Z</time>
      </trkpt>
      <trkpt lat="49.9875" lon="2.38212">
        <ele>91.9</ele>
        <time>2022-11-16T13:51:10Z</time>
      </trkpt>
      <trkpt lat="49.9875" lon="2.38211">
        <ele>91.9</ele>
        <time>2022-11-16T13:51:11Z</time>
      </trkpt>
      <trkpt lat="49.9875" lon="2.3821">
        <ele>91.9</ele>
        <time>2022-11-16T13:51:13Z</time>
      </trkpt>
      <trkpt lat="49.98751" lon="2.38208">
        <ele>92</ele>
        <time>2022-11-16T13:51:14Z</time>
      </trkpt>
      <trkpt lat="49.98751" lon="2.38207">
        <ele>92</ele>
        <time>2022-11-16T13:51:15Z</time>
      </trkpt>
      <trkpt lat="49.98752" lon="2.38206">
        <ele>92</ele>
        <time>2022-11-16T13:51:16Z</time>
      </trkpt>
      <trkpt lat="49.98752" lon="2.38204">
        <ele>92</ele>
        <time>2022-11-16T13:51:17Z</time>
      </trkpt>
      <trkpt lat="49.98753" lon="2.38203">
        <ele>92</ele>
        <time>2022-11-16T13:51:19Z</time>
      </trkpt>
      <trkpt lat="49.98753" lon="2.38201">
        <ele>92</ele>
        <time>2022-11-16T13:51:20Z</time>
      </trkpt>
      <trkpt lat="49.98754" lon="2.38199">
        <ele>92</ele>
        <time>2022-11-16T13:51:21Z</time>
      </trkpt>
      <trkpt lat="49.98754" lon="2.38198">
        <ele>92</ele>
        <time>2022-11-16T13:51:22Z</time>
      </trkpt>
      <trkpt lat="49.98754" lon="2.38196">
        <ele>92</ele>
        <time>2022-11-16T13:51:23Z</time>
      </trkpt>
      <trkpt lat="49.98755" lon="2.38194">
        <ele>92</ele>
        <time>2022-11-16T13:51:24Z</time>
      </trkpt>
      <trkpt lat="49.98755" lon="2.38193">
        <ele>92</ele>
        <time>2022-11-16T13:51:25Z</time>
      </trkpt>
      <trkpt lat="49.98756" lon="2.38191">
        <ele>92</ele>
        <time>2022-11-16T13:51:26Z</time>
      </trkpt>
      <trkpt lat="49.98756" lon="2.3819">
        <ele>92</ele>
        <time>2022-11-16T13:51:27Z</time>
      </trkpt>
      <trkpt lat="49.98756" lon="2.38188">
        <ele>92</ele>
        <time>2022-11-16T13:51:29Z</time>
      </trkpt>
      <trkpt lat="49.98757" lon="2.38186">
        <ele>91.9</ele>
        <time>2022-11-16T13:51:30Z</time>
      </trkpt>
      <trkpt lat="49.98757" lon="2.38185">
        <ele>91.9</ele>
        <time>2022-11-16T13:51:31Z</time>
      </trkpt>
      <trkpt lat="49.98758" lon="2.38183">
        <ele>91.9</ele>
        <time>2022-11-16T13:51:32Z</time>
      </trkpt>
      <trkpt lat="49.98758" lon="2.3818">
        <ele>91.9</ele>
        <time>2022-11-16T13:51:33Z</time>
      </trkpt>
      <trkpt lat="49.98759" lon="2.38179">
        <ele>91.9</ele>
        <time>2022-11-16T13:51:34Z</time>
      </trkpt>
      <trkpt lat="49.98759" lon="2.38177">
        <ele>91.9</ele>
        <time>2022-11-16T13:51:35Z</time>
      </trkpt>
      <trkpt lat="49.98759" lon="2.38174">
        <ele>91.9</ele>
        <time>2022-11-16T13:51:36Z</time>
      </trkpt>
      <trkpt lat="49.9876" lon="2.38173">
        <ele>91.9</ele>
        <time>2022-11-16T13:51:37Z</time>
      </trkpt>
      <trkpt lat="49.9876" lon="2.38171">
        <ele>91.9</ele>
        <time>2022-11-16T13:51:38Z</time>
      </trkpt>
      <trkpt lat="49.9876" lon="2.3817">
        <ele>91.9</ele>
        <time>2022-11-16T13:51:39Z</time>
      </trkpt>
      <trkpt lat="49.98761" lon="2.38168">
        <ele>91.9</ele>
        <time>2022-11-16T13:51:40Z</time>
      </trkpt>
      <trkpt lat="49.98761" lon="2.38166">
        <ele>91.9</ele>
        <time>2022-11-16T13:51:42Z</time>
      </trkpt>
      <trkpt lat="49.98762" lon="2.38162">
        <ele>91.9</ele>
        <time>2022-11-16T13:51:43Z</time>
      </trkpt>
      <trkpt lat="49.98762" lon="2.38161">
        <ele>91.9</ele>
        <time>2022-11-16T13:51:44Z</time>
      </trkpt>
      <trkpt lat="49.98762" lon="2.3816">
        <ele>91.9</ele>
        <time>2022-11-16T13:51:45Z</time>
      </trkpt>
      <trkpt lat="49.98762" lon="2.38158">
        <ele>91.9</ele>
        <time>2022-11-16T13:51:46Z</time>
      </trkpt>
      <trkpt lat="49.98763" lon="2.38156">
        <ele>91.9</ele>
        <time>2022-11-16T13:51:47Z</time>
      </trkpt>
      <trkpt lat="49.98763" lon="2.38154">
        <ele>91.9</ele>
        <time>2022-11-16T13:51:48Z</time>
      </trkpt>
      <trkpt lat="49.98763" lon="2.38152">
        <ele>91.9</ele>
        <time>2022-11-16T13:51:49Z</time>
      </trkpt>
      <trkpt lat="49.98763" lon="2.3815">
        <ele>91.9</ele>
        <time>2022-11-16T13:51:50Z</time>
      </trkpt>
      <trkpt lat="49.98764" lon="2.38148">
        <ele>91.9</ele>
        <time>2022-11-16T13:51:51Z</time>
      </trkpt>
      <trkpt lat="49.98764" lon="2.38146">
        <ele>91.9</ele>
        <time>2022-11-16T13:51:52Z</time>
      </trkpt>
      <trkpt lat="49.98764" lon="2.38144">
        <ele>91.9</ele>
        <time>2022-11-16T13:51:54Z</time>
      </trkpt>
      <trkpt lat="49.98764" lon="2.38141">
        <ele>91.9</ele>
        <time>2022-11-16T13:51:55Z</time>
      </trkpt>
      <trkpt lat="49.98764" lon="2.38139">
        <ele>91.9</ele>
        <time>2022-11-16T13:51:56Z</time>
      </trkpt>
      <trkpt lat="49.98764" lon="2.38138">
        <ele>91.9</ele>
        <time>2022-11-16T13:51:57Z</time>
      </trkpt>
      <trkpt lat="49.98765" lon="2.38136">
        <ele>91.9</ele>
        <time>2022-11-16T13:51:58Z</time>
      </trkpt>
      <trkpt lat="49.98765" lon="2.38134">
        <ele>91.9</ele>
        <time>2022-11-16T13:52:00Z</time>
      </trkpt>
      <trkpt lat="49.98766" lon="2.38132">
        <ele>91.9</ele>
        <time>2022-11-16T13:52:01Z</time>
      </trkpt>
      <trkpt lat="49.98766" lon="2.3813">
        <ele>91.9</ele>
        <time>2022-11-16T13:52:02Z</time>
      </trkpt>
      <trkpt lat="49.98766" lon="2.38129">
        <ele>91.8</ele>
        <time>2022-11-16T13:52:03Z</time>
      </trkpt>
      <trkpt lat="49.98766" lon="2.38127">
        <ele>91.8</ele>
        <time>2022-11-16T13:52:04Z</time>
      </trkpt>
      <trkpt lat="49.98767" lon="2.38124">
        <ele>91.8</ele>
        <time>2022-11-16T13:52:05Z</time>
      </trkpt>
      <trkpt lat="49.98767" lon="2.38122">
        <ele>91.8</ele>
        <time>2022-11-16T13:52:06Z</time>
      </trkpt>
      <trkpt lat="49.98768" lon="2.3812">
        <ele>91.8</ele>
        <time>2022-11-16T13:52:07Z</time>
      </trkpt>
      <trkpt lat="49.98768" lon="2.38118">
        <ele>91.8</ele>
        <time>2022-11-16T13:52:08Z</time>
      </trkpt>
      <trkpt lat="49.98769" lon="2.38117">
        <ele>91.8</ele>
        <time>2022-11-16T13:52:10Z</time>
      </trkpt>
      <trkpt lat="49.98769" lon="2.38115">
        <ele>91.8</ele>
        <time>2022-11-16T13:52:11Z</time>
      </trkpt>
      <trkpt lat="49.9877" lon="2.38114">
        <ele>91.8</ele>
        <time>2022-11-16T13:52:12Z</time>
      </trkpt>
      <trkpt lat="49.9877" lon="2.38112">
        <ele>91.8</ele>
        <time>2022-11-16T13:52:13Z</time>
      </trkpt>
      <trkpt lat="49.98771" lon="2.38111">
        <ele>91.8</ele>
        <time>2022-11-16T13:52:14Z</time>
      </trkpt>
      <trkpt lat="49.98772" lon="2.38108">
        <ele>91.8</ele>
        <time>2022-11-16T13:52:15Z</time>
      </trkpt>
      <trkpt lat="49.98773" lon="2.38107">
        <ele>91.8</ele>
        <time>2022-11-16T13:52:16Z</time>
      </trkpt>
      <trkpt lat="49.98773" lon="2.38105">
        <ele>91.8</ele>
        <time>2022-11-16T13:52:17Z</time>
      </trkpt>
      <trkpt lat="49.98774" lon="2.38102">
        <ele>91.8</ele>
        <time>2022-11-16T13:52:18Z</time>
      </trkpt>
      <trkpt lat="49.98774" lon="2.38101">
        <ele>91.8</ele>
        <time>2022-11-16T13:52:19Z</time>
      </trkpt>
      <trkpt lat="49.98774" lon="2.381">
        <ele>91.8</ele>
        <time>2022-11-16T13:52:20Z</time>
      </trkpt>
      <trkpt lat="49.98775" lon="2.38098">
        <ele>91.8</ele>
        <time>2022-11-16T13:52:22Z</time>
      </trkpt>
      <trkpt lat="49.98775" lon="2.38097">
        <ele>91.8</ele>
        <time>2022-11-16T13:52:23Z</time>
      </trkpt>
      <trkpt lat="49.98775" lon="2.38095">
        <ele>91.8</ele>
        <time>2022-11-16T13:52:24Z</time>
      </trkpt>
      <trkpt lat="49.98776" lon="2.38093">
        <ele>91.8</ele>
        <time>2022-11-16T13:52:25Z</time>
      </trkpt>
      <trkpt lat="49.98776" lon="2.38091">
        <ele>91.8</ele>
        <time>2022-11-16T13:52:26Z</time>
      </trkpt>
      <trkpt lat="49.98777" lon="2.3809">
        <ele>91.8</ele>
        <time>2022-11-16T13:52:27Z</time>
      </trkpt>
      <trkpt lat="49.98778" lon="2.38088">
        <ele>91.9</ele>
        <time>2022-11-16T13:52:28Z</time>
      </trkpt>
      <trkpt lat="49.98778" lon="2.38086">
        <ele>91.9</ele>
        <time>2022-11-16T13:52:29Z</time>
      </trkpt>
      <trkpt lat="49.98779" lon="2.38084">
        <ele>91.9</ele>
        <time>2022-11-16T13:52:30Z</time>
      </trkpt>
      <trkpt lat="49.9878" lon="2.38082">
        <ele>91.9</ele>
        <time>2022-11-16T13:52:31Z</time>
      </trkpt>
      <trkpt lat="49.9878" lon="2.38079">
        <ele>91.9</ele>
        <time>2022-11-16T13:52:32Z</time>
      </trkpt>
      <trkpt lat="49.98781" lon="2.38078">
        <ele>91.9</ele>
        <time>2022-11-16T13:52:33Z</time>
      </trkpt>
      <trkpt lat="49.98781" lon="2.38076">
        <ele>91.9</ele>
        <time>2022-11-16T13:52:34Z</time>
      </trkpt>
      <trkpt lat="49.98781" lon="2.38073">
        <ele>91.9</ele>
        <time>2022-11-16T13:52:36Z</time>
      </trkpt>
      <trkpt lat="49.98781" lon="2.38072">
        <ele>91.9</ele>
        <time>2022-11-16T13:52:37Z</time>
      </trkpt>
      <trkpt lat="49.98781" lon="2.38071">
        <ele>91.9</ele>
        <time>2022-11-16T13:52:38Z</time>
      </trkpt>
      <trkpt lat="49.98782" lon="2.38067">
        <ele>91.9</ele>
        <time>2022-11-16T13:52:39Z</time>
      </trkpt>
      <trkpt lat="49.98782" lon="2.38066">
        <ele>91.9</ele>
        <time>2022-11-16T13:52:40Z</time>
      </trkpt>
      <trkpt lat="49.98782" lon="2.38065">
        <ele>91.9</ele>
        <time>2022-11-16T13:52:41Z</time>
      </trkpt>
      <trkpt lat="49.98783" lon="2.38063">
        <ele>91.9</ele>
        <time>2022-11-16T13:52:42Z</time>
      </trkpt>
      <trkpt lat="49.98783" lon="2.38061">
        <ele>91.9</ele>
        <time>2022-11-16T13:52:43Z</time>
      </trkpt>
      <trkpt lat="49.98783" lon="2.38059">
        <ele>92</ele>
        <time>2022-11-16T13:52:44Z</time>
      </trkpt>
      <trkpt lat="49.98784" lon="2.38057">
        <ele>92</ele>
        <time>2022-11-16T13:52:45Z</time>
      </trkpt>
      <trkpt lat="49.98784" lon="2.38055">
        <ele>92</ele>
        <time>2022-11-16T13:52:46Z</time>
      </trkpt>
      <trkpt lat="49.98785" lon="2.38053">
        <ele>92</ele>
        <time>2022-11-16T13:52:48Z</time>
      </trkpt>
      <trkpt lat="49.98785" lon="2.38052">
        <ele>92</ele>
        <time>2022-11-16T13:52:49Z</time>
      </trkpt>
      <trkpt lat="49.98786" lon="2.3805">
        <ele>92</ele>
        <time>2022-11-16T13:52:50Z</time>
      </trkpt>
      <trkpt lat="49.98787" lon="2.38049">
        <ele>92</ele>
        <time>2022-11-16T13:52:51Z</time>
      </trkpt>
      <trkpt lat="49.98787" lon="2.38047">
        <ele>92</ele>
        <time>2022-11-16T13:52:52Z</time>
      </trkpt>
      <trkpt lat="49.98788" lon="2.38044">
        <ele>92</ele>
        <time>2022-11-16T13:52:53Z</time>
      </trkpt>
      <trkpt lat="49.98789" lon="2.38043">
        <ele>92</ele>
        <time>2022-11-16T13:52:54Z</time>
      </trkpt>
      <trkpt lat="49.98789" lon="2.38042">
        <ele>92</ele>
        <time>2022-11-16T13:52:55Z</time>
      </trkpt>
      <trkpt lat="49.9879" lon="2.3804">
        <ele>92</ele>
        <time>2022-11-16T13:52:57Z</time>
      </trkpt>
      <trkpt lat="49.9879" lon="2.38038">
        <ele>92</ele>
        <time>2022-11-16T13:52:58Z</time>
      </trkpt>
      <trkpt lat="49.98791" lon="2.38037">
        <ele>92</ele>
        <time>2022-11-16T13:52:59Z</time>
      </trkpt>
      <trkpt lat="49.98791" lon="2.38034">
        <ele>92</ele>
        <time>2022-11-16T13:53:00Z</time>
      </trkpt>
      <trkpt lat="49.98792" lon="2.38033">
        <ele>92.1</ele>
        <time>2022-11-16T13:53:01Z</time>
      </trkpt>
      <trkpt lat="49.98792" lon="2.38029">
        <ele>92.1</ele>
        <time>2022-11-16T13:53:02Z</time>
      </trkpt>
      <trkpt lat="49.98792" lon="2.38028">
        <ele>92.1</ele>
        <time>2022-11-16T13:53:03Z</time>
      </trkpt>
      <trkpt lat="49.98793" lon="2.38027">
        <ele>92.1</ele>
        <time>2022-11-16T13:53:04Z</time>
      </trkpt>
      <trkpt lat="49.98793" lon="2.38025">
        <ele>92.1</ele>
        <time>2022-11-16T13:53:05Z</time>
      </trkpt>
      <trkpt lat="49.98793" lon="2.38023">
        <ele>92.1</ele>
        <time>2022-11-16T13:53:06Z</time>
      </trkpt>
      <trkpt lat="49.98794" lon="2.38022">
        <ele>92.1</ele>
        <time>2022-11-16T13:53:08Z</time>
      </trkpt>
      <trkpt lat="49.98794" lon="2.3802">
        <ele>92.1</ele>
        <time>2022-11-16T13:53:09Z</time>
      </trkpt>
      <trkpt lat="49.98794" lon="2.38019">
        <ele>92.1</ele>
        <time>2022-11-16T13:53:10Z</time>
      </trkpt>
      <trkpt lat="49.98795" lon="2.38017">
        <ele>92.1</ele>
        <time>2022-11-16T13:53:11Z</time>
      </trkpt>
      <trkpt lat="49.98795" lon="2.38016">
        <ele>92.1</ele>
        <time>2022-11-16T13:53:12Z</time>
      </trkpt>
      <trkpt lat="49.98795" lon="2.38014">
        <ele>92.1</ele>
        <time>2022-11-16T13:53:13Z</time>
      </trkpt>
      <trkpt lat="49.98795" lon="2.38012">
        <ele>92.1</ele>
        <time>2022-11-16T13:53:14Z</time>
      </trkpt>
      <trkpt lat="49.98796" lon="2.3801">
        <ele>92.1</ele>
        <time>2022-11-16T13:53:15Z</time>
      </trkpt>
      <trkpt lat="49.98796" lon="2.38008">
        <ele>92.1</ele>
        <time>2022-11-16T13:53:16Z</time>
      </trkpt>
      <trkpt lat="49.98796" lon="2.38007">
        <ele>92.1</ele>
        <time>2022-11-16T13:53:17Z</time>
      </trkpt>
      <trkpt lat="49.98797" lon="2.38005">
        <ele>92.1</ele>
        <time>2022-11-16T13:53:18Z</time>
      </trkpt>
      <trkpt lat="49.98797" lon="2.38004">
        <ele>92.1</ele>
        <time>2022-11-16T13:53:19Z</time>
      </trkpt>
      <trkpt lat="49.98797" lon="2.38002">
        <ele>92.1</ele>
        <time>2022-11-16T13:53:20Z</time>
      </trkpt>
      <trkpt lat="49.98798" lon="2.37999">
        <ele>92.1</ele>
        <time>2022-11-16T13:53:21Z</time>
      </trkpt>
      <trkpt lat="49.98798" lon="2.37997">
        <ele>92.1</ele>
        <time>2022-11-16T13:53:23Z</time>
      </trkpt>
      <trkpt lat="49.98799" lon="2.37996">
        <ele>92.1</ele>
        <time>2022-11-16T13:53:24Z</time>
      </trkpt>
      <trkpt lat="49.98799" lon="2.37995">
        <ele>92.1</ele>
        <time>2022-11-16T13:53:25Z</time>
      </trkpt>
      <trkpt lat="49.98799" lon="2.37993">
        <ele>92.1</ele>
        <time>2022-11-16T13:53:26Z</time>
      </trkpt>
      <trkpt lat="49.988" lon="2.37992">
        <ele>92.1</ele>
        <time>2022-11-16T13:53:27Z</time>
      </trkpt>
      <trkpt lat="49.988" lon="2.3799">
        <ele>92.1</ele>
        <time>2022-11-16T13:53:28Z</time>
      </trkpt>
      <trkpt lat="49.988" lon="2.37989">
        <ele>92.1</ele>
        <time>2022-11-16T13:53:29Z</time>
      </trkpt>
      <trkpt lat="49.988" lon="2.37987">
        <ele>92.1</ele>
        <time>2022-11-16T13:53:31Z</time>
      </trkpt>
      <trkpt lat="49.98801" lon="2.37985">
        <ele>92.1</ele>
        <time>2022-11-16T13:53:32Z</time>
      </trkpt>
      <trkpt lat="49.98801" lon="2.37984">
        <ele>92.1</ele>
        <time>2022-11-16T13:53:33Z</time>
      </trkpt>
      <trkpt lat="49.98801" lon="2.37982">
        <ele>92.1</ele>
        <time>2022-11-16T13:53:34Z</time>
      </trkpt>
      <trkpt lat="49.98802" lon="2.3798">
        <ele>92.1</ele>
        <time>2022-11-16T13:53:36Z</time>
      </trkpt>
      <trkpt lat="49.98802" lon="2.37979">
        <ele>92.1</ele>
        <time>2022-11-16T13:53:37Z</time>
      </trkpt>
      <trkpt lat="49.98802" lon="2.37978">
        <ele>92.1</ele>
        <time>2022-11-16T13:53:38Z</time>
      </trkpt>
      <trkpt lat="49.98803" lon="2.37976">
        <ele>92.1</ele>
        <time>2022-11-16T13:53:39Z</time>
      </trkpt>
      <trkpt lat="49.98803" lon="2.37975">
        <ele>92.1</ele>
        <time>2022-11-16T13:53:40Z</time>
      </trkpt>
      <trkpt lat="49.98803" lon="2.37973">
        <ele>92.1</ele>
        <time>2022-11-16T13:53:41Z</time>
      </trkpt>
      <trkpt lat="49.98803" lon="2.37972">
        <ele>92.1</ele>
        <time>2022-11-16T13:53:43Z</time>
      </trkpt>
      <trkpt lat="49.98803" lon="2.37971">
        <ele>92.1</ele>
        <time>2022-11-16T13:53:44Z</time>
      </trkpt>
      <trkpt lat="49.98803" lon="2.3797">
        <ele>92.1</ele>
        <time>2022-11-16T13:53:45Z</time>
      </trkpt>
      <trkpt lat="49.98803" lon="2.37969">
        <ele>92.1</ele>
        <time>2022-11-16T13:53:46Z</time>
      </trkpt>
      <trkpt lat="49.98804" lon="2.37967">
        <ele>92.1</ele>
        <time>2022-11-16T13:53:47Z</time>
      </trkpt>
      <trkpt lat="49.98804" lon="2.37966">
        <ele>92</ele>
        <time>2022-11-16T13:53:48Z</time>
      </trkpt>
      <trkpt lat="49.98804" lon="2.37964">
        <ele>92</ele>
        <time>2022-11-16T13:53:49Z</time>
      </trkpt>
      <trkpt lat="49.98805" lon="2.37963">
        <ele>92</ele>
        <time>2022-11-16T13:53:51Z</time>
      </trkpt>
      <trkpt lat="49.98805" lon="2.37962">
        <ele>92</ele>
        <time>2022-11-16T13:53:52Z</time>
      </trkpt>
      <trkpt lat="49.98806" lon="2.3796">
        <ele>92</ele>
        <time>2022-11-16T13:53:53Z</time>
      </trkpt>
      <trkpt lat="49.98806" lon="2.37959">
        <ele>92.1</ele>
        <time>2022-11-16T13:53:55Z</time>
      </trkpt>
      <trkpt lat="49.98806" lon="2.37958">
        <ele>92.1</ele>
        <time>2022-11-16T13:53:56Z</time>
      </trkpt>
      <trkpt lat="49.98807" lon="2.37957">
        <ele>92.1</ele>
        <time>2022-11-16T13:53:57Z</time>
      </trkpt>
      <trkpt lat="49.98807" lon="2.37956">
        <ele>92.2</ele>
        <time>2022-11-16T13:53:59Z</time>
      </trkpt>
      <trkpt lat="49.98807" lon="2.37956">
        <ele>92.2</ele>
        <time>2022-11-16T13:54:00Z</time>
      </trkpt>
      <trkpt lat="49.98808" lon="2.37955">
        <ele>92.2</ele>
        <time>2022-11-16T13:54:02Z</time>
      </trkpt>
      <trkpt lat="49.98808" lon="2.37955">
        <ele>92.2</ele>
        <time>2022-11-16T13:54:03Z</time>
      </trkpt>
      <trkpt lat="49.98809" lon="2.37955">
        <ele>92.2</ele>
        <time>2022-11-16T13:54:04Z</time>
      </trkpt>
      <trkpt lat="49.98809" lon="2.37954">
        <ele>92.2</ele>
        <time>2022-11-16T13:54:05Z</time>
      </trkpt>
      <trkpt lat="49.9881" lon="2.37954">
        <ele>92.2</ele>
        <time>2022-11-16T13:54:06Z</time>
      </trkpt>
      <trkpt lat="49.9881" lon="2.37954">
        <ele>92.2</ele>
        <time>2022-11-16T13:54:07Z</time>
      </trkpt>
      <trkpt lat="49.98811" lon="2.37955">
        <ele>92.2</ele>
        <time>2022-11-16T13:54:08Z</time>
      </trkpt>
      <trkpt lat="49.98811" lon="2.37955">
        <ele>92.2</ele>
        <time>2022-11-16T13:54:09Z</time>
      </trkpt>
      <trkpt lat="49.98812" lon="2.37955">
        <ele>92.2</ele>
        <time>2022-11-16T13:54:10Z</time>
      </trkpt>
      <trkpt lat="49.98812" lon="2.37956">
        <ele>92.3</ele>
        <time>2022-11-16T13:54:11Z</time>
      </trkpt>
      <trkpt lat="49.98812" lon="2.37956">
        <ele>92.3</ele>
        <time>2022-11-16T13:54:12Z</time>
      </trkpt>
      <trkpt lat="49.98812" lon="2.37957">
        <ele>92.3</ele>
        <time>2022-11-16T13:54:13Z</time>
      </trkpt>
      <trkpt lat="49.98812" lon="2.37957">
        <ele>92.3</ele>
        <time>2022-11-16T13:54:14Z</time>
      </trkpt>
      <trkpt lat="49.98812" lon="2.37958">
        <ele>92.3</ele>
        <time>2022-11-16T13:54:15Z</time>
      </trkpt>
      <trkpt lat="49.98812" lon="2.37958">
        <ele>92.3</ele>
        <time>2022-11-16T13:54:16Z</time>
      </trkpt>
      <trkpt lat="49.98812" lon="2.37959">
        <ele>92.3</ele>
        <time>2022-11-16T13:54:17Z</time>
      </trkpt>
      <trkpt lat="49.98812" lon="2.37959">
        <ele>92.3</ele>
        <time>2022-11-16T13:54:18Z</time>
      </trkpt>
      <trkpt lat="49.98813" lon="2.37959">
        <ele>92.3</ele>
        <time>2022-11-16T13:54:19Z</time>
      </trkpt>
      <trkpt lat="49.98813" lon="2.3796">
        <ele>92.3</ele>
        <time>2022-11-16T13:54:20Z</time>
      </trkpt>
      <trkpt lat="49.98814" lon="2.3796">
        <ele>92.3</ele>
        <time>2022-11-16T13:54:22Z</time>
      </trkpt>
      <trkpt lat="49.98814" lon="2.3796">
        <ele>92.3</ele>
        <time>2022-11-16T13:54:23Z</time>
      </trkpt>
      <trkpt lat="49.98814" lon="2.3796">
        <ele>92.3</ele>
        <time>2022-11-16T13:54:24Z</time>
      </trkpt>
      <trkpt lat="49.98814" lon="2.3796">
        <ele>92.3</ele>
        <time>2022-11-16T13:54:25Z</time>
      </trkpt>
      <trkpt lat="49.98814" lon="2.3796">
        <ele>92.3</ele>
        <time>2022-11-16T13:54:26Z</time>
      </trkpt>
      <trkpt lat="49.98814" lon="2.3796">
        <ele>92.3</ele>
        <time>2022-11-16T13:54:27Z</time>
      </trkpt>
      <trkpt lat="49.98815" lon="2.37961">
        <ele>92.3</ele>
        <time>2022-11-16T13:54:28Z</time>
      </trkpt>
      <trkpt lat="49.98815" lon="2.37961">
        <ele>92.3</ele>
        <time>2022-11-16T13:54:29Z</time>
      </trkpt>
      <trkpt lat="49.98815" lon="2.37961">
        <ele>92.3</ele>
        <time>2022-11-16T13:54:30Z</time>
      </trkpt>
      <trkpt lat="49.98815" lon="2.37961">
        <ele>92.4</ele>
        <time>2022-11-16T13:54:31Z</time>
      </trkpt>
      <trkpt lat="49.98816" lon="2.37961">
        <ele>92.4</ele>
        <time>2022-11-16T13:54:32Z</time>
      </trkpt>
      <trkpt lat="49.98817" lon="2.37961">
        <ele>92.4</ele>
        <time>2022-11-16T13:54:33Z</time>
      </trkpt>
      <trkpt lat="49.98818" lon="2.37961">
        <ele>92.4</ele>
        <time>2022-11-16T13:54:35Z</time>
      </trkpt>
      <trkpt lat="49.98818" lon="2.37961">
        <ele>92.4</ele>
        <time>2022-11-16T13:54:36Z</time>
      </trkpt>
      <trkpt lat="49.98819" lon="2.37961">
        <ele>92.4</ele>
        <time>2022-11-16T13:54:37Z</time>
      </trkpt>
      <trkpt lat="49.9882" lon="2.37961">
        <ele>92.4</ele>
        <time>2022-11-16T13:54:38Z</time>
      </trkpt>
      <trkpt lat="49.98821" lon="2.37961">
        <ele>92.5</ele>
        <time>2022-11-16T13:54:40Z</time>
      </trkpt>
      <trkpt lat="49.98822" lon="2.3796">
        <ele>92.5</ele>
        <time>2022-11-16T13:54:41Z</time>
      </trkpt>
      <trkpt lat="49.98824" lon="2.37959">
        <ele>92.5</ele>
        <time>2022-11-16T13:54:42Z</time>
      </trkpt>
      <trkpt lat="49.98825" lon="2.37958">
        <ele>92.5</ele>
        <time>2022-11-16T13:54:43Z</time>
      </trkpt>
      <trkpt lat="49.98826" lon="2.37958">
        <ele>92.6</ele>
        <time>2022-11-16T13:54:44Z</time>
      </trkpt>
      <trkpt lat="49.98828" lon="2.37957">
        <ele>92.6</ele>
        <time>2022-11-16T13:54:46Z</time>
      </trkpt>
      <trkpt lat="49.98829" lon="2.37956">
        <ele>92.6</ele>
        <time>2022-11-16T13:54:47Z</time>
      </trkpt>
      <trkpt lat="49.98831" lon="2.37955">
        <ele>92.6</ele>
        <time>2022-11-16T13:54:48Z</time>
      </trkpt>
      <trkpt lat="49.98832" lon="2.37954">
        <ele>92.7</ele>
        <time>2022-11-16T13:54:49Z</time>
      </trkpt>
      <trkpt lat="49.98833" lon="2.37952">
        <ele>92.7</ele>
        <time>2022-11-16T13:54:50Z</time>
      </trkpt>
      <trkpt lat="49.98834" lon="2.37951">
        <ele>92.7</ele>
        <time>2022-11-16T13:54:51Z</time>
      </trkpt>
      <trkpt lat="49.98836" lon="2.3795">
        <ele>92.7</ele>
        <time>2022-11-16T13:54:53Z</time>
      </trkpt>
      <trkpt lat="49.98837" lon="2.37949">
        <ele>92.8</ele>
        <time>2022-11-16T13:54:54Z</time>
      </trkpt>
      <trkpt lat="49.98839" lon="2.37948">
        <ele>92.8</ele>
        <time>2022-11-16T13:54:55Z</time>
      </trkpt>
      <trkpt lat="49.9884" lon="2.37947">
        <ele>92.8</ele>
        <time>2022-11-16T13:54:56Z</time>
      </trkpt>
      <trkpt lat="49.98841" lon="2.37947">
        <ele>92.8</ele>
        <time>2022-11-16T13:54:57Z</time>
      </trkpt>
      <trkpt lat="49.98843" lon="2.37946">
        <ele>92.9</ele>
        <time>2022-11-16T13:54:58Z</time>
      </trkpt>
      <trkpt lat="49.98844" lon="2.37946">
        <ele>92.9</ele>
        <time>2022-11-16T13:55:00Z</time>
      </trkpt>
      <trkpt lat="49.98844" lon="2.37946">
        <ele>92.9</ele>
        <time>2022-11-16T13:55:01Z</time>
      </trkpt>
      <trkpt lat="49.98846" lon="2.37945">
        <ele>92.9</ele>
        <time>2022-11-16T13:55:02Z</time>
      </trkpt>
      <trkpt lat="49.98847" lon="2.37944">
        <ele>92.9</ele>
        <time>2022-11-16T13:55:03Z</time>
      </trkpt>
      <trkpt lat="49.98848" lon="2.37944">
        <ele>93</ele>
        <time>2022-11-16T13:55:04Z</time>
      </trkpt>
      <trkpt lat="49.9885" lon="2.37943">
        <ele>93</ele>
        <time>2022-11-16T13:55:05Z</time>
      </trkpt>
      <trkpt lat="49.98851" lon="2.37942">
        <ele>93</ele>
        <time>2022-11-16T13:55:07Z</time>
      </trkpt>
      <trkpt lat="49.98852" lon="2.37941">
        <ele>93</ele>
        <time>2022-11-16T13:55:08Z</time>
      </trkpt>
      <trkpt lat="49.98853" lon="2.37941">
        <ele>93</ele>
        <time>2022-11-16T13:55:09Z</time>
      </trkpt>
      <trkpt lat="49.98854" lon="2.37941">
        <ele>93.1</ele>
        <time>2022-11-16T13:55:10Z</time>
      </trkpt>
      <trkpt lat="49.98855" lon="2.37939">
        <ele>93.1</ele>
        <time>2022-11-16T13:55:11Z</time>
      </trkpt>
      <trkpt lat="49.98857" lon="2.37939">
        <ele>93.1</ele>
        <time>2022-11-16T13:55:12Z</time>
      </trkpt>
      <trkpt lat="49.98858" lon="2.37938">
        <ele>93.1</ele>
        <time>2022-11-16T13:55:13Z</time>
      </trkpt>
      <trkpt lat="49.98859" lon="2.37938">
        <ele>93.2</ele>
        <time>2022-11-16T13:55:14Z</time>
      </trkpt>
      <trkpt lat="49.9886" lon="2.37938">
        <ele>93.2</ele>
        <time>2022-11-16T13:55:16Z</time>
      </trkpt>
      <trkpt lat="49.98861" lon="2.37937">
        <ele>93.2</ele>
        <time>2022-11-16T13:55:17Z</time>
      </trkpt>
      <trkpt lat="49.98862" lon="2.37937">
        <ele>93.2</ele>
        <time>2022-11-16T13:55:18Z</time>
      </trkpt>
      <trkpt lat="49.98863" lon="2.37937">
        <ele>93.2</ele>
        <time>2022-11-16T13:55:19Z</time>
      </trkpt>
      <trkpt lat="49.98864" lon="2.37936">
        <ele>93.2</ele>
        <time>2022-11-16T13:55:20Z</time>
      </trkpt>
      <trkpt lat="49.98865" lon="2.37935">
        <ele>93.3</ele>
        <time>2022-11-16T13:55:21Z</time>
      </trkpt>
      <trkpt lat="49.98866" lon="2.37935">
        <ele>93.3</ele>
        <time>2022-11-16T13:55:23Z</time>
      </trkpt>
      <trkpt lat="49.98867" lon="2.37934">
        <ele>93.3</ele>
        <time>2022-11-16T13:55:24Z</time>
      </trkpt>
      <trkpt lat="49.98868" lon="2.37934">
        <ele>93.3</ele>
        <time>2022-11-16T13:55:25Z</time>
      </trkpt>
      <trkpt lat="49.98869" lon="2.37934">
        <ele>93.3</ele>
        <time>2022-11-16T13:55:26Z</time>
      </trkpt>
      <trkpt lat="49.9887" lon="2.37933">
        <ele>93.4</ele>
        <time>2022-11-16T13:55:27Z</time>
      </trkpt>
      <trkpt lat="49.98871" lon="2.37932">
        <ele>93.4</ele>
        <time>2022-11-16T13:55:28Z</time>
      </trkpt>
      <trkpt lat="49.98872" lon="2.37931">
        <ele>93.4</ele>
        <time>2022-11-16T13:55:29Z</time>
      </trkpt>
      <trkpt lat="49.98873" lon="2.37931">
        <ele>93.4</ele>
        <time>2022-11-16T13:55:30Z</time>
      </trkpt>
      <trkpt lat="49.98875" lon="2.3793">
        <ele>93.4</ele>
        <time>2022-11-16T13:55:32Z</time>
      </trkpt>
      <trkpt lat="49.98876" lon="2.37929">
        <ele>93.5</ele>
        <time>2022-11-16T13:55:33Z</time>
      </trkpt>
      <trkpt lat="49.98877" lon="2.37929">
        <ele>93.5</ele>
        <time>2022-11-16T13:55:34Z</time>
      </trkpt>
      <trkpt lat="49.98878" lon="2.37928">
        <ele>93.5</ele>
        <time>2022-11-16T13:55:35Z</time>
      </trkpt>
      <trkpt lat="49.98879" lon="2.37927">
        <ele>93.5</ele>
        <time>2022-11-16T13:55:36Z</time>
      </trkpt>
      <trkpt lat="49.9888" lon="2.37927">
        <ele>93.5</ele>
        <time>2022-11-16T13:55:38Z</time>
      </trkpt>
      <trkpt lat="49.98881" lon="2.37926">
        <ele>93.6</ele>
        <time>2022-11-16T13:55:39Z</time>
      </trkpt>
      <trkpt lat="49.98882" lon="2.37926">
        <ele>93.6</ele>
        <time>2022-11-16T13:55:40Z</time>
      </trkpt>
      <trkpt lat="49.98883" lon="2.37925">
        <ele>93.6</ele>
        <time>2022-11-16T13:55:41Z</time>
      </trkpt>
      <trkpt lat="49.98885" lon="2.37924">
        <ele>93.6</ele>
        <time>2022-11-16T13:55:42Z</time>
      </trkpt>
      <trkpt lat="49.98886" lon="2.37924">
        <ele>93.6</ele>
        <time>2022-11-16T13:55:43Z</time>
      </trkpt>
      <trkpt lat="49.98886" lon="2.37923">
        <ele>93.7</ele>
        <time>2022-11-16T13:55:44Z</time>
      </trkpt>
      <trkpt lat="49.98887" lon="2.37922">
        <ele>93.7</ele>
        <time>2022-11-16T13:55:46Z</time>
      </trkpt>
      <trkpt lat="49.98888" lon="2.37922">
        <ele>93.7</ele>
        <time>2022-11-16T13:55:47Z</time>
      </trkpt>
      <trkpt lat="49.98889" lon="2.37922">
        <ele>93.7</ele>
        <time>2022-11-16T13:55:48Z</time>
      </trkpt>
      <trkpt lat="49.9889" lon="2.37921">
        <ele>93.7</ele>
        <time>2022-11-16T13:55:49Z</time>
      </trkpt>
      <trkpt lat="49.98891" lon="2.37921">
        <ele>93.7</ele>
        <time>2022-11-16T13:55:50Z</time>
      </trkpt>
      <trkpt lat="49.98892" lon="2.3792">
        <ele>93.8</ele>
        <time>2022-11-16T13:55:51Z</time>
      </trkpt>
      <trkpt lat="49.98894" lon="2.37919">
        <ele>93.8</ele>
        <time>2022-11-16T13:55:52Z</time>
      </trkpt>
      <trkpt lat="49.98895" lon="2.37919">
        <ele>93.8</ele>
        <time>2022-11-16T13:55:53Z</time>
      </trkpt>
      <trkpt lat="49.98895" lon="2.37919">
        <ele>93.8</ele>
        <time>2022-11-16T13:55:54Z</time>
      </trkpt>
      <trkpt lat="49.98896" lon="2.37919">
        <ele>93.8</ele>
        <time>2022-11-16T13:55:56Z</time>
      </trkpt>
      <trkpt lat="49.98897" lon="2.37918">
        <ele>93.8</ele>
        <time>2022-11-16T13:55:57Z</time>
      </trkpt>
      <trkpt lat="49.98898" lon="2.37918">
        <ele>93.9</ele>
        <time>2022-11-16T13:55:58Z</time>
      </trkpt>
      <trkpt lat="49.98899" lon="2.37917">
        <ele>93.9</ele>
        <time>2022-11-16T13:55:59Z</time>
      </trkpt>
      <trkpt lat="49.989" lon="2.37917">
        <ele>93.9</ele>
        <time>2022-11-16T13:56:00Z</time>
      </trkpt>
      <trkpt lat="49.98901" lon="2.37916">
        <ele>93.9</ele>
        <time>2022-11-16T13:56:01Z</time>
      </trkpt>
      <trkpt lat="49.98902" lon="2.37916">
        <ele>93.9</ele>
        <time>2022-11-16T13:56:03Z</time>
      </trkpt>
      <trkpt lat="49.98903" lon="2.37916">
        <ele>94</ele>
        <time>2022-11-16T13:56:04Z</time>
      </trkpt>
      <trkpt lat="49.98905" lon="2.37915">
        <ele>94</ele>
        <time>2022-11-16T13:56:05Z</time>
      </trkpt>
      <trkpt lat="49.98906" lon="2.37915">
        <ele>94</ele>
        <time>2022-11-16T13:56:06Z</time>
      </trkpt>
      <trkpt lat="49.98907" lon="2.37915">
        <ele>94</ele>
        <time>2022-11-16T13:56:07Z</time>
      </trkpt>
      <trkpt lat="49.98907" lon="2.37914">
        <ele>94</ele>
        <time>2022-11-16T13:56:08Z</time>
      </trkpt>
      <trkpt lat="49.98908" lon="2.37913">
        <ele>94</ele>
        <time>2022-11-16T13:56:09Z</time>
      </trkpt>
      <trkpt lat="49.9891" lon="2.37913">
        <ele>94.1</ele>
        <time>2022-11-16T13:56:10Z</time>
      </trkpt>
      <trkpt lat="49.98911" lon="2.37912">
        <ele>94.1</ele>
        <time>2022-11-16T13:56:11Z</time>
      </trkpt>
      <trkpt lat="49.98912" lon="2.37912">
        <ele>94.1</ele>
        <time>2022-11-16T13:56:12Z</time>
      </trkpt>
      <trkpt lat="49.98913" lon="2.37911">
        <ele>94.1</ele>
        <time>2022-11-16T13:56:14Z</time>
      </trkpt>
      <trkpt lat="49.98914" lon="2.37911">
        <ele>94.1</ele>
        <time>2022-11-16T13:56:15Z</time>
      </trkpt>
      <trkpt lat="49.98915" lon="2.3791">
        <ele>94.2</ele>
        <time>2022-11-16T13:56:16Z</time>
      </trkpt>
      <trkpt lat="49.98916" lon="2.3791">
        <ele>94.2</ele>
        <time>2022-11-16T13:56:17Z</time>
      </trkpt>
      <trkpt lat="49.98916" lon="2.37909">
        <ele>94.2</ele>
        <time>2022-11-16T13:56:18Z</time>
      </trkpt>
      <trkpt lat="49.98918" lon="2.37908">
        <ele>94.2</ele>
        <time>2022-11-16T13:56:19Z</time>
      </trkpt>
      <trkpt lat="49.98919" lon="2.37907">
        <ele>94.2</ele>
        <time>2022-11-16T13:56:20Z</time>
      </trkpt>
      <trkpt lat="49.9892" lon="2.37907">
        <ele>94.3</ele>
        <time>2022-11-16T13:56:21Z</time>
      </trkpt>
      <trkpt lat="49.98922" lon="2.37906">
        <ele>94.3</ele>
        <time>2022-11-16T13:56:22Z</time>
      </trkpt>
      <trkpt lat="49.98923" lon="2.37905">
        <ele>94.3</ele>
        <time>2022-11-16T13:56:23Z</time>
      </trkpt>
      <trkpt lat="49.98924" lon="2.37905">
        <ele>94.3</ele>
        <time>2022-11-16T13:56:25Z</time>
      </trkpt>
      <trkpt lat="49.98925" lon="2.37904">
        <ele>94.3</ele>
        <time>2022-11-16T13:56:26Z</time>
      </trkpt>
      <trkpt lat="49.98926" lon="2.37904">
        <ele>94.4</ele>
        <time>2022-11-16T13:56:27Z</time>
      </trkpt>
      <trkpt lat="49.98927" lon="2.37903">
        <ele>94.4</ele>
        <time>2022-11-16T13:56:28Z</time>
      </trkpt>
      <trkpt lat="49.98928" lon="2.37903">
        <ele>94.4</ele>
        <time>2022-11-16T13:56:29Z</time>
      </trkpt>
      <trkpt lat="49.98929" lon="2.37902">
        <ele>94.4</ele>
        <time>2022-11-16T13:56:30Z</time>
      </trkpt>
      <trkpt lat="49.9893" lon="2.37901">
        <ele>94.4</ele>
        <time>2022-11-16T13:56:32Z</time>
      </trkpt>
      <trkpt lat="49.98931" lon="2.379">
        <ele>94.5</ele>
        <time>2022-11-16T13:56:33Z</time>
      </trkpt>
      <trkpt lat="49.98932" lon="2.37899">
        <ele>94.5</ele>
        <time>2022-11-16T13:56:34Z</time>
      </trkpt>
      <trkpt lat="49.98933" lon="2.37898">
        <ele>94.5</ele>
        <time>2022-11-16T13:56:35Z</time>
      </trkpt>
      <trkpt lat="49.98934" lon="2.37898">
        <ele>94.5</ele>
        <time>2022-11-16T13:56:36Z</time>
      </trkpt>
      <trkpt lat="49.98934" lon="2.37897">
        <ele>94.5</ele>
        <time>2022-11-16T13:56:37Z</time>
      </trkpt>
      <trkpt lat="49.98935" lon="2.37896">
        <ele>94.5</ele>
        <time>2022-11-16T13:56:38Z</time>
      </trkpt>
      <trkpt lat="49.98936" lon="2.37896">
        <ele>94.6</ele>
        <time>2022-11-16T13:56:40Z</time>
      </trkpt>
      <trkpt lat="49.98937" lon="2.37895">
        <ele>94.6</ele>
        <time>2022-11-16T13:56:41Z</time>
      </trkpt>
      <trkpt lat="49.98938" lon="2.37894">
        <ele>94.6</ele>
        <time>2022-11-16T13:56:42Z</time>
      </trkpt>
      <trkpt lat="49.98939" lon="2.37894">
        <ele>94.6</ele>
        <time>2022-11-16T13:56:43Z</time>
      </trkpt>
      <trkpt lat="49.9894" lon="2.37893">
        <ele>94.6</ele>
        <time>2022-11-16T13:56:44Z</time>
      </trkpt>
      <trkpt lat="49.98941" lon="2.37892">
        <ele>94.7</ele>
        <time>2022-11-16T13:56:45Z</time>
      </trkpt>
      <trkpt lat="49.98942" lon="2.37891">
        <ele>94.7</ele>
        <time>2022-11-16T13:56:46Z</time>
      </trkpt>
      <trkpt lat="49.98943" lon="2.3789">
        <ele>94.7</ele>
        <time>2022-11-16T13:56:47Z</time>
      </trkpt>
      <trkpt lat="49.98944" lon="2.37889">
        <ele>94.7</ele>
        <time>2022-11-16T13:56:48Z</time>
      </trkpt>
      <trkpt lat="49.98947" lon="2.37887">
        <ele>94.8</ele>
        <time>2022-11-16T13:56:49Z</time>
      </trkpt>
      <trkpt lat="49.98948" lon="2.37887">
        <ele>94.8</ele>
        <time>2022-11-16T13:56:51Z</time>
      </trkpt>
      <trkpt lat="49.98949" lon="2.37886">
        <ele>94.8</ele>
        <time>2022-11-16T13:56:52Z</time>
      </trkpt>
      <trkpt lat="49.9895" lon="2.37885">
        <ele>94.8</ele>
        <time>2022-11-16T13:56:53Z</time>
      </trkpt>
      <trkpt lat="49.98951" lon="2.37884">
        <ele>94.8</ele>
        <time>2022-11-16T13:56:54Z</time>
      </trkpt>
      <trkpt lat="49.98952" lon="2.37883">
        <ele>94.9</ele>
        <time>2022-11-16T13:56:55Z</time>
      </trkpt>
      <trkpt lat="49.98954" lon="2.37882">
        <ele>94.9</ele>
        <time>2022-11-16T13:56:56Z</time>
      </trkpt>
      <trkpt lat="49.98955" lon="2.3788">
        <ele>94.9</ele>
        <time>2022-11-16T13:56:57Z</time>
      </trkpt>
      <trkpt lat="49.98956" lon="2.37879">
        <ele>95</ele>
        <time>2022-11-16T13:56:58Z</time>
      </trkpt>
      <trkpt lat="49.98957" lon="2.37877">
        <ele>95</ele>
        <time>2022-11-16T13:57:00Z</time>
      </trkpt>
      <trkpt lat="49.98958" lon="2.37876">
        <ele>95</ele>
        <time>2022-11-16T13:57:01Z</time>
      </trkpt>
      <trkpt lat="49.98959" lon="2.37875">
        <ele>95</ele>
        <time>2022-11-16T13:57:02Z</time>
      </trkpt>
      <trkpt lat="49.98961" lon="2.37873">
        <ele>95.1</ele>
        <time>2022-11-16T13:57:03Z</time>
      </trkpt>
      <trkpt lat="49.98961" lon="2.37872">
        <ele>95.1</ele>
        <time>2022-11-16T13:57:04Z</time>
      </trkpt>
      <trkpt lat="49.98962" lon="2.37871">
        <ele>95.1</ele>
        <time>2022-11-16T13:57:05Z</time>
      </trkpt>
      <trkpt lat="49.98963" lon="2.3787">
        <ele>95.1</ele>
        <time>2022-11-16T13:57:06Z</time>
      </trkpt>
      <trkpt lat="49.98964" lon="2.37869">
        <ele>95.1</ele>
        <time>2022-11-16T13:57:08Z</time>
      </trkpt>
      <trkpt lat="49.98964" lon="2.37868">
        <ele>95.1</ele>
        <time>2022-11-16T13:57:09Z</time>
      </trkpt>
      <trkpt lat="49.98965" lon="2.37866">
        <ele>95.2</ele>
        <time>2022-11-16T13:57:10Z</time>
      </trkpt>
      <trkpt lat="49.98966" lon="2.37865">
        <ele>95.2</ele>
        <time>2022-11-16T13:57:11Z</time>
      </trkpt>
      <trkpt lat="49.98967" lon="2.37863">
        <ele>95.2</ele>
        <time>2022-11-16T13:57:12Z</time>
      </trkpt>
      <trkpt lat="49.98968" lon="2.37861">
        <ele>95.2</ele>
        <time>2022-11-16T13:57:13Z</time>
      </trkpt>
      <trkpt lat="49.98969" lon="2.3786">
        <ele>95.3</ele>
        <time>2022-11-16T13:57:14Z</time>
      </trkpt>
      <trkpt lat="49.9897" lon="2.3786">
        <ele>95.3</ele>
        <time>2022-11-16T13:57:15Z</time>
      </trkpt>
      <trkpt lat="49.9897" lon="2.37858">
        <ele>95.3</ele>
        <time>2022-11-16T13:57:17Z</time>
      </trkpt>
      <trkpt lat="49.98971" lon="2.37857">
        <ele>95.3</ele>
        <time>2022-11-16T13:57:18Z</time>
      </trkpt>
      <trkpt lat="49.98972" lon="2.37856">
        <ele>95.3</ele>
        <time>2022-11-16T13:57:19Z</time>
      </trkpt>
      <trkpt lat="49.98974" lon="2.37854">
        <ele>95.4</ele>
        <time>2022-11-16T13:57:20Z</time>
      </trkpt>
      <trkpt lat="49.98974" lon="2.37853">
        <ele>95.4</ele>
        <time>2022-11-16T13:57:21Z</time>
      </trkpt>
      <trkpt lat="49.98975" lon="2.37852">
        <ele>95.4</ele>
        <time>2022-11-16T13:57:22Z</time>
      </trkpt>
      <trkpt lat="49.98976" lon="2.37851">
        <ele>95.4</ele>
        <time>2022-11-16T13:57:23Z</time>
      </trkpt>
      <trkpt lat="49.98977" lon="2.37849">
        <ele>95.4</ele>
        <time>2022-11-16T13:57:24Z</time>
      </trkpt>
      <trkpt lat="49.98978" lon="2.37848">
        <ele>95.5</ele>
        <time>2022-11-16T13:57:26Z</time>
      </trkpt>
      <trkpt lat="49.98978" lon="2.37847">
        <ele>95.5</ele>
        <time>2022-11-16T13:57:27Z</time>
      </trkpt>
      <trkpt lat="49.98979" lon="2.37846">
        <ele>95.5</ele>
        <time>2022-11-16T13:57:28Z</time>
      </trkpt>
      <trkpt lat="49.9898" lon="2.37845">
        <ele>95.5</ele>
        <time>2022-11-16T13:57:29Z</time>
      </trkpt>
      <trkpt lat="49.98981" lon="2.37844">
        <ele>95.5</ele>
        <time>2022-11-16T13:57:30Z</time>
      </trkpt>
      <trkpt lat="49.98982" lon="2.37843">
        <ele>95.5</ele>
        <time>2022-11-16T13:57:31Z</time>
      </trkpt>
      <trkpt lat="49.98982" lon="2.37841">
        <ele>95.6</ele>
        <time>2022-11-16T13:57:32Z</time>
      </trkpt>
      <trkpt lat="49.98983" lon="2.3784">
        <ele>95.6</ele>
        <time>2022-11-16T13:57:33Z</time>
      </trkpt>
      <trkpt lat="49.98984" lon="2.37838">
        <ele>95.6</ele>
        <time>2022-11-16T13:57:34Z</time>
      </trkpt>
      <trkpt lat="49.98984" lon="2.37838">
        <ele>95.6</ele>
        <time>2022-11-16T13:57:35Z</time>
      </trkpt>
      <trkpt lat="49.98984" lon="2.37836">
        <ele>95.6</ele>
        <time>2022-11-16T13:57:37Z</time>
      </trkpt>
      <trkpt lat="49.98985" lon="2.37835">
        <ele>95.6</ele>
        <time>2022-11-16T13:57:38Z</time>
      </trkpt>
      <trkpt lat="49.98985" lon="2.37834">
        <ele>95.7</ele>
        <time>2022-11-16T13:57:39Z</time>
      </trkpt>
      <trkpt lat="49.98986" lon="2.37833">
        <ele>95.7</ele>
        <time>2022-11-16T13:57:40Z</time>
      </trkpt>
      <trkpt lat="49.98986" lon="2.37831">
        <ele>95.7</ele>
        <time>2022-11-16T13:57:41Z</time>
      </trkpt>
      <trkpt lat="49.98987" lon="2.37831">
        <ele>95.7</ele>
        <time>2022-11-16T13:57:42Z</time>
      </trkpt>
      <trkpt lat="49.98988" lon="2.3783">
        <ele>95.7</ele>
        <time>2022-11-16T13:57:43Z</time>
      </trkpt>
      <trkpt lat="49.98989" lon="2.37829">
        <ele>95.7</ele>
        <time>2022-11-16T13:57:44Z</time>
      </trkpt>
      <trkpt lat="49.9899" lon="2.37828">
        <ele>95.8</ele>
        <time>2022-11-16T13:57:46Z</time>
      </trkpt>
      <trkpt lat="49.9899" lon="2.37827">
        <ele>95.8</ele>
        <time>2022-11-16T13:57:47Z</time>
      </trkpt>
      <trkpt lat="49.98992" lon="2.37827">
        <ele>95.8</ele>
        <time>2022-11-16T13:57:48Z</time>
      </trkpt>
      <trkpt lat="49.98993" lon="2.37826">
        <ele>95.8</ele>
        <time>2022-11-16T13:57:49Z</time>
      </trkpt>
      <trkpt lat="49.98994" lon="2.37824">
        <ele>95.8</ele>
        <time>2022-11-16T13:57:50Z</time>
      </trkpt>
      <trkpt lat="49.98995" lon="2.37823">
        <ele>95.9</ele>
        <time>2022-11-16T13:57:51Z</time>
      </trkpt>
      <trkpt lat="49.98995" lon="2.37822">
        <ele>95.9</ele>
        <time>2022-11-16T13:57:52Z</time>
      </trkpt>
      <trkpt lat="49.98997" lon="2.3782">
        <ele>95.9</ele>
        <time>2022-11-16T13:57:53Z</time>
      </trkpt>
      <trkpt lat="49.98997" lon="2.37819">
        <ele>95.9</ele>
        <time>2022-11-16T13:57:55Z</time>
      </trkpt>
      <trkpt lat="49.98998" lon="2.37818">
        <ele>95.9</ele>
        <time>2022-11-16T13:57:56Z</time>
      </trkpt>
      <trkpt lat="49.98999" lon="2.37815">
        <ele>96</ele>
        <time>2022-11-16T13:57:57Z</time>
      </trkpt>
      <trkpt lat="49.99" lon="2.37814">
        <ele>96</ele>
        <time>2022-11-16T13:57:58Z</time>
      </trkpt>
      <trkpt lat="49.99" lon="2.37814">
        <ele>96</ele>
        <time>2022-11-16T13:57:59Z</time>
      </trkpt>
      <trkpt lat="49.99001" lon="2.37812">
        <ele>96</ele>
        <time>2022-11-16T13:58:00Z</time>
      </trkpt>
      <trkpt lat="49.99002" lon="2.37811">
        <ele>96</ele>
        <time>2022-11-16T13:58:02Z</time>
      </trkpt>
      <trkpt lat="49.99003" lon="2.3781">
        <ele>96.1</ele>
        <time>2022-11-16T13:58:03Z</time>
      </trkpt>
      <trkpt lat="49.99004" lon="2.37809">
        <ele>96.1</ele>
        <time>2022-11-16T13:58:04Z</time>
      </trkpt>
      <trkpt lat="49.99004" lon="2.37808">
        <ele>96.1</ele>
        <time>2022-11-16T13:58:05Z</time>
      </trkpt>
      <trkpt lat="49.99005" lon="2.37806">
        <ele>96.1</ele>
        <time>2022-11-16T13:58:06Z</time>
      </trkpt>
      <trkpt lat="49.99006" lon="2.37805">
        <ele>96.1</ele>
        <time>2022-11-16T13:58:07Z</time>
      </trkpt>
      <trkpt lat="49.99007" lon="2.37804">
        <ele>96.2</ele>
        <time>2022-11-16T13:58:08Z</time>
      </trkpt>
      <trkpt lat="49.99008" lon="2.37802">
        <ele>96.2</ele>
        <time>2022-11-16T13:58:10Z</time>
      </trkpt>
      <trkpt lat="49.99009" lon="2.37801">
        <ele>96.2</ele>
        <time>2022-11-16T13:58:11Z</time>
      </trkpt>
      <trkpt lat="49.9901" lon="2.378">
        <ele>96.2</ele>
        <time>2022-11-16T13:58:12Z</time>
      </trkpt>
      <trkpt lat="49.9901" lon="2.37798">
        <ele>96.2</ele>
        <time>2022-11-16T13:58:13Z</time>
      </trkpt>
      <trkpt lat="49.99011" lon="2.37797">
        <ele>96.3</ele>
        <time>2022-11-16T13:58:14Z</time>
      </trkpt>
      <trkpt lat="49.99012" lon="2.37796">
        <ele>96.3</ele>
        <time>2022-11-16T13:58:15Z</time>
      </trkpt>
      <trkpt lat="49.99012" lon="2.37795">
        <ele>96.3</ele>
        <time>2022-11-16T13:58:16Z</time>
      </trkpt>
      <trkpt lat="49.99013" lon="2.37794">
        <ele>96.3</ele>
        <time>2022-11-16T13:58:17Z</time>
      </trkpt>
      <trkpt lat="49.99014" lon="2.37793">
        <ele>96.3</ele>
        <time>2022-11-16T13:58:18Z</time>
      </trkpt>
      <trkpt lat="49.99015" lon="2.37791">
        <ele>96.4</ele>
        <time>2022-11-16T13:58:19Z</time>
      </trkpt>
      <trkpt lat="49.99016" lon="2.3779">
        <ele>96.4</ele>
        <time>2022-11-16T13:58:20Z</time>
      </trkpt>
      <trkpt lat="49.99016" lon="2.37789">
        <ele>96.4</ele>
        <time>2022-11-16T13:58:21Z</time>
      </trkpt>
      <trkpt lat="49.99017" lon="2.37788">
        <ele>96.4</ele>
        <time>2022-11-16T13:58:22Z</time>
      </trkpt>
      <trkpt lat="49.99017" lon="2.37787">
        <ele>96.4</ele>
        <time>2022-11-16T13:58:23Z</time>
      </trkpt>
      <trkpt lat="49.99018" lon="2.37785">
        <ele>96.4</ele>
        <time>2022-11-16T13:58:24Z</time>
      </trkpt>
      <trkpt lat="49.99019" lon="2.37784">
        <ele>96.5</ele>
        <time>2022-11-16T13:58:25Z</time>
      </trkpt>
      <trkpt lat="49.9902" lon="2.37783">
        <ele>96.5</ele>
        <time>2022-11-16T13:58:26Z</time>
      </trkpt>
      <trkpt lat="49.99021" lon="2.37782">
        <ele>96.5</ele>
        <time>2022-11-16T13:58:28Z</time>
      </trkpt>
      <trkpt lat="49.99022" lon="2.37781">
        <ele>96.5</ele>
        <time>2022-11-16T13:58:29Z</time>
      </trkpt>
      <trkpt lat="49.99023" lon="2.3778">
        <ele>96.5</ele>
        <time>2022-11-16T13:58:30Z</time>
      </trkpt>
      <trkpt lat="49.99024" lon="2.37778">
        <ele>96.6</ele>
        <time>2022-11-16T13:58:31Z</time>
      </trkpt>
      <trkpt lat="49.99024" lon="2.37777">
        <ele>96.6</ele>
        <time>2022-11-16T13:58:32Z</time>
      </trkpt>
      <trkpt lat="49.99025" lon="2.37776">
        <ele>96.6</ele>
        <time>2022-11-16T13:58:34Z</time>
      </trkpt>
      <trkpt lat="49.99026" lon="2.37775">
        <ele>96.6</ele>
        <time>2022-11-16T13:58:35Z</time>
      </trkpt>
      <trkpt lat="49.99027" lon="2.37774">
        <ele>96.6</ele>
        <time>2022-11-16T13:58:36Z</time>
      </trkpt>
      <trkpt lat="49.99027" lon="2.37773">
        <ele>96.7</ele>
        <time>2022-11-16T13:58:37Z</time>
      </trkpt>
      <trkpt lat="49.99028" lon="2.37772">
        <ele>96.7</ele>
        <time>2022-11-16T13:58:38Z</time>
      </trkpt>
      <trkpt lat="49.99029" lon="2.37771">
        <ele>96.7</ele>
        <time>2022-11-16T13:58:39Z</time>
      </trkpt>
      <trkpt lat="49.99029" lon="2.3777">
        <ele>96.7</ele>
        <time>2022-11-16T13:58:40Z</time>
      </trkpt>
      <trkpt lat="49.9903" lon="2.37769">
        <ele>96.7</ele>
        <time>2022-11-16T13:58:41Z</time>
      </trkpt>
      <trkpt lat="49.99031" lon="2.37768">
        <ele>96.7</ele>
        <time>2022-11-16T13:58:42Z</time>
      </trkpt>
      <trkpt lat="49.99033" lon="2.37766">
        <ele>96.8</ele>
        <time>2022-11-16T13:58:43Z</time>
      </trkpt>
      <trkpt lat="49.99033" lon="2.37765">
        <ele>96.8</ele>
        <time>2022-11-16T13:58:44Z</time>
      </trkpt>
      <trkpt lat="49.99034" lon="2.37764">
        <ele>96.8</ele>
        <time>2022-11-16T13:58:45Z</time>
      </trkpt>
      <trkpt lat="49.99035" lon="2.37763">
        <ele>96.8</ele>
        <time>2022-11-16T13:58:47Z</time>
      </trkpt>
      <trkpt lat="49.99035" lon="2.37762">
        <ele>96.8</ele>
        <time>2022-11-16T13:58:48Z</time>
      </trkpt>
      <trkpt lat="49.99036" lon="2.37761">
        <ele>96.9</ele>
        <time>2022-11-16T13:58:49Z</time>
      </trkpt>
      <trkpt lat="49.99037" lon="2.3776">
        <ele>96.9</ele>
        <time>2022-11-16T13:58:50Z</time>
      </trkpt>
      <trkpt lat="49.99037" lon="2.37759">
        <ele>96.9</ele>
        <time>2022-11-16T13:58:51Z</time>
      </trkpt>
      <trkpt lat="49.99038" lon="2.37758">
        <ele>96.9</ele>
        <time>2022-11-16T13:58:52Z</time>
      </trkpt>
      <trkpt lat="49.99039" lon="2.37756">
        <ele>96.9</ele>
        <time>2022-11-16T13:58:53Z</time>
      </trkpt>
      <trkpt lat="49.9904" lon="2.37755">
        <ele>97</ele>
        <time>2022-11-16T13:58:54Z</time>
      </trkpt>
      <trkpt lat="49.9904" lon="2.37753">
        <ele>97</ele>
        <time>2022-11-16T13:58:55Z</time>
      </trkpt>
      <trkpt lat="49.99041" lon="2.37752">
        <ele>97</ele>
        <time>2022-11-16T13:58:56Z</time>
      </trkpt>
      <trkpt lat="49.99042" lon="2.37751">
        <ele>97</ele>
        <time>2022-11-16T13:58:58Z</time>
      </trkpt>
      <trkpt lat="49.99042" lon="2.3775">
        <ele>97</ele>
        <time>2022-11-16T13:58:59Z</time>
      </trkpt>
      <trkpt lat="49.99043" lon="2.37749">
        <ele>97</ele>
        <time>2022-11-16T13:59:00Z</time>
      </trkpt>
      <trkpt lat="49.99043" lon="2.37748">
        <ele>97</ele>
        <time>2022-11-16T13:59:01Z</time>
      </trkpt>
      <trkpt lat="49.99044" lon="2.37747">
        <ele>97.1</ele>
        <time>2022-11-16T13:59:02Z</time>
      </trkpt>
      <trkpt lat="49.99045" lon="2.37745">
        <ele>97.1</ele>
        <time>2022-11-16T13:59:03Z</time>
      </trkpt>
      <trkpt lat="49.99046" lon="2.37744">
        <ele>97.1</ele>
        <time>2022-11-16T13:59:04Z</time>
      </trkpt>
      <trkpt lat="49.99046" lon="2.37743">
        <ele>97.1</ele>
        <time>2022-11-16T13:59:05Z</time>
      </trkpt>
      <trkpt lat="49.99047" lon="2.37742">
        <ele>97.1</ele>
        <time>2022-11-16T13:59:06Z</time>
      </trkpt>
      <trkpt lat="49.99048" lon="2.3774">
        <ele>97.2</ele>
        <time>2022-11-16T13:59:07Z</time>
      </trkpt>
      <trkpt lat="49.99049" lon="2.37738">
        <ele>97.2</ele>
        <time>2022-11-16T13:59:08Z</time>
      </trkpt>
      <trkpt lat="49.99049" lon="2.37737">
        <ele>97.2</ele>
        <time>2022-11-16T13:59:10Z</time>
      </trkpt>
      <trkpt lat="49.9905" lon="2.37736">
        <ele>97.2</ele>
        <time>2022-11-16T13:59:11Z</time>
      </trkpt>
      <trkpt lat="49.99051" lon="2.37735">
        <ele>97.2</ele>
        <time>2022-11-16T13:59:12Z</time>
      </trkpt>
      <trkpt lat="49.99051" lon="2.37734">
        <ele>97.3</ele>
        <time>2022-11-16T13:59:13Z</time>
      </trkpt>
      <trkpt lat="49.99052" lon="2.37732">
        <ele>97.3</ele>
        <time>2022-11-16T13:59:14Z</time>
      </trkpt>
      <trkpt lat="49.99053" lon="2.37731">
        <ele>97.3</ele>
        <time>2022-11-16T13:59:16Z</time>
      </trkpt>
      <trkpt lat="49.99054" lon="2.3773">
        <ele>97.3</ele>
        <time>2022-11-16T13:59:17Z</time>
      </trkpt>
      <trkpt lat="49.99055" lon="2.37728">
        <ele>97.3</ele>
        <time>2022-11-16T13:59:18Z</time>
      </trkpt>
      <trkpt lat="49.99056" lon="2.37727">
        <ele>97.4</ele>
        <time>2022-11-16T13:59:19Z</time>
      </trkpt>
      <trkpt lat="49.99056" lon="2.37727">
        <ele>97.4</ele>
        <time>2022-11-16T13:59:20Z</time>
      </trkpt>
      <trkpt lat="49.99057" lon="2.37726">
        <ele>97.4</ele>
        <time>2022-11-16T13:59:21Z</time>
      </trkpt>
      <trkpt lat="49.99058" lon="2.37725">
        <ele>97.4</ele>
        <time>2022-11-16T13:59:22Z</time>
      </trkpt>
      <trkpt lat="49.99059" lon="2.37724">
        <ele>97.4</ele>
        <time>2022-11-16T13:59:24Z</time>
      </trkpt>
      <trkpt lat="49.99059" lon="2.37723">
        <ele>97.4</ele>
        <time>2022-11-16T13:59:25Z</time>
      </trkpt>
      <trkpt lat="49.9906" lon="2.37721">
        <ele>97.5</ele>
        <time>2022-11-16T13:59:26Z</time>
      </trkpt>
      <trkpt lat="49.9906" lon="2.3772">
        <ele>97.5</ele>
        <time>2022-11-16T13:59:27Z</time>
      </trkpt>
      <trkpt lat="49.99061" lon="2.37719">
        <ele>97.5</ele>
        <time>2022-11-16T13:59:28Z</time>
      </trkpt>
      <trkpt lat="49.99062" lon="2.37716">
        <ele>97.5</ele>
        <time>2022-11-16T13:59:30Z</time>
      </trkpt>
      <trkpt lat="49.99063" lon="2.37715">
        <ele>97.5</ele>
        <time>2022-11-16T13:59:31Z</time>
      </trkpt>
      <trkpt lat="49.99063" lon="2.37714">
        <ele>97.6</ele>
        <time>2022-11-16T13:59:32Z</time>
      </trkpt>
      <trkpt lat="49.99064" lon="2.37713">
        <ele>97.6</ele>
        <time>2022-11-16T13:59:33Z</time>
      </trkpt>
      <trkpt lat="49.99065" lon="2.37711">
        <ele>97.6</ele>
        <time>2022-11-16T13:59:35Z</time>
      </trkpt>
      <trkpt lat="49.99065" lon="2.3771">
        <ele>97.6</ele>
        <time>2022-11-16T13:59:36Z</time>
      </trkpt>
      <trkpt lat="49.99066" lon="2.37708">
        <ele>97.6</ele>
        <time>2022-11-16T13:59:37Z</time>
      </trkpt>
      <trkpt lat="49.99067" lon="2.37706">
        <ele>97.7</ele>
        <time>2022-11-16T13:59:38Z</time>
      </trkpt>
      <trkpt lat="49.99067" lon="2.37705">
        <ele>97.7</ele>
        <time>2022-11-16T13:59:39Z</time>
      </trkpt>
      <trkpt lat="49.99068" lon="2.37704">
        <ele>97.7</ele>
        <time>2022-11-16T13:59:41Z</time>
      </trkpt>
      <trkpt lat="49.99069" lon="2.37703">
        <ele>97.7</ele>
        <time>2022-11-16T13:59:42Z</time>
      </trkpt>
      <trkpt lat="49.9907" lon="2.37702">
        <ele>97.7</ele>
        <time>2022-11-16T13:59:43Z</time>
      </trkpt>
      <trkpt lat="49.99071" lon="2.377">
        <ele>97.8</ele>
        <time>2022-11-16T13:59:44Z</time>
      </trkpt>
      <trkpt lat="49.99072" lon="2.37699">
        <ele>97.8</ele>
        <time>2022-11-16T13:59:45Z</time>
      </trkpt>
      <trkpt lat="49.99072" lon="2.37698">
        <ele>97.8</ele>
        <time>2022-11-16T13:59:47Z</time>
      </trkpt>
      <trkpt lat="49.99073" lon="2.37697">
        <ele>97.8</ele>
        <time>2022-11-16T13:59:48Z</time>
      </trkpt>
      <trkpt lat="49.99073" lon="2.37696">
        <ele>97.8</ele>
        <time>2022-11-16T13:59:49Z</time>
      </trkpt>
      <trkpt lat="49.99074" lon="2.37695">
        <ele>97.8</ele>
        <time>2022-11-16T13:59:50Z</time>
      </trkpt>
      <trkpt lat="49.99074" lon="2.37694">
        <ele>97.8</ele>
        <time>2022-11-16T13:59:51Z</time>
      </trkpt>
      <trkpt lat="49.99076" lon="2.37692">
        <ele>97.9</ele>
        <time>2022-11-16T13:59:52Z</time>
      </trkpt>
      <trkpt lat="49.99076" lon="2.3769">
        <ele>97.9</ele>
        <time>2022-11-16T13:59:53Z</time>
      </trkpt>
      <trkpt lat="49.99077" lon="2.37689">
        <ele>97.9</ele>
        <time>2022-11-16T13:59:55Z</time>
      </trkpt>
      <trkpt lat="49.99078" lon="2.37688">
        <ele>97.9</ele>
        <time>2022-11-16T13:59:56Z</time>
      </trkpt>
      <trkpt lat="49.99078" lon="2.37687">
        <ele>98</ele>
        <time>2022-11-16T13:59:57Z</time>
      </trkpt>
      <trkpt lat="49.99079" lon="2.37686">
        <ele>98</ele>
        <time>2022-11-16T13:59:58Z</time>
      </trkpt>
      <trkpt lat="49.9908" lon="2.37685">
        <ele>98</ele>
        <time>2022-11-16T13:59:59Z</time>
      </trkpt>
      <trkpt lat="49.9908" lon="2.37684">
        <ele>98</ele>
        <time>2022-11-16T14:00:00Z</time>
      </trkpt>
      <trkpt lat="49.99081" lon="2.37683">
        <ele>98</ele>
        <time>2022-11-16T14:00:01Z</time>
      </trkpt>
      <trkpt lat="49.99082" lon="2.37682">
        <ele>98</ele>
        <time>2022-11-16T14:00:03Z</time>
      </trkpt>
      <trkpt lat="49.99082" lon="2.3768">
        <ele>98.1</ele>
        <time>2022-11-16T14:00:04Z</time>
      </trkpt>
      <trkpt lat="49.99083" lon="2.37679">
        <ele>98.1</ele>
        <time>2022-11-16T14:00:05Z</time>
      </trkpt>
      <trkpt lat="49.99084" lon="2.37678">
        <ele>98.1</ele>
        <time>2022-11-16T14:00:06Z</time>
      </trkpt>
      <trkpt lat="49.99085" lon="2.37676">
        <ele>98.1</ele>
        <time>2022-11-16T14:00:08Z</time>
      </trkpt>
      <trkpt lat="49.99086" lon="2.37675">
        <ele>98.1</ele>
        <time>2022-11-16T14:00:09Z</time>
      </trkpt>
      <trkpt lat="49.99086" lon="2.37674">
        <ele>98.1</ele>
        <time>2022-11-16T14:00:10Z</time>
      </trkpt>
      <trkpt lat="49.99087" lon="2.37673">
        <ele>98.2</ele>
        <time>2022-11-16T14:00:11Z</time>
      </trkpt>
      <trkpt lat="49.99088" lon="2.37672">
        <ele>98.2</ele>
        <time>2022-11-16T14:00:12Z</time>
      </trkpt>
      <trkpt lat="49.99088" lon="2.37671">
        <ele>98.2</ele>
        <time>2022-11-16T14:00:13Z</time>
      </trkpt>
      <trkpt lat="49.99089" lon="2.3767">
        <ele>98.2</ele>
        <time>2022-11-16T14:00:15Z</time>
      </trkpt>
      <trkpt lat="49.99089" lon="2.37669">
        <ele>98.2</ele>
        <time>2022-11-16T14:00:16Z</time>
      </trkpt>
      <trkpt lat="49.9909" lon="2.37667">
        <ele>98.3</ele>
        <time>2022-11-16T14:00:17Z</time>
      </trkpt>
      <trkpt lat="49.99091" lon="2.37666">
        <ele>98.3</ele>
        <time>2022-11-16T14:00:18Z</time>
      </trkpt>
      <trkpt lat="49.99091" lon="2.37665">
        <ele>98.3</ele>
        <time>2022-11-16T14:00:19Z</time>
      </trkpt>
      <trkpt lat="49.99092" lon="2.37664">
        <ele>98.3</ele>
        <time>2022-11-16T14:00:21Z</time>
      </trkpt>
      <trkpt lat="49.99093" lon="2.37663">
        <ele>98.3</ele>
        <time>2022-11-16T14:00:22Z</time>
      </trkpt>
      <trkpt lat="49.99093" lon="2.37661">
        <ele>98.3</ele>
        <time>2022-11-16T14:00:23Z</time>
      </trkpt>
      <trkpt lat="49.99094" lon="2.3766">
        <ele>98.4</ele>
        <time>2022-11-16T14:00:24Z</time>
      </trkpt>
      <trkpt lat="49.99095" lon="2.37659">
        <ele>98.4</ele>
        <time>2022-11-16T14:00:26Z</time>
      </trkpt>
      <trkpt lat="49.99095" lon="2.37658">
        <ele>98.4</ele>
        <time>2022-11-16T14:00:27Z</time>
      </trkpt>
      <trkpt lat="49.99096" lon="2.37656">
        <ele>98.4</ele>
        <time>2022-11-16T14:00:28Z</time>
      </trkpt>
      <trkpt lat="49.99097" lon="2.37655">
        <ele>98.4</ele>
        <time>2022-11-16T14:00:29Z</time>
      </trkpt>
      <trkpt lat="49.99097" lon="2.37653">
        <ele>98.4</ele>
        <time>2022-11-16T14:00:31Z</time>
      </trkpt>
      <trkpt lat="49.99098" lon="2.37652">
        <ele>98.5</ele>
        <time>2022-11-16T14:00:32Z</time>
      </trkpt>
      <trkpt lat="49.99098" lon="2.3765">
        <ele>98.5</ele>
        <time>2022-11-16T14:00:33Z</time>
      </trkpt>
      <trkpt lat="49.99099" lon="2.37648">
        <ele>98.5</ele>
        <time>2022-11-16T14:00:34Z</time>
      </trkpt>
      <trkpt lat="49.99099" lon="2.37647">
        <ele>98.5</ele>
        <time>2022-11-16T14:00:36Z</time>
      </trkpt>
      <trkpt lat="49.991" lon="2.37647">
        <ele>98.5</ele>
        <time>2022-11-16T14:00:37Z</time>
      </trkpt>
      <trkpt lat="49.991" lon="2.37647">
        <ele>98.5</ele>
        <time>2022-11-16T14:00:38Z</time>
      </trkpt>
      <trkpt lat="49.99101" lon="2.37646">
        <ele>98.6</ele>
        <time>2022-11-16T14:00:39Z</time>
      </trkpt>
      <trkpt lat="49.99102" lon="2.37645">
        <ele>98.6</ele>
        <time>2022-11-16T14:00:40Z</time>
      </trkpt>
      <trkpt lat="49.99102" lon="2.37644">
        <ele>98.6</ele>
        <time>2022-11-16T14:00:41Z</time>
      </trkpt>
      <trkpt lat="49.99103" lon="2.37644">
        <ele>98.6</ele>
        <time>2022-11-16T14:00:43Z</time>
      </trkpt>
      <trkpt lat="49.99104" lon="2.37644">
        <ele>98.6</ele>
        <time>2022-11-16T14:00:44Z</time>
      </trkpt>
      <trkpt lat="49.99104" lon="2.37643">
        <ele>98.6</ele>
        <time>2022-11-16T14:00:45Z</time>
      </trkpt>
      <trkpt lat="49.99105" lon="2.37643">
        <ele>98.6</ele>
        <time>2022-11-16T14:00:46Z</time>
      </trkpt>
      <trkpt lat="49.99105" lon="2.37642">
        <ele>98.6</ele>
        <time>2022-11-16T14:00:47Z</time>
      </trkpt>
      <trkpt lat="49.99105" lon="2.37641">
        <ele>98.6</ele>
        <time>2022-11-16T14:00:48Z</time>
      </trkpt>
      <trkpt lat="49.99106" lon="2.3764">
        <ele>98.7</ele>
        <time>2022-11-16T14:00:49Z</time>
      </trkpt>
      <trkpt lat="49.99106" lon="2.37639">
        <ele>98.7</ele>
        <time>2022-11-16T14:00:50Z</time>
      </trkpt>
      <trkpt lat="49.99107" lon="2.37639">
        <ele>98.7</ele>
        <time>2022-11-16T14:00:51Z</time>
      </trkpt>
      <trkpt lat="49.99107" lon="2.37638">
        <ele>98.7</ele>
        <time>2022-11-16T14:00:52Z</time>
      </trkpt>
      <trkpt lat="49.99106" lon="2.37637">
        <ele>98.7</ele>
        <time>2022-11-16T14:00:53Z</time>
      </trkpt>
      <trkpt lat="49.99106" lon="2.37638">
        <ele>98.7</ele>
        <time>2022-11-16T14:00:54Z</time>
      </trkpt>
      <trkpt lat="49.99106" lon="2.37638">
        <ele>98.7</ele>
        <time>2022-11-16T14:00:55Z</time>
      </trkpt>
      <trkpt lat="49.99106" lon="2.37638">
        <ele>98.7</ele>
        <time>2022-11-16T14:00:56Z</time>
      </trkpt>
      <trkpt lat="49.99106" lon="2.37638">
        <ele>98.7</ele>
        <time>2022-11-16T14:00:57Z</time>
      </trkpt>
      <trkpt lat="49.99106" lon="2.37638">
        <ele>98.7</ele>
        <time>2022-11-16T14:00:58Z</time>
      </trkpt>
      <trkpt lat="49.99106" lon="2.37638">
        <ele>98.7</ele>
        <time>2022-11-16T14:00:59Z</time>
      </trkpt>
      <trkpt lat="49.99106" lon="2.37638">
        <ele>98.7</ele>
        <time>2022-11-16T14:01:00Z</time>
      </trkpt>
      <trkpt lat="49.99106" lon="2.37638">
        <ele>98.7</ele>
        <time>2022-11-16T14:01:01Z</time>
      </trkpt>
      <trkpt lat="49.99106" lon="2.37638">
        <ele>98.7</ele>
        <time>2022-11-16T14:01:02Z</time>
      </trkpt>
      <trkpt lat="49.99106" lon="2.37638">
        <ele>98.7</ele>
        <time>2022-11-16T14:01:03Z</time>
      </trkpt>
      <trkpt lat="49.99106" lon="2.37638">
        <ele>98.7</ele>
        <time>2022-11-16T14:01:04Z</time>
      </trkpt>
      <trkpt lat="49.99106" lon="2.37638">
        <ele>98.7</ele>
        <time>2022-11-16T14:01:05Z</time>
      </trkpt>
      <trkpt lat="49.99106" lon="2.37638">
        <ele>98.7</ele>
        <time>2022-11-16T14:01:06Z</time>
      </trkpt>
      <trkpt lat="49.99106" lon="2.37638">
        <ele>98.7</ele>
        <time>2022-11-16T14:01:07Z</time>
      </trkpt>
      <trkpt lat="49.99106" lon="2.37638">
        <ele>98.7</ele>
        <time>2022-11-16T14:01:08Z</time>
      </trkpt>
      <trkpt lat="49.99105" lon="2.37638">
        <ele>98.7</ele>
        <time>2022-11-16T14:01:09Z</time>
      </trkpt>
      <trkpt lat="49.99105" lon="2.37638">
        <ele>98.7</ele>
        <time>2022-11-16T14:01:10Z</time>
      </trkpt>
      <trkpt lat="49.99105" lon="2.37638">
        <ele>98.7</ele>
        <time>2022-11-16T14:01:11Z</time>
      </trkpt>
      <trkpt lat="49.99105" lon="2.37638">
        <ele>98.7</ele>
        <time>2022-11-16T14:01:12Z</time>
      </trkpt>
      <trkpt lat="49.99105" lon="2.37638">
        <ele>98.7</ele>
        <time>2022-11-16T14:01:13Z</time>
      </trkpt>
      <trkpt lat="49.99105" lon="2.37638">
        <ele>98.7</ele>
        <time>2022-11-16T14:01:14Z</time>
      </trkpt>
      <trkpt lat="49.99105" lon="2.37638">
        <ele>98.7</ele>
        <time>2022-11-16T14:01:15Z</time>
      </trkpt>
      <trkpt lat="49.99105" lon="2.37638">
        <ele>98.7</ele>
        <time>2022-11-16T14:01:16Z</time>
      </trkpt>
      <trkpt lat="49.99105" lon="2.37639">
        <ele>98.7</ele>
        <time>2022-11-16T14:01:17Z</time>
      </trkpt>
      <trkpt lat="49.99105" lon="2.37639">
        <ele>98.7</ele>
        <time>2022-11-16T14:01:18Z</time>
      </trkpt>
      <trkpt lat="49.99105" lon="2.37639">
        <ele>98.7</ele>
        <time>2022-11-16T14:01:19Z</time>
      </trkpt>
      <trkpt lat="49.99105" lon="2.37639">
        <ele>98.7</ele>
        <time>2022-11-16T14:01:20Z</time>
      </trkpt>
      <trkpt lat="49.99105" lon="2.37639">
        <ele>98.7</ele>
        <time>2022-11-16T14:01:21Z</time>
      </trkpt>
      <trkpt lat="49.99105" lon="2.37639">
        <ele>98.7</ele>
        <time>2022-11-16T14:01:22Z</time>
      </trkpt>
      <trkpt lat="49.99105" lon="2.37639">
        <ele>98.7</ele>
        <time>2022-11-16T14:01:23Z</time>
      </trkpt>
      <trkpt lat="49.99105" lon="2.37639">
        <ele>98.7</ele>
        <time>2022-11-16T14:01:24Z</time>
      </trkpt>
      <trkpt lat="49.99105" lon="2.37639">
        <ele>98.7</ele>
        <time>2022-11-16T14:01:25Z</time>
      </trkpt>
      <trkpt lat="49.99105" lon="2.37639">
        <ele>98.7</ele>
        <time>2022-11-16T14:01:26Z</time>
      </trkpt>
      <trkpt lat="49.99105" lon="2.37639">
        <ele>98.7</ele>
        <time>2022-11-16T14:01:27Z</time>
      </trkpt>
      <trkpt lat="49.99104" lon="2.37639">
        <ele>98.7</ele>
        <time>2022-11-16T14:01:28Z</time>
      </trkpt>
      <trkpt lat="49.99104" lon="2.37639">
        <ele>98.8</ele>
        <time>2022-11-16T14:01:29Z</time>
      </trkpt>
      <trkpt lat="49.99104" lon="2.37639">
        <ele>98.8</ele>
        <time>2022-11-16T14:01:30Z</time>
      </trkpt>
      <trkpt lat="49.99104" lon="2.37639">
        <ele>98.8</ele>
        <time>2022-11-16T14:01:31Z</time>
      </trkpt>
      <trkpt lat="49.99104" lon="2.37639">
        <ele>98.8</ele>
        <time>2022-11-16T14:01:32Z</time>
      </trkpt>
      <trkpt lat="49.99104" lon="2.37639">
        <ele>98.8</ele>
        <time>2022-11-16T14:01:33Z</time>
      </trkpt>
      <trkpt lat="49.99104" lon="2.37639">
        <ele>98.8</ele>
        <time>2022-11-16T14:01:34Z</time>
      </trkpt>
      <trkpt lat="49.99104" lon="2.37639">
        <ele>98.8</ele>
        <time>2022-11-16T14:01:35Z</time>
      </trkpt>
      <trkpt lat="49.99104" lon="2.37639">
        <ele>98.8</ele>
        <time>2022-11-16T14:01:36Z</time>
      </trkpt>
      <trkpt lat="49.99104" lon="2.37639">
        <ele>98.8</ele>
        <time>2022-11-16T14:01:37Z</time>
      </trkpt>
      <trkpt lat="49.99104" lon="2.37639">
        <ele>98.8</ele>
        <time>2022-11-16T14:01:38Z</time>
      </trkpt>
      <trkpt lat="49.99104" lon="2.37639">
        <ele>98.8</ele>
        <time>2022-11-16T14:01:39Z</time>
      </trkpt>
      <trkpt lat="49.99104" lon="2.3764">
        <ele>98.8</ele>
        <time>2022-11-16T14:01:40Z</time>
      </trkpt>
      <trkpt lat="49.99104" lon="2.3764">
        <ele>98.8</ele>
        <time>2022-11-16T14:01:41Z</time>
      </trkpt>
      <trkpt lat="49.99104" lon="2.3764">
        <ele>98.8</ele>
        <time>2022-11-16T14:01:42Z</time>
      </trkpt>
      <trkpt lat="49.99104" lon="2.3764">
        <ele>98.8</ele>
        <time>2022-11-16T14:01:43Z</time>
      </trkpt>
      <trkpt lat="49.99104" lon="2.3764">
        <ele>98.8</ele>
        <time>2022-11-16T14:01:44Z</time>
      </trkpt>
      <trkpt lat="49.99104" lon="2.3764">
        <ele>98.8</ele>
        <time>2022-11-16T14:01:45Z</time>
      </trkpt>
      <trkpt lat="49.99103" lon="2.3764">
        <ele>98.8</ele>
        <time>2022-11-16T14:01:46Z</time>
      </trkpt>
      <trkpt lat="49.99103" lon="2.3764">
        <ele>98.8</ele>
        <time>2022-11-16T14:01:47Z</time>
      </trkpt>
      <trkpt lat="49.99103" lon="2.3764">
        <ele>98.8</ele>
        <time>2022-11-16T14:01:48Z</time>
      </trkpt>
      <trkpt lat="49.99103" lon="2.3764">
        <ele>98.8</ele>
        <time>2022-11-16T14:01:49Z</time>
      </trkpt>
      <trkpt lat="49.99102" lon="2.3764">
        <ele>98.8</ele>
        <time>2022-11-16T14:01:50Z</time>
      </trkpt>
      <trkpt lat="49.99102" lon="2.3764">
        <ele>98.8</ele>
        <time>2022-11-16T14:01:51Z</time>
      </trkpt>
      <trkpt lat="49.99102" lon="2.3764">
        <ele>98.8</ele>
        <time>2022-11-16T14:01:52Z</time>
      </trkpt>
      <trkpt lat="49.99102" lon="2.3764">
        <ele>98.8</ele>
        <time>2022-11-16T14:01:53Z</time>
      </trkpt>
      <trkpt lat="49.99102" lon="2.3764">
        <ele>98.8</ele>
        <time>2022-11-16T14:01:54Z</time>
      </trkpt>
      <trkpt lat="49.99102" lon="2.3764">
        <ele>98.8</ele>
        <time>2022-11-16T14:01:55Z</time>
      </trkpt>
      <trkpt lat="49.99102" lon="2.3764">
        <ele>98.8</ele>
        <time>2022-11-16T14:01:56Z</time>
      </trkpt>
      <trkpt lat="49.99102" lon="2.3764">
        <ele>98.8</ele>
        <time>2022-11-16T14:01:57Z</time>
      </trkpt>
      <trkpt lat="49.99102" lon="2.3764">
        <ele>98.8</ele>
        <time>2022-11-16T14:01:58Z</time>
      </trkpt>
      <trkpt lat="49.99102" lon="2.3764">
        <ele>98.8</ele>
        <time>2022-11-16T14:01:59Z</time>
      </trkpt>
      <trkpt lat="49.99102" lon="2.3764">
        <ele>98.8</ele>
        <time>2022-11-16T14:02:00Z</time>
      </trkpt>
      <trkpt lat="49.99102" lon="2.3764">
        <ele>98.8</ele>
        <time>2022-11-16T14:02:01Z</time>
      </trkpt>
      <trkpt lat="49.99102" lon="2.3764">
        <ele>98.8</ele>
        <time>2022-11-16T14:02:02Z</time>
      </trkpt>
      <trkpt lat="49.99102" lon="2.3764">
        <ele>98.8</ele>
        <time>2022-11-16T14:02:03Z</time>
      </trkpt>
      <trkpt lat="49.99102" lon="2.3764">
        <ele>98.8</ele>
        <time>2022-11-16T14:02:04Z</time>
      </trkpt>
      <trkpt lat="49.99102" lon="2.3764">
        <ele>98.8</ele>
        <time>2022-11-16T14:02:05Z</time>
      </trkpt>
      <trkpt lat="49.99102" lon="2.3764">
        <ele>98.8</ele>
        <time>2022-11-16T14:02:06Z</time>
      </trkpt>
      <trkpt lat="49.99102" lon="2.3764">
        <ele>98.8</ele>
        <time>2022-11-16T14:02:07Z</time>
      </trkpt>
      <trkpt lat="49.99102" lon="2.3764">
        <ele>98.8</ele>
        <time>2022-11-16T14:02:08Z</time>
      </trkpt>
      <trkpt lat="49.99102" lon="2.3764">
        <ele>98.8</ele>
        <time>2022-11-16T14:02:09Z</time>
      </trkpt>
      <trkpt lat="49.99102" lon="2.3764">
        <ele>98.8</ele>
        <time>2022-11-16T14:02:10Z</time>
      </trkpt>
      <trkpt lat="49.99102" lon="2.3764">
        <ele>98.8</ele>
        <time>2022-11-16T14:02:11Z</time>
      </trkpt>
      <trkpt lat="49.99102" lon="2.3764">
        <ele>98.8</ele>
        <time>2022-11-16T14:02:12Z</time>
      </trkpt>
      <trkpt lat="49.99102" lon="2.3764">
        <ele>98.8</ele>
        <time>2022-11-16T14:02:13Z</time>
      </trkpt>
      <trkpt lat="49.99102" lon="2.3764">
        <ele>98.8</ele>
        <time>2022-11-16T14:02:14Z</time>
      </trkpt>
      <trkpt lat="49.99102" lon="2.3764">
        <ele>98.8</ele>
        <time>2022-11-16T14:02:15Z</time>
      </trkpt>
      <trkpt lat="49.99102" lon="2.3764">
        <ele>98.8</ele>
        <time>2022-11-16T14:02:16Z</time>
      </trkpt>
      <trkpt lat="49.99102" lon="2.3764">
        <ele>98.8</ele>
        <time>2022-11-16T14:02:17Z</time>
      </trkpt>
      <trkpt lat="49.99102" lon="2.3764">
        <ele>98.8</ele>
        <time>2022-11-16T14:02:18Z</time>
      </trkpt>
      <trkpt lat="49.99102" lon="2.3764">
        <ele>98.8</ele>
        <time>2022-11-16T14:02:19Z</time>
      </trkpt>
      <trkpt lat="49.99102" lon="2.3764">
        <ele>98.8</ele>
        <time>2022-11-16T14:02:20Z</time>
      </trkpt>
      <trkpt lat="49.99102" lon="2.3764">
        <ele>98.8</ele>
        <time>2022-11-16T14:02:21Z</time>
      </trkpt>
      <trkpt lat="49.99102" lon="2.3764">
        <ele>98.8</ele>
        <time>2022-11-16T14:02:22Z</time>
      </trkpt>
      <trkpt lat="49.99102" lon="2.3764">
        <ele>98.8</ele>
        <time>2022-11-16T14:02:23Z</time>
      </trkpt>
      <trkpt lat="49.99102" lon="2.3764">
        <ele>98.8</ele>
        <time>2022-11-16T14:02:24Z</time>
      </trkpt>
      <trkpt lat="49.99102" lon="2.3764">
        <ele>98.8</ele>
        <time>2022-11-16T14:02:25Z</time>
      </trkpt>
      <trkpt lat="49.99102" lon="2.3764">
        <ele>98.8</ele>
        <time>2022-11-16T14:02:26Z</time>
      </trkpt>
      <trkpt lat="49.99102" lon="2.3764">
        <ele>98.8</ele>
        <time>2022-11-16T14:02:27Z</time>
      </trkpt>
      <trkpt lat="49.99102" lon="2.3764">
        <ele>98.8</ele>
        <time>2022-11-16T14:02:28Z</time>
      </trkpt>
      <trkpt lat="49.99102" lon="2.3764">
        <ele>98.8</ele>
        <time>2022-11-16T14:02:29Z</time>
      </trkpt>
      <trkpt lat="49.99102" lon="2.3764">
        <ele>98.8</ele>
        <time>2022-11-16T14:02:30Z</time>
      </trkpt>
      <trkpt lat="49.99102" lon="2.3764">
        <ele>98.8</ele>
        <time>2022-11-16T14:02:31Z</time>
      </trkpt>
      <trkpt lat="49.99102" lon="2.3764">
        <ele>98.8</ele>
        <time>2022-11-16T14:02:32Z</time>
      </trkpt>
      <trkpt lat="49.99102" lon="2.3764">
        <ele>98.8</ele>
        <time>2022-11-16T14:02:33Z</time>
      </trkpt>
      <trkpt lat="49.99102" lon="2.3764">
        <ele>98.8</ele>
        <time>2022-11-16T14:02:34Z</time>
      </trkpt>
      <trkpt lat="49.99102" lon="2.3764">
        <ele>98.8</ele>
        <time>2022-11-16T14:02:35Z</time>
      </trkpt>
      <trkpt lat="49.99102" lon="2.3764">
        <ele>98.8</ele>
        <time>2022-11-16T14:02:36Z</time>
      </trkpt>
      <trkpt lat="49.99102" lon="2.3764">
        <ele>98.8</ele>
        <time>2022-11-16T14:02:37Z</time>
      </trkpt>
      <trkpt lat="49.99102" lon="2.3764">
        <ele>98.8</ele>
        <time>2022-11-16T14:02:38Z</time>
      </trkpt>
      <trkpt lat="49.99102" lon="2.3764">
        <ele>98.8</ele>
        <time>2022-11-16T14:02:39Z</time>
      </trkpt>
      <trkpt lat="49.99102" lon="2.3764">
        <ele>98.8</ele>
        <time>2022-11-16T14:02:40Z</time>
      </trkpt>
      <trkpt lat="49.99102" lon="2.3764">
        <ele>98.8</ele>
        <time>2022-11-16T14:02:41Z</time>
      </trkpt>
      <trkpt lat="49.99102" lon="2.3764">
        <ele>98.8</ele>
        <time>2022-11-16T14:02:42Z</time>
      </trkpt>
      <trkpt lat="49.99102" lon="2.3764">
        <ele>98.8</ele>
        <time>2022-11-16T14:02:43Z</time>
      </trkpt>
      <trkpt lat="49.99102" lon="2.3764">
        <ele>98.8</ele>
        <time>2022-11-16T14:02:44Z</time>
      </trkpt>
      <trkpt lat="49.99102" lon="2.3764">
        <ele>98.8</ele>
        <time>2022-11-16T14:02:45Z</time>
      </trkpt>
      <trkpt lat="49.99102" lon="2.3764">
        <ele>98.8</ele>
        <time>2022-11-16T14:02:46Z</time>
      </trkpt>
      <trkpt lat="49.99102" lon="2.3764">
        <ele>98.8</ele>
        <time>2022-11-16T14:02:47Z</time>
      </trkpt>
      <trkpt lat="49.99102" lon="2.3764">
        <ele>98.8</ele>
        <time>2022-11-16T14:02:48Z</time>
      </trkpt>
      <trkpt lat="49.99102" lon="2.3764">
        <ele>98.8</ele>
        <time>2022-11-16T14:02:49Z</time>
      </trkpt>
      <trkpt lat="49.99102" lon="2.3764">
        <ele>98.8</ele>
        <time>2022-11-16T14:02:50Z</time>
      </trkpt>
      <trkpt lat="49.99102" lon="2.3764">
        <ele>98.8</ele>
        <time>2022-11-16T14:02:51Z</time>
      </trkpt>
      <trkpt lat="49.99102" lon="2.3764">
        <ele>98.8</ele>
        <time>2022-11-16T14:02:52Z</time>
      </trkpt>
      <trkpt lat="49.99102" lon="2.3764">
        <ele>98.8</ele>
        <time>2022-11-16T14:02:53Z</time>
      </trkpt>
      <trkpt lat="49.99102" lon="2.3764">
        <ele>98.8</ele>
        <time>2022-11-16T14:02:54Z</time>
      </trkpt>
      <trkpt lat="49.99102" lon="2.3764">
        <ele>98.8</ele>
        <time>2022-11-16T14:02:55Z</time>
      </trkpt>
      <trkpt lat="49.99102" lon="2.3764">
        <ele>98.8</ele>
        <time>2022-11-16T14:02:56Z</time>
      </trkpt>
      <trkpt lat="49.99102" lon="2.3764">
        <ele>98.8</ele>
        <time>2022-11-16T14:02:57Z</time>
      </trkpt>
      <trkpt lat="49.99102" lon="2.3764">
        <ele>98.8</ele>
        <time>2022-11-16T14:02:58Z</time>
      </trkpt>
      <trkpt lat="49.99102" lon="2.3764">
        <ele>98.8</ele>
        <time>2022-11-16T14:02:59Z</time>
      </trkpt>
      <trkpt lat="49.99102" lon="2.3764">
        <ele>98.8</ele>
        <time>2022-11-16T14:03:00Z</time>
      </trkpt>
      <trkpt lat="49.99102" lon="2.3764">
        <ele>98.8</ele>
        <time>2022-11-16T14:03:01Z</time>
      </trkpt>
      <trkpt lat="49.99102" lon="2.3764">
        <ele>98.8</ele>
        <time>2022-11-16T14:03:02Z</time>
      </trkpt>
      <trkpt lat="49.99102" lon="2.3764">
        <ele>98.8</ele>
        <time>2022-11-16T14:03:03Z</time>
      </trkpt>
      <trkpt lat="49.99102" lon="2.3764">
        <ele>98.8</ele>
        <time>2022-11-16T14:03:04Z</time>
      </trkpt>
      <trkpt lat="49.99102" lon="2.3764">
        <ele>98.8</ele>
        <time>2022-11-16T14:03:05Z</time>
      </trkpt>
      <trkpt lat="49.99102" lon="2.3764">
        <ele>98.8</ele>
        <time>2022-11-16T14:03:06Z</time>
      </trkpt>
      <trkpt lat="49.99102" lon="2.3764">
        <ele>98.8</ele>
        <time>2022-11-16T14:03:07Z</time>
      </trkpt>
      <trkpt lat="49.99102" lon="2.3764">
        <ele>98.8</ele>
        <time>2022-11-16T14:03:08Z</time>
      </trkpt>
      <trkpt lat="49.99102" lon="2.3764">
        <ele>98.8</ele>
        <time>2022-11-16T14:03:09Z</time>
      </trkpt>
      <trkpt lat="49.99102" lon="2.3764">
        <ele>98.8</ele>
        <time>2022-11-16T14:03:10Z</time>
      </trkpt>
      <trkpt lat="49.99102" lon="2.3764">
        <ele>98.8</ele>
        <time>2022-11-16T14:03:11Z</time>
      </trkpt>
      <trkpt lat="49.99102" lon="2.3764">
        <ele>98.8</ele>
        <time>2022-11-16T14:03:12Z</time>
      </trkpt>
      <trkpt lat="49.99102" lon="2.3764">
        <ele>98.8</ele>
        <time>2022-11-16T14:03:13Z</time>
      </trkpt>
      <trkpt lat="49.99102" lon="2.3764">
        <ele>98.8</ele>
        <time>2022-11-16T14:03:14Z</time>
      </trkpt>
      <trkpt lat="49.99102" lon="2.3764">
        <ele>98.8</ele>
        <time>2022-11-16T14:03:15Z</time>
      </trkpt>
      <trkpt lat="49.99102" lon="2.3764">
        <ele>98.8</ele>
        <time>2022-11-16T14:03:16Z</time>
      </trkpt>
      <trkpt lat="49.99102" lon="2.3764">
        <ele>98.8</ele>
        <time>2022-11-16T14:03:17Z</time>
      </trkpt>
      <trkpt lat="49.99102" lon="2.3764">
        <ele>98.8</ele>
        <time>2022-11-16T14:03:18Z</time>
      </trkpt>
      <trkpt lat="49.99102" lon="2.3764">
        <ele>98.8</ele>
        <time>2022-11-16T14:03:19Z</time>
      </trkpt>
      <trkpt lat="49.99102" lon="2.3764">
        <ele>98.8</ele>
        <time>2022-11-16T14:03:20Z</time>
      </trkpt>
      <trkpt lat="49.99102" lon="2.3764">
        <ele>98.8</ele>
        <time>2022-11-16T14:03:21Z</time>
      </trkpt>
      <trkpt lat="49.99102" lon="2.3764">
        <ele>98.8</ele>
        <time>2022-11-16T14:03:22Z</time>
      </trkpt>
      <trkpt lat="49.99102" lon="2.3764">
        <ele>98.8</ele>
        <time>2022-11-16T14:03:23Z</time>
      </trkpt>
      <trkpt lat="49.99102" lon="2.3764">
        <ele>98.8</ele>
        <time>2022-11-16T14:03:24Z</time>
      </trkpt>
      <trkpt lat="49.99102" lon="2.3764">
        <ele>98.8</ele>
        <time>2022-11-16T14:03:25Z</time>
      </trkpt>
      <trkpt lat="49.99102" lon="2.3764">
        <ele>98.8</ele>
        <time>2022-11-16T14:03:26Z</time>
      </trkpt>
      <trkpt lat="49.99102" lon="2.3764">
        <ele>98.8</ele>
        <time>2022-11-16T14:03:27Z</time>
      </trkpt>
      <trkpt lat="49.99102" lon="2.3764">
        <ele>98.8</ele>
        <time>2022-11-16T14:03:28Z</time>
      </trkpt>
      <trkpt lat="49.99102" lon="2.3764">
        <ele>98.8</ele>
        <time>2022-11-16T14:03:29Z</time>
      </trkpt>
      <trkpt lat="49.99102" lon="2.3764">
        <ele>98.8</ele>
        <time>2022-11-16T14:03:30Z</time>
      </trkpt>
      <trkpt lat="49.99102" lon="2.3764">
        <ele>98.8</ele>
        <time>2022-11-16T14:03:31Z</time>
      </trkpt>
      <trkpt lat="49.99102" lon="2.3764">
        <ele>98.8</ele>
        <time>2022-11-16T14:03:32Z</time>
      </trkpt>
      <trkpt lat="49.99102" lon="2.3764">
        <ele>98.8</ele>
        <time>2022-11-16T14:03:33Z</time>
      </trkpt>
      <trkpt lat="49.99102" lon="2.3764">
        <ele>98.8</ele>
        <time>2022-11-16T14:03:34Z</time>
      </trkpt>
      <trkpt lat="49.99102" lon="2.3764">
        <ele>98.8</ele>
        <time>2022-11-16T14:03:35Z</time>
      </trkpt>
      <trkpt lat="49.99102" lon="2.3764">
        <ele>98.8</ele>
        <time>2022-11-16T14:03:36Z</time>
      </trkpt>
      <trkpt lat="49.99102" lon="2.3764">
        <ele>98.8</ele>
        <time>2022-11-16T14:03:37Z</time>
      </trkpt>
      <trkpt lat="49.99102" lon="2.3764">
        <ele>98.8</ele>
        <time>2022-11-16T14:03:38Z</time>
      </trkpt>
      <trkpt lat="49.99102" lon="2.3764">
        <ele>98.8</ele>
        <time>2022-11-16T14:03:39Z</time>
      </trkpt>
      <trkpt lat="49.99102" lon="2.3764">
        <ele>98.8</ele>
        <time>2022-11-16T14:03:40Z</time>
      </trkpt>
      <trkpt lat="49.99102" lon="2.3764">
        <ele>98.8</ele>
        <time>2022-11-16T14:03:41Z</time>
      </trkpt>
      <trkpt lat="49.99102" lon="2.3764">
        <ele>98.8</ele>
        <time>2022-11-16T14:03:42Z</time>
      </trkpt>
      <trkpt lat="49.99102" lon="2.3764">
        <ele>98.8</ele>
        <time>2022-11-16T14:03:43Z</time>
      </trkpt>
      <trkpt lat="49.99102" lon="2.3764">
        <ele>98.8</ele>
        <time>2022-11-16T14:03:44Z</time>
      </trkpt>
      <trkpt lat="49.99102" lon="2.3764">
        <ele>98.8</ele>
        <time>2022-11-16T14:03:45Z</time>
      </trkpt>
      <trkpt lat="49.99102" lon="2.3764">
        <ele>98.8</ele>
        <time>2022-11-16T14:03:46Z</time>
      </trkpt>
      <trkpt lat="49.99102" lon="2.3764">
        <ele>98.8</ele>
        <time>2022-11-16T14:03:47Z</time>
      </trkpt>
      <trkpt lat="49.99102" lon="2.3764">
        <ele>98.8</ele>
        <time>2022-11-16T14:03:48Z</time>
      </trkpt>
      <trkpt lat="49.99102" lon="2.3764">
        <ele>98.8</ele>
        <time>2022-11-16T14:03:49Z</time>
      </trkpt>
      <trkpt lat="49.99102" lon="2.3764">
        <ele>98.8</ele>
        <time>2022-11-16T14:03:50Z</time>
      </trkpt>
      <trkpt lat="49.99102" lon="2.3764">
        <ele>98.8</ele>
        <time>2022-11-16T14:03:51Z</time>
      </trkpt>
      <trkpt lat="49.99102" lon="2.3764">
        <ele>98.8</ele>
        <time>2022-11-16T14:03:52Z</time>
      </trkpt>
      <trkpt lat="49.99102" lon="2.3764">
        <ele>98.8</ele>
        <time>2022-11-16T14:03:53Z</time>
      </trkpt>
      <trkpt lat="49.99102" lon="2.3764">
        <ele>98.8</ele>
        <time>2022-11-16T14:03:54Z</time>
      </trkpt>
      <trkpt lat="49.99102" lon="2.3764">
        <ele>98.8</ele>
        <time>2022-11-16T14:03:55Z</time>
      </trkpt>
      <trkpt lat="49.99102" lon="2.3764">
        <ele>98.8</ele>
        <time>2022-11-16T14:03:56Z</time>
      </trkpt>
      <trkpt lat="49.99102" lon="2.3764">
        <ele>98.8</ele>
        <time>2022-11-16T14:03:57Z</time>
      </trkpt>
      <trkpt lat="49.99102" lon="2.3764">
        <ele>98.8</ele>
        <time>2022-11-16T14:03:58Z</time>
      </trkpt>
      <trkpt lat="49.99102" lon="2.3764">
        <ele>98.8</ele>
        <time>2022-11-16T14:03:59Z</time>
      </trkpt>
      <trkpt lat="49.99102" lon="2.3764">
        <ele>98.8</ele>
        <time>2022-11-16T14:04:00Z</time>
      </trkpt>
      <trkpt lat="49.99102" lon="2.3764">
        <ele>98.8</ele>
        <time>2022-11-16T14:04:01Z</time>
      </trkpt>
      <trkpt lat="49.99102" lon="2.3764">
        <ele>98.8</ele>
        <time>2022-11-16T14:04:02Z</time>
      </trkpt>
      <trkpt lat="49.99102" lon="2.3764">
        <ele>98.8</ele>
        <time>2022-11-16T14:04:03Z</time>
      </trkpt>
      <trkpt lat="49.99102" lon="2.3764">
        <ele>98.8</ele>
        <time>2022-11-16T14:04:04Z</time>
      </trkpt>
      <trkpt lat="49.99102" lon="2.3764">
        <ele>98.8</ele>
        <time>2022-11-16T14:04:05Z</time>
      </trkpt>
      <trkpt lat="49.99102" lon="2.3764">
        <ele>98.8</ele>
        <time>2022-11-16T14:04:06Z</time>
      </trkpt>
      <trkpt lat="49.99102" lon="2.3764">
        <ele>98.8</ele>
        <time>2022-11-16T14:04:07Z</time>
      </trkpt>
      <trkpt lat="49.99102" lon="2.3764">
        <ele>98.8</ele>
        <time>2022-11-16T14:04:08Z</time>
      </trkpt>
      <trkpt lat="49.99102" lon="2.3764">
        <ele>98.8</ele>
        <time>2022-11-16T14:04:09Z</time>
      </trkpt>
      <trkpt lat="49.99102" lon="2.3764">
        <ele>98.8</ele>
        <time>2022-11-16T14:04:10Z</time>
      </trkpt>
      <trkpt lat="49.99102" lon="2.3764">
        <ele>98.8</ele>
        <time>2022-11-16T14:04:11Z</time>
      </trkpt>
      <trkpt lat="49.99102" lon="2.3764">
        <ele>98.8</ele>
        <time>2022-11-16T14:04:12Z</time>
      </trkpt>
      <trkpt lat="49.99102" lon="2.3764">
        <ele>98.8</ele>
        <time>2022-11-16T14:04:13Z</time>
      </trkpt>
      <trkpt lat="49.99102" lon="2.3764">
        <ele>98.8</ele>
        <time>2022-11-16T14:04:14Z</time>
      </trkpt>
      <trkpt lat="49.99102" lon="2.3764">
        <ele>98.8</ele>
        <time>2022-11-16T14:04:15Z</time>
      </trkpt>
      <trkpt lat="49.99102" lon="2.3764">
        <ele>98.8</ele>
        <time>2022-11-16T14:04:16Z</time>
      </trkpt>
      <trkpt lat="49.99102" lon="2.37641">
        <ele>98.8</ele>
        <time>2022-11-16T14:04:17Z</time>
      </trkpt>
      <trkpt lat="49.99102" lon="2.3764">
        <ele>98.8</ele>
        <time>2022-11-16T14:04:18Z</time>
      </trkpt>
      <trkpt lat="49.99102" lon="2.37638">
        <ele>98.8</ele>
        <time>2022-11-16T14:04:19Z</time>
      </trkpt>
      <trkpt lat="49.99102" lon="2.37637">
        <ele>98.9</ele>
        <time>2022-11-16T14:04:20Z</time>
      </trkpt>
      <trkpt lat="49.99102" lon="2.37636">
        <ele>98.9</ele>
        <time>2022-11-16T14:04:21Z</time>
      </trkpt>
      <trkpt lat="49.99102" lon="2.37636">
        <ele>98.9</ele>
        <time>2022-11-16T14:04:22Z</time>
      </trkpt>
      <trkpt lat="49.99101" lon="2.37636">
        <ele>98.9</ele>
        <time>2022-11-16T14:04:23Z</time>
      </trkpt>
      <trkpt lat="49.99101" lon="2.37636">
        <ele>98.9</ele>
        <time>2022-11-16T14:04:24Z</time>
      </trkpt>
      <trkpt lat="49.99101" lon="2.37636">
        <ele>98.9</ele>
        <time>2022-11-16T14:04:25Z</time>
      </trkpt>
      <trkpt lat="49.99101" lon="2.37636">
        <ele>98.9</ele>
        <time>2022-11-16T14:04:26Z</time>
      </trkpt>
      <trkpt lat="49.99102" lon="2.37635">
        <ele>98.9</ele>
        <time>2022-11-16T14:04:27Z</time>
      </trkpt>
      <trkpt lat="49.99102" lon="2.37635">
        <ele>98.9</ele>
        <time>2022-11-16T14:04:28Z</time>
      </trkpt>
      <trkpt lat="49.99102" lon="2.37634">
        <ele>98.9</ele>
        <time>2022-11-16T14:04:29Z</time>
      </trkpt>
      <trkpt lat="49.99103" lon="2.37633">
        <ele>98.9</ele>
        <time>2022-11-16T14:04:30Z</time>
      </trkpt>
      <trkpt lat="49.99103" lon="2.37632">
        <ele>98.9</ele>
        <time>2022-11-16T14:04:31Z</time>
      </trkpt>
      <trkpt lat="49.99103" lon="2.37631">
        <ele>98.9</ele>
        <time>2022-11-16T14:04:32Z</time>
      </trkpt>
      <trkpt lat="49.99103" lon="2.37631">
        <ele>98.9</ele>
        <time>2022-11-16T14:04:33Z</time>
      </trkpt>
      <trkpt lat="49.99102" lon="2.37631">
        <ele>99</ele>
        <time>2022-11-16T14:04:34Z</time>
      </trkpt>
      <trkpt lat="49.99102" lon="2.37632">
        <ele>99</ele>
        <time>2022-11-16T14:04:35Z</time>
      </trkpt>
      <trkpt lat="49.99102" lon="2.37632">
        <ele>99</ele>
        <time>2022-11-16T14:04:36Z</time>
      </trkpt>
      <trkpt lat="49.99102" lon="2.37632">
        <ele>99</ele>
        <time>2022-11-16T14:04:37Z</time>
      </trkpt>
      <trkpt lat="49.99102" lon="2.37631">
        <ele>99</ele>
        <time>2022-11-16T14:04:38Z</time>
      </trkpt>
      <trkpt lat="49.99103" lon="2.37631">
        <ele>99</ele>
        <time>2022-11-16T14:04:39Z</time>
      </trkpt>
      <trkpt lat="49.99103" lon="2.37631">
        <ele>99</ele>
        <time>2022-11-16T14:04:40Z</time>
      </trkpt>
      <trkpt lat="49.99103" lon="2.3763">
        <ele>99</ele>
        <time>2022-11-16T14:04:41Z</time>
      </trkpt>
      <trkpt lat="49.99104" lon="2.37629">
        <ele>99</ele>
        <time>2022-11-16T14:04:42Z</time>
      </trkpt>
      <trkpt lat="49.99105" lon="2.37628">
        <ele>99</ele>
        <time>2022-11-16T14:04:43Z</time>
      </trkpt>
      <trkpt lat="49.99105" lon="2.37627">
        <ele>99</ele>
        <time>2022-11-16T14:04:44Z</time>
      </trkpt>
      <trkpt lat="49.99106" lon="2.37626">
        <ele>99</ele>
        <time>2022-11-16T14:04:45Z</time>
      </trkpt>
      <trkpt lat="49.99107" lon="2.37625">
        <ele>99.1</ele>
        <time>2022-11-16T14:04:46Z</time>
      </trkpt>
      <trkpt lat="49.99107" lon="2.37624">
        <ele>99.1</ele>
        <time>2022-11-16T14:04:47Z</time>
      </trkpt>
      <trkpt lat="49.99108" lon="2.37623">
        <ele>99.1</ele>
        <time>2022-11-16T14:04:48Z</time>
      </trkpt>
      <trkpt lat="49.99109" lon="2.37623">
        <ele>99.1</ele>
        <time>2022-11-16T14:04:49Z</time>
      </trkpt>
      <trkpt lat="49.9911" lon="2.37622">
        <ele>99.1</ele>
        <time>2022-11-16T14:04:50Z</time>
      </trkpt>
      <trkpt lat="49.99111" lon="2.37621">
        <ele>99.1</ele>
        <time>2022-11-16T14:04:51Z</time>
      </trkpt>
      <trkpt lat="49.99112" lon="2.3762">
        <ele>99.2</ele>
        <time>2022-11-16T14:04:52Z</time>
      </trkpt>
      <trkpt lat="49.99112" lon="2.37619">
        <ele>99.2</ele>
        <time>2022-11-16T14:04:53Z</time>
      </trkpt>
      <trkpt lat="49.99113" lon="2.37618">
        <ele>99.2</ele>
        <time>2022-11-16T14:04:54Z</time>
      </trkpt>
      <trkpt lat="49.99114" lon="2.37617">
        <ele>99.2</ele>
        <time>2022-11-16T14:04:55Z</time>
      </trkpt>
      <trkpt lat="49.99115" lon="2.37616">
        <ele>99.2</ele>
        <time>2022-11-16T14:04:56Z</time>
      </trkpt>
      <trkpt lat="49.99115" lon="2.37615">
        <ele>99.3</ele>
        <time>2022-11-16T14:04:57Z</time>
      </trkpt>
      <trkpt lat="49.99116" lon="2.37614">
        <ele>99.3</ele>
        <time>2022-11-16T14:04:58Z</time>
      </trkpt>
      <trkpt lat="49.99117" lon="2.37613">
        <ele>99.3</ele>
        <time>2022-11-16T14:04:59Z</time>
      </trkpt>
      <trkpt lat="49.99117" lon="2.37612">
        <ele>99.3</ele>
        <time>2022-11-16T14:05:00Z</time>
      </trkpt>
      <trkpt lat="49.99119" lon="2.37611">
        <ele>99.3</ele>
        <time>2022-11-16T14:05:01Z</time>
      </trkpt>
      <trkpt lat="49.9912" lon="2.3761">
        <ele>99.3</ele>
        <time>2022-11-16T14:05:02Z</time>
      </trkpt>
      <trkpt lat="49.99121" lon="2.37607">
        <ele>99.4</ele>
        <time>2022-11-16T14:05:03Z</time>
      </trkpt>
      <trkpt lat="49.99122" lon="2.37606">
        <ele>99.4</ele>
        <time>2022-11-16T14:05:05Z</time>
      </trkpt>
      <trkpt lat="49.99123" lon="2.37604">
        <ele>99.4</ele>
        <time>2022-11-16T14:05:06Z</time>
      </trkpt>
      <trkpt lat="49.99123" lon="2.37603">
        <ele>99.4</ele>
        <time>2022-11-16T14:05:07Z</time>
      </trkpt>
      <trkpt lat="49.99124" lon="2.37602">
        <ele>99.5</ele>
        <time>2022-11-16T14:05:08Z</time>
      </trkpt>
      <trkpt lat="49.99125" lon="2.376">
        <ele>99.5</ele>
        <time>2022-11-16T14:05:09Z</time>
      </trkpt>
      <trkpt lat="49.99126" lon="2.37598">
        <ele>99.5</ele>
        <time>2022-11-16T14:05:10Z</time>
      </trkpt>
      <trkpt lat="49.99127" lon="2.37597">
        <ele>99.5</ele>
        <time>2022-11-16T14:05:12Z</time>
      </trkpt>
      <trkpt lat="49.99127" lon="2.37595">
        <ele>99.6</ele>
        <time>2022-11-16T14:05:13Z</time>
      </trkpt>
      <trkpt lat="49.99129" lon="2.37592">
        <ele>99.6</ele>
        <time>2022-11-16T14:05:14Z</time>
      </trkpt>
      <trkpt lat="49.9913" lon="2.37592">
        <ele>99.6</ele>
        <time>2022-11-16T14:05:15Z</time>
      </trkpt>
      <trkpt lat="49.9913" lon="2.37591">
        <ele>99.6</ele>
        <time>2022-11-16T14:05:16Z</time>
      </trkpt>
      <trkpt lat="49.99131" lon="2.37589">
        <ele>99.6</ele>
        <time>2022-11-16T14:05:17Z</time>
      </trkpt>
      <trkpt lat="49.99132" lon="2.37588">
        <ele>99.7</ele>
        <time>2022-11-16T14:05:18Z</time>
      </trkpt>
      <trkpt lat="49.99133" lon="2.37586">
        <ele>99.7</ele>
        <time>2022-11-16T14:05:20Z</time>
      </trkpt>
      <trkpt lat="49.99134" lon="2.37584">
        <ele>99.7</ele>
        <time>2022-11-16T14:05:21Z</time>
      </trkpt>
      <trkpt lat="49.99135" lon="2.37583">
        <ele>99.7</ele>
        <time>2022-11-16T14:05:22Z</time>
      </trkpt>
      <trkpt lat="49.99135" lon="2.37582">
        <ele>99.8</ele>
        <time>2022-11-16T14:05:23Z</time>
      </trkpt>
      <trkpt lat="49.99136" lon="2.37581">
        <ele>99.8</ele>
        <time>2022-11-16T14:05:24Z</time>
      </trkpt>
      <trkpt lat="49.99137" lon="2.37579">
        <ele>99.8</ele>
        <time>2022-11-16T14:05:25Z</time>
      </trkpt>
      <trkpt lat="49.99138" lon="2.37578">
        <ele>99.8</ele>
        <time>2022-11-16T14:05:27Z</time>
      </trkpt>
      <trkpt lat="49.99139" lon="2.37577">
        <ele>99.8</ele>
        <time>2022-11-16T14:05:28Z</time>
      </trkpt>
      <trkpt lat="49.9914" lon="2.37576">
        <ele>99.9</ele>
        <time>2022-11-16T14:05:29Z</time>
      </trkpt>
      <trkpt lat="49.99141" lon="2.37574">
        <ele>99.9</ele>
        <time>2022-11-16T14:05:30Z</time>
      </trkpt>
      <trkpt lat="49.99142" lon="2.37572">
        <ele>99.9</ele>
        <time>2022-11-16T14:05:31Z</time>
      </trkpt>
      <trkpt lat="49.99142" lon="2.37571">
        <ele>99.9</ele>
        <time>2022-11-16T14:05:32Z</time>
      </trkpt>
      <trkpt lat="49.99143" lon="2.3757">
        <ele>99.9</ele>
        <time>2022-11-16T14:05:33Z</time>
      </trkpt>
      <trkpt lat="49.99144" lon="2.37568">
        <ele>100</ele>
        <time>2022-11-16T14:05:34Z</time>
      </trkpt>
      <trkpt lat="49.99145" lon="2.37567">
        <ele>100</ele>
        <time>2022-11-16T14:05:36Z</time>
      </trkpt>
      <trkpt lat="49.99145" lon="2.37566">
        <ele>100</ele>
        <time>2022-11-16T14:05:37Z</time>
      </trkpt>
      <trkpt lat="49.99147" lon="2.37563">
        <ele>100</ele>
        <time>2022-11-16T14:05:38Z</time>
      </trkpt>
      <trkpt lat="49.99147" lon="2.37562">
        <ele>100.1</ele>
        <time>2022-11-16T14:05:39Z</time>
      </trkpt>
      <trkpt lat="49.99148" lon="2.37561">
        <ele>100.1</ele>
        <time>2022-11-16T14:05:40Z</time>
      </trkpt>
      <trkpt lat="49.99149" lon="2.37558">
        <ele>100.1</ele>
        <time>2022-11-16T14:05:41Z</time>
      </trkpt>
      <trkpt lat="49.99149" lon="2.37557">
        <ele>100.1</ele>
        <time>2022-11-16T14:05:43Z</time>
      </trkpt>
      <trkpt lat="49.9915" lon="2.37556">
        <ele>100.1</ele>
        <time>2022-11-16T14:05:44Z</time>
      </trkpt>
      <trkpt lat="49.9915" lon="2.37555">
        <ele>100.1</ele>
        <time>2022-11-16T14:05:45Z</time>
      </trkpt>
      <trkpt lat="49.9915" lon="2.37554">
        <ele>100.2</ele>
        <time>2022-11-16T14:05:46Z</time>
      </trkpt>
      <trkpt lat="49.99151" lon="2.37553">
        <ele>100.2</ele>
        <time>2022-11-16T14:05:47Z</time>
      </trkpt>
      <trkpt lat="49.99152" lon="2.37552">
        <ele>100.2</ele>
        <time>2022-11-16T14:05:48Z</time>
      </trkpt>
      <trkpt lat="49.99152" lon="2.37551">
        <ele>100.2</ele>
        <time>2022-11-16T14:05:49Z</time>
      </trkpt>
      <trkpt lat="49.99153" lon="2.3755">
        <ele>100.2</ele>
        <time>2022-11-16T14:05:50Z</time>
      </trkpt>
      <trkpt lat="49.99154" lon="2.37549">
        <ele>100.2</ele>
        <time>2022-11-16T14:05:51Z</time>
      </trkpt>
      <trkpt lat="49.99156" lon="2.37548">
        <ele>100.3</ele>
        <time>2022-11-16T14:05:52Z</time>
      </trkpt>
      <trkpt lat="49.99156" lon="2.37548">
        <ele>100.3</ele>
        <time>2022-11-16T14:05:54Z</time>
      </trkpt>
      <trkpt lat="49.99157" lon="2.37547">
        <ele>100.3</ele>
        <time>2022-11-16T14:05:55Z</time>
      </trkpt>
      <trkpt lat="49.99157" lon="2.37546">
        <ele>100.3</ele>
        <time>2022-11-16T14:05:56Z</time>
      </trkpt>
      <trkpt lat="49.99158" lon="2.37545">
        <ele>100.3</ele>
        <time>2022-11-16T14:05:57Z</time>
      </trkpt>
      <trkpt lat="49.99159" lon="2.37544">
        <ele>100.3</ele>
        <time>2022-11-16T14:05:58Z</time>
      </trkpt>
      <trkpt lat="49.9916" lon="2.37543">
        <ele>100.4</ele>
        <time>2022-11-16T14:05:59Z</time>
      </trkpt>
      <trkpt lat="49.9916" lon="2.37542">
        <ele>100.4</ele>
        <time>2022-11-16T14:06:00Z</time>
      </trkpt>
      <trkpt lat="49.99161" lon="2.37541">
        <ele>100.4</ele>
        <time>2022-11-16T14:06:02Z</time>
      </trkpt>
      <trkpt lat="49.99162" lon="2.37539">
        <ele>100.4</ele>
        <time>2022-11-16T14:06:03Z</time>
      </trkpt>
      <trkpt lat="49.99162" lon="2.37538">
        <ele>100.4</ele>
        <time>2022-11-16T14:06:04Z</time>
      </trkpt>
      <trkpt lat="49.99163" lon="2.37537">
        <ele>100.4</ele>
        <time>2022-11-16T14:06:05Z</time>
      </trkpt>
      <trkpt lat="49.99164" lon="2.37535">
        <ele>100.5</ele>
        <time>2022-11-16T14:06:06Z</time>
      </trkpt>
      <trkpt lat="49.99164" lon="2.37534">
        <ele>100.5</ele>
        <time>2022-11-16T14:06:07Z</time>
      </trkpt>
      <trkpt lat="49.99165" lon="2.37533">
        <ele>100.5</ele>
        <time>2022-11-16T14:06:08Z</time>
      </trkpt>
      <trkpt lat="49.99166" lon="2.37532">
        <ele>100.5</ele>
        <time>2022-11-16T14:06:10Z</time>
      </trkpt>
      <trkpt lat="49.99167" lon="2.37531">
        <ele>100.5</ele>
        <time>2022-11-16T14:06:11Z</time>
      </trkpt>
      <trkpt lat="49.99168" lon="2.37529">
        <ele>100.6</ele>
        <time>2022-11-16T14:06:12Z</time>
      </trkpt>
      <trkpt lat="49.99169" lon="2.37528">
        <ele>100.6</ele>
        <time>2022-11-16T14:06:13Z</time>
      </trkpt>
      <trkpt lat="49.9917" lon="2.37525">
        <ele>100.6</ele>
        <time>2022-11-16T14:06:14Z</time>
      </trkpt>
      <trkpt lat="49.99171" lon="2.37524">
        <ele>100.6</ele>
        <time>2022-11-16T14:06:15Z</time>
      </trkpt>
      <trkpt lat="49.99172" lon="2.37523">
        <ele>100.7</ele>
        <time>2022-11-16T14:06:17Z</time>
      </trkpt>
      <trkpt lat="49.99172" lon="2.37522">
        <ele>100.7</ele>
        <time>2022-11-16T14:06:18Z</time>
      </trkpt>
      <trkpt lat="49.99173" lon="2.37521">
        <ele>100.7</ele>
        <time>2022-11-16T14:06:19Z</time>
      </trkpt>
      <trkpt lat="49.99174" lon="2.3752">
        <ele>100.7</ele>
        <time>2022-11-16T14:06:20Z</time>
      </trkpt>
      <trkpt lat="49.99175" lon="2.37519">
        <ele>100.7</ele>
        <time>2022-11-16T14:06:21Z</time>
      </trkpt>
      <trkpt lat="49.99176" lon="2.37518">
        <ele>100.8</ele>
        <time>2022-11-16T14:06:23Z</time>
      </trkpt>
      <trkpt lat="49.99176" lon="2.37517">
        <ele>100.8</ele>
        <time>2022-11-16T14:06:24Z</time>
      </trkpt>
      <trkpt lat="49.99178" lon="2.37515">
        <ele>100.8</ele>
        <time>2022-11-16T14:06:25Z</time>
      </trkpt>
      <trkpt lat="49.99179" lon="2.37514">
        <ele>100.8</ele>
        <time>2022-11-16T14:06:26Z</time>
      </trkpt>
      <trkpt lat="49.99179" lon="2.37513">
        <ele>100.8</ele>
        <time>2022-11-16T14:06:27Z</time>
      </trkpt>
      <trkpt lat="49.99181" lon="2.37511">
        <ele>100.9</ele>
        <time>2022-11-16T14:06:28Z</time>
      </trkpt>
      <trkpt lat="49.99181" lon="2.37509">
        <ele>100.9</ele>
        <time>2022-11-16T14:06:30Z</time>
      </trkpt>
      <trkpt lat="49.99182" lon="2.37508">
        <ele>100.9</ele>
        <time>2022-11-16T14:06:31Z</time>
      </trkpt>
      <trkpt lat="49.99183" lon="2.37506">
        <ele>100.9</ele>
        <time>2022-11-16T14:06:32Z</time>
      </trkpt>
      <trkpt lat="49.99183" lon="2.37505">
        <ele>100.9</ele>
        <time>2022-11-16T14:06:33Z</time>
      </trkpt>
      <trkpt lat="49.99184" lon="2.37504">
        <ele>101</ele>
        <time>2022-11-16T14:06:34Z</time>
      </trkpt>
      <trkpt lat="49.99185" lon="2.37502">
        <ele>101</ele>
        <time>2022-11-16T14:06:35Z</time>
      </trkpt>
      <trkpt lat="49.99186" lon="2.375">
        <ele>101</ele>
        <time>2022-11-16T14:06:36Z</time>
      </trkpt>
      <trkpt lat="49.99186" lon="2.37499">
        <ele>101</ele>
        <time>2022-11-16T14:06:37Z</time>
      </trkpt>
      <trkpt lat="49.99187" lon="2.37497">
        <ele>101.1</ele>
        <time>2022-11-16T14:06:39Z</time>
      </trkpt>
      <trkpt lat="49.99188" lon="2.37496">
        <ele>101.1</ele>
        <time>2022-11-16T14:06:40Z</time>
      </trkpt>
      <trkpt lat="49.99189" lon="2.37493">
        <ele>101.1</ele>
        <time>2022-11-16T14:06:41Z</time>
      </trkpt>
      <trkpt lat="49.99189" lon="2.37492">
        <ele>101.1</ele>
        <time>2022-11-16T14:06:42Z</time>
      </trkpt>
      <trkpt lat="49.9919" lon="2.37491">
        <ele>101.1</ele>
        <time>2022-11-16T14:06:43Z</time>
      </trkpt>
      <trkpt lat="49.99191" lon="2.3749">
        <ele>101.2</ele>
        <time>2022-11-16T14:06:44Z</time>
      </trkpt>
      <trkpt lat="49.99191" lon="2.37488">
        <ele>101.2</ele>
        <time>2022-11-16T14:06:45Z</time>
      </trkpt>
      <trkpt lat="49.99192" lon="2.37486">
        <ele>101.2</ele>
        <time>2022-11-16T14:06:47Z</time>
      </trkpt>
      <trkpt lat="49.99193" lon="2.37485">
        <ele>101.2</ele>
        <time>2022-11-16T14:06:48Z</time>
      </trkpt>
      <trkpt lat="49.99194" lon="2.37484">
        <ele>101.2</ele>
        <time>2022-11-16T14:06:49Z</time>
      </trkpt>
      <trkpt lat="49.99194" lon="2.37482">
        <ele>101.3</ele>
        <time>2022-11-16T14:06:50Z</time>
      </trkpt>
      <trkpt lat="49.99196" lon="2.3748">
        <ele>101.3</ele>
        <time>2022-11-16T14:06:51Z</time>
      </trkpt>
      <trkpt lat="49.99197" lon="2.37478">
        <ele>101.3</ele>
        <time>2022-11-16T14:06:52Z</time>
      </trkpt>
      <trkpt lat="49.99198" lon="2.37476">
        <ele>101.4</ele>
        <time>2022-11-16T14:06:53Z</time>
      </trkpt>
      <trkpt lat="49.99199" lon="2.37475">
        <ele>101.4</ele>
        <time>2022-11-16T14:06:54Z</time>
      </trkpt>
      <trkpt lat="49.99199" lon="2.37474">
        <ele>101.4</ele>
        <time>2022-11-16T14:06:55Z</time>
      </trkpt>
      <trkpt lat="49.992" lon="2.37472">
        <ele>101.4</ele>
        <time>2022-11-16T14:06:57Z</time>
      </trkpt>
      <trkpt lat="49.992" lon="2.37471">
        <ele>101.4</ele>
        <time>2022-11-16T14:06:58Z</time>
      </trkpt>
      <trkpt lat="49.99201" lon="2.37469">
        <ele>101.4</ele>
        <time>2022-11-16T14:06:59Z</time>
      </trkpt>
      <trkpt lat="49.99202" lon="2.37468">
        <ele>101.5</ele>
        <time>2022-11-16T14:07:00Z</time>
      </trkpt>
      <trkpt lat="49.99202" lon="2.37466">
        <ele>101.5</ele>
        <time>2022-11-16T14:07:01Z</time>
      </trkpt>
      <trkpt lat="49.99203" lon="2.37465">
        <ele>101.5</ele>
        <time>2022-11-16T14:07:02Z</time>
      </trkpt>
      <trkpt lat="49.99204" lon="2.37463">
        <ele>101.5</ele>
        <time>2022-11-16T14:07:03Z</time>
      </trkpt>
      <trkpt lat="49.99205" lon="2.37462">
        <ele>101.6</ele>
        <time>2022-11-16T14:07:05Z</time>
      </trkpt>
      <trkpt lat="49.99206" lon="2.37461">
        <ele>101.6</ele>
        <time>2022-11-16T14:07:06Z</time>
      </trkpt>
      <trkpt lat="49.99207" lon="2.37459">
        <ele>101.6</ele>
        <time>2022-11-16T14:07:07Z</time>
      </trkpt>
      <trkpt lat="49.99208" lon="2.37458">
        <ele>101.6</ele>
        <time>2022-11-16T14:07:08Z</time>
      </trkpt>
      <trkpt lat="49.99208" lon="2.37457">
        <ele>101.6</ele>
        <time>2022-11-16T14:07:09Z</time>
      </trkpt>
      <trkpt lat="49.99209" lon="2.37455">
        <ele>101.7</ele>
        <time>2022-11-16T14:07:10Z</time>
      </trkpt>
      <trkpt lat="49.9921" lon="2.37454">
        <ele>101.7</ele>
        <time>2022-11-16T14:07:11Z</time>
      </trkpt>
      <trkpt lat="49.9921" lon="2.37453">
        <ele>101.7</ele>
        <time>2022-11-16T14:07:12Z</time>
      </trkpt>
      <trkpt lat="49.99211" lon="2.37452">
        <ele>101.7</ele>
        <time>2022-11-16T14:07:14Z</time>
      </trkpt>
      <trkpt lat="49.99212" lon="2.3745">
        <ele>101.7</ele>
        <time>2022-11-16T14:07:15Z</time>
      </trkpt>
      <trkpt lat="49.99213" lon="2.37449">
        <ele>101.7</ele>
        <time>2022-11-16T14:07:16Z</time>
      </trkpt>
      <trkpt lat="49.99214" lon="2.37448">
        <ele>101.8</ele>
        <time>2022-11-16T14:07:17Z</time>
      </trkpt>
      <trkpt lat="49.99215" lon="2.37446">
        <ele>101.8</ele>
        <time>2022-11-16T14:07:18Z</time>
      </trkpt>
      <trkpt lat="49.99215" lon="2.37445">
        <ele>101.8</ele>
        <time>2022-11-16T14:07:19Z</time>
      </trkpt>
      <trkpt lat="49.99216" lon="2.37444">
        <ele>101.8</ele>
        <time>2022-11-16T14:07:21Z</time>
      </trkpt>
      <trkpt lat="49.99217" lon="2.37443">
        <ele>101.8</ele>
        <time>2022-11-16T14:07:22Z</time>
      </trkpt>
      <trkpt lat="49.99218" lon="2.3744">
        <ele>101.9</ele>
        <time>2022-11-16T14:07:23Z</time>
      </trkpt>
      <trkpt lat="49.99219" lon="2.37439">
        <ele>101.9</ele>
        <time>2022-11-16T14:07:24Z</time>
      </trkpt>
      <trkpt lat="49.99219" lon="2.37438">
        <ele>101.9</ele>
        <time>2022-11-16T14:07:25Z</time>
      </trkpt>
      <trkpt lat="49.9922" lon="2.37437">
        <ele>101.9</ele>
        <time>2022-11-16T14:07:26Z</time>
      </trkpt>
      <trkpt lat="49.99221" lon="2.37436">
        <ele>101.9</ele>
        <time>2022-11-16T14:07:27Z</time>
      </trkpt>
      <trkpt lat="49.99222" lon="2.37435">
        <ele>102</ele>
        <time>2022-11-16T14:07:28Z</time>
      </trkpt>
      <trkpt lat="49.99223" lon="2.37432">
        <ele>102</ele>
        <time>2022-11-16T14:07:30Z</time>
      </trkpt>
      <trkpt lat="49.99224" lon="2.37431">
        <ele>102</ele>
        <time>2022-11-16T14:07:31Z</time>
      </trkpt>
      <trkpt lat="49.99224" lon="2.3743">
        <ele>102</ele>
        <time>2022-11-16T14:07:32Z</time>
      </trkpt>
      <trkpt lat="49.99225" lon="2.37429">
        <ele>102.1</ele>
        <time>2022-11-16T14:07:33Z</time>
      </trkpt>
      <trkpt lat="49.99226" lon="2.37427">
        <ele>102.1</ele>
        <time>2022-11-16T14:07:34Z</time>
      </trkpt>
      <trkpt lat="49.99226" lon="2.37426">
        <ele>102.1</ele>
        <time>2022-11-16T14:07:35Z</time>
      </trkpt>
      <trkpt lat="49.99227" lon="2.37425">
        <ele>102.1</ele>
        <time>2022-11-16T14:07:37Z</time>
      </trkpt>
      <trkpt lat="49.99228" lon="2.37424">
        <ele>102.1</ele>
        <time>2022-11-16T14:07:38Z</time>
      </trkpt>
      <trkpt lat="49.99229" lon="2.37423">
        <ele>102.1</ele>
        <time>2022-11-16T14:07:39Z</time>
      </trkpt>
      <trkpt lat="49.9923" lon="2.3742">
        <ele>102.2</ele>
        <time>2022-11-16T14:07:40Z</time>
      </trkpt>
      <trkpt lat="49.99231" lon="2.3742">
        <ele>102.2</ele>
        <time>2022-11-16T14:07:41Z</time>
      </trkpt>
      <trkpt lat="49.99232" lon="2.37419">
        <ele>102.2</ele>
        <time>2022-11-16T14:07:42Z</time>
      </trkpt>
      <trkpt lat="49.99232" lon="2.37418">
        <ele>102.2</ele>
        <time>2022-11-16T14:07:44Z</time>
      </trkpt>
      <trkpt lat="49.99233" lon="2.37417">
        <ele>102.2</ele>
        <time>2022-11-16T14:07:45Z</time>
      </trkpt>
      <trkpt lat="49.99234" lon="2.37416">
        <ele>102.3</ele>
        <time>2022-11-16T14:07:46Z</time>
      </trkpt>
      <trkpt lat="49.99236" lon="2.37416">
        <ele>102.3</ele>
        <time>2022-11-16T14:07:47Z</time>
      </trkpt>
      <trkpt lat="49.99237" lon="2.37415">
        <ele>102.3</ele>
        <time>2022-11-16T14:07:48Z</time>
      </trkpt>
      <trkpt lat="49.99238" lon="2.37415">
        <ele>102.3</ele>
        <time>2022-11-16T14:07:50Z</time>
      </trkpt>
      <trkpt lat="49.9924" lon="2.37415">
        <ele>102.4</ele>
        <time>2022-11-16T14:07:51Z</time>
      </trkpt>
      <trkpt lat="49.99241" lon="2.37415">
        <ele>102.4</ele>
        <time>2022-11-16T14:07:52Z</time>
      </trkpt>
      <trkpt lat="49.99242" lon="2.37415">
        <ele>102.4</ele>
        <time>2022-11-16T14:07:53Z</time>
      </trkpt>
      <trkpt lat="49.99244" lon="2.37416">
        <ele>102.4</ele>
        <time>2022-11-16T14:07:54Z</time>
      </trkpt>
      <trkpt lat="49.99245" lon="2.37416">
        <ele>102.5</ele>
        <time>2022-11-16T14:07:55Z</time>
      </trkpt>
      <trkpt lat="49.99246" lon="2.37417">
        <ele>102.5</ele>
        <time>2022-11-16T14:07:57Z</time>
      </trkpt>
      <trkpt lat="49.99247" lon="2.37418">
        <ele>102.5</ele>
        <time>2022-11-16T14:07:58Z</time>
      </trkpt>
      <trkpt lat="49.99248" lon="2.37418">
        <ele>102.5</ele>
        <time>2022-11-16T14:07:59Z</time>
      </trkpt>
      <trkpt lat="49.99249" lon="2.37419">
        <ele>102.5</ele>
        <time>2022-11-16T14:08:00Z</time>
      </trkpt>
      <trkpt lat="49.9925" lon="2.3742">
        <ele>102.5</ele>
        <time>2022-11-16T14:08:01Z</time>
      </trkpt>
      <trkpt lat="49.99251" lon="2.37421">
        <ele>102.6</ele>
        <time>2022-11-16T14:08:02Z</time>
      </trkpt>
      <trkpt lat="49.99253" lon="2.37421">
        <ele>102.6</ele>
        <time>2022-11-16T14:08:04Z</time>
      </trkpt>
      <trkpt lat="49.99254" lon="2.37422">
        <ele>102.6</ele>
        <time>2022-11-16T14:08:05Z</time>
      </trkpt>
      <trkpt lat="49.99254" lon="2.37423">
        <ele>102.6</ele>
        <time>2022-11-16T14:08:06Z</time>
      </trkpt>
      <trkpt lat="49.99255" lon="2.37423">
        <ele>102.6</ele>
        <time>2022-11-16T14:08:07Z</time>
      </trkpt>
      <trkpt lat="49.99256" lon="2.37424">
        <ele>102.7</ele>
        <time>2022-11-16T14:08:08Z</time>
      </trkpt>
      <trkpt lat="49.99257" lon="2.37425">
        <ele>102.7</ele>
        <time>2022-11-16T14:08:09Z</time>
      </trkpt>
      <trkpt lat="49.99258" lon="2.37425">
        <ele>102.7</ele>
        <time>2022-11-16T14:08:10Z</time>
      </trkpt>
      <trkpt lat="49.99259" lon="2.37426">
        <ele>102.7</ele>
        <time>2022-11-16T14:08:12Z</time>
      </trkpt>
      <trkpt lat="49.9926" lon="2.37426">
        <ele>102.7</ele>
        <time>2022-11-16T14:08:13Z</time>
      </trkpt>
      <trkpt lat="49.99261" lon="2.37427">
        <ele>102.7</ele>
        <time>2022-11-16T14:08:14Z</time>
      </trkpt>
      <trkpt lat="49.99261" lon="2.37428">
        <ele>102.8</ele>
        <time>2022-11-16T14:08:15Z</time>
      </trkpt>
      <trkpt lat="49.9926" lon="2.3743">
        <ele>102.8</ele>
        <time>2022-11-16T14:08:16Z</time>
      </trkpt>
      <trkpt lat="49.99261" lon="2.37431">
        <ele>102.8</ele>
        <time>2022-11-16T14:08:17Z</time>
      </trkpt>
      <trkpt lat="49.99262" lon="2.37431">
        <ele>102.8</ele>
        <time>2022-11-16T14:08:18Z</time>
      </trkpt>
      <trkpt lat="49.99263" lon="2.37431">
        <ele>102.8</ele>
        <time>2022-11-16T14:08:19Z</time>
      </trkpt>
      <trkpt lat="49.99264" lon="2.37432">
        <ele>102.8</ele>
        <time>2022-11-16T14:08:20Z</time>
      </trkpt>
      <trkpt lat="49.99265" lon="2.37432">
        <ele>102.9</ele>
        <time>2022-11-16T14:08:22Z</time>
      </trkpt>
      <trkpt lat="49.99266" lon="2.37433">
        <ele>102.9</ele>
        <time>2022-11-16T14:08:23Z</time>
      </trkpt>
      <trkpt lat="49.99267" lon="2.37433">
        <ele>102.9</ele>
        <time>2022-11-16T14:08:24Z</time>
      </trkpt>
      <trkpt lat="49.99268" lon="2.37434">
        <ele>102.9</ele>
        <time>2022-11-16T14:08:25Z</time>
      </trkpt>
      <trkpt lat="49.99269" lon="2.37434">
        <ele>102.9</ele>
        <time>2022-11-16T14:08:27Z</time>
      </trkpt>
      <trkpt lat="49.9927" lon="2.37434">
        <ele>103</ele>
        <time>2022-11-16T14:08:28Z</time>
      </trkpt>
      <trkpt lat="49.99271" lon="2.37434">
        <ele>103</ele>
        <time>2022-11-16T14:08:29Z</time>
      </trkpt>
      <trkpt lat="49.99272" lon="2.37434">
        <ele>103</ele>
        <time>2022-11-16T14:08:30Z</time>
      </trkpt>
      <trkpt lat="49.99272" lon="2.37434">
        <ele>103</ele>
        <time>2022-11-16T14:08:31Z</time>
      </trkpt>
      <trkpt lat="49.99273" lon="2.37434">
        <ele>103</ele>
        <time>2022-11-16T14:08:32Z</time>
      </trkpt>
      <trkpt lat="49.99274" lon="2.37434">
        <ele>103</ele>
        <time>2022-11-16T14:08:34Z</time>
      </trkpt>
      <trkpt lat="49.99275" lon="2.37434">
        <ele>103</ele>
        <time>2022-11-16T14:08:35Z</time>
      </trkpt>
      <trkpt lat="49.99277" lon="2.37435">
        <ele>103.1</ele>
        <time>2022-11-16T14:08:36Z</time>
      </trkpt>
      <trkpt lat="49.99278" lon="2.37435">
        <ele>103.1</ele>
        <time>2022-11-16T14:08:37Z</time>
      </trkpt>
      <trkpt lat="49.99279" lon="2.37436">
        <ele>103.1</ele>
        <time>2022-11-16T14:08:39Z</time>
      </trkpt>
      <trkpt lat="49.99279" lon="2.37436">
        <ele>103.1</ele>
        <time>2022-11-16T14:08:40Z</time>
      </trkpt>
      <trkpt lat="49.9928" lon="2.37437">
        <ele>103.1</ele>
        <time>2022-11-16T14:08:41Z</time>
      </trkpt>
      <trkpt lat="49.99281" lon="2.37437">
        <ele>103.1</ele>
        <time>2022-11-16T14:08:42Z</time>
      </trkpt>
      <trkpt lat="49.99282" lon="2.37438">
        <ele>103.2</ele>
        <time>2022-11-16T14:08:43Z</time>
      </trkpt>
      <trkpt lat="49.99283" lon="2.37439">
        <ele>103.2</ele>
        <time>2022-11-16T14:08:44Z</time>
      </trkpt>
      <trkpt lat="49.99283" lon="2.37439">
        <ele>103.2</ele>
        <time>2022-11-16T14:08:45Z</time>
      </trkpt>
      <trkpt lat="49.99284" lon="2.3744">
        <ele>103.2</ele>
        <time>2022-11-16T14:08:46Z</time>
      </trkpt>
      <trkpt lat="49.99285" lon="2.37441">
        <ele>103.2</ele>
        <time>2022-11-16T14:08:47Z</time>
      </trkpt>
      <trkpt lat="49.99286" lon="2.37442">
        <ele>103.2</ele>
        <time>2022-11-16T14:08:49Z</time>
      </trkpt>
      <trkpt lat="49.99287" lon="2.37443">
        <ele>103.3</ele>
        <time>2022-11-16T14:08:50Z</time>
      </trkpt>
      <trkpt lat="49.99288" lon="2.37444">
        <ele>103.3</ele>
        <time>2022-11-16T14:08:51Z</time>
      </trkpt>
      <trkpt lat="49.9929" lon="2.37444">
        <ele>103.3</ele>
        <time>2022-11-16T14:08:52Z</time>
      </trkpt>
      <trkpt lat="49.99291" lon="2.37445">
        <ele>103.4</ele>
        <time>2022-11-16T14:08:54Z</time>
      </trkpt>
      <trkpt lat="49.99292" lon="2.37446">
        <ele>103.4</ele>
        <time>2022-11-16T14:08:55Z</time>
      </trkpt>
      <trkpt lat="49.99293" lon="2.37446">
        <ele>103.4</ele>
        <time>2022-11-16T14:08:56Z</time>
      </trkpt>
      <trkpt lat="49.99294" lon="2.37447">
        <ele>103.4</ele>
        <time>2022-11-16T14:08:57Z</time>
      </trkpt>
      <trkpt lat="49.99296" lon="2.37447">
        <ele>103.4</ele>
        <time>2022-11-16T14:08:58Z</time>
      </trkpt>
      <trkpt lat="49.99297" lon="2.37448">
        <ele>103.4</ele>
        <time>2022-11-16T14:09:00Z</time>
      </trkpt>
      <trkpt lat="49.99298" lon="2.37448">
        <ele>103.5</ele>
        <time>2022-11-16T14:09:01Z</time>
      </trkpt>
      <trkpt lat="49.99299" lon="2.3745">
        <ele>103.5</ele>
        <time>2022-11-16T14:09:02Z</time>
      </trkpt>
      <trkpt lat="49.99301" lon="2.3745">
        <ele>103.5</ele>
        <time>2022-11-16T14:09:03Z</time>
      </trkpt>
      <trkpt lat="49.99302" lon="2.37451">
        <ele>103.5</ele>
        <time>2022-11-16T14:09:05Z</time>
      </trkpt>
      <trkpt lat="49.99303" lon="2.37452">
        <ele>103.6</ele>
        <time>2022-11-16T14:09:06Z</time>
      </trkpt>
      <trkpt lat="49.99303" lon="2.37452">
        <ele>103.6</ele>
        <time>2022-11-16T14:09:07Z</time>
      </trkpt>
      <trkpt lat="49.99304" lon="2.37453">
        <ele>103.6</ele>
        <time>2022-11-16T14:09:08Z</time>
      </trkpt>
      <trkpt lat="49.99305" lon="2.37454">
        <ele>103.6</ele>
        <time>2022-11-16T14:09:09Z</time>
      </trkpt>
      <trkpt lat="49.99306" lon="2.37454">
        <ele>103.6</ele>
        <time>2022-11-16T14:09:10Z</time>
      </trkpt>
      <trkpt lat="49.99307" lon="2.37455">
        <ele>103.6</ele>
        <time>2022-11-16T14:09:11Z</time>
      </trkpt>
      <trkpt lat="49.99308" lon="2.37455">
        <ele>103.7</ele>
        <time>2022-11-16T14:09:12Z</time>
      </trkpt>
      <trkpt lat="49.99309" lon="2.37456">
        <ele>103.7</ele>
        <time>2022-11-16T14:09:14Z</time>
      </trkpt>
      <trkpt lat="49.9931" lon="2.37456">
        <ele>103.7</ele>
        <time>2022-11-16T14:09:15Z</time>
      </trkpt>
      <trkpt lat="49.99311" lon="2.37457">
        <ele>103.7</ele>
        <time>2022-11-16T14:09:16Z</time>
      </trkpt>
      <trkpt lat="49.99312" lon="2.37457">
        <ele>103.7</ele>
        <time>2022-11-16T14:09:17Z</time>
      </trkpt>
      <trkpt lat="49.99313" lon="2.37458">
        <ele>103.7</ele>
        <time>2022-11-16T14:09:18Z</time>
      </trkpt>
      <trkpt lat="49.99314" lon="2.37459">
        <ele>103.8</ele>
        <time>2022-11-16T14:09:19Z</time>
      </trkpt>
      <trkpt lat="49.99315" lon="2.37459">
        <ele>103.8</ele>
        <time>2022-11-16T14:09:20Z</time>
      </trkpt>
      <trkpt lat="49.99316" lon="2.3746">
        <ele>103.8</ele>
        <time>2022-11-16T14:09:22Z</time>
      </trkpt>
      <trkpt lat="49.99317" lon="2.3746">
        <ele>103.8</ele>
        <time>2022-11-16T14:09:23Z</time>
      </trkpt>
      <trkpt lat="49.99318" lon="2.37461">
        <ele>103.8</ele>
        <time>2022-11-16T14:09:24Z</time>
      </trkpt>
      <trkpt lat="49.9932" lon="2.37461">
        <ele>103.9</ele>
        <time>2022-11-16T14:09:25Z</time>
      </trkpt>
      <trkpt lat="49.99321" lon="2.37462">
        <ele>103.9</ele>
        <time>2022-11-16T14:09:26Z</time>
      </trkpt>
      <trkpt lat="49.99322" lon="2.37462">
        <ele>103.9</ele>
        <time>2022-11-16T14:09:28Z</time>
      </trkpt>
      <trkpt lat="49.99323" lon="2.37463">
        <ele>103.9</ele>
        <time>2022-11-16T14:09:29Z</time>
      </trkpt>
      <trkpt lat="49.99324" lon="2.37463">
        <ele>103.9</ele>
        <time>2022-11-16T14:09:30Z</time>
      </trkpt>
      <trkpt lat="49.99325" lon="2.37464">
        <ele>104</ele>
        <time>2022-11-16T14:09:31Z</time>
      </trkpt>
      <trkpt lat="49.99326" lon="2.37464">
        <ele>104</ele>
        <time>2022-11-16T14:09:32Z</time>
      </trkpt>
      <trkpt lat="49.99328" lon="2.37465">
        <ele>104</ele>
        <time>2022-11-16T14:09:34Z</time>
      </trkpt>
      <trkpt lat="49.99329" lon="2.37466">
        <ele>104</ele>
        <time>2022-11-16T14:09:35Z</time>
      </trkpt>
      <trkpt lat="49.9933" lon="2.37466">
        <ele>104</ele>
        <time>2022-11-16T14:09:36Z</time>
      </trkpt>
      <trkpt lat="49.99332" lon="2.37468">
        <ele>104.1</ele>
        <time>2022-11-16T14:09:37Z</time>
      </trkpt>
      <trkpt lat="49.99333" lon="2.37468">
        <ele>104.1</ele>
        <time>2022-11-16T14:09:38Z</time>
      </trkpt>
      <trkpt lat="49.99334" lon="2.37469">
        <ele>104.1</ele>
        <time>2022-11-16T14:09:40Z</time>
      </trkpt>
      <trkpt lat="49.99334" lon="2.3747">
        <ele>104.1</ele>
        <time>2022-11-16T14:09:41Z</time>
      </trkpt>
      <trkpt lat="49.99335" lon="2.3747">
        <ele>104.2</ele>
        <time>2022-11-16T14:09:42Z</time>
      </trkpt>
      <trkpt lat="49.99336" lon="2.37471">
        <ele>104.2</ele>
        <time>2022-11-16T14:09:43Z</time>
      </trkpt>
      <trkpt lat="49.99338" lon="2.37472">
        <ele>104.2</ele>
        <time>2022-11-16T14:09:45Z</time>
      </trkpt>
      <trkpt lat="49.99339" lon="2.37472">
        <ele>104.2</ele>
        <time>2022-11-16T14:09:46Z</time>
      </trkpt>
      <trkpt lat="49.9934" lon="2.37473">
        <ele>104.2</ele>
        <time>2022-11-16T14:09:47Z</time>
      </trkpt>
      <trkpt lat="49.99341" lon="2.37474">
        <ele>104.3</ele>
        <time>2022-11-16T14:09:48Z</time>
      </trkpt>
      <trkpt lat="49.99342" lon="2.37474">
        <ele>104.3</ele>
        <time>2022-11-16T14:09:49Z</time>
      </trkpt>
      <trkpt lat="49.99343" lon="2.37475">
        <ele>104.3</ele>
        <time>2022-11-16T14:09:51Z</time>
      </trkpt>
      <trkpt lat="49.99344" lon="2.37476">
        <ele>104.3</ele>
        <time>2022-11-16T14:09:52Z</time>
      </trkpt>
      <trkpt lat="49.99345" lon="2.37477">
        <ele>104.3</ele>
        <time>2022-11-16T14:09:53Z</time>
      </trkpt>
      <trkpt lat="49.99346" lon="2.37478">
        <ele>104.4</ele>
        <time>2022-11-16T14:09:54Z</time>
      </trkpt>
      <trkpt lat="49.99347" lon="2.37479">
        <ele>104.4</ele>
        <time>2022-11-16T14:09:55Z</time>
      </trkpt>
      <trkpt lat="49.99348" lon="2.3748">
        <ele>104.4</ele>
        <time>2022-11-16T14:09:56Z</time>
      </trkpt>
      <trkpt lat="49.99349" lon="2.3748">
        <ele>104.4</ele>
        <time>2022-11-16T14:09:57Z</time>
      </trkpt>
      <trkpt lat="49.9935" lon="2.37481">
        <ele>104.4</ele>
        <time>2022-11-16T14:09:59Z</time>
      </trkpt>
      <trkpt lat="49.99351" lon="2.37482">
        <ele>104.4</ele>
        <time>2022-11-16T14:10:00Z</time>
      </trkpt>
      <trkpt lat="49.99352" lon="2.37482">
        <ele>104.5</ele>
        <time>2022-11-16T14:10:01Z</time>
      </trkpt>
      <trkpt lat="49.99353" lon="2.37483">
        <ele>104.5</ele>
        <time>2022-11-16T14:10:02Z</time>
      </trkpt>
      <trkpt lat="49.99354" lon="2.37484">
        <ele>104.5</ele>
        <time>2022-11-16T14:10:04Z</time>
      </trkpt>
      <trkpt lat="49.99355" lon="2.37484">
        <ele>104.5</ele>
        <time>2022-11-16T14:10:05Z</time>
      </trkpt>
      <trkpt lat="49.99357" lon="2.37485">
        <ele>104.6</ele>
        <time>2022-11-16T14:10:06Z</time>
      </trkpt>
      <trkpt lat="49.99357" lon="2.37486">
        <ele>104.6</ele>
        <time>2022-11-16T14:10:07Z</time>
      </trkpt>
      <trkpt lat="49.99358" lon="2.37486">
        <ele>104.6</ele>
        <time>2022-11-16T14:10:08Z</time>
      </trkpt>
      <trkpt lat="49.99359" lon="2.37487">
        <ele>104.6</ele>
        <time>2022-11-16T14:10:09Z</time>
      </trkpt>
      <trkpt lat="49.9936" lon="2.37488">
        <ele>104.6</ele>
        <time>2022-11-16T14:10:10Z</time>
      </trkpt>
      <trkpt lat="49.9936" lon="2.37488">
        <ele>104.6</ele>
        <time>2022-11-16T14:10:12Z</time>
      </trkpt>
      <trkpt lat="49.99361" lon="2.37489">
        <ele>104.6</ele>
        <time>2022-11-16T14:10:13Z</time>
      </trkpt>
      <trkpt lat="49.99362" lon="2.37489">
        <ele>104.7</ele>
        <time>2022-11-16T14:10:14Z</time>
      </trkpt>
      <trkpt lat="49.99363" lon="2.3749">
        <ele>104.7</ele>
        <time>2022-11-16T14:10:15Z</time>
      </trkpt>
      <trkpt lat="49.99364" lon="2.37491">
        <ele>104.7</ele>
        <time>2022-11-16T14:10:16Z</time>
      </trkpt>
      <trkpt lat="49.99366" lon="2.37492">
        <ele>104.7</ele>
        <time>2022-11-16T14:10:18Z</time>
      </trkpt>
      <trkpt lat="49.99367" lon="2.37493">
        <ele>104.7</ele>
        <time>2022-11-16T14:10:19Z</time>
      </trkpt>
      <trkpt lat="49.99367" lon="2.37493">
        <ele>104.8</ele>
        <time>2022-11-16T14:10:20Z</time>
      </trkpt>
      <trkpt lat="49.99369" lon="2.37494">
        <ele>104.8</ele>
        <time>2022-11-16T14:10:21Z</time>
      </trkpt>
      <trkpt lat="49.9937" lon="2.37495">
        <ele>104.8</ele>
        <time>2022-11-16T14:10:23Z</time>
      </trkpt>
      <trkpt lat="49.99371" lon="2.37495">
        <ele>104.8</ele>
        <time>2022-11-16T14:10:24Z</time>
      </trkpt>
      <trkpt lat="49.99372" lon="2.37496">
        <ele>104.8</ele>
        <time>2022-11-16T14:10:25Z</time>
      </trkpt>
      <trkpt lat="49.99373" lon="2.37497">
        <ele>104.9</ele>
        <time>2022-11-16T14:10:26Z</time>
      </trkpt>
      <trkpt lat="49.99374" lon="2.37498">
        <ele>104.9</ele>
        <time>2022-11-16T14:10:27Z</time>
      </trkpt>
      <trkpt lat="49.99375" lon="2.37498">
        <ele>104.9</ele>
        <time>2022-11-16T14:10:29Z</time>
      </trkpt>
      <trkpt lat="49.99376" lon="2.37499">
        <ele>104.9</ele>
        <time>2022-11-16T14:10:30Z</time>
      </trkpt>
      <trkpt lat="49.99377" lon="2.37499">
        <ele>104.9</ele>
        <time>2022-11-16T14:10:31Z</time>
      </trkpt>
      <trkpt lat="49.99378" lon="2.375">
        <ele>104.9</ele>
        <time>2022-11-16T14:10:32Z</time>
      </trkpt>
      <trkpt lat="49.99378" lon="2.375">
        <ele>105</ele>
        <time>2022-11-16T14:10:33Z</time>
      </trkpt>
      <trkpt lat="49.99379" lon="2.37501">
        <ele>105</ele>
        <time>2022-11-16T14:10:34Z</time>
      </trkpt>
      <trkpt lat="49.99382" lon="2.37502">
        <ele>105</ele>
        <time>2022-11-16T14:10:35Z</time>
      </trkpt>
      <trkpt lat="49.99382" lon="2.37502">
        <ele>105</ele>
        <time>2022-11-16T14:10:36Z</time>
      </trkpt>
      <trkpt lat="49.99383" lon="2.37503">
        <ele>105.1</ele>
        <time>2022-11-16T14:10:37Z</time>
      </trkpt>
      <trkpt lat="49.99384" lon="2.37504">
        <ele>105.1</ele>
        <time>2022-11-16T14:10:39Z</time>
      </trkpt>
      <trkpt lat="49.99385" lon="2.37504">
        <ele>105.1</ele>
        <time>2022-11-16T14:10:40Z</time>
      </trkpt>
      <trkpt lat="49.99386" lon="2.37505">
        <ele>105.1</ele>
        <time>2022-11-16T14:10:41Z</time>
      </trkpt>
      <trkpt lat="49.99388" lon="2.37506">
        <ele>105.1</ele>
        <time>2022-11-16T14:10:42Z</time>
      </trkpt>
      <trkpt lat="49.99389" lon="2.37507">
        <ele>105.2</ele>
        <time>2022-11-16T14:10:43Z</time>
      </trkpt>
      <trkpt lat="49.99389" lon="2.37507">
        <ele>105.2</ele>
        <time>2022-11-16T14:10:44Z</time>
      </trkpt>
      <trkpt lat="49.9939" lon="2.37508">
        <ele>105.2</ele>
        <time>2022-11-16T14:10:46Z</time>
      </trkpt>
      <trkpt lat="49.99391" lon="2.37508">
        <ele>105.2</ele>
        <time>2022-11-16T14:10:47Z</time>
      </trkpt>
      <trkpt lat="49.99392" lon="2.37509">
        <ele>105.2</ele>
        <time>2022-11-16T14:10:48Z</time>
      </trkpt>
      <trkpt lat="49.99394" lon="2.3751">
        <ele>105.3</ele>
        <time>2022-11-16T14:10:49Z</time>
      </trkpt>
      <trkpt lat="49.99395" lon="2.3751">
        <ele>105.3</ele>
        <time>2022-11-16T14:10:50Z</time>
      </trkpt>
      <trkpt lat="49.99396" lon="2.37511">
        <ele>105.3</ele>
        <time>2022-11-16T14:10:52Z</time>
      </trkpt>
      <trkpt lat="49.99397" lon="2.37511">
        <ele>105.3</ele>
        <time>2022-11-16T14:10:53Z</time>
      </trkpt>
      <trkpt lat="49.99398" lon="2.37512">
        <ele>105.3</ele>
        <time>2022-11-16T14:10:54Z</time>
      </trkpt>
      <trkpt lat="49.99399" lon="2.37512">
        <ele>105.3</ele>
        <time>2022-11-16T14:10:55Z</time>
      </trkpt>
      <trkpt lat="49.994" lon="2.37513">
        <ele>105.4</ele>
        <time>2022-11-16T14:10:57Z</time>
      </trkpt>
      <trkpt lat="49.99401" lon="2.37514">
        <ele>105.4</ele>
        <time>2022-11-16T14:10:58Z</time>
      </trkpt>
      <trkpt lat="49.99402" lon="2.37514">
        <ele>105.4</ele>
        <time>2022-11-16T14:10:59Z</time>
      </trkpt>
      <trkpt lat="49.99403" lon="2.37515">
        <ele>105.4</ele>
        <time>2022-11-16T14:11:01Z</time>
      </trkpt>
      <trkpt lat="49.99403" lon="2.37515">
        <ele>105.4</ele>
        <time>2022-11-16T14:11:02Z</time>
      </trkpt>
      <trkpt lat="49.99405" lon="2.37515">
        <ele>105.4</ele>
        <time>2022-11-16T14:11:03Z</time>
      </trkpt>
      <trkpt lat="49.99406" lon="2.37515">
        <ele>105.5</ele>
        <time>2022-11-16T14:11:05Z</time>
      </trkpt>
      <trkpt lat="49.99406" lon="2.37514">
        <ele>105.4</ele>
        <time>2022-11-16T14:11:06Z</time>
      </trkpt>
      <trkpt lat="49.99407" lon="2.37513">
        <ele>105.4</ele>
        <time>2022-11-16T14:11:07Z</time>
      </trkpt>
      <trkpt lat="49.99407" lon="2.37512">
        <ele>105.4</ele>
        <time>2022-11-16T14:11:09Z</time>
      </trkpt>
      <trkpt lat="49.99408" lon="2.37512">
        <ele>105.4</ele>
        <time>2022-11-16T14:11:10Z</time>
      </trkpt>
      <trkpt lat="49.99408" lon="2.3751">
        <ele>105.4</ele>
        <time>2022-11-16T14:11:11Z</time>
      </trkpt>
      <trkpt lat="49.99409" lon="2.37509">
        <ele>105.4</ele>
        <time>2022-11-16T14:11:13Z</time>
      </trkpt>
      <trkpt lat="49.99409" lon="2.37508">
        <ele>105.3</ele>
        <time>2022-11-16T14:11:14Z</time>
      </trkpt>
      <trkpt lat="49.99409" lon="2.37508">
        <ele>105.3</ele>
        <time>2022-11-16T14:11:15Z</time>
      </trkpt>
      <trkpt lat="49.99409" lon="2.37506">
        <ele>105.3</ele>
        <time>2022-11-16T14:11:17Z</time>
      </trkpt>
      <trkpt lat="49.99409" lon="2.37506">
        <ele>105.3</ele>
        <time>2022-11-16T14:11:18Z</time>
      </trkpt>
      <trkpt lat="49.9941" lon="2.37504">
        <ele>105.3</ele>
        <time>2022-11-16T14:11:19Z</time>
      </trkpt>
      <trkpt lat="49.9941" lon="2.37502">
        <ele>105.3</ele>
        <time>2022-11-16T14:11:20Z</time>
      </trkpt>
      <trkpt lat="49.9941" lon="2.37501">
        <ele>105.2</ele>
        <time>2022-11-16T14:11:22Z</time>
      </trkpt>
      <trkpt lat="49.9941" lon="2.375">
        <ele>105.2</ele>
        <time>2022-11-16T14:11:23Z</time>
      </trkpt>
      <trkpt lat="49.99411" lon="2.37499">
        <ele>105.2</ele>
        <time>2022-11-16T14:11:24Z</time>
      </trkpt>
      <trkpt lat="49.99411" lon="2.37497">
        <ele>105.2</ele>
        <time>2022-11-16T14:11:25Z</time>
      </trkpt>
      <trkpt lat="49.99411" lon="2.37496">
        <ele>105.2</ele>
        <time>2022-11-16T14:11:27Z</time>
      </trkpt>
      <trkpt lat="49.99411" lon="2.37494">
        <ele>105.2</ele>
        <time>2022-11-16T14:11:28Z</time>
      </trkpt>
      <trkpt lat="49.99412" lon="2.37493">
        <ele>105.1</ele>
        <time>2022-11-16T14:11:29Z</time>
      </trkpt>
      <trkpt lat="49.99412" lon="2.37491">
        <ele>105.1</ele>
        <time>2022-11-16T14:11:30Z</time>
      </trkpt>
      <trkpt lat="49.99412" lon="2.37489">
        <ele>105.1</ele>
        <time>2022-11-16T14:11:31Z</time>
      </trkpt>
      <trkpt lat="49.99413" lon="2.37488">
        <ele>105.1</ele>
        <time>2022-11-16T14:11:32Z</time>
      </trkpt>
      <trkpt lat="49.99413" lon="2.37487">
        <ele>105.1</ele>
        <time>2022-11-16T14:11:34Z</time>
      </trkpt>
      <trkpt lat="49.99414" lon="2.37485">
        <ele>105.1</ele>
        <time>2022-11-16T14:11:35Z</time>
      </trkpt>
      <trkpt lat="49.99414" lon="2.37484">
        <ele>105.1</ele>
        <time>2022-11-16T14:11:36Z</time>
      </trkpt>
      <trkpt lat="49.99415" lon="2.37482">
        <ele>105</ele>
        <time>2022-11-16T14:11:37Z</time>
      </trkpt>
      <trkpt lat="49.99415" lon="2.3748">
        <ele>105</ele>
        <time>2022-11-16T14:11:38Z</time>
      </trkpt>
      <trkpt lat="49.99416" lon="2.37477">
        <ele>105</ele>
        <time>2022-11-16T14:11:40Z</time>
      </trkpt>
      <trkpt lat="49.99416" lon="2.37476">
        <ele>105</ele>
        <time>2022-11-16T14:11:41Z</time>
      </trkpt>
      <trkpt lat="49.99416" lon="2.37474">
        <ele>104.9</ele>
        <time>2022-11-16T14:11:42Z</time>
      </trkpt>
      <trkpt lat="49.99416" lon="2.37473">
        <ele>104.9</ele>
        <time>2022-11-16T14:11:43Z</time>
      </trkpt>
      <trkpt lat="49.99417" lon="2.37471">
        <ele>104.9</ele>
        <time>2022-11-16T14:11:44Z</time>
      </trkpt>
      <trkpt lat="49.99417" lon="2.37469">
        <ele>104.9</ele>
        <time>2022-11-16T14:11:45Z</time>
      </trkpt>
      <trkpt lat="49.99418" lon="2.37466">
        <ele>104.8</ele>
        <time>2022-11-16T14:11:46Z</time>
      </trkpt>
      <trkpt lat="49.99418" lon="2.37465">
        <ele>104.8</ele>
        <time>2022-11-16T14:11:47Z</time>
      </trkpt>
      <trkpt lat="49.99418" lon="2.37463">
        <ele>104.8</ele>
        <time>2022-11-16T14:11:48Z</time>
      </trkpt>
      <trkpt lat="49.99419" lon="2.37461">
        <ele>104.8</ele>
        <time>2022-11-16T14:11:49Z</time>
      </trkpt>
      <trkpt lat="49.99419" lon="2.37459">
        <ele>104.8</ele>
        <time>2022-11-16T14:11:50Z</time>
      </trkpt>
      <trkpt lat="49.9942" lon="2.37457">
        <ele>104.7</ele>
        <time>2022-11-16T14:11:52Z</time>
      </trkpt>
      <trkpt lat="49.9942" lon="2.37454">
        <ele>104.7</ele>
        <time>2022-11-16T14:11:53Z</time>
      </trkpt>
      <trkpt lat="49.99421" lon="2.37451">
        <ele>104.7</ele>
        <time>2022-11-16T14:11:54Z</time>
      </trkpt>
      <trkpt lat="49.99421" lon="2.3745">
        <ele>104.7</ele>
        <time>2022-11-16T14:11:55Z</time>
      </trkpt>
      <trkpt lat="49.99421" lon="2.37448">
        <ele>104.6</ele>
        <time>2022-11-16T14:11:56Z</time>
      </trkpt>
      <trkpt lat="49.99422" lon="2.37445">
        <ele>104.6</ele>
        <time>2022-11-16T14:11:58Z</time>
      </trkpt>
      <trkpt lat="49.99422" lon="2.37444">
        <ele>104.6</ele>
        <time>2022-11-16T14:11:59Z</time>
      </trkpt>
      <trkpt lat="49.99422" lon="2.37443">
        <ele>104.6</ele>
        <time>2022-11-16T14:12:00Z</time>
      </trkpt>
      <trkpt lat="49.99422" lon="2.37441">
        <ele>104.5</ele>
        <time>2022-11-16T14:12:01Z</time>
      </trkpt>
      <trkpt lat="49.99423" lon="2.37439">
        <ele>104.5</ele>
        <time>2022-11-16T14:12:02Z</time>
      </trkpt>
      <trkpt lat="49.99423" lon="2.37437">
        <ele>104.5</ele>
        <time>2022-11-16T14:12:03Z</time>
      </trkpt>
      <trkpt lat="49.99423" lon="2.37435">
        <ele>104.5</ele>
        <time>2022-11-16T14:12:04Z</time>
      </trkpt>
      <trkpt lat="49.99424" lon="2.37434">
        <ele>104.5</ele>
        <time>2022-11-16T14:12:05Z</time>
      </trkpt>
      <trkpt lat="49.99424" lon="2.37432">
        <ele>104.4</ele>
        <time>2022-11-16T14:12:07Z</time>
      </trkpt>
      <trkpt lat="49.99424" lon="2.3743">
        <ele>104.4</ele>
        <time>2022-11-16T14:12:08Z</time>
      </trkpt>
      <trkpt lat="49.99424" lon="2.37429">
        <ele>104.4</ele>
        <time>2022-11-16T14:12:09Z</time>
      </trkpt>
      <trkpt lat="49.99425" lon="2.37425">
        <ele>104.4</ele>
        <time>2022-11-16T14:12:10Z</time>
      </trkpt>
      <trkpt lat="49.99425" lon="2.37424">
        <ele>104.3</ele>
        <time>2022-11-16T14:12:11Z</time>
      </trkpt>
      <trkpt lat="49.99426" lon="2.37423">
        <ele>104.3</ele>
        <time>2022-11-16T14:12:12Z</time>
      </trkpt>
      <trkpt lat="49.99426" lon="2.37422">
        <ele>104.3</ele>
        <time>2022-11-16T14:12:14Z</time>
      </trkpt>
      <trkpt lat="49.99426" lon="2.3742">
        <ele>104.3</ele>
        <time>2022-11-16T14:12:15Z</time>
      </trkpt>
      <trkpt lat="49.99427" lon="2.37419">
        <ele>104.3</ele>
        <time>2022-11-16T14:12:16Z</time>
      </trkpt>
      <trkpt lat="49.99427" lon="2.37417">
        <ele>104.3</ele>
        <time>2022-11-16T14:12:17Z</time>
      </trkpt>
      <trkpt lat="49.99428" lon="2.37416">
        <ele>104.2</ele>
        <time>2022-11-16T14:12:18Z</time>
      </trkpt>
      <trkpt lat="49.99428" lon="2.37414">
        <ele>104.2</ele>
        <time>2022-11-16T14:12:19Z</time>
      </trkpt>
      <trkpt lat="49.99428" lon="2.37413">
        <ele>104.2</ele>
        <time>2022-11-16T14:12:20Z</time>
      </trkpt>
      <trkpt lat="49.99429" lon="2.37411">
        <ele>104.2</ele>
        <time>2022-11-16T14:12:21Z</time>
      </trkpt>
      <trkpt lat="49.99429" lon="2.37409">
        <ele>104.2</ele>
        <time>2022-11-16T14:12:22Z</time>
      </trkpt>
      <trkpt lat="49.9943" lon="2.37408">
        <ele>104.1</ele>
        <time>2022-11-16T14:12:23Z</time>
      </trkpt>
      <trkpt lat="49.99431" lon="2.37406">
        <ele>104.1</ele>
        <time>2022-11-16T14:12:24Z</time>
      </trkpt>
      <trkpt lat="49.99431" lon="2.37404">
        <ele>104.1</ele>
        <time>2022-11-16T14:12:26Z</time>
      </trkpt>
      <trkpt lat="49.99432" lon="2.37403">
        <ele>104.1</ele>
        <time>2022-11-16T14:12:27Z</time>
      </trkpt>
      <trkpt lat="49.99432" lon="2.37401">
        <ele>104.1</ele>
        <time>2022-11-16T14:12:28Z</time>
      </trkpt>
      <trkpt lat="49.99432" lon="2.374">
        <ele>104</ele>
        <time>2022-11-16T14:12:29Z</time>
      </trkpt>
      <trkpt lat="49.99433" lon="2.37399">
        <ele>104</ele>
        <time>2022-11-16T14:12:30Z</time>
      </trkpt>
      <trkpt lat="49.99433" lon="2.37397">
        <ele>104</ele>
        <time>2022-11-16T14:12:31Z</time>
      </trkpt>
      <trkpt lat="49.99434" lon="2.37395">
        <ele>104</ele>
        <time>2022-11-16T14:12:32Z</time>
      </trkpt>
      <trkpt lat="49.99434" lon="2.37394">
        <ele>104</ele>
        <time>2022-11-16T14:12:33Z</time>
      </trkpt>
      <trkpt lat="49.99434" lon="2.37392">
        <ele>104</ele>
        <time>2022-11-16T14:12:34Z</time>
      </trkpt>
      <trkpt lat="49.99435" lon="2.3739">
        <ele>103.9</ele>
        <time>2022-11-16T14:12:35Z</time>
      </trkpt>
      <trkpt lat="49.99436" lon="2.37388">
        <ele>103.9</ele>
        <time>2022-11-16T14:12:36Z</time>
      </trkpt>
      <trkpt lat="49.99436" lon="2.37387">
        <ele>103.9</ele>
        <time>2022-11-16T14:12:37Z</time>
      </trkpt>
      <trkpt lat="49.99437" lon="2.37385">
        <ele>103.9</ele>
        <time>2022-11-16T14:12:38Z</time>
      </trkpt>
      <trkpt lat="49.99438" lon="2.37382">
        <ele>103.8</ele>
        <time>2022-11-16T14:12:40Z</time>
      </trkpt>
      <trkpt lat="49.99438" lon="2.37381">
        <ele>103.8</ele>
        <time>2022-11-16T14:12:41Z</time>
      </trkpt>
      <trkpt lat="49.99438" lon="2.3738">
        <ele>103.8</ele>
        <time>2022-11-16T14:12:42Z</time>
      </trkpt>
      <trkpt lat="49.99439" lon="2.37377">
        <ele>103.8</ele>
        <time>2022-11-16T14:12:43Z</time>
      </trkpt>
      <trkpt lat="49.99439" lon="2.37376">
        <ele>103.7</ele>
        <time>2022-11-16T14:12:44Z</time>
      </trkpt>
      <trkpt lat="49.9944" lon="2.37375">
        <ele>103.7</ele>
        <time>2022-11-16T14:12:45Z</time>
      </trkpt>
      <trkpt lat="49.9944" lon="2.37373">
        <ele>103.7</ele>
        <time>2022-11-16T14:12:46Z</time>
      </trkpt>
      <trkpt lat="49.9944" lon="2.37371">
        <ele>103.7</ele>
        <time>2022-11-16T14:12:48Z</time>
      </trkpt>
      <trkpt lat="49.99441" lon="2.37369">
        <ele>103.7</ele>
        <time>2022-11-16T14:12:49Z</time>
      </trkpt>
      <trkpt lat="49.99441" lon="2.37368">
        <ele>103.6</ele>
        <time>2022-11-16T14:12:50Z</time>
      </trkpt>
      <trkpt lat="49.99441" lon="2.37366">
        <ele>103.6</ele>
        <time>2022-11-16T14:12:51Z</time>
      </trkpt>
      <trkpt lat="49.99442" lon="2.37364">
        <ele>103.6</ele>
        <time>2022-11-16T14:12:52Z</time>
      </trkpt>
      <trkpt lat="49.99442" lon="2.37363">
        <ele>103.6</ele>
        <time>2022-11-16T14:12:53Z</time>
      </trkpt>
      <trkpt lat="49.99442" lon="2.37361">
        <ele>103.6</ele>
        <time>2022-11-16T14:12:54Z</time>
      </trkpt>
      <trkpt lat="49.99443" lon="2.37359">
        <ele>103.5</ele>
        <time>2022-11-16T14:12:56Z</time>
      </trkpt>
      <trkpt lat="49.99443" lon="2.37358">
        <ele>103.5</ele>
        <time>2022-11-16T14:12:57Z</time>
      </trkpt>
      <trkpt lat="49.99443" lon="2.37356">
        <ele>103.5</ele>
        <time>2022-11-16T14:12:58Z</time>
      </trkpt>
      <trkpt lat="49.99443" lon="2.37354">
        <ele>103.5</ele>
        <time>2022-11-16T14:12:59Z</time>
      </trkpt>
      <trkpt lat="49.99443" lon="2.37353">
        <ele>103.5</ele>
        <time>2022-11-16T14:13:00Z</time>
      </trkpt>
      <trkpt lat="49.99443" lon="2.37351">
        <ele>103.5</ele>
        <time>2022-11-16T14:13:01Z</time>
      </trkpt>
      <trkpt lat="49.99443" lon="2.37349">
        <ele>103.4</ele>
        <time>2022-11-16T14:13:02Z</time>
      </trkpt>
      <trkpt lat="49.99443" lon="2.37348">
        <ele>103.4</ele>
        <time>2022-11-16T14:13:04Z</time>
      </trkpt>
      <trkpt lat="49.99443" lon="2.37346">
        <ele>103.4</ele>
        <time>2022-11-16T14:13:05Z</time>
      </trkpt>
      <trkpt lat="49.99443" lon="2.37344">
        <ele>103.4</ele>
        <time>2022-11-16T14:13:06Z</time>
      </trkpt>
      <trkpt lat="49.99443" lon="2.37343">
        <ele>103.4</ele>
        <time>2022-11-16T14:13:07Z</time>
      </trkpt>
      <trkpt lat="49.99444" lon="2.3734">
        <ele>103.3</ele>
        <time>2022-11-16T14:13:09Z</time>
      </trkpt>
      <trkpt lat="49.99444" lon="2.37339">
        <ele>103.3</ele>
        <time>2022-11-16T14:13:10Z</time>
      </trkpt>
      <trkpt lat="49.99444" lon="2.37337">
        <ele>103.3</ele>
        <time>2022-11-16T14:13:11Z</time>
      </trkpt>
      <trkpt lat="49.99445" lon="2.37335">
        <ele>103.3</ele>
        <time>2022-11-16T14:13:12Z</time>
      </trkpt>
      <trkpt lat="49.99445" lon="2.37333">
        <ele>103.2</ele>
        <time>2022-11-16T14:13:13Z</time>
      </trkpt>
      <trkpt lat="49.99445" lon="2.37332">
        <ele>103.2</ele>
        <time>2022-11-16T14:13:14Z</time>
      </trkpt>
      <trkpt lat="49.99445" lon="2.3733">
        <ele>103.2</ele>
        <time>2022-11-16T14:13:15Z</time>
      </trkpt>
      <trkpt lat="49.99446" lon="2.37328">
        <ele>103.2</ele>
        <time>2022-11-16T14:13:16Z</time>
      </trkpt>
      <trkpt lat="49.99446" lon="2.37326">
        <ele>103.2</ele>
        <time>2022-11-16T14:13:17Z</time>
      </trkpt>
      <trkpt lat="49.99446" lon="2.37325">
        <ele>103.1</ele>
        <time>2022-11-16T14:13:18Z</time>
      </trkpt>
      <trkpt lat="49.99446" lon="2.37323">
        <ele>103.1</ele>
        <time>2022-11-16T14:13:19Z</time>
      </trkpt>
      <trkpt lat="49.99447" lon="2.37322">
        <ele>103.1</ele>
        <time>2022-11-16T14:13:21Z</time>
      </trkpt>
      <trkpt lat="49.99447" lon="2.37321">
        <ele>103.1</ele>
        <time>2022-11-16T14:13:22Z</time>
      </trkpt>
      <trkpt lat="49.99448" lon="2.37319">
        <ele>103.1</ele>
        <time>2022-11-16T14:13:23Z</time>
      </trkpt>
      <trkpt lat="49.99448" lon="2.37318">
        <ele>103.1</ele>
        <time>2022-11-16T14:13:25Z</time>
      </trkpt>
      <trkpt lat="49.99449" lon="2.37317">
        <ele>103</ele>
        <time>2022-11-16T14:13:26Z</time>
      </trkpt>
      <trkpt lat="49.99451" lon="2.37315">
        <ele>103</ele>
        <time>2022-11-16T14:13:28Z</time>
      </trkpt>
      <trkpt lat="49.99451" lon="2.37314">
        <ele>103</ele>
        <time>2022-11-16T14:13:29Z</time>
      </trkpt>
      <trkpt lat="49.99452" lon="2.37313">
        <ele>103</ele>
        <time>2022-11-16T14:13:30Z</time>
      </trkpt>
      <trkpt lat="49.99453" lon="2.37312">
        <ele>103</ele>
        <time>2022-11-16T14:13:31Z</time>
      </trkpt>
      <trkpt lat="49.99453" lon="2.37312">
        <ele>102.9</ele>
        <time>2022-11-16T14:13:32Z</time>
      </trkpt>
      <trkpt lat="49.99454" lon="2.37311">
        <ele>102.9</ele>
        <time>2022-11-16T14:13:33Z</time>
      </trkpt>
      <trkpt lat="49.99454" lon="2.37311">
        <ele>102.9</ele>
        <time>2022-11-16T14:13:34Z</time>
      </trkpt>
      <trkpt lat="49.99454" lon="2.37311">
        <ele>102.9</ele>
        <time>2022-11-16T14:13:35Z</time>
      </trkpt>
      <trkpt lat="49.99454" lon="2.37311">
        <ele>102.9</ele>
        <time>2022-11-16T14:13:36Z</time>
      </trkpt>
      <trkpt lat="49.99454" lon="2.37312">
        <ele>102.9</ele>
        <time>2022-11-16T14:13:37Z</time>
      </trkpt>
      <trkpt lat="49.99454" lon="2.37312">
        <ele>102.9</ele>
        <time>2022-11-16T14:13:38Z</time>
      </trkpt>
      <trkpt lat="49.99454" lon="2.37312">
        <ele>102.9</ele>
        <time>2022-11-16T14:13:39Z</time>
      </trkpt>
      <trkpt lat="49.99454" lon="2.37312">
        <ele>102.9</ele>
        <time>2022-11-16T14:13:40Z</time>
      </trkpt>
      <trkpt lat="49.99454" lon="2.37312">
        <ele>102.9</ele>
        <time>2022-11-16T14:13:41Z</time>
      </trkpt>
      <trkpt lat="49.99454" lon="2.37312">
        <ele>102.9</ele>
        <time>2022-11-16T14:13:42Z</time>
      </trkpt>
      <trkpt lat="49.99454" lon="2.37313">
        <ele>102.9</ele>
        <time>2022-11-16T14:13:43Z</time>
      </trkpt>
      <trkpt lat="49.99454" lon="2.37313">
        <ele>102.9</ele>
        <time>2022-11-16T14:13:44Z</time>
      </trkpt>
      <trkpt lat="49.99454" lon="2.37313">
        <ele>102.9</ele>
        <time>2022-11-16T14:13:45Z</time>
      </trkpt>
      <trkpt lat="49.99454" lon="2.37313">
        <ele>102.9</ele>
        <time>2022-11-16T14:13:46Z</time>
      </trkpt>
      <trkpt lat="49.99454" lon="2.37313">
        <ele>102.9</ele>
        <time>2022-11-16T14:13:47Z</time>
      </trkpt>
      <trkpt lat="49.99453" lon="2.37315">
        <ele>102.9</ele>
        <time>2022-11-16T14:13:48Z</time>
      </trkpt>
      <trkpt lat="49.99453" lon="2.37316">
        <ele>102.9</ele>
        <time>2022-11-16T14:13:49Z</time>
      </trkpt>
      <trkpt lat="49.99454" lon="2.37317">
        <ele>102.8</ele>
        <time>2022-11-16T14:13:50Z</time>
      </trkpt>
      <trkpt lat="49.99454" lon="2.37319">
        <ele>102.8</ele>
        <time>2022-11-16T14:13:52Z</time>
      </trkpt>
      <trkpt lat="49.99455" lon="2.37321">
        <ele>102.8</ele>
        <time>2022-11-16T14:13:53Z</time>
      </trkpt>
      <trkpt lat="49.99455" lon="2.37322">
        <ele>102.8</ele>
        <time>2022-11-16T14:13:54Z</time>
      </trkpt>
      <trkpt lat="49.99456" lon="2.37323">
        <ele>102.8</ele>
        <time>2022-11-16T14:13:56Z</time>
      </trkpt>
      <trkpt lat="49.99456" lon="2.37324">
        <ele>102.8</ele>
        <time>2022-11-16T14:13:57Z</time>
      </trkpt>
      <trkpt lat="49.99457" lon="2.37325">
        <ele>102.7</ele>
        <time>2022-11-16T14:13:58Z</time>
      </trkpt>
      <trkpt lat="49.99457" lon="2.37325">
        <ele>102.7</ele>
        <time>2022-11-16T14:13:59Z</time>
      </trkpt>
      <trkpt lat="49.99457" lon="2.37326">
        <ele>102.7</ele>
        <time>2022-11-16T14:14:00Z</time>
      </trkpt>
      <trkpt lat="49.99457" lon="2.37326">
        <ele>102.7</ele>
        <time>2022-11-16T14:14:02Z</time>
      </trkpt>
      <trkpt lat="49.99458" lon="2.37326">
        <ele>102.7</ele>
        <time>2022-11-16T14:14:03Z</time>
      </trkpt>
      <trkpt lat="49.99458" lon="2.37326">
        <ele>102.7</ele>
        <time>2022-11-16T14:14:04Z</time>
      </trkpt>
      <trkpt lat="49.99459" lon="2.37326">
        <ele>102.7</ele>
        <time>2022-11-16T14:14:05Z</time>
      </trkpt>
      <trkpt lat="49.99459" lon="2.37326">
        <ele>102.7</ele>
        <time>2022-11-16T14:14:07Z</time>
      </trkpt>
      <trkpt lat="49.99459" lon="2.37325">
        <ele>102.7</ele>
        <time>2022-11-16T14:14:08Z</time>
      </trkpt>
      <trkpt lat="49.9946" lon="2.37324">
        <ele>102.7</ele>
        <time>2022-11-16T14:14:10Z</time>
      </trkpt>
      <trkpt lat="49.9946" lon="2.37323">
        <ele>102.7</ele>
        <time>2022-11-16T14:14:11Z</time>
      </trkpt>
      <trkpt lat="49.9946" lon="2.37323">
        <ele>102.6</ele>
        <time>2022-11-16T14:14:12Z</time>
      </trkpt>
      <trkpt lat="49.9946" lon="2.37322">
        <ele>102.6</ele>
        <time>2022-11-16T14:14:13Z</time>
      </trkpt>
      <trkpt lat="49.99461" lon="2.37322">
        <ele>102.6</ele>
        <time>2022-11-16T14:14:14Z</time>
      </trkpt>
      <trkpt lat="49.9946" lon="2.37322">
        <ele>102.6</ele>
        <time>2022-11-16T14:14:15Z</time>
      </trkpt>
      <trkpt lat="49.9946" lon="2.37322">
        <ele>102.6</ele>
        <time>2022-11-16T14:14:16Z</time>
      </trkpt>
      <trkpt lat="49.99459" lon="2.37322">
        <ele>102.6</ele>
        <time>2022-11-16T14:14:17Z</time>
      </trkpt>
      <trkpt lat="49.99459" lon="2.37323">
        <ele>102.6</ele>
        <time>2022-11-16T14:14:18Z</time>
      </trkpt>
      <trkpt lat="49.99458" lon="2.37323">
        <ele>102.6</ele>
        <time>2022-11-16T14:14:19Z</time>
      </trkpt>
      <trkpt lat="49.99458" lon="2.37324">
        <ele>102.6</ele>
        <time>2022-11-16T14:14:20Z</time>
      </trkpt>
      <trkpt lat="49.99457" lon="2.37326">
        <ele>102.6</ele>
        <time>2022-11-16T14:14:21Z</time>
      </trkpt>
      <trkpt lat="49.99457" lon="2.37326">
        <ele>102.6</ele>
        <time>2022-11-16T14:14:22Z</time>
      </trkpt>
      <trkpt lat="49.99457" lon="2.37327">
        <ele>102.5</ele>
        <time>2022-11-16T14:14:23Z</time>
      </trkpt>
      <trkpt lat="49.99457" lon="2.37328">
        <ele>102.5</ele>
        <time>2022-11-16T14:14:24Z</time>
      </trkpt>
      <trkpt lat="49.99457" lon="2.37328">
        <ele>102.5</ele>
        <time>2022-11-16T14:14:25Z</time>
      </trkpt>
      <trkpt lat="49.99457" lon="2.37329">
        <ele>102.5</ele>
        <time>2022-11-16T14:14:26Z</time>
      </trkpt>
      <trkpt lat="49.99457" lon="2.37329">
        <ele>102.5</ele>
        <time>2022-11-16T14:14:27Z</time>
      </trkpt>
      <trkpt lat="49.99457" lon="2.3733">
        <ele>102.5</ele>
        <time>2022-11-16T14:14:28Z</time>
      </trkpt>
      <trkpt lat="49.99457" lon="2.3733">
        <ele>102.5</ele>
        <time>2022-11-16T14:14:29Z</time>
      </trkpt>
      <trkpt lat="49.99457" lon="2.37331">
        <ele>102.5</ele>
        <time>2022-11-16T14:14:30Z</time>
      </trkpt>
      <trkpt lat="49.99458" lon="2.37331">
        <ele>102.5</ele>
        <time>2022-11-16T14:14:31Z</time>
      </trkpt>
      <trkpt lat="49.99458" lon="2.37331">
        <ele>102.5</ele>
        <time>2022-11-16T14:14:32Z</time>
      </trkpt>
      <trkpt lat="49.99458" lon="2.37331">
        <ele>102.5</ele>
        <time>2022-11-16T14:14:33Z</time>
      </trkpt>
      <trkpt lat="49.99459" lon="2.37331">
        <ele>102.5</ele>
        <time>2022-11-16T14:14:34Z</time>
      </trkpt>
      <trkpt lat="49.99459" lon="2.37331">
        <ele>102.5</ele>
        <time>2022-11-16T14:14:35Z</time>
      </trkpt>
      <trkpt lat="49.99459" lon="2.37331">
        <ele>102.5</ele>
        <time>2022-11-16T14:14:36Z</time>
      </trkpt>
      <trkpt lat="49.99459" lon="2.3733">
        <ele>102.5</ele>
        <time>2022-11-16T14:14:37Z</time>
      </trkpt>
      <trkpt lat="49.99459" lon="2.3733">
        <ele>102.5</ele>
        <time>2022-11-16T14:14:38Z</time>
      </trkpt>
      <trkpt lat="49.99459" lon="2.3733">
        <ele>102.5</ele>
        <time>2022-11-16T14:14:39Z</time>
      </trkpt>
      <trkpt lat="49.99459" lon="2.3733">
        <ele>102.4</ele>
        <time>2022-11-16T14:14:40Z</time>
      </trkpt>
      <trkpt lat="49.99459" lon="2.3733">
        <ele>102.4</ele>
        <time>2022-11-16T14:14:41Z</time>
      </trkpt>
      <trkpt lat="49.99459" lon="2.3733">
        <ele>102.4</ele>
        <time>2022-11-16T14:14:42Z</time>
      </trkpt>
      <trkpt lat="49.99459" lon="2.3733">
        <ele>102.4</ele>
        <time>2022-11-16T14:14:43Z</time>
      </trkpt>
      <trkpt lat="49.99459" lon="2.3733">
        <ele>102.4</ele>
        <time>2022-11-16T14:14:44Z</time>
      </trkpt>
      <trkpt lat="49.99459" lon="2.3733">
        <ele>102.4</ele>
        <time>2022-11-16T14:14:45Z</time>
      </trkpt>
      <trkpt lat="49.99459" lon="2.3733">
        <ele>102.4</ele>
        <time>2022-11-16T14:14:46Z</time>
      </trkpt>
      <trkpt lat="49.99459" lon="2.3733">
        <ele>102.4</ele>
        <time>2022-11-16T14:14:47Z</time>
      </trkpt>
      <trkpt lat="49.99459" lon="2.3733">
        <ele>102.4</ele>
        <time>2022-11-16T14:14:48Z</time>
      </trkpt>
      <trkpt lat="49.99459" lon="2.3733">
        <ele>102.4</ele>
        <time>2022-11-16T14:14:49Z</time>
      </trkpt>
      <trkpt lat="49.99459" lon="2.3733">
        <ele>102.4</ele>
        <time>2022-11-16T14:14:50Z</time>
      </trkpt>
      <trkpt lat="49.99459" lon="2.3733">
        <ele>102.4</ele>
        <time>2022-11-16T14:14:51Z</time>
      </trkpt>
      <trkpt lat="49.99459" lon="2.3733">
        <ele>102.4</ele>
        <time>2022-11-16T14:14:52Z</time>
      </trkpt>
      <trkpt lat="49.99459" lon="2.3733">
        <ele>102.4</ele>
        <time>2022-11-16T14:14:53Z</time>
      </trkpt>
      <trkpt lat="49.99459" lon="2.3733">
        <ele>102.4</ele>
        <time>2022-11-16T14:14:54Z</time>
      </trkpt>
      <trkpt lat="49.99459" lon="2.3733">
        <ele>102.4</ele>
        <time>2022-11-16T14:14:55Z</time>
      </trkpt>
      <trkpt lat="49.99459" lon="2.3733">
        <ele>102.4</ele>
        <time>2022-11-16T14:14:56Z</time>
      </trkpt>
      <trkpt lat="49.99459" lon="2.3733">
        <ele>102.4</ele>
        <time>2022-11-16T14:14:57Z</time>
      </trkpt>
      <trkpt lat="49.99459" lon="2.3733">
        <ele>102.4</ele>
        <time>2022-11-16T14:14:58Z</time>
      </trkpt>
      <trkpt lat="49.99459" lon="2.3733">
        <ele>102.4</ele>
        <time>2022-11-16T14:14:59Z</time>
      </trkpt>
      <trkpt lat="49.99459" lon="2.3733">
        <ele>102.4</ele>
        <time>2022-11-16T14:15:00Z</time>
      </trkpt>
      <trkpt lat="49.99459" lon="2.3733">
        <ele>102.4</ele>
        <time>2022-11-16T14:15:01Z</time>
      </trkpt>
      <trkpt lat="49.99459" lon="2.3733">
        <ele>102.4</ele>
        <time>2022-11-16T14:15:02Z</time>
      </trkpt>
      <trkpt lat="49.99459" lon="2.3733">
        <ele>102.4</ele>
        <time>2022-11-16T14:15:03Z</time>
      </trkpt>
      <trkpt lat="49.99459" lon="2.3733">
        <ele>102.4</ele>
        <time>2022-11-16T14:15:04Z</time>
      </trkpt>
      <trkpt lat="49.99459" lon="2.3733">
        <ele>102.4</ele>
        <time>2022-11-16T14:15:05Z</time>
      </trkpt>
      <trkpt lat="49.99459" lon="2.3733">
        <ele>102.4</ele>
        <time>2022-11-16T14:15:06Z</time>
      </trkpt>
      <trkpt lat="49.99459" lon="2.3733">
        <ele>102.4</ele>
        <time>2022-11-16T14:15:07Z</time>
      </trkpt>
      <trkpt lat="49.99459" lon="2.3733">
        <ele>102.4</ele>
        <time>2022-11-16T14:15:08Z</time>
      </trkpt>
      <trkpt lat="49.99459" lon="2.3733">
        <ele>102.4</ele>
        <time>2022-11-16T14:15:09Z</time>
      </trkpt>
      <trkpt lat="49.99459" lon="2.3733">
        <ele>102.4</ele>
        <time>2022-11-16T14:15:10Z</time>
      </trkpt>
      <trkpt lat="49.99459" lon="2.3733">
        <ele>102.4</ele>
        <time>2022-11-16T14:15:11Z</time>
      </trkpt>
      <trkpt lat="49.99459" lon="2.3733">
        <ele>102.4</ele>
        <time>2022-11-16T14:15:12Z</time>
      </trkpt>
      <trkpt lat="49.99459" lon="2.3733">
        <ele>102.4</ele>
        <time>2022-11-16T14:15:13Z</time>
      </trkpt>
      <trkpt lat="49.99459" lon="2.3733">
        <ele>102.4</ele>
        <time>2022-11-16T14:15:14Z</time>
      </trkpt>
      <trkpt lat="49.99459" lon="2.3733">
        <ele>102.4</ele>
        <time>2022-11-16T14:15:15Z</time>
      </trkpt>
      <trkpt lat="49.99459" lon="2.3733">
        <ele>102.4</ele>
        <time>2022-11-16T14:15:16Z</time>
      </trkpt>
      <trkpt lat="49.99459" lon="2.3733">
        <ele>102.4</ele>
        <time>2022-11-16T14:15:17Z</time>
      </trkpt>
      <trkpt lat="49.99459" lon="2.3733">
        <ele>102.4</ele>
        <time>2022-11-16T14:15:18Z</time>
      </trkpt>
      <trkpt lat="49.99459" lon="2.3733">
        <ele>102.4</ele>
        <time>2022-11-16T14:15:19Z</time>
      </trkpt>
      <trkpt lat="49.99459" lon="2.3733">
        <ele>102.4</ele>
        <time>2022-11-16T14:15:20Z</time>
      </trkpt>
      <trkpt lat="49.99459" lon="2.3733">
        <ele>102.4</ele>
        <time>2022-11-16T14:15:21Z</time>
      </trkpt>
      <trkpt lat="49.99459" lon="2.3733">
        <ele>102.4</ele>
        <time>2022-11-16T14:15:22Z</time>
      </trkpt>
      <trkpt lat="49.99459" lon="2.3733">
        <ele>102.4</ele>
        <time>2022-11-16T14:15:23Z</time>
      </trkpt>
      <trkpt lat="49.99459" lon="2.3733">
        <ele>102.4</ele>
        <time>2022-11-16T14:15:24Z</time>
      </trkpt>
      <trkpt lat="49.99459" lon="2.3733">
        <ele>102.4</ele>
        <time>2022-11-16T14:15:25Z</time>
      </trkpt>
      <trkpt lat="49.99459" lon="2.3733">
        <ele>102.4</ele>
        <time>2022-11-16T14:15:26Z</time>
      </trkpt>
      <trkpt lat="49.99459" lon="2.3733">
        <ele>102.4</ele>
        <time>2022-11-16T14:15:27Z</time>
      </trkpt>
      <trkpt lat="49.99459" lon="2.3733">
        <ele>102.4</ele>
        <time>2022-11-16T14:15:28Z</time>
      </trkpt>
      <trkpt lat="49.99459" lon="2.3733">
        <ele>102.4</ele>
        <time>2022-11-16T14:15:29Z</time>
      </trkpt>
      <trkpt lat="49.99459" lon="2.37329">
        <ele>102.4</ele>
        <time>2022-11-16T14:15:30Z</time>
      </trkpt>
      <trkpt lat="49.99459" lon="2.37328">
        <ele>102.4</ele>
        <time>2022-11-16T14:15:31Z</time>
      </trkpt>
      <trkpt lat="49.99459" lon="2.37328">
        <ele>102.4</ele>
        <time>2022-11-16T14:15:32Z</time>
      </trkpt>
      <trkpt lat="49.9946" lon="2.37328">
        <ele>102.4</ele>
        <time>2022-11-16T14:15:33Z</time>
      </trkpt>
      <trkpt lat="49.9946" lon="2.37328">
        <ele>102.4</ele>
        <time>2022-11-16T14:15:34Z</time>
      </trkpt>
      <trkpt lat="49.9946" lon="2.37328">
        <ele>102.4</ele>
        <time>2022-11-16T14:15:35Z</time>
      </trkpt>
      <trkpt lat="49.9946" lon="2.37328">
        <ele>102.4</ele>
        <time>2022-11-16T14:15:36Z</time>
      </trkpt>
      <trkpt lat="49.9946" lon="2.37328">
        <ele>102.4</ele>
        <time>2022-11-16T14:15:37Z</time>
      </trkpt>
      <trkpt lat="49.99461" lon="2.37328">
        <ele>102.4</ele>
        <time>2022-11-16T14:15:38Z</time>
      </trkpt>
      <trkpt lat="49.99461" lon="2.37328">
        <ele>102.4</ele>
        <time>2022-11-16T14:15:39Z</time>
      </trkpt>
      <trkpt lat="49.9946" lon="2.37328">
        <ele>102.4</ele>
        <time>2022-11-16T14:15:40Z</time>
      </trkpt>
      <trkpt lat="49.99461" lon="2.37329">
        <ele>102.4</ele>
        <time>2022-11-16T14:15:41Z</time>
      </trkpt>
      <trkpt lat="49.99461" lon="2.37328">
        <ele>102.4</ele>
        <time>2022-11-16T14:15:43Z</time>
      </trkpt>
      <trkpt lat="49.99462" lon="2.37328">
        <ele>102.4</ele>
        <time>2022-11-16T14:15:44Z</time>
      </trkpt>
      <trkpt lat="49.99462" lon="2.37328">
        <ele>102.4</ele>
        <time>2022-11-16T14:15:45Z</time>
      </trkpt>
      <trkpt lat="49.99462" lon="2.37329">
        <ele>102.4</ele>
        <time>2022-11-16T14:15:46Z</time>
      </trkpt>
      <trkpt lat="49.99462" lon="2.37329">
        <ele>102.3</ele>
        <time>2022-11-16T14:15:47Z</time>
      </trkpt>
      <trkpt lat="49.99462" lon="2.37329">
        <ele>102.3</ele>
        <time>2022-11-16T14:15:48Z</time>
      </trkpt>
      <trkpt lat="49.99462" lon="2.37329">
        <ele>102.3</ele>
        <time>2022-11-16T14:15:49Z</time>
      </trkpt>
      <trkpt lat="49.99462" lon="2.37329">
        <ele>102.3</ele>
        <time>2022-11-16T14:15:50Z</time>
      </trkpt>
      <trkpt lat="49.99462" lon="2.37329">
        <ele>102.3</ele>
        <time>2022-11-16T14:15:51Z</time>
      </trkpt>
      <trkpt lat="49.99462" lon="2.37329">
        <ele>102.3</ele>
        <time>2022-11-16T14:15:52Z</time>
      </trkpt>
      <trkpt lat="49.99461" lon="2.37329">
        <ele>102.3</ele>
        <time>2022-11-16T14:15:53Z</time>
      </trkpt>
      <trkpt lat="49.99461" lon="2.37329">
        <ele>102.3</ele>
        <time>2022-11-16T14:15:55Z</time>
      </trkpt>
      <trkpt lat="49.99461" lon="2.37329">
        <ele>102.3</ele>
        <time>2022-11-16T14:15:56Z</time>
      </trkpt>
      <trkpt lat="49.99461" lon="2.37329">
        <ele>102.3</ele>
        <time>2022-11-16T14:15:57Z</time>
      </trkpt>
      <trkpt lat="49.99461" lon="2.37329">
        <ele>102.3</ele>
        <time>2022-11-16T14:15:58Z</time>
      </trkpt>
      <trkpt lat="49.99461" lon="2.37329">
        <ele>102.3</ele>
        <time>2022-11-16T14:15:59Z</time>
      </trkpt>
      <trkpt lat="49.99461" lon="2.37329">
        <ele>102.3</ele>
        <time>2022-11-16T14:16:00Z</time>
      </trkpt>
      <trkpt lat="49.99461" lon="2.37329">
        <ele>102.3</ele>
        <time>2022-11-16T14:16:01Z</time>
      </trkpt>
      <trkpt lat="49.99461" lon="2.37329">
        <ele>102.3</ele>
        <time>2022-11-16T14:16:02Z</time>
      </trkpt>
      <trkpt lat="49.99461" lon="2.37329">
        <ele>102.3</ele>
        <time>2022-11-16T14:16:03Z</time>
      </trkpt>
      <trkpt lat="49.99461" lon="2.37329">
        <ele>102.3</ele>
        <time>2022-11-16T14:16:04Z</time>
      </trkpt>
      <trkpt lat="49.99461" lon="2.37329">
        <ele>102.3</ele>
        <time>2022-11-16T14:16:05Z</time>
      </trkpt>
      <trkpt lat="49.99461" lon="2.37329">
        <ele>102.3</ele>
        <time>2022-11-16T14:16:06Z</time>
      </trkpt>
      <trkpt lat="49.99461" lon="2.37329">
        <ele>102.3</ele>
        <time>2022-11-16T14:16:07Z</time>
      </trkpt>
      <trkpt lat="49.99461" lon="2.37329">
        <ele>102.3</ele>
        <time>2022-11-16T14:16:08Z</time>
      </trkpt>
      <trkpt lat="49.99461" lon="2.37329">
        <ele>102.3</ele>
        <time>2022-11-16T14:16:09Z</time>
      </trkpt>
      <trkpt lat="49.99461" lon="2.37328">
        <ele>102.3</ele>
        <time>2022-11-16T14:16:10Z</time>
      </trkpt>
      <trkpt lat="49.99462" lon="2.37328">
        <ele>102.3</ele>
        <time>2022-11-16T14:16:12Z</time>
      </trkpt>
      <trkpt lat="49.99462" lon="2.37328">
        <ele>102.3</ele>
        <time>2022-11-16T14:16:13Z</time>
      </trkpt>
      <trkpt lat="49.99462" lon="2.37327">
        <ele>102.3</ele>
        <time>2022-11-16T14:16:14Z</time>
      </trkpt>
      <trkpt lat="49.99462" lon="2.37327">
        <ele>102.3</ele>
        <time>2022-11-16T14:16:15Z</time>
      </trkpt>
      <trkpt lat="49.99462" lon="2.37327">
        <ele>102.3</ele>
        <time>2022-11-16T14:16:16Z</time>
      </trkpt>
      <trkpt lat="49.99462" lon="2.37328">
        <ele>102.3</ele>
        <time>2022-11-16T14:16:18Z</time>
      </trkpt>
      <trkpt lat="49.99461" lon="2.37328">
        <ele>102.3</ele>
        <time>2022-11-16T14:16:19Z</time>
      </trkpt>
      <trkpt lat="49.99461" lon="2.37328">
        <ele>102.3</ele>
        <time>2022-11-16T14:16:20Z</time>
      </trkpt>
      <trkpt lat="49.99461" lon="2.37327">
        <ele>102.2</ele>
        <time>2022-11-16T14:16:21Z</time>
      </trkpt>
      <trkpt lat="49.9946" lon="2.37326">
        <ele>102.2</ele>
        <time>2022-11-16T14:16:23Z</time>
      </trkpt>
      <trkpt lat="49.99459" lon="2.37325">
        <ele>102.2</ele>
        <time>2022-11-16T14:16:24Z</time>
      </trkpt>
      <trkpt lat="49.99458" lon="2.37325">
        <ele>102.2</ele>
        <time>2022-11-16T14:16:25Z</time>
      </trkpt>
      <trkpt lat="49.99457" lon="2.37324">
        <ele>102.2</ele>
        <time>2022-11-16T14:16:26Z</time>
      </trkpt>
      <trkpt lat="49.99456" lon="2.37322">
        <ele>102.1</ele>
        <time>2022-11-16T14:16:28Z</time>
      </trkpt>
      <trkpt lat="49.99455" lon="2.37322">
        <ele>102.1</ele>
        <time>2022-11-16T14:16:29Z</time>
      </trkpt>
      <trkpt lat="49.99455" lon="2.37321">
        <ele>102.1</ele>
        <time>2022-11-16T14:16:30Z</time>
      </trkpt>
      <trkpt lat="49.99454" lon="2.3732">
        <ele>102.1</ele>
        <time>2022-11-16T14:16:31Z</time>
      </trkpt>
      <trkpt lat="49.99453" lon="2.37319">
        <ele>102.1</ele>
        <time>2022-11-16T14:16:32Z</time>
      </trkpt>
      <trkpt lat="49.99453" lon="2.37317">
        <ele>102.1</ele>
        <time>2022-11-16T14:16:34Z</time>
      </trkpt>
      <trkpt lat="49.99452" lon="2.37316">
        <ele>102</ele>
        <time>2022-11-16T14:16:35Z</time>
      </trkpt>
      <trkpt lat="49.99452" lon="2.37315">
        <ele>102</ele>
        <time>2022-11-16T14:16:36Z</time>
      </trkpt>
      <trkpt lat="49.99451" lon="2.37313">
        <ele>102</ele>
        <time>2022-11-16T14:16:37Z</time>
      </trkpt>
      <trkpt lat="49.99451" lon="2.37311">
        <ele>102</ele>
        <time>2022-11-16T14:16:38Z</time>
      </trkpt>
      <trkpt lat="49.99452" lon="2.37309">
        <ele>101.9</ele>
        <time>2022-11-16T14:16:39Z</time>
      </trkpt>
      <trkpt lat="49.99452" lon="2.37307">
        <ele>101.9</ele>
        <time>2022-11-16T14:16:41Z</time>
      </trkpt>
      <trkpt lat="49.99453" lon="2.37306">
        <ele>101.9</ele>
        <time>2022-11-16T14:16:42Z</time>
      </trkpt>
      <trkpt lat="49.99453" lon="2.37303">
        <ele>101.9</ele>
        <time>2022-11-16T14:16:43Z</time>
      </trkpt>
      <trkpt lat="49.99454" lon="2.37302">
        <ele>101.9</ele>
        <time>2022-11-16T14:16:44Z</time>
      </trkpt>
      <trkpt lat="49.99454" lon="2.37301">
        <ele>101.8</ele>
        <time>2022-11-16T14:16:45Z</time>
      </trkpt>
      <trkpt lat="49.99454" lon="2.37299">
        <ele>101.8</ele>
        <time>2022-11-16T14:16:47Z</time>
      </trkpt>
      <trkpt lat="49.99455" lon="2.37298">
        <ele>101.8</ele>
        <time>2022-11-16T14:16:48Z</time>
      </trkpt>
      <trkpt lat="49.99455" lon="2.37296">
        <ele>101.8</ele>
        <time>2022-11-16T14:16:49Z</time>
      </trkpt>
      <trkpt lat="49.99455" lon="2.37295">
        <ele>101.8</ele>
        <time>2022-11-16T14:16:50Z</time>
      </trkpt>
      <trkpt lat="49.99455" lon="2.37293">
        <ele>101.8</ele>
        <time>2022-11-16T14:16:51Z</time>
      </trkpt>
      <trkpt lat="49.99456" lon="2.37291">
        <ele>101.7</ele>
        <time>2022-11-16T14:16:53Z</time>
      </trkpt>
      <trkpt lat="49.99456" lon="2.37289">
        <ele>101.7</ele>
        <time>2022-11-16T14:16:54Z</time>
      </trkpt>
      <trkpt lat="49.99457" lon="2.37287">
        <ele>101.7</ele>
        <time>2022-11-16T14:16:55Z</time>
      </trkpt>
      <trkpt lat="49.99457" lon="2.37286">
        <ele>101.7</ele>
        <time>2022-11-16T14:16:56Z</time>
      </trkpt>
      <trkpt lat="49.99458" lon="2.37284">
        <ele>101.6</ele>
        <time>2022-11-16T14:16:57Z</time>
      </trkpt>
      <trkpt lat="49.99458" lon="2.37283">
        <ele>101.6</ele>
        <time>2022-11-16T14:16:59Z</time>
      </trkpt>
      <trkpt lat="49.99459" lon="2.37281">
        <ele>101.6</ele>
        <time>2022-11-16T14:17:00Z</time>
      </trkpt>
      <trkpt lat="49.99459" lon="2.3728">
        <ele>101.6</ele>
        <time>2022-11-16T14:17:01Z</time>
      </trkpt>
      <trkpt lat="49.99459" lon="2.37278">
        <ele>101.6</ele>
        <time>2022-11-16T14:17:02Z</time>
      </trkpt>
      <trkpt lat="49.9946" lon="2.37278">
        <ele>101.6</ele>
        <time>2022-11-16T14:17:03Z</time>
      </trkpt>
      <trkpt lat="49.9946" lon="2.37277">
        <ele>101.5</ele>
        <time>2022-11-16T14:17:05Z</time>
      </trkpt>
      <trkpt lat="49.99461" lon="2.37276">
        <ele>101.5</ele>
        <time>2022-11-16T14:17:06Z</time>
      </trkpt>
      <trkpt lat="49.99461" lon="2.37275">
        <ele>101.5</ele>
        <time>2022-11-16T14:17:07Z</time>
      </trkpt>
      <trkpt lat="49.99462" lon="2.37274">
        <ele>101.5</ele>
        <time>2022-11-16T14:17:08Z</time>
      </trkpt>
      <trkpt lat="49.99462" lon="2.37273">
        <ele>101.5</ele>
        <time>2022-11-16T14:17:09Z</time>
      </trkpt>
      <trkpt lat="49.99463" lon="2.37272">
        <ele>101.5</ele>
        <time>2022-11-16T14:17:11Z</time>
      </trkpt>
      <trkpt lat="49.99464" lon="2.37272">
        <ele>101.5</ele>
        <time>2022-11-16T14:17:12Z</time>
      </trkpt>
      <trkpt lat="49.99465" lon="2.37271">
        <ele>101.4</ele>
        <time>2022-11-16T14:17:14Z</time>
      </trkpt>
      <trkpt lat="49.99466" lon="2.37271">
        <ele>101.4</ele>
        <time>2022-11-16T14:17:15Z</time>
      </trkpt>
      <trkpt lat="49.99466" lon="2.3727">
        <ele>101.4</ele>
        <time>2022-11-16T14:17:16Z</time>
      </trkpt>
      <trkpt lat="49.99466" lon="2.37269">
        <ele>101.4</ele>
        <time>2022-11-16T14:17:18Z</time>
      </trkpt>
      <trkpt lat="49.99465" lon="2.37268">
        <ele>101.4</ele>
        <time>2022-11-16T14:17:19Z</time>
      </trkpt>
      <trkpt lat="49.99465" lon="2.37266">
        <ele>101.4</ele>
        <time>2022-11-16T14:17:21Z</time>
      </trkpt>
      <trkpt lat="49.99466" lon="2.37266">
        <ele>101.4</ele>
        <time>2022-11-16T14:17:22Z</time>
      </trkpt>
      <trkpt lat="49.99466" lon="2.37265">
        <ele>101.4</ele>
        <time>2022-11-16T14:17:23Z</time>
      </trkpt>
      <trkpt lat="49.99467" lon="2.37265">
        <ele>101.3</ele>
        <time>2022-11-16T14:17:24Z</time>
      </trkpt>
      <trkpt lat="49.99467" lon="2.37264">
        <ele>101.3</ele>
        <time>2022-11-16T14:17:26Z</time>
      </trkpt>
      <trkpt lat="49.99467" lon="2.37264">
        <ele>101.3</ele>
        <time>2022-11-16T14:17:27Z</time>
      </trkpt>
      <trkpt lat="49.99467" lon="2.37263">
        <ele>101.3</ele>
        <time>2022-11-16T14:17:28Z</time>
      </trkpt>
      <trkpt lat="49.99468" lon="2.37263">
        <ele>101.3</ele>
        <time>2022-11-16T14:17:29Z</time>
      </trkpt>
      <trkpt lat="49.99468" lon="2.37262">
        <ele>101.3</ele>
        <time>2022-11-16T14:17:31Z</time>
      </trkpt>
      <trkpt lat="49.99468" lon="2.37262">
        <ele>101.3</ele>
        <time>2022-11-16T14:17:32Z</time>
      </trkpt>
      <trkpt lat="49.99469" lon="2.37261">
        <ele>101.3</ele>
        <time>2022-11-16T14:17:33Z</time>
      </trkpt>
      <trkpt lat="49.9947" lon="2.3726">
        <ele>101.3</ele>
        <time>2022-11-16T14:17:34Z</time>
      </trkpt>
      <trkpt lat="49.99471" lon="2.37258">
        <ele>101.2</ele>
        <time>2022-11-16T14:17:35Z</time>
      </trkpt>
      <trkpt lat="49.99472" lon="2.37257">
        <ele>101.2</ele>
        <time>2022-11-16T14:17:36Z</time>
      </trkpt>
      <trkpt lat="49.99474" lon="2.37257">
        <ele>101.2</ele>
        <time>2022-11-16T14:17:38Z</time>
      </trkpt>
      <trkpt lat="49.99475" lon="2.37256">
        <ele>101.2</ele>
        <time>2022-11-16T14:17:39Z</time>
      </trkpt>
      <trkpt lat="49.99476" lon="2.37255">
        <ele>101.1</ele>
        <time>2022-11-16T14:17:40Z</time>
      </trkpt>
      <trkpt lat="49.99477" lon="2.37255">
        <ele>101.1</ele>
        <time>2022-11-16T14:17:41Z</time>
      </trkpt>
      <trkpt lat="49.99478" lon="2.37254">
        <ele>101.1</ele>
        <time>2022-11-16T14:17:43Z</time>
      </trkpt>
      <trkpt lat="49.99478" lon="2.37253">
        <ele>101.1</ele>
        <time>2022-11-16T14:17:44Z</time>
      </trkpt>
      <trkpt lat="49.99477" lon="2.37253">
        <ele>101.1</ele>
        <time>2022-11-16T14:17:45Z</time>
      </trkpt>
      <trkpt lat="49.99476" lon="2.37253">
        <ele>101.1</ele>
        <time>2022-11-16T14:17:46Z</time>
      </trkpt>
      <trkpt lat="49.99476" lon="2.37253">
        <ele>101.1</ele>
        <time>2022-11-16T14:17:47Z</time>
      </trkpt>
      <trkpt lat="49.99476" lon="2.37253">
        <ele>101.1</ele>
        <time>2022-11-16T14:17:48Z</time>
      </trkpt>
      <trkpt lat="49.99476" lon="2.37253">
        <ele>101.1</ele>
        <time>2022-11-16T14:17:49Z</time>
      </trkpt>
      <trkpt lat="49.99477" lon="2.37253">
        <ele>101.1</ele>
        <time>2022-11-16T14:17:50Z</time>
      </trkpt>
      <trkpt lat="49.99477" lon="2.37254">
        <ele>101.1</ele>
        <time>2022-11-16T14:17:51Z</time>
      </trkpt>
      <trkpt lat="49.99478" lon="2.37253">
        <ele>101</ele>
        <time>2022-11-16T14:17:52Z</time>
      </trkpt>
      <trkpt lat="49.99478" lon="2.37253">
        <ele>101</ele>
        <time>2022-11-16T14:17:53Z</time>
      </trkpt>
      <trkpt lat="49.99478" lon="2.37253">
        <ele>101</ele>
        <time>2022-11-16T14:17:54Z</time>
      </trkpt>
      <trkpt lat="49.99478" lon="2.37253">
        <ele>101</ele>
        <time>2022-11-16T14:17:55Z</time>
      </trkpt>
      <trkpt lat="49.99478" lon="2.37253">
        <ele>101</ele>
        <time>2022-11-16T14:17:56Z</time>
      </trkpt>
      <trkpt lat="49.99478" lon="2.37253">
        <ele>101</ele>
        <time>2022-11-16T14:17:57Z</time>
      </trkpt>
      <trkpt lat="49.99478" lon="2.37254">
        <ele>101</ele>
        <time>2022-11-16T14:17:58Z</time>
      </trkpt>
      <trkpt lat="49.99478" lon="2.37254">
        <ele>101</ele>
        <time>2022-11-16T14:17:59Z</time>
      </trkpt>
      <trkpt lat="49.99478" lon="2.37254">
        <ele>101</ele>
        <time>2022-11-16T14:18:00Z</time>
      </trkpt>
      <trkpt lat="49.99478" lon="2.37254">
        <ele>101</ele>
        <time>2022-11-16T14:18:01Z</time>
      </trkpt>
      <trkpt lat="49.99478" lon="2.37254">
        <ele>101</ele>
        <time>2022-11-16T14:18:02Z</time>
      </trkpt>
      <trkpt lat="49.99478" lon="2.37254">
        <ele>101</ele>
        <time>2022-11-16T14:18:03Z</time>
      </trkpt>
      <trkpt lat="49.99478" lon="2.37254">
        <ele>101</ele>
        <time>2022-11-16T14:18:04Z</time>
      </trkpt>
      <trkpt lat="49.99478" lon="2.37254">
        <ele>101</ele>
        <time>2022-11-16T14:18:05Z</time>
      </trkpt>
      <trkpt lat="49.99478" lon="2.37254">
        <ele>101</ele>
        <time>2022-11-16T14:18:06Z</time>
      </trkpt>
      <trkpt lat="49.99478" lon="2.37254">
        <ele>101</ele>
        <time>2022-11-16T14:18:07Z</time>
      </trkpt>
      <trkpt lat="49.99478" lon="2.37254">
        <ele>101</ele>
        <time>2022-11-16T14:18:08Z</time>
      </trkpt>
      <trkpt lat="49.99478" lon="2.37254">
        <ele>101</ele>
        <time>2022-11-16T14:18:09Z</time>
      </trkpt>
      <trkpt lat="49.99478" lon="2.37254">
        <ele>101</ele>
        <time>2022-11-16T14:18:10Z</time>
      </trkpt>
      <trkpt lat="49.99478" lon="2.37254">
        <ele>101</ele>
        <time>2022-11-16T14:18:11Z</time>
      </trkpt>
      <trkpt lat="49.99478" lon="2.37254">
        <ele>101</ele>
        <time>2022-11-16T14:18:12Z</time>
      </trkpt>
      <trkpt lat="49.99478" lon="2.37254">
        <ele>101</ele>
        <time>2022-11-16T14:18:13Z</time>
      </trkpt>
      <trkpt lat="49.99478" lon="2.37254">
        <ele>101</ele>
        <time>2022-11-16T14:18:14Z</time>
      </trkpt>
      <trkpt lat="49.99478" lon="2.37254">
        <ele>101</ele>
        <time>2022-11-16T14:18:15Z</time>
      </trkpt>
      <trkpt lat="49.99478" lon="2.37254">
        <ele>101</ele>
        <time>2022-11-16T14:18:16Z</time>
      </trkpt>
      <trkpt lat="49.99478" lon="2.37254">
        <ele>101</ele>
        <time>2022-11-16T14:18:17Z</time>
      </trkpt>
      <trkpt lat="49.99478" lon="2.37254">
        <ele>101</ele>
        <time>2022-11-16T14:18:18Z</time>
      </trkpt>
      <trkpt lat="49.99478" lon="2.37254">
        <ele>101</ele>
        <time>2022-11-16T14:18:19Z</time>
      </trkpt>
      <trkpt lat="49.99478" lon="2.37254">
        <ele>101</ele>
        <time>2022-11-16T14:18:20Z</time>
      </trkpt>
      <trkpt lat="49.99478" lon="2.37254">
        <ele>101</ele>
        <time>2022-11-16T14:18:21Z</time>
      </trkpt>
      <trkpt lat="49.99479" lon="2.37253">
        <ele>101</ele>
        <time>2022-11-16T14:18:22Z</time>
      </trkpt>
      <trkpt lat="49.99479" lon="2.37252">
        <ele>101</ele>
        <time>2022-11-16T14:18:23Z</time>
      </trkpt>
      <trkpt lat="49.9948" lon="2.37252">
        <ele>101</ele>
        <time>2022-11-16T14:18:24Z</time>
      </trkpt>
      <trkpt lat="49.9948" lon="2.37251">
        <ele>101</ele>
        <time>2022-11-16T14:18:25Z</time>
      </trkpt>
      <trkpt lat="49.99481" lon="2.3725">
        <ele>100.9</ele>
        <time>2022-11-16T14:18:26Z</time>
      </trkpt>
      <trkpt lat="49.99482" lon="2.37249">
        <ele>100.9</ele>
        <time>2022-11-16T14:18:27Z</time>
      </trkpt>
      <trkpt lat="49.99483" lon="2.37249">
        <ele>100.9</ele>
        <time>2022-11-16T14:18:28Z</time>
      </trkpt>
      <trkpt lat="49.99483" lon="2.37248">
        <ele>100.9</ele>
        <time>2022-11-16T14:18:29Z</time>
      </trkpt>
      <trkpt lat="49.99484" lon="2.37248">
        <ele>100.9</ele>
        <time>2022-11-16T14:18:30Z</time>
      </trkpt>
      <trkpt lat="49.99485" lon="2.37247">
        <ele>100.9</ele>
        <time>2022-11-16T14:18:31Z</time>
      </trkpt>
      <trkpt lat="49.99486" lon="2.37247">
        <ele>101.3</ele>
        <time>2022-11-16T14:18:32Z</time>
      </trkpt>
      <trkpt lat="49.99487" lon="2.37247">
        <ele>101.3</ele>
        <time>2022-11-16T14:18:33Z</time>
      </trkpt>
      <trkpt lat="49.99488" lon="2.37247">
        <ele>101.4</ele>
        <time>2022-11-16T14:18:34Z</time>
      </trkpt>
      <trkpt lat="49.99489" lon="2.37247">
        <ele>101.5</ele>
        <time>2022-11-16T14:18:35Z</time>
      </trkpt>
      <trkpt lat="49.9949" lon="2.37247">
        <ele>101.5</ele>
        <time>2022-11-16T14:18:36Z</time>
      </trkpt>
      <trkpt lat="49.99491" lon="2.37248">
        <ele>101.6</ele>
        <time>2022-11-16T14:18:37Z</time>
      </trkpt>
      <trkpt lat="49.99492" lon="2.37249">
        <ele>101.7</ele>
        <time>2022-11-16T14:18:38Z</time>
      </trkpt>
      <trkpt lat="49.99493" lon="2.37249">
        <ele>101.7</ele>
        <time>2022-11-16T14:18:39Z</time>
      </trkpt>
      <trkpt lat="49.99495" lon="2.3725">
        <ele>101.8</ele>
        <time>2022-11-16T14:18:41Z</time>
      </trkpt>
      <trkpt lat="49.99495" lon="2.3725">
        <ele>101.8</ele>
        <time>2022-11-16T14:18:42Z</time>
      </trkpt>
      <trkpt lat="49.99496" lon="2.3725">
        <ele>101.9</ele>
        <time>2022-11-16T14:18:43Z</time>
      </trkpt>
      <trkpt lat="49.99496" lon="2.3725">
        <ele>101.9</ele>
        <time>2022-11-16T14:18:44Z</time>
      </trkpt>
      <trkpt lat="49.99497" lon="2.3725">
        <ele>101.9</ele>
        <time>2022-11-16T14:18:45Z</time>
      </trkpt>
      <trkpt lat="49.99498" lon="2.37251">
        <ele>102</ele>
        <time>2022-11-16T14:18:47Z</time>
      </trkpt>
      <trkpt lat="49.99499" lon="2.37252">
        <ele>102</ele>
        <time>2022-11-16T14:18:48Z</time>
      </trkpt>
      <trkpt lat="49.99501" lon="2.37253">
        <ele>102.2</ele>
        <time>2022-11-16T14:18:49Z</time>
      </trkpt>
      <trkpt lat="49.99502" lon="2.37254">
        <ele>102.3</ele>
        <time>2022-11-16T14:18:50Z</time>
      </trkpt>
      <trkpt lat="49.99504" lon="2.37255">
        <ele>102.4</ele>
        <time>2022-11-16T14:18:52Z</time>
      </trkpt>
      <trkpt lat="49.99505" lon="2.37256">
        <ele>102.5</ele>
        <time>2022-11-16T14:18:53Z</time>
      </trkpt>
      <trkpt lat="49.99507" lon="2.37256">
        <ele>102.5</ele>
        <time>2022-11-16T14:18:54Z</time>
      </trkpt>
      <trkpt lat="49.99509" lon="2.37257">
        <ele>102.7</ele>
        <time>2022-11-16T14:18:55Z</time>
      </trkpt>
      <trkpt lat="49.99509" lon="2.37258">
        <ele>102.7</ele>
        <time>2022-11-16T14:18:57Z</time>
      </trkpt>
      <trkpt lat="49.9951" lon="2.37258">
        <ele>102.8</ele>
        <time>2022-11-16T14:18:58Z</time>
      </trkpt>
      <trkpt lat="49.99511" lon="2.37259">
        <ele>102.8</ele>
        <time>2022-11-16T14:18:59Z</time>
      </trkpt>
      <trkpt lat="49.99512" lon="2.37259">
        <ele>102.9</ele>
        <time>2022-11-16T14:19:01Z</time>
      </trkpt>
      <trkpt lat="49.99514" lon="2.3726">
        <ele>103</ele>
        <time>2022-11-16T14:19:02Z</time>
      </trkpt>
      <trkpt lat="49.99515" lon="2.37261">
        <ele>103.1</ele>
        <time>2022-11-16T14:19:03Z</time>
      </trkpt>
      <trkpt lat="49.99516" lon="2.37261">
        <ele>103.1</ele>
        <time>2022-11-16T14:19:04Z</time>
      </trkpt>
      <trkpt lat="49.99517" lon="2.37262">
        <ele>103.2</ele>
        <time>2022-11-16T14:19:05Z</time>
      </trkpt>
      <trkpt lat="49.99518" lon="2.37262">
        <ele>103.2</ele>
        <time>2022-11-16T14:19:07Z</time>
      </trkpt>
      <trkpt lat="49.99519" lon="2.37263">
        <ele>103.3</ele>
        <time>2022-11-16T14:19:08Z</time>
      </trkpt>
      <trkpt lat="49.9952" lon="2.37263">
        <ele>103.4</ele>
        <time>2022-11-16T14:19:09Z</time>
      </trkpt>
      <trkpt lat="49.99521" lon="2.37264">
        <ele>103.4</ele>
        <time>2022-11-16T14:19:10Z</time>
      </trkpt>
      <trkpt lat="49.99523" lon="2.37265">
        <ele>103.5</ele>
        <time>2022-11-16T14:19:11Z</time>
      </trkpt>
      <trkpt lat="49.99524" lon="2.37265">
        <ele>103.6</ele>
        <time>2022-11-16T14:19:12Z</time>
      </trkpt>
      <trkpt lat="49.99525" lon="2.37266">
        <ele>103.7</ele>
        <time>2022-11-16T14:19:13Z</time>
      </trkpt>
      <trkpt lat="49.99526" lon="2.37267">
        <ele>103.7</ele>
        <time>2022-11-16T14:19:15Z</time>
      </trkpt>
      <trkpt lat="49.99527" lon="2.37267">
        <ele>103.8</ele>
        <time>2022-11-16T14:19:16Z</time>
      </trkpt>
      <trkpt lat="49.99528" lon="2.37268">
        <ele>103.8</ele>
        <time>2022-11-16T14:19:17Z</time>
      </trkpt>
      <trkpt lat="49.99529" lon="2.37268">
        <ele>103.9</ele>
        <time>2022-11-16T14:19:18Z</time>
      </trkpt>
      <trkpt lat="49.9953" lon="2.37269">
        <ele>104</ele>
        <time>2022-11-16T14:19:19Z</time>
      </trkpt>
      <trkpt lat="49.99532" lon="2.3727">
        <ele>104.1</ele>
        <time>2022-11-16T14:19:20Z</time>
      </trkpt>
      <trkpt lat="49.99533" lon="2.3727">
        <ele>104.1</ele>
        <time>2022-11-16T14:19:21Z</time>
      </trkpt>
      <trkpt lat="49.99534" lon="2.37271">
        <ele>104.2</ele>
        <time>2022-11-16T14:19:23Z</time>
      </trkpt>
      <trkpt lat="49.99535" lon="2.37271">
        <ele>104.2</ele>
        <time>2022-11-16T14:19:24Z</time>
      </trkpt>
      <trkpt lat="49.99536" lon="2.37273">
        <ele>104.3</ele>
        <time>2022-11-16T14:19:25Z</time>
      </trkpt>
      <trkpt lat="49.99537" lon="2.37273">
        <ele>104.4</ele>
        <time>2022-11-16T14:19:26Z</time>
      </trkpt>
      <trkpt lat="49.99538" lon="2.37273">
        <ele>104.4</ele>
        <time>2022-11-16T14:19:27Z</time>
      </trkpt>
      <trkpt lat="49.99539" lon="2.37274">
        <ele>104.5</ele>
        <time>2022-11-16T14:19:29Z</time>
      </trkpt>
      <trkpt lat="49.9954" lon="2.37275">
        <ele>104.6</ele>
        <time>2022-11-16T14:19:30Z</time>
      </trkpt>
      <trkpt lat="49.99541" lon="2.37275">
        <ele>104.6</ele>
        <time>2022-11-16T14:19:31Z</time>
      </trkpt>
      <trkpt lat="49.99543" lon="2.37276">
        <ele>104.7</ele>
        <time>2022-11-16T14:19:32Z</time>
      </trkpt>
      <trkpt lat="49.99544" lon="2.37276">
        <ele>104.8</ele>
        <time>2022-11-16T14:19:33Z</time>
      </trkpt>
      <trkpt lat="49.99545" lon="2.37277">
        <ele>104.8</ele>
        <time>2022-11-16T14:19:35Z</time>
      </trkpt>
      <trkpt lat="49.99546" lon="2.37277">
        <ele>104.9</ele>
        <time>2022-11-16T14:19:36Z</time>
      </trkpt>
      <trkpt lat="49.99547" lon="2.37278">
        <ele>105</ele>
        <time>2022-11-16T14:19:37Z</time>
      </trkpt>
      <trkpt lat="49.99548" lon="2.37279">
        <ele>105.1</ele>
        <time>2022-11-16T14:19:38Z</time>
      </trkpt>
      <trkpt lat="49.99549" lon="2.3728">
        <ele>105.1</ele>
        <time>2022-11-16T14:19:39Z</time>
      </trkpt>
      <trkpt lat="49.9955" lon="2.37281">
        <ele>105.2</ele>
        <time>2022-11-16T14:19:41Z</time>
      </trkpt>
      <trkpt lat="49.99551" lon="2.37281">
        <ele>105.2</ele>
        <time>2022-11-16T14:19:42Z</time>
      </trkpt>
      <trkpt lat="49.99552" lon="2.37282">
        <ele>105.3</ele>
        <time>2022-11-16T14:19:43Z</time>
      </trkpt>
      <trkpt lat="49.99553" lon="2.37282">
        <ele>105.4</ele>
        <time>2022-11-16T14:19:44Z</time>
      </trkpt>
      <trkpt lat="49.99554" lon="2.37283">
        <ele>105.4</ele>
        <time>2022-11-16T14:19:45Z</time>
      </trkpt>
      <trkpt lat="49.99555" lon="2.37285">
        <ele>105.5</ele>
        <time>2022-11-16T14:19:46Z</time>
      </trkpt>
      <trkpt lat="49.99556" lon="2.37285">
        <ele>105.6</ele>
        <time>2022-11-16T14:19:47Z</time>
      </trkpt>
      <trkpt lat="49.99557" lon="2.37286">
        <ele>105.7</ele>
        <time>2022-11-16T14:19:49Z</time>
      </trkpt>
      <trkpt lat="49.99557" lon="2.37286">
        <ele>105.7</ele>
        <time>2022-11-16T14:19:50Z</time>
      </trkpt>
      <trkpt lat="49.99558" lon="2.37287">
        <ele>105.8</ele>
        <time>2022-11-16T14:19:51Z</time>
      </trkpt>
      <trkpt lat="49.99559" lon="2.37288">
        <ele>105.8</ele>
        <time>2022-11-16T14:19:52Z</time>
      </trkpt>
      <trkpt lat="49.9956" lon="2.37288">
        <ele>105.9</ele>
        <time>2022-11-16T14:19:53Z</time>
      </trkpt>
      <trkpt lat="49.99561" lon="2.37289">
        <ele>106</ele>
        <time>2022-11-16T14:19:54Z</time>
      </trkpt>
      <trkpt lat="49.99562" lon="2.37289">
        <ele>106</ele>
        <time>2022-11-16T14:19:55Z</time>
      </trkpt>
      <trkpt lat="49.99563" lon="2.3729">
        <ele>106.1</ele>
        <time>2022-11-16T14:19:57Z</time>
      </trkpt>
      <trkpt lat="49.99564" lon="2.37291">
        <ele>106.2</ele>
        <time>2022-11-16T14:19:58Z</time>
      </trkpt>
      <trkpt lat="49.99565" lon="2.37291">
        <ele>106.2</ele>
        <time>2022-11-16T14:19:59Z</time>
      </trkpt>
      <trkpt lat="49.99566" lon="2.37292">
        <ele>106.3</ele>
        <time>2022-11-16T14:20:00Z</time>
      </trkpt>
      <trkpt lat="49.99567" lon="2.37292">
        <ele>106.4</ele>
        <time>2022-11-16T14:20:01Z</time>
      </trkpt>
      <trkpt lat="49.99568" lon="2.37293">
        <ele>106.5</ele>
        <time>2022-11-16T14:20:02Z</time>
      </trkpt>
      <trkpt lat="49.99569" lon="2.37294">
        <ele>106.5</ele>
        <time>2022-11-16T14:20:03Z</time>
      </trkpt>
      <trkpt lat="49.99571" lon="2.37296">
        <ele>106.7</ele>
        <time>2022-11-16T14:20:04Z</time>
      </trkpt>
      <trkpt lat="49.99571" lon="2.37296">
        <ele>106.7</ele>
        <time>2022-11-16T14:20:06Z</time>
      </trkpt>
      <trkpt lat="49.99572" lon="2.37297">
        <ele>106.8</ele>
        <time>2022-11-16T14:20:07Z</time>
      </trkpt>
      <trkpt lat="49.99573" lon="2.37298">
        <ele>106.9</ele>
        <time>2022-11-16T14:20:08Z</time>
      </trkpt>
      <trkpt lat="49.99574" lon="2.37298">
        <ele>106.9</ele>
        <time>2022-11-16T14:20:09Z</time>
      </trkpt>
      <trkpt lat="49.99575" lon="2.37299">
        <ele>107</ele>
        <time>2022-11-16T14:20:10Z</time>
      </trkpt>
      <trkpt lat="49.99576" lon="2.373">
        <ele>107.1</ele>
        <time>2022-11-16T14:20:11Z</time>
      </trkpt>
      <trkpt lat="49.99577" lon="2.37301">
        <ele>107.1</ele>
        <time>2022-11-16T14:20:12Z</time>
      </trkpt>
      <trkpt lat="49.99577" lon="2.37301">
        <ele>107.2</ele>
        <time>2022-11-16T14:20:13Z</time>
      </trkpt>
      <trkpt lat="49.99578" lon="2.37302">
        <ele>107.3</ele>
        <time>2022-11-16T14:20:14Z</time>
      </trkpt>
      <trkpt lat="49.99579" lon="2.37302">
        <ele>107.4</ele>
        <time>2022-11-16T14:20:15Z</time>
      </trkpt>
      <trkpt lat="49.99581" lon="2.37303">
        <ele>107.5</ele>
        <time>2022-11-16T14:20:16Z</time>
      </trkpt>
      <trkpt lat="49.99582" lon="2.37304">
        <ele>107.6</ele>
        <time>2022-11-16T14:20:17Z</time>
      </trkpt>
      <trkpt lat="49.99583" lon="2.37305">
        <ele>107.6</ele>
        <time>2022-11-16T14:20:18Z</time>
      </trkpt>
      <trkpt lat="49.99584" lon="2.37306">
        <ele>107.7</ele>
        <time>2022-11-16T14:20:20Z</time>
      </trkpt>
      <trkpt lat="49.99585" lon="2.37307">
        <ele>107.8</ele>
        <time>2022-11-16T14:20:21Z</time>
      </trkpt>
      <trkpt lat="49.99586" lon="2.37308">
        <ele>107.9</ele>
        <time>2022-11-16T14:20:22Z</time>
      </trkpt>
      <trkpt lat="49.99588" lon="2.37309">
        <ele>108</ele>
        <time>2022-11-16T14:20:23Z</time>
      </trkpt>
      <trkpt lat="49.99589" lon="2.3731">
        <ele>108.1</ele>
        <time>2022-11-16T14:20:24Z</time>
      </trkpt>
      <trkpt lat="49.99589" lon="2.37311">
        <ele>108.2</ele>
        <time>2022-11-16T14:20:25Z</time>
      </trkpt>
      <trkpt lat="49.99591" lon="2.37312">
        <ele>108.3</ele>
        <time>2022-11-16T14:20:27Z</time>
      </trkpt>
      <trkpt lat="49.99592" lon="2.37313">
        <ele>108.4</ele>
        <time>2022-11-16T14:20:28Z</time>
      </trkpt>
      <trkpt lat="49.99593" lon="2.37313">
        <ele>108.4</ele>
        <time>2022-11-16T14:20:29Z</time>
      </trkpt>
      <trkpt lat="49.99595" lon="2.37314">
        <ele>108.5</ele>
        <time>2022-11-16T14:20:30Z</time>
      </trkpt>
      <trkpt lat="49.99595" lon="2.37315">
        <ele>108.6</ele>
        <time>2022-11-16T14:20:31Z</time>
      </trkpt>
      <trkpt lat="49.99596" lon="2.37315">
        <ele>108.7</ele>
        <time>2022-11-16T14:20:32Z</time>
      </trkpt>
      <trkpt lat="49.99598" lon="2.37316">
        <ele>108.8</ele>
        <time>2022-11-16T14:20:33Z</time>
      </trkpt>
      <trkpt lat="49.99599" lon="2.37317">
        <ele>108.9</ele>
        <time>2022-11-16T14:20:34Z</time>
      </trkpt>
      <trkpt lat="49.996" lon="2.37318">
        <ele>108.9</ele>
        <time>2022-11-16T14:20:35Z</time>
      </trkpt>
      <trkpt lat="49.99601" lon="2.37319">
        <ele>109</ele>
        <time>2022-11-16T14:20:36Z</time>
      </trkpt>
      <trkpt lat="49.99602" lon="2.37319">
        <ele>109.1</ele>
        <time>2022-11-16T14:20:37Z</time>
      </trkpt>
      <trkpt lat="49.99603" lon="2.3732">
        <ele>109.2</ele>
        <time>2022-11-16T14:20:39Z</time>
      </trkpt>
      <trkpt lat="49.99604" lon="2.37321">
        <ele>109.3</ele>
        <time>2022-11-16T14:20:40Z</time>
      </trkpt>
      <trkpt lat="49.99605" lon="2.37322">
        <ele>109.4</ele>
        <time>2022-11-16T14:20:41Z</time>
      </trkpt>
      <trkpt lat="49.99607" lon="2.37324">
        <ele>109.5</ele>
        <time>2022-11-16T14:20:42Z</time>
      </trkpt>
      <trkpt lat="49.99608" lon="2.37324">
        <ele>109.6</ele>
        <time>2022-11-16T14:20:43Z</time>
      </trkpt>
      <trkpt lat="49.99609" lon="2.37324">
        <ele>109.6</ele>
        <time>2022-11-16T14:20:44Z</time>
      </trkpt>
      <trkpt lat="49.99611" lon="2.37326">
        <ele>109.7</ele>
        <time>2022-11-16T14:20:46Z</time>
      </trkpt>
      <trkpt lat="49.99611" lon="2.37326">
        <ele>109.8</ele>
        <time>2022-11-16T14:20:47Z</time>
      </trkpt>
      <trkpt lat="49.99612" lon="2.37326">
        <ele>109.9</ele>
        <time>2022-11-16T14:20:48Z</time>
      </trkpt>
      <trkpt lat="49.99614" lon="2.37328">
        <ele>110</ele>
        <time>2022-11-16T14:20:49Z</time>
      </trkpt>
      <trkpt lat="49.99615" lon="2.37328">
        <ele>110</ele>
        <time>2022-11-16T14:20:51Z</time>
      </trkpt>
      <trkpt lat="49.99615" lon="2.37329">
        <ele>110.1</ele>
        <time>2022-11-16T14:20:52Z</time>
      </trkpt>
      <trkpt lat="49.99616" lon="2.3733">
        <ele>110.2</ele>
        <time>2022-11-16T14:20:53Z</time>
      </trkpt>
      <trkpt lat="49.99617" lon="2.37332">
        <ele>110.2</ele>
        <time>2022-11-16T14:20:54Z</time>
      </trkpt>
      <trkpt lat="49.99618" lon="2.37332">
        <ele>110.3</ele>
        <time>2022-11-16T14:20:55Z</time>
      </trkpt>
      <trkpt lat="49.99619" lon="2.37333">
        <ele>110.4</ele>
        <time>2022-11-16T14:20:56Z</time>
      </trkpt>
      <trkpt lat="49.9962" lon="2.37334">
        <ele>110.4</ele>
        <time>2022-11-16T14:20:58Z</time>
      </trkpt>
      <trkpt lat="49.99621" lon="2.37335">
        <ele>110.5</ele>
        <time>2022-11-16T14:20:59Z</time>
      </trkpt>
      <trkpt lat="49.99622" lon="2.37336">
        <ele>110.6</ele>
        <time>2022-11-16T14:21:00Z</time>
      </trkpt>
      <trkpt lat="49.99622" lon="2.37336">
        <ele>110.6</ele>
        <time>2022-11-16T14:21:01Z</time>
      </trkpt>
      <trkpt lat="49.99623" lon="2.37337">
        <ele>110.7</ele>
        <time>2022-11-16T14:21:02Z</time>
      </trkpt>
      <trkpt lat="49.99624" lon="2.37338">
        <ele>110.8</ele>
        <time>2022-11-16T14:21:03Z</time>
      </trkpt>
      <trkpt lat="49.99625" lon="2.37339">
        <ele>110.8</ele>
        <time>2022-11-16T14:21:04Z</time>
      </trkpt>
      <trkpt lat="49.99626" lon="2.3734">
        <ele>110.9</ele>
        <time>2022-11-16T14:21:05Z</time>
      </trkpt>
      <trkpt lat="49.99626" lon="2.37341">
        <ele>111</ele>
        <time>2022-11-16T14:21:06Z</time>
      </trkpt>
      <trkpt lat="49.99627" lon="2.37342">
        <ele>111</ele>
        <time>2022-11-16T14:21:07Z</time>
      </trkpt>
      <trkpt lat="49.99628" lon="2.37343">
        <ele>111.1</ele>
        <time>2022-11-16T14:21:08Z</time>
      </trkpt>
      <trkpt lat="49.99629" lon="2.37344">
        <ele>111.2</ele>
        <time>2022-11-16T14:21:09Z</time>
      </trkpt>
      <trkpt lat="49.9963" lon="2.37345">
        <ele>111.2</ele>
        <time>2022-11-16T14:21:11Z</time>
      </trkpt>
      <trkpt lat="49.99631" lon="2.37345">
        <ele>111.3</ele>
        <time>2022-11-16T14:21:12Z</time>
      </trkpt>
      <trkpt lat="49.99631" lon="2.37346">
        <ele>111.3</ele>
        <time>2022-11-16T14:21:13Z</time>
      </trkpt>
      <trkpt lat="49.99632" lon="2.37346">
        <ele>111.3</ele>
        <time>2022-11-16T14:21:14Z</time>
      </trkpt>
      <trkpt lat="49.99633" lon="2.37347">
        <ele>111.4</ele>
        <time>2022-11-16T14:21:15Z</time>
      </trkpt>
      <trkpt lat="49.99633" lon="2.37347">
        <ele>111.4</ele>
        <time>2022-11-16T14:21:16Z</time>
      </trkpt>
      <trkpt lat="49.99634" lon="2.37348">
        <ele>111.5</ele>
        <time>2022-11-16T14:21:17Z</time>
      </trkpt>
      <trkpt lat="49.99635" lon="2.37349">
        <ele>111.6</ele>
        <time>2022-11-16T14:21:18Z</time>
      </trkpt>
      <trkpt lat="49.99636" lon="2.3735">
        <ele>111.6</ele>
        <time>2022-11-16T14:21:19Z</time>
      </trkpt>
      <trkpt lat="49.99637" lon="2.37351">
        <ele>111.7</ele>
        <time>2022-11-16T14:21:21Z</time>
      </trkpt>
      <trkpt lat="49.99638" lon="2.37352">
        <ele>111.8</ele>
        <time>2022-11-16T14:21:22Z</time>
      </trkpt>
      <trkpt lat="49.99639" lon="2.37352">
        <ele>111.8</ele>
        <time>2022-11-16T14:21:23Z</time>
      </trkpt>
      <trkpt lat="49.99639" lon="2.37353">
        <ele>111.9</ele>
        <time>2022-11-16T14:21:24Z</time>
      </trkpt>
      <trkpt lat="49.9964" lon="2.37353">
        <ele>111.9</ele>
        <time>2022-11-16T14:21:25Z</time>
      </trkpt>
      <trkpt lat="49.99642" lon="2.37354">
        <ele>112</ele>
        <time>2022-11-16T14:21:26Z</time>
      </trkpt>
      <trkpt lat="49.99643" lon="2.37355">
        <ele>112.1</ele>
        <time>2022-11-16T14:21:27Z</time>
      </trkpt>
      <trkpt lat="49.99644" lon="2.37355">
        <ele>112.2</ele>
        <time>2022-11-16T14:21:29Z</time>
      </trkpt>
      <trkpt lat="49.99645" lon="2.37355">
        <ele>112.3</ele>
        <time>2022-11-16T14:21:30Z</time>
      </trkpt>
      <trkpt lat="49.99646" lon="2.37356">
        <ele>112.3</ele>
        <time>2022-11-16T14:21:31Z</time>
      </trkpt>
      <trkpt lat="49.99647" lon="2.37356">
        <ele>112.4</ele>
        <time>2022-11-16T14:21:32Z</time>
      </trkpt>
      <trkpt lat="49.99648" lon="2.37356">
        <ele>112.4</ele>
        <time>2022-11-16T14:21:33Z</time>
      </trkpt>
      <trkpt lat="49.99649" lon="2.37356">
        <ele>112.4</ele>
        <time>2022-11-16T14:21:35Z</time>
      </trkpt>
      <trkpt lat="49.9965" lon="2.37355">
        <ele>112.4</ele>
        <time>2022-11-16T14:21:36Z</time>
      </trkpt>
      <trkpt lat="49.99651" lon="2.37354">
        <ele>112.4</ele>
        <time>2022-11-16T14:21:37Z</time>
      </trkpt>
      <trkpt lat="49.99652" lon="2.37353">
        <ele>112.4</ele>
        <time>2022-11-16T14:21:38Z</time>
      </trkpt>
      <trkpt lat="49.99652" lon="2.37352">
        <ele>112.4</ele>
        <time>2022-11-16T14:21:39Z</time>
      </trkpt>
      <trkpt lat="49.99653" lon="2.3735">
        <ele>112.5</ele>
        <time>2022-11-16T14:21:40Z</time>
      </trkpt>
      <trkpt lat="49.99654" lon="2.37349">
        <ele>112.5</ele>
        <time>2022-11-16T14:21:42Z</time>
      </trkpt>
      <trkpt lat="49.99654" lon="2.37348">
        <ele>112.5</ele>
        <time>2022-11-16T14:21:43Z</time>
      </trkpt>
      <trkpt lat="49.99655" lon="2.37346">
        <ele>112.5</ele>
        <time>2022-11-16T14:21:44Z</time>
      </trkpt>
      <trkpt lat="49.99657" lon="2.37344">
        <ele>112.5</ele>
        <time>2022-11-16T14:21:45Z</time>
      </trkpt>
      <trkpt lat="49.99657" lon="2.37343">
        <ele>112.5</ele>
        <time>2022-11-16T14:21:46Z</time>
      </trkpt>
      <trkpt lat="49.99658" lon="2.37342">
        <ele>112.5</ele>
        <time>2022-11-16T14:21:47Z</time>
      </trkpt>
      <trkpt lat="49.99659" lon="2.3734">
        <ele>112.6</ele>
        <time>2022-11-16T14:21:48Z</time>
      </trkpt>
      <trkpt lat="49.9966" lon="2.37338">
        <ele>112.6</ele>
        <time>2022-11-16T14:21:49Z</time>
      </trkpt>
      <trkpt lat="49.9966" lon="2.37337">
        <ele>112.6</ele>
        <time>2022-11-16T14:21:51Z</time>
      </trkpt>
      <trkpt lat="49.99661" lon="2.37336">
        <ele>112.6</ele>
        <time>2022-11-16T14:21:52Z</time>
      </trkpt>
      <trkpt lat="49.99662" lon="2.37335">
        <ele>112.6</ele>
        <time>2022-11-16T14:21:53Z</time>
      </trkpt>
      <trkpt lat="49.99662" lon="2.37334">
        <ele>112.6</ele>
        <time>2022-11-16T14:21:54Z</time>
      </trkpt>
      <trkpt lat="49.99664" lon="2.37332">
        <ele>112.7</ele>
        <time>2022-11-16T14:21:55Z</time>
      </trkpt>
      <trkpt lat="49.99664" lon="2.37331">
        <ele>112.7</ele>
        <time>2022-11-16T14:21:56Z</time>
      </trkpt>
      <trkpt lat="49.99665" lon="2.3733">
        <ele>112.7</ele>
        <time>2022-11-16T14:21:57Z</time>
      </trkpt>
      <trkpt lat="49.99666" lon="2.37329">
        <ele>112.7</ele>
        <time>2022-11-16T14:21:58Z</time>
      </trkpt>
      <trkpt lat="49.99667" lon="2.37327">
        <ele>112.7</ele>
        <time>2022-11-16T14:21:59Z</time>
      </trkpt>
      <trkpt lat="49.99668" lon="2.37326">
        <ele>112.7</ele>
        <time>2022-11-16T14:22:01Z</time>
      </trkpt>
      <trkpt lat="49.99668" lon="2.37325">
        <ele>112.8</ele>
        <time>2022-11-16T14:22:02Z</time>
      </trkpt>
      <trkpt lat="49.99669" lon="2.37324">
        <ele>112.8</ele>
        <time>2022-11-16T14:22:03Z</time>
      </trkpt>
      <trkpt lat="49.9967" lon="2.37322">
        <ele>112.8</ele>
        <time>2022-11-16T14:22:04Z</time>
      </trkpt>
      <trkpt lat="49.99672" lon="2.37321">
        <ele>112.8</ele>
        <time>2022-11-16T14:22:05Z</time>
      </trkpt>
      <trkpt lat="49.99673" lon="2.3732">
        <ele>112.8</ele>
        <time>2022-11-16T14:22:06Z</time>
      </trkpt>
      <trkpt lat="49.99673" lon="2.37319">
        <ele>112.8</ele>
        <time>2022-11-16T14:22:07Z</time>
      </trkpt>
      <trkpt lat="49.99674" lon="2.37318">
        <ele>112.9</ele>
        <time>2022-11-16T14:22:08Z</time>
      </trkpt>
      <trkpt lat="49.99675" lon="2.37317">
        <ele>112.9</ele>
        <time>2022-11-16T14:22:10Z</time>
      </trkpt>
      <trkpt lat="49.99676" lon="2.37316">
        <ele>112.9</ele>
        <time>2022-11-16T14:22:11Z</time>
      </trkpt>
      <trkpt lat="49.99678" lon="2.37315">
        <ele>112.9</ele>
        <time>2022-11-16T14:22:12Z</time>
      </trkpt>
      <trkpt lat="49.99679" lon="2.37314">
        <ele>112.9</ele>
        <time>2022-11-16T14:22:13Z</time>
      </trkpt>
      <trkpt lat="49.9968" lon="2.37313">
        <ele>112.9</ele>
        <time>2022-11-16T14:22:14Z</time>
      </trkpt>
      <trkpt lat="49.99681" lon="2.37311">
        <ele>113</ele>
        <time>2022-11-16T14:22:15Z</time>
      </trkpt>
      <trkpt lat="49.99681" lon="2.37311">
        <ele>113</ele>
        <time>2022-11-16T14:22:16Z</time>
      </trkpt>
      <trkpt lat="49.99682" lon="2.3731">
        <ele>113</ele>
        <time>2022-11-16T14:22:17Z</time>
      </trkpt>
      <trkpt lat="49.99683" lon="2.37308">
        <ele>113</ele>
        <time>2022-11-16T14:22:19Z</time>
      </trkpt>
      <trkpt lat="49.99684" lon="2.37307">
        <ele>113</ele>
        <time>2022-11-16T14:22:20Z</time>
      </trkpt>
      <trkpt lat="49.99686" lon="2.37305">
        <ele>113.1</ele>
        <time>2022-11-16T14:22:21Z</time>
      </trkpt>
      <trkpt lat="49.99687" lon="2.37304">
        <ele>113.1</ele>
        <time>2022-11-16T14:22:22Z</time>
      </trkpt>
      <trkpt lat="49.99687" lon="2.37304">
        <ele>113.1</ele>
        <time>2022-11-16T14:22:23Z</time>
      </trkpt>
      <trkpt lat="49.99688" lon="2.37302">
        <ele>113.1</ele>
        <time>2022-11-16T14:22:24Z</time>
      </trkpt>
      <trkpt lat="49.99689" lon="2.37301">
        <ele>113.1</ele>
        <time>2022-11-16T14:22:25Z</time>
      </trkpt>
      <trkpt lat="49.9969" lon="2.373">
        <ele>113.1</ele>
        <time>2022-11-16T14:22:27Z</time>
      </trkpt>
      <trkpt lat="49.99691" lon="2.373">
        <ele>113.1</ele>
        <time>2022-11-16T14:22:28Z</time>
      </trkpt>
      <trkpt lat="49.99692" lon="2.37299">
        <ele>113.2</ele>
        <time>2022-11-16T14:22:29Z</time>
      </trkpt>
      <trkpt lat="49.99693" lon="2.37298">
        <ele>113.2</ele>
        <time>2022-11-16T14:22:30Z</time>
      </trkpt>
      <trkpt lat="49.99694" lon="2.37297">
        <ele>113.2</ele>
        <time>2022-11-16T14:22:31Z</time>
      </trkpt>
      <trkpt lat="49.99695" lon="2.37296">
        <ele>113.2</ele>
        <time>2022-11-16T14:22:32Z</time>
      </trkpt>
      <trkpt lat="49.99695" lon="2.37296">
        <ele>113.2</ele>
        <time>2022-11-16T14:22:33Z</time>
      </trkpt>
      <trkpt lat="49.99696" lon="2.37295">
        <ele>113.2</ele>
        <time>2022-11-16T14:22:35Z</time>
      </trkpt>
      <trkpt lat="49.99697" lon="2.37294">
        <ele>113.2</ele>
        <time>2022-11-16T14:22:36Z</time>
      </trkpt>
      <trkpt lat="49.99698" lon="2.37293">
        <ele>113.3</ele>
        <time>2022-11-16T14:22:37Z</time>
      </trkpt>
      <trkpt lat="49.99699" lon="2.37292">
        <ele>113.3</ele>
        <time>2022-11-16T14:22:38Z</time>
      </trkpt>
      <trkpt lat="49.997" lon="2.37291">
        <ele>113.3</ele>
        <time>2022-11-16T14:22:39Z</time>
      </trkpt>
      <trkpt lat="49.99701" lon="2.3729">
        <ele>113.3</ele>
        <time>2022-11-16T14:22:40Z</time>
      </trkpt>
      <trkpt lat="49.99702" lon="2.37289">
        <ele>113.3</ele>
        <time>2022-11-16T14:22:41Z</time>
      </trkpt>
      <trkpt lat="49.99703" lon="2.37288">
        <ele>113.3</ele>
        <time>2022-11-16T14:22:42Z</time>
      </trkpt>
      <trkpt lat="49.99704" lon="2.37287">
        <ele>113.4</ele>
        <time>2022-11-16T14:22:44Z</time>
      </trkpt>
      <trkpt lat="49.99705" lon="2.37286">
        <ele>113.4</ele>
        <time>2022-11-16T14:22:45Z</time>
      </trkpt>
      <trkpt lat="49.99705" lon="2.37285">
        <ele>113.4</ele>
        <time>2022-11-16T14:22:46Z</time>
      </trkpt>
      <trkpt lat="49.99706" lon="2.37284">
        <ele>113.4</ele>
        <time>2022-11-16T14:22:47Z</time>
      </trkpt>
      <trkpt lat="49.99708" lon="2.37282">
        <ele>113.4</ele>
        <time>2022-11-16T14:22:48Z</time>
      </trkpt>
      <trkpt lat="49.99708" lon="2.37281">
        <ele>113.4</ele>
        <time>2022-11-16T14:22:49Z</time>
      </trkpt>
      <trkpt lat="49.99709" lon="2.3728">
        <ele>113.4</ele>
        <time>2022-11-16T14:22:50Z</time>
      </trkpt>
      <trkpt lat="49.9971" lon="2.37278">
        <ele>113.5</ele>
        <time>2022-11-16T14:22:51Z</time>
      </trkpt>
      <trkpt lat="49.99711" lon="2.37277">
        <ele>113.5</ele>
        <time>2022-11-16T14:22:53Z</time>
      </trkpt>
      <trkpt lat="49.99712" lon="2.37276">
        <ele>113.5</ele>
        <time>2022-11-16T14:22:54Z</time>
      </trkpt>
      <trkpt lat="49.99713" lon="2.37274">
        <ele>113.5</ele>
        <time>2022-11-16T14:22:55Z</time>
      </trkpt>
      <trkpt lat="49.99714" lon="2.37273">
        <ele>113.5</ele>
        <time>2022-11-16T14:22:56Z</time>
      </trkpt>
      <trkpt lat="49.99715" lon="2.3727">
        <ele>113.6</ele>
        <time>2022-11-16T14:22:57Z</time>
      </trkpt>
      <trkpt lat="49.99716" lon="2.37269">
        <ele>113.6</ele>
        <time>2022-11-16T14:22:58Z</time>
      </trkpt>
      <trkpt lat="49.99717" lon="2.37268">
        <ele>113.6</ele>
        <time>2022-11-16T14:22:59Z</time>
      </trkpt>
      <trkpt lat="49.99718" lon="2.37267">
        <ele>113.6</ele>
        <time>2022-11-16T14:23:00Z</time>
      </trkpt>
      <trkpt lat="49.99719" lon="2.37265">
        <ele>113.6</ele>
        <time>2022-11-16T14:23:02Z</time>
      </trkpt>
      <trkpt lat="49.9972" lon="2.37264">
        <ele>113.7</ele>
        <time>2022-11-16T14:23:03Z</time>
      </trkpt>
      <trkpt lat="49.99721" lon="2.37263">
        <ele>113.7</ele>
        <time>2022-11-16T14:23:04Z</time>
      </trkpt>
      <trkpt lat="49.99722" lon="2.3726">
        <ele>113.7</ele>
        <time>2022-11-16T14:23:05Z</time>
      </trkpt>
      <trkpt lat="49.99723" lon="2.37259">
        <ele>113.7</ele>
        <time>2022-11-16T14:23:06Z</time>
      </trkpt>
      <trkpt lat="49.99724" lon="2.37258">
        <ele>113.7</ele>
        <time>2022-11-16T14:23:07Z</time>
      </trkpt>
      <trkpt lat="49.99724" lon="2.37258">
        <ele>113.7</ele>
        <time>2022-11-16T14:23:08Z</time>
      </trkpt>
      <trkpt lat="49.99725" lon="2.37256">
        <ele>113.7</ele>
        <time>2022-11-16T14:23:09Z</time>
      </trkpt>
      <trkpt lat="49.99726" lon="2.37255">
        <ele>113.8</ele>
        <time>2022-11-16T14:23:10Z</time>
      </trkpt>
      <trkpt lat="49.99727" lon="2.37254">
        <ele>113.8</ele>
        <time>2022-11-16T14:23:12Z</time>
      </trkpt>
      <trkpt lat="49.99728" lon="2.37253">
        <ele>113.8</ele>
        <time>2022-11-16T14:23:13Z</time>
      </trkpt>
      <trkpt lat="49.99729" lon="2.37252">
        <ele>113.8</ele>
        <time>2022-11-16T14:23:14Z</time>
      </trkpt>
      <trkpt lat="49.99729" lon="2.37251">
        <ele>113.8</ele>
        <time>2022-11-16T14:23:15Z</time>
      </trkpt>
      <trkpt lat="49.9973" lon="2.3725">
        <ele>113.8</ele>
        <time>2022-11-16T14:23:16Z</time>
      </trkpt>
      <trkpt lat="49.99731" lon="2.37248">
        <ele>113.9</ele>
        <time>2022-11-16T14:23:17Z</time>
      </trkpt>
      <trkpt lat="49.99732" lon="2.37247">
        <ele>113.9</ele>
        <time>2022-11-16T14:23:18Z</time>
      </trkpt>
      <trkpt lat="49.99733" lon="2.37246">
        <ele>113.9</ele>
        <time>2022-11-16T14:23:20Z</time>
      </trkpt>
      <trkpt lat="49.99734" lon="2.37245">
        <ele>113.9</ele>
        <time>2022-11-16T14:23:21Z</time>
      </trkpt>
      <trkpt lat="49.99735" lon="2.37244">
        <ele>113.9</ele>
        <time>2022-11-16T14:23:22Z</time>
      </trkpt>
      <trkpt lat="49.99736" lon="2.37243">
        <ele>113.9</ele>
        <time>2022-11-16T14:23:23Z</time>
      </trkpt>
      <trkpt lat="49.99736" lon="2.37242">
        <ele>114</ele>
        <time>2022-11-16T14:23:24Z</time>
      </trkpt>
      <trkpt lat="49.99737" lon="2.37241">
        <ele>114</ele>
        <time>2022-11-16T14:23:25Z</time>
      </trkpt>
      <trkpt lat="49.99738" lon="2.3724">
        <ele>114</ele>
        <time>2022-11-16T14:23:26Z</time>
      </trkpt>
      <trkpt lat="49.99739" lon="2.37239">
        <ele>114</ele>
        <time>2022-11-16T14:23:27Z</time>
      </trkpt>
      <trkpt lat="49.9974" lon="2.37238">
        <ele>114</ele>
        <time>2022-11-16T14:23:28Z</time>
      </trkpt>
      <trkpt lat="49.99741" lon="2.37237">
        <ele>114</ele>
        <time>2022-11-16T14:23:30Z</time>
      </trkpt>
      <trkpt lat="49.99742" lon="2.37236">
        <ele>114</ele>
        <time>2022-11-16T14:23:31Z</time>
      </trkpt>
      <trkpt lat="49.99744" lon="2.37234">
        <ele>114.1</ele>
        <time>2022-11-16T14:23:32Z</time>
      </trkpt>
      <trkpt lat="49.99745" lon="2.37233">
        <ele>114.1</ele>
        <time>2022-11-16T14:23:33Z</time>
      </trkpt>
      <trkpt lat="49.99745" lon="2.37232">
        <ele>114.1</ele>
        <time>2022-11-16T14:23:34Z</time>
      </trkpt>
      <trkpt lat="49.99746" lon="2.37231">
        <ele>114.1</ele>
        <time>2022-11-16T14:23:35Z</time>
      </trkpt>
      <trkpt lat="49.99747" lon="2.3723">
        <ele>114.1</ele>
        <time>2022-11-16T14:23:36Z</time>
      </trkpt>
      <trkpt lat="49.99748" lon="2.37228">
        <ele>114.2</ele>
        <time>2022-11-16T14:23:38Z</time>
      </trkpt>
      <trkpt lat="49.9975" lon="2.37226">
        <ele>114.2</ele>
        <time>2022-11-16T14:23:39Z</time>
      </trkpt>
      <trkpt lat="49.9975" lon="2.37226">
        <ele>114.2</ele>
        <time>2022-11-16T14:23:40Z</time>
      </trkpt>
      <trkpt lat="49.99751" lon="2.37225">
        <ele>114.2</ele>
        <time>2022-11-16T14:23:41Z</time>
      </trkpt>
      <trkpt lat="49.99752" lon="2.37224">
        <ele>114.2</ele>
        <time>2022-11-16T14:23:42Z</time>
      </trkpt>
      <trkpt lat="49.99753" lon="2.37222">
        <ele>114.2</ele>
        <time>2022-11-16T14:23:43Z</time>
      </trkpt>
      <trkpt lat="49.99753" lon="2.37221">
        <ele>114.2</ele>
        <time>2022-11-16T14:23:44Z</time>
      </trkpt>
      <trkpt lat="49.99755" lon="2.37219">
        <ele>114.3</ele>
        <time>2022-11-16T14:23:46Z</time>
      </trkpt>
      <trkpt lat="49.99756" lon="2.37219">
        <ele>114.3</ele>
        <time>2022-11-16T14:23:47Z</time>
      </trkpt>
      <trkpt lat="49.99757" lon="2.37218">
        <ele>114.3</ele>
        <time>2022-11-16T14:23:48Z</time>
      </trkpt>
      <trkpt lat="49.99758" lon="2.37217">
        <ele>114.3</ele>
        <time>2022-11-16T14:23:49Z</time>
      </trkpt>
      <trkpt lat="49.99759" lon="2.37215">
        <ele>114.3</ele>
        <time>2022-11-16T14:23:50Z</time>
      </trkpt>
      <trkpt lat="49.9976" lon="2.37214">
        <ele>114.4</ele>
        <time>2022-11-16T14:23:51Z</time>
      </trkpt>
      <trkpt lat="49.9976" lon="2.37213">
        <ele>114.4</ele>
        <time>2022-11-16T14:23:53Z</time>
      </trkpt>
      <trkpt lat="49.99761" lon="2.37212">
        <ele>114.4</ele>
        <time>2022-11-16T14:23:54Z</time>
      </trkpt>
      <trkpt lat="49.99762" lon="2.37211">
        <ele>114.4</ele>
        <time>2022-11-16T14:23:55Z</time>
      </trkpt>
      <trkpt lat="49.99764" lon="2.37209">
        <ele>114.4</ele>
        <time>2022-11-16T14:23:56Z</time>
      </trkpt>
      <trkpt lat="49.99765" lon="2.37208">
        <ele>114.4</ele>
        <time>2022-11-16T14:23:57Z</time>
      </trkpt>
      <trkpt lat="49.99765" lon="2.37207">
        <ele>114.5</ele>
        <time>2022-11-16T14:23:58Z</time>
      </trkpt>
      <trkpt lat="49.99767" lon="2.37205">
        <ele>114.5</ele>
        <time>2022-11-16T14:24:00Z</time>
      </trkpt>
      <trkpt lat="49.99767" lon="2.37205">
        <ele>114.5</ele>
        <time>2022-11-16T14:24:01Z</time>
      </trkpt>
      <trkpt lat="49.99768" lon="2.37204">
        <ele>114.5</ele>
        <time>2022-11-16T14:24:02Z</time>
      </trkpt>
      <trkpt lat="49.9977" lon="2.37202">
        <ele>114.5</ele>
        <time>2022-11-16T14:24:03Z</time>
      </trkpt>
      <trkpt lat="49.9977" lon="2.37201">
        <ele>114.5</ele>
        <time>2022-11-16T14:24:04Z</time>
      </trkpt>
      <trkpt lat="49.99771" lon="2.372">
        <ele>114.6</ele>
        <time>2022-11-16T14:24:06Z</time>
      </trkpt>
      <trkpt lat="49.99772" lon="2.37199">
        <ele>114.6</ele>
        <time>2022-11-16T14:24:07Z</time>
      </trkpt>
      <trkpt lat="49.99773" lon="2.37198">
        <ele>114.6</ele>
        <time>2022-11-16T14:24:08Z</time>
      </trkpt>
      <trkpt lat="49.99773" lon="2.37197">
        <ele>114.6</ele>
        <time>2022-11-16T14:24:09Z</time>
      </trkpt>
      <trkpt lat="49.99774" lon="2.37195">
        <ele>114.6</ele>
        <time>2022-11-16T14:24:10Z</time>
      </trkpt>
      <trkpt lat="49.99775" lon="2.37194">
        <ele>114.6</ele>
        <time>2022-11-16T14:24:11Z</time>
      </trkpt>
      <trkpt lat="49.99775" lon="2.37193">
        <ele>114.6</ele>
        <time>2022-11-16T14:24:13Z</time>
      </trkpt>
      <trkpt lat="49.99776" lon="2.37193">
        <ele>114.6</ele>
        <time>2022-11-16T14:24:14Z</time>
      </trkpt>
      <trkpt lat="49.99776" lon="2.37192">
        <ele>114.7</ele>
        <time>2022-11-16T14:24:15Z</time>
      </trkpt>
      <trkpt lat="49.99777" lon="2.37191">
        <ele>114.7</ele>
        <time>2022-11-16T14:24:16Z</time>
      </trkpt>
      <trkpt lat="49.99778" lon="2.3719">
        <ele>114.7</ele>
        <time>2022-11-16T14:24:17Z</time>
      </trkpt>
      <trkpt lat="49.99778" lon="2.3719">
        <ele>114.7</ele>
        <time>2022-11-16T14:24:18Z</time>
      </trkpt>
      <trkpt lat="49.99779" lon="2.37189">
        <ele>114.7</ele>
        <time>2022-11-16T14:24:19Z</time>
      </trkpt>
      <trkpt lat="49.99779" lon="2.37188">
        <ele>114.7</ele>
        <time>2022-11-16T14:24:20Z</time>
      </trkpt>
      <trkpt lat="49.9978" lon="2.37188">
        <ele>114.7</ele>
        <time>2022-11-16T14:24:21Z</time>
      </trkpt>
      <trkpt lat="49.99781" lon="2.37187">
        <ele>114.7</ele>
        <time>2022-11-16T14:24:22Z</time>
      </trkpt>
      <trkpt lat="49.99783" lon="2.37185">
        <ele>114.8</ele>
        <time>2022-11-16T14:24:23Z</time>
      </trkpt>
      <trkpt lat="49.99783" lon="2.37184">
        <ele>114.8</ele>
        <time>2022-11-16T14:24:24Z</time>
      </trkpt>
      <trkpt lat="49.99784" lon="2.37183">
        <ele>114.8</ele>
        <time>2022-11-16T14:24:26Z</time>
      </trkpt>
      <trkpt lat="49.99785" lon="2.37182">
        <ele>114.8</ele>
        <time>2022-11-16T14:24:27Z</time>
      </trkpt>
      <trkpt lat="49.99787" lon="2.37179">
        <ele>114.8</ele>
        <time>2022-11-16T14:24:28Z</time>
      </trkpt>
      <trkpt lat="49.99787" lon="2.37179">
        <ele>114.8</ele>
        <time>2022-11-16T14:24:29Z</time>
      </trkpt>
      <trkpt lat="49.99788" lon="2.37178">
        <ele>114.9</ele>
        <time>2022-11-16T14:24:30Z</time>
      </trkpt>
      <trkpt lat="49.99789" lon="2.37177">
        <ele>114.9</ele>
        <time>2022-11-16T14:24:32Z</time>
      </trkpt>
      <trkpt lat="49.9979" lon="2.37175">
        <ele>114.9</ele>
        <time>2022-11-16T14:24:33Z</time>
      </trkpt>
      <trkpt lat="49.9979" lon="2.37174">
        <ele>114.9</ele>
        <time>2022-11-16T14:24:34Z</time>
      </trkpt>
      <trkpt lat="49.99791" lon="2.37173">
        <ele>114.9</ele>
        <time>2022-11-16T14:24:35Z</time>
      </trkpt>
      <trkpt lat="49.99792" lon="2.37171">
        <ele>114.9</ele>
        <time>2022-11-16T14:24:36Z</time>
      </trkpt>
      <trkpt lat="49.99792" lon="2.3717">
        <ele>115</ele>
        <time>2022-11-16T14:24:37Z</time>
      </trkpt>
      <trkpt lat="49.99793" lon="2.37169">
        <ele>115</ele>
        <time>2022-11-16T14:24:39Z</time>
      </trkpt>
      <trkpt lat="49.99794" lon="2.37168">
        <ele>115</ele>
        <time>2022-11-16T14:24:40Z</time>
      </trkpt>
      <trkpt lat="49.99795" lon="2.37167">
        <ele>115</ele>
        <time>2022-11-16T14:24:42Z</time>
      </trkpt>
      <trkpt lat="49.99796" lon="2.37167">
        <ele>115</ele>
        <time>2022-11-16T14:24:43Z</time>
      </trkpt>
      <trkpt lat="49.99797" lon="2.37166">
        <ele>115</ele>
        <time>2022-11-16T14:24:44Z</time>
      </trkpt>
      <trkpt lat="49.99797" lon="2.37167">
        <ele>115</ele>
        <time>2022-11-16T14:24:45Z</time>
      </trkpt>
      <trkpt lat="49.99798" lon="2.37167">
        <ele>115</ele>
        <time>2022-11-16T14:24:46Z</time>
      </trkpt>
      <trkpt lat="49.99798" lon="2.37167">
        <ele>115</ele>
        <time>2022-11-16T14:24:47Z</time>
      </trkpt>
      <trkpt lat="49.99798" lon="2.37167">
        <ele>115</ele>
        <time>2022-11-16T14:24:48Z</time>
      </trkpt>
      <trkpt lat="49.99798" lon="2.37167">
        <ele>115</ele>
        <time>2022-11-16T14:24:49Z</time>
      </trkpt>
      <trkpt lat="49.99798" lon="2.37168">
        <ele>115</ele>
        <time>2022-11-16T14:24:50Z</time>
      </trkpt>
      <trkpt lat="49.99798" lon="2.37168">
        <ele>115</ele>
        <time>2022-11-16T14:24:51Z</time>
      </trkpt>
      <trkpt lat="49.99798" lon="2.37168">
        <ele>115</ele>
        <time>2022-11-16T14:24:52Z</time>
      </trkpt>
      <trkpt lat="49.99798" lon="2.37168">
        <ele>115</ele>
        <time>2022-11-16T14:24:53Z</time>
      </trkpt>
      <trkpt lat="49.99798" lon="2.37168">
        <ele>115</ele>
        <time>2022-11-16T14:24:54Z</time>
      </trkpt>
      <trkpt lat="49.99797" lon="2.37168">
        <ele>115</ele>
        <time>2022-11-16T14:24:55Z</time>
      </trkpt>
      <trkpt lat="49.99797" lon="2.37167">
        <ele>115.1</ele>
        <time>2022-11-16T14:24:56Z</time>
      </trkpt>
      <trkpt lat="49.99797" lon="2.37167">
        <ele>115.1</ele>
        <time>2022-11-16T14:24:57Z</time>
      </trkpt>
      <trkpt lat="49.99797" lon="2.37168">
        <ele>115.1</ele>
        <time>2022-11-16T14:24:58Z</time>
      </trkpt>
      <trkpt lat="49.99796" lon="2.37168">
        <ele>115.1</ele>
        <time>2022-11-16T14:24:59Z</time>
      </trkpt>
      <trkpt lat="49.99796" lon="2.37168">
        <ele>115.1</ele>
        <time>2022-11-16T14:25:00Z</time>
      </trkpt>
      <trkpt lat="49.99796" lon="2.37168">
        <ele>115.1</ele>
        <time>2022-11-16T14:25:01Z</time>
      </trkpt>
      <trkpt lat="49.99795" lon="2.37168">
        <ele>115.1</ele>
        <time>2022-11-16T14:25:02Z</time>
      </trkpt>
      <trkpt lat="49.99795" lon="2.37168">
        <ele>115.1</ele>
        <time>2022-11-16T14:25:03Z</time>
      </trkpt>
      <trkpt lat="49.99795" lon="2.37168">
        <ele>115.1</ele>
        <time>2022-11-16T14:25:04Z</time>
      </trkpt>
      <trkpt lat="49.99795" lon="2.37167">
        <ele>115.1</ele>
        <time>2022-11-16T14:25:06Z</time>
      </trkpt>
      <trkpt lat="49.99796" lon="2.37166">
        <ele>115.1</ele>
        <time>2022-11-16T14:25:07Z</time>
      </trkpt>
      <trkpt lat="49.99796" lon="2.37165">
        <ele>115.1</ele>
        <time>2022-11-16T14:25:08Z</time>
      </trkpt>
      <trkpt lat="49.99796" lon="2.37164">
        <ele>115.1</ele>
        <time>2022-11-16T14:25:09Z</time>
      </trkpt>
      <trkpt lat="49.99796" lon="2.37162">
        <ele>115.1</ele>
        <time>2022-11-16T14:25:10Z</time>
      </trkpt>
      <trkpt lat="49.99797" lon="2.37161">
        <ele>115.2</ele>
        <time>2022-11-16T14:25:12Z</time>
      </trkpt>
      <trkpt lat="49.99797" lon="2.3716">
        <ele>115.2</ele>
        <time>2022-11-16T14:25:13Z</time>
      </trkpt>
      <trkpt lat="49.99797" lon="2.37159">
        <ele>115.2</ele>
        <time>2022-11-16T14:25:14Z</time>
      </trkpt>
      <trkpt lat="49.99798" lon="2.37158">
        <ele>115.2</ele>
        <time>2022-11-16T14:25:16Z</time>
      </trkpt>
      <trkpt lat="49.99799" lon="2.37156">
        <ele>115.2</ele>
        <time>2022-11-16T14:25:17Z</time>
      </trkpt>
      <trkpt lat="49.99799" lon="2.37155">
        <ele>115.2</ele>
        <time>2022-11-16T14:25:18Z</time>
      </trkpt>
      <trkpt lat="49.998" lon="2.37153">
        <ele>115.3</ele>
        <time>2022-11-16T14:25:19Z</time>
      </trkpt>
      <trkpt lat="49.99801" lon="2.37152">
        <ele>115.3</ele>
        <time>2022-11-16T14:25:21Z</time>
      </trkpt>
      <trkpt lat="49.99801" lon="2.37152">
        <ele>115.3</ele>
        <time>2022-11-16T14:25:22Z</time>
      </trkpt>
      <trkpt lat="49.99802" lon="2.37151">
        <ele>115.3</ele>
        <time>2022-11-16T14:25:23Z</time>
      </trkpt>
      <trkpt lat="49.99803" lon="2.3715">
        <ele>115.3</ele>
        <time>2022-11-16T14:25:24Z</time>
      </trkpt>
      <trkpt lat="49.99804" lon="2.37149">
        <ele>115.3</ele>
        <time>2022-11-16T14:25:25Z</time>
      </trkpt>
      <trkpt lat="49.99805" lon="2.37148">
        <ele>115.4</ele>
        <time>2022-11-16T14:25:26Z</time>
      </trkpt>
      <trkpt lat="49.99806" lon="2.37146">
        <ele>115.4</ele>
        <time>2022-11-16T14:25:27Z</time>
      </trkpt>
      <trkpt lat="49.99807" lon="2.37145">
        <ele>115.4</ele>
        <time>2022-11-16T14:25:29Z</time>
      </trkpt>
      <trkpt lat="49.99808" lon="2.37144">
        <ele>115.4</ele>
        <time>2022-11-16T14:25:30Z</time>
      </trkpt>
      <trkpt lat="49.99809" lon="2.37142">
        <ele>115.5</ele>
        <time>2022-11-16T14:25:31Z</time>
      </trkpt>
      <trkpt lat="49.9981" lon="2.37141">
        <ele>115.5</ele>
        <time>2022-11-16T14:25:32Z</time>
      </trkpt>
      <trkpt lat="49.99811" lon="2.3714">
        <ele>115.5</ele>
        <time>2022-11-16T14:25:33Z</time>
      </trkpt>
      <trkpt lat="49.99812" lon="2.37139">
        <ele>115.5</ele>
        <time>2022-11-16T14:25:35Z</time>
      </trkpt>
      <trkpt lat="49.99813" lon="2.37138">
        <ele>115.6</ele>
        <time>2022-11-16T14:25:36Z</time>
      </trkpt>
      <trkpt lat="49.99814" lon="2.37136">
        <ele>115.6</ele>
        <time>2022-11-16T14:25:37Z</time>
      </trkpt>
      <trkpt lat="49.99815" lon="2.37135">
        <ele>115.6</ele>
        <time>2022-11-16T14:25:38Z</time>
      </trkpt>
      <trkpt lat="49.99816" lon="2.37134">
        <ele>115.6</ele>
        <time>2022-11-16T14:25:39Z</time>
      </trkpt>
      <trkpt lat="49.99817" lon="2.37133">
        <ele>115.7</ele>
        <time>2022-11-16T14:25:41Z</time>
      </trkpt>
      <trkpt lat="49.99818" lon="2.37132">
        <ele>115.7</ele>
        <time>2022-11-16T14:25:42Z</time>
      </trkpt>
      <trkpt lat="49.99819" lon="2.37132">
        <ele>115.7</ele>
        <time>2022-11-16T14:25:43Z</time>
      </trkpt>
      <trkpt lat="49.99819" lon="2.37131">
        <ele>115.7</ele>
        <time>2022-11-16T14:25:44Z</time>
      </trkpt>
      <trkpt lat="49.9982" lon="2.3713">
        <ele>115.7</ele>
        <time>2022-11-16T14:25:45Z</time>
      </trkpt>
      <trkpt lat="49.99822" lon="2.37129">
        <ele>115.8</ele>
        <time>2022-11-16T14:25:46Z</time>
      </trkpt>
      <trkpt lat="49.99823" lon="2.37127">
        <ele>115.8</ele>
        <time>2022-11-16T14:25:47Z</time>
      </trkpt>
      <trkpt lat="49.99823" lon="2.37126">
        <ele>115.8</ele>
        <time>2022-11-16T14:25:49Z</time>
      </trkpt>
      <trkpt lat="49.99824" lon="2.37125">
        <ele>115.8</ele>
        <time>2022-11-16T14:25:50Z</time>
      </trkpt>
      <trkpt lat="49.99825" lon="2.37124">
        <ele>115.8</ele>
        <time>2022-11-16T14:25:51Z</time>
      </trkpt>
      <trkpt lat="49.99826" lon="2.37122">
        <ele>115.9</ele>
        <time>2022-11-16T14:25:52Z</time>
      </trkpt>
      <trkpt lat="49.99827" lon="2.37121">
        <ele>115.9</ele>
        <time>2022-11-16T14:25:53Z</time>
      </trkpt>
      <trkpt lat="49.99827" lon="2.3712">
        <ele>115.9</ele>
        <time>2022-11-16T14:25:54Z</time>
      </trkpt>
      <trkpt lat="49.99829" lon="2.37117">
        <ele>115.9</ele>
        <time>2022-11-16T14:25:56Z</time>
      </trkpt>
      <trkpt lat="49.99829" lon="2.37116">
        <ele>116</ele>
        <time>2022-11-16T14:25:57Z</time>
      </trkpt>
      <trkpt lat="49.9983" lon="2.37115">
        <ele>116</ele>
        <time>2022-11-16T14:25:58Z</time>
      </trkpt>
      <trkpt lat="49.99831" lon="2.37114">
        <ele>116</ele>
        <time>2022-11-16T14:25:59Z</time>
      </trkpt>
      <trkpt lat="49.99831" lon="2.37112">
        <ele>116</ele>
        <time>2022-11-16T14:26:00Z</time>
      </trkpt>
      <trkpt lat="49.99832" lon="2.37111">
        <ele>116</ele>
        <time>2022-11-16T14:26:02Z</time>
      </trkpt>
      <trkpt lat="49.99833" lon="2.37108">
        <ele>116.1</ele>
        <time>2022-11-16T14:26:03Z</time>
      </trkpt>
      <trkpt lat="49.99833" lon="2.37107">
        <ele>116.1</ele>
        <time>2022-11-16T14:26:04Z</time>
      </trkpt>
      <trkpt lat="49.99834" lon="2.37106">
        <ele>116.1</ele>
        <time>2022-11-16T14:26:05Z</time>
      </trkpt>
      <trkpt lat="49.99835" lon="2.37104">
        <ele>116.1</ele>
        <time>2022-11-16T14:26:06Z</time>
      </trkpt>
      <trkpt lat="49.99835" lon="2.37102">
        <ele>116.2</ele>
        <time>2022-11-16T14:26:07Z</time>
      </trkpt>
      <trkpt lat="49.99836" lon="2.37101">
        <ele>116.2</ele>
        <time>2022-11-16T14:26:09Z</time>
      </trkpt>
      <trkpt lat="49.99836" lon="2.37099">
        <ele>116.2</ele>
        <time>2022-11-16T14:26:10Z</time>
      </trkpt>
      <trkpt lat="49.99837" lon="2.37098">
        <ele>116.2</ele>
        <time>2022-11-16T14:26:11Z</time>
      </trkpt>
      <trkpt lat="49.99838" lon="2.37096">
        <ele>116.3</ele>
        <time>2022-11-16T14:26:12Z</time>
      </trkpt>
      <trkpt lat="49.99839" lon="2.37094">
        <ele>116.3</ele>
        <time>2022-11-16T14:26:13Z</time>
      </trkpt>
      <trkpt lat="49.9984" lon="2.37093">
        <ele>116.3</ele>
        <time>2022-11-16T14:26:14Z</time>
      </trkpt>
      <trkpt lat="49.99841" lon="2.37092">
        <ele>116.3</ele>
        <time>2022-11-16T14:26:16Z</time>
      </trkpt>
      <trkpt lat="49.99842" lon="2.37091">
        <ele>116.3</ele>
        <time>2022-11-16T14:26:17Z</time>
      </trkpt>
      <trkpt lat="49.99842" lon="2.3709">
        <ele>116.4</ele>
        <time>2022-11-16T14:26:18Z</time>
      </trkpt>
      <trkpt lat="49.99843" lon="2.37089">
        <ele>116.4</ele>
        <time>2022-11-16T14:26:19Z</time>
      </trkpt>
      <trkpt lat="49.99845" lon="2.37087">
        <ele>116.4</ele>
        <time>2022-11-16T14:26:21Z</time>
      </trkpt>
      <trkpt lat="49.99845" lon="2.37086">
        <ele>116.4</ele>
        <time>2022-11-16T14:26:22Z</time>
      </trkpt>
      <trkpt lat="49.99846" lon="2.37086">
        <ele>116.4</ele>
        <time>2022-11-16T14:26:23Z</time>
      </trkpt>
      <trkpt lat="49.99846" lon="2.37085">
        <ele>116.5</ele>
        <time>2022-11-16T14:26:24Z</time>
      </trkpt>
      <trkpt lat="49.99847" lon="2.37084">
        <ele>116.5</ele>
        <time>2022-11-16T14:26:26Z</time>
      </trkpt>
      <trkpt lat="49.99848" lon="2.37083">
        <ele>116.5</ele>
        <time>2022-11-16T14:26:27Z</time>
      </trkpt>
      <trkpt lat="49.99848" lon="2.37082">
        <ele>116.5</ele>
        <time>2022-11-16T14:26:28Z</time>
      </trkpt>
      <trkpt lat="49.9985" lon="2.37081">
        <ele>116.5</ele>
        <time>2022-11-16T14:26:29Z</time>
      </trkpt>
      <trkpt lat="49.9985" lon="2.37081">
        <ele>116.6</ele>
        <time>2022-11-16T14:26:30Z</time>
      </trkpt>
      <trkpt lat="49.99851" lon="2.3708">
        <ele>116.6</ele>
        <time>2022-11-16T14:26:32Z</time>
      </trkpt>
      <trkpt lat="49.99852" lon="2.37079">
        <ele>116.6</ele>
        <time>2022-11-16T14:26:33Z</time>
      </trkpt>
      <trkpt lat="49.99853" lon="2.37078">
        <ele>116.6</ele>
        <time>2022-11-16T14:26:34Z</time>
      </trkpt>
      <trkpt lat="49.99854" lon="2.37077">
        <ele>116.6</ele>
        <time>2022-11-16T14:26:35Z</time>
      </trkpt>
      <trkpt lat="49.99855" lon="2.37076">
        <ele>116.7</ele>
        <time>2022-11-16T14:26:36Z</time>
      </trkpt>
      <trkpt lat="49.99856" lon="2.37074">
        <ele>116.7</ele>
        <time>2022-11-16T14:26:38Z</time>
      </trkpt>
      <trkpt lat="49.99857" lon="2.37073">
        <ele>116.7</ele>
        <time>2022-11-16T14:26:39Z</time>
      </trkpt>
      <trkpt lat="49.99858" lon="2.37072">
        <ele>116.7</ele>
        <time>2022-11-16T14:26:40Z</time>
      </trkpt>
      <trkpt lat="49.99859" lon="2.37071">
        <ele>116.8</ele>
        <time>2022-11-16T14:26:41Z</time>
      </trkpt>
      <trkpt lat="49.9986" lon="2.3707">
        <ele>116.8</ele>
        <time>2022-11-16T14:26:43Z</time>
      </trkpt>
      <trkpt lat="49.9986" lon="2.3707">
        <ele>116.8</ele>
        <time>2022-11-16T14:26:44Z</time>
      </trkpt>
      <trkpt lat="49.99861" lon="2.37069">
        <ele>116.8</ele>
        <time>2022-11-16T14:26:45Z</time>
      </trkpt>
      <trkpt lat="49.99862" lon="2.37069">
        <ele>116.8</ele>
        <time>2022-11-16T14:26:46Z</time>
      </trkpt>
      <trkpt lat="49.99863" lon="2.37068">
        <ele>116.8</ele>
        <time>2022-11-16T14:26:47Z</time>
      </trkpt>
      <trkpt lat="49.99864" lon="2.37067">
        <ele>116.9</ele>
        <time>2022-11-16T14:26:48Z</time>
      </trkpt>
      <trkpt lat="49.99864" lon="2.37066">
        <ele>116.9</ele>
        <time>2022-11-16T14:26:49Z</time>
      </trkpt>
      <trkpt lat="49.99865" lon="2.37065">
        <ele>116.9</ele>
        <time>2022-11-16T14:26:50Z</time>
      </trkpt>
      <trkpt lat="49.99866" lon="2.37064">
        <ele>116.9</ele>
        <time>2022-11-16T14:26:51Z</time>
      </trkpt>
      <trkpt lat="49.99867" lon="2.37063">
        <ele>116.9</ele>
        <time>2022-11-16T14:26:53Z</time>
      </trkpt>
      <trkpt lat="49.99868" lon="2.37062">
        <ele>117</ele>
        <time>2022-11-16T14:26:54Z</time>
      </trkpt>
      <trkpt lat="49.99869" lon="2.3706">
        <ele>117</ele>
        <time>2022-11-16T14:26:55Z</time>
      </trkpt>
      <trkpt lat="49.9987" lon="2.37059">
        <ele>117</ele>
        <time>2022-11-16T14:26:56Z</time>
      </trkpt>
      <trkpt lat="49.99871" lon="2.37058">
        <ele>117</ele>
        <time>2022-11-16T14:26:57Z</time>
      </trkpt>
      <trkpt lat="49.99872" lon="2.37056">
        <ele>117.1</ele>
        <time>2022-11-16T14:26:59Z</time>
      </trkpt>
      <trkpt lat="49.99873" lon="2.37055">
        <ele>117.1</ele>
        <time>2022-11-16T14:27:00Z</time>
      </trkpt>
      <trkpt lat="49.99873" lon="2.37054">
        <ele>117.1</ele>
        <time>2022-11-16T14:27:01Z</time>
      </trkpt>
      <trkpt lat="49.99874" lon="2.37053">
        <ele>117.1</ele>
        <time>2022-11-16T14:27:02Z</time>
      </trkpt>
      <trkpt lat="49.99875" lon="2.37052">
        <ele>117.1</ele>
        <time>2022-11-16T14:27:03Z</time>
      </trkpt>
      <trkpt lat="49.99876" lon="2.3705">
        <ele>117.2</ele>
        <time>2022-11-16T14:27:04Z</time>
      </trkpt>
      <trkpt lat="49.99877" lon="2.37049">
        <ele>117.2</ele>
        <time>2022-11-16T14:27:05Z</time>
      </trkpt>
      <trkpt lat="49.99878" lon="2.37048">
        <ele>117.2</ele>
        <time>2022-11-16T14:27:06Z</time>
      </trkpt>
      <trkpt lat="49.99879" lon="2.37047">
        <ele>117.2</ele>
        <time>2022-11-16T14:27:07Z</time>
      </trkpt>
      <trkpt lat="49.9988" lon="2.37045">
        <ele>117.3</ele>
        <time>2022-11-16T14:27:08Z</time>
      </trkpt>
      <trkpt lat="49.9988" lon="2.37044">
        <ele>117.3</ele>
        <time>2022-11-16T14:27:09Z</time>
      </trkpt>
      <trkpt lat="49.99881" lon="2.37042">
        <ele>117.3</ele>
        <time>2022-11-16T14:27:11Z</time>
      </trkpt>
      <trkpt lat="49.99882" lon="2.37041">
        <ele>117.3</ele>
        <time>2022-11-16T14:27:12Z</time>
      </trkpt>
      <trkpt lat="49.99882" lon="2.3704">
        <ele>117.3</ele>
        <time>2022-11-16T14:27:13Z</time>
      </trkpt>
      <trkpt lat="49.99883" lon="2.37039">
        <ele>117.3</ele>
        <time>2022-11-16T14:27:14Z</time>
      </trkpt>
      <trkpt lat="49.99883" lon="2.37038">
        <ele>117.4</ele>
        <time>2022-11-16T14:27:15Z</time>
      </trkpt>
      <trkpt lat="49.99885" lon="2.37036">
        <ele>117.4</ele>
        <time>2022-11-16T14:27:16Z</time>
      </trkpt>
      <trkpt lat="49.99885" lon="2.37035">
        <ele>117.4</ele>
        <time>2022-11-16T14:27:17Z</time>
      </trkpt>
      <trkpt lat="49.99886" lon="2.37034">
        <ele>117.4</ele>
        <time>2022-11-16T14:27:18Z</time>
      </trkpt>
      <trkpt lat="49.99887" lon="2.37031">
        <ele>117.5</ele>
        <time>2022-11-16T14:27:19Z</time>
      </trkpt>
      <trkpt lat="49.99888" lon="2.3703">
        <ele>117.5</ele>
        <time>2022-11-16T14:27:20Z</time>
      </trkpt>
      <trkpt lat="49.99888" lon="2.37029">
        <ele>117.5</ele>
        <time>2022-11-16T14:27:21Z</time>
      </trkpt>
      <trkpt lat="49.99889" lon="2.37026">
        <ele>117.5</ele>
        <time>2022-11-16T14:27:22Z</time>
      </trkpt>
      <trkpt lat="49.9989" lon="2.37025">
        <ele>117.6</ele>
        <time>2022-11-16T14:27:24Z</time>
      </trkpt>
      <trkpt lat="49.9989" lon="2.37024">
        <ele>117.6</ele>
        <time>2022-11-16T14:27:25Z</time>
      </trkpt>
      <trkpt lat="49.99891" lon="2.37023">
        <ele>117.6</ele>
        <time>2022-11-16T14:27:26Z</time>
      </trkpt>
      <trkpt lat="49.99892" lon="2.37021">
        <ele>117.6</ele>
        <time>2022-11-16T14:27:27Z</time>
      </trkpt>
      <trkpt lat="49.99892" lon="2.3702">
        <ele>117.6</ele>
        <time>2022-11-16T14:27:28Z</time>
      </trkpt>
      <trkpt lat="49.99893" lon="2.37018">
        <ele>117.7</ele>
        <time>2022-11-16T14:27:29Z</time>
      </trkpt>
      <trkpt lat="49.99893" lon="2.37017">
        <ele>117.7</ele>
        <time>2022-11-16T14:27:30Z</time>
      </trkpt>
      <trkpt lat="49.99894" lon="2.37016">
        <ele>117.7</ele>
        <time>2022-11-16T14:27:31Z</time>
      </trkpt>
      <trkpt lat="49.99895" lon="2.37014">
        <ele>117.7</ele>
        <time>2022-11-16T14:27:32Z</time>
      </trkpt>
      <trkpt lat="49.99895" lon="2.37013">
        <ele>117.7</ele>
        <time>2022-11-16T14:27:34Z</time>
      </trkpt>
      <trkpt lat="49.99896" lon="2.37011">
        <ele>117.8</ele>
        <time>2022-11-16T14:27:35Z</time>
      </trkpt>
      <trkpt lat="49.99896" lon="2.37009">
        <ele>117.8</ele>
        <time>2022-11-16T14:27:36Z</time>
      </trkpt>
      <trkpt lat="49.99897" lon="2.37007">
        <ele>117.8</ele>
        <time>2022-11-16T14:27:37Z</time>
      </trkpt>
      <trkpt lat="49.99897" lon="2.37006">
        <ele>117.8</ele>
        <time>2022-11-16T14:27:39Z</time>
      </trkpt>
      <trkpt lat="49.99898" lon="2.37005">
        <ele>117.8</ele>
        <time>2022-11-16T14:27:40Z</time>
      </trkpt>
      <trkpt lat="49.99899" lon="2.37004">
        <ele>117.9</ele>
        <time>2022-11-16T14:27:41Z</time>
      </trkpt>
      <trkpt lat="49.99899" lon="2.37003">
        <ele>117.9</ele>
        <time>2022-11-16T14:27:42Z</time>
      </trkpt>
      <trkpt lat="49.999" lon="2.37001">
        <ele>117.9</ele>
        <time>2022-11-16T14:27:43Z</time>
      </trkpt>
      <trkpt lat="49.999" lon="2.36999">
        <ele>117.9</ele>
        <time>2022-11-16T14:27:44Z</time>
      </trkpt>
      <trkpt lat="49.99901" lon="2.36997">
        <ele>118</ele>
        <time>2022-11-16T14:27:45Z</time>
      </trkpt>
      <trkpt lat="49.99901" lon="2.36996">
        <ele>118</ele>
        <time>2022-11-16T14:27:47Z</time>
      </trkpt>
      <trkpt lat="49.99902" lon="2.36994">
        <ele>118</ele>
        <time>2022-11-16T14:27:48Z</time>
      </trkpt>
      <trkpt lat="49.99902" lon="2.36993">
        <ele>118</ele>
        <time>2022-11-16T14:27:49Z</time>
      </trkpt>
      <trkpt lat="49.99902" lon="2.36991">
        <ele>118</ele>
        <time>2022-11-16T14:27:50Z</time>
      </trkpt>
      <trkpt lat="49.99903" lon="2.36989">
        <ele>118.1</ele>
        <time>2022-11-16T14:27:51Z</time>
      </trkpt>
      <trkpt lat="49.99903" lon="2.36988">
        <ele>118.1</ele>
        <time>2022-11-16T14:27:52Z</time>
      </trkpt>
      <trkpt lat="49.99904" lon="2.36986">
        <ele>118.1</ele>
        <time>2022-11-16T14:27:53Z</time>
      </trkpt>
      <trkpt lat="49.99904" lon="2.36984">
        <ele>118.1</ele>
        <time>2022-11-16T14:27:55Z</time>
      </trkpt>
      <trkpt lat="49.99904" lon="2.36982">
        <ele>118.1</ele>
        <time>2022-11-16T14:27:56Z</time>
      </trkpt>
      <trkpt lat="49.99904" lon="2.36981">
        <ele>118.2</ele>
        <time>2022-11-16T14:27:57Z</time>
      </trkpt>
      <trkpt lat="49.99905" lon="2.36979">
        <ele>118.2</ele>
        <time>2022-11-16T14:27:58Z</time>
      </trkpt>
      <trkpt lat="49.99905" lon="2.36977">
        <ele>118.2</ele>
        <time>2022-11-16T14:27:59Z</time>
      </trkpt>
      <trkpt lat="49.99905" lon="2.36976">
        <ele>118.2</ele>
        <time>2022-11-16T14:28:00Z</time>
      </trkpt>
      <trkpt lat="49.99906" lon="2.36974">
        <ele>118.3</ele>
        <time>2022-11-16T14:28:01Z</time>
      </trkpt>
      <trkpt lat="49.99906" lon="2.36973">
        <ele>118.3</ele>
        <time>2022-11-16T14:28:03Z</time>
      </trkpt>
      <trkpt lat="49.99906" lon="2.36972">
        <ele>118.3</ele>
        <time>2022-11-16T14:28:04Z</time>
      </trkpt>
      <trkpt lat="49.99907" lon="2.3697">
        <ele>118.3</ele>
        <time>2022-11-16T14:28:05Z</time>
      </trkpt>
      <trkpt lat="49.99907" lon="2.36969">
        <ele>118.3</ele>
        <time>2022-11-16T14:28:06Z</time>
      </trkpt>
      <trkpt lat="49.99907" lon="2.36968">
        <ele>118.3</ele>
        <time>2022-11-16T14:28:07Z</time>
      </trkpt>
      <trkpt lat="49.99908" lon="2.36966">
        <ele>118.4</ele>
        <time>2022-11-16T14:28:08Z</time>
      </trkpt>
      <trkpt lat="49.99908" lon="2.36965">
        <ele>118.4</ele>
        <time>2022-11-16T14:28:09Z</time>
      </trkpt>
      <trkpt lat="49.99909" lon="2.36963">
        <ele>118.4</ele>
        <time>2022-11-16T14:28:10Z</time>
      </trkpt>
      <trkpt lat="49.99909" lon="2.36961">
        <ele>118.4</ele>
        <time>2022-11-16T14:28:11Z</time>
      </trkpt>
      <trkpt lat="49.9991" lon="2.3696">
        <ele>118.4</ele>
        <time>2022-11-16T14:28:13Z</time>
      </trkpt>
      <trkpt lat="49.9991" lon="2.36959">
        <ele>118.4</ele>
        <time>2022-11-16T14:28:14Z</time>
      </trkpt>
      <trkpt lat="49.9991" lon="2.36957">
        <ele>118.5</ele>
        <time>2022-11-16T14:28:15Z</time>
      </trkpt>
      <trkpt lat="49.99911" lon="2.36956">
        <ele>118.5</ele>
        <time>2022-11-16T14:28:16Z</time>
      </trkpt>
      <trkpt lat="49.99911" lon="2.36953">
        <ele>118.5</ele>
        <time>2022-11-16T14:28:17Z</time>
      </trkpt>
      <trkpt lat="49.99912" lon="2.36951">
        <ele>118.4</ele>
        <time>2022-11-16T14:28:18Z</time>
      </trkpt>
      <trkpt lat="49.99912" lon="2.36948">
        <ele>118.3</ele>
        <time>2022-11-16T14:28:19Z</time>
      </trkpt>
      <trkpt lat="49.99912" lon="2.36946">
        <ele>118.3</ele>
        <time>2022-11-16T14:28:20Z</time>
      </trkpt>
      <trkpt lat="49.99913" lon="2.36944">
        <ele>118.2</ele>
        <time>2022-11-16T14:28:21Z</time>
      </trkpt>
      <trkpt lat="49.99913" lon="2.36941">
        <ele>118.1</ele>
        <time>2022-11-16T14:28:22Z</time>
      </trkpt>
      <trkpt lat="49.99913" lon="2.36938">
        <ele>118</ele>
        <time>2022-11-16T14:28:23Z</time>
      </trkpt>
      <trkpt lat="49.99913" lon="2.36937">
        <ele>117.9</ele>
        <time>2022-11-16T14:28:25Z</time>
      </trkpt>
      <trkpt lat="49.99913" lon="2.36936">
        <ele>117.9</ele>
        <time>2022-11-16T14:28:26Z</time>
      </trkpt>
      <trkpt lat="49.99913" lon="2.36932">
        <ele>117.8</ele>
        <time>2022-11-16T14:28:27Z</time>
      </trkpt>
      <trkpt lat="49.99913" lon="2.3693">
        <ele>117.7</ele>
        <time>2022-11-16T14:28:28Z</time>
      </trkpt>
      <trkpt lat="49.99914" lon="2.36929">
        <ele>117.7</ele>
        <time>2022-11-16T14:28:29Z</time>
      </trkpt>
      <trkpt lat="49.99914" lon="2.36927">
        <ele>117.6</ele>
        <time>2022-11-16T14:28:30Z</time>
      </trkpt>
      <trkpt lat="49.99914" lon="2.36924">
        <ele>117.5</ele>
        <time>2022-11-16T14:28:31Z</time>
      </trkpt>
      <trkpt lat="49.99915" lon="2.36921">
        <ele>117.4</ele>
        <time>2022-11-16T14:28:32Z</time>
      </trkpt>
      <trkpt lat="49.99915" lon="2.3692">
        <ele>117.3</ele>
        <time>2022-11-16T14:28:33Z</time>
      </trkpt>
      <trkpt lat="49.99916" lon="2.36919">
        <ele>117.3</ele>
        <time>2022-11-16T14:28:34Z</time>
      </trkpt>
      <trkpt lat="49.99916" lon="2.36917">
        <ele>117.2</ele>
        <time>2022-11-16T14:28:35Z</time>
      </trkpt>
      <trkpt lat="49.99916" lon="2.36915">
        <ele>117.2</ele>
        <time>2022-11-16T14:28:37Z</time>
      </trkpt>
      <trkpt lat="49.99917" lon="2.36914">
        <ele>117.1</ele>
        <time>2022-11-16T14:28:38Z</time>
      </trkpt>
      <trkpt lat="49.99917" lon="2.36912">
        <ele>117</ele>
        <time>2022-11-16T14:28:39Z</time>
      </trkpt>
      <trkpt lat="49.99917" lon="2.36909">
        <ele>117</ele>
        <time>2022-11-16T14:28:40Z</time>
      </trkpt>
      <trkpt lat="49.99918" lon="2.36907">
        <ele>116.9</ele>
        <time>2022-11-16T14:28:41Z</time>
      </trkpt>
      <trkpt lat="49.99918" lon="2.36905">
        <ele>116.8</ele>
        <time>2022-11-16T14:28:42Z</time>
      </trkpt>
      <trkpt lat="49.99918" lon="2.36903">
        <ele>116.7</ele>
        <time>2022-11-16T14:28:44Z</time>
      </trkpt>
      <trkpt lat="49.99919" lon="2.36901">
        <ele>116.7</ele>
        <time>2022-11-16T14:28:45Z</time>
      </trkpt>
      <trkpt lat="49.99919" lon="2.36899">
        <ele>116.6</ele>
        <time>2022-11-16T14:28:46Z</time>
      </trkpt>
      <trkpt lat="49.99919" lon="2.36897">
        <ele>116.5</ele>
        <time>2022-11-16T14:28:47Z</time>
      </trkpt>
      <trkpt lat="49.9992" lon="2.36895">
        <ele>116.4</ele>
        <time>2022-11-16T14:28:48Z</time>
      </trkpt>
      <trkpt lat="49.9992" lon="2.36893">
        <ele>116.4</ele>
        <time>2022-11-16T14:28:50Z</time>
      </trkpt>
      <trkpt lat="49.9992" lon="2.36892">
        <ele>116.3</ele>
        <time>2022-11-16T14:28:51Z</time>
      </trkpt>
      <trkpt lat="49.99921" lon="2.3689">
        <ele>116.3</ele>
        <time>2022-11-16T14:28:52Z</time>
      </trkpt>
      <trkpt lat="49.99921" lon="2.36889">
        <ele>116.2</ele>
        <time>2022-11-16T14:28:53Z</time>
      </trkpt>
      <trkpt lat="49.99921" lon="2.36886">
        <ele>116.1</ele>
        <time>2022-11-16T14:28:54Z</time>
      </trkpt>
      <trkpt lat="49.99921" lon="2.36884">
        <ele>116.1</ele>
        <time>2022-11-16T14:28:55Z</time>
      </trkpt>
      <trkpt lat="49.99921" lon="2.36883">
        <ele>116</ele>
        <time>2022-11-16T14:28:56Z</time>
      </trkpt>
      <trkpt lat="49.99922" lon="2.3688">
        <ele>115.9</ele>
        <time>2022-11-16T14:28:57Z</time>
      </trkpt>
      <trkpt lat="49.99922" lon="2.36878">
        <ele>115.8</ele>
        <time>2022-11-16T14:28:58Z</time>
      </trkpt>
      <trkpt lat="49.99922" lon="2.36877">
        <ele>115.8</ele>
        <time>2022-11-16T14:28:59Z</time>
      </trkpt>
      <trkpt lat="49.99922" lon="2.36874">
        <ele>115.7</ele>
        <time>2022-11-16T14:29:00Z</time>
      </trkpt>
      <trkpt lat="49.99922" lon="2.36872">
        <ele>115.6</ele>
        <time>2022-11-16T14:29:01Z</time>
      </trkpt>
      <trkpt lat="49.99922" lon="2.36871">
        <ele>115.6</ele>
        <time>2022-11-16T14:29:02Z</time>
      </trkpt>
      <trkpt lat="49.99922" lon="2.36869">
        <ele>115.5</ele>
        <time>2022-11-16T14:29:04Z</time>
      </trkpt>
      <trkpt lat="49.99922" lon="2.36868">
        <ele>115.5</ele>
        <time>2022-11-16T14:29:05Z</time>
      </trkpt>
      <trkpt lat="49.99922" lon="2.36867">
        <ele>115.4</ele>
        <time>2022-11-16T14:29:06Z</time>
      </trkpt>
      <trkpt lat="49.99922" lon="2.36865">
        <ele>115.4</ele>
        <time>2022-11-16T14:29:07Z</time>
      </trkpt>
      <trkpt lat="49.99922" lon="2.36863">
        <ele>115.3</ele>
        <time>2022-11-16T14:29:08Z</time>
      </trkpt>
      <trkpt lat="49.99922" lon="2.36861">
        <ele>115.3</ele>
        <time>2022-11-16T14:29:09Z</time>
      </trkpt>
      <trkpt lat="49.99922" lon="2.3686">
        <ele>115.2</ele>
        <time>2022-11-16T14:29:10Z</time>
      </trkpt>
      <trkpt lat="49.99922" lon="2.36858">
        <ele>115.1</ele>
        <time>2022-11-16T14:29:11Z</time>
      </trkpt>
      <trkpt lat="49.99922" lon="2.36856">
        <ele>115.1</ele>
        <time>2022-11-16T14:29:12Z</time>
      </trkpt>
      <trkpt lat="49.99922" lon="2.36853">
        <ele>115</ele>
        <time>2022-11-16T14:29:13Z</time>
      </trkpt>
      <trkpt lat="49.99922" lon="2.36852">
        <ele>114.9</ele>
        <time>2022-11-16T14:29:14Z</time>
      </trkpt>
      <trkpt lat="49.99922" lon="2.3685">
        <ele>114.9</ele>
        <time>2022-11-16T14:29:15Z</time>
      </trkpt>
      <trkpt lat="49.99922" lon="2.36847">
        <ele>114.8</ele>
        <time>2022-11-16T14:29:16Z</time>
      </trkpt>
      <trkpt lat="49.99922" lon="2.36846">
        <ele>114.7</ele>
        <time>2022-11-16T14:29:17Z</time>
      </trkpt>
      <trkpt lat="49.99923" lon="2.36844">
        <ele>114.7</ele>
        <time>2022-11-16T14:29:18Z</time>
      </trkpt>
      <trkpt lat="49.99923" lon="2.36841">
        <ele>114.5</ele>
        <time>2022-11-16T14:29:19Z</time>
      </trkpt>
      <trkpt lat="49.99923" lon="2.3684">
        <ele>114.5</ele>
        <time>2022-11-16T14:29:20Z</time>
      </trkpt>
      <trkpt lat="49.99923" lon="2.36838">
        <ele>114.4</ele>
        <time>2022-11-16T14:29:21Z</time>
      </trkpt>
      <trkpt lat="49.99923" lon="2.36836">
        <ele>114.4</ele>
        <time>2022-11-16T14:29:22Z</time>
      </trkpt>
      <trkpt lat="49.99924" lon="2.36834">
        <ele>114.3</ele>
        <time>2022-11-16T14:29:24Z</time>
      </trkpt>
      <trkpt lat="49.99924" lon="2.36831">
        <ele>114.2</ele>
        <time>2022-11-16T14:29:25Z</time>
      </trkpt>
      <trkpt lat="49.99924" lon="2.36829">
        <ele>114.1</ele>
        <time>2022-11-16T14:29:26Z</time>
      </trkpt>
      <trkpt lat="49.99924" lon="2.36826">
        <ele>114</ele>
        <time>2022-11-16T14:29:27Z</time>
      </trkpt>
      <trkpt lat="49.99925" lon="2.36824">
        <ele>113.9</ele>
        <time>2022-11-16T14:29:28Z</time>
      </trkpt>
      <trkpt lat="49.99925" lon="2.36822">
        <ele>113.9</ele>
        <time>2022-11-16T14:29:30Z</time>
      </trkpt>
      <trkpt lat="49.99925" lon="2.3682">
        <ele>113.8</ele>
        <time>2022-11-16T14:29:31Z</time>
      </trkpt>
      <trkpt lat="49.99925" lon="2.36819">
        <ele>113.8</ele>
        <time>2022-11-16T14:29:32Z</time>
      </trkpt>
      <trkpt lat="49.99925" lon="2.36817">
        <ele>113.7</ele>
        <time>2022-11-16T14:29:33Z</time>
      </trkpt>
      <trkpt lat="49.99925" lon="2.36815">
        <ele>113.6</ele>
        <time>2022-11-16T14:29:34Z</time>
      </trkpt>
      <trkpt lat="49.99925" lon="2.36813">
        <ele>113.6</ele>
        <time>2022-11-16T14:29:35Z</time>
      </trkpt>
      <trkpt lat="49.99925" lon="2.3681">
        <ele>113.5</ele>
        <time>2022-11-16T14:29:36Z</time>
      </trkpt>
      <trkpt lat="49.99926" lon="2.36809">
        <ele>113.4</ele>
        <time>2022-11-16T14:29:37Z</time>
      </trkpt>
      <trkpt lat="49.99926" lon="2.36807">
        <ele>113.4</ele>
        <time>2022-11-16T14:29:38Z</time>
      </trkpt>
      <trkpt lat="49.99926" lon="2.36805">
        <ele>113.3</ele>
        <time>2022-11-16T14:29:39Z</time>
      </trkpt>
      <trkpt lat="49.99926" lon="2.36803">
        <ele>113.2</ele>
        <time>2022-11-16T14:29:40Z</time>
      </trkpt>
      <trkpt lat="49.99926" lon="2.36801">
        <ele>113.1</ele>
        <time>2022-11-16T14:29:42Z</time>
      </trkpt>
      <trkpt lat="49.99927" lon="2.368">
        <ele>113.1</ele>
        <time>2022-11-16T14:29:43Z</time>
      </trkpt>
      <trkpt lat="49.99927" lon="2.36798">
        <ele>113</ele>
        <time>2022-11-16T14:29:44Z</time>
      </trkpt>
      <trkpt lat="49.99927" lon="2.36797">
        <ele>113</ele>
        <time>2022-11-16T14:29:45Z</time>
      </trkpt>
      <trkpt lat="49.99927" lon="2.36795">
        <ele>112.9</ele>
        <time>2022-11-16T14:29:46Z</time>
      </trkpt>
      <trkpt lat="49.99927" lon="2.36793">
        <ele>112.9</ele>
        <time>2022-11-16T14:29:47Z</time>
      </trkpt>
      <trkpt lat="49.99928" lon="2.36791">
        <ele>112.8</ele>
        <time>2022-11-16T14:29:48Z</time>
      </trkpt>
      <trkpt lat="49.99928" lon="2.36789">
        <ele>112.7</ele>
        <time>2022-11-16T14:29:49Z</time>
      </trkpt>
      <trkpt lat="49.99928" lon="2.36786">
        <ele>112.6</ele>
        <time>2022-11-16T14:29:50Z</time>
      </trkpt>
      <trkpt lat="49.99928" lon="2.36785">
        <ele>112.6</ele>
        <time>2022-11-16T14:29:51Z</time>
      </trkpt>
      <trkpt lat="49.99928" lon="2.36783">
        <ele>112.5</ele>
        <time>2022-11-16T14:29:52Z</time>
      </trkpt>
      <trkpt lat="49.99928" lon="2.36782">
        <ele>112.5</ele>
        <time>2022-11-16T14:29:53Z</time>
      </trkpt>
      <trkpt lat="49.99928" lon="2.3678">
        <ele>112.4</ele>
        <time>2022-11-16T14:29:55Z</time>
      </trkpt>
      <trkpt lat="49.99928" lon="2.36778">
        <ele>112.3</ele>
        <time>2022-11-16T14:29:56Z</time>
      </trkpt>
      <trkpt lat="49.99928" lon="2.36776">
        <ele>112.3</ele>
        <time>2022-11-16T14:29:57Z</time>
      </trkpt>
      <trkpt lat="49.99928" lon="2.36775">
        <ele>112.2</ele>
        <time>2022-11-16T14:29:58Z</time>
      </trkpt>
      <trkpt lat="49.99928" lon="2.36773">
        <ele>112.2</ele>
        <time>2022-11-16T14:29:59Z</time>
      </trkpt>
      <trkpt lat="49.99928" lon="2.3677">
        <ele>112.1</ele>
        <time>2022-11-16T14:30:00Z</time>
      </trkpt>
      <trkpt lat="49.99928" lon="2.36769">
        <ele>112</ele>
        <time>2022-11-16T14:30:01Z</time>
      </trkpt>
      <trkpt lat="49.99928" lon="2.36767">
        <ele>112</ele>
        <time>2022-11-16T14:30:02Z</time>
      </trkpt>
      <trkpt lat="49.99928" lon="2.36765">
        <ele>111.9</ele>
        <time>2022-11-16T14:30:03Z</time>
      </trkpt>
      <trkpt lat="49.99928" lon="2.36763">
        <ele>111.8</ele>
        <time>2022-11-16T14:30:04Z</time>
      </trkpt>
      <trkpt lat="49.99929" lon="2.36759">
        <ele>111.7</ele>
        <time>2022-11-16T14:30:05Z</time>
      </trkpt>
      <trkpt lat="49.99929" lon="2.36758">
        <ele>111.6</ele>
        <time>2022-11-16T14:30:06Z</time>
      </trkpt>
      <trkpt lat="49.99929" lon="2.36757">
        <ele>111.6</ele>
        <time>2022-11-16T14:30:07Z</time>
      </trkpt>
      <trkpt lat="49.99929" lon="2.36755">
        <ele>111.5</ele>
        <time>2022-11-16T14:30:09Z</time>
      </trkpt>
      <trkpt lat="49.99929" lon="2.36753">
        <ele>111.5</ele>
        <time>2022-11-16T14:30:10Z</time>
      </trkpt>
      <trkpt lat="49.99929" lon="2.36751">
        <ele>111.4</ele>
        <time>2022-11-16T14:30:11Z</time>
      </trkpt>
      <trkpt lat="49.99929" lon="2.3675">
        <ele>111.3</ele>
        <time>2022-11-16T14:30:12Z</time>
      </trkpt>
      <trkpt lat="49.9993" lon="2.36748">
        <ele>111.3</ele>
        <time>2022-11-16T14:30:13Z</time>
      </trkpt>
      <trkpt lat="49.9993" lon="2.36747">
        <ele>111.2</ele>
        <time>2022-11-16T14:30:14Z</time>
      </trkpt>
      <trkpt lat="49.9993" lon="2.36745">
        <ele>111.2</ele>
        <time>2022-11-16T14:30:15Z</time>
      </trkpt>
      <trkpt lat="49.99931" lon="2.36742">
        <ele>111.1</ele>
        <time>2022-11-16T14:30:17Z</time>
      </trkpt>
      <trkpt lat="49.99931" lon="2.3674">
        <ele>111</ele>
        <time>2022-11-16T14:30:18Z</time>
      </trkpt>
      <trkpt lat="49.99931" lon="2.36738">
        <ele>110.9</ele>
        <time>2022-11-16T14:30:19Z</time>
      </trkpt>
      <trkpt lat="49.99931" lon="2.36737">
        <ele>110.9</ele>
        <time>2022-11-16T14:30:20Z</time>
      </trkpt>
      <trkpt lat="49.99932" lon="2.36735">
        <ele>110.8</ele>
        <time>2022-11-16T14:30:21Z</time>
      </trkpt>
      <trkpt lat="49.99932" lon="2.36733">
        <ele>110.7</ele>
        <time>2022-11-16T14:30:22Z</time>
      </trkpt>
      <trkpt lat="49.99932" lon="2.36732">
        <ele>110.7</ele>
        <time>2022-11-16T14:30:23Z</time>
      </trkpt>
      <trkpt lat="49.99933" lon="2.3673">
        <ele>110.6</ele>
        <time>2022-11-16T14:30:24Z</time>
      </trkpt>
      <trkpt lat="49.99933" lon="2.36729">
        <ele>110.6</ele>
        <time>2022-11-16T14:30:25Z</time>
      </trkpt>
      <trkpt lat="49.99933" lon="2.36728">
        <ele>110.5</ele>
        <time>2022-11-16T14:30:26Z</time>
      </trkpt>
      <trkpt lat="49.99933" lon="2.36726">
        <ele>110.5</ele>
        <time>2022-11-16T14:30:28Z</time>
      </trkpt>
      <trkpt lat="49.99934" lon="2.36724">
        <ele>110.4</ele>
        <time>2022-11-16T14:30:29Z</time>
      </trkpt>
      <trkpt lat="49.99934" lon="2.36722">
        <ele>110.4</ele>
        <time>2022-11-16T14:30:30Z</time>
      </trkpt>
      <trkpt lat="49.99935" lon="2.3672">
        <ele>110.3</ele>
        <time>2022-11-16T14:30:31Z</time>
      </trkpt>
      <trkpt lat="49.99935" lon="2.36717">
        <ele>110.2</ele>
        <time>2022-11-16T14:30:32Z</time>
      </trkpt>
      <trkpt lat="49.99936" lon="2.36715">
        <ele>110.1</ele>
        <time>2022-11-16T14:30:33Z</time>
      </trkpt>
      <trkpt lat="49.99936" lon="2.36712">
        <ele>110</ele>
        <time>2022-11-16T14:30:34Z</time>
      </trkpt>
      <trkpt lat="49.99937" lon="2.3671">
        <ele>109.9</ele>
        <time>2022-11-16T14:30:35Z</time>
      </trkpt>
      <trkpt lat="49.99937" lon="2.36707">
        <ele>109.8</ele>
        <time>2022-11-16T14:30:37Z</time>
      </trkpt>
      <trkpt lat="49.99938" lon="2.36706">
        <ele>109.7</ele>
        <time>2022-11-16T14:30:38Z</time>
      </trkpt>
      <trkpt lat="49.99938" lon="2.36704">
        <ele>109.7</ele>
        <time>2022-11-16T14:30:39Z</time>
      </trkpt>
      <trkpt lat="49.99938" lon="2.36702">
        <ele>109.6</ele>
        <time>2022-11-16T14:30:40Z</time>
      </trkpt>
      <trkpt lat="49.99939" lon="2.367">
        <ele>109.5</ele>
        <time>2022-11-16T14:30:41Z</time>
      </trkpt>
      <trkpt lat="49.99939" lon="2.36698">
        <ele>109.5</ele>
        <time>2022-11-16T14:30:42Z</time>
      </trkpt>
      <trkpt lat="49.9994" lon="2.36696">
        <ele>109.4</ele>
        <time>2022-11-16T14:30:43Z</time>
      </trkpt>
      <trkpt lat="49.9994" lon="2.36694">
        <ele>109.3</ele>
        <time>2022-11-16T14:30:44Z</time>
      </trkpt>
      <trkpt lat="49.99941" lon="2.3669">
        <ele>109.2</ele>
        <time>2022-11-16T14:30:45Z</time>
      </trkpt>
      <trkpt lat="49.99941" lon="2.36689">
        <ele>109.2</ele>
        <time>2022-11-16T14:30:46Z</time>
      </trkpt>
      <trkpt lat="49.99941" lon="2.36688">
        <ele>109.1</ele>
        <time>2022-11-16T14:30:47Z</time>
      </trkpt>
      <trkpt lat="49.99941" lon="2.36686">
        <ele>109</ele>
        <time>2022-11-16T14:30:48Z</time>
      </trkpt>
      <trkpt lat="49.99941" lon="2.36684">
        <ele>109</ele>
        <time>2022-11-16T14:30:50Z</time>
      </trkpt>
      <trkpt lat="49.99941" lon="2.36683">
        <ele>108.9</ele>
        <time>2022-11-16T14:30:51Z</time>
      </trkpt>
      <trkpt lat="49.99941" lon="2.36681">
        <ele>108.9</ele>
        <time>2022-11-16T14:30:52Z</time>
      </trkpt>
      <trkpt lat="49.99941" lon="2.3668">
        <ele>108.8</ele>
        <time>2022-11-16T14:30:53Z</time>
      </trkpt>
      <trkpt lat="49.99941" lon="2.36678">
        <ele>108.8</ele>
        <time>2022-11-16T14:30:54Z</time>
      </trkpt>
      <trkpt lat="49.99942" lon="2.36677">
        <ele>108.7</ele>
        <time>2022-11-16T14:30:55Z</time>
      </trkpt>
      <trkpt lat="49.99942" lon="2.36675">
        <ele>108.6</ele>
        <time>2022-11-16T14:30:56Z</time>
      </trkpt>
      <trkpt lat="49.99942" lon="2.36673">
        <ele>108.6</ele>
        <time>2022-11-16T14:30:57Z</time>
      </trkpt>
      <trkpt lat="49.99942" lon="2.36671">
        <ele>108.5</ele>
        <time>2022-11-16T14:30:58Z</time>
      </trkpt>
      <trkpt lat="49.99943" lon="2.36669">
        <ele>108.4</ele>
        <time>2022-11-16T14:30:59Z</time>
      </trkpt>
      <trkpt lat="49.99943" lon="2.36667">
        <ele>108.4</ele>
        <time>2022-11-16T14:31:00Z</time>
      </trkpt>
      <trkpt lat="49.99943" lon="2.36666">
        <ele>108.3</ele>
        <time>2022-11-16T14:31:01Z</time>
      </trkpt>
      <trkpt lat="49.99943" lon="2.36664">
        <ele>108.3</ele>
        <time>2022-11-16T14:31:03Z</time>
      </trkpt>
      <trkpt lat="49.99944" lon="2.36662">
        <ele>108.2</ele>
        <time>2022-11-16T14:31:04Z</time>
      </trkpt>
      <trkpt lat="49.99944" lon="2.36659">
        <ele>108.1</ele>
        <time>2022-11-16T14:31:05Z</time>
      </trkpt>
      <trkpt lat="49.99944" lon="2.36658">
        <ele>108</ele>
        <time>2022-11-16T14:31:06Z</time>
      </trkpt>
      <trkpt lat="49.99945" lon="2.36657">
        <ele>108</ele>
        <time>2022-11-16T14:31:07Z</time>
      </trkpt>
      <trkpt lat="49.99945" lon="2.36655">
        <ele>107.9</ele>
        <time>2022-11-16T14:31:08Z</time>
      </trkpt>
      <trkpt lat="49.99946" lon="2.36652">
        <ele>107.8</ele>
        <time>2022-11-16T14:31:09Z</time>
      </trkpt>
      <trkpt lat="49.99946" lon="2.3665">
        <ele>107.8</ele>
        <time>2022-11-16T14:31:10Z</time>
      </trkpt>
      <trkpt lat="49.99946" lon="2.36648">
        <ele>107.7</ele>
        <time>2022-11-16T14:31:11Z</time>
      </trkpt>
      <trkpt lat="49.99947" lon="2.36646">
        <ele>107.6</ele>
        <time>2022-11-16T14:31:12Z</time>
      </trkpt>
      <trkpt lat="49.99947" lon="2.36644">
        <ele>107.5</ele>
        <time>2022-11-16T14:31:13Z</time>
      </trkpt>
      <trkpt lat="49.99947" lon="2.36643">
        <ele>107.5</ele>
        <time>2022-11-16T14:31:15Z</time>
      </trkpt>
      <trkpt lat="49.99948" lon="2.36641">
        <ele>107.4</ele>
        <time>2022-11-16T14:31:16Z</time>
      </trkpt>
      <trkpt lat="49.99948" lon="2.3664">
        <ele>107.4</ele>
        <time>2022-11-16T14:31:17Z</time>
      </trkpt>
      <trkpt lat="49.99948" lon="2.36638">
        <ele>107.3</ele>
        <time>2022-11-16T14:31:18Z</time>
      </trkpt>
      <trkpt lat="49.99948" lon="2.36635">
        <ele>107.2</ele>
        <time>2022-11-16T14:31:19Z</time>
      </trkpt>
      <trkpt lat="49.99948" lon="2.36634">
        <ele>107.2</ele>
        <time>2022-11-16T14:31:20Z</time>
      </trkpt>
      <trkpt lat="49.99949" lon="2.36632">
        <ele>107.1</ele>
        <time>2022-11-16T14:31:21Z</time>
      </trkpt>
      <trkpt lat="49.99949" lon="2.36629">
        <ele>107</ele>
        <time>2022-11-16T14:31:22Z</time>
      </trkpt>
      <trkpt lat="49.99949" lon="2.36628">
        <ele>107</ele>
        <time>2022-11-16T14:31:23Z</time>
      </trkpt>
      <trkpt lat="49.99949" lon="2.36626">
        <ele>106.9</ele>
        <time>2022-11-16T14:31:24Z</time>
      </trkpt>
      <trkpt lat="49.99949" lon="2.36625">
        <ele>106.9</ele>
        <time>2022-11-16T14:31:26Z</time>
      </trkpt>
      <trkpt lat="49.9995" lon="2.36623">
        <ele>106.8</ele>
        <time>2022-11-16T14:31:27Z</time>
      </trkpt>
      <trkpt lat="49.9995" lon="2.36622">
        <ele>106.8</ele>
        <time>2022-11-16T14:31:28Z</time>
      </trkpt>
      <trkpt lat="49.9995" lon="2.3662">
        <ele>106.7</ele>
        <time>2022-11-16T14:31:29Z</time>
      </trkpt>
      <trkpt lat="49.9995" lon="2.36619">
        <ele>106.6</ele>
        <time>2022-11-16T14:31:30Z</time>
      </trkpt>
      <trkpt lat="49.9995" lon="2.36617">
        <ele>106.6</ele>
        <time>2022-11-16T14:31:31Z</time>
      </trkpt>
      <trkpt lat="49.9995" lon="2.36613">
        <ele>106.5</ele>
        <time>2022-11-16T14:31:32Z</time>
      </trkpt>
      <trkpt lat="49.9995" lon="2.36612">
        <ele>106.4</ele>
        <time>2022-11-16T14:31:33Z</time>
      </trkpt>
      <trkpt lat="49.99951" lon="2.36611">
        <ele>106.4</ele>
        <time>2022-11-16T14:31:34Z</time>
      </trkpt>
      <trkpt lat="49.99951" lon="2.36609">
        <ele>106.3</ele>
        <time>2022-11-16T14:31:35Z</time>
      </trkpt>
      <trkpt lat="49.99951" lon="2.36607">
        <ele>106.2</ele>
        <time>2022-11-16T14:31:36Z</time>
      </trkpt>
      <trkpt lat="49.99951" lon="2.36605">
        <ele>106.2</ele>
        <time>2022-11-16T14:31:38Z</time>
      </trkpt>
      <trkpt lat="49.99951" lon="2.36603">
        <ele>106.1</ele>
        <time>2022-11-16T14:31:39Z</time>
      </trkpt>
      <trkpt lat="49.99951" lon="2.36601">
        <ele>106</ele>
        <time>2022-11-16T14:31:40Z</time>
      </trkpt>
      <trkpt lat="49.99952" lon="2.366">
        <ele>106</ele>
        <time>2022-11-16T14:31:41Z</time>
      </trkpt>
      <trkpt lat="49.99952" lon="2.36596">
        <ele>105.8</ele>
        <time>2022-11-16T14:31:42Z</time>
      </trkpt>
      <trkpt lat="49.99953" lon="2.36595">
        <ele>105.8</ele>
        <time>2022-11-16T14:31:43Z</time>
      </trkpt>
      <trkpt lat="49.99953" lon="2.36593">
        <ele>105.7</ele>
        <time>2022-11-16T14:31:44Z</time>
      </trkpt>
      <trkpt lat="49.99953" lon="2.36591">
        <ele>105.7</ele>
        <time>2022-11-16T14:31:45Z</time>
      </trkpt>
      <trkpt lat="49.99953" lon="2.36589">
        <ele>105.6</ele>
        <time>2022-11-16T14:31:46Z</time>
      </trkpt>
      <trkpt lat="49.99953" lon="2.36588">
        <ele>105.5</ele>
        <time>2022-11-16T14:31:47Z</time>
      </trkpt>
      <trkpt lat="49.99954" lon="2.36586">
        <ele>105.5</ele>
        <time>2022-11-16T14:31:49Z</time>
      </trkpt>
      <trkpt lat="49.99954" lon="2.36584">
        <ele>105.4</ele>
        <time>2022-11-16T14:31:50Z</time>
      </trkpt>
      <trkpt lat="49.99954" lon="2.36583">
        <ele>105.4</ele>
        <time>2022-11-16T14:31:51Z</time>
      </trkpt>
      <trkpt lat="49.99954" lon="2.36581">
        <ele>105.3</ele>
        <time>2022-11-16T14:31:52Z</time>
      </trkpt>
      <trkpt lat="49.99955" lon="2.36578">
        <ele>105.2</ele>
        <time>2022-11-16T14:31:54Z</time>
      </trkpt>
      <trkpt lat="49.99955" lon="2.36577">
        <ele>105.2</ele>
        <time>2022-11-16T14:31:55Z</time>
      </trkpt>
      <trkpt lat="49.99955" lon="2.36575">
        <ele>105.1</ele>
        <time>2022-11-16T14:31:56Z</time>
      </trkpt>
      <trkpt lat="49.99956" lon="2.36573">
        <ele>105</ele>
        <time>2022-11-16T14:31:57Z</time>
      </trkpt>
      <trkpt lat="49.99956" lon="2.36571">
        <ele>105</ele>
        <time>2022-11-16T14:31:58Z</time>
      </trkpt>
      <trkpt lat="49.99956" lon="2.3657">
        <ele>104.9</ele>
        <time>2022-11-16T14:31:59Z</time>
      </trkpt>
      <trkpt lat="49.99956" lon="2.36567">
        <ele>104.8</ele>
        <time>2022-11-16T14:32:01Z</time>
      </trkpt>
      <trkpt lat="49.99957" lon="2.36566">
        <ele>104.8</ele>
        <time>2022-11-16T14:32:02Z</time>
      </trkpt>
      <trkpt lat="49.99957" lon="2.36564">
        <ele>104.7</ele>
        <time>2022-11-16T14:32:03Z</time>
      </trkpt>
      <trkpt lat="49.99957" lon="2.36562">
        <ele>104.6</ele>
        <time>2022-11-16T14:32:04Z</time>
      </trkpt>
      <trkpt lat="49.99957" lon="2.36559">
        <ele>104.5</ele>
        <time>2022-11-16T14:32:05Z</time>
      </trkpt>
      <trkpt lat="49.99958" lon="2.36558">
        <ele>104.5</ele>
        <time>2022-11-16T14:32:06Z</time>
      </trkpt>
      <trkpt lat="49.99958" lon="2.36556">
        <ele>104.4</ele>
        <time>2022-11-16T14:32:07Z</time>
      </trkpt>
      <trkpt lat="49.99958" lon="2.36555">
        <ele>104.4</ele>
        <time>2022-11-16T14:32:09Z</time>
      </trkpt>
      <trkpt lat="49.99958" lon="2.36553">
        <ele>104.3</ele>
        <time>2022-11-16T14:32:10Z</time>
      </trkpt>
      <trkpt lat="49.99958" lon="2.36552">
        <ele>104.3</ele>
        <time>2022-11-16T14:32:11Z</time>
      </trkpt>
      <trkpt lat="49.99959" lon="2.36551">
        <ele>104.2</ele>
        <time>2022-11-16T14:32:12Z</time>
      </trkpt>
      <trkpt lat="49.99959" lon="2.36549">
        <ele>104.2</ele>
        <time>2022-11-16T14:32:13Z</time>
      </trkpt>
      <trkpt lat="49.99959" lon="2.36547">
        <ele>104.2</ele>
        <time>2022-11-16T14:32:14Z</time>
      </trkpt>
      <trkpt lat="49.99959" lon="2.36546">
        <ele>104.3</ele>
        <time>2022-11-16T14:32:15Z</time>
      </trkpt>
      <trkpt lat="49.9996" lon="2.36544">
        <ele>104.3</ele>
        <time>2022-11-16T14:32:16Z</time>
      </trkpt>
      <trkpt lat="49.9996" lon="2.36544">
        <ele>104.3</ele>
        <time>2022-11-16T14:32:18Z</time>
      </trkpt>
      <trkpt lat="49.99961" lon="2.36543">
        <ele>104.3</ele>
        <time>2022-11-16T14:32:19Z</time>
      </trkpt>
      <trkpt lat="49.99962" lon="2.36542">
        <ele>104.4</ele>
        <time>2022-11-16T14:32:20Z</time>
      </trkpt>
      <trkpt lat="49.99962" lon="2.36541">
        <ele>104.4</ele>
        <time>2022-11-16T14:32:21Z</time>
      </trkpt>
      <trkpt lat="49.99963" lon="2.3654">
        <ele>104.4</ele>
        <time>2022-11-16T14:32:22Z</time>
      </trkpt>
      <trkpt lat="49.99964" lon="2.36539">
        <ele>104.4</ele>
        <time>2022-11-16T14:32:23Z</time>
      </trkpt>
      <trkpt lat="49.99964" lon="2.36537">
        <ele>104.5</ele>
        <time>2022-11-16T14:32:25Z</time>
      </trkpt>
      <trkpt lat="49.99965" lon="2.36536">
        <ele>104.5</ele>
        <time>2022-11-16T14:32:26Z</time>
      </trkpt>
      <trkpt lat="49.99967" lon="2.36535">
        <ele>104.5</ele>
        <time>2022-11-16T14:32:27Z</time>
      </trkpt>
      <trkpt lat="49.99967" lon="2.36534">
        <ele>104.5</ele>
        <time>2022-11-16T14:32:28Z</time>
      </trkpt>
      <trkpt lat="49.99968" lon="2.36534">
        <ele>104.6</ele>
        <time>2022-11-16T14:32:29Z</time>
      </trkpt>
      <trkpt lat="49.99968" lon="2.36533">
        <ele>104.6</ele>
        <time>2022-11-16T14:32:30Z</time>
      </trkpt>
      <trkpt lat="49.99969" lon="2.36533">
        <ele>104.6</ele>
        <time>2022-11-16T14:32:31Z</time>
      </trkpt>
      <trkpt lat="49.9997" lon="2.36532">
        <ele>104.6</ele>
        <time>2022-11-16T14:32:32Z</time>
      </trkpt>
      <trkpt lat="49.99971" lon="2.36531">
        <ele>104.7</ele>
        <time>2022-11-16T14:32:33Z</time>
      </trkpt>
      <trkpt lat="49.99973" lon="2.3653">
        <ele>104.7</ele>
        <time>2022-11-16T14:32:34Z</time>
      </trkpt>
      <trkpt lat="49.99973" lon="2.36529">
        <ele>104.7</ele>
        <time>2022-11-16T14:32:35Z</time>
      </trkpt>
      <trkpt lat="49.99974" lon="2.36529">
        <ele>104.7</ele>
        <time>2022-11-16T14:32:36Z</time>
      </trkpt>
      <trkpt lat="49.99975" lon="2.36528">
        <ele>104.8</ele>
        <time>2022-11-16T14:32:37Z</time>
      </trkpt>
      <trkpt lat="49.99976" lon="2.36528">
        <ele>104.8</ele>
        <time>2022-11-16T14:32:38Z</time>
      </trkpt>
      <trkpt lat="49.99977" lon="2.36527">
        <ele>104.8</ele>
        <time>2022-11-16T14:32:39Z</time>
      </trkpt>
      <trkpt lat="49.99978" lon="2.36526">
        <ele>104.9</ele>
        <time>2022-11-16T14:32:40Z</time>
      </trkpt>
      <trkpt lat="49.99979" lon="2.36525">
        <ele>104.9</ele>
        <time>2022-11-16T14:32:42Z</time>
      </trkpt>
      <trkpt lat="49.9998" lon="2.36524">
        <ele>104.9</ele>
        <time>2022-11-16T14:32:43Z</time>
      </trkpt>
      <trkpt lat="49.99981" lon="2.36523">
        <ele>104.9</ele>
        <time>2022-11-16T14:32:44Z</time>
      </trkpt>
      <trkpt lat="49.99982" lon="2.36521">
        <ele>105</ele>
        <time>2022-11-16T14:32:45Z</time>
      </trkpt>
      <trkpt lat="49.99983" lon="2.36521">
        <ele>105</ele>
        <time>2022-11-16T14:32:46Z</time>
      </trkpt>
      <trkpt lat="49.99984" lon="2.3652">
        <ele>105</ele>
        <time>2022-11-16T14:32:47Z</time>
      </trkpt>
      <trkpt lat="49.99985" lon="2.36519">
        <ele>105.1</ele>
        <time>2022-11-16T14:32:48Z</time>
      </trkpt>
      <trkpt lat="49.99986" lon="2.36518">
        <ele>105.1</ele>
        <time>2022-11-16T14:32:50Z</time>
      </trkpt>
      <trkpt lat="49.99987" lon="2.36517">
        <ele>105.1</ele>
        <time>2022-11-16T14:32:51Z</time>
      </trkpt>
      <trkpt lat="49.99988" lon="2.36517">
        <ele>105.2</ele>
        <time>2022-11-16T14:32:52Z</time>
      </trkpt>
      <trkpt lat="49.99989" lon="2.36516">
        <ele>105.2</ele>
        <time>2022-11-16T14:32:53Z</time>
      </trkpt>
      <trkpt lat="49.99991" lon="2.36515">
        <ele>105.2</ele>
        <time>2022-11-16T14:32:54Z</time>
      </trkpt>
      <trkpt lat="49.99992" lon="2.36514">
        <ele>105.3</ele>
        <time>2022-11-16T14:32:55Z</time>
      </trkpt>
      <trkpt lat="49.99993" lon="2.36513">
        <ele>105.3</ele>
        <time>2022-11-16T14:32:56Z</time>
      </trkpt>
      <trkpt lat="49.99994" lon="2.36512">
        <ele>105.3</ele>
        <time>2022-11-16T14:32:58Z</time>
      </trkpt>
      <trkpt lat="49.99994" lon="2.36511">
        <ele>105.3</ele>
        <time>2022-11-16T14:32:59Z</time>
      </trkpt>
      <trkpt lat="49.99995" lon="2.36511">
        <ele>105.4</ele>
        <time>2022-11-16T14:33:00Z</time>
      </trkpt>
      <trkpt lat="49.99996" lon="2.3651">
        <ele>105.4</ele>
        <time>2022-11-16T14:33:01Z</time>
      </trkpt>
      <trkpt lat="49.99997" lon="2.36509">
        <ele>105.4</ele>
        <time>2022-11-16T14:33:02Z</time>
      </trkpt>
      <trkpt lat="49.99998" lon="2.36508">
        <ele>105.5</ele>
        <time>2022-11-16T14:33:03Z</time>
      </trkpt>
      <trkpt lat="49.99999" lon="2.36507">
        <ele>105.5</ele>
        <time>2022-11-16T14:33:05Z</time>
      </trkpt>
      <trkpt lat="50" lon="2.36506">
        <ele>105.5</ele>
        <time>2022-11-16T14:33:06Z</time>
      </trkpt>
      <trkpt lat="50.00001" lon="2.36505">
        <ele>105.5</ele>
        <time>2022-11-16T14:33:07Z</time>
      </trkpt>
      <trkpt lat="50.00002" lon="2.36504">
        <ele>105.6</ele>
        <time>2022-11-16T14:33:08Z</time>
      </trkpt>
      <trkpt lat="50.00003" lon="2.36503">
        <ele>105.6</ele>
        <time>2022-11-16T14:33:09Z</time>
      </trkpt>
      <trkpt lat="50.00004" lon="2.36502">
        <ele>105.6</ele>
        <time>2022-11-16T14:33:10Z</time>
      </trkpt>
      <trkpt lat="50.00005" lon="2.36501">
        <ele>105.7</ele>
        <time>2022-11-16T14:33:12Z</time>
      </trkpt>
      <trkpt lat="50.00006" lon="2.365">
        <ele>105.7</ele>
        <time>2022-11-16T14:33:13Z</time>
      </trkpt>
      <trkpt lat="50.00008" lon="2.36499">
        <ele>105.8</ele>
        <time>2022-11-16T14:33:14Z</time>
      </trkpt>
      <trkpt lat="50.00008" lon="2.36498">
        <ele>105.8</ele>
        <time>2022-11-16T14:33:15Z</time>
      </trkpt>
      <trkpt lat="50.00009" lon="2.36497">
        <ele>105.8</ele>
        <time>2022-11-16T14:33:16Z</time>
      </trkpt>
      <trkpt lat="50.00011" lon="2.36495">
        <ele>105.9</ele>
        <time>2022-11-16T14:33:17Z</time>
      </trkpt>
      <trkpt lat="50.00011" lon="2.36494">
        <ele>105.9</ele>
        <time>2022-11-16T14:33:19Z</time>
      </trkpt>
      <trkpt lat="50.00012" lon="2.36493">
        <ele>105.9</ele>
        <time>2022-11-16T14:33:20Z</time>
      </trkpt>
      <trkpt lat="50.00013" lon="2.36493">
        <ele>105.9</ele>
        <time>2022-11-16T14:33:21Z</time>
      </trkpt>
      <trkpt lat="50.00014" lon="2.36492">
        <ele>105.9</ele>
        <time>2022-11-16T14:33:22Z</time>
      </trkpt>
      <trkpt lat="50.00015" lon="2.36491">
        <ele>106</ele>
        <time>2022-11-16T14:33:23Z</time>
      </trkpt>
      <trkpt lat="50.00016" lon="2.36489">
        <ele>106</ele>
        <time>2022-11-16T14:33:24Z</time>
      </trkpt>
      <trkpt lat="50.00017" lon="2.36488">
        <ele>106.1</ele>
        <time>2022-11-16T14:33:26Z</time>
      </trkpt>
      <trkpt lat="50.00018" lon="2.36487">
        <ele>106.1</ele>
        <time>2022-11-16T14:33:27Z</time>
      </trkpt>
      <trkpt lat="50.00019" lon="2.36486">
        <ele>106.1</ele>
        <time>2022-11-16T14:33:28Z</time>
      </trkpt>
      <trkpt lat="50.0002" lon="2.36486">
        <ele>106.1</ele>
        <time>2022-11-16T14:33:29Z</time>
      </trkpt>
      <trkpt lat="50.00022" lon="2.36484">
        <ele>106.2</ele>
        <time>2022-11-16T14:33:30Z</time>
      </trkpt>
      <trkpt lat="50.00023" lon="2.36484">
        <ele>106.2</ele>
        <time>2022-11-16T14:33:32Z</time>
      </trkpt>
      <trkpt lat="50.00023" lon="2.36483">
        <ele>106.2</ele>
        <time>2022-11-16T14:33:33Z</time>
      </trkpt>
      <trkpt lat="50.00024" lon="2.36483">
        <ele>106.3</ele>
        <time>2022-11-16T14:33:34Z</time>
      </trkpt>
      <trkpt lat="50.00025" lon="2.36482">
        <ele>106.3</ele>
        <time>2022-11-16T14:33:35Z</time>
      </trkpt>
      <trkpt lat="50.00026" lon="2.3648">
        <ele>106.3</ele>
        <time>2022-11-16T14:33:36Z</time>
      </trkpt>
      <trkpt lat="50.00027" lon="2.36479">
        <ele>106.4</ele>
        <time>2022-11-16T14:33:37Z</time>
      </trkpt>
      <trkpt lat="50.00028" lon="2.36478">
        <ele>106.4</ele>
        <time>2022-11-16T14:33:38Z</time>
      </trkpt>
      <trkpt lat="50.00029" lon="2.36478">
        <ele>106.4</ele>
        <time>2022-11-16T14:33:40Z</time>
      </trkpt>
      <trkpt lat="50.0003" lon="2.36477">
        <ele>106.4</ele>
        <time>2022-11-16T14:33:41Z</time>
      </trkpt>
      <trkpt lat="50.00031" lon="2.36476">
        <ele>106.5</ele>
        <time>2022-11-16T14:33:42Z</time>
      </trkpt>
      <trkpt lat="50.00031" lon="2.36475">
        <ele>106.5</ele>
        <time>2022-11-16T14:33:43Z</time>
      </trkpt>
      <trkpt lat="50.00032" lon="2.36474">
        <ele>106.5</ele>
        <time>2022-11-16T14:33:44Z</time>
      </trkpt>
      <trkpt lat="50.00034" lon="2.36473">
        <ele>106.6</ele>
        <time>2022-11-16T14:33:45Z</time>
      </trkpt>
      <trkpt lat="50.00034" lon="2.36472">
        <ele>106.6</ele>
        <time>2022-11-16T14:33:46Z</time>
      </trkpt>
      <trkpt lat="50.00035" lon="2.36471">
        <ele>106.6</ele>
        <time>2022-11-16T14:33:47Z</time>
      </trkpt>
      <trkpt lat="50.00035" lon="2.36471">
        <ele>106.6</ele>
        <time>2022-11-16T14:33:48Z</time>
      </trkpt>
      <trkpt lat="50.00036" lon="2.3647">
        <ele>106.6</ele>
        <time>2022-11-16T14:33:49Z</time>
      </trkpt>
      <trkpt lat="50.00037" lon="2.36468">
        <ele>106.7</ele>
        <time>2022-11-16T14:33:50Z</time>
      </trkpt>
      <trkpt lat="50.00038" lon="2.36467">
        <ele>106.7</ele>
        <time>2022-11-16T14:33:51Z</time>
      </trkpt>
      <trkpt lat="50.00039" lon="2.36466">
        <ele>106.7</ele>
        <time>2022-11-16T14:33:53Z</time>
      </trkpt>
      <trkpt lat="50.0004" lon="2.36465">
        <ele>106.7</ele>
        <time>2022-11-16T14:33:54Z</time>
      </trkpt>
      <trkpt lat="50.0004" lon="2.36464">
        <ele>106.8</ele>
        <time>2022-11-16T14:33:55Z</time>
      </trkpt>
      <trkpt lat="50.00042" lon="2.36462">
        <ele>106.8</ele>
        <time>2022-11-16T14:33:56Z</time>
      </trkpt>
      <trkpt lat="50.00043" lon="2.36462">
        <ele>106.9</ele>
        <time>2022-11-16T14:33:57Z</time>
      </trkpt>
      <trkpt lat="50.00044" lon="2.36461">
        <ele>106.9</ele>
        <time>2022-11-16T14:33:58Z</time>
      </trkpt>
      <trkpt lat="50.00045" lon="2.3646">
        <ele>106.9</ele>
        <time>2022-11-16T14:34:00Z</time>
      </trkpt>
      <trkpt lat="50.00046" lon="2.36459">
        <ele>106.9</ele>
        <time>2022-11-16T14:34:01Z</time>
      </trkpt>
      <trkpt lat="50.00046" lon="2.36458">
        <ele>107</ele>
        <time>2022-11-16T14:34:02Z</time>
      </trkpt>
      <trkpt lat="50.00048" lon="2.36456">
        <ele>107</ele>
        <time>2022-11-16T14:34:03Z</time>
      </trkpt>
      <trkpt lat="50.00049" lon="2.36456">
        <ele>107</ele>
        <time>2022-11-16T14:34:04Z</time>
      </trkpt>
      <trkpt lat="50.00049" lon="2.36455">
        <ele>107.1</ele>
        <time>2022-11-16T14:34:05Z</time>
      </trkpt>
      <trkpt lat="50.0005" lon="2.36454">
        <ele>107.1</ele>
        <time>2022-11-16T14:34:07Z</time>
      </trkpt>
      <trkpt lat="50.00051" lon="2.36453">
        <ele>107.1</ele>
        <time>2022-11-16T14:34:08Z</time>
      </trkpt>
      <trkpt lat="50.00052" lon="2.36452">
        <ele>107.1</ele>
        <time>2022-11-16T14:34:09Z</time>
      </trkpt>
      <trkpt lat="50.00053" lon="2.36451">
        <ele>107.2</ele>
        <time>2022-11-16T14:34:10Z</time>
      </trkpt>
      <trkpt lat="50.00054" lon="2.3645">
        <ele>107.2</ele>
        <time>2022-11-16T14:34:12Z</time>
      </trkpt>
      <trkpt lat="50.00055" lon="2.36449">
        <ele>107.2</ele>
        <time>2022-11-16T14:34:13Z</time>
      </trkpt>
      <trkpt lat="50.00056" lon="2.36449">
        <ele>107.3</ele>
        <time>2022-11-16T14:34:14Z</time>
      </trkpt>
      <trkpt lat="50.00058" lon="2.36449">
        <ele>107.3</ele>
        <time>2022-11-16T14:34:15Z</time>
      </trkpt>
      <trkpt lat="50.00059" lon="2.36447">
        <ele>107.3</ele>
        <time>2022-11-16T14:34:16Z</time>
      </trkpt>
      <trkpt lat="50.0006" lon="2.36447">
        <ele>107.3</ele>
        <time>2022-11-16T14:34:18Z</time>
      </trkpt>
      <trkpt lat="50.00061" lon="2.36446">
        <ele>107.3</ele>
        <time>2022-11-16T14:34:19Z</time>
      </trkpt>
      <trkpt lat="50.00062" lon="2.36445">
        <ele>107.4</ele>
        <time>2022-11-16T14:34:20Z</time>
      </trkpt>
      <trkpt lat="50.00063" lon="2.36445">
        <ele>107.4</ele>
        <time>2022-11-16T14:34:21Z</time>
      </trkpt>
      <trkpt lat="50.00064" lon="2.36443">
        <ele>107.4</ele>
        <time>2022-11-16T14:34:22Z</time>
      </trkpt>
      <trkpt lat="50.00065" lon="2.36443">
        <ele>107.5</ele>
        <time>2022-11-16T14:34:23Z</time>
      </trkpt>
      <trkpt lat="50.00067" lon="2.36442">
        <ele>107.5</ele>
        <time>2022-11-16T14:34:25Z</time>
      </trkpt>
      <trkpt lat="50.00068" lon="2.36441">
        <ele>107.5</ele>
        <time>2022-11-16T14:34:26Z</time>
      </trkpt>
      <trkpt lat="50.00069" lon="2.36441">
        <ele>107.6</ele>
        <time>2022-11-16T14:34:27Z</time>
      </trkpt>
      <trkpt lat="50.00071" lon="2.36439">
        <ele>107.6</ele>
        <time>2022-11-16T14:34:28Z</time>
      </trkpt>
      <trkpt lat="50.00072" lon="2.36438">
        <ele>107.6</ele>
        <time>2022-11-16T14:34:29Z</time>
      </trkpt>
      <trkpt lat="50.00073" lon="2.36437">
        <ele>107.7</ele>
        <time>2022-11-16T14:34:31Z</time>
      </trkpt>
      <trkpt lat="50.00074" lon="2.36437">
        <ele>107.7</ele>
        <time>2022-11-16T14:34:32Z</time>
      </trkpt>
      <trkpt lat="50.00075" lon="2.36436">
        <ele>107.7</ele>
        <time>2022-11-16T14:34:33Z</time>
      </trkpt>
      <trkpt lat="50.00076" lon="2.36435">
        <ele>107.7</ele>
        <time>2022-11-16T14:34:34Z</time>
      </trkpt>
      <trkpt lat="50.00077" lon="2.36434">
        <ele>107.8</ele>
        <time>2022-11-16T14:34:35Z</time>
      </trkpt>
      <trkpt lat="50.00078" lon="2.36432">
        <ele>107.8</ele>
        <time>2022-11-16T14:34:37Z</time>
      </trkpt>
      <trkpt lat="50.00079" lon="2.36431">
        <ele>107.9</ele>
        <time>2022-11-16T14:34:38Z</time>
      </trkpt>
      <trkpt lat="50.0008" lon="2.3643">
        <ele>107.9</ele>
        <time>2022-11-16T14:34:39Z</time>
      </trkpt>
      <trkpt lat="50.00081" lon="2.36429">
        <ele>107.9</ele>
        <time>2022-11-16T14:34:40Z</time>
      </trkpt>
      <trkpt lat="50.00082" lon="2.36428">
        <ele>108</ele>
        <time>2022-11-16T14:34:41Z</time>
      </trkpt>
      <trkpt lat="50.00083" lon="2.36427">
        <ele>108</ele>
        <time>2022-11-16T14:34:43Z</time>
      </trkpt>
      <trkpt lat="50.00084" lon="2.36426">
        <ele>108</ele>
        <time>2022-11-16T14:34:44Z</time>
      </trkpt>
      <trkpt lat="50.00085" lon="2.36426">
        <ele>108</ele>
        <time>2022-11-16T14:34:45Z</time>
      </trkpt>
      <trkpt lat="50.00086" lon="2.36426">
        <ele>108</ele>
        <time>2022-11-16T14:34:46Z</time>
      </trkpt>
      <trkpt lat="50.00087" lon="2.36425">
        <ele>108</ele>
        <time>2022-11-16T14:34:47Z</time>
      </trkpt>
      <trkpt lat="50.00088" lon="2.36424">
        <ele>108.1</ele>
        <time>2022-11-16T14:34:48Z</time>
      </trkpt>
      <trkpt lat="50.00089" lon="2.36424">
        <ele>108.1</ele>
        <time>2022-11-16T14:34:49Z</time>
      </trkpt>
      <trkpt lat="50.0009" lon="2.36423">
        <ele>108.1</ele>
        <time>2022-11-16T14:34:50Z</time>
      </trkpt>
      <trkpt lat="50.00091" lon="2.36422">
        <ele>108.2</ele>
        <time>2022-11-16T14:34:51Z</time>
      </trkpt>
      <trkpt lat="50.00092" lon="2.36421">
        <ele>108.2</ele>
        <time>2022-11-16T14:34:53Z</time>
      </trkpt>
      <trkpt lat="50.00092" lon="2.36421">
        <ele>108.2</ele>
        <time>2022-11-16T14:34:54Z</time>
      </trkpt>
      <trkpt lat="50.00093" lon="2.3642">
        <ele>108.2</ele>
        <time>2022-11-16T14:34:55Z</time>
      </trkpt>
      <trkpt lat="50.00094" lon="2.36419">
        <ele>108.3</ele>
        <time>2022-11-16T14:34:56Z</time>
      </trkpt>
      <trkpt lat="50.00095" lon="2.36418">
        <ele>108.3</ele>
        <time>2022-11-16T14:34:57Z</time>
      </trkpt>
      <trkpt lat="50.00096" lon="2.36417">
        <ele>108.3</ele>
        <time>2022-11-16T14:34:59Z</time>
      </trkpt>
      <trkpt lat="50.00097" lon="2.36416">
        <ele>108.3</ele>
        <time>2022-11-16T14:35:00Z</time>
      </trkpt>
      <trkpt lat="50.00097" lon="2.36415">
        <ele>108.4</ele>
        <time>2022-11-16T14:35:01Z</time>
      </trkpt>
      <trkpt lat="50.00098" lon="2.36415">
        <ele>108.4</ele>
        <time>2022-11-16T14:35:02Z</time>
      </trkpt>
      <trkpt lat="50.00099" lon="2.36414">
        <ele>108.4</ele>
        <time>2022-11-16T14:35:03Z</time>
      </trkpt>
      <trkpt lat="50.001" lon="2.36413">
        <ele>108.5</ele>
        <time>2022-11-16T14:35:04Z</time>
      </trkpt>
      <trkpt lat="50.00102" lon="2.36412">
        <ele>108.5</ele>
        <time>2022-11-16T14:35:05Z</time>
      </trkpt>
      <trkpt lat="50.00102" lon="2.36411">
        <ele>108.5</ele>
        <time>2022-11-16T14:35:07Z</time>
      </trkpt>
      <trkpt lat="50.00103" lon="2.3641">
        <ele>108.5</ele>
        <time>2022-11-16T14:35:08Z</time>
      </trkpt>
      <trkpt lat="50.00104" lon="2.36409">
        <ele>108.6</ele>
        <time>2022-11-16T14:35:09Z</time>
      </trkpt>
      <trkpt lat="50.00106" lon="2.36408">
        <ele>108.6</ele>
        <time>2022-11-16T14:35:10Z</time>
      </trkpt>
      <trkpt lat="50.00106" lon="2.36408">
        <ele>108.6</ele>
        <time>2022-11-16T14:35:12Z</time>
      </trkpt>
      <trkpt lat="50.00107" lon="2.36407">
        <ele>108.6</ele>
        <time>2022-11-16T14:35:13Z</time>
      </trkpt>
      <trkpt lat="50.00108" lon="2.36407">
        <ele>108.7</ele>
        <time>2022-11-16T14:35:14Z</time>
      </trkpt>
      <trkpt lat="50.00109" lon="2.36406">
        <ele>108.7</ele>
        <time>2022-11-16T14:35:15Z</time>
      </trkpt>
      <trkpt lat="50.0011" lon="2.36406">
        <ele>108.6</ele>
        <time>2022-11-16T14:35:16Z</time>
      </trkpt>
      <trkpt lat="50.00111" lon="2.36405">
        <ele>108.7</ele>
        <time>2022-11-16T14:35:17Z</time>
      </trkpt>
      <trkpt lat="50.00112" lon="2.36406">
        <ele>108.7</ele>
        <time>2022-11-16T14:35:19Z</time>
      </trkpt>
      <trkpt lat="50.00113" lon="2.36406">
        <ele>108.7</ele>
        <time>2022-11-16T14:35:20Z</time>
      </trkpt>
      <trkpt lat="50.00114" lon="2.36406">
        <ele>108.7</ele>
        <time>2022-11-16T14:35:21Z</time>
      </trkpt>
      <trkpt lat="50.00115" lon="2.36406">
        <ele>108.8</ele>
        <time>2022-11-16T14:35:22Z</time>
      </trkpt>
      <trkpt lat="50.00116" lon="2.36408">
        <ele>108.8</ele>
        <time>2022-11-16T14:35:23Z</time>
      </trkpt>
      <trkpt lat="50.00117" lon="2.36409">
        <ele>108.8</ele>
        <time>2022-11-16T14:35:24Z</time>
      </trkpt>
      <trkpt lat="50.00118" lon="2.3641">
        <ele>108.8</ele>
        <time>2022-11-16T14:35:25Z</time>
      </trkpt>
      <trkpt lat="50.00118" lon="2.36412">
        <ele>108.9</ele>
        <time>2022-11-16T14:35:27Z</time>
      </trkpt>
      <trkpt lat="50.00119" lon="2.36413">
        <ele>108.9</ele>
        <time>2022-11-16T14:35:28Z</time>
      </trkpt>
      <trkpt lat="50.00119" lon="2.36414">
        <ele>108.9</ele>
        <time>2022-11-16T14:35:29Z</time>
      </trkpt>
      <trkpt lat="50.00119" lon="2.36416">
        <ele>108.9</ele>
        <time>2022-11-16T14:35:30Z</time>
      </trkpt>
      <trkpt lat="50.0012" lon="2.36418">
        <ele>109</ele>
        <time>2022-11-16T14:35:31Z</time>
      </trkpt>
      <trkpt lat="50.0012" lon="2.36419">
        <ele>109</ele>
        <time>2022-11-16T14:35:33Z</time>
      </trkpt>
      <trkpt lat="50.0012" lon="2.36421">
        <ele>109</ele>
        <time>2022-11-16T14:35:34Z</time>
      </trkpt>
      <trkpt lat="50.0012" lon="2.36423">
        <ele>109</ele>
        <time>2022-11-16T14:35:35Z</time>
      </trkpt>
      <trkpt lat="50.00121" lon="2.36425">
        <ele>109.1</ele>
        <time>2022-11-16T14:35:37Z</time>
      </trkpt>
      <trkpt lat="50.00121" lon="2.36427">
        <ele>109.1</ele>
        <time>2022-11-16T14:35:38Z</time>
      </trkpt>
      <trkpt lat="50.00122" lon="2.36428">
        <ele>109.1</ele>
        <time>2022-11-16T14:35:39Z</time>
      </trkpt>
      <trkpt lat="50.00123" lon="2.36431">
        <ele>109.2</ele>
        <time>2022-11-16T14:35:40Z</time>
      </trkpt>
      <trkpt lat="50.00123" lon="2.36432">
        <ele>109.2</ele>
        <time>2022-11-16T14:35:41Z</time>
      </trkpt>
      <trkpt lat="50.00124" lon="2.36433">
        <ele>109.2</ele>
        <time>2022-11-16T14:35:42Z</time>
      </trkpt>
      <trkpt lat="50.00125" lon="2.36435">
        <ele>109.3</ele>
        <time>2022-11-16T14:35:44Z</time>
      </trkpt>
      <trkpt lat="50.00125" lon="2.36437">
        <ele>109.3</ele>
        <time>2022-11-16T14:35:45Z</time>
      </trkpt>
      <trkpt lat="50.00126" lon="2.36438">
        <ele>109.3</ele>
        <time>2022-11-16T14:35:46Z</time>
      </trkpt>
      <trkpt lat="50.00127" lon="2.36439">
        <ele>109.4</ele>
        <time>2022-11-16T14:35:47Z</time>
      </trkpt>
      <trkpt lat="50.00127" lon="2.3644">
        <ele>109.4</ele>
        <time>2022-11-16T14:35:48Z</time>
      </trkpt>
      <trkpt lat="50.00128" lon="2.36442">
        <ele>109.4</ele>
        <time>2022-11-16T14:35:49Z</time>
      </trkpt>
      <trkpt lat="50.00129" lon="2.36444">
        <ele>109.4</ele>
        <time>2022-11-16T14:35:50Z</time>
      </trkpt>
      <trkpt lat="50.0013" lon="2.36445">
        <ele>109.5</ele>
        <time>2022-11-16T14:35:51Z</time>
      </trkpt>
      <trkpt lat="50.00131" lon="2.36447">
        <ele>109.5</ele>
        <time>2022-11-16T14:35:52Z</time>
      </trkpt>
      <trkpt lat="50.00131" lon="2.36448">
        <ele>109.5</ele>
        <time>2022-11-16T14:35:54Z</time>
      </trkpt>
      <trkpt lat="50.00132" lon="2.3645">
        <ele>109.6</ele>
        <time>2022-11-16T14:35:55Z</time>
      </trkpt>
      <trkpt lat="50.00132" lon="2.36452">
        <ele>109.6</ele>
        <time>2022-11-16T14:35:56Z</time>
      </trkpt>
      <trkpt lat="50.00132" lon="2.36453">
        <ele>109.6</ele>
        <time>2022-11-16T14:35:57Z</time>
      </trkpt>
      <trkpt lat="50.00133" lon="2.36456">
        <ele>109.7</ele>
        <time>2022-11-16T14:35:58Z</time>
      </trkpt>
      <trkpt lat="50.00134" lon="2.36457">
        <ele>109.7</ele>
        <time>2022-11-16T14:35:59Z</time>
      </trkpt>
      <trkpt lat="50.00134" lon="2.36459">
        <ele>109.7</ele>
        <time>2022-11-16T14:36:00Z</time>
      </trkpt>
      <trkpt lat="50.00135" lon="2.36462">
        <ele>109.8</ele>
        <time>2022-11-16T14:36:02Z</time>
      </trkpt>
      <trkpt lat="50.00135" lon="2.36463">
        <ele>109.8</ele>
        <time>2022-11-16T14:36:03Z</time>
      </trkpt>
      <trkpt lat="50.00135" lon="2.36464">
        <ele>109.8</ele>
        <time>2022-11-16T14:36:04Z</time>
      </trkpt>
      <trkpt lat="50.00136" lon="2.36467">
        <ele>109.9</ele>
        <time>2022-11-16T14:36:05Z</time>
      </trkpt>
      <trkpt lat="50.00136" lon="2.36469">
        <ele>109.9</ele>
        <time>2022-11-16T14:36:06Z</time>
      </trkpt>
      <trkpt lat="50.00136" lon="2.3647">
        <ele>109.9</ele>
        <time>2022-11-16T14:36:07Z</time>
      </trkpt>
      <trkpt lat="50.00136" lon="2.36472">
        <ele>109.9</ele>
        <time>2022-11-16T14:36:09Z</time>
      </trkpt>
      <trkpt lat="50.00137" lon="2.36473">
        <ele>110</ele>
        <time>2022-11-16T14:36:10Z</time>
      </trkpt>
      <trkpt lat="50.00137" lon="2.36475">
        <ele>110</ele>
        <time>2022-11-16T14:36:11Z</time>
      </trkpt>
      <trkpt lat="50.00138" lon="2.36477">
        <ele>110</ele>
        <time>2022-11-16T14:36:12Z</time>
      </trkpt>
      <trkpt lat="50.00138" lon="2.36479">
        <ele>110</ele>
        <time>2022-11-16T14:36:13Z</time>
      </trkpt>
      <trkpt lat="50.00139" lon="2.3648">
        <ele>110.1</ele>
        <time>2022-11-16T14:36:15Z</time>
      </trkpt>
      <trkpt lat="50.00139" lon="2.36482">
        <ele>110.1</ele>
        <time>2022-11-16T14:36:16Z</time>
      </trkpt>
      <trkpt lat="50.0014" lon="2.36483">
        <ele>110.1</ele>
        <time>2022-11-16T14:36:17Z</time>
      </trkpt>
      <trkpt lat="50.0014" lon="2.36485">
        <ele>110.2</ele>
        <time>2022-11-16T14:36:18Z</time>
      </trkpt>
      <trkpt lat="50.0014" lon="2.36488">
        <ele>110.2</ele>
        <time>2022-11-16T14:36:19Z</time>
      </trkpt>
      <trkpt lat="50.00141" lon="2.36489">
        <ele>110.2</ele>
        <time>2022-11-16T14:36:20Z</time>
      </trkpt>
      <trkpt lat="50.00141" lon="2.36491">
        <ele>110.3</ele>
        <time>2022-11-16T14:36:21Z</time>
      </trkpt>
      <trkpt lat="50.00142" lon="2.36492">
        <ele>110.3</ele>
        <time>2022-11-16T14:36:22Z</time>
      </trkpt>
      <trkpt lat="50.00142" lon="2.36494">
        <ele>110.3</ele>
        <time>2022-11-16T14:36:24Z</time>
      </trkpt>
      <trkpt lat="50.00142" lon="2.36496">
        <ele>110.3</ele>
        <time>2022-11-16T14:36:25Z</time>
      </trkpt>
      <trkpt lat="50.00143" lon="2.36498">
        <ele>110.4</ele>
        <time>2022-11-16T14:36:26Z</time>
      </trkpt>
      <trkpt lat="50.00143" lon="2.36499">
        <ele>110.4</ele>
        <time>2022-11-16T14:36:27Z</time>
      </trkpt>
      <trkpt lat="50.00143" lon="2.36501">
        <ele>110.4</ele>
        <time>2022-11-16T14:36:28Z</time>
      </trkpt>
      <trkpt lat="50.00144" lon="2.36503">
        <ele>110.5</ele>
        <time>2022-11-16T14:36:29Z</time>
      </trkpt>
      <trkpt lat="50.00144" lon="2.36505">
        <ele>110.5</ele>
        <time>2022-11-16T14:36:30Z</time>
      </trkpt>
      <trkpt lat="50.00145" lon="2.36506">
        <ele>110.5</ele>
        <time>2022-11-16T14:36:32Z</time>
      </trkpt>
      <trkpt lat="50.00145" lon="2.36508">
        <ele>110.5</ele>
        <time>2022-11-16T14:36:33Z</time>
      </trkpt>
      <trkpt lat="50.00145" lon="2.36509">
        <ele>110.6</ele>
        <time>2022-11-16T14:36:34Z</time>
      </trkpt>
      <trkpt lat="50.00146" lon="2.36511">
        <ele>110.6</ele>
        <time>2022-11-16T14:36:35Z</time>
      </trkpt>
      <trkpt lat="50.00146" lon="2.36512">
        <ele>110.6</ele>
        <time>2022-11-16T14:36:36Z</time>
      </trkpt>
      <trkpt lat="50.00147" lon="2.36514">
        <ele>110.6</ele>
        <time>2022-11-16T14:36:37Z</time>
      </trkpt>
      <trkpt lat="50.00147" lon="2.36516">
        <ele>110.7</ele>
        <time>2022-11-16T14:36:39Z</time>
      </trkpt>
      <trkpt lat="50.00148" lon="2.36517">
        <ele>110.7</ele>
        <time>2022-11-16T14:36:40Z</time>
      </trkpt>
      <trkpt lat="50.00148" lon="2.36518">
        <ele>110.7</ele>
        <time>2022-11-16T14:36:41Z</time>
      </trkpt>
      <trkpt lat="50.00149" lon="2.3652">
        <ele>110.8</ele>
        <time>2022-11-16T14:36:42Z</time>
      </trkpt>
      <trkpt lat="50.00149" lon="2.36523">
        <ele>110.8</ele>
        <time>2022-11-16T14:36:43Z</time>
      </trkpt>
      <trkpt lat="50.0015" lon="2.36524">
        <ele>110.8</ele>
        <time>2022-11-16T14:36:44Z</time>
      </trkpt>
      <trkpt lat="50.0015" lon="2.36526">
        <ele>110.9</ele>
        <time>2022-11-16T14:36:45Z</time>
      </trkpt>
      <trkpt lat="50.00151" lon="2.36528">
        <ele>110.9</ele>
        <time>2022-11-16T14:36:46Z</time>
      </trkpt>
      <trkpt lat="50.00151" lon="2.3653">
        <ele>110.9</ele>
        <time>2022-11-16T14:36:48Z</time>
      </trkpt>
      <trkpt lat="50.00152" lon="2.36531">
        <ele>110.9</ele>
        <time>2022-11-16T14:36:49Z</time>
      </trkpt>
      <trkpt lat="50.00152" lon="2.36533">
        <ele>111</ele>
        <time>2022-11-16T14:36:50Z</time>
      </trkpt>
      <trkpt lat="50.00152" lon="2.36534">
        <ele>111</ele>
        <time>2022-11-16T14:36:51Z</time>
      </trkpt>
      <trkpt lat="50.00153" lon="2.36536">
        <ele>111</ele>
        <time>2022-11-16T14:36:52Z</time>
      </trkpt>
      <trkpt lat="50.00153" lon="2.36538">
        <ele>111.1</ele>
        <time>2022-11-16T14:36:53Z</time>
      </trkpt>
      <trkpt lat="50.00154" lon="2.3654">
        <ele>111.1</ele>
        <time>2022-11-16T14:36:55Z</time>
      </trkpt>
      <trkpt lat="50.00154" lon="2.36541">
        <ele>111.1</ele>
        <time>2022-11-16T14:36:56Z</time>
      </trkpt>
      <trkpt lat="50.00155" lon="2.36543">
        <ele>111.1</ele>
        <time>2022-11-16T14:36:57Z</time>
      </trkpt>
      <trkpt lat="50.00155" lon="2.36544">
        <ele>111.2</ele>
        <time>2022-11-16T14:36:58Z</time>
      </trkpt>
      <trkpt lat="50.00156" lon="2.36546">
        <ele>111.2</ele>
        <time>2022-11-16T14:36:59Z</time>
      </trkpt>
      <trkpt lat="50.00156" lon="2.36548">
        <ele>111.2</ele>
        <time>2022-11-16T14:37:00Z</time>
      </trkpt>
      <trkpt lat="50.00156" lon="2.3655">
        <ele>111.3</ele>
        <time>2022-11-16T14:37:02Z</time>
      </trkpt>
      <trkpt lat="50.00157" lon="2.36551">
        <ele>111.3</ele>
        <time>2022-11-16T14:37:03Z</time>
      </trkpt>
      <trkpt lat="50.00157" lon="2.36553">
        <ele>111.3</ele>
        <time>2022-11-16T14:37:04Z</time>
      </trkpt>
      <trkpt lat="50.00157" lon="2.36554">
        <ele>111.3</ele>
        <time>2022-11-16T14:37:05Z</time>
      </trkpt>
      <trkpt lat="50.00158" lon="2.36556">
        <ele>111.4</ele>
        <time>2022-11-16T14:37:06Z</time>
      </trkpt>
      <trkpt lat="50.00158" lon="2.36558">
        <ele>111.4</ele>
        <time>2022-11-16T14:37:07Z</time>
      </trkpt>
      <trkpt lat="50.00158" lon="2.36559">
        <ele>111.4</ele>
        <time>2022-11-16T14:37:08Z</time>
      </trkpt>
      <trkpt lat="50.00159" lon="2.36561">
        <ele>111.5</ele>
        <time>2022-11-16T14:37:10Z</time>
      </trkpt>
      <trkpt lat="50.00159" lon="2.36562">
        <ele>111.5</ele>
        <time>2022-11-16T14:37:11Z</time>
      </trkpt>
      <trkpt lat="50.00159" lon="2.36564">
        <ele>111.5</ele>
        <time>2022-11-16T14:37:12Z</time>
      </trkpt>
      <trkpt lat="50.0016" lon="2.36566">
        <ele>111.5</ele>
        <time>2022-11-16T14:37:13Z</time>
      </trkpt>
      <trkpt lat="50.0016" lon="2.36568">
        <ele>111.6</ele>
        <time>2022-11-16T14:37:14Z</time>
      </trkpt>
      <trkpt lat="50.00161" lon="2.36569">
        <ele>111.6</ele>
        <time>2022-11-16T14:37:15Z</time>
      </trkpt>
      <trkpt lat="50.00161" lon="2.36571">
        <ele>111.6</ele>
        <time>2022-11-16T14:37:16Z</time>
      </trkpt>
      <trkpt lat="50.00162" lon="2.36572">
        <ele>111.6</ele>
        <time>2022-11-16T14:37:18Z</time>
      </trkpt>
      <trkpt lat="50.00162" lon="2.36574">
        <ele>111.7</ele>
        <time>2022-11-16T14:37:19Z</time>
      </trkpt>
      <trkpt lat="50.00162" lon="2.36575">
        <ele>111.7</ele>
        <time>2022-11-16T14:37:20Z</time>
      </trkpt>
      <trkpt lat="50.00163" lon="2.36577">
        <ele>111.7</ele>
        <time>2022-11-16T14:37:21Z</time>
      </trkpt>
      <trkpt lat="50.00163" lon="2.36579">
        <ele>111.8</ele>
        <time>2022-11-16T14:37:22Z</time>
      </trkpt>
      <trkpt lat="50.00164" lon="2.3658">
        <ele>111.8</ele>
        <time>2022-11-16T14:37:24Z</time>
      </trkpt>
      <trkpt lat="50.00164" lon="2.36582">
        <ele>111.8</ele>
        <time>2022-11-16T14:37:25Z</time>
      </trkpt>
      <trkpt lat="50.00164" lon="2.36583">
        <ele>111.8</ele>
        <time>2022-11-16T14:37:26Z</time>
      </trkpt>
      <trkpt lat="50.00165" lon="2.36585">
        <ele>111.9</ele>
        <time>2022-11-16T14:37:27Z</time>
      </trkpt>
      <trkpt lat="50.00166" lon="2.36587">
        <ele>111.9</ele>
        <time>2022-11-16T14:37:28Z</time>
      </trkpt>
      <trkpt lat="50.00166" lon="2.36588">
        <ele>111.9</ele>
        <time>2022-11-16T14:37:29Z</time>
      </trkpt>
      <trkpt lat="50.00167" lon="2.36589">
        <ele>111.9</ele>
        <time>2022-11-16T14:37:31Z</time>
      </trkpt>
      <trkpt lat="50.00167" lon="2.36591">
        <ele>112</ele>
        <time>2022-11-16T14:37:32Z</time>
      </trkpt>
      <trkpt lat="50.00168" lon="2.36592">
        <ele>112</ele>
        <time>2022-11-16T14:37:33Z</time>
      </trkpt>
      <trkpt lat="50.00168" lon="2.36594">
        <ele>112</ele>
        <time>2022-11-16T14:37:34Z</time>
      </trkpt>
      <trkpt lat="50.00169" lon="2.36597">
        <ele>112.1</ele>
        <time>2022-11-16T14:37:35Z</time>
      </trkpt>
      <trkpt lat="50.0017" lon="2.36598">
        <ele>112.1</ele>
        <time>2022-11-16T14:37:37Z</time>
      </trkpt>
      <trkpt lat="50.0017" lon="2.36599">
        <ele>112.1</ele>
        <time>2022-11-16T14:37:38Z</time>
      </trkpt>
      <trkpt lat="50.00171" lon="2.36601">
        <ele>112.2</ele>
        <time>2022-11-16T14:37:39Z</time>
      </trkpt>
      <trkpt lat="50.00172" lon="2.36602">
        <ele>112.2</ele>
        <time>2022-11-16T14:37:40Z</time>
      </trkpt>
      <trkpt lat="50.00172" lon="2.36603">
        <ele>112.2</ele>
        <time>2022-11-16T14:37:42Z</time>
      </trkpt>
      <trkpt lat="50.00173" lon="2.36604">
        <ele>112.2</ele>
        <time>2022-11-16T14:37:43Z</time>
      </trkpt>
      <trkpt lat="50.00174" lon="2.36606">
        <ele>112.3</ele>
        <time>2022-11-16T14:37:44Z</time>
      </trkpt>
      <trkpt lat="50.00174" lon="2.36608">
        <ele>112.3</ele>
        <time>2022-11-16T14:37:45Z</time>
      </trkpt>
      <trkpt lat="50.00175" lon="2.36609">
        <ele>112.3</ele>
        <time>2022-11-16T14:37:47Z</time>
      </trkpt>
      <trkpt lat="50.00175" lon="2.36611">
        <ele>112.3</ele>
        <time>2022-11-16T14:37:48Z</time>
      </trkpt>
      <trkpt lat="50.00175" lon="2.36612">
        <ele>112.4</ele>
        <time>2022-11-16T14:37:49Z</time>
      </trkpt>
      <trkpt lat="50.00175" lon="2.36613">
        <ele>112.4</ele>
        <time>2022-11-16T14:37:50Z</time>
      </trkpt>
      <trkpt lat="50.00176" lon="2.36616">
        <ele>112.4</ele>
        <time>2022-11-16T14:37:51Z</time>
      </trkpt>
      <trkpt lat="50.00177" lon="2.36617">
        <ele>112.4</ele>
        <time>2022-11-16T14:37:52Z</time>
      </trkpt>
      <trkpt lat="50.00177" lon="2.36618">
        <ele>112.5</ele>
        <time>2022-11-16T14:37:54Z</time>
      </trkpt>
      <trkpt lat="50.00178" lon="2.36619">
        <ele>112.5</ele>
        <time>2022-11-16T14:37:55Z</time>
      </trkpt>
      <trkpt lat="50.00178" lon="2.3662">
        <ele>112.5</ele>
        <time>2022-11-16T14:37:56Z</time>
      </trkpt>
      <trkpt lat="50.00178" lon="2.3662">
        <ele>112.5</ele>
        <time>2022-11-16T14:37:57Z</time>
      </trkpt>
      <trkpt lat="50.00179" lon="2.36621">
        <ele>112.5</ele>
        <time>2022-11-16T14:37:58Z</time>
      </trkpt>
      <trkpt lat="50.00179" lon="2.36623">
        <ele>112.6</ele>
        <time>2022-11-16T14:37:59Z</time>
      </trkpt>
      <trkpt lat="50.0018" lon="2.36624">
        <ele>112.6</ele>
        <time>2022-11-16T14:38:01Z</time>
      </trkpt>
      <trkpt lat="50.0018" lon="2.36625">
        <ele>112.6</ele>
        <time>2022-11-16T14:38:02Z</time>
      </trkpt>
      <trkpt lat="50.0018" lon="2.36627">
        <ele>112.6</ele>
        <time>2022-11-16T14:38:03Z</time>
      </trkpt>
      <trkpt lat="50.00179" lon="2.36628">
        <ele>112.7</ele>
        <time>2022-11-16T14:38:04Z</time>
      </trkpt>
      <trkpt lat="50.00179" lon="2.3663">
        <ele>112.7</ele>
        <time>2022-11-16T14:38:06Z</time>
      </trkpt>
      <trkpt lat="50.00179" lon="2.36631">
        <ele>112.7</ele>
        <time>2022-11-16T14:38:07Z</time>
      </trkpt>
      <trkpt lat="50.0018" lon="2.36632">
        <ele>112.7</ele>
        <time>2022-11-16T14:38:08Z</time>
      </trkpt>
      <trkpt lat="50.0018" lon="2.36634">
        <ele>112.7</ele>
        <time>2022-11-16T14:38:09Z</time>
      </trkpt>
      <trkpt lat="50.0018" lon="2.36635">
        <ele>112.8</ele>
        <time>2022-11-16T14:38:10Z</time>
      </trkpt>
      <trkpt lat="50.0018" lon="2.36637">
        <ele>112.8</ele>
        <time>2022-11-16T14:38:11Z</time>
      </trkpt>
      <trkpt lat="50.0018" lon="2.36638">
        <ele>112.8</ele>
        <time>2022-11-16T14:38:13Z</time>
      </trkpt>
      <trkpt lat="50.0018" lon="2.3664">
        <ele>112.8</ele>
        <time>2022-11-16T14:38:14Z</time>
      </trkpt>
      <trkpt lat="50.0018" lon="2.36642">
        <ele>112.9</ele>
        <time>2022-11-16T14:38:15Z</time>
      </trkpt>
      <trkpt lat="50.00181" lon="2.36643">
        <ele>112.9</ele>
        <time>2022-11-16T14:38:16Z</time>
      </trkpt>
      <trkpt lat="50.00181" lon="2.36645">
        <ele>112.9</ele>
        <time>2022-11-16T14:38:18Z</time>
      </trkpt>
      <trkpt lat="50.00181" lon="2.36646">
        <ele>112.9</ele>
        <time>2022-11-16T14:38:19Z</time>
      </trkpt>
      <trkpt lat="50.00181" lon="2.36647">
        <ele>113</ele>
        <time>2022-11-16T14:38:20Z</time>
      </trkpt>
      <trkpt lat="50.00181" lon="2.36648">
        <ele>113</ele>
        <time>2022-11-16T14:38:21Z</time>
      </trkpt>
      <trkpt lat="50.00182" lon="2.36649">
        <ele>113</ele>
        <time>2022-11-16T14:38:22Z</time>
      </trkpt>
      <trkpt lat="50.00182" lon="2.36652">
        <ele>113</ele>
        <time>2022-11-16T14:38:23Z</time>
      </trkpt>
      <trkpt lat="50.00183" lon="2.36653">
        <ele>113.1</ele>
        <time>2022-11-16T14:38:25Z</time>
      </trkpt>
      <trkpt lat="50.00183" lon="2.36654">
        <ele>113.1</ele>
        <time>2022-11-16T14:38:26Z</time>
      </trkpt>
      <trkpt lat="50.00183" lon="2.36655">
        <ele>113.1</ele>
        <time>2022-11-16T14:38:27Z</time>
      </trkpt>
      <trkpt lat="50.00184" lon="2.36656">
        <ele>113.1</ele>
        <time>2022-11-16T14:38:28Z</time>
      </trkpt>
      <trkpt lat="50.00184" lon="2.36657">
        <ele>113.1</ele>
        <time>2022-11-16T14:38:30Z</time>
      </trkpt>
      <trkpt lat="50.00184" lon="2.36659">
        <ele>113.2</ele>
        <time>2022-11-16T14:38:31Z</time>
      </trkpt>
      <trkpt lat="50.00185" lon="2.3666">
        <ele>113.2</ele>
        <time>2022-11-16T14:38:32Z</time>
      </trkpt>
      <trkpt lat="50.00185" lon="2.36661">
        <ele>113.2</ele>
        <time>2022-11-16T14:38:33Z</time>
      </trkpt>
      <trkpt lat="50.00186" lon="2.36663">
        <ele>113.2</ele>
        <time>2022-11-16T14:38:34Z</time>
      </trkpt>
      <trkpt lat="50.00186" lon="2.36664">
        <ele>113.3</ele>
        <time>2022-11-16T14:38:35Z</time>
      </trkpt>
      <trkpt lat="50.00187" lon="2.36666">
        <ele>113.3</ele>
        <time>2022-11-16T14:38:36Z</time>
      </trkpt>
      <trkpt lat="50.00187" lon="2.36668">
        <ele>113.3</ele>
        <time>2022-11-16T14:38:38Z</time>
      </trkpt>
      <trkpt lat="50.00188" lon="2.36669">
        <ele>113.3</ele>
        <time>2022-11-16T14:38:39Z</time>
      </trkpt>
      <trkpt lat="50.00188" lon="2.36671">
        <ele>113.4</ele>
        <time>2022-11-16T14:38:40Z</time>
      </trkpt>
      <trkpt lat="50.00189" lon="2.36672">
        <ele>113.4</ele>
        <time>2022-11-16T14:38:41Z</time>
      </trkpt>
      <trkpt lat="50.00189" lon="2.36673">
        <ele>113.4</ele>
        <time>2022-11-16T14:38:42Z</time>
      </trkpt>
      <trkpt lat="50.00189" lon="2.36674">
        <ele>113.4</ele>
        <time>2022-11-16T14:38:43Z</time>
      </trkpt>
      <trkpt lat="50.0019" lon="2.36676">
        <ele>113.5</ele>
        <time>2022-11-16T14:38:44Z</time>
      </trkpt>
      <trkpt lat="50.0019" lon="2.36677">
        <ele>113.5</ele>
        <time>2022-11-16T14:38:45Z</time>
      </trkpt>
      <trkpt lat="50.00191" lon="2.3668">
        <ele>113.5</ele>
        <time>2022-11-16T14:38:47Z</time>
      </trkpt>
      <trkpt lat="50.00191" lon="2.36682">
        <ele>113.6</ele>
        <time>2022-11-16T14:38:48Z</time>
      </trkpt>
      <trkpt lat="50.00192" lon="2.36683">
        <ele>113.6</ele>
        <time>2022-11-16T14:38:49Z</time>
      </trkpt>
      <trkpt lat="50.00192" lon="2.36685">
        <ele>113.6</ele>
        <time>2022-11-16T14:38:50Z</time>
      </trkpt>
      <trkpt lat="50.00192" lon="2.36687">
        <ele>113.6</ele>
        <time>2022-11-16T14:38:51Z</time>
      </trkpt>
      <trkpt lat="50.00193" lon="2.36688">
        <ele>113.7</ele>
        <time>2022-11-16T14:38:52Z</time>
      </trkpt>
      <trkpt lat="50.00193" lon="2.3669">
        <ele>113.7</ele>
        <time>2022-11-16T14:38:54Z</time>
      </trkpt>
      <trkpt lat="50.00193" lon="2.36691">
        <ele>113.7</ele>
        <time>2022-11-16T14:38:55Z</time>
      </trkpt>
      <trkpt lat="50.00194" lon="2.36694">
        <ele>113.8</ele>
        <time>2022-11-16T14:38:56Z</time>
      </trkpt>
      <trkpt lat="50.00194" lon="2.36695">
        <ele>113.8</ele>
        <time>2022-11-16T14:38:57Z</time>
      </trkpt>
      <trkpt lat="50.00194" lon="2.36696">
        <ele>113.8</ele>
        <time>2022-11-16T14:38:58Z</time>
      </trkpt>
      <trkpt lat="50.00195" lon="2.36698">
        <ele>113.8</ele>
        <time>2022-11-16T14:38:59Z</time>
      </trkpt>
      <trkpt lat="50.00195" lon="2.367">
        <ele>113.9</ele>
        <time>2022-11-16T14:39:01Z</time>
      </trkpt>
      <trkpt lat="50.00196" lon="2.36701">
        <ele>113.9</ele>
        <time>2022-11-16T14:39:02Z</time>
      </trkpt>
      <trkpt lat="50.00196" lon="2.36702">
        <ele>113.9</ele>
        <time>2022-11-16T14:39:03Z</time>
      </trkpt>
      <trkpt lat="50.00197" lon="2.36704">
        <ele>113.9</ele>
        <time>2022-11-16T14:39:04Z</time>
      </trkpt>
      <trkpt lat="50.00197" lon="2.36705">
        <ele>114</ele>
        <time>2022-11-16T14:39:05Z</time>
      </trkpt>
      <trkpt lat="50.00197" lon="2.36706">
        <ele>114</ele>
        <time>2022-11-16T14:39:06Z</time>
      </trkpt>
      <trkpt lat="50.00197" lon="2.36707">
        <ele>114</ele>
        <time>2022-11-16T14:39:07Z</time>
      </trkpt>
      <trkpt lat="50.00197" lon="2.36708">
        <ele>114</ele>
        <time>2022-11-16T14:39:08Z</time>
      </trkpt>
      <trkpt lat="50.00198" lon="2.3671">
        <ele>114</ele>
        <time>2022-11-16T14:39:09Z</time>
      </trkpt>
      <trkpt lat="50.00199" lon="2.36712">
        <ele>114.1</ele>
        <time>2022-11-16T14:39:10Z</time>
      </trkpt>
      <trkpt lat="50.00199" lon="2.36714">
        <ele>114.1</ele>
        <time>2022-11-16T14:39:11Z</time>
      </trkpt>
      <trkpt lat="50.002" lon="2.36716">
        <ele>114.1</ele>
        <time>2022-11-16T14:39:13Z</time>
      </trkpt>
      <trkpt lat="50.002" lon="2.36717">
        <ele>114.2</ele>
        <time>2022-11-16T14:39:14Z</time>
      </trkpt>
      <trkpt lat="50.002" lon="2.36718">
        <ele>114.2</ele>
        <time>2022-11-16T14:39:15Z</time>
      </trkpt>
      <trkpt lat="50.00201" lon="2.3672">
        <ele>114.2</ele>
        <time>2022-11-16T14:39:16Z</time>
      </trkpt>
      <trkpt lat="50.00202" lon="2.36723">
        <ele>114.3</ele>
        <time>2022-11-16T14:39:17Z</time>
      </trkpt>
      <trkpt lat="50.00202" lon="2.36724">
        <ele>114.3</ele>
        <time>2022-11-16T14:39:18Z</time>
      </trkpt>
      <trkpt lat="50.00202" lon="2.36725">
        <ele>114.3</ele>
        <time>2022-11-16T14:39:19Z</time>
      </trkpt>
      <trkpt lat="50.00203" lon="2.36727">
        <ele>114.3</ele>
        <time>2022-11-16T14:39:21Z</time>
      </trkpt>
      <trkpt lat="50.00203" lon="2.36728">
        <ele>114.4</ele>
        <time>2022-11-16T14:39:22Z</time>
      </trkpt>
      <trkpt lat="50.00203" lon="2.3673">
        <ele>114.4</ele>
        <time>2022-11-16T14:39:23Z</time>
      </trkpt>
      <trkpt lat="50.00204" lon="2.36732">
        <ele>114.4</ele>
        <time>2022-11-16T14:39:24Z</time>
      </trkpt>
      <trkpt lat="50.00204" lon="2.36734">
        <ele>114.4</ele>
        <time>2022-11-16T14:39:25Z</time>
      </trkpt>
      <trkpt lat="50.00205" lon="2.36735">
        <ele>114.5</ele>
        <time>2022-11-16T14:39:26Z</time>
      </trkpt>
      <trkpt lat="50.00205" lon="2.36737">
        <ele>114.5</ele>
        <time>2022-11-16T14:39:27Z</time>
      </trkpt>
      <trkpt lat="50.00206" lon="2.36739">
        <ele>114.5</ele>
        <time>2022-11-16T14:39:28Z</time>
      </trkpt>
      <trkpt lat="50.00207" lon="2.36742">
        <ele>114.6</ele>
        <time>2022-11-16T14:39:30Z</time>
      </trkpt>
      <trkpt lat="50.00207" lon="2.36743">
        <ele>114.6</ele>
        <time>2022-11-16T14:39:31Z</time>
      </trkpt>
      <trkpt lat="50.00208" lon="2.36744">
        <ele>114.6</ele>
        <time>2022-11-16T14:39:32Z</time>
      </trkpt>
      <trkpt lat="50.00209" lon="2.36747">
        <ele>114.7</ele>
        <time>2022-11-16T14:39:33Z</time>
      </trkpt>
      <trkpt lat="50.00209" lon="2.36748">
        <ele>114.7</ele>
        <time>2022-11-16T14:39:34Z</time>
      </trkpt>
      <trkpt lat="50.00209" lon="2.36749">
        <ele>114.7</ele>
        <time>2022-11-16T14:39:35Z</time>
      </trkpt>
      <trkpt lat="50.0021" lon="2.36751">
        <ele>114.8</ele>
        <time>2022-11-16T14:39:36Z</time>
      </trkpt>
      <trkpt lat="50.00211" lon="2.36753">
        <ele>114.8</ele>
        <time>2022-11-16T14:39:38Z</time>
      </trkpt>
      <trkpt lat="50.00211" lon="2.36754">
        <ele>114.8</ele>
        <time>2022-11-16T14:39:39Z</time>
      </trkpt>
      <trkpt lat="50.00211" lon="2.36755">
        <ele>114.8</ele>
        <time>2022-11-16T14:39:40Z</time>
      </trkpt>
      <trkpt lat="50.00212" lon="2.36757">
        <ele>114.9</ele>
        <time>2022-11-16T14:39:41Z</time>
      </trkpt>
      <trkpt lat="50.00212" lon="2.36758">
        <ele>114.9</ele>
        <time>2022-11-16T14:39:42Z</time>
      </trkpt>
      <trkpt lat="50.00213" lon="2.3676">
        <ele>114.9</ele>
        <time>2022-11-16T14:39:43Z</time>
      </trkpt>
      <trkpt lat="50.00213" lon="2.36761">
        <ele>114.9</ele>
        <time>2022-11-16T14:39:44Z</time>
      </trkpt>
      <trkpt lat="50.00214" lon="2.36763">
        <ele>115</ele>
        <time>2022-11-16T14:39:45Z</time>
      </trkpt>
      <trkpt lat="50.00214" lon="2.36764">
        <ele>115</ele>
        <time>2022-11-16T14:39:46Z</time>
      </trkpt>
      <trkpt lat="50.00214" lon="2.36766">
        <ele>115</ele>
        <time>2022-11-16T14:39:47Z</time>
      </trkpt>
      <trkpt lat="50.00214" lon="2.36767">
        <ele>115</ele>
        <time>2022-11-16T14:39:48Z</time>
      </trkpt>
      <trkpt lat="50.00215" lon="2.36769">
        <ele>115.1</ele>
        <time>2022-11-16T14:39:50Z</time>
      </trkpt>
      <trkpt lat="50.00215" lon="2.36771">
        <ele>115.1</ele>
        <time>2022-11-16T14:39:51Z</time>
      </trkpt>
      <trkpt lat="50.00215" lon="2.36772">
        <ele>115.1</ele>
        <time>2022-11-16T14:39:52Z</time>
      </trkpt>
      <trkpt lat="50.00216" lon="2.36774">
        <ele>115.1</ele>
        <time>2022-11-16T14:39:53Z</time>
      </trkpt>
      <trkpt lat="50.00216" lon="2.36776">
        <ele>115.2</ele>
        <time>2022-11-16T14:39:54Z</time>
      </trkpt>
      <trkpt lat="50.00217" lon="2.36777">
        <ele>115.2</ele>
        <time>2022-11-16T14:39:55Z</time>
      </trkpt>
      <trkpt lat="50.00217" lon="2.36779">
        <ele>115.2</ele>
        <time>2022-11-16T14:39:56Z</time>
      </trkpt>
      <trkpt lat="50.00217" lon="2.3678">
        <ele>115.3</ele>
        <time>2022-11-16T14:39:57Z</time>
      </trkpt>
      <trkpt lat="50.00218" lon="2.36782">
        <ele>115.3</ele>
        <time>2022-11-16T14:39:59Z</time>
      </trkpt>
      <trkpt lat="50.00218" lon="2.36784">
        <ele>115.3</ele>
        <time>2022-11-16T14:40:00Z</time>
      </trkpt>
      <trkpt lat="50.00219" lon="2.36785">
        <ele>115.3</ele>
        <time>2022-11-16T14:40:01Z</time>
      </trkpt>
      <trkpt lat="50.00219" lon="2.36787">
        <ele>115.4</ele>
        <time>2022-11-16T14:40:02Z</time>
      </trkpt>
      <trkpt lat="50.00219" lon="2.36789">
        <ele>115.4</ele>
        <time>2022-11-16T14:40:03Z</time>
      </trkpt>
      <trkpt lat="50.0022" lon="2.3679">
        <ele>115.4</ele>
        <time>2022-11-16T14:40:04Z</time>
      </trkpt>
      <trkpt lat="50.0022" lon="2.36792">
        <ele>115.5</ele>
        <time>2022-11-16T14:40:06Z</time>
      </trkpt>
      <trkpt lat="50.0022" lon="2.36794">
        <ele>115.5</ele>
        <time>2022-11-16T14:40:07Z</time>
      </trkpt>
      <trkpt lat="50.00221" lon="2.36796">
        <ele>115.5</ele>
        <time>2022-11-16T14:40:08Z</time>
      </trkpt>
      <trkpt lat="50.00221" lon="2.36798">
        <ele>115.5</ele>
        <time>2022-11-16T14:40:09Z</time>
      </trkpt>
      <trkpt lat="50.00221" lon="2.368">
        <ele>115.6</ele>
        <time>2022-11-16T14:40:10Z</time>
      </trkpt>
      <trkpt lat="50.00222" lon="2.36801">
        <ele>115.6</ele>
        <time>2022-11-16T14:40:11Z</time>
      </trkpt>
      <trkpt lat="50.00223" lon="2.36804">
        <ele>115.7</ele>
        <time>2022-11-16T14:40:12Z</time>
      </trkpt>
      <trkpt lat="50.00223" lon="2.36805">
        <ele>115.7</ele>
        <time>2022-11-16T14:40:14Z</time>
      </trkpt>
      <trkpt lat="50.00223" lon="2.36807">
        <ele>115.7</ele>
        <time>2022-11-16T14:40:15Z</time>
      </trkpt>
      <trkpt lat="50.00224" lon="2.36809">
        <ele>115.7</ele>
        <time>2022-11-16T14:40:16Z</time>
      </trkpt>
      <trkpt lat="50.00224" lon="2.3681">
        <ele>115.8</ele>
        <time>2022-11-16T14:40:17Z</time>
      </trkpt>
      <trkpt lat="50.00224" lon="2.36812">
        <ele>115.8</ele>
        <time>2022-11-16T14:40:18Z</time>
      </trkpt>
      <trkpt lat="50.00225" lon="2.36814">
        <ele>115.8</ele>
        <time>2022-11-16T14:40:19Z</time>
      </trkpt>
      <trkpt lat="50.00225" lon="2.36815">
        <ele>115.8</ele>
        <time>2022-11-16T14:40:21Z</time>
      </trkpt>
      <trkpt lat="50.00225" lon="2.36817">
        <ele>115.9</ele>
        <time>2022-11-16T14:40:22Z</time>
      </trkpt>
      <trkpt lat="50.00226" lon="2.36818">
        <ele>115.9</ele>
        <time>2022-11-16T14:40:23Z</time>
      </trkpt>
      <trkpt lat="50.00226" lon="2.3682">
        <ele>115.9</ele>
        <time>2022-11-16T14:40:24Z</time>
      </trkpt>
      <trkpt lat="50.00226" lon="2.36821">
        <ele>115.9</ele>
        <time>2022-11-16T14:40:25Z</time>
      </trkpt>
      <trkpt lat="50.00227" lon="2.36822">
        <ele>116</ele>
        <time>2022-11-16T14:40:26Z</time>
      </trkpt>
      <trkpt lat="50.00227" lon="2.36824">
        <ele>116</ele>
        <time>2022-11-16T14:40:27Z</time>
      </trkpt>
      <trkpt lat="50.00227" lon="2.36825">
        <ele>116</ele>
        <time>2022-11-16T14:40:28Z</time>
      </trkpt>
      <trkpt lat="50.00228" lon="2.36827">
        <ele>116</ele>
        <time>2022-11-16T14:40:29Z</time>
      </trkpt>
      <trkpt lat="50.00228" lon="2.36828">
        <ele>116.1</ele>
        <time>2022-11-16T14:40:30Z</time>
      </trkpt>
      <trkpt lat="50.00229" lon="2.3683">
        <ele>116.1</ele>
        <time>2022-11-16T14:40:31Z</time>
      </trkpt>
      <trkpt lat="50.00229" lon="2.36832">
        <ele>116.1</ele>
        <time>2022-11-16T14:40:32Z</time>
      </trkpt>
      <trkpt lat="50.00229" lon="2.36833">
        <ele>116.1</ele>
        <time>2022-11-16T14:40:33Z</time>
      </trkpt>
      <trkpt lat="50.0023" lon="2.36835">
        <ele>116.2</ele>
        <time>2022-11-16T14:40:34Z</time>
      </trkpt>
      <trkpt lat="50.0023" lon="2.36837">
        <ele>116.2</ele>
        <time>2022-11-16T14:40:36Z</time>
      </trkpt>
      <trkpt lat="50.00231" lon="2.36839">
        <ele>116.2</ele>
        <time>2022-11-16T14:40:37Z</time>
      </trkpt>
      <trkpt lat="50.00231" lon="2.36841">
        <ele>116.3</ele>
        <time>2022-11-16T14:40:38Z</time>
      </trkpt>
      <trkpt lat="50.00232" lon="2.36843">
        <ele>116.3</ele>
        <time>2022-11-16T14:40:39Z</time>
      </trkpt>
      <trkpt lat="50.00232" lon="2.36845">
        <ele>116.3</ele>
        <time>2022-11-16T14:40:40Z</time>
      </trkpt>
      <trkpt lat="50.00233" lon="2.36846">
        <ele>116.4</ele>
        <time>2022-11-16T14:40:41Z</time>
      </trkpt>
      <trkpt lat="50.00233" lon="2.36848">
        <ele>116.4</ele>
        <time>2022-11-16T14:40:42Z</time>
      </trkpt>
      <trkpt lat="50.00234" lon="2.36849">
        <ele>116.4</ele>
        <time>2022-11-16T14:40:44Z</time>
      </trkpt>
      <trkpt lat="50.00234" lon="2.36851">
        <ele>116.4</ele>
        <time>2022-11-16T14:40:45Z</time>
      </trkpt>
      <trkpt lat="50.00235" lon="2.36853">
        <ele>116.5</ele>
        <time>2022-11-16T14:40:46Z</time>
      </trkpt>
      <trkpt lat="50.00235" lon="2.36854">
        <ele>116.5</ele>
        <time>2022-11-16T14:40:47Z</time>
      </trkpt>
      <trkpt lat="50.00236" lon="2.36856">
        <ele>116.5</ele>
        <time>2022-11-16T14:40:48Z</time>
      </trkpt>
      <trkpt lat="50.00236" lon="2.36857">
        <ele>116.6</ele>
        <time>2022-11-16T14:40:49Z</time>
      </trkpt>
      <trkpt lat="50.00237" lon="2.36859">
        <ele>116.6</ele>
        <time>2022-11-16T14:40:50Z</time>
      </trkpt>
      <trkpt lat="50.00238" lon="2.3686">
        <ele>116.6</ele>
        <time>2022-11-16T14:40:52Z</time>
      </trkpt>
      <trkpt lat="50.00238" lon="2.36862">
        <ele>116.6</ele>
        <time>2022-11-16T14:40:53Z</time>
      </trkpt>
      <trkpt lat="50.00239" lon="2.36863">
        <ele>116.7</ele>
        <time>2022-11-16T14:40:54Z</time>
      </trkpt>
      <trkpt lat="50.00239" lon="2.36864">
        <ele>116.7</ele>
        <time>2022-11-16T14:40:55Z</time>
      </trkpt>
      <trkpt lat="50.0024" lon="2.36866">
        <ele>116.7</ele>
        <time>2022-11-16T14:40:56Z</time>
      </trkpt>
      <trkpt lat="50.0024" lon="2.36867">
        <ele>116.7</ele>
        <time>2022-11-16T14:40:57Z</time>
      </trkpt>
      <trkpt lat="50.00241" lon="2.36868">
        <ele>116.8</ele>
        <time>2022-11-16T14:40:58Z</time>
      </trkpt>
      <trkpt lat="50.00241" lon="2.3687">
        <ele>116.8</ele>
        <time>2022-11-16T14:40:59Z</time>
      </trkpt>
      <trkpt lat="50.00242" lon="2.36871">
        <ele>116.8</ele>
        <time>2022-11-16T14:41:01Z</time>
      </trkpt>
      <trkpt lat="50.00243" lon="2.3687">
        <ele>116.8</ele>
        <time>2022-11-16T14:41:02Z</time>
      </trkpt>
      <trkpt lat="50.00244" lon="2.3687">
        <ele>116.9</ele>
        <time>2022-11-16T14:41:03Z</time>
      </trkpt>
      <trkpt lat="50.00244" lon="2.36869">
        <ele>116.9</ele>
        <time>2022-11-16T14:41:04Z</time>
      </trkpt>
      <trkpt lat="50.00245" lon="2.36869">
        <ele>116.9</ele>
        <time>2022-11-16T14:41:05Z</time>
      </trkpt>
      <trkpt lat="50.00245" lon="2.3687">
        <ele>116.9</ele>
        <time>2022-11-16T14:41:06Z</time>
      </trkpt>
      <trkpt lat="50.00245" lon="2.36872">
        <ele>116.9</ele>
        <time>2022-11-16T14:41:08Z</time>
      </trkpt>
      <trkpt lat="50.00245" lon="2.36872">
        <ele>116.9</ele>
        <time>2022-11-16T14:41:09Z</time>
      </trkpt>
      <trkpt lat="50.00245" lon="2.36873">
        <ele>117</ele>
        <time>2022-11-16T14:41:10Z</time>
      </trkpt>
      <trkpt lat="50.00245" lon="2.36874">
        <ele>117</ele>
        <time>2022-11-16T14:41:11Z</time>
      </trkpt>
      <trkpt lat="50.00245" lon="2.36875">
        <ele>117</ele>
        <time>2022-11-16T14:41:12Z</time>
      </trkpt>
      <trkpt lat="50.00245" lon="2.36877">
        <ele>117</ele>
        <time>2022-11-16T14:41:13Z</time>
      </trkpt>
      <trkpt lat="50.00245" lon="2.36879">
        <ele>117</ele>
        <time>2022-11-16T14:41:14Z</time>
      </trkpt>
      <trkpt lat="50.00245" lon="2.3688">
        <ele>117.1</ele>
        <time>2022-11-16T14:41:15Z</time>
      </trkpt>
      <trkpt lat="50.00245" lon="2.36882">
        <ele>117.1</ele>
        <time>2022-11-16T14:41:16Z</time>
      </trkpt>
      <trkpt lat="50.00245" lon="2.36884">
        <ele>117.1</ele>
        <time>2022-11-16T14:41:18Z</time>
      </trkpt>
      <trkpt lat="50.00245" lon="2.36885">
        <ele>117.1</ele>
        <time>2022-11-16T14:41:19Z</time>
      </trkpt>
      <trkpt lat="50.00245" lon="2.36887">
        <ele>117.2</ele>
        <time>2022-11-16T14:41:20Z</time>
      </trkpt>
      <trkpt lat="50.00246" lon="2.36889">
        <ele>117.2</ele>
        <time>2022-11-16T14:41:21Z</time>
      </trkpt>
      <trkpt lat="50.00246" lon="2.3689">
        <ele>117.2</ele>
        <time>2022-11-16T14:41:22Z</time>
      </trkpt>
      <trkpt lat="50.00246" lon="2.36892">
        <ele>117.3</ele>
        <time>2022-11-16T14:41:24Z</time>
      </trkpt>
      <trkpt lat="50.00246" lon="2.36894">
        <ele>117.3</ele>
        <time>2022-11-16T14:41:25Z</time>
      </trkpt>
      <trkpt lat="50.00247" lon="2.36896">
        <ele>117.3</ele>
        <time>2022-11-16T14:41:26Z</time>
      </trkpt>
      <trkpt lat="50.00247" lon="2.36898">
        <ele>117.4</ele>
        <time>2022-11-16T14:41:27Z</time>
      </trkpt>
      <trkpt lat="50.00247" lon="2.369">
        <ele>117.4</ele>
        <time>2022-11-16T14:41:28Z</time>
      </trkpt>
      <trkpt lat="50.00247" lon="2.36901">
        <ele>117.4</ele>
        <time>2022-11-16T14:41:30Z</time>
      </trkpt>
      <trkpt lat="50.00248" lon="2.36903">
        <ele>117.4</ele>
        <time>2022-11-16T14:41:31Z</time>
      </trkpt>
      <trkpt lat="50.00249" lon="2.36906">
        <ele>117.5</ele>
        <time>2022-11-16T14:41:32Z</time>
      </trkpt>
      <trkpt lat="50.00249" lon="2.36907">
        <ele>117.5</ele>
        <time>2022-11-16T14:41:33Z</time>
      </trkpt>
      <trkpt lat="50.00249" lon="2.36908">
        <ele>117.5</ele>
        <time>2022-11-16T14:41:34Z</time>
      </trkpt>
      <trkpt lat="50.0025" lon="2.3691">
        <ele>117.6</ele>
        <time>2022-11-16T14:41:36Z</time>
      </trkpt>
      <trkpt lat="50.0025" lon="2.36911">
        <ele>117.6</ele>
        <time>2022-11-16T14:41:37Z</time>
      </trkpt>
      <trkpt lat="50.00251" lon="2.36913">
        <ele>117.6</ele>
        <time>2022-11-16T14:41:38Z</time>
      </trkpt>
      <trkpt lat="50.00251" lon="2.36915">
        <ele>117.6</ele>
        <time>2022-11-16T14:41:39Z</time>
      </trkpt>
      <trkpt lat="50.00252" lon="2.36917">
        <ele>117.7</ele>
        <time>2022-11-16T14:41:40Z</time>
      </trkpt>
      <trkpt lat="50.00252" lon="2.36919">
        <ele>117.7</ele>
        <time>2022-11-16T14:41:41Z</time>
      </trkpt>
      <trkpt lat="50.00253" lon="2.36921">
        <ele>117.7</ele>
        <time>2022-11-16T14:41:42Z</time>
      </trkpt>
      <trkpt lat="50.00253" lon="2.36923">
        <ele>117.8</ele>
        <time>2022-11-16T14:41:44Z</time>
      </trkpt>
      <trkpt lat="50.00254" lon="2.36924">
        <ele>117.8</ele>
        <time>2022-11-16T14:41:45Z</time>
      </trkpt>
      <trkpt lat="50.00254" lon="2.36927">
        <ele>117.8</ele>
        <time>2022-11-16T14:41:46Z</time>
      </trkpt>
      <trkpt lat="50.00255" lon="2.36929">
        <ele>117.9</ele>
        <time>2022-11-16T14:41:47Z</time>
      </trkpt>
      <trkpt lat="50.00255" lon="2.3693">
        <ele>117.9</ele>
        <time>2022-11-16T14:41:48Z</time>
      </trkpt>
      <trkpt lat="50.00255" lon="2.36932">
        <ele>117.9</ele>
        <time>2022-11-16T14:41:50Z</time>
      </trkpt>
      <trkpt lat="50.00256" lon="2.36933">
        <ele>118</ele>
        <time>2022-11-16T14:41:51Z</time>
      </trkpt>
      <trkpt lat="50.00256" lon="2.36935">
        <ele>118</ele>
        <time>2022-11-16T14:41:52Z</time>
      </trkpt>
      <trkpt lat="50.00257" lon="2.36937">
        <ele>118</ele>
        <time>2022-11-16T14:41:53Z</time>
      </trkpt>
      <trkpt lat="50.00258" lon="2.36938">
        <ele>118</ele>
        <time>2022-11-16T14:41:54Z</time>
      </trkpt>
      <trkpt lat="50.00258" lon="2.3694">
        <ele>118.1</ele>
        <time>2022-11-16T14:41:55Z</time>
      </trkpt>
      <trkpt lat="50.00259" lon="2.36941">
        <ele>118.1</ele>
        <time>2022-11-16T14:41:57Z</time>
      </trkpt>
      <trkpt lat="50.00259" lon="2.36943">
        <ele>118.1</ele>
        <time>2022-11-16T14:41:58Z</time>
      </trkpt>
      <trkpt lat="50.0026" lon="2.36944">
        <ele>118.2</ele>
        <time>2022-11-16T14:41:59Z</time>
      </trkpt>
      <trkpt lat="50.0026" lon="2.36945">
        <ele>118.2</ele>
        <time>2022-11-16T14:42:00Z</time>
      </trkpt>
      <trkpt lat="50.00261" lon="2.36947">
        <ele>118.2</ele>
        <time>2022-11-16T14:42:01Z</time>
      </trkpt>
      <trkpt lat="50.00261" lon="2.36948">
        <ele>118.2</ele>
        <time>2022-11-16T14:42:02Z</time>
      </trkpt>
      <trkpt lat="50.00262" lon="2.36949">
        <ele>118.2</ele>
        <time>2022-11-16T14:42:03Z</time>
      </trkpt>
      <trkpt lat="50.00262" lon="2.3695">
        <ele>118.3</ele>
        <time>2022-11-16T14:42:04Z</time>
      </trkpt>
      <trkpt lat="50.00263" lon="2.36951">
        <ele>118.3</ele>
        <time>2022-11-16T14:42:05Z</time>
      </trkpt>
      <trkpt lat="50.00263" lon="2.36953">
        <ele>118.3</ele>
        <time>2022-11-16T14:42:06Z</time>
      </trkpt>
      <trkpt lat="50.00264" lon="2.36954">
        <ele>118.3</ele>
        <time>2022-11-16T14:42:07Z</time>
      </trkpt>
      <trkpt lat="50.00264" lon="2.36956">
        <ele>118.4</ele>
        <time>2022-11-16T14:42:08Z</time>
      </trkpt>
      <trkpt lat="50.00264" lon="2.36957">
        <ele>118.4</ele>
        <time>2022-11-16T14:42:10Z</time>
      </trkpt>
      <trkpt lat="50.00265" lon="2.36958">
        <ele>118.4</ele>
        <time>2022-11-16T14:42:11Z</time>
      </trkpt>
      <trkpt lat="50.00266" lon="2.36959">
        <ele>118.4</ele>
        <time>2022-11-16T14:42:12Z</time>
      </trkpt>
      <trkpt lat="50.00266" lon="2.36961">
        <ele>118.5</ele>
        <time>2022-11-16T14:42:13Z</time>
      </trkpt>
      <trkpt lat="50.00267" lon="2.36963">
        <ele>118.5</ele>
        <time>2022-11-16T14:42:15Z</time>
      </trkpt>
      <trkpt lat="50.00268" lon="2.36965">
        <ele>118.5</ele>
        <time>2022-11-16T14:42:16Z</time>
      </trkpt>
      <trkpt lat="50.00268" lon="2.36967">
        <ele>118.6</ele>
        <time>2022-11-16T14:42:17Z</time>
      </trkpt>
      <trkpt lat="50.00268" lon="2.36968">
        <ele>118.6</ele>
        <time>2022-11-16T14:42:18Z</time>
      </trkpt>
      <trkpt lat="50.00268" lon="2.3697">
        <ele>118.6</ele>
        <time>2022-11-16T14:42:20Z</time>
      </trkpt>
      <trkpt lat="50.00268" lon="2.36971">
        <ele>118.6</ele>
        <time>2022-11-16T14:42:21Z</time>
      </trkpt>
      <trkpt lat="50.00268" lon="2.36972">
        <ele>118.7</ele>
        <time>2022-11-16T14:42:22Z</time>
      </trkpt>
      <trkpt lat="50.00268" lon="2.36972">
        <ele>118.7</ele>
        <time>2022-11-16T14:42:23Z</time>
      </trkpt>
      <trkpt lat="50.00268" lon="2.36973">
        <ele>118.7</ele>
        <time>2022-11-16T14:42:24Z</time>
      </trkpt>
      <trkpt lat="50.00268" lon="2.36973">
        <ele>118.7</ele>
        <time>2022-11-16T14:42:25Z</time>
      </trkpt>
      <trkpt lat="50.00267" lon="2.36973">
        <ele>118.7</ele>
        <time>2022-11-16T14:42:26Z</time>
      </trkpt>
      <trkpt lat="50.00267" lon="2.36973">
        <ele>118.7</ele>
        <time>2022-11-16T14:42:27Z</time>
      </trkpt>
      <trkpt lat="50.00266" lon="2.36973">
        <ele>118.7</ele>
        <time>2022-11-16T14:42:28Z</time>
      </trkpt>
      <trkpt lat="50.00266" lon="2.36973">
        <ele>118.7</ele>
        <time>2022-11-16T14:42:29Z</time>
      </trkpt>
      <trkpt lat="50.00266" lon="2.36972">
        <ele>118.7</ele>
        <time>2022-11-16T14:42:30Z</time>
      </trkpt>
      <trkpt lat="50.00266" lon="2.36972">
        <ele>118.7</ele>
        <time>2022-11-16T14:42:32Z</time>
      </trkpt>
      <trkpt lat="50.00267" lon="2.36971">
        <ele>118.7</ele>
        <time>2022-11-16T14:42:33Z</time>
      </trkpt>
      <trkpt lat="50.00267" lon="2.36971">
        <ele>118.8</ele>
        <time>2022-11-16T14:42:34Z</time>
      </trkpt>
      <trkpt lat="50.00268" lon="2.3697">
        <ele>118.8</ele>
        <time>2022-11-16T14:42:35Z</time>
      </trkpt>
      <trkpt lat="50.00268" lon="2.3697">
        <ele>118.8</ele>
        <time>2022-11-16T14:42:36Z</time>
      </trkpt>
      <trkpt lat="50.00269" lon="2.36969">
        <ele>118.8</ele>
        <time>2022-11-16T14:42:37Z</time>
      </trkpt>
      <trkpt lat="50.00269" lon="2.36969">
        <ele>118.8</ele>
        <time>2022-11-16T14:42:38Z</time>
      </trkpt>
      <trkpt lat="50.00269" lon="2.36968">
        <ele>118.8</ele>
        <time>2022-11-16T14:42:39Z</time>
      </trkpt>
      <trkpt lat="50.00269" lon="2.36968">
        <ele>118.8</ele>
        <time>2022-11-16T14:42:41Z</time>
      </trkpt>
      <trkpt lat="50.0027" lon="2.36968">
        <ele>118.8</ele>
        <time>2022-11-16T14:42:43Z</time>
      </trkpt>
      <trkpt lat="50.0027" lon="2.36968">
        <ele>118.8</ele>
        <time>2022-11-16T14:42:44Z</time>
      </trkpt>
      <trkpt lat="50.0027" lon="2.36967">
        <ele>118.9</ele>
        <time>2022-11-16T14:42:45Z</time>
      </trkpt>
      <trkpt lat="50.00271" lon="2.36967">
        <ele>118.9</ele>
        <time>2022-11-16T14:42:46Z</time>
      </trkpt>
      <trkpt lat="50.00271" lon="2.36966">
        <ele>118.9</ele>
        <time>2022-11-16T14:42:47Z</time>
      </trkpt>
      <trkpt lat="50.00271" lon="2.36966">
        <ele>118.9</ele>
        <time>2022-11-16T14:42:48Z</time>
      </trkpt>
      <trkpt lat="50.00271" lon="2.36966">
        <ele>118.9</ele>
        <time>2022-11-16T14:42:49Z</time>
      </trkpt>
      <trkpt lat="50.00271" lon="2.36965">
        <ele>118.9</ele>
        <time>2022-11-16T14:42:50Z</time>
      </trkpt>
      <trkpt lat="50.00271" lon="2.36965">
        <ele>118.9</ele>
        <time>2022-11-16T14:42:51Z</time>
      </trkpt>
      <trkpt lat="50.00271" lon="2.36965">
        <ele>118.9</ele>
        <time>2022-11-16T14:42:52Z</time>
      </trkpt>
      <trkpt lat="50.0027" lon="2.36965">
        <ele>118.9</ele>
        <time>2022-11-16T14:42:53Z</time>
      </trkpt>
      <trkpt lat="50.00269" lon="2.36965">
        <ele>119</ele>
        <time>2022-11-16T14:42:54Z</time>
      </trkpt>
      <trkpt lat="50.00269" lon="2.36965">
        <ele>119</ele>
        <time>2022-11-16T14:42:55Z</time>
      </trkpt>
      <trkpt lat="50.00269" lon="2.36965">
        <ele>119</ele>
        <time>2022-11-16T14:42:56Z</time>
      </trkpt>
      <trkpt lat="50.00269" lon="2.36965">
        <ele>119</ele>
        <time>2022-11-16T14:42:57Z</time>
      </trkpt>
      <trkpt lat="50.00268" lon="2.36964">
        <ele>119</ele>
        <time>2022-11-16T14:42:58Z</time>
      </trkpt>
      <trkpt lat="50.00268" lon="2.36964">
        <ele>119</ele>
        <time>2022-11-16T14:42:59Z</time>
      </trkpt>
      <trkpt lat="50.00268" lon="2.36964">
        <ele>119</ele>
        <time>2022-11-16T14:43:00Z</time>
      </trkpt>
      <trkpt lat="50.00267" lon="2.36964">
        <ele>119</ele>
        <time>2022-11-16T14:43:01Z</time>
      </trkpt>
      <trkpt lat="50.00267" lon="2.36964">
        <ele>119</ele>
        <time>2022-11-16T14:43:02Z</time>
      </trkpt>
      <trkpt lat="50.00267" lon="2.36964">
        <ele>119</ele>
        <time>2022-11-16T14:43:03Z</time>
      </trkpt>
      <trkpt lat="50.00267" lon="2.36964">
        <ele>119</ele>
        <time>2022-11-16T14:43:04Z</time>
      </trkpt>
      <trkpt lat="50.00267" lon="2.36964">
        <ele>119</ele>
        <time>2022-11-16T14:43:05Z</time>
      </trkpt>
      <trkpt lat="50.00267" lon="2.36964">
        <ele>119</ele>
        <time>2022-11-16T14:43:06Z</time>
      </trkpt>
      <trkpt lat="50.00267" lon="2.36964">
        <ele>119</ele>
        <time>2022-11-16T14:43:07Z</time>
      </trkpt>
      <trkpt lat="50.00267" lon="2.36964">
        <ele>119</ele>
        <time>2022-11-16T14:43:08Z</time>
      </trkpt>
      <trkpt lat="50.00267" lon="2.36964">
        <ele>119</ele>
        <time>2022-11-16T14:43:09Z</time>
      </trkpt>
      <trkpt lat="50.00267" lon="2.36964">
        <ele>119</ele>
        <time>2022-11-16T14:43:10Z</time>
      </trkpt>
      <trkpt lat="50.00267" lon="2.36964">
        <ele>119</ele>
        <time>2022-11-16T14:43:11Z</time>
      </trkpt>
      <trkpt lat="50.00267" lon="2.36964">
        <ele>119</ele>
        <time>2022-11-16T14:43:12Z</time>
      </trkpt>
      <trkpt lat="50.00267" lon="2.36964">
        <ele>119</ele>
        <time>2022-11-16T14:43:13Z</time>
      </trkpt>
      <trkpt lat="50.00267" lon="2.36964">
        <ele>119</ele>
        <time>2022-11-16T14:43:14Z</time>
      </trkpt>
      <trkpt lat="50.00267" lon="2.36964">
        <ele>119</ele>
        <time>2022-11-16T14:43:15Z</time>
      </trkpt>
      <trkpt lat="50.00267" lon="2.36964">
        <ele>119</ele>
        <time>2022-11-16T14:43:16Z</time>
      </trkpt>
      <trkpt lat="50.00267" lon="2.36964">
        <ele>119</ele>
        <time>2022-11-16T14:43:17Z</time>
      </trkpt>
      <trkpt lat="50.00267" lon="2.36964">
        <ele>119</ele>
        <time>2022-11-16T14:43:18Z</time>
      </trkpt>
      <trkpt lat="50.00267" lon="2.36964">
        <ele>119</ele>
        <time>2022-11-16T14:43:19Z</time>
      </trkpt>
      <trkpt lat="50.00267" lon="2.36964">
        <ele>119</ele>
        <time>2022-11-16T14:43:20Z</time>
      </trkpt>
      <trkpt lat="50.00267" lon="2.36964">
        <ele>119</ele>
        <time>2022-11-16T14:43:21Z</time>
      </trkpt>
      <trkpt lat="50.00267" lon="2.36964">
        <ele>119</ele>
        <time>2022-11-16T14:43:22Z</time>
      </trkpt>
      <trkpt lat="50.00267" lon="2.36964">
        <ele>119</ele>
        <time>2022-11-16T14:43:23Z</time>
      </trkpt>
      <trkpt lat="50.00267" lon="2.36964">
        <ele>119</ele>
        <time>2022-11-16T14:43:24Z</time>
      </trkpt>
      <trkpt lat="50.00267" lon="2.36964">
        <ele>119</ele>
        <time>2022-11-16T14:43:25Z</time>
      </trkpt>
      <trkpt lat="50.00267" lon="2.36964">
        <ele>119</ele>
        <time>2022-11-16T14:43:26Z</time>
      </trkpt>
      <trkpt lat="50.00267" lon="2.36964">
        <ele>119</ele>
        <time>2022-11-16T14:43:27Z</time>
      </trkpt>
      <trkpt lat="50.00267" lon="2.36964">
        <ele>119</ele>
        <time>2022-11-16T14:43:28Z</time>
      </trkpt>
      <trkpt lat="50.00267" lon="2.36964">
        <ele>119</ele>
        <time>2022-11-16T14:43:29Z</time>
      </trkpt>
      <trkpt lat="50.00267" lon="2.36964">
        <ele>119</ele>
        <time>2022-11-16T14:43:30Z</time>
      </trkpt>
      <trkpt lat="50.00267" lon="2.36964">
        <ele>119</ele>
        <time>2022-11-16T14:43:31Z</time>
      </trkpt>
      <trkpt lat="50.00267" lon="2.36964">
        <ele>119</ele>
        <time>2022-11-16T14:43:32Z</time>
      </trkpt>
      <trkpt lat="50.00266" lon="2.36964">
        <ele>119</ele>
        <time>2022-11-16T14:43:33Z</time>
      </trkpt>
      <trkpt lat="50.00266" lon="2.36964">
        <ele>119</ele>
        <time>2022-11-16T14:43:34Z</time>
      </trkpt>
      <trkpt lat="50.00266" lon="2.36964">
        <ele>119.1</ele>
        <time>2022-11-16T14:43:35Z</time>
      </trkpt>
      <trkpt lat="50.00265" lon="2.36964">
        <ele>119.1</ele>
        <time>2022-11-16T14:43:36Z</time>
      </trkpt>
      <trkpt lat="50.00265" lon="2.36964">
        <ele>119.1</ele>
        <time>2022-11-16T14:43:37Z</time>
      </trkpt>
      <trkpt lat="50.00265" lon="2.36964">
        <ele>119.1</ele>
        <time>2022-11-16T14:43:38Z</time>
      </trkpt>
      <trkpt lat="50.00265" lon="2.36964">
        <ele>119.1</ele>
        <time>2022-11-16T14:43:39Z</time>
      </trkpt>
      <trkpt lat="50.00265" lon="2.36964">
        <ele>119.1</ele>
        <time>2022-11-16T14:43:40Z</time>
      </trkpt>
      <trkpt lat="50.00266" lon="2.36964">
        <ele>119.1</ele>
        <time>2022-11-16T14:43:42Z</time>
      </trkpt>
      <trkpt lat="50.00267" lon="2.36964">
        <ele>119.1</ele>
        <time>2022-11-16T14:43:43Z</time>
      </trkpt>
      <trkpt lat="50.00267" lon="2.36964">
        <ele>119.1</ele>
        <time>2022-11-16T14:43:45Z</time>
      </trkpt>
      <trkpt lat="50.00267" lon="2.36964">
        <ele>119.1</ele>
        <time>2022-11-16T14:43:46Z</time>
      </trkpt>
      <trkpt lat="50.00267" lon="2.36964">
        <ele>119.1</ele>
        <time>2022-11-16T14:43:47Z</time>
      </trkpt>
      <trkpt lat="50.00267" lon="2.36964">
        <ele>119.1</ele>
        <time>2022-11-16T14:43:48Z</time>
      </trkpt>
      <trkpt lat="50.00268" lon="2.36965">
        <ele>119.1</ele>
        <time>2022-11-16T14:43:49Z</time>
      </trkpt>
      <trkpt lat="50.00267" lon="2.36965">
        <ele>119.2</ele>
        <time>2022-11-16T14:43:51Z</time>
      </trkpt>
      <trkpt lat="50.00266" lon="2.36965">
        <ele>119.2</ele>
        <time>2022-11-16T14:43:52Z</time>
      </trkpt>
      <trkpt lat="50.00265" lon="2.36964">
        <ele>119.2</ele>
        <time>2022-11-16T14:43:53Z</time>
      </trkpt>
      <trkpt lat="50.00264" lon="2.36963">
        <ele>119.2</ele>
        <time>2022-11-16T14:43:55Z</time>
      </trkpt>
      <trkpt lat="50.00265" lon="2.36963">
        <ele>119.2</ele>
        <time>2022-11-16T14:43:56Z</time>
      </trkpt>
      <trkpt lat="50.00265" lon="2.36964">
        <ele>119.3</ele>
        <time>2022-11-16T14:43:57Z</time>
      </trkpt>
      <trkpt lat="50.00264" lon="2.36964">
        <ele>119.3</ele>
        <time>2022-11-16T14:43:58Z</time>
      </trkpt>
      <trkpt lat="50.00264" lon="2.36964">
        <ele>119.3</ele>
        <time>2022-11-16T14:43:59Z</time>
      </trkpt>
      <trkpt lat="50.00264" lon="2.36964">
        <ele>119.3</ele>
        <time>2022-11-16T14:44:00Z</time>
      </trkpt>
      <trkpt lat="50.00265" lon="2.36965">
        <ele>119.3</ele>
        <time>2022-11-16T14:44:01Z</time>
      </trkpt>
      <trkpt lat="50.00265" lon="2.36967">
        <ele>119.3</ele>
        <time>2022-11-16T14:44:03Z</time>
      </trkpt>
      <trkpt lat="50.00266" lon="2.36967">
        <ele>119.3</ele>
        <time>2022-11-16T14:44:04Z</time>
      </trkpt>
      <trkpt lat="50.00266" lon="2.36968">
        <ele>119.3</ele>
        <time>2022-11-16T14:44:05Z</time>
      </trkpt>
      <trkpt lat="50.00266" lon="2.36968">
        <ele>119.3</ele>
        <time>2022-11-16T14:44:06Z</time>
      </trkpt>
      <trkpt lat="50.00267" lon="2.36969">
        <ele>119.4</ele>
        <time>2022-11-16T14:44:07Z</time>
      </trkpt>
      <trkpt lat="50.00267" lon="2.3697">
        <ele>119.4</ele>
        <time>2022-11-16T14:44:08Z</time>
      </trkpt>
      <trkpt lat="50.00268" lon="2.3697">
        <ele>119.4</ele>
        <time>2022-11-16T14:44:09Z</time>
      </trkpt>
      <trkpt lat="50.00268" lon="2.36971">
        <ele>119.4</ele>
        <time>2022-11-16T14:44:10Z</time>
      </trkpt>
      <trkpt lat="50.00268" lon="2.36971">
        <ele>119.4</ele>
        <time>2022-11-16T14:44:11Z</time>
      </trkpt>
      <trkpt lat="50.00268" lon="2.36971">
        <ele>119.4</ele>
        <time>2022-11-16T14:44:12Z</time>
      </trkpt>
      <trkpt lat="50.00268" lon="2.36971">
        <ele>119.4</ele>
        <time>2022-11-16T14:44:13Z</time>
      </trkpt>
      <trkpt lat="50.00268" lon="2.36971">
        <ele>119.4</ele>
        <time>2022-11-16T14:44:14Z</time>
      </trkpt>
      <trkpt lat="50.00268" lon="2.36971">
        <ele>119.4</ele>
        <time>2022-11-16T14:44:15Z</time>
      </trkpt>
      <trkpt lat="50.00268" lon="2.36971">
        <ele>119.4</ele>
        <time>2022-11-16T14:44:16Z</time>
      </trkpt>
      <trkpt lat="50.00269" lon="2.36971">
        <ele>119.4</ele>
        <time>2022-11-16T14:44:17Z</time>
      </trkpt>
      <trkpt lat="50.00269" lon="2.36971">
        <ele>119.4</ele>
        <time>2022-11-16T14:44:18Z</time>
      </trkpt>
      <trkpt lat="50.00269" lon="2.36972">
        <ele>119.4</ele>
        <time>2022-11-16T14:44:19Z</time>
      </trkpt>
      <trkpt lat="50.00269" lon="2.36972">
        <ele>119.4</ele>
        <time>2022-11-16T14:44:20Z</time>
      </trkpt>
      <trkpt lat="50.00269" lon="2.36972">
        <ele>119.4</ele>
        <time>2022-11-16T14:44:21Z</time>
      </trkpt>
      <trkpt lat="50.00269" lon="2.36972">
        <ele>119.4</ele>
        <time>2022-11-16T14:44:22Z</time>
      </trkpt>
      <trkpt lat="50.00269" lon="2.36972">
        <ele>119.4</ele>
        <time>2022-11-16T14:44:23Z</time>
      </trkpt>
      <trkpt lat="50.00269" lon="2.36972">
        <ele>119.4</ele>
        <time>2022-11-16T14:44:24Z</time>
      </trkpt>
      <trkpt lat="50.00269" lon="2.36972">
        <ele>119.4</ele>
        <time>2022-11-16T14:44:25Z</time>
      </trkpt>
      <trkpt lat="50.00269" lon="2.36972">
        <ele>119.4</ele>
        <time>2022-11-16T14:44:26Z</time>
      </trkpt>
      <trkpt lat="50.00269" lon="2.36972">
        <ele>119.4</ele>
        <time>2022-11-16T14:44:27Z</time>
      </trkpt>
      <trkpt lat="50.00269" lon="2.36972">
        <ele>119.4</ele>
        <time>2022-11-16T14:44:28Z</time>
      </trkpt>
      <trkpt lat="50.00269" lon="2.36972">
        <ele>119.4</ele>
        <time>2022-11-16T14:44:29Z</time>
      </trkpt>
      <trkpt lat="50.00269" lon="2.36972">
        <ele>119.4</ele>
        <time>2022-11-16T14:44:30Z</time>
      </trkpt>
      <trkpt lat="50.00269" lon="2.36972">
        <ele>119.4</ele>
        <time>2022-11-16T14:44:31Z</time>
      </trkpt>
      <trkpt lat="50.00269" lon="2.36972">
        <ele>119.4</ele>
        <time>2022-11-16T14:44:32Z</time>
      </trkpt>
      <trkpt lat="50.00269" lon="2.36972">
        <ele>119.4</ele>
        <time>2022-11-16T14:44:33Z</time>
      </trkpt>
      <trkpt lat="50.00269" lon="2.36972">
        <ele>119.4</ele>
        <time>2022-11-16T14:44:34Z</time>
      </trkpt>
      <trkpt lat="50.00269" lon="2.36972">
        <ele>119.4</ele>
        <time>2022-11-16T14:44:35Z</time>
      </trkpt>
      <trkpt lat="50.00268" lon="2.36972">
        <ele>119.5</ele>
        <time>2022-11-16T14:44:36Z</time>
      </trkpt>
      <trkpt lat="50.00268" lon="2.36972">
        <ele>119.5</ele>
        <time>2022-11-16T14:44:37Z</time>
      </trkpt>
      <trkpt lat="50.00268" lon="2.36971">
        <ele>119.5</ele>
        <time>2022-11-16T14:44:38Z</time>
      </trkpt>
      <trkpt lat="50.00268" lon="2.36971">
        <ele>119.5</ele>
        <time>2022-11-16T14:44:39Z</time>
      </trkpt>
      <trkpt lat="50.00268" lon="2.36972">
        <ele>119.5</ele>
        <time>2022-11-16T14:44:40Z</time>
      </trkpt>
      <trkpt lat="50.00268" lon="2.36973">
        <ele>119.5</ele>
        <time>2022-11-16T14:44:41Z</time>
      </trkpt>
      <trkpt lat="50.00268" lon="2.36975">
        <ele>119.5</ele>
        <time>2022-11-16T14:44:42Z</time>
      </trkpt>
      <trkpt lat="50.00268" lon="2.36977">
        <ele>119.6</ele>
        <time>2022-11-16T14:44:44Z</time>
      </trkpt>
      <trkpt lat="50.00269" lon="2.36983">
        <ele>119.7</ele>
        <time>2022-11-16T14:44:45Z</time>
      </trkpt>
      <trkpt lat="50.00269" lon="2.36986">
        <ele>119.7</ele>
        <time>2022-11-16T14:44:46Z</time>
      </trkpt>
      <trkpt lat="50.0027" lon="2.3699">
        <ele>119.8</ele>
        <time>2022-11-16T14:44:48Z</time>
      </trkpt>
      <trkpt lat="50.00271" lon="2.36995">
        <ele>119.9</ele>
        <time>2022-11-16T14:44:49Z</time>
      </trkpt>
      <trkpt lat="50.00272" lon="2.36997">
        <ele>119.9</ele>
        <time>2022-11-16T14:44:50Z</time>
      </trkpt>
      <trkpt lat="50.00272" lon="2.37">
        <ele>120</ele>
        <time>2022-11-16T14:44:51Z</time>
      </trkpt>
      <trkpt lat="50.00273" lon="2.37002">
        <ele>120</ele>
        <time>2022-11-16T14:44:52Z</time>
      </trkpt>
      <trkpt lat="50.00274" lon="2.37004">
        <ele>120</ele>
        <time>2022-11-16T14:44:53Z</time>
      </trkpt>
      <trkpt lat="50.00275" lon="2.37007">
        <ele>120.1</ele>
        <time>2022-11-16T14:44:55Z</time>
      </trkpt>
      <trkpt lat="50.00275" lon="2.37008">
        <ele>120.1</ele>
        <time>2022-11-16T14:44:56Z</time>
      </trkpt>
      <trkpt lat="50.00276" lon="2.37009">
        <ele>120.1</ele>
        <time>2022-11-16T14:44:57Z</time>
      </trkpt>
      <trkpt lat="50.00276" lon="2.37011">
        <ele>120.1</ele>
        <time>2022-11-16T14:44:58Z</time>
      </trkpt>
      <trkpt lat="50.00277" lon="2.37013">
        <ele>120.2</ele>
        <time>2022-11-16T14:44:59Z</time>
      </trkpt>
      <trkpt lat="50.00277" lon="2.37015">
        <ele>120.2</ele>
        <time>2022-11-16T14:45:00Z</time>
      </trkpt>
      <trkpt lat="50.00277" lon="2.37016">
        <ele>120.2</ele>
        <time>2022-11-16T14:45:01Z</time>
      </trkpt>
      <trkpt lat="50.00278" lon="2.37018">
        <ele>120.3</ele>
        <time>2022-11-16T14:45:03Z</time>
      </trkpt>
      <trkpt lat="50.00279" lon="2.3702">
        <ele>120.3</ele>
        <time>2022-11-16T14:45:04Z</time>
      </trkpt>
      <trkpt lat="50.00279" lon="2.37023">
        <ele>120.4</ele>
        <time>2022-11-16T14:45:05Z</time>
      </trkpt>
      <trkpt lat="50.0028" lon="2.37025">
        <ele>120.4</ele>
        <time>2022-11-16T14:45:06Z</time>
      </trkpt>
      <trkpt lat="50.0028" lon="2.37026">
        <ele>120.4</ele>
        <time>2022-11-16T14:45:07Z</time>
      </trkpt>
      <trkpt lat="50.0028" lon="2.37028">
        <ele>120.4</ele>
        <time>2022-11-16T14:45:08Z</time>
      </trkpt>
      <trkpt lat="50.00281" lon="2.37031">
        <ele>120.5</ele>
        <time>2022-11-16T14:45:09Z</time>
      </trkpt>
      <trkpt lat="50.00282" lon="2.37033">
        <ele>120.5</ele>
        <time>2022-11-16T14:45:10Z</time>
      </trkpt>
      <trkpt lat="50.00283" lon="2.37035">
        <ele>120.6</ele>
        <time>2022-11-16T14:45:12Z</time>
      </trkpt>
      <trkpt lat="50.00284" lon="2.37036">
        <ele>120.6</ele>
        <time>2022-11-16T14:45:13Z</time>
      </trkpt>
      <trkpt lat="50.00284" lon="2.37039">
        <ele>120.6</ele>
        <time>2022-11-16T14:45:15Z</time>
      </trkpt>
      <trkpt lat="50.00284" lon="2.3704">
        <ele>120.7</ele>
        <time>2022-11-16T14:45:16Z</time>
      </trkpt>
      <trkpt lat="50.00284" lon="2.37042">
        <ele>120.7</ele>
        <time>2022-11-16T14:45:17Z</time>
      </trkpt>
      <trkpt lat="50.00284" lon="2.37044">
        <ele>120.7</ele>
        <time>2022-11-16T14:45:19Z</time>
      </trkpt>
      <trkpt lat="50.00285" lon="2.37045">
        <ele>120.7</ele>
        <time>2022-11-16T14:45:20Z</time>
      </trkpt>
      <trkpt lat="50.00285" lon="2.37046">
        <ele>120.8</ele>
        <time>2022-11-16T14:45:21Z</time>
      </trkpt>
      <trkpt lat="50.00286" lon="2.37047">
        <ele>120.8</ele>
        <time>2022-11-16T14:45:22Z</time>
      </trkpt>
      <trkpt lat="50.00286" lon="2.37048">
        <ele>120.8</ele>
        <time>2022-11-16T14:45:23Z</time>
      </trkpt>
      <trkpt lat="50.00287" lon="2.37049">
        <ele>120.8</ele>
        <time>2022-11-16T14:45:24Z</time>
      </trkpt>
      <trkpt lat="50.00287" lon="2.3705">
        <ele>120.9</ele>
        <time>2022-11-16T14:45:25Z</time>
      </trkpt>
      <trkpt lat="50.00288" lon="2.37052">
        <ele>120.9</ele>
        <time>2022-11-16T14:45:26Z</time>
      </trkpt>
      <trkpt lat="50.00289" lon="2.37053">
        <ele>120.9</ele>
        <time>2022-11-16T14:45:27Z</time>
      </trkpt>
      <trkpt lat="50.00289" lon="2.37054">
        <ele>120.9</ele>
        <time>2022-11-16T14:45:28Z</time>
      </trkpt>
      <trkpt lat="50.0029" lon="2.37055">
        <ele>121</ele>
        <time>2022-11-16T14:45:29Z</time>
      </trkpt>
      <trkpt lat="50.0029" lon="2.37056">
        <ele>121</ele>
        <time>2022-11-16T14:45:30Z</time>
      </trkpt>
      <trkpt lat="50.00291" lon="2.37058">
        <ele>121</ele>
        <time>2022-11-16T14:45:31Z</time>
      </trkpt>
      <trkpt lat="50.00291" lon="2.37059">
        <ele>121</ele>
        <time>2022-11-16T14:45:32Z</time>
      </trkpt>
      <trkpt lat="50.00292" lon="2.37061">
        <ele>121</ele>
        <time>2022-11-16T14:45:33Z</time>
      </trkpt>
      <trkpt lat="50.00292" lon="2.37062">
        <ele>121.1</ele>
        <time>2022-11-16T14:45:34Z</time>
      </trkpt>
      <trkpt lat="50.00292" lon="2.37063">
        <ele>121.1</ele>
        <time>2022-11-16T14:45:35Z</time>
      </trkpt>
      <trkpt lat="50.00292" lon="2.37064">
        <ele>121.1</ele>
        <time>2022-11-16T14:45:36Z</time>
      </trkpt>
      <trkpt lat="50.00292" lon="2.37066">
        <ele>121.1</ele>
        <time>2022-11-16T14:45:37Z</time>
      </trkpt>
      <trkpt lat="50.00293" lon="2.37068">
        <ele>121.2</ele>
        <time>2022-11-16T14:45:38Z</time>
      </trkpt>
      <trkpt lat="50.00293" lon="2.37069">
        <ele>121.2</ele>
        <time>2022-11-16T14:45:39Z</time>
      </trkpt>
      <trkpt lat="50.00294" lon="2.37071">
        <ele>121.2</ele>
        <time>2022-11-16T14:45:40Z</time>
      </trkpt>
      <trkpt lat="50.00294" lon="2.37072">
        <ele>121.3</ele>
        <time>2022-11-16T14:45:41Z</time>
      </trkpt>
      <trkpt lat="50.00295" lon="2.37074">
        <ele>121.3</ele>
        <time>2022-11-16T14:45:43Z</time>
      </trkpt>
      <trkpt lat="50.00296" lon="2.37075">
        <ele>121.3</ele>
        <time>2022-11-16T14:45:44Z</time>
      </trkpt>
      <trkpt lat="50.00296" lon="2.37077">
        <ele>121.3</ele>
        <time>2022-11-16T14:45:45Z</time>
      </trkpt>
      <trkpt lat="50.00297" lon="2.3708">
        <ele>121.4</ele>
        <time>2022-11-16T14:45:46Z</time>
      </trkpt>
      <trkpt lat="50.00297" lon="2.37081">
        <ele>121.4</ele>
        <time>2022-11-16T14:45:47Z</time>
      </trkpt>
      <trkpt lat="50.00298" lon="2.37082">
        <ele>121.4</ele>
        <time>2022-11-16T14:45:48Z</time>
      </trkpt>
      <trkpt lat="50.00298" lon="2.37084">
        <ele>121.5</ele>
        <time>2022-11-16T14:45:49Z</time>
      </trkpt>
      <trkpt lat="50.00299" lon="2.37085">
        <ele>121.5</ele>
        <time>2022-11-16T14:45:51Z</time>
      </trkpt>
      <trkpt lat="50.00299" lon="2.37086">
        <ele>121.5</ele>
        <time>2022-11-16T14:45:52Z</time>
      </trkpt>
      <trkpt lat="50.003" lon="2.37089">
        <ele>121.6</ele>
        <time>2022-11-16T14:45:53Z</time>
      </trkpt>
      <trkpt lat="50.003" lon="2.3709">
        <ele>121.6</ele>
        <time>2022-11-16T14:45:54Z</time>
      </trkpt>
      <trkpt lat="50.00301" lon="2.37092">
        <ele>121.6</ele>
        <time>2022-11-16T14:45:55Z</time>
      </trkpt>
      <trkpt lat="50.00301" lon="2.37093">
        <ele>121.6</ele>
        <time>2022-11-16T14:45:56Z</time>
      </trkpt>
      <trkpt lat="50.00301" lon="2.37094">
        <ele>121.6</ele>
        <time>2022-11-16T14:45:57Z</time>
      </trkpt>
      <trkpt lat="50.00302" lon="2.37096">
        <ele>121.7</ele>
        <time>2022-11-16T14:45:58Z</time>
      </trkpt>
      <trkpt lat="50.00303" lon="2.37099">
        <ele>121.7</ele>
        <time>2022-11-16T14:46:00Z</time>
      </trkpt>
      <trkpt lat="50.00303" lon="2.371">
        <ele>121.7</ele>
        <time>2022-11-16T14:46:01Z</time>
      </trkpt>
      <trkpt lat="50.00304" lon="2.37101">
        <ele>121.8</ele>
        <time>2022-11-16T14:46:02Z</time>
      </trkpt>
      <trkpt lat="50.00304" lon="2.37103">
        <ele>121.8</ele>
        <time>2022-11-16T14:46:03Z</time>
      </trkpt>
      <trkpt lat="50.00305" lon="2.37105">
        <ele>121.8</ele>
        <time>2022-11-16T14:46:04Z</time>
      </trkpt>
      <trkpt lat="50.00306" lon="2.37107">
        <ele>121.9</ele>
        <time>2022-11-16T14:46:05Z</time>
      </trkpt>
      <trkpt lat="50.00306" lon="2.37109">
        <ele>121.9</ele>
        <time>2022-11-16T14:46:07Z</time>
      </trkpt>
      <trkpt lat="50.00307" lon="2.37111">
        <ele>121.9</ele>
        <time>2022-11-16T14:46:08Z</time>
      </trkpt>
      <trkpt lat="50.00307" lon="2.37112">
        <ele>122</ele>
        <time>2022-11-16T14:46:09Z</time>
      </trkpt>
      <trkpt lat="50.00308" lon="2.37114">
        <ele>122</ele>
        <time>2022-11-16T14:46:10Z</time>
      </trkpt>
      <trkpt lat="50.00309" lon="2.37117">
        <ele>122</ele>
        <time>2022-11-16T14:46:11Z</time>
      </trkpt>
      <trkpt lat="50.00309" lon="2.37118">
        <ele>122.1</ele>
        <time>2022-11-16T14:46:12Z</time>
      </trkpt>
      <trkpt lat="50.00309" lon="2.37119">
        <ele>122.1</ele>
        <time>2022-11-16T14:46:13Z</time>
      </trkpt>
      <trkpt lat="50.0031" lon="2.37121">
        <ele>122.1</ele>
        <time>2022-11-16T14:46:14Z</time>
      </trkpt>
      <trkpt lat="50.0031" lon="2.37123">
        <ele>122.1</ele>
        <time>2022-11-16T14:46:16Z</time>
      </trkpt>
      <trkpt lat="50.00311" lon="2.37124">
        <ele>122.2</ele>
        <time>2022-11-16T14:46:17Z</time>
      </trkpt>
      <trkpt lat="50.00311" lon="2.37126">
        <ele>122.2</ele>
        <time>2022-11-16T14:46:18Z</time>
      </trkpt>
      <trkpt lat="50.00312" lon="2.37127">
        <ele>122.2</ele>
        <time>2022-11-16T14:46:19Z</time>
      </trkpt>
      <trkpt lat="50.00312" lon="2.37129">
        <ele>122.2</ele>
        <time>2022-11-16T14:46:20Z</time>
      </trkpt>
      <trkpt lat="50.00313" lon="2.37132">
        <ele>122.3</ele>
        <time>2022-11-16T14:46:21Z</time>
      </trkpt>
      <trkpt lat="50.00313" lon="2.37133">
        <ele>122.3</ele>
        <time>2022-11-16T14:46:22Z</time>
      </trkpt>
      <trkpt lat="50.00314" lon="2.37134">
        <ele>122.3</ele>
        <time>2022-11-16T14:46:23Z</time>
      </trkpt>
      <trkpt lat="50.00314" lon="2.37136">
        <ele>122.4</ele>
        <time>2022-11-16T14:46:25Z</time>
      </trkpt>
      <trkpt lat="50.00314" lon="2.37137">
        <ele>122.4</ele>
        <time>2022-11-16T14:46:26Z</time>
      </trkpt>
      <trkpt lat="50.00315" lon="2.37138">
        <ele>122.4</ele>
        <time>2022-11-16T14:46:27Z</time>
      </trkpt>
      <trkpt lat="50.00315" lon="2.3714">
        <ele>122.4</ele>
        <time>2022-11-16T14:46:28Z</time>
      </trkpt>
      <trkpt lat="50.00315" lon="2.37142">
        <ele>122.5</ele>
        <time>2022-11-16T14:46:29Z</time>
      </trkpt>
      <trkpt lat="50.00316" lon="2.37144">
        <ele>122.5</ele>
        <time>2022-11-16T14:46:30Z</time>
      </trkpt>
      <trkpt lat="50.00316" lon="2.37145">
        <ele>122.5</ele>
        <time>2022-11-16T14:46:31Z</time>
      </trkpt>
      <trkpt lat="50.00317" lon="2.37147">
        <ele>122.6</ele>
        <time>2022-11-16T14:46:32Z</time>
      </trkpt>
      <trkpt lat="50.00317" lon="2.37149">
        <ele>122.6</ele>
        <time>2022-11-16T14:46:34Z</time>
      </trkpt>
      <trkpt lat="50.00318" lon="2.3715">
        <ele>122.6</ele>
        <time>2022-11-16T14:46:35Z</time>
      </trkpt>
      <trkpt lat="50.00319" lon="2.37151">
        <ele>122.6</ele>
        <time>2022-11-16T14:46:36Z</time>
      </trkpt>
      <trkpt lat="50.00319" lon="2.37154">
        <ele>122.7</ele>
        <time>2022-11-16T14:46:38Z</time>
      </trkpt>
      <trkpt lat="50.0032" lon="2.37155">
        <ele>122.7</ele>
        <time>2022-11-16T14:46:39Z</time>
      </trkpt>
      <trkpt lat="50.00321" lon="2.37157">
        <ele>122.7</ele>
        <time>2022-11-16T14:46:40Z</time>
      </trkpt>
      <trkpt lat="50.00321" lon="2.37159">
        <ele>122.8</ele>
        <time>2022-11-16T14:46:41Z</time>
      </trkpt>
      <trkpt lat="50.00321" lon="2.3716">
        <ele>122.8</ele>
        <time>2022-11-16T14:46:42Z</time>
      </trkpt>
      <trkpt lat="50.00322" lon="2.37161">
        <ele>122.8</ele>
        <time>2022-11-16T14:46:43Z</time>
      </trkpt>
      <trkpt lat="50.00322" lon="2.37163">
        <ele>122.8</ele>
        <time>2022-11-16T14:46:44Z</time>
      </trkpt>
      <trkpt lat="50.00323" lon="2.37164">
        <ele>122.9</ele>
        <time>2022-11-16T14:46:46Z</time>
      </trkpt>
      <trkpt lat="50.00323" lon="2.37166">
        <ele>122.9</ele>
        <time>2022-11-16T14:46:47Z</time>
      </trkpt>
      <trkpt lat="50.00324" lon="2.37167">
        <ele>122.9</ele>
        <time>2022-11-16T14:46:48Z</time>
      </trkpt>
      <trkpt lat="50.00325" lon="2.37169">
        <ele>123</ele>
        <time>2022-11-16T14:46:49Z</time>
      </trkpt>
      <trkpt lat="50.00325" lon="2.3717">
        <ele>123</ele>
        <time>2022-11-16T14:46:50Z</time>
      </trkpt>
      <trkpt lat="50.00326" lon="2.37172">
        <ele>123</ele>
        <time>2022-11-16T14:46:51Z</time>
      </trkpt>
      <trkpt lat="50.00326" lon="2.37173">
        <ele>123</ele>
        <time>2022-11-16T14:46:52Z</time>
      </trkpt>
      <trkpt lat="50.00327" lon="2.37175">
        <ele>123.1</ele>
        <time>2022-11-16T14:46:54Z</time>
      </trkpt>
      <trkpt lat="50.00327" lon="2.37176">
        <ele>123.1</ele>
        <time>2022-11-16T14:46:55Z</time>
      </trkpt>
      <trkpt lat="50.00328" lon="2.37177">
        <ele>123.1</ele>
        <time>2022-11-16T14:46:56Z</time>
      </trkpt>
      <trkpt lat="50.00328" lon="2.37179">
        <ele>123.1</ele>
        <time>2022-11-16T14:46:57Z</time>
      </trkpt>
      <trkpt lat="50.00328" lon="2.37181">
        <ele>123.2</ele>
        <time>2022-11-16T14:46:58Z</time>
      </trkpt>
      <trkpt lat="50.00329" lon="2.37182">
        <ele>123.2</ele>
        <time>2022-11-16T14:46:59Z</time>
      </trkpt>
      <trkpt lat="50.00329" lon="2.37184">
        <ele>123.2</ele>
        <time>2022-11-16T14:47:01Z</time>
      </trkpt>
      <trkpt lat="50.00329" lon="2.37186">
        <ele>123.2</ele>
        <time>2022-11-16T14:47:02Z</time>
      </trkpt>
      <trkpt lat="50.0033" lon="2.37187">
        <ele>123.3</ele>
        <time>2022-11-16T14:47:03Z</time>
      </trkpt>
      <trkpt lat="50.0033" lon="2.37189">
        <ele>123.3</ele>
        <time>2022-11-16T14:47:04Z</time>
      </trkpt>
      <trkpt lat="50.0033" lon="2.3719">
        <ele>123.3</ele>
        <time>2022-11-16T14:47:05Z</time>
      </trkpt>
      <trkpt lat="50.00331" lon="2.37192">
        <ele>123.4</ele>
        <time>2022-11-16T14:47:06Z</time>
      </trkpt>
      <trkpt lat="50.00331" lon="2.37193">
        <ele>123.4</ele>
        <time>2022-11-16T14:47:07Z</time>
      </trkpt>
      <trkpt lat="50.00332" lon="2.37195">
        <ele>123.4</ele>
        <time>2022-11-16T14:47:09Z</time>
      </trkpt>
      <trkpt lat="50.00332" lon="2.37197">
        <ele>123.4</ele>
        <time>2022-11-16T14:47:10Z</time>
      </trkpt>
      <trkpt lat="50.00332" lon="2.37198">
        <ele>123.4</ele>
        <time>2022-11-16T14:47:11Z</time>
      </trkpt>
      <trkpt lat="50.00332" lon="2.372">
        <ele>123.5</ele>
        <time>2022-11-16T14:47:12Z</time>
      </trkpt>
      <trkpt lat="50.00333" lon="2.37202">
        <ele>123.5</ele>
        <time>2022-11-16T14:47:13Z</time>
      </trkpt>
      <trkpt lat="50.00333" lon="2.37203">
        <ele>123.5</ele>
        <time>2022-11-16T14:47:14Z</time>
      </trkpt>
      <trkpt lat="50.00333" lon="2.37204">
        <ele>123.5</ele>
        <time>2022-11-16T14:47:16Z</time>
      </trkpt>
      <trkpt lat="50.00334" lon="2.37205">
        <ele>123.5</ele>
        <time>2022-11-16T14:47:17Z</time>
      </trkpt>
      <trkpt lat="50.00334" lon="2.37207">
        <ele>123.5</ele>
        <time>2022-11-16T14:47:18Z</time>
      </trkpt>
      <trkpt lat="50.00335" lon="2.37208">
        <ele>123.6</ele>
        <time>2022-11-16T14:47:19Z</time>
      </trkpt>
      <trkpt lat="50.00335" lon="2.37209">
        <ele>123.6</ele>
        <time>2022-11-16T14:47:21Z</time>
      </trkpt>
      <trkpt lat="50.00335" lon="2.3721">
        <ele>123.6</ele>
        <time>2022-11-16T14:47:22Z</time>
      </trkpt>
      <trkpt lat="50.00336" lon="2.37211">
        <ele>123.6</ele>
        <time>2022-11-16T14:47:23Z</time>
      </trkpt>
      <trkpt lat="50.00336" lon="2.37212">
        <ele>123.6</ele>
        <time>2022-11-16T14:47:24Z</time>
      </trkpt>
      <trkpt lat="50.00337" lon="2.37213">
        <ele>123.6</ele>
        <time>2022-11-16T14:47:25Z</time>
      </trkpt>
      <trkpt lat="50.00338" lon="2.37214">
        <ele>123.6</ele>
        <time>2022-11-16T14:47:26Z</time>
      </trkpt>
      <trkpt lat="50.00338" lon="2.37215">
        <ele>123.7</ele>
        <time>2022-11-16T14:47:28Z</time>
      </trkpt>
      <trkpt lat="50.00339" lon="2.37216">
        <ele>123.7</ele>
        <time>2022-11-16T14:47:29Z</time>
      </trkpt>
      <trkpt lat="50.00339" lon="2.37217">
        <ele>123.7</ele>
        <time>2022-11-16T14:47:30Z</time>
      </trkpt>
      <trkpt lat="50.00339" lon="2.37218">
        <ele>123.7</ele>
        <time>2022-11-16T14:47:31Z</time>
      </trkpt>
      <trkpt lat="50.0034" lon="2.37219">
        <ele>123.7</ele>
        <time>2022-11-16T14:47:32Z</time>
      </trkpt>
      <trkpt lat="50.0034" lon="2.3722">
        <ele>123.7</ele>
        <time>2022-11-16T14:47:33Z</time>
      </trkpt>
      <trkpt lat="50.0034" lon="2.37222">
        <ele>123.7</ele>
        <time>2022-11-16T14:47:34Z</time>
      </trkpt>
      <trkpt lat="50.00341" lon="2.37223">
        <ele>123.8</ele>
        <time>2022-11-16T14:47:35Z</time>
      </trkpt>
      <trkpt lat="50.00341" lon="2.37225">
        <ele>123.8</ele>
        <time>2022-11-16T14:47:36Z</time>
      </trkpt>
      <trkpt lat="50.00342" lon="2.37227">
        <ele>123.8</ele>
        <time>2022-11-16T14:47:37Z</time>
      </trkpt>
      <trkpt lat="50.00342" lon="2.37229">
        <ele>123.8</ele>
        <time>2022-11-16T14:47:38Z</time>
      </trkpt>
      <trkpt lat="50.00342" lon="2.37231">
        <ele>123.9</ele>
        <time>2022-11-16T14:47:40Z</time>
      </trkpt>
      <trkpt lat="50.00342" lon="2.37234">
        <ele>123.9</ele>
        <time>2022-11-16T14:47:41Z</time>
      </trkpt>
      <trkpt lat="50.00342" lon="2.37235">
        <ele>123.9</ele>
        <time>2022-11-16T14:47:42Z</time>
      </trkpt>
      <trkpt lat="50.00343" lon="2.37236">
        <ele>123.9</ele>
        <time>2022-11-16T14:47:43Z</time>
      </trkpt>
      <trkpt lat="50.00343" lon="2.37238">
        <ele>123.9</ele>
        <time>2022-11-16T14:47:44Z</time>
      </trkpt>
      <trkpt lat="50.00344" lon="2.37239">
        <ele>124</ele>
        <time>2022-11-16T14:47:45Z</time>
      </trkpt>
      <trkpt lat="50.00344" lon="2.37241">
        <ele>124</ele>
        <time>2022-11-16T14:47:46Z</time>
      </trkpt>
      <trkpt lat="50.00345" lon="2.37243">
        <ele>124</ele>
        <time>2022-11-16T14:47:47Z</time>
      </trkpt>
      <trkpt lat="50.00345" lon="2.37244">
        <ele>124</ele>
        <time>2022-11-16T14:47:49Z</time>
      </trkpt>
      <trkpt lat="50.00345" lon="2.37246">
        <ele>124</ele>
        <time>2022-11-16T14:47:50Z</time>
      </trkpt>
      <trkpt lat="50.00345" lon="2.37247">
        <ele>124.1</ele>
        <time>2022-11-16T14:47:51Z</time>
      </trkpt>
      <trkpt lat="50.00346" lon="2.37249">
        <ele>124.1</ele>
        <time>2022-11-16T14:47:52Z</time>
      </trkpt>
      <trkpt lat="50.00346" lon="2.37251">
        <ele>124.1</ele>
        <time>2022-11-16T14:47:53Z</time>
      </trkpt>
      <trkpt lat="50.00347" lon="2.37254">
        <ele>124.1</ele>
        <time>2022-11-16T14:47:54Z</time>
      </trkpt>
      <trkpt lat="50.00347" lon="2.37255">
        <ele>124.2</ele>
        <time>2022-11-16T14:47:55Z</time>
      </trkpt>
      <trkpt lat="50.00347" lon="2.37257">
        <ele>124.2</ele>
        <time>2022-11-16T14:47:56Z</time>
      </trkpt>
      <trkpt lat="50.00348" lon="2.37259">
        <ele>124.2</ele>
        <time>2022-11-16T14:47:57Z</time>
      </trkpt>
      <trkpt lat="50.00348" lon="2.37261">
        <ele>124.2</ele>
        <time>2022-11-16T14:47:58Z</time>
      </trkpt>
      <trkpt lat="50.00349" lon="2.37264">
        <ele>124.3</ele>
        <time>2022-11-16T14:48:00Z</time>
      </trkpt>
      <trkpt lat="50.00349" lon="2.37265">
        <ele>124.3</ele>
        <time>2022-11-16T14:48:01Z</time>
      </trkpt>
      <trkpt lat="50.0035" lon="2.37266">
        <ele>124.3</ele>
        <time>2022-11-16T14:48:02Z</time>
      </trkpt>
      <trkpt lat="50.0035" lon="2.37268">
        <ele>124.3</ele>
        <time>2022-11-16T14:48:03Z</time>
      </trkpt>
      <trkpt lat="50.00351" lon="2.37269">
        <ele>124.3</ele>
        <time>2022-11-16T14:48:04Z</time>
      </trkpt>
      <trkpt lat="50.00351" lon="2.37271">
        <ele>124.3</ele>
        <time>2022-11-16T14:48:05Z</time>
      </trkpt>
      <trkpt lat="50.00352" lon="2.37272">
        <ele>124.4</ele>
        <time>2022-11-16T14:48:06Z</time>
      </trkpt>
      <trkpt lat="50.00352" lon="2.37274">
        <ele>124.4</ele>
        <time>2022-11-16T14:48:07Z</time>
      </trkpt>
      <trkpt lat="50.00353" lon="2.37276">
        <ele>124.4</ele>
        <time>2022-11-16T14:48:08Z</time>
      </trkpt>
      <trkpt lat="50.00353" lon="2.37277">
        <ele>124.4</ele>
        <time>2022-11-16T14:48:09Z</time>
      </trkpt>
      <trkpt lat="50.00354" lon="2.37279">
        <ele>124.4</ele>
        <time>2022-11-16T14:48:11Z</time>
      </trkpt>
      <trkpt lat="50.00354" lon="2.3728">
        <ele>124.5</ele>
        <time>2022-11-16T14:48:12Z</time>
      </trkpt>
      <trkpt lat="50.00355" lon="2.37281">
        <ele>124.5</ele>
        <time>2022-11-16T14:48:13Z</time>
      </trkpt>
      <trkpt lat="50.00355" lon="2.37283">
        <ele>124.5</ele>
        <time>2022-11-16T14:48:14Z</time>
      </trkpt>
      <trkpt lat="50.00356" lon="2.37284">
        <ele>124.5</ele>
        <time>2022-11-16T14:48:15Z</time>
      </trkpt>
      <trkpt lat="50.00357" lon="2.37287">
        <ele>124.6</ele>
        <time>2022-11-16T14:48:17Z</time>
      </trkpt>
      <trkpt lat="50.00357" lon="2.37288">
        <ele>124.6</ele>
        <time>2022-11-16T14:48:18Z</time>
      </trkpt>
      <trkpt lat="50.00357" lon="2.37289">
        <ele>124.6</ele>
        <time>2022-11-16T14:48:19Z</time>
      </trkpt>
      <trkpt lat="50.00358" lon="2.37292">
        <ele>124.6</ele>
        <time>2022-11-16T14:48:20Z</time>
      </trkpt>
      <trkpt lat="50.00359" lon="2.37293">
        <ele>124.6</ele>
        <time>2022-11-16T14:48:21Z</time>
      </trkpt>
      <trkpt lat="50.00359" lon="2.37295">
        <ele>124.7</ele>
        <time>2022-11-16T14:48:22Z</time>
      </trkpt>
      <trkpt lat="50.0036" lon="2.37297">
        <ele>124.7</ele>
        <time>2022-11-16T14:48:23Z</time>
      </trkpt>
      <trkpt lat="50.00361" lon="2.37299">
        <ele>124.7</ele>
        <time>2022-11-16T14:48:24Z</time>
      </trkpt>
      <trkpt lat="50.00361" lon="2.37301">
        <ele>124.7</ele>
        <time>2022-11-16T14:48:25Z</time>
      </trkpt>
      <trkpt lat="50.00361" lon="2.37302">
        <ele>124.7</ele>
        <time>2022-11-16T14:48:26Z</time>
      </trkpt>
      <trkpt lat="50.00362" lon="2.37304">
        <ele>124.8</ele>
        <time>2022-11-16T14:48:28Z</time>
      </trkpt>
      <trkpt lat="50.00362" lon="2.37307">
        <ele>124.8</ele>
        <time>2022-11-16T14:48:29Z</time>
      </trkpt>
      <trkpt lat="50.00362" lon="2.37309">
        <ele>124.8</ele>
        <time>2022-11-16T14:48:30Z</time>
      </trkpt>
      <trkpt lat="50.00362" lon="2.3731">
        <ele>124.8</ele>
        <time>2022-11-16T14:48:31Z</time>
      </trkpt>
      <trkpt lat="50.00362" lon="2.37313">
        <ele>124.9</ele>
        <time>2022-11-16T14:48:32Z</time>
      </trkpt>
      <trkpt lat="50.00363" lon="2.37315">
        <ele>124.9</ele>
        <time>2022-11-16T14:48:33Z</time>
      </trkpt>
      <trkpt lat="50.00363" lon="2.37317">
        <ele>124.9</ele>
        <time>2022-11-16T14:48:35Z</time>
      </trkpt>
      <trkpt lat="50.00363" lon="2.37318">
        <ele>124.9</ele>
        <time>2022-11-16T14:48:36Z</time>
      </trkpt>
      <trkpt lat="50.00363" lon="2.3732">
        <ele>124.9</ele>
        <time>2022-11-16T14:48:37Z</time>
      </trkpt>
      <trkpt lat="50.00364" lon="2.37321">
        <ele>125</ele>
        <time>2022-11-16T14:48:38Z</time>
      </trkpt>
      <trkpt lat="50.00364" lon="2.37324">
        <ele>125</ele>
        <time>2022-11-16T14:48:40Z</time>
      </trkpt>
      <trkpt lat="50.00364" lon="2.37324">
        <ele>125</ele>
        <time>2022-11-16T14:48:41Z</time>
      </trkpt>
      <trkpt lat="50.00364" lon="2.37325">
        <ele>125</ele>
        <time>2022-11-16T14:48:42Z</time>
      </trkpt>
      <trkpt lat="50.00364" lon="2.37326">
        <ele>125</ele>
        <time>2022-11-16T14:48:43Z</time>
      </trkpt>
      <trkpt lat="50.00365" lon="2.37327">
        <ele>125</ele>
        <time>2022-11-16T14:48:44Z</time>
      </trkpt>
      <trkpt lat="50.00365" lon="2.37328">
        <ele>125</ele>
        <time>2022-11-16T14:48:45Z</time>
      </trkpt>
      <trkpt lat="50.00365" lon="2.37328">
        <ele>125</ele>
        <time>2022-11-16T14:48:46Z</time>
      </trkpt>
      <trkpt lat="50.00365" lon="2.37329">
        <ele>125</ele>
        <time>2022-11-16T14:48:47Z</time>
      </trkpt>
      <trkpt lat="50.00364" lon="2.37329">
        <ele>125</ele>
        <time>2022-11-16T14:48:48Z</time>
      </trkpt>
      <trkpt lat="50.00364" lon="2.37328">
        <ele>125</ele>
        <time>2022-11-16T14:48:49Z</time>
      </trkpt>
      <trkpt lat="50.00364" lon="2.37328">
        <ele>125</ele>
        <time>2022-11-16T14:48:50Z</time>
      </trkpt>
      <trkpt lat="50.00364" lon="2.37328">
        <ele>125</ele>
        <time>2022-11-16T14:48:51Z</time>
      </trkpt>
      <trkpt lat="50.00364" lon="2.37328">
        <ele>125</ele>
        <time>2022-11-16T14:48:52Z</time>
      </trkpt>
      <trkpt lat="50.00364" lon="2.37328">
        <ele>125</ele>
        <time>2022-11-16T14:48:53Z</time>
      </trkpt>
      <trkpt lat="50.00364" lon="2.37328">
        <ele>125</ele>
        <time>2022-11-16T14:48:54Z</time>
      </trkpt>
      <trkpt lat="50.00364" lon="2.37327">
        <ele>125</ele>
        <time>2022-11-16T14:48:55Z</time>
      </trkpt>
      <trkpt lat="50.00364" lon="2.37327">
        <ele>125</ele>
        <time>2022-11-16T14:48:56Z</time>
      </trkpt>
      <trkpt lat="50.00363" lon="2.37327">
        <ele>125</ele>
        <time>2022-11-16T14:48:57Z</time>
      </trkpt>
      <trkpt lat="50.00363" lon="2.37326">
        <ele>125</ele>
        <time>2022-11-16T14:48:59Z</time>
      </trkpt>
      <trkpt lat="50.00363" lon="2.37325">
        <ele>125</ele>
        <time>2022-11-16T14:49:00Z</time>
      </trkpt>
      <trkpt lat="50.00363" lon="2.37324">
        <ele>124.9</ele>
        <time>2022-11-16T14:49:01Z</time>
      </trkpt>
      <trkpt lat="50.00363" lon="2.37323">
        <ele>124.9</ele>
        <time>2022-11-16T14:49:02Z</time>
      </trkpt>
      <trkpt lat="50.00363" lon="2.37322">
        <ele>124.9</ele>
        <time>2022-11-16T14:49:03Z</time>
      </trkpt>
      <trkpt lat="50.00364" lon="2.37321">
        <ele>124.9</ele>
        <time>2022-11-16T14:49:04Z</time>
      </trkpt>
      <trkpt lat="50.00364" lon="2.37321">
        <ele>124.9</ele>
        <time>2022-11-16T14:49:05Z</time>
      </trkpt>
      <trkpt lat="50.00365" lon="2.3732">
        <ele>124.9</ele>
        <time>2022-11-16T14:49:06Z</time>
      </trkpt>
      <trkpt lat="50.00366" lon="2.3732">
        <ele>124.9</ele>
        <time>2022-11-16T14:49:07Z</time>
      </trkpt>
      <trkpt lat="50.00367" lon="2.37319">
        <ele>124.9</ele>
        <time>2022-11-16T14:49:09Z</time>
      </trkpt>
      <trkpt lat="50.00368" lon="2.37318">
        <ele>124.8</ele>
        <time>2022-11-16T14:49:10Z</time>
      </trkpt>
      <trkpt lat="50.00369" lon="2.37317">
        <ele>124.8</ele>
        <time>2022-11-16T14:49:11Z</time>
      </trkpt>
      <trkpt lat="50.00369" lon="2.37316">
        <ele>124.8</ele>
        <time>2022-11-16T14:49:13Z</time>
      </trkpt>
      <trkpt lat="50.0037" lon="2.37315">
        <ele>124.8</ele>
        <time>2022-11-16T14:49:14Z</time>
      </trkpt>
      <trkpt lat="50.00371" lon="2.37313">
        <ele>124.8</ele>
        <time>2022-11-16T14:49:15Z</time>
      </trkpt>
      <trkpt lat="50.00372" lon="2.37312">
        <ele>124.7</ele>
        <time>2022-11-16T14:49:16Z</time>
      </trkpt>
      <trkpt lat="50.00372" lon="2.37311">
        <ele>124.7</ele>
        <time>2022-11-16T14:49:17Z</time>
      </trkpt>
      <trkpt lat="50.00373" lon="2.3731">
        <ele>124.7</ele>
        <time>2022-11-16T14:49:18Z</time>
      </trkpt>
      <trkpt lat="50.00373" lon="2.37309">
        <ele>124.7</ele>
        <time>2022-11-16T14:49:19Z</time>
      </trkpt>
      <trkpt lat="50.00374" lon="2.37308">
        <ele>124.7</ele>
        <time>2022-11-16T14:49:20Z</time>
      </trkpt>
      <trkpt lat="50.00375" lon="2.37307">
        <ele>124.7</ele>
        <time>2022-11-16T14:49:21Z</time>
      </trkpt>
      <trkpt lat="50.00376" lon="2.37307">
        <ele>124.6</ele>
        <time>2022-11-16T14:49:22Z</time>
      </trkpt>
      <trkpt lat="50.00376" lon="2.37306">
        <ele>124.6</ele>
        <time>2022-11-16T14:49:23Z</time>
      </trkpt>
      <trkpt lat="50.00377" lon="2.37305">
        <ele>124.6</ele>
        <time>2022-11-16T14:49:24Z</time>
      </trkpt>
      <trkpt lat="50.00378" lon="2.37304">
        <ele>124.6</ele>
        <time>2022-11-16T14:49:26Z</time>
      </trkpt>
      <trkpt lat="50.00379" lon="2.37304">
        <ele>124.5</ele>
        <time>2022-11-16T14:49:27Z</time>
      </trkpt>
      <trkpt lat="50.0038" lon="2.37303">
        <ele>124.5</ele>
        <time>2022-11-16T14:49:28Z</time>
      </trkpt>
      <trkpt lat="50.00381" lon="2.37303">
        <ele>124.5</ele>
        <time>2022-11-16T14:49:29Z</time>
      </trkpt>
      <trkpt lat="50.00383" lon="2.37302">
        <ele>124.5</ele>
        <time>2022-11-16T14:49:30Z</time>
      </trkpt>
      <trkpt lat="50.00384" lon="2.37301">
        <ele>124.4</ele>
        <time>2022-11-16T14:49:32Z</time>
      </trkpt>
      <trkpt lat="50.00385" lon="2.37301">
        <ele>124.4</ele>
        <time>2022-11-16T14:49:33Z</time>
      </trkpt>
      <trkpt lat="50.00386" lon="2.373">
        <ele>124.4</ele>
        <time>2022-11-16T14:49:34Z</time>
      </trkpt>
      <trkpt lat="50.00387" lon="2.373">
        <ele>124.4</ele>
        <time>2022-11-16T14:49:35Z</time>
      </trkpt>
      <trkpt lat="50.00389" lon="2.37299">
        <ele>124.3</ele>
        <time>2022-11-16T14:49:36Z</time>
      </trkpt>
      <trkpt lat="50.0039" lon="2.37298">
        <ele>124.3</ele>
        <time>2022-11-16T14:49:38Z</time>
      </trkpt>
      <trkpt lat="50.00391" lon="2.37298">
        <ele>124.3</ele>
        <time>2022-11-16T14:49:39Z</time>
      </trkpt>
      <trkpt lat="50.00392" lon="2.37298">
        <ele>124.3</ele>
        <time>2022-11-16T14:49:40Z</time>
      </trkpt>
      <trkpt lat="50.00393" lon="2.37297">
        <ele>124.3</ele>
        <time>2022-11-16T14:49:41Z</time>
      </trkpt>
      <trkpt lat="50.00395" lon="2.37297">
        <ele>124.3</ele>
        <time>2022-11-16T14:49:42Z</time>
      </trkpt>
      <trkpt lat="50.00396" lon="2.37297">
        <ele>124.3</ele>
        <time>2022-11-16T14:49:43Z</time>
      </trkpt>
      <trkpt lat="50.00397" lon="2.37297">
        <ele>124.3</ele>
        <time>2022-11-16T14:49:44Z</time>
      </trkpt>
      <trkpt lat="50.00399" lon="2.37296">
        <ele>124.3</ele>
        <time>2022-11-16T14:49:45Z</time>
      </trkpt>
      <trkpt lat="50.004" lon="2.37296">
        <ele>124.3</ele>
        <time>2022-11-16T14:49:47Z</time>
      </trkpt>
      <trkpt lat="50.00401" lon="2.37296">
        <ele>124.3</ele>
        <time>2022-11-16T14:49:48Z</time>
      </trkpt>
      <trkpt lat="50.00402" lon="2.37295">
        <ele>124.2</ele>
        <time>2022-11-16T14:49:49Z</time>
      </trkpt>
      <trkpt lat="50.00403" lon="2.37295">
        <ele>124.2</ele>
        <time>2022-11-16T14:49:50Z</time>
      </trkpt>
      <trkpt lat="50.00404" lon="2.37294">
        <ele>124.2</ele>
        <time>2022-11-16T14:49:51Z</time>
      </trkpt>
      <trkpt lat="50.00405" lon="2.37293">
        <ele>124.2</ele>
        <time>2022-11-16T14:49:52Z</time>
      </trkpt>
      <trkpt lat="50.00407" lon="2.37293">
        <ele>124.2</ele>
        <time>2022-11-16T14:49:53Z</time>
      </trkpt>
      <trkpt lat="50.00408" lon="2.37292">
        <ele>124.2</ele>
        <time>2022-11-16T14:49:54Z</time>
      </trkpt>
      <trkpt lat="50.00409" lon="2.37291">
        <ele>124.2</ele>
        <time>2022-11-16T14:49:55Z</time>
      </trkpt>
      <trkpt lat="50.0041" lon="2.37291">
        <ele>124.2</ele>
        <time>2022-11-16T14:49:57Z</time>
      </trkpt>
      <trkpt lat="50.00411" lon="2.3729">
        <ele>124.2</ele>
        <time>2022-11-16T14:49:58Z</time>
      </trkpt>
      <trkpt lat="50.00412" lon="2.37289">
        <ele>124.2</ele>
        <time>2022-11-16T14:49:59Z</time>
      </trkpt>
      <trkpt lat="50.00414" lon="2.37289">
        <ele>124.2</ele>
        <time>2022-11-16T14:50:00Z</time>
      </trkpt>
      <trkpt lat="50.00415" lon="2.37289">
        <ele>124.2</ele>
        <time>2022-11-16T14:50:01Z</time>
      </trkpt>
      <trkpt lat="50.00416" lon="2.37288">
        <ele>124.2</ele>
        <time>2022-11-16T14:50:02Z</time>
      </trkpt>
      <trkpt lat="50.00417" lon="2.37287">
        <ele>124.2</ele>
        <time>2022-11-16T14:50:03Z</time>
      </trkpt>
      <trkpt lat="50.00418" lon="2.37287">
        <ele>124.2</ele>
        <time>2022-11-16T14:50:04Z</time>
      </trkpt>
      <trkpt lat="50.00419" lon="2.37286">
        <ele>124.2</ele>
        <time>2022-11-16T14:50:05Z</time>
      </trkpt>
      <trkpt lat="50.0042" lon="2.37286">
        <ele>124.2</ele>
        <time>2022-11-16T14:50:07Z</time>
      </trkpt>
      <trkpt lat="50.00421" lon="2.37286">
        <ele>124.2</ele>
        <time>2022-11-16T14:50:08Z</time>
      </trkpt>
      <trkpt lat="50.00422" lon="2.37286">
        <ele>124.2</ele>
        <time>2022-11-16T14:50:09Z</time>
      </trkpt>
      <trkpt lat="50.00423" lon="2.37286">
        <ele>124.2</ele>
        <time>2022-11-16T14:50:10Z</time>
      </trkpt>
      <trkpt lat="50.00425" lon="2.37285">
        <ele>124.2</ele>
        <time>2022-11-16T14:50:11Z</time>
      </trkpt>
      <trkpt lat="50.00426" lon="2.37285">
        <ele>124.1</ele>
        <time>2022-11-16T14:50:12Z</time>
      </trkpt>
      <trkpt lat="50.00427" lon="2.37285">
        <ele>124.1</ele>
        <time>2022-11-16T14:50:14Z</time>
      </trkpt>
      <trkpt lat="50.00428" lon="2.37284">
        <ele>124.1</ele>
        <time>2022-11-16T14:50:15Z</time>
      </trkpt>
      <trkpt lat="50.00429" lon="2.37284">
        <ele>124.1</ele>
        <time>2022-11-16T14:50:16Z</time>
      </trkpt>
      <trkpt lat="50.00431" lon="2.37283">
        <ele>124.1</ele>
        <time>2022-11-16T14:50:17Z</time>
      </trkpt>
      <trkpt lat="50.00432" lon="2.37283">
        <ele>124.1</ele>
        <time>2022-11-16T14:50:18Z</time>
      </trkpt>
      <trkpt lat="50.00433" lon="2.37283">
        <ele>124.1</ele>
        <time>2022-11-16T14:50:19Z</time>
      </trkpt>
      <trkpt lat="50.00434" lon="2.37282">
        <ele>124.1</ele>
        <time>2022-11-16T14:50:20Z</time>
      </trkpt>
      <trkpt lat="50.00435" lon="2.37282">
        <ele>124.1</ele>
        <time>2022-11-16T14:50:21Z</time>
      </trkpt>
      <trkpt lat="50.00436" lon="2.37281">
        <ele>124.1</ele>
        <time>2022-11-16T14:50:23Z</time>
      </trkpt>
      <trkpt lat="50.00437" lon="2.3728">
        <ele>124.1</ele>
        <time>2022-11-16T14:50:24Z</time>
      </trkpt>
      <trkpt lat="50.00438" lon="2.3728">
        <ele>124.1</ele>
        <time>2022-11-16T14:50:25Z</time>
      </trkpt>
      <trkpt lat="50.00439" lon="2.37279">
        <ele>124.1</ele>
        <time>2022-11-16T14:50:26Z</time>
      </trkpt>
      <trkpt lat="50.00441" lon="2.37278">
        <ele>124.1</ele>
        <time>2022-11-16T14:50:27Z</time>
      </trkpt>
      <trkpt lat="50.00442" lon="2.37278">
        <ele>124.1</ele>
        <time>2022-11-16T14:50:28Z</time>
      </trkpt>
      <trkpt lat="50.00443" lon="2.37278">
        <ele>124.1</ele>
        <time>2022-11-16T14:50:29Z</time>
      </trkpt>
      <trkpt lat="50.00444" lon="2.37277">
        <ele>124.1</ele>
        <time>2022-11-16T14:50:30Z</time>
      </trkpt>
      <trkpt lat="50.00445" lon="2.37276">
        <ele>124.1</ele>
        <time>2022-11-16T14:50:31Z</time>
      </trkpt>
      <trkpt lat="50.00446" lon="2.37276">
        <ele>124.1</ele>
        <time>2022-11-16T14:50:33Z</time>
      </trkpt>
      <trkpt lat="50.00447" lon="2.37275">
        <ele>124.1</ele>
        <time>2022-11-16T14:50:34Z</time>
      </trkpt>
      <trkpt lat="50.00449" lon="2.37275">
        <ele>124.1</ele>
        <time>2022-11-16T14:50:35Z</time>
      </trkpt>
      <trkpt lat="50.0045" lon="2.37275">
        <ele>124.1</ele>
        <time>2022-11-16T14:50:36Z</time>
      </trkpt>
      <trkpt lat="50.00452" lon="2.37274">
        <ele>124.1</ele>
        <time>2022-11-16T14:50:37Z</time>
      </trkpt>
      <trkpt lat="50.00453" lon="2.37274">
        <ele>124.1</ele>
        <time>2022-11-16T14:50:38Z</time>
      </trkpt>
      <trkpt lat="50.00454" lon="2.37273">
        <ele>124.1</ele>
        <time>2022-11-16T14:50:39Z</time>
      </trkpt>
      <trkpt lat="50.00455" lon="2.37273">
        <ele>124.1</ele>
        <time>2022-11-16T14:50:41Z</time>
      </trkpt>
      <trkpt lat="50.00457" lon="2.37273">
        <ele>124.1</ele>
        <time>2022-11-16T14:50:42Z</time>
      </trkpt>
      <trkpt lat="50.00458" lon="2.37272">
        <ele>124.1</ele>
        <time>2022-11-16T14:50:43Z</time>
      </trkpt>
      <trkpt lat="50.00459" lon="2.37271">
        <ele>124.1</ele>
        <time>2022-11-16T14:50:44Z</time>
      </trkpt>
      <trkpt lat="50.00461" lon="2.37271">
        <ele>124.1</ele>
        <time>2022-11-16T14:50:45Z</time>
      </trkpt>
      <trkpt lat="50.00462" lon="2.3727">
        <ele>124.1</ele>
        <time>2022-11-16T14:50:46Z</time>
      </trkpt>
      <trkpt lat="50.00463" lon="2.37269">
        <ele>124.1</ele>
        <time>2022-11-16T14:50:47Z</time>
      </trkpt>
      <trkpt lat="50.00464" lon="2.37269">
        <ele>124.1</ele>
        <time>2022-11-16T14:50:48Z</time>
      </trkpt>
      <trkpt lat="50.00465" lon="2.37268">
        <ele>124.1</ele>
        <time>2022-11-16T14:50:49Z</time>
      </trkpt>
      <trkpt lat="50.00467" lon="2.37267">
        <ele>124.1</ele>
        <time>2022-11-16T14:50:50Z</time>
      </trkpt>
      <trkpt lat="50.00468" lon="2.37266">
        <ele>124.1</ele>
        <time>2022-11-16T14:50:51Z</time>
      </trkpt>
      <trkpt lat="50.00469" lon="2.37266">
        <ele>124.1</ele>
        <time>2022-11-16T14:50:53Z</time>
      </trkpt>
      <trkpt lat="50.0047" lon="2.37265">
        <ele>124.1</ele>
        <time>2022-11-16T14:50:54Z</time>
      </trkpt>
      <trkpt lat="50.00471" lon="2.37265">
        <ele>124.1</ele>
        <time>2022-11-16T14:50:55Z</time>
      </trkpt>
      <trkpt lat="50.00472" lon="2.37264">
        <ele>124.1</ele>
        <time>2022-11-16T14:50:56Z</time>
      </trkpt>
      <trkpt lat="50.00473" lon="2.37263">
        <ele>124.1</ele>
        <time>2022-11-16T14:50:57Z</time>
      </trkpt>
      <trkpt lat="50.00474" lon="2.37262">
        <ele>124.1</ele>
        <time>2022-11-16T14:50:58Z</time>
      </trkpt>
      <trkpt lat="50.00475" lon="2.37262">
        <ele>124.1</ele>
        <time>2022-11-16T14:50:59Z</time>
      </trkpt>
      <trkpt lat="50.00476" lon="2.37261">
        <ele>124.1</ele>
        <time>2022-11-16T14:51:00Z</time>
      </trkpt>
      <trkpt lat="50.00477" lon="2.37261">
        <ele>124.1</ele>
        <time>2022-11-16T14:51:02Z</time>
      </trkpt>
      <trkpt lat="50.00478" lon="2.3726">
        <ele>124.1</ele>
        <time>2022-11-16T14:51:03Z</time>
      </trkpt>
      <trkpt lat="50.0048" lon="2.37259">
        <ele>124.1</ele>
        <time>2022-11-16T14:51:04Z</time>
      </trkpt>
      <trkpt lat="50.00481" lon="2.37259">
        <ele>124.1</ele>
        <time>2022-11-16T14:51:05Z</time>
      </trkpt>
      <trkpt lat="50.00482" lon="2.37259">
        <ele>124.1</ele>
        <time>2022-11-16T14:51:06Z</time>
      </trkpt>
      <trkpt lat="50.00484" lon="2.37258">
        <ele>124.1</ele>
        <time>2022-11-16T14:51:07Z</time>
      </trkpt>
      <trkpt lat="50.00485" lon="2.37258">
        <ele>124.1</ele>
        <time>2022-11-16T14:51:08Z</time>
      </trkpt>
      <trkpt lat="50.00485" lon="2.37257">
        <ele>124.1</ele>
        <time>2022-11-16T14:51:09Z</time>
      </trkpt>
      <trkpt lat="50.00486" lon="2.37257">
        <ele>124.1</ele>
        <time>2022-11-16T14:51:11Z</time>
      </trkpt>
      <trkpt lat="50.00487" lon="2.37257">
        <ele>124.1</ele>
        <time>2022-11-16T14:51:12Z</time>
      </trkpt>
      <trkpt lat="50.00488" lon="2.37256">
        <ele>124.1</ele>
        <time>2022-11-16T14:51:13Z</time>
      </trkpt>
      <trkpt lat="50.00489" lon="2.37256">
        <ele>124.1</ele>
        <time>2022-11-16T14:51:14Z</time>
      </trkpt>
      <trkpt lat="50.0049" lon="2.37256">
        <ele>124.1</ele>
        <time>2022-11-16T14:51:15Z</time>
      </trkpt>
      <trkpt lat="50.00492" lon="2.37255">
        <ele>124.2</ele>
        <time>2022-11-16T14:51:16Z</time>
      </trkpt>
      <trkpt lat="50.00494" lon="2.37255">
        <ele>124.2</ele>
        <time>2022-11-16T14:51:17Z</time>
      </trkpt>
      <trkpt lat="50.00495" lon="2.37254">
        <ele>124.2</ele>
        <time>2022-11-16T14:51:18Z</time>
      </trkpt>
      <trkpt lat="50.00496" lon="2.37254">
        <ele>124.2</ele>
        <time>2022-11-16T14:51:19Z</time>
      </trkpt>
      <trkpt lat="50.00497" lon="2.37253">
        <ele>124.2</ele>
        <time>2022-11-16T14:51:20Z</time>
      </trkpt>
      <trkpt lat="50.00498" lon="2.37252">
        <ele>124.2</ele>
        <time>2022-11-16T14:51:21Z</time>
      </trkpt>
      <trkpt lat="50.00499" lon="2.37251">
        <ele>124.2</ele>
        <time>2022-11-16T14:51:23Z</time>
      </trkpt>
      <trkpt lat="50.005" lon="2.37251">
        <ele>124.3</ele>
        <time>2022-11-16T14:51:24Z</time>
      </trkpt>
      <trkpt lat="50.00501" lon="2.3725">
        <ele>124.3</ele>
        <time>2022-11-16T14:51:25Z</time>
      </trkpt>
      <trkpt lat="50.00502" lon="2.3725">
        <ele>124.3</ele>
        <time>2022-11-16T14:51:26Z</time>
      </trkpt>
      <trkpt lat="50.00504" lon="2.3725">
        <ele>124.3</ele>
        <time>2022-11-16T14:51:27Z</time>
      </trkpt>
      <trkpt lat="50.00505" lon="2.3725">
        <ele>124.3</ele>
        <time>2022-11-16T14:51:28Z</time>
      </trkpt>
      <trkpt lat="50.00506" lon="2.37249">
        <ele>124.3</ele>
        <time>2022-11-16T14:51:29Z</time>
      </trkpt>
      <trkpt lat="50.00507" lon="2.37248">
        <ele>124.3</ele>
        <time>2022-11-16T14:51:30Z</time>
      </trkpt>
      <trkpt lat="50.00509" lon="2.37248">
        <ele>124.4</ele>
        <time>2022-11-16T14:51:31Z</time>
      </trkpt>
      <trkpt lat="50.0051" lon="2.37247">
        <ele>124.4</ele>
        <time>2022-11-16T14:51:32Z</time>
      </trkpt>
      <trkpt lat="50.00511" lon="2.37247">
        <ele>124.4</ele>
        <time>2022-11-16T14:51:33Z</time>
      </trkpt>
      <trkpt lat="50.00513" lon="2.37246">
        <ele>124.4</ele>
        <time>2022-11-16T14:51:35Z</time>
      </trkpt>
      <trkpt lat="50.00514" lon="2.37245">
        <ele>124.4</ele>
        <time>2022-11-16T14:51:36Z</time>
      </trkpt>
      <trkpt lat="50.00515" lon="2.37245">
        <ele>124.4</ele>
        <time>2022-11-16T14:51:37Z</time>
      </trkpt>
      <trkpt lat="50.00516" lon="2.37244">
        <ele>124.5</ele>
        <time>2022-11-16T14:51:38Z</time>
      </trkpt>
      <trkpt lat="50.00517" lon="2.37244">
        <ele>124.5</ele>
        <time>2022-11-16T14:51:39Z</time>
      </trkpt>
      <trkpt lat="50.00518" lon="2.37243">
        <ele>124.5</ele>
        <time>2022-11-16T14:51:40Z</time>
      </trkpt>
      <trkpt lat="50.00519" lon="2.37242">
        <ele>124.5</ele>
        <time>2022-11-16T14:51:41Z</time>
      </trkpt>
      <trkpt lat="50.0052" lon="2.37242">
        <ele>124.5</ele>
        <time>2022-11-16T14:51:42Z</time>
      </trkpt>
      <trkpt lat="50.00521" lon="2.37241">
        <ele>124.5</ele>
        <time>2022-11-16T14:51:43Z</time>
      </trkpt>
      <trkpt lat="50.00522" lon="2.37241">
        <ele>124.6</ele>
        <time>2022-11-16T14:51:45Z</time>
      </trkpt>
      <trkpt lat="50.00523" lon="2.37241">
        <ele>124.6</ele>
        <time>2022-11-16T14:51:46Z</time>
      </trkpt>
      <trkpt lat="50.00524" lon="2.3724">
        <ele>124.6</ele>
        <time>2022-11-16T14:51:47Z</time>
      </trkpt>
      <trkpt lat="50.00526" lon="2.3724">
        <ele>124.6</ele>
        <time>2022-11-16T14:51:48Z</time>
      </trkpt>
      <trkpt lat="50.00527" lon="2.3724">
        <ele>124.6</ele>
        <time>2022-11-16T14:51:49Z</time>
      </trkpt>
      <trkpt lat="50.00528" lon="2.37239">
        <ele>124.6</ele>
        <time>2022-11-16T14:51:50Z</time>
      </trkpt>
      <trkpt lat="50.00529" lon="2.37239">
        <ele>124.7</ele>
        <time>2022-11-16T14:51:51Z</time>
      </trkpt>
      <trkpt lat="50.0053" lon="2.37238">
        <ele>124.7</ele>
        <time>2022-11-16T14:51:52Z</time>
      </trkpt>
      <trkpt lat="50.00532" lon="2.37237">
        <ele>124.7</ele>
        <time>2022-11-16T14:51:53Z</time>
      </trkpt>
      <trkpt lat="50.00533" lon="2.37236">
        <ele>124.7</ele>
        <time>2022-11-16T14:51:54Z</time>
      </trkpt>
      <trkpt lat="50.00534" lon="2.37235">
        <ele>124.7</ele>
        <time>2022-11-16T14:51:56Z</time>
      </trkpt>
      <trkpt lat="50.00535" lon="2.37235">
        <ele>124.8</ele>
        <time>2022-11-16T14:51:57Z</time>
      </trkpt>
      <trkpt lat="50.00536" lon="2.37235">
        <ele>124.8</ele>
        <time>2022-11-16T14:51:58Z</time>
      </trkpt>
      <trkpt lat="50.00537" lon="2.37234">
        <ele>124.8</ele>
        <time>2022-11-16T14:51:59Z</time>
      </trkpt>
      <trkpt lat="50.00539" lon="2.37234">
        <ele>124.8</ele>
        <time>2022-11-16T14:52:00Z</time>
      </trkpt>
      <trkpt lat="50.0054" lon="2.37233">
        <ele>124.8</ele>
        <time>2022-11-16T14:52:01Z</time>
      </trkpt>
      <trkpt lat="50.00542" lon="2.37233">
        <ele>124.8</ele>
        <time>2022-11-16T14:52:03Z</time>
      </trkpt>
      <trkpt lat="50.00543" lon="2.37233">
        <ele>124.9</ele>
        <time>2022-11-16T14:52:04Z</time>
      </trkpt>
      <trkpt lat="50.00543" lon="2.37232">
        <ele>124.9</ele>
        <time>2022-11-16T14:52:05Z</time>
      </trkpt>
      <trkpt lat="50.00546" lon="2.37232">
        <ele>124.9</ele>
        <time>2022-11-16T14:52:06Z</time>
      </trkpt>
      <trkpt lat="50.00546" lon="2.37231">
        <ele>124.9</ele>
        <time>2022-11-16T14:52:07Z</time>
      </trkpt>
      <trkpt lat="50.00547" lon="2.37231">
        <ele>124.9</ele>
        <time>2022-11-16T14:52:08Z</time>
      </trkpt>
      <trkpt lat="50.00549" lon="2.3723">
        <ele>125</ele>
        <time>2022-11-16T14:52:09Z</time>
      </trkpt>
      <trkpt lat="50.0055" lon="2.3723">
        <ele>125</ele>
        <time>2022-11-16T14:52:10Z</time>
      </trkpt>
      <trkpt lat="50.00551" lon="2.37229">
        <ele>125</ele>
        <time>2022-11-16T14:52:11Z</time>
      </trkpt>
      <trkpt lat="50.00552" lon="2.37228">
        <ele>125</ele>
        <time>2022-11-16T14:52:12Z</time>
      </trkpt>
      <trkpt lat="50.00553" lon="2.37228">
        <ele>125</ele>
        <time>2022-11-16T14:52:13Z</time>
      </trkpt>
      <trkpt lat="50.00555" lon="2.37227">
        <ele>125</ele>
        <time>2022-11-16T14:52:14Z</time>
      </trkpt>
      <trkpt lat="50.00556" lon="2.37227">
        <ele>125.1</ele>
        <time>2022-11-16T14:52:15Z</time>
      </trkpt>
      <trkpt lat="50.00557" lon="2.37226">
        <ele>125.1</ele>
        <time>2022-11-16T14:52:16Z</time>
      </trkpt>
      <trkpt lat="50.00558" lon="2.37225">
        <ele>125.1</ele>
        <time>2022-11-16T14:52:17Z</time>
      </trkpt>
      <trkpt lat="50.0056" lon="2.37224">
        <ele>125.1</ele>
        <time>2022-11-16T14:52:19Z</time>
      </trkpt>
      <trkpt lat="50.00561" lon="2.37224">
        <ele>125.1</ele>
        <time>2022-11-16T14:52:20Z</time>
      </trkpt>
      <trkpt lat="50.00562" lon="2.37223">
        <ele>125.2</ele>
        <time>2022-11-16T14:52:21Z</time>
      </trkpt>
      <trkpt lat="50.00563" lon="2.37223">
        <ele>125.2</ele>
        <time>2022-11-16T14:52:22Z</time>
      </trkpt>
      <trkpt lat="50.00564" lon="2.37222">
        <ele>125.2</ele>
        <time>2022-11-16T14:52:23Z</time>
      </trkpt>
      <trkpt lat="50.00565" lon="2.37222">
        <ele>125.2</ele>
        <time>2022-11-16T14:52:24Z</time>
      </trkpt>
      <trkpt lat="50.00566" lon="2.37221">
        <ele>125.2</ele>
        <time>2022-11-16T14:52:25Z</time>
      </trkpt>
      <trkpt lat="50.00567" lon="2.37221">
        <ele>125.2</ele>
        <time>2022-11-16T14:52:26Z</time>
      </trkpt>
      <trkpt lat="50.00568" lon="2.3722">
        <ele>125.3</ele>
        <time>2022-11-16T14:52:27Z</time>
      </trkpt>
      <trkpt lat="50.0057" lon="2.37219">
        <ele>125.3</ele>
        <time>2022-11-16T14:52:29Z</time>
      </trkpt>
      <trkpt lat="50.00571" lon="2.37219">
        <ele>125.3</ele>
        <time>2022-11-16T14:52:30Z</time>
      </trkpt>
      <trkpt lat="50.00571" lon="2.37219">
        <ele>125.3</ele>
        <time>2022-11-16T14:52:31Z</time>
      </trkpt>
      <trkpt lat="50.00572" lon="2.37218">
        <ele>125.3</ele>
        <time>2022-11-16T14:52:32Z</time>
      </trkpt>
      <trkpt lat="50.00574" lon="2.37217">
        <ele>125.3</ele>
        <time>2022-11-16T14:52:33Z</time>
      </trkpt>
      <trkpt lat="50.00575" lon="2.37216">
        <ele>125.3</ele>
        <time>2022-11-16T14:52:34Z</time>
      </trkpt>
      <trkpt lat="50.00575" lon="2.37216">
        <ele>125.4</ele>
        <time>2022-11-16T14:52:35Z</time>
      </trkpt>
      <trkpt lat="50.00577" lon="2.37214">
        <ele>125.4</ele>
        <time>2022-11-16T14:52:36Z</time>
      </trkpt>
      <trkpt lat="50.00578" lon="2.37214">
        <ele>125.4</ele>
        <time>2022-11-16T14:52:38Z</time>
      </trkpt>
      <trkpt lat="50.00579" lon="2.37213">
        <ele>125.4</ele>
        <time>2022-11-16T14:52:39Z</time>
      </trkpt>
      <trkpt lat="50.00579" lon="2.37213">
        <ele>125.4</ele>
        <time>2022-11-16T14:52:40Z</time>
      </trkpt>
      <trkpt lat="50.0058" lon="2.37212">
        <ele>125.4</ele>
        <time>2022-11-16T14:52:41Z</time>
      </trkpt>
      <trkpt lat="50.00582" lon="2.37211">
        <ele>125.5</ele>
        <time>2022-11-16T14:52:42Z</time>
      </trkpt>
      <trkpt lat="50.00583" lon="2.3721">
        <ele>125.5</ele>
        <time>2022-11-16T14:52:43Z</time>
      </trkpt>
      <trkpt lat="50.00584" lon="2.37208">
        <ele>125.5</ele>
        <time>2022-11-16T14:52:44Z</time>
      </trkpt>
      <trkpt lat="50.00586" lon="2.37207">
        <ele>125.5</ele>
        <time>2022-11-16T14:52:45Z</time>
      </trkpt>
      <trkpt lat="50.00587" lon="2.37206">
        <ele>125.5</ele>
        <time>2022-11-16T14:52:46Z</time>
      </trkpt>
      <trkpt lat="50.00587" lon="2.37205">
        <ele>125.5</ele>
        <time>2022-11-16T14:52:47Z</time>
      </trkpt>
      <trkpt lat="50.00589" lon="2.37204">
        <ele>125.6</ele>
        <time>2022-11-16T14:52:49Z</time>
      </trkpt>
      <trkpt lat="50.0059" lon="2.37204">
        <ele>125.6</ele>
        <time>2022-11-16T14:52:50Z</time>
      </trkpt>
      <trkpt lat="50.00591" lon="2.37203">
        <ele>125.6</ele>
        <time>2022-11-16T14:52:51Z</time>
      </trkpt>
      <trkpt lat="50.00592" lon="2.37202">
        <ele>125.6</ele>
        <time>2022-11-16T14:52:52Z</time>
      </trkpt>
      <trkpt lat="50.00593" lon="2.37201">
        <ele>125.6</ele>
        <time>2022-11-16T14:52:53Z</time>
      </trkpt>
      <trkpt lat="50.00594" lon="2.372">
        <ele>125.6</ele>
        <time>2022-11-16T14:52:54Z</time>
      </trkpt>
      <trkpt lat="50.00595" lon="2.37199">
        <ele>125.6</ele>
        <time>2022-11-16T14:52:55Z</time>
      </trkpt>
      <trkpt lat="50.00596" lon="2.37198">
        <ele>125.7</ele>
        <time>2022-11-16T14:52:56Z</time>
      </trkpt>
      <trkpt lat="50.00597" lon="2.37197">
        <ele>125.7</ele>
        <time>2022-11-16T14:52:57Z</time>
      </trkpt>
      <trkpt lat="50.00598" lon="2.37197">
        <ele>125.7</ele>
        <time>2022-11-16T14:52:58Z</time>
      </trkpt>
      <trkpt lat="50.00599" lon="2.37196">
        <ele>125.7</ele>
        <time>2022-11-16T14:52:59Z</time>
      </trkpt>
      <trkpt lat="50.006" lon="2.37195">
        <ele>125.7</ele>
        <time>2022-11-16T14:53:01Z</time>
      </trkpt>
      <trkpt lat="50.00601" lon="2.37194">
        <ele>125.7</ele>
        <time>2022-11-16T14:53:02Z</time>
      </trkpt>
      <trkpt lat="50.00602" lon="2.37193">
        <ele>125.7</ele>
        <time>2022-11-16T14:53:03Z</time>
      </trkpt>
      <trkpt lat="50.00603" lon="2.37193">
        <ele>125.7</ele>
        <time>2022-11-16T14:53:04Z</time>
      </trkpt>
      <trkpt lat="50.00605" lon="2.37192">
        <ele>125.8</ele>
        <time>2022-11-16T14:53:05Z</time>
      </trkpt>
      <trkpt lat="50.00606" lon="2.37191">
        <ele>125.8</ele>
        <time>2022-11-16T14:53:06Z</time>
      </trkpt>
      <trkpt lat="50.00606" lon="2.3719">
        <ele>125.8</ele>
        <time>2022-11-16T14:53:07Z</time>
      </trkpt>
      <trkpt lat="50.00608" lon="2.37189">
        <ele>125.8</ele>
        <time>2022-11-16T14:53:08Z</time>
      </trkpt>
      <trkpt lat="50.00609" lon="2.37188">
        <ele>125.8</ele>
        <time>2022-11-16T14:53:09Z</time>
      </trkpt>
      <trkpt lat="50.00609" lon="2.37187">
        <ele>125.8</ele>
        <time>2022-11-16T14:53:10Z</time>
      </trkpt>
      <trkpt lat="50.00611" lon="2.37186">
        <ele>125.8</ele>
        <time>2022-11-16T14:53:12Z</time>
      </trkpt>
      <trkpt lat="50.00612" lon="2.37185">
        <ele>125.8</ele>
        <time>2022-11-16T14:53:13Z</time>
      </trkpt>
      <trkpt lat="50.00612" lon="2.37185">
        <ele>125.9</ele>
        <time>2022-11-16T14:53:14Z</time>
      </trkpt>
      <trkpt lat="50.00613" lon="2.37184">
        <ele>125.9</ele>
        <time>2022-11-16T14:53:15Z</time>
      </trkpt>
      <trkpt lat="50.00614" lon="2.37183">
        <ele>125.9</ele>
        <time>2022-11-16T14:53:16Z</time>
      </trkpt>
      <trkpt lat="50.00615" lon="2.37182">
        <ele>125.9</ele>
        <time>2022-11-16T14:53:17Z</time>
      </trkpt>
      <trkpt lat="50.00616" lon="2.3718">
        <ele>125.9</ele>
        <time>2022-11-16T14:53:19Z</time>
      </trkpt>
      <trkpt lat="50.00618" lon="2.37178">
        <ele>126</ele>
        <time>2022-11-16T14:53:20Z</time>
      </trkpt>
      <trkpt lat="50.00619" lon="2.37177">
        <ele>126</ele>
        <time>2022-11-16T14:53:21Z</time>
      </trkpt>
      <trkpt lat="50.0062" lon="2.37176">
        <ele>126</ele>
        <time>2022-11-16T14:53:22Z</time>
      </trkpt>
      <trkpt lat="50.00621" lon="2.37174">
        <ele>126.1</ele>
        <time>2022-11-16T14:53:23Z</time>
      </trkpt>
      <trkpt lat="50.00622" lon="2.37173">
        <ele>126.1</ele>
        <time>2022-11-16T14:53:24Z</time>
      </trkpt>
      <trkpt lat="50.00623" lon="2.37172">
        <ele>126.1</ele>
        <time>2022-11-16T14:53:25Z</time>
      </trkpt>
      <trkpt lat="50.00624" lon="2.37171">
        <ele>126.2</ele>
        <time>2022-11-16T14:53:27Z</time>
      </trkpt>
      <trkpt lat="50.00625" lon="2.3717">
        <ele>126.2</ele>
        <time>2022-11-16T14:53:28Z</time>
      </trkpt>
      <trkpt lat="50.00626" lon="2.37168">
        <ele>126.2</ele>
        <time>2022-11-16T14:53:29Z</time>
      </trkpt>
      <trkpt lat="50.00627" lon="2.37167">
        <ele>126.2</ele>
        <time>2022-11-16T14:53:30Z</time>
      </trkpt>
      <trkpt lat="50.00628" lon="2.37166">
        <ele>126.3</ele>
        <time>2022-11-16T14:53:31Z</time>
      </trkpt>
      <trkpt lat="50.00629" lon="2.37165">
        <ele>126.3</ele>
        <time>2022-11-16T14:53:32Z</time>
      </trkpt>
      <trkpt lat="50.0063" lon="2.37164">
        <ele>126.3</ele>
        <time>2022-11-16T14:53:33Z</time>
      </trkpt>
      <trkpt lat="50.00631" lon="2.37163">
        <ele>126.3</ele>
        <time>2022-11-16T14:53:35Z</time>
      </trkpt>
      <trkpt lat="50.00632" lon="2.37162">
        <ele>126.4</ele>
        <time>2022-11-16T14:53:36Z</time>
      </trkpt>
      <trkpt lat="50.00633" lon="2.37161">
        <ele>126.4</ele>
        <time>2022-11-16T14:53:37Z</time>
      </trkpt>
      <trkpt lat="50.00634" lon="2.3716">
        <ele>126.4</ele>
        <time>2022-11-16T14:53:38Z</time>
      </trkpt>
      <trkpt lat="50.00635" lon="2.37159">
        <ele>126.4</ele>
        <time>2022-11-16T14:53:39Z</time>
      </trkpt>
      <trkpt lat="50.00636" lon="2.37158">
        <ele>126.5</ele>
        <time>2022-11-16T14:53:40Z</time>
      </trkpt>
      <trkpt lat="50.00637" lon="2.37157">
        <ele>126.5</ele>
        <time>2022-11-16T14:53:41Z</time>
      </trkpt>
      <trkpt lat="50.00638" lon="2.37156">
        <ele>126.5</ele>
        <time>2022-11-16T14:53:42Z</time>
      </trkpt>
      <trkpt lat="50.00639" lon="2.37155">
        <ele>126.5</ele>
        <time>2022-11-16T14:53:44Z</time>
      </trkpt>
      <trkpt lat="50.0064" lon="2.37154">
        <ele>126.5</ele>
        <time>2022-11-16T14:53:45Z</time>
      </trkpt>
      <trkpt lat="50.00641" lon="2.37154">
        <ele>126.6</ele>
        <time>2022-11-16T14:53:46Z</time>
      </trkpt>
      <trkpt lat="50.00642" lon="2.37153">
        <ele>126.6</ele>
        <time>2022-11-16T14:53:47Z</time>
      </trkpt>
      <trkpt lat="50.00643" lon="2.37152">
        <ele>126.6</ele>
        <time>2022-11-16T14:53:48Z</time>
      </trkpt>
      <trkpt lat="50.00644" lon="2.37151">
        <ele>126.6</ele>
        <time>2022-11-16T14:53:49Z</time>
      </trkpt>
      <trkpt lat="50.00645" lon="2.3715">
        <ele>126.6</ele>
        <time>2022-11-16T14:53:50Z</time>
      </trkpt>
      <trkpt lat="50.00645" lon="2.37149">
        <ele>126.7</ele>
        <time>2022-11-16T14:53:51Z</time>
      </trkpt>
      <trkpt lat="50.00646" lon="2.37149">
        <ele>126.7</ele>
        <time>2022-11-16T14:53:52Z</time>
      </trkpt>
      <trkpt lat="50.00647" lon="2.37148">
        <ele>126.7</ele>
        <time>2022-11-16T14:53:53Z</time>
      </trkpt>
      <trkpt lat="50.00648" lon="2.37147">
        <ele>126.7</ele>
        <time>2022-11-16T14:53:55Z</time>
      </trkpt>
      <trkpt lat="50.0065" lon="2.37146">
        <ele>126.7</ele>
        <time>2022-11-16T14:53:56Z</time>
      </trkpt>
      <trkpt lat="50.00651" lon="2.37145">
        <ele>126.7</ele>
        <time>2022-11-16T14:53:57Z</time>
      </trkpt>
      <trkpt lat="50.00652" lon="2.37144">
        <ele>126.8</ele>
        <time>2022-11-16T14:53:59Z</time>
      </trkpt>
      <trkpt lat="50.00653" lon="2.37144">
        <ele>126.8</ele>
        <time>2022-11-16T14:54:00Z</time>
      </trkpt>
      <trkpt lat="50.00654" lon="2.37143">
        <ele>126.8</ele>
        <time>2022-11-16T14:54:01Z</time>
      </trkpt>
      <trkpt lat="50.00655" lon="2.37143">
        <ele>126.8</ele>
        <time>2022-11-16T14:54:02Z</time>
      </trkpt>
      <trkpt lat="50.00656" lon="2.37142">
        <ele>126.8</ele>
        <time>2022-11-16T14:54:03Z</time>
      </trkpt>
      <trkpt lat="50.00658" lon="2.3714">
        <ele>126.9</ele>
        <time>2022-11-16T14:54:04Z</time>
      </trkpt>
      <trkpt lat="50.00659" lon="2.3714">
        <ele>126.9</ele>
        <time>2022-11-16T14:54:05Z</time>
      </trkpt>
      <trkpt lat="50.0066" lon="2.37139">
        <ele>126.9</ele>
        <time>2022-11-16T14:54:06Z</time>
      </trkpt>
      <trkpt lat="50.00661" lon="2.37138">
        <ele>126.9</ele>
        <time>2022-11-16T14:54:07Z</time>
      </trkpt>
      <trkpt lat="50.00662" lon="2.37137">
        <ele>126.9</ele>
        <time>2022-11-16T14:54:08Z</time>
      </trkpt>
      <trkpt lat="50.00663" lon="2.37137">
        <ele>126.9</ele>
        <time>2022-11-16T14:54:09Z</time>
      </trkpt>
      <trkpt lat="50.00664" lon="2.37136">
        <ele>127</ele>
        <time>2022-11-16T14:54:11Z</time>
      </trkpt>
      <trkpt lat="50.00665" lon="2.37135">
        <ele>127</ele>
        <time>2022-11-16T14:54:12Z</time>
      </trkpt>
      <trkpt lat="50.00666" lon="2.37135">
        <ele>127</ele>
        <time>2022-11-16T14:54:13Z</time>
      </trkpt>
      <trkpt lat="50.00667" lon="2.37135">
        <ele>127</ele>
        <time>2022-11-16T14:54:14Z</time>
      </trkpt>
      <trkpt lat="50.00668" lon="2.37134">
        <ele>127</ele>
        <time>2022-11-16T14:54:15Z</time>
      </trkpt>
      <trkpt lat="50.00669" lon="2.37134">
        <ele>127</ele>
        <time>2022-11-16T14:54:16Z</time>
      </trkpt>
      <trkpt lat="50.00671" lon="2.37133">
        <ele>127.1</ele>
        <time>2022-11-16T14:54:17Z</time>
      </trkpt>
      <trkpt lat="50.00672" lon="2.37133">
        <ele>127.1</ele>
        <time>2022-11-16T14:54:18Z</time>
      </trkpt>
      <trkpt lat="50.00673" lon="2.37132">
        <ele>127.1</ele>
        <time>2022-11-16T14:54:19Z</time>
      </trkpt>
      <trkpt lat="50.00674" lon="2.37132">
        <ele>127.1</ele>
        <time>2022-11-16T14:54:20Z</time>
      </trkpt>
      <trkpt lat="50.00675" lon="2.37131">
        <ele>127.1</ele>
        <time>2022-11-16T14:54:21Z</time>
      </trkpt>
      <trkpt lat="50.00676" lon="2.3713">
        <ele>127.1</ele>
        <time>2022-11-16T14:54:23Z</time>
      </trkpt>
      <trkpt lat="50.00677" lon="2.3713">
        <ele>127.1</ele>
        <time>2022-11-16T14:54:24Z</time>
      </trkpt>
      <trkpt lat="50.00678" lon="2.3713">
        <ele>127.1</ele>
        <time>2022-11-16T14:54:25Z</time>
      </trkpt>
      <trkpt lat="50.00679" lon="2.37129">
        <ele>127.2</ele>
        <time>2022-11-16T14:54:26Z</time>
      </trkpt>
      <trkpt lat="50.00681" lon="2.37128">
        <ele>127.2</ele>
        <time>2022-11-16T14:54:27Z</time>
      </trkpt>
      <trkpt lat="50.00682" lon="2.37127">
        <ele>127.2</ele>
        <time>2022-11-16T14:54:28Z</time>
      </trkpt>
      <trkpt lat="50.00683" lon="2.37126">
        <ele>127.2</ele>
        <time>2022-11-16T14:54:29Z</time>
      </trkpt>
      <trkpt lat="50.00684" lon="2.37125">
        <ele>127.2</ele>
        <time>2022-11-16T14:54:30Z</time>
      </trkpt>
      <trkpt lat="50.00685" lon="2.37124">
        <ele>127.2</ele>
        <time>2022-11-16T14:54:31Z</time>
      </trkpt>
      <trkpt lat="50.00687" lon="2.37123">
        <ele>127.2</ele>
        <time>2022-11-16T14:54:32Z</time>
      </trkpt>
      <trkpt lat="50.00688" lon="2.37122">
        <ele>127.2</ele>
        <time>2022-11-16T14:54:34Z</time>
      </trkpt>
      <trkpt lat="50.00689" lon="2.37121">
        <ele>127.2</ele>
        <time>2022-11-16T14:54:35Z</time>
      </trkpt>
      <trkpt lat="50.00691" lon="2.3712">
        <ele>127.2</ele>
        <time>2022-11-16T14:54:36Z</time>
      </trkpt>
      <trkpt lat="50.00692" lon="2.3712">
        <ele>127.2</ele>
        <time>2022-11-16T14:54:37Z</time>
      </trkpt>
      <trkpt lat="50.00693" lon="2.37119">
        <ele>127.2</ele>
        <time>2022-11-16T14:54:38Z</time>
      </trkpt>
      <trkpt lat="50.00694" lon="2.37118">
        <ele>127.2</ele>
        <time>2022-11-16T14:54:39Z</time>
      </trkpt>
      <trkpt lat="50.00695" lon="2.37117">
        <ele>127.2</ele>
        <time>2022-11-16T14:54:40Z</time>
      </trkpt>
      <trkpt lat="50.00696" lon="2.37116">
        <ele>127.2</ele>
        <time>2022-11-16T14:54:41Z</time>
      </trkpt>
      <trkpt lat="50.00697" lon="2.37115">
        <ele>127.2</ele>
        <time>2022-11-16T14:54:42Z</time>
      </trkpt>
      <trkpt lat="50.00698" lon="2.37115">
        <ele>127.2</ele>
        <time>2022-11-16T14:54:44Z</time>
      </trkpt>
      <trkpt lat="50.00699" lon="2.37114">
        <ele>127.2</ele>
        <time>2022-11-16T14:54:45Z</time>
      </trkpt>
      <trkpt lat="50.007" lon="2.37114">
        <ele>127.2</ele>
        <time>2022-11-16T14:54:46Z</time>
      </trkpt>
      <trkpt lat="50.00701" lon="2.37113">
        <ele>127.2</ele>
        <time>2022-11-16T14:54:47Z</time>
      </trkpt>
      <trkpt lat="50.00702" lon="2.37112">
        <ele>127.2</ele>
        <time>2022-11-16T14:54:48Z</time>
      </trkpt>
      <trkpt lat="50.00703" lon="2.37111">
        <ele>127.2</ele>
        <time>2022-11-16T14:54:49Z</time>
      </trkpt>
      <trkpt lat="50.00704" lon="2.37109">
        <ele>127.2</ele>
        <time>2022-11-16T14:54:50Z</time>
      </trkpt>
      <trkpt lat="50.00706" lon="2.37108">
        <ele>127.2</ele>
        <time>2022-11-16T14:54:51Z</time>
      </trkpt>
      <trkpt lat="50.00707" lon="2.37107">
        <ele>127.3</ele>
        <time>2022-11-16T14:54:52Z</time>
      </trkpt>
      <trkpt lat="50.00708" lon="2.37106">
        <ele>127.3</ele>
        <time>2022-11-16T14:54:53Z</time>
      </trkpt>
      <trkpt lat="50.00709" lon="2.37105">
        <ele>127.3</ele>
        <time>2022-11-16T14:54:55Z</time>
      </trkpt>
      <trkpt lat="50.0071" lon="2.37104">
        <ele>127.3</ele>
        <time>2022-11-16T14:54:56Z</time>
      </trkpt>
      <trkpt lat="50.00711" lon="2.37104">
        <ele>127.3</ele>
        <time>2022-11-16T14:54:57Z</time>
      </trkpt>
      <trkpt lat="50.00712" lon="2.37103">
        <ele>127.3</ele>
        <time>2022-11-16T14:54:58Z</time>
      </trkpt>
      <trkpt lat="50.00714" lon="2.37102">
        <ele>127.4</ele>
        <time>2022-11-16T14:54:59Z</time>
      </trkpt>
      <trkpt lat="50.00715" lon="2.37101">
        <ele>127.4</ele>
        <time>2022-11-16T14:55:00Z</time>
      </trkpt>
      <trkpt lat="50.00716" lon="2.37101">
        <ele>127.4</ele>
        <time>2022-11-16T14:55:01Z</time>
      </trkpt>
      <trkpt lat="50.00718" lon="2.371">
        <ele>127.4</ele>
        <time>2022-11-16T14:55:02Z</time>
      </trkpt>
      <trkpt lat="50.00719" lon="2.37099">
        <ele>127.4</ele>
        <time>2022-11-16T14:55:03Z</time>
      </trkpt>
      <trkpt lat="50.00719" lon="2.37099">
        <ele>127.4</ele>
        <time>2022-11-16T14:55:04Z</time>
      </trkpt>
      <trkpt lat="50.00721" lon="2.37098">
        <ele>127.5</ele>
        <time>2022-11-16T14:55:06Z</time>
      </trkpt>
      <trkpt lat="50.00721" lon="2.37097">
        <ele>127.5</ele>
        <time>2022-11-16T14:55:07Z</time>
      </trkpt>
      <trkpt lat="50.00722" lon="2.37096">
        <ele>127.5</ele>
        <time>2022-11-16T14:55:08Z</time>
      </trkpt>
      <trkpt lat="50.00722" lon="2.37096">
        <ele>127.5</ele>
        <time>2022-11-16T14:55:09Z</time>
      </trkpt>
      <trkpt lat="50.00723" lon="2.37095">
        <ele>127.5</ele>
        <time>2022-11-16T14:55:10Z</time>
      </trkpt>
      <trkpt lat="50.00724" lon="2.37094">
        <ele>127.5</ele>
        <time>2022-11-16T14:55:11Z</time>
      </trkpt>
      <trkpt lat="50.00726" lon="2.37093">
        <ele>127.6</ele>
        <time>2022-11-16T14:55:12Z</time>
      </trkpt>
      <trkpt lat="50.00727" lon="2.37092">
        <ele>127.6</ele>
        <time>2022-11-16T14:55:13Z</time>
      </trkpt>
      <trkpt lat="50.00728" lon="2.37091">
        <ele>127.6</ele>
        <time>2022-11-16T14:55:14Z</time>
      </trkpt>
      <trkpt lat="50.00729" lon="2.3709">
        <ele>127.6</ele>
        <time>2022-11-16T14:55:15Z</time>
      </trkpt>
      <trkpt lat="50.0073" lon="2.37089">
        <ele>127.7</ele>
        <time>2022-11-16T14:55:17Z</time>
      </trkpt>
      <trkpt lat="50.00731" lon="2.37088">
        <ele>127.7</ele>
        <time>2022-11-16T14:55:18Z</time>
      </trkpt>
      <trkpt lat="50.00732" lon="2.37087">
        <ele>127.7</ele>
        <time>2022-11-16T14:55:19Z</time>
      </trkpt>
      <trkpt lat="50.00734" lon="2.37086">
        <ele>127.7</ele>
        <time>2022-11-16T14:55:20Z</time>
      </trkpt>
      <trkpt lat="50.00734" lon="2.37086">
        <ele>127.7</ele>
        <time>2022-11-16T14:55:21Z</time>
      </trkpt>
      <trkpt lat="50.00735" lon="2.37085">
        <ele>127.8</ele>
        <time>2022-11-16T14:55:22Z</time>
      </trkpt>
      <trkpt lat="50.00737" lon="2.37084">
        <ele>127.8</ele>
        <time>2022-11-16T14:55:23Z</time>
      </trkpt>
      <trkpt lat="50.00738" lon="2.37084">
        <ele>127.8</ele>
        <time>2022-11-16T14:55:24Z</time>
      </trkpt>
      <trkpt lat="50.00739" lon="2.37083">
        <ele>127.8</ele>
        <time>2022-11-16T14:55:25Z</time>
      </trkpt>
      <trkpt lat="50.0074" lon="2.37082">
        <ele>127.8</ele>
        <time>2022-11-16T14:55:26Z</time>
      </trkpt>
      <trkpt lat="50.00742" lon="2.37081">
        <ele>127.9</ele>
        <time>2022-11-16T14:55:28Z</time>
      </trkpt>
      <trkpt lat="50.00743" lon="2.37081">
        <ele>127.9</ele>
        <time>2022-11-16T14:55:29Z</time>
      </trkpt>
      <trkpt lat="50.00744" lon="2.3708">
        <ele>127.9</ele>
        <time>2022-11-16T14:55:30Z</time>
      </trkpt>
      <trkpt lat="50.00744" lon="2.37079">
        <ele>127.9</ele>
        <time>2022-11-16T14:55:31Z</time>
      </trkpt>
      <trkpt lat="50.00745" lon="2.37078">
        <ele>127.9</ele>
        <time>2022-11-16T14:55:32Z</time>
      </trkpt>
      <trkpt lat="50.00746" lon="2.37078">
        <ele>127.9</ele>
        <time>2022-11-16T14:55:33Z</time>
      </trkpt>
      <trkpt lat="50.00747" lon="2.37077">
        <ele>128</ele>
        <time>2022-11-16T14:55:34Z</time>
      </trkpt>
      <trkpt lat="50.00749" lon="2.37077">
        <ele>128</ele>
        <time>2022-11-16T14:55:35Z</time>
      </trkpt>
      <trkpt lat="50.0075" lon="2.37076">
        <ele>128</ele>
        <time>2022-11-16T14:55:36Z</time>
      </trkpt>
      <trkpt lat="50.00752" lon="2.37075">
        <ele>128</ele>
        <time>2022-11-16T14:55:37Z</time>
      </trkpt>
      <trkpt lat="50.00753" lon="2.37074">
        <ele>128</ele>
        <time>2022-11-16T14:55:38Z</time>
      </trkpt>
      <trkpt lat="50.00754" lon="2.37073">
        <ele>128</ele>
        <time>2022-11-16T14:55:40Z</time>
      </trkpt>
      <trkpt lat="50.00755" lon="2.37072">
        <ele>128</ele>
        <time>2022-11-16T14:55:41Z</time>
      </trkpt>
      <trkpt lat="50.00756" lon="2.37072">
        <ele>128</ele>
        <time>2022-11-16T14:55:42Z</time>
      </trkpt>
      <trkpt lat="50.00757" lon="2.37071">
        <ele>128.1</ele>
        <time>2022-11-16T14:55:43Z</time>
      </trkpt>
      <trkpt lat="50.00758" lon="2.3707">
        <ele>128.1</ele>
        <time>2022-11-16T14:55:44Z</time>
      </trkpt>
      <trkpt lat="50.00759" lon="2.37068">
        <ele>128.1</ele>
        <time>2022-11-16T14:55:45Z</time>
      </trkpt>
      <trkpt lat="50.0076" lon="2.37067">
        <ele>128.1</ele>
        <time>2022-11-16T14:55:46Z</time>
      </trkpt>
      <trkpt lat="50.00761" lon="2.37067">
        <ele>128.1</ele>
        <time>2022-11-16T14:55:47Z</time>
      </trkpt>
      <trkpt lat="50.00762" lon="2.37065">
        <ele>128.1</ele>
        <time>2022-11-16T14:55:48Z</time>
      </trkpt>
      <trkpt lat="50.00764" lon="2.37064">
        <ele>128.1</ele>
        <time>2022-11-16T14:55:49Z</time>
      </trkpt>
      <trkpt lat="50.00765" lon="2.37063">
        <ele>128.1</ele>
        <time>2022-11-16T14:55:51Z</time>
      </trkpt>
      <trkpt lat="50.00765" lon="2.37063">
        <ele>128.1</ele>
        <time>2022-11-16T14:55:52Z</time>
      </trkpt>
      <trkpt lat="50.00766" lon="2.37062">
        <ele>128.1</ele>
        <time>2022-11-16T14:55:53Z</time>
      </trkpt>
      <trkpt lat="50.00767" lon="2.37062">
        <ele>128.1</ele>
        <time>2022-11-16T14:55:54Z</time>
      </trkpt>
      <trkpt lat="50.00768" lon="2.37061">
        <ele>128.1</ele>
        <time>2022-11-16T14:55:55Z</time>
      </trkpt>
      <trkpt lat="50.00769" lon="2.3706">
        <ele>128.1</ele>
        <time>2022-11-16T14:55:56Z</time>
      </trkpt>
      <trkpt lat="50.0077" lon="2.3706">
        <ele>128.1</ele>
        <time>2022-11-16T14:55:57Z</time>
      </trkpt>
      <trkpt lat="50.00771" lon="2.37059">
        <ele>128.1</ele>
        <time>2022-11-16T14:55:58Z</time>
      </trkpt>
      <trkpt lat="50.00772" lon="2.37058">
        <ele>128.1</ele>
        <time>2022-11-16T14:56:00Z</time>
      </trkpt>
      <trkpt lat="50.00773" lon="2.37057">
        <ele>128.1</ele>
        <time>2022-11-16T14:56:01Z</time>
      </trkpt>
      <trkpt lat="50.00774" lon="2.37056">
        <ele>128.2</ele>
        <time>2022-11-16T14:56:02Z</time>
      </trkpt>
      <trkpt lat="50.00775" lon="2.37055">
        <ele>128.2</ele>
        <time>2022-11-16T14:56:03Z</time>
      </trkpt>
      <trkpt lat="50.00775" lon="2.37054">
        <ele>128.2</ele>
        <time>2022-11-16T14:56:04Z</time>
      </trkpt>
      <trkpt lat="50.00776" lon="2.37053">
        <ele>128.2</ele>
        <time>2022-11-16T14:56:05Z</time>
      </trkpt>
      <trkpt lat="50.00777" lon="2.37052">
        <ele>128.2</ele>
        <time>2022-11-16T14:56:06Z</time>
      </trkpt>
      <trkpt lat="50.00778" lon="2.3705">
        <ele>128.2</ele>
        <time>2022-11-16T14:56:07Z</time>
      </trkpt>
      <trkpt lat="50.00779" lon="2.37049">
        <ele>128.2</ele>
        <time>2022-11-16T14:56:08Z</time>
      </trkpt>
      <trkpt lat="50.00781" lon="2.37047">
        <ele>128.2</ele>
        <time>2022-11-16T14:56:09Z</time>
      </trkpt>
      <trkpt lat="50.00782" lon="2.37045">
        <ele>128.2</ele>
        <time>2022-11-16T14:56:10Z</time>
      </trkpt>
      <trkpt lat="50.00783" lon="2.37044">
        <ele>128.2</ele>
        <time>2022-11-16T14:56:11Z</time>
      </trkpt>
      <trkpt lat="50.00784" lon="2.37043">
        <ele>128.2</ele>
        <time>2022-11-16T14:56:12Z</time>
      </trkpt>
      <trkpt lat="50.00785" lon="2.37042">
        <ele>128.2</ele>
        <time>2022-11-16T14:56:14Z</time>
      </trkpt>
      <trkpt lat="50.00785" lon="2.37041">
        <ele>128.2</ele>
        <time>2022-11-16T14:56:15Z</time>
      </trkpt>
      <trkpt lat="50.00786" lon="2.3704">
        <ele>128.2</ele>
        <time>2022-11-16T14:56:16Z</time>
      </trkpt>
      <trkpt lat="50.00787" lon="2.37039">
        <ele>128.2</ele>
        <time>2022-11-16T14:56:17Z</time>
      </trkpt>
      <trkpt lat="50.00788" lon="2.37038">
        <ele>128.2</ele>
        <time>2022-11-16T14:56:18Z</time>
      </trkpt>
      <trkpt lat="50.00789" lon="2.37037">
        <ele>128.2</ele>
        <time>2022-11-16T14:56:19Z</time>
      </trkpt>
      <trkpt lat="50.0079" lon="2.37036">
        <ele>128.2</ele>
        <time>2022-11-16T14:56:20Z</time>
      </trkpt>
      <trkpt lat="50.00791" lon="2.37035">
        <ele>128.2</ele>
        <time>2022-11-16T14:56:21Z</time>
      </trkpt>
      <trkpt lat="50.00792" lon="2.37034">
        <ele>128.2</ele>
        <time>2022-11-16T14:56:23Z</time>
      </trkpt>
      <trkpt lat="50.00793" lon="2.37033">
        <ele>128.2</ele>
        <time>2022-11-16T14:56:24Z</time>
      </trkpt>
      <trkpt lat="50.00793" lon="2.37033">
        <ele>128.2</ele>
        <time>2022-11-16T14:56:25Z</time>
      </trkpt>
      <trkpt lat="50.00795" lon="2.37032">
        <ele>128.2</ele>
        <time>2022-11-16T14:56:26Z</time>
      </trkpt>
      <trkpt lat="50.00795" lon="2.37031">
        <ele>128.2</ele>
        <time>2022-11-16T14:56:28Z</time>
      </trkpt>
      <trkpt lat="50.00797" lon="2.37031">
        <ele>128.2</ele>
        <time>2022-11-16T14:56:29Z</time>
      </trkpt>
      <trkpt lat="50.00799" lon="2.3703">
        <ele>128.2</ele>
        <time>2022-11-16T14:56:31Z</time>
      </trkpt>
      <trkpt lat="50.008" lon="2.3703">
        <ele>128.3</ele>
        <time>2022-11-16T14:56:32Z</time>
      </trkpt>
      <trkpt lat="50.00801" lon="2.3703">
        <ele>128.3</ele>
        <time>2022-11-16T14:56:33Z</time>
      </trkpt>
      <trkpt lat="50.00802" lon="2.3703">
        <ele>128.3</ele>
        <time>2022-11-16T14:56:34Z</time>
      </trkpt>
      <trkpt lat="50.00803" lon="2.3703">
        <ele>128.3</ele>
        <time>2022-11-16T14:56:35Z</time>
      </trkpt>
      <trkpt lat="50.00804" lon="2.37029">
        <ele>128.3</ele>
        <time>2022-11-16T14:56:36Z</time>
      </trkpt>
      <trkpt lat="50.00805" lon="2.37029">
        <ele>128.3</ele>
        <time>2022-11-16T14:56:37Z</time>
      </trkpt>
      <trkpt lat="50.00805" lon="2.37029">
        <ele>128.3</ele>
        <time>2022-11-16T14:56:38Z</time>
      </trkpt>
      <trkpt lat="50.00806" lon="2.37029">
        <ele>128.3</ele>
        <time>2022-11-16T14:56:40Z</time>
      </trkpt>
      <trkpt lat="50.00807" lon="2.37029">
        <ele>128.3</ele>
        <time>2022-11-16T14:56:41Z</time>
      </trkpt>
      <trkpt lat="50.00808" lon="2.37029">
        <ele>128.3</ele>
        <time>2022-11-16T14:56:42Z</time>
      </trkpt>
      <trkpt lat="50.00809" lon="2.37029">
        <ele>128.3</ele>
        <time>2022-11-16T14:56:43Z</time>
      </trkpt>
      <trkpt lat="50.0081" lon="2.37029">
        <ele>128.3</ele>
        <time>2022-11-16T14:56:44Z</time>
      </trkpt>
      <trkpt lat="50.0081" lon="2.37029">
        <ele>128.3</ele>
        <time>2022-11-16T14:56:46Z</time>
      </trkpt>
      <trkpt lat="50.00811" lon="2.37029">
        <ele>128.3</ele>
        <time>2022-11-16T14:56:47Z</time>
      </trkpt>
      <trkpt lat="50.00812" lon="2.37029">
        <ele>128.3</ele>
        <time>2022-11-16T14:56:48Z</time>
      </trkpt>
      <trkpt lat="50.00813" lon="2.3703">
        <ele>128.3</ele>
        <time>2022-11-16T14:56:49Z</time>
      </trkpt>
      <trkpt lat="50.00815" lon="2.3703">
        <ele>128.3</ele>
        <time>2022-11-16T14:56:50Z</time>
      </trkpt>
      <trkpt lat="50.00816" lon="2.37031">
        <ele>128.3</ele>
        <time>2022-11-16T14:56:52Z</time>
      </trkpt>
      <trkpt lat="50.00817" lon="2.37031">
        <ele>128.3</ele>
        <time>2022-11-16T14:56:53Z</time>
      </trkpt>
      <trkpt lat="50.00818" lon="2.37031">
        <ele>128.3</ele>
        <time>2022-11-16T14:56:54Z</time>
      </trkpt>
      <trkpt lat="50.00818" lon="2.37032">
        <ele>128.3</ele>
        <time>2022-11-16T14:56:55Z</time>
      </trkpt>
      <trkpt lat="50.00819" lon="2.37032">
        <ele>128.3</ele>
        <time>2022-11-16T14:56:56Z</time>
      </trkpt>
      <trkpt lat="50.0082" lon="2.37033">
        <ele>128.3</ele>
        <time>2022-11-16T14:56:57Z</time>
      </trkpt>
      <trkpt lat="50.00821" lon="2.37034">
        <ele>128.3</ele>
        <time>2022-11-16T14:56:58Z</time>
      </trkpt>
      <trkpt lat="50.00822" lon="2.37034">
        <ele>128.3</ele>
        <time>2022-11-16T14:56:59Z</time>
      </trkpt>
      <trkpt lat="50.00823" lon="2.37035">
        <ele>128.3</ele>
        <time>2022-11-16T14:57:00Z</time>
      </trkpt>
      <trkpt lat="50.00824" lon="2.37035">
        <ele>128.3</ele>
        <time>2022-11-16T14:57:01Z</time>
      </trkpt>
      <trkpt lat="50.00825" lon="2.37035">
        <ele>128.3</ele>
        <time>2022-11-16T14:57:02Z</time>
      </trkpt>
      <trkpt lat="50.00826" lon="2.37036">
        <ele>128.3</ele>
        <time>2022-11-16T14:57:03Z</time>
      </trkpt>
      <trkpt lat="50.00828" lon="2.37036">
        <ele>128.3</ele>
        <time>2022-11-16T14:57:04Z</time>
      </trkpt>
      <trkpt lat="50.00829" lon="2.37035">
        <ele>128.3</ele>
        <time>2022-11-16T14:57:05Z</time>
      </trkpt>
      <trkpt lat="50.0083" lon="2.37035">
        <ele>128.3</ele>
        <time>2022-11-16T14:57:06Z</time>
      </trkpt>
      <trkpt lat="50.00832" lon="2.37035">
        <ele>128.3</ele>
        <time>2022-11-16T14:57:07Z</time>
      </trkpt>
      <trkpt lat="50.00833" lon="2.37035">
        <ele>128.2</ele>
        <time>2022-11-16T14:57:08Z</time>
      </trkpt>
      <trkpt lat="50.00833" lon="2.37035">
        <ele>128.2</ele>
        <time>2022-11-16T14:57:09Z</time>
      </trkpt>
      <trkpt lat="50.00835" lon="2.37036">
        <ele>128.2</ele>
        <time>2022-11-16T14:57:10Z</time>
      </trkpt>
      <trkpt lat="50.00836" lon="2.37035">
        <ele>128.2</ele>
        <time>2022-11-16T14:57:11Z</time>
      </trkpt>
      <trkpt lat="50.00837" lon="2.37035">
        <ele>128.2</ele>
        <time>2022-11-16T14:57:12Z</time>
      </trkpt>
      <trkpt lat="50.00838" lon="2.37035">
        <ele>128.2</ele>
        <time>2022-11-16T14:57:13Z</time>
      </trkpt>
      <trkpt lat="50.00839" lon="2.37035">
        <ele>128.2</ele>
        <time>2022-11-16T14:57:14Z</time>
      </trkpt>
      <trkpt lat="50.0084" lon="2.37035">
        <ele>128.2</ele>
        <time>2022-11-16T14:57:16Z</time>
      </trkpt>
      <trkpt lat="50.00842" lon="2.37035">
        <ele>128.2</ele>
        <time>2022-11-16T14:57:17Z</time>
      </trkpt>
      <trkpt lat="50.00843" lon="2.37035">
        <ele>128.1</ele>
        <time>2022-11-16T14:57:18Z</time>
      </trkpt>
      <trkpt lat="50.00844" lon="2.37035">
        <ele>128.1</ele>
        <time>2022-11-16T14:57:19Z</time>
      </trkpt>
      <trkpt lat="50.00845" lon="2.37035">
        <ele>128.1</ele>
        <time>2022-11-16T14:57:20Z</time>
      </trkpt>
      <trkpt lat="50.00846" lon="2.37035">
        <ele>128.1</ele>
        <time>2022-11-16T14:57:21Z</time>
      </trkpt>
      <trkpt lat="50.00847" lon="2.37035">
        <ele>128</ele>
        <time>2022-11-16T14:57:22Z</time>
      </trkpt>
      <trkpt lat="50.00848" lon="2.37035">
        <ele>128</ele>
        <time>2022-11-16T14:57:23Z</time>
      </trkpt>
      <trkpt lat="50.0085" lon="2.37035">
        <ele>128</ele>
        <time>2022-11-16T14:57:24Z</time>
      </trkpt>
      <trkpt lat="50.00851" lon="2.37036">
        <ele>128</ele>
        <time>2022-11-16T14:57:26Z</time>
      </trkpt>
      <trkpt lat="50.00853" lon="2.37036">
        <ele>127.9</ele>
        <time>2022-11-16T14:57:27Z</time>
      </trkpt>
      <trkpt lat="50.00854" lon="2.37036">
        <ele>127.9</ele>
        <time>2022-11-16T14:57:28Z</time>
      </trkpt>
      <trkpt lat="50.00855" lon="2.37037">
        <ele>127.9</ele>
        <time>2022-11-16T14:57:29Z</time>
      </trkpt>
      <trkpt lat="50.00857" lon="2.37037">
        <ele>127.8</ele>
        <time>2022-11-16T14:57:30Z</time>
      </trkpt>
      <trkpt lat="50.00858" lon="2.37037">
        <ele>127.8</ele>
        <time>2022-11-16T14:57:31Z</time>
      </trkpt>
      <trkpt lat="50.00859" lon="2.37037">
        <ele>127.8</ele>
        <time>2022-11-16T14:57:32Z</time>
      </trkpt>
      <trkpt lat="50.00861" lon="2.37037">
        <ele>127.8</ele>
        <time>2022-11-16T14:57:33Z</time>
      </trkpt>
      <trkpt lat="50.00862" lon="2.37037">
        <ele>127.7</ele>
        <time>2022-11-16T14:57:34Z</time>
      </trkpt>
      <trkpt lat="50.00862" lon="2.37037">
        <ele>127.7</ele>
        <time>2022-11-16T14:57:35Z</time>
      </trkpt>
      <trkpt lat="50.00865" lon="2.37037">
        <ele>127.7</ele>
        <time>2022-11-16T14:57:37Z</time>
      </trkpt>
      <trkpt lat="50.00865" lon="2.37038">
        <ele>127.7</ele>
        <time>2022-11-16T14:57:38Z</time>
      </trkpt>
      <trkpt lat="50.00866" lon="2.37038">
        <ele>127.7</ele>
        <time>2022-11-16T14:57:39Z</time>
      </trkpt>
      <trkpt lat="50.00868" lon="2.37038">
        <ele>127.6</ele>
        <time>2022-11-16T14:57:40Z</time>
      </trkpt>
      <trkpt lat="50.00869" lon="2.37038">
        <ele>127.6</ele>
        <time>2022-11-16T14:57:41Z</time>
      </trkpt>
      <trkpt lat="50.0087" lon="2.37038">
        <ele>127.6</ele>
        <time>2022-11-16T14:57:42Z</time>
      </trkpt>
      <trkpt lat="50.00871" lon="2.37039">
        <ele>127.6</ele>
        <time>2022-11-16T14:57:43Z</time>
      </trkpt>
      <trkpt lat="50.00873" lon="2.37039">
        <ele>127.6</ele>
        <time>2022-11-16T14:57:44Z</time>
      </trkpt>
      <trkpt lat="50.00874" lon="2.37039">
        <ele>127.5</ele>
        <time>2022-11-16T14:57:45Z</time>
      </trkpt>
      <trkpt lat="50.00875" lon="2.37039">
        <ele>127.5</ele>
        <time>2022-11-16T14:57:46Z</time>
      </trkpt>
      <trkpt lat="50.00876" lon="2.3704">
        <ele>127.5</ele>
        <time>2022-11-16T14:57:48Z</time>
      </trkpt>
      <trkpt lat="50.00877" lon="2.3704">
        <ele>127.5</ele>
        <time>2022-11-16T14:57:49Z</time>
      </trkpt>
      <trkpt lat="50.00879" lon="2.3704">
        <ele>127.5</ele>
        <time>2022-11-16T14:57:50Z</time>
      </trkpt>
      <trkpt lat="50.0088" lon="2.3704">
        <ele>127.5</ele>
        <time>2022-11-16T14:57:51Z</time>
      </trkpt>
      <trkpt lat="50.00881" lon="2.37041">
        <ele>127.4</ele>
        <time>2022-11-16T14:57:52Z</time>
      </trkpt>
      <trkpt lat="50.00883" lon="2.37041">
        <ele>127.4</ele>
        <time>2022-11-16T14:57:54Z</time>
      </trkpt>
      <trkpt lat="50.00884" lon="2.37041">
        <ele>127.4</ele>
        <time>2022-11-16T14:57:55Z</time>
      </trkpt>
      <trkpt lat="50.00884" lon="2.37041">
        <ele>127.4</ele>
        <time>2022-11-16T14:57:56Z</time>
      </trkpt>
      <trkpt lat="50.00885" lon="2.37041">
        <ele>127.4</ele>
        <time>2022-11-16T14:57:57Z</time>
      </trkpt>
      <trkpt lat="50.00887" lon="2.37041">
        <ele>127.4</ele>
        <time>2022-11-16T14:57:58Z</time>
      </trkpt>
      <trkpt lat="50.00888" lon="2.37041">
        <ele>127.4</ele>
        <time>2022-11-16T14:57:59Z</time>
      </trkpt>
      <trkpt lat="50.00889" lon="2.37041">
        <ele>127.3</ele>
        <time>2022-11-16T14:58:00Z</time>
      </trkpt>
      <trkpt lat="50.0089" lon="2.37041">
        <ele>127.3</ele>
        <time>2022-11-16T14:58:01Z</time>
      </trkpt>
      <trkpt lat="50.00891" lon="2.37041">
        <ele>127.3</ele>
        <time>2022-11-16T14:58:02Z</time>
      </trkpt>
      <trkpt lat="50.00892" lon="2.37041">
        <ele>127.3</ele>
        <time>2022-11-16T14:58:04Z</time>
      </trkpt>
      <trkpt lat="50.00893" lon="2.37041">
        <ele>127.3</ele>
        <time>2022-11-16T14:58:05Z</time>
      </trkpt>
      <trkpt lat="50.00894" lon="2.37041">
        <ele>127.3</ele>
        <time>2022-11-16T14:58:06Z</time>
      </trkpt>
      <trkpt lat="50.00894" lon="2.37041">
        <ele>127.3</ele>
        <time>2022-11-16T14:58:07Z</time>
      </trkpt>
      <trkpt lat="50.00896" lon="2.37042">
        <ele>127.3</ele>
        <time>2022-11-16T14:58:08Z</time>
      </trkpt>
      <trkpt lat="50.00897" lon="2.37042">
        <ele>127.3</ele>
        <time>2022-11-16T14:58:09Z</time>
      </trkpt>
      <trkpt lat="50.00898" lon="2.37041">
        <ele>127.2</ele>
        <time>2022-11-16T14:58:10Z</time>
      </trkpt>
      <trkpt lat="50.00899" lon="2.37041">
        <ele>127.2</ele>
        <time>2022-11-16T14:58:12Z</time>
      </trkpt>
      <trkpt lat="50.00901" lon="2.37042">
        <ele>127.2</ele>
        <time>2022-11-16T14:58:13Z</time>
      </trkpt>
      <trkpt lat="50.00902" lon="2.37042">
        <ele>127.2</ele>
        <time>2022-11-16T14:58:14Z</time>
      </trkpt>
      <trkpt lat="50.00903" lon="2.37042">
        <ele>127.2</ele>
        <time>2022-11-16T14:58:15Z</time>
      </trkpt>
      <trkpt lat="50.00905" lon="2.37043">
        <ele>127.2</ele>
        <time>2022-11-16T14:58:16Z</time>
      </trkpt>
      <trkpt lat="50.00906" lon="2.37043">
        <ele>127.2</ele>
        <time>2022-11-16T14:58:17Z</time>
      </trkpt>
      <trkpt lat="50.00907" lon="2.37043">
        <ele>127.2</ele>
        <time>2022-11-16T14:58:18Z</time>
      </trkpt>
      <trkpt lat="50.00908" lon="2.37043">
        <ele>127.1</ele>
        <time>2022-11-16T14:58:19Z</time>
      </trkpt>
      <trkpt lat="50.00909" lon="2.37043">
        <ele>127.1</ele>
        <time>2022-11-16T14:58:21Z</time>
      </trkpt>
      <trkpt lat="50.0091" lon="2.37043">
        <ele>127.1</ele>
        <time>2022-11-16T14:58:22Z</time>
      </trkpt>
      <trkpt lat="50.00912" lon="2.37044">
        <ele>127.1</ele>
        <time>2022-11-16T14:58:23Z</time>
      </trkpt>
      <trkpt lat="50.00914" lon="2.37044">
        <ele>127.1</ele>
        <time>2022-11-16T14:58:24Z</time>
      </trkpt>
      <trkpt lat="50.00916" lon="2.37044">
        <ele>127</ele>
        <time>2022-11-16T14:58:26Z</time>
      </trkpt>
      <trkpt lat="50.00917" lon="2.37044">
        <ele>127</ele>
        <time>2022-11-16T14:58:27Z</time>
      </trkpt>
      <trkpt lat="50.00918" lon="2.37045">
        <ele>127</ele>
        <time>2022-11-16T14:58:28Z</time>
      </trkpt>
      <trkpt lat="50.0092" lon="2.37045">
        <ele>127</ele>
        <time>2022-11-16T14:58:29Z</time>
      </trkpt>
      <trkpt lat="50.00921" lon="2.37045">
        <ele>127</ele>
        <time>2022-11-16T14:58:30Z</time>
      </trkpt>
      <trkpt lat="50.00922" lon="2.37045">
        <ele>127</ele>
        <time>2022-11-16T14:58:31Z</time>
      </trkpt>
      <trkpt lat="50.00924" lon="2.37046">
        <ele>126.9</ele>
        <time>2022-11-16T14:58:32Z</time>
      </trkpt>
      <trkpt lat="50.00925" lon="2.37046">
        <ele>126.9</ele>
        <time>2022-11-16T14:58:34Z</time>
      </trkpt>
      <trkpt lat="50.00926" lon="2.37046">
        <ele>126.9</ele>
        <time>2022-11-16T14:58:35Z</time>
      </trkpt>
      <trkpt lat="50.00927" lon="2.37047">
        <ele>126.9</ele>
        <time>2022-11-16T14:58:36Z</time>
      </trkpt>
      <trkpt lat="50.00929" lon="2.37047">
        <ele>126.9</ele>
        <time>2022-11-16T14:58:37Z</time>
      </trkpt>
      <trkpt lat="50.0093" lon="2.37047">
        <ele>126.9</ele>
        <time>2022-11-16T14:58:38Z</time>
      </trkpt>
      <trkpt lat="50.00931" lon="2.37047">
        <ele>126.9</ele>
        <time>2022-11-16T14:58:39Z</time>
      </trkpt>
      <trkpt lat="50.00932" lon="2.37047">
        <ele>126.8</ele>
        <time>2022-11-16T14:58:40Z</time>
      </trkpt>
      <trkpt lat="50.00933" lon="2.37047">
        <ele>126.8</ele>
        <time>2022-11-16T14:58:41Z</time>
      </trkpt>
      <trkpt lat="50.00934" lon="2.37048">
        <ele>126.8</ele>
        <time>2022-11-16T14:58:43Z</time>
      </trkpt>
      <trkpt lat="50.00935" lon="2.37048">
        <ele>126.8</ele>
        <time>2022-11-16T14:58:44Z</time>
      </trkpt>
      <trkpt lat="50.00936" lon="2.37048">
        <ele>126.8</ele>
        <time>2022-11-16T14:58:45Z</time>
      </trkpt>
      <trkpt lat="50.00937" lon="2.37048">
        <ele>126.8</ele>
        <time>2022-11-16T14:58:46Z</time>
      </trkpt>
      <trkpt lat="50.00938" lon="2.37049">
        <ele>126.8</ele>
        <time>2022-11-16T14:58:47Z</time>
      </trkpt>
      <trkpt lat="50.00939" lon="2.37049">
        <ele>126.8</ele>
        <time>2022-11-16T14:58:48Z</time>
      </trkpt>
      <trkpt lat="50.0094" lon="2.37049">
        <ele>126.8</ele>
        <time>2022-11-16T14:58:49Z</time>
      </trkpt>
      <trkpt lat="50.00941" lon="2.37049">
        <ele>126.7</ele>
        <time>2022-11-16T14:58:50Z</time>
      </trkpt>
      <trkpt lat="50.00943" lon="2.37049">
        <ele>126.7</ele>
        <time>2022-11-16T14:58:51Z</time>
      </trkpt>
      <trkpt lat="50.00944" lon="2.37049">
        <ele>126.7</ele>
        <time>2022-11-16T14:58:52Z</time>
      </trkpt>
      <trkpt lat="50.00945" lon="2.3705">
        <ele>126.7</ele>
        <time>2022-11-16T14:58:54Z</time>
      </trkpt>
      <trkpt lat="50.00946" lon="2.3705">
        <ele>126.7</ele>
        <time>2022-11-16T14:58:55Z</time>
      </trkpt>
      <trkpt lat="50.00947" lon="2.3705">
        <ele>126.7</ele>
        <time>2022-11-16T14:58:56Z</time>
      </trkpt>
      <trkpt lat="50.00948" lon="2.3705">
        <ele>126.6</ele>
        <time>2022-11-16T14:58:57Z</time>
      </trkpt>
      <trkpt lat="50.0095" lon="2.3705">
        <ele>126.6</ele>
        <time>2022-11-16T14:58:58Z</time>
      </trkpt>
      <trkpt lat="50.00951" lon="2.3705">
        <ele>126.6</ele>
        <time>2022-11-16T14:58:59Z</time>
      </trkpt>
      <trkpt lat="50.00952" lon="2.37051">
        <ele>126.6</ele>
        <time>2022-11-16T14:59:01Z</time>
      </trkpt>
      <trkpt lat="50.00953" lon="2.37051">
        <ele>126.6</ele>
        <time>2022-11-16T14:59:02Z</time>
      </trkpt>
      <trkpt lat="50.00955" lon="2.37051">
        <ele>126.6</ele>
        <time>2022-11-16T14:59:03Z</time>
      </trkpt>
      <trkpt lat="50.00956" lon="2.37052">
        <ele>126.5</ele>
        <time>2022-11-16T14:59:04Z</time>
      </trkpt>
      <trkpt lat="50.00957" lon="2.37052">
        <ele>126.5</ele>
        <time>2022-11-16T14:59:05Z</time>
      </trkpt>
      <trkpt lat="50.00958" lon="2.37052">
        <ele>126.5</ele>
        <time>2022-11-16T14:59:06Z</time>
      </trkpt>
      <trkpt lat="50.0096" lon="2.37052">
        <ele>126.5</ele>
        <time>2022-11-16T14:59:07Z</time>
      </trkpt>
      <trkpt lat="50.00961" lon="2.37052">
        <ele>126.5</ele>
        <time>2022-11-16T14:59:09Z</time>
      </trkpt>
      <trkpt lat="50.00962" lon="2.37052">
        <ele>126.5</ele>
        <time>2022-11-16T14:59:10Z</time>
      </trkpt>
      <trkpt lat="50.00964" lon="2.37052">
        <ele>126.5</ele>
        <time>2022-11-16T14:59:11Z</time>
      </trkpt>
      <trkpt lat="50.00965" lon="2.37052">
        <ele>126.4</ele>
        <time>2022-11-16T14:59:12Z</time>
      </trkpt>
      <trkpt lat="50.00966" lon="2.37052">
        <ele>126.4</ele>
        <time>2022-11-16T14:59:13Z</time>
      </trkpt>
      <trkpt lat="50.00968" lon="2.37053">
        <ele>126.4</ele>
        <time>2022-11-16T14:59:14Z</time>
      </trkpt>
      <trkpt lat="50.00968" lon="2.37053">
        <ele>126.4</ele>
        <time>2022-11-16T14:59:15Z</time>
      </trkpt>
      <trkpt lat="50.00969" lon="2.37053">
        <ele>126.4</ele>
        <time>2022-11-16T14:59:16Z</time>
      </trkpt>
      <trkpt lat="50.00971" lon="2.37054">
        <ele>126.4</ele>
        <time>2022-11-16T14:59:18Z</time>
      </trkpt>
      <trkpt lat="50.00972" lon="2.37054">
        <ele>126.4</ele>
        <time>2022-11-16T14:59:19Z</time>
      </trkpt>
      <trkpt lat="50.00973" lon="2.37055">
        <ele>126.4</ele>
        <time>2022-11-16T14:59:20Z</time>
      </trkpt>
      <trkpt lat="50.00975" lon="2.37055">
        <ele>126.4</ele>
        <time>2022-11-16T14:59:21Z</time>
      </trkpt>
      <trkpt lat="50.00975" lon="2.37055">
        <ele>126.4</ele>
        <time>2022-11-16T14:59:22Z</time>
      </trkpt>
      <trkpt lat="50.00976" lon="2.37055">
        <ele>126.4</ele>
        <time>2022-11-16T14:59:23Z</time>
      </trkpt>
      <trkpt lat="50.00978" lon="2.37055">
        <ele>126.4</ele>
        <time>2022-11-16T14:59:24Z</time>
      </trkpt>
      <trkpt lat="50.00979" lon="2.37056">
        <ele>126.4</ele>
        <time>2022-11-16T14:59:25Z</time>
      </trkpt>
      <trkpt lat="50.00981" lon="2.37056">
        <ele>126.4</ele>
        <time>2022-11-16T14:59:26Z</time>
      </trkpt>
      <trkpt lat="50.00982" lon="2.37056">
        <ele>126.4</ele>
        <time>2022-11-16T14:59:28Z</time>
      </trkpt>
      <trkpt lat="50.00983" lon="2.37056">
        <ele>126.5</ele>
        <time>2022-11-16T14:59:29Z</time>
      </trkpt>
      <trkpt lat="50.00984" lon="2.37057">
        <ele>126.5</ele>
        <time>2022-11-16T14:59:30Z</time>
      </trkpt>
      <trkpt lat="50.00985" lon="2.37057">
        <ele>126.5</ele>
        <time>2022-11-16T14:59:31Z</time>
      </trkpt>
      <trkpt lat="50.00986" lon="2.37057">
        <ele>126.5</ele>
        <time>2022-11-16T14:59:32Z</time>
      </trkpt>
      <trkpt lat="50.00987" lon="2.37058">
        <ele>126.5</ele>
        <time>2022-11-16T14:59:33Z</time>
      </trkpt>
      <trkpt lat="50.00988" lon="2.37058">
        <ele>126.5</ele>
        <time>2022-11-16T14:59:34Z</time>
      </trkpt>
      <trkpt lat="50.00989" lon="2.37059">
        <ele>126.5</ele>
        <time>2022-11-16T14:59:35Z</time>
      </trkpt>
      <trkpt lat="50.0099" lon="2.37059">
        <ele>126.5</ele>
        <time>2022-11-16T14:59:37Z</time>
      </trkpt>
      <trkpt lat="50.00991" lon="2.37059">
        <ele>126.5</ele>
        <time>2022-11-16T14:59:38Z</time>
      </trkpt>
      <trkpt lat="50.00992" lon="2.3706">
        <ele>126.5</ele>
        <time>2022-11-16T14:59:39Z</time>
      </trkpt>
      <trkpt lat="50.00994" lon="2.3706">
        <ele>126.6</ele>
        <time>2022-11-16T14:59:40Z</time>
      </trkpt>
      <trkpt lat="50.00995" lon="2.3706">
        <ele>126.6</ele>
        <time>2022-11-16T14:59:41Z</time>
      </trkpt>
      <trkpt lat="50.00997" lon="2.37061">
        <ele>126.6</ele>
        <time>2022-11-16T14:59:42Z</time>
      </trkpt>
      <trkpt lat="50.00998" lon="2.37061">
        <ele>126.6</ele>
        <time>2022-11-16T14:59:44Z</time>
      </trkpt>
      <trkpt lat="50.00999" lon="2.37061">
        <ele>126.6</ele>
        <time>2022-11-16T14:59:45Z</time>
      </trkpt>
      <trkpt lat="50.01" lon="2.37061">
        <ele>126.6</ele>
        <time>2022-11-16T14:59:46Z</time>
      </trkpt>
      <trkpt lat="50.01001" lon="2.37061">
        <ele>126.6</ele>
        <time>2022-11-16T14:59:47Z</time>
      </trkpt>
      <trkpt lat="50.01003" lon="2.37061">
        <ele>126.6</ele>
        <time>2022-11-16T14:59:49Z</time>
      </trkpt>
      <trkpt lat="50.01005" lon="2.37061">
        <ele>126.6</ele>
        <time>2022-11-16T14:59:50Z</time>
      </trkpt>
      <trkpt lat="50.01005" lon="2.37061">
        <ele>126.6</ele>
        <time>2022-11-16T14:59:51Z</time>
      </trkpt>
      <trkpt lat="50.01006" lon="2.37061">
        <ele>126.6</ele>
        <time>2022-11-16T14:59:52Z</time>
      </trkpt>
      <trkpt lat="50.01008" lon="2.37062">
        <ele>126.6</ele>
        <time>2022-11-16T14:59:53Z</time>
      </trkpt>
      <trkpt lat="50.01009" lon="2.37062">
        <ele>126.5</ele>
        <time>2022-11-16T14:59:54Z</time>
      </trkpt>
      <trkpt lat="50.0101" lon="2.37063">
        <ele>126.5</ele>
        <time>2022-11-16T14:59:56Z</time>
      </trkpt>
      <trkpt lat="50.01011" lon="2.37063">
        <ele>126.5</ele>
        <time>2022-11-16T14:59:57Z</time>
      </trkpt>
      <trkpt lat="50.01012" lon="2.37063">
        <ele>126.5</ele>
        <time>2022-11-16T14:59:58Z</time>
      </trkpt>
      <trkpt lat="50.01013" lon="2.37063">
        <ele>126.5</ele>
        <time>2022-11-16T14:59:59Z</time>
      </trkpt>
      <trkpt lat="50.01014" lon="2.37064">
        <ele>126.4</ele>
        <time>2022-11-16T15:00:00Z</time>
      </trkpt>
      <trkpt lat="50.01015" lon="2.37064">
        <ele>126.4</ele>
        <time>2022-11-16T15:00:01Z</time>
      </trkpt>
      <trkpt lat="50.01016" lon="2.37064">
        <ele>126.4</ele>
        <time>2022-11-16T15:00:02Z</time>
      </trkpt>
      <trkpt lat="50.01017" lon="2.37065">
        <ele>126.4</ele>
        <time>2022-11-16T15:00:04Z</time>
      </trkpt>
      <trkpt lat="50.01018" lon="2.37065">
        <ele>126.3</ele>
        <time>2022-11-16T15:00:05Z</time>
      </trkpt>
      <trkpt lat="50.01019" lon="2.37065">
        <ele>126.3</ele>
        <time>2022-11-16T15:00:06Z</time>
      </trkpt>
      <trkpt lat="50.0102" lon="2.37065">
        <ele>126.4</ele>
        <time>2022-11-16T15:00:07Z</time>
      </trkpt>
      <trkpt lat="50.01021" lon="2.37065">
        <ele>126.4</ele>
        <time>2022-11-16T15:00:08Z</time>
      </trkpt>
      <trkpt lat="50.01022" lon="2.37066">
        <ele>126.5</ele>
        <time>2022-11-16T15:00:09Z</time>
      </trkpt>
      <trkpt lat="50.01024" lon="2.37066">
        <ele>126.5</ele>
        <time>2022-11-16T15:00:11Z</time>
      </trkpt>
      <trkpt lat="50.01025" lon="2.37066">
        <ele>126.5</ele>
        <time>2022-11-16T15:00:12Z</time>
      </trkpt>
      <trkpt lat="50.01025" lon="2.37066">
        <ele>126.5</ele>
        <time>2022-11-16T15:00:13Z</time>
      </trkpt>
      <trkpt lat="50.01026" lon="2.37066">
        <ele>126.6</ele>
        <time>2022-11-16T15:00:14Z</time>
      </trkpt>
      <trkpt lat="50.01027" lon="2.37067">
        <ele>126.6</ele>
        <time>2022-11-16T15:00:15Z</time>
      </trkpt>
      <trkpt lat="50.01028" lon="2.37067">
        <ele>126.6</ele>
        <time>2022-11-16T15:00:16Z</time>
      </trkpt>
      <trkpt lat="50.0103" lon="2.37067">
        <ele>126.6</ele>
        <time>2022-11-16T15:00:17Z</time>
      </trkpt>
      <trkpt lat="50.01031" lon="2.37067">
        <ele>126.7</ele>
        <time>2022-11-16T15:00:18Z</time>
      </trkpt>
      <trkpt lat="50.01032" lon="2.37068">
        <ele>126.7</ele>
        <time>2022-11-16T15:00:20Z</time>
      </trkpt>
      <trkpt lat="50.01033" lon="2.37068">
        <ele>126.7</ele>
        <time>2022-11-16T15:00:21Z</time>
      </trkpt>
      <trkpt lat="50.01034" lon="2.37068">
        <ele>126.7</ele>
        <time>2022-11-16T15:00:22Z</time>
      </trkpt>
      <trkpt lat="50.01035" lon="2.37069">
        <ele>126.6</ele>
        <time>2022-11-16T15:00:23Z</time>
      </trkpt>
      <trkpt lat="50.01037" lon="2.37069">
        <ele>126.6</ele>
        <time>2022-11-16T15:00:24Z</time>
      </trkpt>
      <trkpt lat="50.01038" lon="2.3707">
        <ele>126.6</ele>
        <time>2022-11-16T15:00:25Z</time>
      </trkpt>
      <trkpt lat="50.01039" lon="2.3707">
        <ele>126.6</ele>
        <time>2022-11-16T15:00:27Z</time>
      </trkpt>
      <trkpt lat="50.0104" lon="2.37071">
        <ele>126.6</ele>
        <time>2022-11-16T15:00:28Z</time>
      </trkpt>
      <trkpt lat="50.01041" lon="2.37071">
        <ele>126.6</ele>
        <time>2022-11-16T15:00:29Z</time>
      </trkpt>
      <trkpt lat="50.01042" lon="2.37071">
        <ele>126.5</ele>
        <time>2022-11-16T15:00:30Z</time>
      </trkpt>
      <trkpt lat="50.01044" lon="2.37072">
        <ele>126.5</ele>
        <time>2022-11-16T15:00:31Z</time>
      </trkpt>
      <trkpt lat="50.01045" lon="2.37073">
        <ele>126.5</ele>
        <time>2022-11-16T15:00:32Z</time>
      </trkpt>
      <trkpt lat="50.01045" lon="2.37073">
        <ele>126.5</ele>
        <time>2022-11-16T15:00:33Z</time>
      </trkpt>
      <trkpt lat="50.01048" lon="2.37074">
        <ele>126.4</ele>
        <time>2022-11-16T15:00:35Z</time>
      </trkpt>
      <trkpt lat="50.01048" lon="2.37074">
        <ele>126.4</ele>
        <time>2022-11-16T15:00:36Z</time>
      </trkpt>
      <trkpt lat="50.01049" lon="2.37074">
        <ele>126.4</ele>
        <time>2022-11-16T15:00:37Z</time>
      </trkpt>
      <trkpt lat="50.0105" lon="2.37075">
        <ele>126.4</ele>
        <time>2022-11-16T15:00:38Z</time>
      </trkpt>
      <trkpt lat="50.01051" lon="2.37075">
        <ele>126.4</ele>
        <time>2022-11-16T15:00:39Z</time>
      </trkpt>
      <trkpt lat="50.01052" lon="2.37075">
        <ele>126.4</ele>
        <time>2022-11-16T15:00:40Z</time>
      </trkpt>
      <trkpt lat="50.01053" lon="2.37076">
        <ele>126.4</ele>
        <time>2022-11-16T15:00:42Z</time>
      </trkpt>
      <trkpt lat="50.01054" lon="2.37076">
        <ele>126.4</ele>
        <time>2022-11-16T15:00:43Z</time>
      </trkpt>
      <trkpt lat="50.01055" lon="2.37076">
        <ele>126.4</ele>
        <time>2022-11-16T15:00:44Z</time>
      </trkpt>
      <trkpt lat="50.01056" lon="2.37077">
        <ele>126.4</ele>
        <time>2022-11-16T15:00:45Z</time>
      </trkpt>
      <trkpt lat="50.01057" lon="2.37077">
        <ele>126.4</ele>
        <time>2022-11-16T15:00:46Z</time>
      </trkpt>
      <trkpt lat="50.01058" lon="2.37077">
        <ele>126.4</ele>
        <time>2022-11-16T15:00:47Z</time>
      </trkpt>
      <trkpt lat="50.01059" lon="2.37077">
        <ele>126.4</ele>
        <time>2022-11-16T15:00:49Z</time>
      </trkpt>
      <trkpt lat="50.0106" lon="2.37077">
        <ele>126.4</ele>
        <time>2022-11-16T15:00:50Z</time>
      </trkpt>
      <trkpt lat="50.01061" lon="2.37078">
        <ele>126.4</ele>
        <time>2022-11-16T15:00:51Z</time>
      </trkpt>
      <trkpt lat="50.01063" lon="2.37078">
        <ele>126.4</ele>
        <time>2022-11-16T15:00:52Z</time>
      </trkpt>
      <trkpt lat="50.01064" lon="2.37078">
        <ele>126.4</ele>
        <time>2022-11-16T15:00:53Z</time>
      </trkpt>
      <trkpt lat="50.01065" lon="2.37078">
        <ele>126.4</ele>
        <time>2022-11-16T15:00:54Z</time>
      </trkpt>
      <trkpt lat="50.01066" lon="2.37078">
        <ele>126.4</ele>
        <time>2022-11-16T15:00:56Z</time>
      </trkpt>
      <trkpt lat="50.01067" lon="2.37078">
        <ele>126.4</ele>
        <time>2022-11-16T15:00:57Z</time>
      </trkpt>
      <trkpt lat="50.01068" lon="2.37078">
        <ele>126.4</ele>
        <time>2022-11-16T15:00:58Z</time>
      </trkpt>
      <trkpt lat="50.01069" lon="2.37079">
        <ele>126.4</ele>
        <time>2022-11-16T15:00:59Z</time>
      </trkpt>
      <trkpt lat="50.0107" lon="2.37079">
        <ele>126.4</ele>
        <time>2022-11-16T15:01:00Z</time>
      </trkpt>
      <trkpt lat="50.01071" lon="2.3708">
        <ele>126.4</ele>
        <time>2022-11-16T15:01:01Z</time>
      </trkpt>
      <trkpt lat="50.01072" lon="2.3708">
        <ele>126.4</ele>
        <time>2022-11-16T15:01:03Z</time>
      </trkpt>
      <trkpt lat="50.01073" lon="2.3708">
        <ele>126.4</ele>
        <time>2022-11-16T15:01:04Z</time>
      </trkpt>
      <trkpt lat="50.01075" lon="2.3708">
        <ele>126.4</ele>
        <time>2022-11-16T15:01:05Z</time>
      </trkpt>
      <trkpt lat="50.01076" lon="2.3708">
        <ele>126.4</ele>
        <time>2022-11-16T15:01:06Z</time>
      </trkpt>
      <trkpt lat="50.01076" lon="2.37081">
        <ele>126.4</ele>
        <time>2022-11-16T15:01:07Z</time>
      </trkpt>
      <trkpt lat="50.01077" lon="2.37081">
        <ele>126.5</ele>
        <time>2022-11-16T15:01:08Z</time>
      </trkpt>
      <trkpt lat="50.01078" lon="2.37082">
        <ele>126.5</ele>
        <time>2022-11-16T15:01:10Z</time>
      </trkpt>
      <trkpt lat="50.01079" lon="2.37082">
        <ele>126.5</ele>
        <time>2022-11-16T15:01:11Z</time>
      </trkpt>
      <trkpt lat="50.01081" lon="2.37082">
        <ele>126.5</ele>
        <time>2022-11-16T15:01:12Z</time>
      </trkpt>
      <trkpt lat="50.01082" lon="2.37083">
        <ele>126.5</ele>
        <time>2022-11-16T15:01:13Z</time>
      </trkpt>
      <trkpt lat="50.01083" lon="2.37083">
        <ele>126.5</ele>
        <time>2022-11-16T15:01:14Z</time>
      </trkpt>
      <trkpt lat="50.01084" lon="2.37084">
        <ele>126.6</ele>
        <time>2022-11-16T15:01:16Z</time>
      </trkpt>
      <trkpt lat="50.01085" lon="2.37084">
        <ele>126.6</ele>
        <time>2022-11-16T15:01:17Z</time>
      </trkpt>
      <trkpt lat="50.01087" lon="2.37084">
        <ele>126.6</ele>
        <time>2022-11-16T15:01:19Z</time>
      </trkpt>
      <trkpt lat="50.01088" lon="2.37085">
        <ele>126.6</ele>
        <time>2022-11-16T15:01:20Z</time>
      </trkpt>
      <trkpt lat="50.01089" lon="2.37085">
        <ele>126.6</ele>
        <time>2022-11-16T15:01:21Z</time>
      </trkpt>
      <trkpt lat="50.0109" lon="2.37085">
        <ele>126.7</ele>
        <time>2022-11-16T15:01:22Z</time>
      </trkpt>
      <trkpt lat="50.01092" lon="2.37086">
        <ele>126.7</ele>
        <time>2022-11-16T15:01:23Z</time>
      </trkpt>
      <trkpt lat="50.01093" lon="2.37086">
        <ele>126.7</ele>
        <time>2022-11-16T15:01:24Z</time>
      </trkpt>
      <trkpt lat="50.01093" lon="2.37087">
        <ele>126.7</ele>
        <time>2022-11-16T15:01:25Z</time>
      </trkpt>
      <trkpt lat="50.01095" lon="2.37087">
        <ele>126.7</ele>
        <time>2022-11-16T15:01:27Z</time>
      </trkpt>
      <trkpt lat="50.01096" lon="2.37088">
        <ele>126.7</ele>
        <time>2022-11-16T15:01:28Z</time>
      </trkpt>
      <trkpt lat="50.01097" lon="2.37088">
        <ele>126.8</ele>
        <time>2022-11-16T15:01:29Z</time>
      </trkpt>
      <trkpt lat="50.01099" lon="2.37088">
        <ele>126.8</ele>
        <time>2022-11-16T15:01:30Z</time>
      </trkpt>
      <trkpt lat="50.011" lon="2.37088">
        <ele>126.8</ele>
        <time>2022-11-16T15:01:31Z</time>
      </trkpt>
      <trkpt lat="50.011" lon="2.37089">
        <ele>126.8</ele>
        <time>2022-11-16T15:01:32Z</time>
      </trkpt>
      <trkpt lat="50.01101" lon="2.37089">
        <ele>126.8</ele>
        <time>2022-11-16T15:01:34Z</time>
      </trkpt>
      <trkpt lat="50.01102" lon="2.37089">
        <ele>126.8</ele>
        <time>2022-11-16T15:01:35Z</time>
      </trkpt>
      <trkpt lat="50.01103" lon="2.37089">
        <ele>126.9</ele>
        <time>2022-11-16T15:01:36Z</time>
      </trkpt>
      <trkpt lat="50.01104" lon="2.37089">
        <ele>126.9</ele>
        <time>2022-11-16T15:01:37Z</time>
      </trkpt>
      <trkpt lat="50.01106" lon="2.3709">
        <ele>126.9</ele>
        <time>2022-11-16T15:01:38Z</time>
      </trkpt>
      <trkpt lat="50.01107" lon="2.3709">
        <ele>126.9</ele>
        <time>2022-11-16T15:01:39Z</time>
      </trkpt>
      <trkpt lat="50.01108" lon="2.3709">
        <ele>126.9</ele>
        <time>2022-11-16T15:01:41Z</time>
      </trkpt>
      <trkpt lat="50.01109" lon="2.3709">
        <ele>126.9</ele>
        <time>2022-11-16T15:01:42Z</time>
      </trkpt>
      <trkpt lat="50.0111" lon="2.37091">
        <ele>127</ele>
        <time>2022-11-16T15:01:43Z</time>
      </trkpt>
      <trkpt lat="50.01112" lon="2.37091">
        <ele>127</ele>
        <time>2022-11-16T15:01:44Z</time>
      </trkpt>
      <trkpt lat="50.01113" lon="2.37091">
        <ele>127</ele>
        <time>2022-11-16T15:01:45Z</time>
      </trkpt>
      <trkpt lat="50.01114" lon="2.37091">
        <ele>127</ele>
        <time>2022-11-16T15:01:46Z</time>
      </trkpt>
      <trkpt lat="50.01115" lon="2.37091">
        <ele>127</ele>
        <time>2022-11-16T15:01:48Z</time>
      </trkpt>
      <trkpt lat="50.01116" lon="2.37092">
        <ele>127</ele>
        <time>2022-11-16T15:01:49Z</time>
      </trkpt>
      <trkpt lat="50.01117" lon="2.37092">
        <ele>127</ele>
        <time>2022-11-16T15:01:50Z</time>
      </trkpt>
      <trkpt lat="50.01118" lon="2.37092">
        <ele>127</ele>
        <time>2022-11-16T15:01:51Z</time>
      </trkpt>
      <trkpt lat="50.01119" lon="2.37093">
        <ele>127</ele>
        <time>2022-11-16T15:01:52Z</time>
      </trkpt>
      <trkpt lat="50.0112" lon="2.37093">
        <ele>127.1</ele>
        <time>2022-11-16T15:01:53Z</time>
      </trkpt>
      <trkpt lat="50.01121" lon="2.37094">
        <ele>127.1</ele>
        <time>2022-11-16T15:01:55Z</time>
      </trkpt>
      <trkpt lat="50.01122" lon="2.37094">
        <ele>127.1</ele>
        <time>2022-11-16T15:01:56Z</time>
      </trkpt>
      <trkpt lat="50.01123" lon="2.37094">
        <ele>127.1</ele>
        <time>2022-11-16T15:01:57Z</time>
      </trkpt>
      <trkpt lat="50.01124" lon="2.37094">
        <ele>127.1</ele>
        <time>2022-11-16T15:01:58Z</time>
      </trkpt>
      <trkpt lat="50.01125" lon="2.37095">
        <ele>127.1</ele>
        <time>2022-11-16T15:01:59Z</time>
      </trkpt>
      <trkpt lat="50.01126" lon="2.37095">
        <ele>127.1</ele>
        <time>2022-11-16T15:02:00Z</time>
      </trkpt>
      <trkpt lat="50.01126" lon="2.37095">
        <ele>127.1</ele>
        <time>2022-11-16T15:02:02Z</time>
      </trkpt>
      <trkpt lat="50.01127" lon="2.37095">
        <ele>127.1</ele>
        <time>2022-11-16T15:02:03Z</time>
      </trkpt>
      <trkpt lat="50.01129" lon="2.37095">
        <ele>127.1</ele>
        <time>2022-11-16T15:02:04Z</time>
      </trkpt>
      <trkpt lat="50.0113" lon="2.37096">
        <ele>127.1</ele>
        <time>2022-11-16T15:02:05Z</time>
      </trkpt>
      <trkpt lat="50.01131" lon="2.37096">
        <ele>127.1</ele>
        <time>2022-11-16T15:02:07Z</time>
      </trkpt>
      <trkpt lat="50.01132" lon="2.37096">
        <ele>127.1</ele>
        <time>2022-11-16T15:02:08Z</time>
      </trkpt>
      <trkpt lat="50.01133" lon="2.37097">
        <ele>127.1</ele>
        <time>2022-11-16T15:02:09Z</time>
      </trkpt>
      <trkpt lat="50.01135" lon="2.37098">
        <ele>127.1</ele>
        <time>2022-11-16T15:02:10Z</time>
      </trkpt>
      <trkpt lat="50.01136" lon="2.37098">
        <ele>127.1</ele>
        <time>2022-11-16T15:02:11Z</time>
      </trkpt>
      <trkpt lat="50.01137" lon="2.37098">
        <ele>127.2</ele>
        <time>2022-11-16T15:02:12Z</time>
      </trkpt>
      <trkpt lat="50.01139" lon="2.37098">
        <ele>127.2</ele>
        <time>2022-11-16T15:02:14Z</time>
      </trkpt>
      <trkpt lat="50.0114" lon="2.37098">
        <ele>127.2</ele>
        <time>2022-11-16T15:02:15Z</time>
      </trkpt>
      <trkpt lat="50.01141" lon="2.37098">
        <ele>127.2</ele>
        <time>2022-11-16T15:02:16Z</time>
      </trkpt>
      <trkpt lat="50.01142" lon="2.37099">
        <ele>127.2</ele>
        <time>2022-11-16T15:02:17Z</time>
      </trkpt>
      <trkpt lat="50.01143" lon="2.37099">
        <ele>127.2</ele>
        <time>2022-11-16T15:02:18Z</time>
      </trkpt>
      <trkpt lat="50.01144" lon="2.371">
        <ele>127.2</ele>
        <time>2022-11-16T15:02:19Z</time>
      </trkpt>
      <trkpt lat="50.01145" lon="2.371">
        <ele>127.2</ele>
        <time>2022-11-16T15:02:21Z</time>
      </trkpt>
      <trkpt lat="50.01146" lon="2.37101">
        <ele>127.2</ele>
        <time>2022-11-16T15:02:22Z</time>
      </trkpt>
      <trkpt lat="50.01147" lon="2.37101">
        <ele>127.2</ele>
        <time>2022-11-16T15:02:23Z</time>
      </trkpt>
      <trkpt lat="50.01148" lon="2.37101">
        <ele>127.2</ele>
        <time>2022-11-16T15:02:24Z</time>
      </trkpt>
      <trkpt lat="50.01149" lon="2.37102">
        <ele>127.2</ele>
        <time>2022-11-16T15:02:25Z</time>
      </trkpt>
      <trkpt lat="50.0115" lon="2.37102">
        <ele>127.2</ele>
        <time>2022-11-16T15:02:27Z</time>
      </trkpt>
      <trkpt lat="50.01151" lon="2.37103">
        <ele>127.2</ele>
        <time>2022-11-16T15:02:28Z</time>
      </trkpt>
      <trkpt lat="50.01151" lon="2.37103">
        <ele>127.2</ele>
        <time>2022-11-16T15:02:29Z</time>
      </trkpt>
      <trkpt lat="50.01152" lon="2.37103">
        <ele>127.2</ele>
        <time>2022-11-16T15:02:30Z</time>
      </trkpt>
      <trkpt lat="50.01153" lon="2.37104">
        <ele>127.3</ele>
        <time>2022-11-16T15:02:31Z</time>
      </trkpt>
      <trkpt lat="50.01155" lon="2.37104">
        <ele>127.3</ele>
        <time>2022-11-16T15:02:32Z</time>
      </trkpt>
      <trkpt lat="50.01155" lon="2.37105">
        <ele>127.3</ele>
        <time>2022-11-16T15:02:34Z</time>
      </trkpt>
      <trkpt lat="50.01156" lon="2.37105">
        <ele>127.3</ele>
        <time>2022-11-16T15:02:35Z</time>
      </trkpt>
      <trkpt lat="50.01157" lon="2.37105">
        <ele>127.3</ele>
        <time>2022-11-16T15:02:36Z</time>
      </trkpt>
      <trkpt lat="50.01158" lon="2.37106">
        <ele>127.3</ele>
        <time>2022-11-16T15:02:37Z</time>
      </trkpt>
      <trkpt lat="50.01159" lon="2.37106">
        <ele>127.3</ele>
        <time>2022-11-16T15:02:39Z</time>
      </trkpt>
      <trkpt lat="50.0116" lon="2.37107">
        <ele>127.3</ele>
        <time>2022-11-16T15:02:40Z</time>
      </trkpt>
      <trkpt lat="50.01161" lon="2.37107">
        <ele>127.4</ele>
        <time>2022-11-16T15:02:41Z</time>
      </trkpt>
      <trkpt lat="50.01162" lon="2.37107">
        <ele>127.4</ele>
        <time>2022-11-16T15:02:42Z</time>
      </trkpt>
      <trkpt lat="50.01163" lon="2.37107">
        <ele>127.4</ele>
        <time>2022-11-16T15:02:44Z</time>
      </trkpt>
      <trkpt lat="50.01164" lon="2.37108">
        <ele>127.4</ele>
        <time>2022-11-16T15:02:45Z</time>
      </trkpt>
      <trkpt lat="50.01164" lon="2.37108">
        <ele>127.4</ele>
        <time>2022-11-16T15:02:46Z</time>
      </trkpt>
      <trkpt lat="50.01165" lon="2.37108">
        <ele>127.4</ele>
        <time>2022-11-16T15:02:47Z</time>
      </trkpt>
      <trkpt lat="50.01166" lon="2.37108">
        <ele>127.4</ele>
        <time>2022-11-16T15:02:48Z</time>
      </trkpt>
      <trkpt lat="50.01167" lon="2.37109">
        <ele>127.4</ele>
        <time>2022-11-16T15:02:49Z</time>
      </trkpt>
      <trkpt lat="50.01167" lon="2.37109">
        <ele>127.4</ele>
        <time>2022-11-16T15:02:50Z</time>
      </trkpt>
      <trkpt lat="50.01168" lon="2.37109">
        <ele>127.4</ele>
        <time>2022-11-16T15:02:51Z</time>
      </trkpt>
      <trkpt lat="50.01168" lon="2.3711">
        <ele>127.5</ele>
        <time>2022-11-16T15:02:52Z</time>
      </trkpt>
      <trkpt lat="50.01169" lon="2.3711">
        <ele>127.5</ele>
        <time>2022-11-16T15:02:53Z</time>
      </trkpt>
      <trkpt lat="50.0117" lon="2.3711">
        <ele>127.5</ele>
        <time>2022-11-16T15:02:54Z</time>
      </trkpt>
      <trkpt lat="50.01171" lon="2.37111">
        <ele>127.5</ele>
        <time>2022-11-16T15:02:55Z</time>
      </trkpt>
      <trkpt lat="50.01172" lon="2.37112">
        <ele>127.5</ele>
        <time>2022-11-16T15:02:56Z</time>
      </trkpt>
      <trkpt lat="50.01174" lon="2.37112">
        <ele>127.5</ele>
        <time>2022-11-16T15:02:58Z</time>
      </trkpt>
      <trkpt lat="50.01175" lon="2.37113">
        <ele>127.5</ele>
        <time>2022-11-16T15:02:59Z</time>
      </trkpt>
      <trkpt lat="50.01176" lon="2.37114">
        <ele>127.5</ele>
        <time>2022-11-16T15:03:00Z</time>
      </trkpt>
      <trkpt lat="50.01177" lon="2.37114">
        <ele>127.5</ele>
        <time>2022-11-16T15:03:01Z</time>
      </trkpt>
      <trkpt lat="50.0118" lon="2.37115">
        <ele>127.6</ele>
        <time>2022-11-16T15:03:02Z</time>
      </trkpt>
      <trkpt lat="50.01181" lon="2.37116">
        <ele>127.6</ele>
        <time>2022-11-16T15:03:04Z</time>
      </trkpt>
      <trkpt lat="50.01182" lon="2.37116">
        <ele>127.6</ele>
        <time>2022-11-16T15:03:05Z</time>
      </trkpt>
      <trkpt lat="50.01183" lon="2.37117">
        <ele>127.6</ele>
        <time>2022-11-16T15:03:06Z</time>
      </trkpt>
      <trkpt lat="50.01184" lon="2.37117">
        <ele>127.6</ele>
        <time>2022-11-16T15:03:07Z</time>
      </trkpt>
      <trkpt lat="50.01185" lon="2.37117">
        <ele>127.6</ele>
        <time>2022-11-16T15:03:08Z</time>
      </trkpt>
      <trkpt lat="50.01186" lon="2.37118">
        <ele>127.6</ele>
        <time>2022-11-16T15:03:09Z</time>
      </trkpt>
      <trkpt lat="50.01187" lon="2.37119">
        <ele>127.6</ele>
        <time>2022-11-16T15:03:11Z</time>
      </trkpt>
      <trkpt lat="50.01188" lon="2.37119">
        <ele>127.6</ele>
        <time>2022-11-16T15:03:12Z</time>
      </trkpt>
      <trkpt lat="50.01189" lon="2.3712">
        <ele>127.6</ele>
        <time>2022-11-16T15:03:13Z</time>
      </trkpt>
      <trkpt lat="50.0119" lon="2.3712">
        <ele>127.6</ele>
        <time>2022-11-16T15:03:14Z</time>
      </trkpt>
      <trkpt lat="50.01191" lon="2.37121">
        <ele>127.6</ele>
        <time>2022-11-16T15:03:15Z</time>
      </trkpt>
      <trkpt lat="50.01193" lon="2.37121">
        <ele>127.6</ele>
        <time>2022-11-16T15:03:16Z</time>
      </trkpt>
      <trkpt lat="50.01194" lon="2.37122">
        <ele>127.6</ele>
        <time>2022-11-16T15:03:18Z</time>
      </trkpt>
      <trkpt lat="50.01195" lon="2.37122">
        <ele>127.7</ele>
        <time>2022-11-16T15:03:19Z</time>
      </trkpt>
      <trkpt lat="50.01196" lon="2.37123">
        <ele>127.7</ele>
        <time>2022-11-16T15:03:20Z</time>
      </trkpt>
      <trkpt lat="50.01198" lon="2.37123">
        <ele>127.7</ele>
        <time>2022-11-16T15:03:21Z</time>
      </trkpt>
      <trkpt lat="50.01199" lon="2.37125">
        <ele>127.7</ele>
        <time>2022-11-16T15:03:23Z</time>
      </trkpt>
      <trkpt lat="50.012" lon="2.37125">
        <ele>127.7</ele>
        <time>2022-11-16T15:03:24Z</time>
      </trkpt>
      <trkpt lat="50.01202" lon="2.37126">
        <ele>127.8</ele>
        <time>2022-11-16T15:03:25Z</time>
      </trkpt>
      <trkpt lat="50.01202" lon="2.37126">
        <ele>127.8</ele>
        <time>2022-11-16T15:03:26Z</time>
      </trkpt>
      <trkpt lat="50.01203" lon="2.37126">
        <ele>127.8</ele>
        <time>2022-11-16T15:03:27Z</time>
      </trkpt>
      <trkpt lat="50.01204" lon="2.37127">
        <ele>127.8</ele>
        <time>2022-11-16T15:03:29Z</time>
      </trkpt>
      <trkpt lat="50.01205" lon="2.37127">
        <ele>127.8</ele>
        <time>2022-11-16T15:03:30Z</time>
      </trkpt>
      <trkpt lat="50.01206" lon="2.37128">
        <ele>127.8</ele>
        <time>2022-11-16T15:03:31Z</time>
      </trkpt>
      <trkpt lat="50.01207" lon="2.37129">
        <ele>127.8</ele>
        <time>2022-11-16T15:03:32Z</time>
      </trkpt>
      <trkpt lat="50.01208" lon="2.37129">
        <ele>127.9</ele>
        <time>2022-11-16T15:03:34Z</time>
      </trkpt>
      <trkpt lat="50.01208" lon="2.3713">
        <ele>127.9</ele>
        <time>2022-11-16T15:03:35Z</time>
      </trkpt>
      <trkpt lat="50.0121" lon="2.3713">
        <ele>127.9</ele>
        <time>2022-11-16T15:03:36Z</time>
      </trkpt>
      <trkpt lat="50.01211" lon="2.37131">
        <ele>127.9</ele>
        <time>2022-11-16T15:03:37Z</time>
      </trkpt>
      <trkpt lat="50.01212" lon="2.37131">
        <ele>127.9</ele>
        <time>2022-11-16T15:03:38Z</time>
      </trkpt>
      <trkpt lat="50.01213" lon="2.37132">
        <ele>127.9</ele>
        <time>2022-11-16T15:03:39Z</time>
      </trkpt>
      <trkpt lat="50.01213" lon="2.37133">
        <ele>127.9</ele>
        <time>2022-11-16T15:03:41Z</time>
      </trkpt>
      <trkpt lat="50.01214" lon="2.37133">
        <ele>127.9</ele>
        <time>2022-11-16T15:03:42Z</time>
      </trkpt>
      <trkpt lat="50.01215" lon="2.37134">
        <ele>127.9</ele>
        <time>2022-11-16T15:03:43Z</time>
      </trkpt>
      <trkpt lat="50.01217" lon="2.37134">
        <ele>127.9</ele>
        <time>2022-11-16T15:03:44Z</time>
      </trkpt>
      <trkpt lat="50.01218" lon="2.37135">
        <ele>127.9</ele>
        <time>2022-11-16T15:03:45Z</time>
      </trkpt>
      <trkpt lat="50.01219" lon="2.37135">
        <ele>127.8</ele>
        <time>2022-11-16T15:03:46Z</time>
      </trkpt>
      <trkpt lat="50.0122" lon="2.37136">
        <ele>127.8</ele>
        <time>2022-11-16T15:03:48Z</time>
      </trkpt>
      <trkpt lat="50.01221" lon="2.37136">
        <ele>127.8</ele>
        <time>2022-11-16T15:03:49Z</time>
      </trkpt>
      <trkpt lat="50.01223" lon="2.37137">
        <ele>127.8</ele>
        <time>2022-11-16T15:03:50Z</time>
      </trkpt>
      <trkpt lat="50.01224" lon="2.37138">
        <ele>127.8</ele>
        <time>2022-11-16T15:03:51Z</time>
      </trkpt>
      <trkpt lat="50.01224" lon="2.37138">
        <ele>127.8</ele>
        <time>2022-11-16T15:03:52Z</time>
      </trkpt>
      <trkpt lat="50.01226" lon="2.37139">
        <ele>127.8</ele>
        <time>2022-11-16T15:03:54Z</time>
      </trkpt>
      <trkpt lat="50.01227" lon="2.3714">
        <ele>127.8</ele>
        <time>2022-11-16T15:03:55Z</time>
      </trkpt>
      <trkpt lat="50.01228" lon="2.3714">
        <ele>127.8</ele>
        <time>2022-11-16T15:03:56Z</time>
      </trkpt>
      <trkpt lat="50.01229" lon="2.37141">
        <ele>127.8</ele>
        <time>2022-11-16T15:03:57Z</time>
      </trkpt>
      <trkpt lat="50.0123" lon="2.37142">
        <ele>127.8</ele>
        <time>2022-11-16T15:03:58Z</time>
      </trkpt>
      <trkpt lat="50.01231" lon="2.37143">
        <ele>127.8</ele>
        <time>2022-11-16T15:04:00Z</time>
      </trkpt>
      <trkpt lat="50.01232" lon="2.37143">
        <ele>127.8</ele>
        <time>2022-11-16T15:04:01Z</time>
      </trkpt>
      <trkpt lat="50.01233" lon="2.37144">
        <ele>127.8</ele>
        <time>2022-11-16T15:04:02Z</time>
      </trkpt>
      <trkpt lat="50.01234" lon="2.37145">
        <ele>127.8</ele>
        <time>2022-11-16T15:04:03Z</time>
      </trkpt>
      <trkpt lat="50.01236" lon="2.37147">
        <ele>127.9</ele>
        <time>2022-11-16T15:04:04Z</time>
      </trkpt>
      <trkpt lat="50.01237" lon="2.37147">
        <ele>127.9</ele>
        <time>2022-11-16T15:04:06Z</time>
      </trkpt>
      <trkpt lat="50.01237" lon="2.37148">
        <ele>127.9</ele>
        <time>2022-11-16T15:04:07Z</time>
      </trkpt>
      <trkpt lat="50.01238" lon="2.37149">
        <ele>127.9</ele>
        <time>2022-11-16T15:04:08Z</time>
      </trkpt>
      <trkpt lat="50.01239" lon="2.37149">
        <ele>127.9</ele>
        <time>2022-11-16T15:04:09Z</time>
      </trkpt>
      <trkpt lat="50.0124" lon="2.37149">
        <ele>127.9</ele>
        <time>2022-11-16T15:04:10Z</time>
      </trkpt>
      <trkpt lat="50.01242" lon="2.3715">
        <ele>127.9</ele>
        <time>2022-11-16T15:04:12Z</time>
      </trkpt>
      <trkpt lat="50.01242" lon="2.3715">
        <ele>127.9</ele>
        <time>2022-11-16T15:04:13Z</time>
      </trkpt>
      <trkpt lat="50.01244" lon="2.37151">
        <ele>127.9</ele>
        <time>2022-11-16T15:04:14Z</time>
      </trkpt>
      <trkpt lat="50.01245" lon="2.37152">
        <ele>127.9</ele>
        <time>2022-11-16T15:04:15Z</time>
      </trkpt>
      <trkpt lat="50.01246" lon="2.37153">
        <ele>127.9</ele>
        <time>2022-11-16T15:04:16Z</time>
      </trkpt>
      <trkpt lat="50.01248" lon="2.37155">
        <ele>127.9</ele>
        <time>2022-11-16T15:04:18Z</time>
      </trkpt>
      <trkpt lat="50.01248" lon="2.37156">
        <ele>127.9</ele>
        <time>2022-11-16T15:04:19Z</time>
      </trkpt>
      <trkpt lat="50.01249" lon="2.37157">
        <ele>127.9</ele>
        <time>2022-11-16T15:04:20Z</time>
      </trkpt>
      <trkpt lat="50.0125" lon="2.37158">
        <ele>127.9</ele>
        <time>2022-11-16T15:04:21Z</time>
      </trkpt>
      <trkpt lat="50.01251" lon="2.37159">
        <ele>127.9</ele>
        <time>2022-11-16T15:04:23Z</time>
      </trkpt>
      <trkpt lat="50.01252" lon="2.3716">
        <ele>127.9</ele>
        <time>2022-11-16T15:04:24Z</time>
      </trkpt>
      <trkpt lat="50.01252" lon="2.37161">
        <ele>127.9</ele>
        <time>2022-11-16T15:04:25Z</time>
      </trkpt>
      <trkpt lat="50.01253" lon="2.37162">
        <ele>127.9</ele>
        <time>2022-11-16T15:04:26Z</time>
      </trkpt>
      <trkpt lat="50.01254" lon="2.37164">
        <ele>127.9</ele>
        <time>2022-11-16T15:04:27Z</time>
      </trkpt>
      <trkpt lat="50.01255" lon="2.37165">
        <ele>127.9</ele>
        <time>2022-11-16T15:04:28Z</time>
      </trkpt>
      <trkpt lat="50.01256" lon="2.37166">
        <ele>127.9</ele>
        <time>2022-11-16T15:04:29Z</time>
      </trkpt>
      <trkpt lat="50.01257" lon="2.37167">
        <ele>127.9</ele>
        <time>2022-11-16T15:04:30Z</time>
      </trkpt>
      <trkpt lat="50.01257" lon="2.37168">
        <ele>128</ele>
        <time>2022-11-16T15:04:31Z</time>
      </trkpt>
      <trkpt lat="50.01258" lon="2.37169">
        <ele>128</ele>
        <time>2022-11-16T15:04:33Z</time>
      </trkpt>
      <trkpt lat="50.01259" lon="2.3717">
        <ele>128</ele>
        <time>2022-11-16T15:04:34Z</time>
      </trkpt>
      <trkpt lat="50.01259" lon="2.37174">
        <ele>128</ele>
        <time>2022-11-16T15:04:35Z</time>
      </trkpt>
      <trkpt lat="50.01259" lon="2.37175">
        <ele>128</ele>
        <time>2022-11-16T15:04:36Z</time>
      </trkpt>
      <trkpt lat="50.01259" lon="2.37176">
        <ele>128</ele>
        <time>2022-11-16T15:04:37Z</time>
      </trkpt>
      <trkpt lat="50.01259" lon="2.37178">
        <ele>128</ele>
        <time>2022-11-16T15:04:38Z</time>
      </trkpt>
      <trkpt lat="50.0126" lon="2.37179">
        <ele>128.1</ele>
        <time>2022-11-16T15:04:39Z</time>
      </trkpt>
      <trkpt lat="50.0126" lon="2.3718">
        <ele>128.1</ele>
        <time>2022-11-16T15:04:40Z</time>
      </trkpt>
      <trkpt lat="50.01261" lon="2.37182">
        <ele>128.1</ele>
        <time>2022-11-16T15:04:42Z</time>
      </trkpt>
      <trkpt lat="50.01262" lon="2.37183">
        <ele>128.1</ele>
        <time>2022-11-16T15:04:43Z</time>
      </trkpt>
      <trkpt lat="50.01262" lon="2.37184">
        <ele>128.1</ele>
        <time>2022-11-16T15:04:44Z</time>
      </trkpt>
      <trkpt lat="50.01262" lon="2.37185">
        <ele>128.1</ele>
        <time>2022-11-16T15:04:45Z</time>
      </trkpt>
      <trkpt lat="50.01264" lon="2.37187">
        <ele>128.2</ele>
        <time>2022-11-16T15:04:46Z</time>
      </trkpt>
      <trkpt lat="50.01264" lon="2.37188">
        <ele>128.2</ele>
        <time>2022-11-16T15:04:47Z</time>
      </trkpt>
      <trkpt lat="50.01264" lon="2.37189">
        <ele>128.2</ele>
        <time>2022-11-16T15:04:49Z</time>
      </trkpt>
      <trkpt lat="50.01265" lon="2.3719">
        <ele>128.2</ele>
        <time>2022-11-16T15:04:50Z</time>
      </trkpt>
      <trkpt lat="50.01265" lon="2.37191">
        <ele>128.2</ele>
        <time>2022-11-16T15:04:51Z</time>
      </trkpt>
      <trkpt lat="50.01266" lon="2.37192">
        <ele>128.2</ele>
        <time>2022-11-16T15:04:52Z</time>
      </trkpt>
      <trkpt lat="50.01266" lon="2.37193">
        <ele>128.2</ele>
        <time>2022-11-16T15:04:53Z</time>
      </trkpt>
      <trkpt lat="50.01267" lon="2.37195">
        <ele>128.2</ele>
        <time>2022-11-16T15:04:54Z</time>
      </trkpt>
      <trkpt lat="50.01267" lon="2.37196">
        <ele>128.2</ele>
        <time>2022-11-16T15:04:56Z</time>
      </trkpt>
      <trkpt lat="50.01268" lon="2.37197">
        <ele>128.2</ele>
        <time>2022-11-16T15:04:57Z</time>
      </trkpt>
      <trkpt lat="50.01268" lon="2.37199">
        <ele>128.2</ele>
        <time>2022-11-16T15:04:58Z</time>
      </trkpt>
      <trkpt lat="50.01269" lon="2.37201">
        <ele>128.2</ele>
        <time>2022-11-16T15:04:59Z</time>
      </trkpt>
      <trkpt lat="50.0127" lon="2.37202">
        <ele>128.2</ele>
        <time>2022-11-16T15:05:00Z</time>
      </trkpt>
      <trkpt lat="50.01271" lon="2.37204">
        <ele>128.2</ele>
        <time>2022-11-16T15:05:01Z</time>
      </trkpt>
      <trkpt lat="50.01272" lon="2.37205">
        <ele>128.2</ele>
        <time>2022-11-16T15:05:03Z</time>
      </trkpt>
      <trkpt lat="50.01273" lon="2.37206">
        <ele>128.2</ele>
        <time>2022-11-16T15:05:04Z</time>
      </trkpt>
      <trkpt lat="50.01273" lon="2.37206">
        <ele>128.2</ele>
        <time>2022-11-16T15:05:05Z</time>
      </trkpt>
      <trkpt lat="50.01274" lon="2.37207">
        <ele>128.2</ele>
        <time>2022-11-16T15:05:06Z</time>
      </trkpt>
      <trkpt lat="50.01274" lon="2.37208">
        <ele>128.2</ele>
        <time>2022-11-16T15:05:07Z</time>
      </trkpt>
      <trkpt lat="50.01275" lon="2.37209">
        <ele>128.2</ele>
        <time>2022-11-16T15:05:08Z</time>
      </trkpt>
      <trkpt lat="50.01276" lon="2.3721">
        <ele>128.2</ele>
        <time>2022-11-16T15:05:09Z</time>
      </trkpt>
      <trkpt lat="50.01276" lon="2.37211">
        <ele>128.2</ele>
        <time>2022-11-16T15:05:10Z</time>
      </trkpt>
      <trkpt lat="50.01276" lon="2.37212">
        <ele>128.2</ele>
        <time>2022-11-16T15:05:11Z</time>
      </trkpt>
      <trkpt lat="50.01277" lon="2.37213">
        <ele>128.2</ele>
        <time>2022-11-16T15:05:12Z</time>
      </trkpt>
      <trkpt lat="50.01277" lon="2.37214">
        <ele>128.2</ele>
        <time>2022-11-16T15:05:13Z</time>
      </trkpt>
      <trkpt lat="50.01278" lon="2.37217">
        <ele>128.2</ele>
        <time>2022-11-16T15:05:14Z</time>
      </trkpt>
      <trkpt lat="50.01278" lon="2.37218">
        <ele>128.2</ele>
        <time>2022-11-16T15:05:16Z</time>
      </trkpt>
      <trkpt lat="50.01279" lon="2.3722">
        <ele>128.2</ele>
        <time>2022-11-16T15:05:17Z</time>
      </trkpt>
      <trkpt lat="50.01279" lon="2.37221">
        <ele>128.2</ele>
        <time>2022-11-16T15:05:18Z</time>
      </trkpt>
      <trkpt lat="50.0128" lon="2.37222">
        <ele>128.2</ele>
        <time>2022-11-16T15:05:19Z</time>
      </trkpt>
      <trkpt lat="50.0128" lon="2.37224">
        <ele>128.2</ele>
        <time>2022-11-16T15:05:20Z</time>
      </trkpt>
      <trkpt lat="50.01281" lon="2.37225">
        <ele>128.2</ele>
        <time>2022-11-16T15:05:22Z</time>
      </trkpt>
      <trkpt lat="50.01282" lon="2.37227">
        <ele>128.3</ele>
        <time>2022-11-16T15:05:23Z</time>
      </trkpt>
      <trkpt lat="50.01283" lon="2.37227">
        <ele>128.3</ele>
        <time>2022-11-16T15:05:24Z</time>
      </trkpt>
      <trkpt lat="50.01283" lon="2.37229">
        <ele>128.3</ele>
        <time>2022-11-16T15:05:25Z</time>
      </trkpt>
      <trkpt lat="50.01284" lon="2.3723">
        <ele>128.3</ele>
        <time>2022-11-16T15:05:26Z</time>
      </trkpt>
      <trkpt lat="50.01285" lon="2.37231">
        <ele>128.3</ele>
        <time>2022-11-16T15:05:27Z</time>
      </trkpt>
      <trkpt lat="50.01286" lon="2.37232">
        <ele>128.3</ele>
        <time>2022-11-16T15:05:29Z</time>
      </trkpt>
      <trkpt lat="50.01286" lon="2.37233">
        <ele>128.3</ele>
        <time>2022-11-16T15:05:30Z</time>
      </trkpt>
      <trkpt lat="50.01287" lon="2.37234">
        <ele>128.3</ele>
        <time>2022-11-16T15:05:31Z</time>
      </trkpt>
      <trkpt lat="50.01288" lon="2.37236">
        <ele>128.3</ele>
        <time>2022-11-16T15:05:32Z</time>
      </trkpt>
      <trkpt lat="50.01289" lon="2.37237">
        <ele>128.3</ele>
        <time>2022-11-16T15:05:33Z</time>
      </trkpt>
      <trkpt lat="50.0129" lon="2.37239">
        <ele>128.3</ele>
        <time>2022-11-16T15:05:35Z</time>
      </trkpt>
      <trkpt lat="50.01291" lon="2.3724">
        <ele>128.3</ele>
        <time>2022-11-16T15:05:36Z</time>
      </trkpt>
      <trkpt lat="50.01291" lon="2.37241">
        <ele>128.3</ele>
        <time>2022-11-16T15:05:37Z</time>
      </trkpt>
      <trkpt lat="50.01292" lon="2.37243">
        <ele>128.3</ele>
        <time>2022-11-16T15:05:38Z</time>
      </trkpt>
      <trkpt lat="50.01292" lon="2.37244">
        <ele>128.3</ele>
        <time>2022-11-16T15:05:39Z</time>
      </trkpt>
      <trkpt lat="50.01293" lon="2.37245">
        <ele>128.3</ele>
        <time>2022-11-16T15:05:40Z</time>
      </trkpt>
      <trkpt lat="50.01294" lon="2.37246">
        <ele>128.3</ele>
        <time>2022-11-16T15:05:41Z</time>
      </trkpt>
      <trkpt lat="50.01294" lon="2.37247">
        <ele>128.3</ele>
        <time>2022-11-16T15:05:42Z</time>
      </trkpt>
      <trkpt lat="50.01295" lon="2.37248">
        <ele>128.3</ele>
        <time>2022-11-16T15:05:43Z</time>
      </trkpt>
      <trkpt lat="50.01296" lon="2.37249">
        <ele>128.3</ele>
        <time>2022-11-16T15:05:44Z</time>
      </trkpt>
      <trkpt lat="50.01297" lon="2.3725">
        <ele>128.3</ele>
        <time>2022-11-16T15:05:45Z</time>
      </trkpt>
      <trkpt lat="50.01298" lon="2.37252">
        <ele>128.3</ele>
        <time>2022-11-16T15:05:46Z</time>
      </trkpt>
      <trkpt lat="50.01299" lon="2.37253">
        <ele>128.3</ele>
        <time>2022-11-16T15:05:47Z</time>
      </trkpt>
      <trkpt lat="50.013" lon="2.37254">
        <ele>128.3</ele>
        <time>2022-11-16T15:05:49Z</time>
      </trkpt>
      <trkpt lat="50.013" lon="2.37256">
        <ele>128.3</ele>
        <time>2022-11-16T15:05:50Z</time>
      </trkpt>
      <trkpt lat="50.01301" lon="2.37258">
        <ele>128.4</ele>
        <time>2022-11-16T15:05:51Z</time>
      </trkpt>
      <trkpt lat="50.01301" lon="2.3726">
        <ele>128.4</ele>
        <time>2022-11-16T15:05:52Z</time>
      </trkpt>
      <trkpt lat="50.01301" lon="2.37261">
        <ele>128.4</ele>
        <time>2022-11-16T15:05:53Z</time>
      </trkpt>
      <trkpt lat="50.01302" lon="2.37263">
        <ele>128.4</ele>
        <time>2022-11-16T15:05:55Z</time>
      </trkpt>
      <trkpt lat="50.01302" lon="2.37264">
        <ele>128.4</ele>
        <time>2022-11-16T15:05:56Z</time>
      </trkpt>
      <trkpt lat="50.01303" lon="2.37265">
        <ele>128.4</ele>
        <time>2022-11-16T15:05:57Z</time>
      </trkpt>
      <trkpt lat="50.01303" lon="2.37266">
        <ele>128.4</ele>
        <time>2022-11-16T15:05:58Z</time>
      </trkpt>
      <trkpt lat="50.01303" lon="2.37267">
        <ele>128.4</ele>
        <time>2022-11-16T15:05:59Z</time>
      </trkpt>
      <trkpt lat="50.01304" lon="2.37268">
        <ele>128.4</ele>
        <time>2022-11-16T15:06:00Z</time>
      </trkpt>
      <trkpt lat="50.01305" lon="2.3727">
        <ele>128.4</ele>
        <time>2022-11-16T15:06:01Z</time>
      </trkpt>
      <trkpt lat="50.01305" lon="2.37271">
        <ele>128.5</ele>
        <time>2022-11-16T15:06:02Z</time>
      </trkpt>
      <trkpt lat="50.01306" lon="2.37272">
        <ele>128.5</ele>
        <time>2022-11-16T15:06:03Z</time>
      </trkpt>
      <trkpt lat="50.01306" lon="2.37273">
        <ele>128.5</ele>
        <time>2022-11-16T15:06:04Z</time>
      </trkpt>
      <trkpt lat="50.01307" lon="2.37274">
        <ele>128.5</ele>
        <time>2022-11-16T15:06:05Z</time>
      </trkpt>
      <trkpt lat="50.01308" lon="2.37276">
        <ele>128.5</ele>
        <time>2022-11-16T15:06:06Z</time>
      </trkpt>
      <trkpt lat="50.01308" lon="2.37277">
        <ele>128.5</ele>
        <time>2022-11-16T15:06:07Z</time>
      </trkpt>
      <trkpt lat="50.01309" lon="2.37278">
        <ele>128.5</ele>
        <time>2022-11-16T15:06:08Z</time>
      </trkpt>
      <trkpt lat="50.01309" lon="2.3728">
        <ele>128.5</ele>
        <time>2022-11-16T15:06:09Z</time>
      </trkpt>
      <trkpt lat="50.01309" lon="2.37281">
        <ele>128.5</ele>
        <time>2022-11-16T15:06:10Z</time>
      </trkpt>
      <trkpt lat="50.0131" lon="2.37282">
        <ele>128.6</ele>
        <time>2022-11-16T15:06:11Z</time>
      </trkpt>
      <trkpt lat="50.0131" lon="2.37284">
        <ele>128.6</ele>
        <time>2022-11-16T15:06:12Z</time>
      </trkpt>
      <trkpt lat="50.0131" lon="2.37285">
        <ele>128.6</ele>
        <time>2022-11-16T15:06:13Z</time>
      </trkpt>
      <trkpt lat="50.01311" lon="2.37287">
        <ele>128.6</ele>
        <time>2022-11-16T15:06:14Z</time>
      </trkpt>
      <trkpt lat="50.01311" lon="2.37288">
        <ele>128.6</ele>
        <time>2022-11-16T15:06:15Z</time>
      </trkpt>
      <trkpt lat="50.01312" lon="2.3729">
        <ele>128.6</ele>
        <time>2022-11-16T15:06:16Z</time>
      </trkpt>
      <trkpt lat="50.01312" lon="2.37291">
        <ele>128.6</ele>
        <time>2022-11-16T15:06:17Z</time>
      </trkpt>
      <trkpt lat="50.01313" lon="2.37293">
        <ele>128.6</ele>
        <time>2022-11-16T15:06:18Z</time>
      </trkpt>
      <trkpt lat="50.01313" lon="2.37294">
        <ele>128.6</ele>
        <time>2022-11-16T15:06:19Z</time>
      </trkpt>
      <trkpt lat="50.01314" lon="2.37295">
        <ele>128.6</ele>
        <time>2022-11-16T15:06:20Z</time>
      </trkpt>
      <trkpt lat="50.01314" lon="2.37297">
        <ele>128.6</ele>
        <time>2022-11-16T15:06:21Z</time>
      </trkpt>
      <trkpt lat="50.01315" lon="2.37298">
        <ele>128.6</ele>
        <time>2022-11-16T15:06:22Z</time>
      </trkpt>
      <trkpt lat="50.01316" lon="2.373">
        <ele>128.6</ele>
        <time>2022-11-16T15:06:23Z</time>
      </trkpt>
      <trkpt lat="50.01316" lon="2.37301">
        <ele>128.6</ele>
        <time>2022-11-16T15:06:25Z</time>
      </trkpt>
      <trkpt lat="50.01317" lon="2.37303">
        <ele>128.6</ele>
        <time>2022-11-16T15:06:26Z</time>
      </trkpt>
      <trkpt lat="50.01318" lon="2.37304">
        <ele>128.6</ele>
        <time>2022-11-16T15:06:27Z</time>
      </trkpt>
      <trkpt lat="50.01318" lon="2.37305">
        <ele>128.6</ele>
        <time>2022-11-16T15:06:28Z</time>
      </trkpt>
      <trkpt lat="50.01319" lon="2.37307">
        <ele>128.6</ele>
        <time>2022-11-16T15:06:29Z</time>
      </trkpt>
      <trkpt lat="50.0132" lon="2.37308">
        <ele>128.6</ele>
        <time>2022-11-16T15:06:30Z</time>
      </trkpt>
      <trkpt lat="50.0132" lon="2.37309">
        <ele>128.6</ele>
        <time>2022-11-16T15:06:31Z</time>
      </trkpt>
      <trkpt lat="50.01321" lon="2.37311">
        <ele>128.6</ele>
        <time>2022-11-16T15:06:32Z</time>
      </trkpt>
      <trkpt lat="50.01322" lon="2.37312">
        <ele>128.7</ele>
        <time>2022-11-16T15:06:34Z</time>
      </trkpt>
      <trkpt lat="50.01323" lon="2.37313">
        <ele>128.7</ele>
        <time>2022-11-16T15:06:35Z</time>
      </trkpt>
      <trkpt lat="50.01323" lon="2.37315">
        <ele>128.7</ele>
        <time>2022-11-16T15:06:36Z</time>
      </trkpt>
      <trkpt lat="50.01324" lon="2.37316">
        <ele>128.7</ele>
        <time>2022-11-16T15:06:37Z</time>
      </trkpt>
      <trkpt lat="50.01324" lon="2.37318">
        <ele>128.7</ele>
        <time>2022-11-16T15:06:38Z</time>
      </trkpt>
      <trkpt lat="50.01325" lon="2.37319">
        <ele>128.7</ele>
        <time>2022-11-16T15:06:39Z</time>
      </trkpt>
      <trkpt lat="50.01326" lon="2.37321">
        <ele>128.7</ele>
        <time>2022-11-16T15:06:40Z</time>
      </trkpt>
      <trkpt lat="50.01326" lon="2.37322">
        <ele>128.7</ele>
        <time>2022-11-16T15:06:42Z</time>
      </trkpt>
      <trkpt lat="50.01327" lon="2.37324">
        <ele>128.7</ele>
        <time>2022-11-16T15:06:43Z</time>
      </trkpt>
      <trkpt lat="50.01328" lon="2.37325">
        <ele>128.7</ele>
        <time>2022-11-16T15:06:44Z</time>
      </trkpt>
      <trkpt lat="50.01328" lon="2.37327">
        <ele>128.8</ele>
        <time>2022-11-16T15:06:45Z</time>
      </trkpt>
      <trkpt lat="50.0133" lon="2.37329">
        <ele>128.8</ele>
        <time>2022-11-16T15:06:46Z</time>
      </trkpt>
      <trkpt lat="50.0133" lon="2.3733">
        <ele>128.8</ele>
        <time>2022-11-16T15:06:47Z</time>
      </trkpt>
      <trkpt lat="50.0133" lon="2.37332">
        <ele>128.8</ele>
        <time>2022-11-16T15:06:48Z</time>
      </trkpt>
      <trkpt lat="50.01331" lon="2.37333">
        <ele>128.8</ele>
        <time>2022-11-16T15:06:50Z</time>
      </trkpt>
      <trkpt lat="50.01332" lon="2.37334">
        <ele>128.9</ele>
        <time>2022-11-16T15:06:51Z</time>
      </trkpt>
      <trkpt lat="50.01332" lon="2.37336">
        <ele>128.9</ele>
        <time>2022-11-16T15:06:52Z</time>
      </trkpt>
      <trkpt lat="50.01333" lon="2.37337">
        <ele>128.9</ele>
        <time>2022-11-16T15:06:53Z</time>
      </trkpt>
      <trkpt lat="50.01333" lon="2.37338">
        <ele>128.9</ele>
        <time>2022-11-16T15:06:54Z</time>
      </trkpt>
      <trkpt lat="50.01334" lon="2.3734">
        <ele>128.9</ele>
        <time>2022-11-16T15:06:55Z</time>
      </trkpt>
      <trkpt lat="50.01334" lon="2.37341">
        <ele>128.9</ele>
        <time>2022-11-16T15:06:56Z</time>
      </trkpt>
      <trkpt lat="50.01335" lon="2.37343">
        <ele>129</ele>
        <time>2022-11-16T15:06:58Z</time>
      </trkpt>
      <trkpt lat="50.01335" lon="2.37344">
        <ele>129</ele>
        <time>2022-11-16T15:06:59Z</time>
      </trkpt>
      <trkpt lat="50.01336" lon="2.37346">
        <ele>129</ele>
        <time>2022-11-16T15:07:00Z</time>
      </trkpt>
      <trkpt lat="50.01336" lon="2.37347">
        <ele>129</ele>
        <time>2022-11-16T15:07:01Z</time>
      </trkpt>
      <trkpt lat="50.01337" lon="2.37348">
        <ele>129</ele>
        <time>2022-11-16T15:07:02Z</time>
      </trkpt>
      <trkpt lat="50.01337" lon="2.37349">
        <ele>129</ele>
        <time>2022-11-16T15:07:03Z</time>
      </trkpt>
      <trkpt lat="50.01338" lon="2.37351">
        <ele>129</ele>
        <time>2022-11-16T15:07:05Z</time>
      </trkpt>
      <trkpt lat="50.01338" lon="2.37352">
        <ele>129</ele>
        <time>2022-11-16T15:07:06Z</time>
      </trkpt>
      <trkpt lat="50.01339" lon="2.37353">
        <ele>129</ele>
        <time>2022-11-16T15:07:07Z</time>
      </trkpt>
      <trkpt lat="50.01339" lon="2.37354">
        <ele>129</ele>
        <time>2022-11-16T15:07:08Z</time>
      </trkpt>
      <trkpt lat="50.01339" lon="2.37355">
        <ele>129</ele>
        <time>2022-11-16T15:07:09Z</time>
      </trkpt>
      <trkpt lat="50.0134" lon="2.37356">
        <ele>129</ele>
        <time>2022-11-16T15:07:10Z</time>
      </trkpt>
      <trkpt lat="50.0134" lon="2.37357">
        <ele>129</ele>
        <time>2022-11-16T15:07:11Z</time>
      </trkpt>
      <trkpt lat="50.01341" lon="2.37358">
        <ele>129</ele>
        <time>2022-11-16T15:07:13Z</time>
      </trkpt>
      <trkpt lat="50.01342" lon="2.3736">
        <ele>129</ele>
        <time>2022-11-16T15:07:14Z</time>
      </trkpt>
      <trkpt lat="50.01342" lon="2.37361">
        <ele>129</ele>
        <time>2022-11-16T15:07:15Z</time>
      </trkpt>
      <trkpt lat="50.01343" lon="2.37363">
        <ele>129</ele>
        <time>2022-11-16T15:07:17Z</time>
      </trkpt>
      <trkpt lat="50.01343" lon="2.37363">
        <ele>129</ele>
        <time>2022-11-16T15:07:18Z</time>
      </trkpt>
      <trkpt lat="50.01344" lon="2.37364">
        <ele>129</ele>
        <time>2022-11-16T15:07:19Z</time>
      </trkpt>
      <trkpt lat="50.01344" lon="2.37365">
        <ele>129</ele>
        <time>2022-11-16T15:07:20Z</time>
      </trkpt>
      <trkpt lat="50.01345" lon="2.37367">
        <ele>129</ele>
        <time>2022-11-16T15:07:21Z</time>
      </trkpt>
      <trkpt lat="50.01346" lon="2.37369">
        <ele>129</ele>
        <time>2022-11-16T15:07:22Z</time>
      </trkpt>
      <trkpt lat="50.01347" lon="2.37372">
        <ele>129</ele>
        <time>2022-11-16T15:07:23Z</time>
      </trkpt>
      <trkpt lat="50.01348" lon="2.37373">
        <ele>129</ele>
        <time>2022-11-16T15:07:25Z</time>
      </trkpt>
      <trkpt lat="50.01348" lon="2.37374">
        <ele>129</ele>
        <time>2022-11-16T15:07:26Z</time>
      </trkpt>
      <trkpt lat="50.01349" lon="2.37376">
        <ele>129.1</ele>
        <time>2022-11-16T15:07:27Z</time>
      </trkpt>
      <trkpt lat="50.0135" lon="2.37378">
        <ele>129.1</ele>
        <time>2022-11-16T15:07:28Z</time>
      </trkpt>
      <trkpt lat="50.0135" lon="2.37379">
        <ele>129.1</ele>
        <time>2022-11-16T15:07:29Z</time>
      </trkpt>
      <trkpt lat="50.01351" lon="2.3738">
        <ele>129.1</ele>
        <time>2022-11-16T15:07:30Z</time>
      </trkpt>
      <trkpt lat="50.01352" lon="2.37382">
        <ele>129.1</ele>
        <time>2022-11-16T15:07:32Z</time>
      </trkpt>
      <trkpt lat="50.01353" lon="2.37383">
        <ele>129.1</ele>
        <time>2022-11-16T15:07:33Z</time>
      </trkpt>
      <trkpt lat="50.01353" lon="2.37384">
        <ele>129.1</ele>
        <time>2022-11-16T15:07:34Z</time>
      </trkpt>
      <trkpt lat="50.01354" lon="2.37385">
        <ele>129.1</ele>
        <time>2022-11-16T15:07:35Z</time>
      </trkpt>
      <trkpt lat="50.01355" lon="2.37386">
        <ele>129.1</ele>
        <time>2022-11-16T15:07:36Z</time>
      </trkpt>
      <trkpt lat="50.01356" lon="2.37387">
        <ele>129.1</ele>
        <time>2022-11-16T15:07:37Z</time>
      </trkpt>
      <trkpt lat="50.01357" lon="2.37388">
        <ele>129.1</ele>
        <time>2022-11-16T15:07:39Z</time>
      </trkpt>
      <trkpt lat="50.01357" lon="2.37389">
        <ele>129.1</ele>
        <time>2022-11-16T15:07:40Z</time>
      </trkpt>
      <trkpt lat="50.01358" lon="2.37391">
        <ele>129.1</ele>
        <time>2022-11-16T15:07:41Z</time>
      </trkpt>
      <trkpt lat="50.01358" lon="2.37392">
        <ele>129.1</ele>
        <time>2022-11-16T15:07:42Z</time>
      </trkpt>
      <trkpt lat="50.01359" lon="2.37394">
        <ele>129.1</ele>
        <time>2022-11-16T15:07:43Z</time>
      </trkpt>
      <trkpt lat="50.0136" lon="2.37395">
        <ele>129.1</ele>
        <time>2022-11-16T15:07:44Z</time>
      </trkpt>
      <trkpt lat="50.0136" lon="2.37397">
        <ele>129.1</ele>
        <time>2022-11-16T15:07:46Z</time>
      </trkpt>
      <trkpt lat="50.01361" lon="2.37398">
        <ele>129.1</ele>
        <time>2022-11-16T15:07:47Z</time>
      </trkpt>
      <trkpt lat="50.01361" lon="2.37399">
        <ele>129.1</ele>
        <time>2022-11-16T15:07:48Z</time>
      </trkpt>
      <trkpt lat="50.01362" lon="2.37401">
        <ele>129.2</ele>
        <time>2022-11-16T15:07:49Z</time>
      </trkpt>
      <trkpt lat="50.01363" lon="2.37402">
        <ele>129.2</ele>
        <time>2022-11-16T15:07:50Z</time>
      </trkpt>
      <trkpt lat="50.01364" lon="2.37404">
        <ele>129.2</ele>
        <time>2022-11-16T15:07:52Z</time>
      </trkpt>
      <trkpt lat="50.01364" lon="2.37406">
        <ele>129.2</ele>
        <time>2022-11-16T15:07:53Z</time>
      </trkpt>
      <trkpt lat="50.01364" lon="2.37407">
        <ele>129.2</ele>
        <time>2022-11-16T15:07:54Z</time>
      </trkpt>
      <trkpt lat="50.01365" lon="2.37408">
        <ele>129.2</ele>
        <time>2022-11-16T15:07:55Z</time>
      </trkpt>
      <trkpt lat="50.01366" lon="2.37409">
        <ele>129.2</ele>
        <time>2022-11-16T15:07:57Z</time>
      </trkpt>
      <trkpt lat="50.01366" lon="2.37409">
        <ele>129.2</ele>
        <time>2022-11-16T15:07:58Z</time>
      </trkpt>
      <trkpt lat="50.01367" lon="2.3741">
        <ele>129.2</ele>
        <time>2022-11-16T15:07:59Z</time>
      </trkpt>
      <trkpt lat="50.01368" lon="2.37411">
        <ele>129.3</ele>
        <time>2022-11-16T15:08:00Z</time>
      </trkpt>
      <trkpt lat="50.01369" lon="2.37412">
        <ele>129.3</ele>
        <time>2022-11-16T15:08:01Z</time>
      </trkpt>
      <trkpt lat="50.01369" lon="2.37413">
        <ele>129.3</ele>
        <time>2022-11-16T15:08:02Z</time>
      </trkpt>
      <trkpt lat="50.0137" lon="2.37413">
        <ele>129.3</ele>
        <time>2022-11-16T15:08:03Z</time>
      </trkpt>
      <trkpt lat="50.01371" lon="2.37414">
        <ele>129.3</ele>
        <time>2022-11-16T15:08:04Z</time>
      </trkpt>
      <trkpt lat="50.01372" lon="2.37414">
        <ele>129.3</ele>
        <time>2022-11-16T15:08:06Z</time>
      </trkpt>
      <trkpt lat="50.01373" lon="2.37415">
        <ele>129.3</ele>
        <time>2022-11-16T15:08:07Z</time>
      </trkpt>
      <trkpt lat="50.01374" lon="2.37416">
        <ele>129.4</ele>
        <time>2022-11-16T15:08:08Z</time>
      </trkpt>
      <trkpt lat="50.01375" lon="2.37417">
        <ele>129.4</ele>
        <time>2022-11-16T15:08:10Z</time>
      </trkpt>
      <trkpt lat="50.01376" lon="2.37418">
        <ele>129.4</ele>
        <time>2022-11-16T15:08:11Z</time>
      </trkpt>
      <trkpt lat="50.01376" lon="2.37419">
        <ele>129.4</ele>
        <time>2022-11-16T15:08:12Z</time>
      </trkpt>
      <trkpt lat="50.01377" lon="2.3742">
        <ele>129.4</ele>
        <time>2022-11-16T15:08:13Z</time>
      </trkpt>
      <trkpt lat="50.01378" lon="2.37421">
        <ele>129.5</ele>
        <time>2022-11-16T15:08:14Z</time>
      </trkpt>
      <trkpt lat="50.01378" lon="2.37422">
        <ele>129.4</ele>
        <time>2022-11-16T15:08:16Z</time>
      </trkpt>
      <trkpt lat="50.01378" lon="2.37422">
        <ele>129.4</ele>
        <time>2022-11-16T15:08:17Z</time>
      </trkpt>
      <trkpt lat="50.01378" lon="2.37423">
        <ele>129.4</ele>
        <time>2022-11-16T15:08:18Z</time>
      </trkpt>
      <trkpt lat="50.01378" lon="2.37423">
        <ele>129.4</ele>
        <time>2022-11-16T15:08:19Z</time>
      </trkpt>
      <trkpt lat="50.01378" lon="2.37424">
        <ele>129.4</ele>
        <time>2022-11-16T15:08:20Z</time>
      </trkpt>
      <trkpt lat="50.01377" lon="2.37424">
        <ele>129.4</ele>
        <time>2022-11-16T15:08:21Z</time>
      </trkpt>
      <trkpt lat="50.01377" lon="2.37424">
        <ele>129.4</ele>
        <time>2022-11-16T15:08:22Z</time>
      </trkpt>
      <trkpt lat="50.01377" lon="2.37424">
        <ele>129.4</ele>
        <time>2022-11-16T15:08:23Z</time>
      </trkpt>
      <trkpt lat="50.01377" lon="2.37425">
        <ele>129.4</ele>
        <time>2022-11-16T15:08:24Z</time>
      </trkpt>
      <trkpt lat="50.01377" lon="2.37424">
        <ele>129.3</ele>
        <time>2022-11-16T15:08:25Z</time>
      </trkpt>
      <trkpt lat="50.01377" lon="2.37424">
        <ele>129.3</ele>
        <time>2022-11-16T15:08:26Z</time>
      </trkpt>
      <trkpt lat="50.01377" lon="2.37424">
        <ele>129.3</ele>
        <time>2022-11-16T15:08:27Z</time>
      </trkpt>
      <trkpt lat="50.01376" lon="2.37424">
        <ele>129.3</ele>
        <time>2022-11-16T15:08:28Z</time>
      </trkpt>
      <trkpt lat="50.01376" lon="2.37424">
        <ele>129.3</ele>
        <time>2022-11-16T15:08:29Z</time>
      </trkpt>
      <trkpt lat="50.01376" lon="2.37424">
        <ele>129.3</ele>
        <time>2022-11-16T15:08:30Z</time>
      </trkpt>
      <trkpt lat="50.01376" lon="2.37424">
        <ele>129.3</ele>
        <time>2022-11-16T15:08:31Z</time>
      </trkpt>
      <trkpt lat="50.01376" lon="2.37424">
        <ele>129.3</ele>
        <time>2022-11-16T15:08:32Z</time>
      </trkpt>
      <trkpt lat="50.01376" lon="2.37424">
        <ele>129.3</ele>
        <time>2022-11-16T15:08:33Z</time>
      </trkpt>
      <trkpt lat="50.01376" lon="2.37424">
        <ele>129.3</ele>
        <time>2022-11-16T15:08:34Z</time>
      </trkpt>
      <trkpt lat="50.01376" lon="2.37424">
        <ele>129.3</ele>
        <time>2022-11-16T15:08:35Z</time>
      </trkpt>
      <trkpt lat="50.01376" lon="2.37423">
        <ele>129.3</ele>
        <time>2022-11-16T15:08:36Z</time>
      </trkpt>
      <trkpt lat="50.01376" lon="2.37423">
        <ele>129.3</ele>
        <time>2022-11-16T15:08:37Z</time>
      </trkpt>
      <trkpt lat="50.01376" lon="2.37423">
        <ele>129.3</ele>
        <time>2022-11-16T15:08:38Z</time>
      </trkpt>
      <trkpt lat="50.01376" lon="2.37423">
        <ele>129.3</ele>
        <time>2022-11-16T15:08:39Z</time>
      </trkpt>
      <trkpt lat="50.01376" lon="2.37423">
        <ele>129.3</ele>
        <time>2022-11-16T15:08:40Z</time>
      </trkpt>
      <trkpt lat="50.01376" lon="2.37423">
        <ele>129.3</ele>
        <time>2022-11-16T15:08:41Z</time>
      </trkpt>
      <trkpt lat="50.01376" lon="2.37423">
        <ele>129.3</ele>
        <time>2022-11-16T15:08:42Z</time>
      </trkpt>
      <trkpt lat="50.01376" lon="2.37423">
        <ele>129.3</ele>
        <time>2022-11-16T15:08:43Z</time>
      </trkpt>
      <trkpt lat="50.01376" lon="2.37423">
        <ele>129.3</ele>
        <time>2022-11-16T15:08:44Z</time>
      </trkpt>
      <trkpt lat="50.01376" lon="2.37423">
        <ele>129.3</ele>
        <time>2022-11-16T15:08:45Z</time>
      </trkpt>
      <trkpt lat="50.01376" lon="2.37423">
        <ele>129.3</ele>
        <time>2022-11-16T15:08:46Z</time>
      </trkpt>
      <trkpt lat="50.01376" lon="2.37423">
        <ele>129.3</ele>
        <time>2022-11-16T15:08:47Z</time>
      </trkpt>
      <trkpt lat="50.01376" lon="2.37423">
        <ele>129.3</ele>
        <time>2022-11-16T15:08:48Z</time>
      </trkpt>
      <trkpt lat="50.01376" lon="2.37423">
        <ele>129.3</ele>
        <time>2022-11-16T15:08:49Z</time>
      </trkpt>
      <trkpt lat="50.01376" lon="2.37423">
        <ele>129.3</ele>
        <time>2022-11-16T15:08:50Z</time>
      </trkpt>
      <trkpt lat="50.01376" lon="2.37423">
        <ele>129.3</ele>
        <time>2022-11-16T15:08:51Z</time>
      </trkpt>
      <trkpt lat="50.01376" lon="2.37424">
        <ele>129.3</ele>
        <time>2022-11-16T15:08:52Z</time>
      </trkpt>
      <trkpt lat="50.01376" lon="2.37424">
        <ele>129.3</ele>
        <time>2022-11-16T15:08:53Z</time>
      </trkpt>
      <trkpt lat="50.01376" lon="2.37426">
        <ele>129.3</ele>
        <time>2022-11-16T15:08:54Z</time>
      </trkpt>
      <trkpt lat="50.01376" lon="2.37427">
        <ele>129.3</ele>
        <time>2022-11-16T15:08:55Z</time>
      </trkpt>
      <trkpt lat="50.01376" lon="2.37429">
        <ele>129.2</ele>
        <time>2022-11-16T15:08:57Z</time>
      </trkpt>
      <trkpt lat="50.01375" lon="2.37431">
        <ele>129.2</ele>
        <time>2022-11-16T15:08:58Z</time>
      </trkpt>
      <trkpt lat="50.01375" lon="2.37432">
        <ele>129.2</ele>
        <time>2022-11-16T15:08:59Z</time>
      </trkpt>
      <trkpt lat="50.01375" lon="2.37434">
        <ele>129.2</ele>
        <time>2022-11-16T15:09:00Z</time>
      </trkpt>
      <trkpt lat="50.01375" lon="2.37436">
        <ele>129.2</ele>
        <time>2022-11-16T15:09:01Z</time>
      </trkpt>
      <trkpt lat="50.01375" lon="2.37438">
        <ele>129.2</ele>
        <time>2022-11-16T15:09:02Z</time>
      </trkpt>
      <trkpt lat="50.01375" lon="2.3744">
        <ele>129.2</ele>
        <time>2022-11-16T15:09:04Z</time>
      </trkpt>
      <trkpt lat="50.01375" lon="2.37441">
        <ele>129.1</ele>
        <time>2022-11-16T15:09:05Z</time>
      </trkpt>
      <trkpt lat="50.01374" lon="2.37444">
        <ele>129.1</ele>
        <time>2022-11-16T15:09:06Z</time>
      </trkpt>
      <trkpt lat="50.01374" lon="2.37445">
        <ele>129.1</ele>
        <time>2022-11-16T15:09:07Z</time>
      </trkpt>
      <trkpt lat="50.01374" lon="2.37447">
        <ele>129.1</ele>
        <time>2022-11-16T15:09:08Z</time>
      </trkpt>
      <trkpt lat="50.01374" lon="2.37449">
        <ele>129.1</ele>
        <time>2022-11-16T15:09:10Z</time>
      </trkpt>
      <trkpt lat="50.01374" lon="2.3745">
        <ele>129.1</ele>
        <time>2022-11-16T15:09:11Z</time>
      </trkpt>
      <trkpt lat="50.01373" lon="2.37451">
        <ele>129.1</ele>
        <time>2022-11-16T15:09:12Z</time>
      </trkpt>
      <trkpt lat="50.01373" lon="2.37452">
        <ele>129.1</ele>
        <time>2022-11-16T15:09:13Z</time>
      </trkpt>
      <trkpt lat="50.01373" lon="2.37454">
        <ele>129.1</ele>
        <time>2022-11-16T15:09:14Z</time>
      </trkpt>
      <trkpt lat="50.01372" lon="2.37457">
        <ele>129.1</ele>
        <time>2022-11-16T15:09:16Z</time>
      </trkpt>
      <trkpt lat="50.01371" lon="2.37459">
        <ele>129.1</ele>
        <time>2022-11-16T15:09:17Z</time>
      </trkpt>
      <trkpt lat="50.01371" lon="2.3746">
        <ele>129.1</ele>
        <time>2022-11-16T15:09:18Z</time>
      </trkpt>
      <trkpt lat="50.01371" lon="2.37461">
        <ele>129.1</ele>
        <time>2022-11-16T15:09:19Z</time>
      </trkpt>
      <trkpt lat="50.0137" lon="2.37462">
        <ele>129.1</ele>
        <time>2022-11-16T15:09:20Z</time>
      </trkpt>
      <trkpt lat="50.0137" lon="2.37464">
        <ele>129.1</ele>
        <time>2022-11-16T15:09:21Z</time>
      </trkpt>
      <trkpt lat="50.0137" lon="2.37466">
        <ele>129.1</ele>
        <time>2022-11-16T15:09:23Z</time>
      </trkpt>
      <trkpt lat="50.0137" lon="2.37467">
        <ele>129.1</ele>
        <time>2022-11-16T15:09:24Z</time>
      </trkpt>
      <trkpt lat="50.01369" lon="2.37469">
        <ele>129.1</ele>
        <time>2022-11-16T15:09:25Z</time>
      </trkpt>
      <trkpt lat="50.01369" lon="2.3747">
        <ele>129</ele>
        <time>2022-11-16T15:09:26Z</time>
      </trkpt>
      <trkpt lat="50.01369" lon="2.37471">
        <ele>129</ele>
        <time>2022-11-16T15:09:27Z</time>
      </trkpt>
      <trkpt lat="50.01369" lon="2.37473">
        <ele>129</ele>
        <time>2022-11-16T15:09:28Z</time>
      </trkpt>
      <trkpt lat="50.01369" lon="2.37476">
        <ele>129</ele>
        <time>2022-11-16T15:09:30Z</time>
      </trkpt>
      <trkpt lat="50.01369" lon="2.37478">
        <ele>129</ele>
        <time>2022-11-16T15:09:31Z</time>
      </trkpt>
      <trkpt lat="50.01369" lon="2.37479">
        <ele>129</ele>
        <time>2022-11-16T15:09:32Z</time>
      </trkpt>
      <trkpt lat="50.01368" lon="2.37482">
        <ele>129</ele>
        <time>2022-11-16T15:09:33Z</time>
      </trkpt>
      <trkpt lat="50.01368" lon="2.37485">
        <ele>128.9</ele>
        <time>2022-11-16T15:09:34Z</time>
      </trkpt>
      <trkpt lat="50.01368" lon="2.37486">
        <ele>128.9</ele>
        <time>2022-11-16T15:09:35Z</time>
      </trkpt>
      <trkpt lat="50.01368" lon="2.37488">
        <ele>128.9</ele>
        <time>2022-11-16T15:09:36Z</time>
      </trkpt>
      <trkpt lat="50.01368" lon="2.3749">
        <ele>128.9</ele>
        <time>2022-11-16T15:09:38Z</time>
      </trkpt>
      <trkpt lat="50.01368" lon="2.37491">
        <ele>128.9</ele>
        <time>2022-11-16T15:09:39Z</time>
      </trkpt>
      <trkpt lat="50.01367" lon="2.37493">
        <ele>128.9</ele>
        <time>2022-11-16T15:09:40Z</time>
      </trkpt>
      <trkpt lat="50.01367" lon="2.37496">
        <ele>128.8</ele>
        <time>2022-11-16T15:09:41Z</time>
      </trkpt>
      <trkpt lat="50.01367" lon="2.37498">
        <ele>128.8</ele>
        <time>2022-11-16T15:09:42Z</time>
      </trkpt>
      <trkpt lat="50.01367" lon="2.37499">
        <ele>128.8</ele>
        <time>2022-11-16T15:09:43Z</time>
      </trkpt>
      <trkpt lat="50.01367" lon="2.37501">
        <ele>128.8</ele>
        <time>2022-11-16T15:09:44Z</time>
      </trkpt>
      <trkpt lat="50.01367" lon="2.37503">
        <ele>128.8</ele>
        <time>2022-11-16T15:09:46Z</time>
      </trkpt>
      <trkpt lat="50.01367" lon="2.37505">
        <ele>128.8</ele>
        <time>2022-11-16T15:09:47Z</time>
      </trkpt>
      <trkpt lat="50.01367" lon="2.37506">
        <ele>128.8</ele>
        <time>2022-11-16T15:09:48Z</time>
      </trkpt>
      <trkpt lat="50.01367" lon="2.37508">
        <ele>128.7</ele>
        <time>2022-11-16T15:09:49Z</time>
      </trkpt>
      <trkpt lat="50.01367" lon="2.3751">
        <ele>128.7</ele>
        <time>2022-11-16T15:09:50Z</time>
      </trkpt>
      <trkpt lat="50.01367" lon="2.37512">
        <ele>128.7</ele>
        <time>2022-11-16T15:09:51Z</time>
      </trkpt>
      <trkpt lat="50.01367" lon="2.37514">
        <ele>128.7</ele>
        <time>2022-11-16T15:09:52Z</time>
      </trkpt>
      <trkpt lat="50.01366" lon="2.37516">
        <ele>128.7</ele>
        <time>2022-11-16T15:09:54Z</time>
      </trkpt>
      <trkpt lat="50.01366" lon="2.37518">
        <ele>128.7</ele>
        <time>2022-11-16T15:09:55Z</time>
      </trkpt>
      <trkpt lat="50.01366" lon="2.37519">
        <ele>128.7</ele>
        <time>2022-11-16T15:09:56Z</time>
      </trkpt>
      <trkpt lat="50.01366" lon="2.37521">
        <ele>128.6</ele>
        <time>2022-11-16T15:09:57Z</time>
      </trkpt>
      <trkpt lat="50.01366" lon="2.37522">
        <ele>128.6</ele>
        <time>2022-11-16T15:09:58Z</time>
      </trkpt>
      <trkpt lat="50.01366" lon="2.37524">
        <ele>128.6</ele>
        <time>2022-11-16T15:09:59Z</time>
      </trkpt>
      <trkpt lat="50.01365" lon="2.37526">
        <ele>128.6</ele>
        <time>2022-11-16T15:10:00Z</time>
      </trkpt>
      <trkpt lat="50.01365" lon="2.37528">
        <ele>128.6</ele>
        <time>2022-11-16T15:10:01Z</time>
      </trkpt>
      <trkpt lat="50.01365" lon="2.3753">
        <ele>128.6</ele>
        <time>2022-11-16T15:10:03Z</time>
      </trkpt>
      <trkpt lat="50.01365" lon="2.37531">
        <ele>128.6</ele>
        <time>2022-11-16T15:10:04Z</time>
      </trkpt>
      <trkpt lat="50.01364" lon="2.37533">
        <ele>128.6</ele>
        <time>2022-11-16T15:10:05Z</time>
      </trkpt>
      <trkpt lat="50.01364" lon="2.37535">
        <ele>128.6</ele>
        <time>2022-11-16T15:10:06Z</time>
      </trkpt>
      <trkpt lat="50.01364" lon="2.37536">
        <ele>128.6</ele>
        <time>2022-11-16T15:10:07Z</time>
      </trkpt>
      <trkpt lat="50.01364" lon="2.37538">
        <ele>128.6</ele>
        <time>2022-11-16T15:10:08Z</time>
      </trkpt>
      <trkpt lat="50.01364" lon="2.3754">
        <ele>128.6</ele>
        <time>2022-11-16T15:10:09Z</time>
      </trkpt>
      <trkpt lat="50.01364" lon="2.37542">
        <ele>128.6</ele>
        <time>2022-11-16T15:10:11Z</time>
      </trkpt>
      <trkpt lat="50.01364" lon="2.37544">
        <ele>128.5</ele>
        <time>2022-11-16T15:10:12Z</time>
      </trkpt>
      <trkpt lat="50.01363" lon="2.37545">
        <ele>128.5</ele>
        <time>2022-11-16T15:10:13Z</time>
      </trkpt>
      <trkpt lat="50.01363" lon="2.37547">
        <ele>128.5</ele>
        <time>2022-11-16T15:10:14Z</time>
      </trkpt>
      <trkpt lat="50.01362" lon="2.3755">
        <ele>128.5</ele>
        <time>2022-11-16T15:10:15Z</time>
      </trkpt>
      <trkpt lat="50.01362" lon="2.37551">
        <ele>128.5</ele>
        <time>2022-11-16T15:10:16Z</time>
      </trkpt>
      <trkpt lat="50.01362" lon="2.37553">
        <ele>128.5</ele>
        <time>2022-11-16T15:10:17Z</time>
      </trkpt>
      <trkpt lat="50.01362" lon="2.37554">
        <ele>128.5</ele>
        <time>2022-11-16T15:10:18Z</time>
      </trkpt>
      <trkpt lat="50.01362" lon="2.37556">
        <ele>128.5</ele>
        <time>2022-11-16T15:10:20Z</time>
      </trkpt>
      <trkpt lat="50.01362" lon="2.37558">
        <ele>128.5</ele>
        <time>2022-11-16T15:10:21Z</time>
      </trkpt>
      <trkpt lat="50.01361" lon="2.37559">
        <ele>128.5</ele>
        <time>2022-11-16T15:10:22Z</time>
      </trkpt>
      <trkpt lat="50.01361" lon="2.37561">
        <ele>128.4</ele>
        <time>2022-11-16T15:10:23Z</time>
      </trkpt>
      <trkpt lat="50.0136" lon="2.37563">
        <ele>128.4</ele>
        <time>2022-11-16T15:10:24Z</time>
      </trkpt>
      <trkpt lat="50.0136" lon="2.37565">
        <ele>128.4</ele>
        <time>2022-11-16T15:10:25Z</time>
      </trkpt>
      <trkpt lat="50.0136" lon="2.37567">
        <ele>128.4</ele>
        <time>2022-11-16T15:10:26Z</time>
      </trkpt>
      <trkpt lat="50.0136" lon="2.37568">
        <ele>128.4</ele>
        <time>2022-11-16T15:10:28Z</time>
      </trkpt>
      <trkpt lat="50.01359" lon="2.3757">
        <ele>128.3</ele>
        <time>2022-11-16T15:10:29Z</time>
      </trkpt>
      <trkpt lat="50.01359" lon="2.37571">
        <ele>128.3</ele>
        <time>2022-11-16T15:10:30Z</time>
      </trkpt>
      <trkpt lat="50.01359" lon="2.37573">
        <ele>128.3</ele>
        <time>2022-11-16T15:10:31Z</time>
      </trkpt>
      <trkpt lat="50.01359" lon="2.37576">
        <ele>128.3</ele>
        <time>2022-11-16T15:10:32Z</time>
      </trkpt>
      <trkpt lat="50.01358" lon="2.37577">
        <ele>128.2</ele>
        <time>2022-11-16T15:10:33Z</time>
      </trkpt>
      <trkpt lat="50.01358" lon="2.37578">
        <ele>128.2</ele>
        <time>2022-11-16T15:10:34Z</time>
      </trkpt>
      <trkpt lat="50.01358" lon="2.37582">
        <ele>128.2</ele>
        <time>2022-11-16T15:10:35Z</time>
      </trkpt>
      <trkpt lat="50.01357" lon="2.37584">
        <ele>128.2</ele>
        <time>2022-11-16T15:10:38Z</time>
      </trkpt>
      <trkpt lat="50.01357" lon="2.37586">
        <ele>128.1</ele>
        <time>2022-11-16T15:10:39Z</time>
      </trkpt>
      <trkpt lat="50.01357" lon="2.37588">
        <ele>128.1</ele>
        <time>2022-11-16T15:10:40Z</time>
      </trkpt>
      <trkpt lat="50.01357" lon="2.3759">
        <ele>128.1</ele>
        <time>2022-11-16T15:10:41Z</time>
      </trkpt>
      <trkpt lat="50.01357" lon="2.37593">
        <ele>128</ele>
        <time>2022-11-16T15:10:42Z</time>
      </trkpt>
      <trkpt lat="50.01356" lon="2.37594">
        <ele>128</ele>
        <time>2022-11-16T15:10:43Z</time>
      </trkpt>
      <trkpt lat="50.01356" lon="2.37595">
        <ele>128</ele>
        <time>2022-11-16T15:10:44Z</time>
      </trkpt>
      <trkpt lat="50.01356" lon="2.37597">
        <ele>128</ele>
        <time>2022-11-16T15:10:46Z</time>
      </trkpt>
      <trkpt lat="50.01356" lon="2.37599">
        <ele>128</ele>
        <time>2022-11-16T15:10:47Z</time>
      </trkpt>
      <trkpt lat="50.01356" lon="2.376">
        <ele>128</ele>
        <time>2022-11-16T15:10:48Z</time>
      </trkpt>
      <trkpt lat="50.01356" lon="2.37602">
        <ele>127.9</ele>
        <time>2022-11-16T15:10:49Z</time>
      </trkpt>
      <trkpt lat="50.01356" lon="2.37604">
        <ele>127.9</ele>
        <time>2022-11-16T15:10:50Z</time>
      </trkpt>
      <trkpt lat="50.01355" lon="2.37606">
        <ele>127.9</ele>
        <time>2022-11-16T15:10:51Z</time>
      </trkpt>
      <trkpt lat="50.01355" lon="2.37607">
        <ele>127.9</ele>
        <time>2022-11-16T15:10:53Z</time>
      </trkpt>
      <trkpt lat="50.01355" lon="2.37609">
        <ele>127.9</ele>
        <time>2022-11-16T15:10:54Z</time>
      </trkpt>
      <trkpt lat="50.01355" lon="2.3761">
        <ele>127.9</ele>
        <time>2022-11-16T15:10:55Z</time>
      </trkpt>
      <trkpt lat="50.01355" lon="2.37612">
        <ele>127.9</ele>
        <time>2022-11-16T15:10:56Z</time>
      </trkpt>
      <trkpt lat="50.01354" lon="2.37613">
        <ele>127.9</ele>
        <time>2022-11-16T15:10:57Z</time>
      </trkpt>
      <trkpt lat="50.01354" lon="2.37615">
        <ele>127.8</ele>
        <time>2022-11-16T15:10:58Z</time>
      </trkpt>
      <trkpt lat="50.01354" lon="2.37618">
        <ele>127.8</ele>
        <time>2022-11-16T15:10:59Z</time>
      </trkpt>
      <trkpt lat="50.01354" lon="2.3762">
        <ele>127.8</ele>
        <time>2022-11-16T15:11:01Z</time>
      </trkpt>
      <trkpt lat="50.01353" lon="2.37621">
        <ele>127.8</ele>
        <time>2022-11-16T15:11:02Z</time>
      </trkpt>
      <trkpt lat="50.01353" lon="2.37623">
        <ele>127.8</ele>
        <time>2022-11-16T15:11:03Z</time>
      </trkpt>
      <trkpt lat="50.01353" lon="2.37624">
        <ele>127.8</ele>
        <time>2022-11-16T15:11:04Z</time>
      </trkpt>
      <trkpt lat="50.01353" lon="2.37626">
        <ele>127.8</ele>
        <time>2022-11-16T15:11:05Z</time>
      </trkpt>
      <trkpt lat="50.01352" lon="2.37629">
        <ele>127.7</ele>
        <time>2022-11-16T15:11:06Z</time>
      </trkpt>
      <trkpt lat="50.01352" lon="2.37631">
        <ele>127.7</ele>
        <time>2022-11-16T15:11:08Z</time>
      </trkpt>
      <trkpt lat="50.01352" lon="2.37632">
        <ele>127.7</ele>
        <time>2022-11-16T15:11:09Z</time>
      </trkpt>
      <trkpt lat="50.01352" lon="2.37633">
        <ele>127.7</ele>
        <time>2022-11-16T15:11:10Z</time>
      </trkpt>
      <trkpt lat="50.01352" lon="2.37635">
        <ele>127.7</ele>
        <time>2022-11-16T15:11:11Z</time>
      </trkpt>
      <trkpt lat="50.01351" lon="2.37637">
        <ele>127.7</ele>
        <time>2022-11-16T15:11:12Z</time>
      </trkpt>
      <trkpt lat="50.01351" lon="2.37639">
        <ele>127.7</ele>
        <time>2022-11-16T15:11:13Z</time>
      </trkpt>
      <trkpt lat="50.01351" lon="2.37641">
        <ele>127.7</ele>
        <time>2022-11-16T15:11:14Z</time>
      </trkpt>
      <trkpt lat="50.01351" lon="2.37643">
        <ele>127.7</ele>
        <time>2022-11-16T15:11:16Z</time>
      </trkpt>
      <trkpt lat="50.01351" lon="2.37645">
        <ele>127.7</ele>
        <time>2022-11-16T15:11:17Z</time>
      </trkpt>
      <trkpt lat="50.01351" lon="2.37646">
        <ele>127.7</ele>
        <time>2022-11-16T15:11:18Z</time>
      </trkpt>
      <trkpt lat="50.0135" lon="2.37648">
        <ele>127.7</ele>
        <time>2022-11-16T15:11:19Z</time>
      </trkpt>
      <trkpt lat="50.0135" lon="2.37651">
        <ele>127.7</ele>
        <time>2022-11-16T15:11:20Z</time>
      </trkpt>
      <trkpt lat="50.0135" lon="2.37652">
        <ele>127.7</ele>
        <time>2022-11-16T15:11:21Z</time>
      </trkpt>
      <trkpt lat="50.0135" lon="2.37653">
        <ele>127.7</ele>
        <time>2022-11-16T15:11:22Z</time>
      </trkpt>
      <trkpt lat="50.01349" lon="2.37657">
        <ele>127.7</ele>
        <time>2022-11-16T15:11:23Z</time>
      </trkpt>
      <trkpt lat="50.01349" lon="2.37658">
        <ele>127.7</ele>
        <time>2022-11-16T15:11:25Z</time>
      </trkpt>
      <trkpt lat="50.01348" lon="2.3766">
        <ele>127.7</ele>
        <time>2022-11-16T15:11:26Z</time>
      </trkpt>
      <trkpt lat="50.01348" lon="2.37661">
        <ele>127.7</ele>
        <time>2022-11-16T15:11:27Z</time>
      </trkpt>
      <trkpt lat="50.01348" lon="2.37663">
        <ele>127.7</ele>
        <time>2022-11-16T15:11:28Z</time>
      </trkpt>
      <trkpt lat="50.01347" lon="2.37666">
        <ele>127.7</ele>
        <time>2022-11-16T15:11:29Z</time>
      </trkpt>
      <trkpt lat="50.01347" lon="2.37667">
        <ele>127.7</ele>
        <time>2022-11-16T15:11:30Z</time>
      </trkpt>
      <trkpt lat="50.01347" lon="2.37669">
        <ele>127.7</ele>
        <time>2022-11-16T15:11:31Z</time>
      </trkpt>
      <trkpt lat="50.01346" lon="2.37671">
        <ele>127.7</ele>
        <time>2022-11-16T15:11:32Z</time>
      </trkpt>
      <trkpt lat="50.01346" lon="2.37673">
        <ele>127.7</ele>
        <time>2022-11-16T15:11:34Z</time>
      </trkpt>
      <trkpt lat="50.01346" lon="2.37674">
        <ele>127.7</ele>
        <time>2022-11-16T15:11:35Z</time>
      </trkpt>
      <trkpt lat="50.01346" lon="2.37675">
        <ele>127.7</ele>
        <time>2022-11-16T15:11:36Z</time>
      </trkpt>
      <trkpt lat="50.01345" lon="2.37677">
        <ele>127.7</ele>
        <time>2022-11-16T15:11:37Z</time>
      </trkpt>
      <trkpt lat="50.01345" lon="2.37679">
        <ele>127.7</ele>
        <time>2022-11-16T15:11:38Z</time>
      </trkpt>
      <trkpt lat="50.01345" lon="2.37682">
        <ele>127.7</ele>
        <time>2022-11-16T15:11:39Z</time>
      </trkpt>
      <trkpt lat="50.01345" lon="2.37683">
        <ele>127.7</ele>
        <time>2022-11-16T15:11:40Z</time>
      </trkpt>
      <trkpt lat="50.01345" lon="2.37685">
        <ele>127.6</ele>
        <time>2022-11-16T15:11:41Z</time>
      </trkpt>
      <trkpt lat="50.01344" lon="2.37686">
        <ele>127.6</ele>
        <time>2022-11-16T15:11:43Z</time>
      </trkpt>
      <trkpt lat="50.01344" lon="2.37688">
        <ele>127.6</ele>
        <time>2022-11-16T15:11:44Z</time>
      </trkpt>
      <trkpt lat="50.01344" lon="2.37689">
        <ele>127.6</ele>
        <time>2022-11-16T15:11:45Z</time>
      </trkpt>
      <trkpt lat="50.01343" lon="2.37692">
        <ele>127.6</ele>
        <time>2022-11-16T15:11:46Z</time>
      </trkpt>
      <trkpt lat="50.01343" lon="2.37694">
        <ele>127.6</ele>
        <time>2022-11-16T15:11:47Z</time>
      </trkpt>
      <trkpt lat="50.01343" lon="2.37695">
        <ele>127.6</ele>
        <time>2022-11-16T15:11:48Z</time>
      </trkpt>
      <trkpt lat="50.01343" lon="2.37698">
        <ele>127.6</ele>
        <time>2022-11-16T15:11:49Z</time>
      </trkpt>
      <trkpt lat="50.01343" lon="2.377">
        <ele>127.6</ele>
        <time>2022-11-16T15:11:50Z</time>
      </trkpt>
      <trkpt lat="50.01342" lon="2.37701">
        <ele>127.6</ele>
        <time>2022-11-16T15:11:51Z</time>
      </trkpt>
      <trkpt lat="50.01342" lon="2.37703">
        <ele>127.6</ele>
        <time>2022-11-16T15:11:53Z</time>
      </trkpt>
      <trkpt lat="50.01342" lon="2.37704">
        <ele>127.6</ele>
        <time>2022-11-16T15:11:54Z</time>
      </trkpt>
      <trkpt lat="50.01342" lon="2.37706">
        <ele>127.5</ele>
        <time>2022-11-16T15:11:55Z</time>
      </trkpt>
      <trkpt lat="50.01342" lon="2.37707">
        <ele>127.5</ele>
        <time>2022-11-16T15:11:56Z</time>
      </trkpt>
      <trkpt lat="50.01342" lon="2.37709">
        <ele>127.5</ele>
        <time>2022-11-16T15:11:57Z</time>
      </trkpt>
      <trkpt lat="50.01342" lon="2.3771">
        <ele>127.5</ele>
        <time>2022-11-16T15:11:58Z</time>
      </trkpt>
      <trkpt lat="50.01343" lon="2.37712">
        <ele>127.5</ele>
        <time>2022-11-16T15:11:59Z</time>
      </trkpt>
      <trkpt lat="50.01343" lon="2.37713">
        <ele>127.5</ele>
        <time>2022-11-16T15:12:01Z</time>
      </trkpt>
      <trkpt lat="50.01343" lon="2.37715">
        <ele>127.5</ele>
        <time>2022-11-16T15:12:02Z</time>
      </trkpt>
      <trkpt lat="50.01343" lon="2.37717">
        <ele>127.5</ele>
        <time>2022-11-16T15:12:03Z</time>
      </trkpt>
      <trkpt lat="50.01343" lon="2.37718">
        <ele>127.5</ele>
        <time>2022-11-16T15:12:04Z</time>
      </trkpt>
      <trkpt lat="50.01343" lon="2.3772">
        <ele>127.5</ele>
        <time>2022-11-16T15:12:05Z</time>
      </trkpt>
      <trkpt lat="50.01343" lon="2.37722">
        <ele>127.5</ele>
        <time>2022-11-16T15:12:06Z</time>
      </trkpt>
      <trkpt lat="50.01342" lon="2.37724">
        <ele>127.5</ele>
        <time>2022-11-16T15:12:07Z</time>
      </trkpt>
      <trkpt lat="50.01342" lon="2.37726">
        <ele>127.5</ele>
        <time>2022-11-16T15:12:09Z</time>
      </trkpt>
      <trkpt lat="50.01342" lon="2.37728">
        <ele>127.5</ele>
        <time>2022-11-16T15:12:10Z</time>
      </trkpt>
      <trkpt lat="50.01342" lon="2.37729">
        <ele>127.5</ele>
        <time>2022-11-16T15:12:11Z</time>
      </trkpt>
      <trkpt lat="50.01341" lon="2.37731">
        <ele>127.5</ele>
        <time>2022-11-16T15:12:12Z</time>
      </trkpt>
      <trkpt lat="50.01341" lon="2.37733">
        <ele>127.5</ele>
        <time>2022-11-16T15:12:13Z</time>
      </trkpt>
      <trkpt lat="50.01341" lon="2.37735">
        <ele>127.5</ele>
        <time>2022-11-16T15:12:15Z</time>
      </trkpt>
      <trkpt lat="50.0134" lon="2.37736">
        <ele>127.4</ele>
        <time>2022-11-16T15:12:16Z</time>
      </trkpt>
      <trkpt lat="50.0134" lon="2.37738">
        <ele>127.4</ele>
        <time>2022-11-16T15:12:17Z</time>
      </trkpt>
      <trkpt lat="50.0134" lon="2.37739">
        <ele>127.4</ele>
        <time>2022-11-16T15:12:18Z</time>
      </trkpt>
      <trkpt lat="50.01339" lon="2.37743">
        <ele>127.4</ele>
        <time>2022-11-16T15:12:19Z</time>
      </trkpt>
      <trkpt lat="50.01339" lon="2.37744">
        <ele>127.4</ele>
        <time>2022-11-16T15:12:20Z</time>
      </trkpt>
      <trkpt lat="50.01339" lon="2.37745">
        <ele>127.4</ele>
        <time>2022-11-16T15:12:21Z</time>
      </trkpt>
      <trkpt lat="50.01339" lon="2.37747">
        <ele>127.4</ele>
        <time>2022-11-16T15:12:23Z</time>
      </trkpt>
      <trkpt lat="50.01338" lon="2.37749">
        <ele>127.4</ele>
        <time>2022-11-16T15:12:24Z</time>
      </trkpt>
      <trkpt lat="50.01338" lon="2.3775">
        <ele>127.4</ele>
        <time>2022-11-16T15:12:25Z</time>
      </trkpt>
      <trkpt lat="50.01338" lon="2.37752">
        <ele>127.4</ele>
        <time>2022-11-16T15:12:26Z</time>
      </trkpt>
      <trkpt lat="50.01338" lon="2.37753">
        <ele>127.3</ele>
        <time>2022-11-16T15:12:27Z</time>
      </trkpt>
      <trkpt lat="50.01339" lon="2.37755">
        <ele>127.3</ele>
        <time>2022-11-16T15:12:28Z</time>
      </trkpt>
      <trkpt lat="50.01338" lon="2.37757">
        <ele>127.3</ele>
        <time>2022-11-16T15:12:29Z</time>
      </trkpt>
      <trkpt lat="50.01338" lon="2.37759">
        <ele>127.3</ele>
        <time>2022-11-16T15:12:30Z</time>
      </trkpt>
      <trkpt lat="50.01338" lon="2.3776">
        <ele>127.3</ele>
        <time>2022-11-16T15:12:31Z</time>
      </trkpt>
      <trkpt lat="50.01338" lon="2.37763">
        <ele>127.3</ele>
        <time>2022-11-16T15:12:32Z</time>
      </trkpt>
      <trkpt lat="50.01338" lon="2.37764">
        <ele>127.3</ele>
        <time>2022-11-16T15:12:33Z</time>
      </trkpt>
      <trkpt lat="50.01338" lon="2.37765">
        <ele>127.3</ele>
        <time>2022-11-16T15:12:34Z</time>
      </trkpt>
      <trkpt lat="50.01337" lon="2.37768">
        <ele>127.3</ele>
        <time>2022-11-16T15:12:35Z</time>
      </trkpt>
      <trkpt lat="50.01337" lon="2.37769">
        <ele>127.3</ele>
        <time>2022-11-16T15:12:36Z</time>
      </trkpt>
      <trkpt lat="50.01337" lon="2.37771">
        <ele>127.3</ele>
        <time>2022-11-16T15:12:38Z</time>
      </trkpt>
      <trkpt lat="50.01337" lon="2.37772">
        <ele>127.3</ele>
        <time>2022-11-16T15:12:39Z</time>
      </trkpt>
      <trkpt lat="50.01337" lon="2.37773">
        <ele>127.3</ele>
        <time>2022-11-16T15:12:40Z</time>
      </trkpt>
      <trkpt lat="50.01336" lon="2.37775">
        <ele>127.3</ele>
        <time>2022-11-16T15:12:41Z</time>
      </trkpt>
      <trkpt lat="50.01336" lon="2.37778">
        <ele>127.3</ele>
        <time>2022-11-16T15:12:42Z</time>
      </trkpt>
      <trkpt lat="50.01335" lon="2.37779">
        <ele>127.3</ele>
        <time>2022-11-16T15:12:43Z</time>
      </trkpt>
      <trkpt lat="50.01335" lon="2.37781">
        <ele>127.3</ele>
        <time>2022-11-16T15:12:44Z</time>
      </trkpt>
      <trkpt lat="50.01335" lon="2.37782">
        <ele>127.3</ele>
        <time>2022-11-16T15:12:46Z</time>
      </trkpt>
      <trkpt lat="50.01334" lon="2.37784">
        <ele>127.3</ele>
        <time>2022-11-16T15:12:47Z</time>
      </trkpt>
      <trkpt lat="50.01334" lon="2.37785">
        <ele>127.4</ele>
        <time>2022-11-16T15:12:48Z</time>
      </trkpt>
      <trkpt lat="50.01334" lon="2.37787">
        <ele>127.4</ele>
        <time>2022-11-16T15:12:49Z</time>
      </trkpt>
      <trkpt lat="50.01334" lon="2.37788">
        <ele>127.4</ele>
        <time>2022-11-16T15:12:50Z</time>
      </trkpt>
      <trkpt lat="50.01333" lon="2.3779">
        <ele>127.4</ele>
        <time>2022-11-16T15:12:52Z</time>
      </trkpt>
      <trkpt lat="50.01333" lon="2.37791">
        <ele>127.4</ele>
        <time>2022-11-16T15:12:53Z</time>
      </trkpt>
      <trkpt lat="50.01333" lon="2.37792">
        <ele>127.4</ele>
        <time>2022-11-16T15:12:54Z</time>
      </trkpt>
      <trkpt lat="50.01333" lon="2.37793">
        <ele>127.4</ele>
        <time>2022-11-16T15:12:55Z</time>
      </trkpt>
      <trkpt lat="50.01332" lon="2.37795">
        <ele>127.5</ele>
        <time>2022-11-16T15:12:56Z</time>
      </trkpt>
      <trkpt lat="50.01332" lon="2.37796">
        <ele>127.5</ele>
        <time>2022-11-16T15:12:57Z</time>
      </trkpt>
      <trkpt lat="50.01331" lon="2.37799">
        <ele>127.5</ele>
        <time>2022-11-16T15:12:59Z</time>
      </trkpt>
      <trkpt lat="50.01331" lon="2.37801">
        <ele>127.5</ele>
        <time>2022-11-16T15:13:00Z</time>
      </trkpt>
      <trkpt lat="50.0133" lon="2.37802">
        <ele>127.6</ele>
        <time>2022-11-16T15:13:01Z</time>
      </trkpt>
      <trkpt lat="50.0133" lon="2.37803">
        <ele>127.6</ele>
        <time>2022-11-16T15:13:02Z</time>
      </trkpt>
      <trkpt lat="50.01329" lon="2.37805">
        <ele>127.6</ele>
        <time>2022-11-16T15:13:03Z</time>
      </trkpt>
      <trkpt lat="50.01329" lon="2.37807">
        <ele>127.6</ele>
        <time>2022-11-16T15:13:04Z</time>
      </trkpt>
      <trkpt lat="50.01328" lon="2.37809">
        <ele>127.6</ele>
        <time>2022-11-16T15:13:05Z</time>
      </trkpt>
      <trkpt lat="50.01328" lon="2.3781">
        <ele>127.7</ele>
        <time>2022-11-16T15:13:07Z</time>
      </trkpt>
      <trkpt lat="50.01327" lon="2.37812">
        <ele>127.7</ele>
        <time>2022-11-16T15:13:08Z</time>
      </trkpt>
      <trkpt lat="50.01327" lon="2.37813">
        <ele>127.7</ele>
        <time>2022-11-16T15:13:09Z</time>
      </trkpt>
      <trkpt lat="50.01326" lon="2.37813">
        <ele>127.7</ele>
        <time>2022-11-16T15:13:10Z</time>
      </trkpt>
      <trkpt lat="50.01326" lon="2.37814">
        <ele>127.7</ele>
        <time>2022-11-16T15:13:11Z</time>
      </trkpt>
      <trkpt lat="50.01326" lon="2.37816">
        <ele>127.7</ele>
        <time>2022-11-16T15:13:12Z</time>
      </trkpt>
      <trkpt lat="50.01325" lon="2.37817">
        <ele>127.7</ele>
        <time>2022-11-16T15:13:13Z</time>
      </trkpt>
      <trkpt lat="50.01325" lon="2.37818">
        <ele>127.7</ele>
        <time>2022-11-16T15:13:14Z</time>
      </trkpt>
      <trkpt lat="50.01325" lon="2.37819">
        <ele>127.7</ele>
        <time>2022-11-16T15:13:15Z</time>
      </trkpt>
      <trkpt lat="50.01324" lon="2.3782">
        <ele>127.7</ele>
        <time>2022-11-16T15:13:16Z</time>
      </trkpt>
      <trkpt lat="50.01324" lon="2.37822">
        <ele>127.7</ele>
        <time>2022-11-16T15:13:17Z</time>
      </trkpt>
      <trkpt lat="50.01323" lon="2.37823">
        <ele>127.7</ele>
        <time>2022-11-16T15:13:18Z</time>
      </trkpt>
      <trkpt lat="50.01323" lon="2.37825">
        <ele>127.7</ele>
        <time>2022-11-16T15:13:20Z</time>
      </trkpt>
      <trkpt lat="50.01323" lon="2.37826">
        <ele>127.7</ele>
        <time>2022-11-16T15:13:21Z</time>
      </trkpt>
      <trkpt lat="50.01322" lon="2.37827">
        <ele>127.7</ele>
        <time>2022-11-16T15:13:22Z</time>
      </trkpt>
      <trkpt lat="50.01322" lon="2.37828">
        <ele>127.7</ele>
        <time>2022-11-16T15:13:23Z</time>
      </trkpt>
      <trkpt lat="50.01321" lon="2.37829">
        <ele>127.7</ele>
        <time>2022-11-16T15:13:24Z</time>
      </trkpt>
      <trkpt lat="50.01321" lon="2.37831">
        <ele>127.7</ele>
        <time>2022-11-16T15:13:25Z</time>
      </trkpt>
      <trkpt lat="50.0132" lon="2.37832">
        <ele>127.7</ele>
        <time>2022-11-16T15:13:26Z</time>
      </trkpt>
      <trkpt lat="50.01319" lon="2.37833">
        <ele>127.7</ele>
        <time>2022-11-16T15:13:28Z</time>
      </trkpt>
      <trkpt lat="50.01318" lon="2.37835">
        <ele>127.7</ele>
        <time>2022-11-16T15:13:29Z</time>
      </trkpt>
      <trkpt lat="50.01318" lon="2.37836">
        <ele>127.7</ele>
        <time>2022-11-16T15:13:30Z</time>
      </trkpt>
      <trkpt lat="50.01317" lon="2.37837">
        <ele>127.6</ele>
        <time>2022-11-16T15:13:31Z</time>
      </trkpt>
      <trkpt lat="50.01316" lon="2.37838">
        <ele>127.6</ele>
        <time>2022-11-16T15:13:32Z</time>
      </trkpt>
      <trkpt lat="50.01315" lon="2.3784">
        <ele>127.6</ele>
        <time>2022-11-16T15:13:34Z</time>
      </trkpt>
      <trkpt lat="50.01315" lon="2.37841">
        <ele>127.6</ele>
        <time>2022-11-16T15:13:35Z</time>
      </trkpt>
      <trkpt lat="50.01314" lon="2.37843">
        <ele>127.5</ele>
        <time>2022-11-16T15:13:36Z</time>
      </trkpt>
      <trkpt lat="50.01313" lon="2.37845">
        <ele>127.5</ele>
        <time>2022-11-16T15:13:37Z</time>
      </trkpt>
      <trkpt lat="50.01312" lon="2.37846">
        <ele>127.4</ele>
        <time>2022-11-16T15:13:38Z</time>
      </trkpt>
      <trkpt lat="50.01311" lon="2.37847">
        <ele>127.4</ele>
        <time>2022-11-16T15:13:39Z</time>
      </trkpt>
      <trkpt lat="50.0131" lon="2.37849">
        <ele>127.3</ele>
        <time>2022-11-16T15:13:41Z</time>
      </trkpt>
      <trkpt lat="50.01309" lon="2.37851">
        <ele>127.3</ele>
        <time>2022-11-16T15:13:42Z</time>
      </trkpt>
      <trkpt lat="50.01309" lon="2.37853">
        <ele>127.2</ele>
        <time>2022-11-16T15:13:43Z</time>
      </trkpt>
      <trkpt lat="50.01307" lon="2.37855">
        <ele>127.1</ele>
        <time>2022-11-16T15:13:44Z</time>
      </trkpt>
      <trkpt lat="50.01306" lon="2.37856">
        <ele>127</ele>
        <time>2022-11-16T15:13:45Z</time>
      </trkpt>
      <trkpt lat="50.01306" lon="2.37858">
        <ele>127</ele>
        <time>2022-11-16T15:13:47Z</time>
      </trkpt>
      <trkpt lat="50.01305" lon="2.37859">
        <ele>126.9</ele>
        <time>2022-11-16T15:13:48Z</time>
      </trkpt>
      <trkpt lat="50.01305" lon="2.3786">
        <ele>126.9</ele>
        <time>2022-11-16T15:13:49Z</time>
      </trkpt>
      <trkpt lat="50.01304" lon="2.37861">
        <ele>126.8</ele>
        <time>2022-11-16T15:13:50Z</time>
      </trkpt>
      <trkpt lat="50.01303" lon="2.37862">
        <ele>126.8</ele>
        <time>2022-11-16T15:13:51Z</time>
      </trkpt>
      <trkpt lat="50.01302" lon="2.37863">
        <ele>126.7</ele>
        <time>2022-11-16T15:13:52Z</time>
      </trkpt>
      <trkpt lat="50.01301" lon="2.37864">
        <ele>126.7</ele>
        <time>2022-11-16T15:13:53Z</time>
      </trkpt>
      <trkpt lat="50.013" lon="2.37866">
        <ele>126.6</ele>
        <time>2022-11-16T15:13:55Z</time>
      </trkpt>
      <trkpt lat="50.01299" lon="2.37867">
        <ele>126.5</ele>
        <time>2022-11-16T15:13:56Z</time>
      </trkpt>
      <trkpt lat="50.01298" lon="2.37868">
        <ele>126.5</ele>
        <time>2022-11-16T15:13:57Z</time>
      </trkpt>
      <trkpt lat="50.01297" lon="2.3787">
        <ele>126.4</ele>
        <time>2022-11-16T15:13:58Z</time>
      </trkpt>
      <trkpt lat="50.01297" lon="2.37871">
        <ele>126.4</ele>
        <time>2022-11-16T15:13:59Z</time>
      </trkpt>
      <trkpt lat="50.01297" lon="2.37872">
        <ele>126.3</ele>
        <time>2022-11-16T15:14:00Z</time>
      </trkpt>
      <trkpt lat="50.01296" lon="2.37873">
        <ele>126.3</ele>
        <time>2022-11-16T15:14:01Z</time>
      </trkpt>
      <trkpt lat="50.01296" lon="2.37874">
        <ele>126.3</ele>
        <time>2022-11-16T15:14:02Z</time>
      </trkpt>
      <trkpt lat="50.01295" lon="2.37875">
        <ele>126.2</ele>
        <time>2022-11-16T15:14:03Z</time>
      </trkpt>
      <trkpt lat="50.01294" lon="2.37876">
        <ele>126.2</ele>
        <time>2022-11-16T15:14:04Z</time>
      </trkpt>
      <trkpt lat="50.01294" lon="2.37878">
        <ele>126.1</ele>
        <time>2022-11-16T15:14:06Z</time>
      </trkpt>
      <trkpt lat="50.01294" lon="2.37879">
        <ele>126.1</ele>
        <time>2022-11-16T15:14:07Z</time>
      </trkpt>
      <trkpt lat="50.01293" lon="2.3788">
        <ele>126</ele>
        <time>2022-11-16T15:14:08Z</time>
      </trkpt>
      <trkpt lat="50.01293" lon="2.37882">
        <ele>125.9</ele>
        <time>2022-11-16T15:14:09Z</time>
      </trkpt>
      <trkpt lat="50.01292" lon="2.37884">
        <ele>125.9</ele>
        <time>2022-11-16T15:14:10Z</time>
      </trkpt>
      <trkpt lat="50.01292" lon="2.37885">
        <ele>125.8</ele>
        <time>2022-11-16T15:14:11Z</time>
      </trkpt>
      <trkpt lat="50.01291" lon="2.37886">
        <ele>125.8</ele>
        <time>2022-11-16T15:14:12Z</time>
      </trkpt>
      <trkpt lat="50.01291" lon="2.37887">
        <ele>125.7</ele>
        <time>2022-11-16T15:14:13Z</time>
      </trkpt>
      <trkpt lat="50.0129" lon="2.37888">
        <ele>125.7</ele>
        <time>2022-11-16T15:14:15Z</time>
      </trkpt>
      <trkpt lat="50.01289" lon="2.37888">
        <ele>125.6</ele>
        <time>2022-11-16T15:14:16Z</time>
      </trkpt>
      <trkpt lat="50.01289" lon="2.37889">
        <ele>125.6</ele>
        <time>2022-11-16T15:14:17Z</time>
      </trkpt>
      <trkpt lat="50.01288" lon="2.3789">
        <ele>125.5</ele>
        <time>2022-11-16T15:14:18Z</time>
      </trkpt>
      <trkpt lat="50.01287" lon="2.37891">
        <ele>125.5</ele>
        <time>2022-11-16T15:14:19Z</time>
      </trkpt>
      <trkpt lat="50.01286" lon="2.37891">
        <ele>125.4</ele>
        <time>2022-11-16T15:14:20Z</time>
      </trkpt>
      <trkpt lat="50.01285" lon="2.37892">
        <ele>125.4</ele>
        <time>2022-11-16T15:14:21Z</time>
      </trkpt>
      <trkpt lat="50.01284" lon="2.37893">
        <ele>125.3</ele>
        <time>2022-11-16T15:14:23Z</time>
      </trkpt>
      <trkpt lat="50.01283" lon="2.37894">
        <ele>125.3</ele>
        <time>2022-11-16T15:14:24Z</time>
      </trkpt>
      <trkpt lat="50.01282" lon="2.37894">
        <ele>125.2</ele>
        <time>2022-11-16T15:14:25Z</time>
      </trkpt>
      <trkpt lat="50.01281" lon="2.37896">
        <ele>125.2</ele>
        <time>2022-11-16T15:14:26Z</time>
      </trkpt>
      <trkpt lat="50.0128" lon="2.37897">
        <ele>125.1</ele>
        <time>2022-11-16T15:14:27Z</time>
      </trkpt>
      <trkpt lat="50.01279" lon="2.37898">
        <ele>125.1</ele>
        <time>2022-11-16T15:14:29Z</time>
      </trkpt>
      <trkpt lat="50.01278" lon="2.37899">
        <ele>125.1</ele>
        <time>2022-11-16T15:14:30Z</time>
      </trkpt>
      <trkpt lat="50.01278" lon="2.37899">
        <ele>125</ele>
        <time>2022-11-16T15:14:31Z</time>
      </trkpt>
      <trkpt lat="50.01276" lon="2.37899">
        <ele>125</ele>
        <time>2022-11-16T15:14:32Z</time>
      </trkpt>
      <trkpt lat="50.01275" lon="2.379">
        <ele>125</ele>
        <time>2022-11-16T15:14:33Z</time>
      </trkpt>
      <trkpt lat="50.01274" lon="2.37902">
        <ele>124.9</ele>
        <time>2022-11-16T15:14:34Z</time>
      </trkpt>
      <trkpt lat="50.01273" lon="2.37902">
        <ele>124.9</ele>
        <time>2022-11-16T15:14:36Z</time>
      </trkpt>
      <trkpt lat="50.01272" lon="2.37903">
        <ele>124.9</ele>
        <time>2022-11-16T15:14:37Z</time>
      </trkpt>
      <trkpt lat="50.01271" lon="2.37904">
        <ele>124.9</ele>
        <time>2022-11-16T15:14:38Z</time>
      </trkpt>
      <trkpt lat="50.0127" lon="2.37905">
        <ele>124.9</ele>
        <time>2022-11-16T15:14:39Z</time>
      </trkpt>
      <trkpt lat="50.01269" lon="2.37906">
        <ele>124.9</ele>
        <time>2022-11-16T15:14:40Z</time>
      </trkpt>
      <trkpt lat="50.01268" lon="2.37907">
        <ele>124.9</ele>
        <time>2022-11-16T15:14:41Z</time>
      </trkpt>
      <trkpt lat="50.01268" lon="2.37908">
        <ele>124.9</ele>
        <time>2022-11-16T15:14:43Z</time>
      </trkpt>
      <trkpt lat="50.01267" lon="2.37908">
        <ele>124.9</ele>
        <time>2022-11-16T15:14:44Z</time>
      </trkpt>
      <trkpt lat="50.01266" lon="2.37909">
        <ele>124.9</ele>
        <time>2022-11-16T15:14:45Z</time>
      </trkpt>
      <trkpt lat="50.01265" lon="2.3791">
        <ele>124.9</ele>
        <time>2022-11-16T15:14:46Z</time>
      </trkpt>
      <trkpt lat="50.01264" lon="2.37911">
        <ele>124.9</ele>
        <time>2022-11-16T15:14:47Z</time>
      </trkpt>
      <trkpt lat="50.01263" lon="2.37912">
        <ele>124.9</ele>
        <time>2022-11-16T15:14:48Z</time>
      </trkpt>
      <trkpt lat="50.01262" lon="2.37913">
        <ele>124.9</ele>
        <time>2022-11-16T15:14:49Z</time>
      </trkpt>
      <trkpt lat="50.01261" lon="2.37914">
        <ele>124.9</ele>
        <time>2022-11-16T15:14:50Z</time>
      </trkpt>
      <trkpt lat="50.0126" lon="2.37914">
        <ele>124.9</ele>
        <time>2022-11-16T15:14:51Z</time>
      </trkpt>
      <trkpt lat="50.01259" lon="2.37915">
        <ele>124.9</ele>
        <time>2022-11-16T15:14:52Z</time>
      </trkpt>
      <trkpt lat="50.01258" lon="2.37916">
        <ele>124.9</ele>
        <time>2022-11-16T15:14:53Z</time>
      </trkpt>
      <trkpt lat="50.01258" lon="2.37917">
        <ele>124.9</ele>
        <time>2022-11-16T15:14:54Z</time>
      </trkpt>
      <trkpt lat="50.01257" lon="2.37918">
        <ele>124.9</ele>
        <time>2022-11-16T15:14:55Z</time>
      </trkpt>
      <trkpt lat="50.01256" lon="2.37919">
        <ele>124.9</ele>
        <time>2022-11-16T15:14:57Z</time>
      </trkpt>
      <trkpt lat="50.01255" lon="2.3792">
        <ele>124.9</ele>
        <time>2022-11-16T15:14:58Z</time>
      </trkpt>
      <trkpt lat="50.01254" lon="2.37921">
        <ele>124.9</ele>
        <time>2022-11-16T15:14:59Z</time>
      </trkpt>
      <trkpt lat="50.01253" lon="2.37922">
        <ele>124.9</ele>
        <time>2022-11-16T15:15:00Z</time>
      </trkpt>
      <trkpt lat="50.01252" lon="2.37922">
        <ele>125</ele>
        <time>2022-11-16T15:15:01Z</time>
      </trkpt>
      <trkpt lat="50.01251" lon="2.37923">
        <ele>125</ele>
        <time>2022-11-16T15:15:02Z</time>
      </trkpt>
      <trkpt lat="50.0125" lon="2.37924">
        <ele>125</ele>
        <time>2022-11-16T15:15:03Z</time>
      </trkpt>
      <trkpt lat="50.01249" lon="2.37925">
        <ele>125</ele>
        <time>2022-11-16T15:15:05Z</time>
      </trkpt>
      <trkpt lat="50.01248" lon="2.37926">
        <ele>125</ele>
        <time>2022-11-16T15:15:06Z</time>
      </trkpt>
      <trkpt lat="50.01248" lon="2.37927">
        <ele>125</ele>
        <time>2022-11-16T15:15:07Z</time>
      </trkpt>
      <trkpt lat="50.01247" lon="2.37928">
        <ele>125</ele>
        <time>2022-11-16T15:15:08Z</time>
      </trkpt>
      <trkpt lat="50.01246" lon="2.3793">
        <ele>125.1</ele>
        <time>2022-11-16T15:15:09Z</time>
      </trkpt>
      <trkpt lat="50.01245" lon="2.37931">
        <ele>125.1</ele>
        <time>2022-11-16T15:15:10Z</time>
      </trkpt>
      <trkpt lat="50.01244" lon="2.37932">
        <ele>125.1</ele>
        <time>2022-11-16T15:15:11Z</time>
      </trkpt>
      <trkpt lat="50.01243" lon="2.37933">
        <ele>125.1</ele>
        <time>2022-11-16T15:15:13Z</time>
      </trkpt>
      <trkpt lat="50.01242" lon="2.37934">
        <ele>125.1</ele>
        <time>2022-11-16T15:15:14Z</time>
      </trkpt>
      <trkpt lat="50.01241" lon="2.37936">
        <ele>125.2</ele>
        <time>2022-11-16T15:15:15Z</time>
      </trkpt>
      <trkpt lat="50.0124" lon="2.37937">
        <ele>125.2</ele>
        <time>2022-11-16T15:15:16Z</time>
      </trkpt>
      <trkpt lat="50.0124" lon="2.37937">
        <ele>125.2</ele>
        <time>2022-11-16T15:15:17Z</time>
      </trkpt>
      <trkpt lat="50.01239" lon="2.37939">
        <ele>125.2</ele>
        <time>2022-11-16T15:15:18Z</time>
      </trkpt>
      <trkpt lat="50.01238" lon="2.3794">
        <ele>125.3</ele>
        <time>2022-11-16T15:15:20Z</time>
      </trkpt>
      <trkpt lat="50.01237" lon="2.37941">
        <ele>125.3</ele>
        <time>2022-11-16T15:15:21Z</time>
      </trkpt>
      <trkpt lat="50.01235" lon="2.37943">
        <ele>125.3</ele>
        <time>2022-11-16T15:15:22Z</time>
      </trkpt>
      <trkpt lat="50.01235" lon="2.37944">
        <ele>125.3</ele>
        <time>2022-11-16T15:15:23Z</time>
      </trkpt>
      <trkpt lat="50.01234" lon="2.37945">
        <ele>125.4</ele>
        <time>2022-11-16T15:15:24Z</time>
      </trkpt>
      <trkpt lat="50.01233" lon="2.37946">
        <ele>125.4</ele>
        <time>2022-11-16T15:15:26Z</time>
      </trkpt>
      <trkpt lat="50.01232" lon="2.37947">
        <ele>125.4</ele>
        <time>2022-11-16T15:15:27Z</time>
      </trkpt>
      <trkpt lat="50.01231" lon="2.37948">
        <ele>125.4</ele>
        <time>2022-11-16T15:15:28Z</time>
      </trkpt>
      <trkpt lat="50.0123" lon="2.37949">
        <ele>125.5</ele>
        <time>2022-11-16T15:15:29Z</time>
      </trkpt>
      <trkpt lat="50.01229" lon="2.37951">
        <ele>125.5</ele>
        <time>2022-11-16T15:15:30Z</time>
      </trkpt>
      <trkpt lat="50.01228" lon="2.37952">
        <ele>125.5</ele>
        <time>2022-11-16T15:15:32Z</time>
      </trkpt>
      <trkpt lat="50.01228" lon="2.37952">
        <ele>125.5</ele>
        <time>2022-11-16T15:15:33Z</time>
      </trkpt>
      <trkpt lat="50.01227" lon="2.37953">
        <ele>125.6</ele>
        <time>2022-11-16T15:15:34Z</time>
      </trkpt>
      <trkpt lat="50.01227" lon="2.37954">
        <ele>125.6</ele>
        <time>2022-11-16T15:15:35Z</time>
      </trkpt>
      <trkpt lat="50.01226" lon="2.37956">
        <ele>125.6</ele>
        <time>2022-11-16T15:15:36Z</time>
      </trkpt>
      <trkpt lat="50.01225" lon="2.37957">
        <ele>125.6</ele>
        <time>2022-11-16T15:15:37Z</time>
      </trkpt>
      <trkpt lat="50.01224" lon="2.37958">
        <ele>125.7</ele>
        <time>2022-11-16T15:15:38Z</time>
      </trkpt>
      <trkpt lat="50.01224" lon="2.37959">
        <ele>125.7</ele>
        <time>2022-11-16T15:15:40Z</time>
      </trkpt>
      <trkpt lat="50.01223" lon="2.3796">
        <ele>125.7</ele>
        <time>2022-11-16T15:15:41Z</time>
      </trkpt>
      <trkpt lat="50.01222" lon="2.37961">
        <ele>125.8</ele>
        <time>2022-11-16T15:15:42Z</time>
      </trkpt>
      <trkpt lat="50.01221" lon="2.37962">
        <ele>125.8</ele>
        <time>2022-11-16T15:15:43Z</time>
      </trkpt>
      <trkpt lat="50.01221" lon="2.37963">
        <ele>125.8</ele>
        <time>2022-11-16T15:15:44Z</time>
      </trkpt>
      <trkpt lat="50.01219" lon="2.37964">
        <ele>125.8</ele>
        <time>2022-11-16T15:15:45Z</time>
      </trkpt>
      <trkpt lat="50.01218" lon="2.37965">
        <ele>125.9</ele>
        <time>2022-11-16T15:15:46Z</time>
      </trkpt>
      <trkpt lat="50.01218" lon="2.37966">
        <ele>125.9</ele>
        <time>2022-11-16T15:15:48Z</time>
      </trkpt>
      <trkpt lat="50.01217" lon="2.37967">
        <ele>125.9</ele>
        <time>2022-11-16T15:15:49Z</time>
      </trkpt>
      <trkpt lat="50.01216" lon="2.37968">
        <ele>125.9</ele>
        <time>2022-11-16T15:15:50Z</time>
      </trkpt>
      <trkpt lat="50.01215" lon="2.37969">
        <ele>126</ele>
        <time>2022-11-16T15:15:51Z</time>
      </trkpt>
      <trkpt lat="50.01214" lon="2.3797">
        <ele>126</ele>
        <time>2022-11-16T15:15:52Z</time>
      </trkpt>
      <trkpt lat="50.01214" lon="2.37971">
        <ele>126</ele>
        <time>2022-11-16T15:15:54Z</time>
      </trkpt>
      <trkpt lat="50.01213" lon="2.37971">
        <ele>126</ele>
        <time>2022-11-16T15:15:55Z</time>
      </trkpt>
      <trkpt lat="50.01212" lon="2.37971">
        <ele>126</ele>
        <time>2022-11-16T15:15:56Z</time>
      </trkpt>
      <trkpt lat="50.01211" lon="2.37972">
        <ele>126.1</ele>
        <time>2022-11-16T15:15:57Z</time>
      </trkpt>
      <trkpt lat="50.0121" lon="2.37973">
        <ele>126.1</ele>
        <time>2022-11-16T15:15:58Z</time>
      </trkpt>
      <trkpt lat="50.01209" lon="2.37973">
        <ele>126.1</ele>
        <time>2022-11-16T15:16:00Z</time>
      </trkpt>
      <trkpt lat="50.01208" lon="2.37974">
        <ele>126.1</ele>
        <time>2022-11-16T15:16:01Z</time>
      </trkpt>
      <trkpt lat="50.01207" lon="2.37974">
        <ele>126.1</ele>
        <time>2022-11-16T15:16:02Z</time>
      </trkpt>
      <trkpt lat="50.01206" lon="2.37975">
        <ele>126.1</ele>
        <time>2022-11-16T15:16:03Z</time>
      </trkpt>
      <trkpt lat="50.01205" lon="2.37977">
        <ele>126.2</ele>
        <time>2022-11-16T15:16:04Z</time>
      </trkpt>
      <trkpt lat="50.01204" lon="2.37977">
        <ele>126.2</ele>
        <time>2022-11-16T15:16:05Z</time>
      </trkpt>
      <trkpt lat="50.01203" lon="2.37978">
        <ele>126.2</ele>
        <time>2022-11-16T15:16:06Z</time>
      </trkpt>
      <trkpt lat="50.01202" lon="2.37979">
        <ele>126.2</ele>
        <time>2022-11-16T15:16:07Z</time>
      </trkpt>
      <trkpt lat="50.01202" lon="2.3798">
        <ele>126.2</ele>
        <time>2022-11-16T15:16:09Z</time>
      </trkpt>
      <trkpt lat="50.01201" lon="2.37981">
        <ele>126.2</ele>
        <time>2022-11-16T15:16:10Z</time>
      </trkpt>
      <trkpt lat="50.012" lon="2.37981">
        <ele>126.2</ele>
        <time>2022-11-16T15:16:11Z</time>
      </trkpt>
      <trkpt lat="50.01199" lon="2.37982">
        <ele>126.2</ele>
        <time>2022-11-16T15:16:12Z</time>
      </trkpt>
      <trkpt lat="50.01199" lon="2.37983">
        <ele>126.2</ele>
        <time>2022-11-16T15:16:13Z</time>
      </trkpt>
      <trkpt lat="50.01198" lon="2.37984">
        <ele>126.2</ele>
        <time>2022-11-16T15:16:14Z</time>
      </trkpt>
      <trkpt lat="50.01197" lon="2.37985">
        <ele>126.3</ele>
        <time>2022-11-16T15:16:15Z</time>
      </trkpt>
      <trkpt lat="50.01196" lon="2.37987">
        <ele>126.3</ele>
        <time>2022-11-16T15:16:16Z</time>
      </trkpt>
      <trkpt lat="50.01195" lon="2.37989">
        <ele>126.3</ele>
        <time>2022-11-16T15:16:18Z</time>
      </trkpt>
      <trkpt lat="50.01194" lon="2.3799">
        <ele>126.3</ele>
        <time>2022-11-16T15:16:19Z</time>
      </trkpt>
      <trkpt lat="50.01193" lon="2.37991">
        <ele>126.3</ele>
        <time>2022-11-16T15:16:20Z</time>
      </trkpt>
      <trkpt lat="50.01192" lon="2.37991">
        <ele>126.4</ele>
        <time>2022-11-16T15:16:21Z</time>
      </trkpt>
      <trkpt lat="50.01191" lon="2.37991">
        <ele>126.4</ele>
        <time>2022-11-16T15:16:23Z</time>
      </trkpt>
      <trkpt lat="50.0119" lon="2.37991">
        <ele>126.4</ele>
        <time>2022-11-16T15:16:24Z</time>
      </trkpt>
      <trkpt lat="50.0119" lon="2.37991">
        <ele>126.4</ele>
        <time>2022-11-16T15:16:25Z</time>
      </trkpt>
      <trkpt lat="50.0119" lon="2.37991">
        <ele>126.4</ele>
        <time>2022-11-16T15:16:26Z</time>
      </trkpt>
      <trkpt lat="50.0119" lon="2.37991">
        <ele>126.4</ele>
        <time>2022-11-16T15:16:27Z</time>
      </trkpt>
      <trkpt lat="50.0119" lon="2.3799">
        <ele>126.4</ele>
        <time>2022-11-16T15:16:28Z</time>
      </trkpt>
      <trkpt lat="50.0119" lon="2.3799">
        <ele>126.4</ele>
        <time>2022-11-16T15:16:29Z</time>
      </trkpt>
      <trkpt lat="50.0119" lon="2.3799">
        <ele>126.4</ele>
        <time>2022-11-16T15:16:30Z</time>
      </trkpt>
      <trkpt lat="50.01191" lon="2.37989">
        <ele>126.4</ele>
        <time>2022-11-16T15:16:31Z</time>
      </trkpt>
      <trkpt lat="50.01191" lon="2.37989">
        <ele>126.4</ele>
        <time>2022-11-16T15:16:32Z</time>
      </trkpt>
      <trkpt lat="50.01191" lon="2.37989">
        <ele>126.4</ele>
        <time>2022-11-16T15:16:33Z</time>
      </trkpt>
      <trkpt lat="50.01191" lon="2.37989">
        <ele>126.4</ele>
        <time>2022-11-16T15:16:34Z</time>
      </trkpt>
      <trkpt lat="50.01191" lon="2.37989">
        <ele>126.4</ele>
        <time>2022-11-16T15:16:35Z</time>
      </trkpt>
      <trkpt lat="50.01191" lon="2.37989">
        <ele>126.4</ele>
        <time>2022-11-16T15:16:36Z</time>
      </trkpt>
      <trkpt lat="50.01191" lon="2.37989">
        <ele>126.4</ele>
        <time>2022-11-16T15:16:37Z</time>
      </trkpt>
      <trkpt lat="50.01191" lon="2.37989">
        <ele>126.4</ele>
        <time>2022-11-16T15:16:38Z</time>
      </trkpt>
      <trkpt lat="50.01191" lon="2.37989">
        <ele>126.5</ele>
        <time>2022-11-16T15:16:39Z</time>
      </trkpt>
      <trkpt lat="50.01191" lon="2.37989">
        <ele>126.5</ele>
        <time>2022-11-16T15:16:40Z</time>
      </trkpt>
      <trkpt lat="50.01191" lon="2.37989">
        <ele>126.5</ele>
        <time>2022-11-16T15:16:41Z</time>
      </trkpt>
      <trkpt lat="50.01191" lon="2.37989">
        <ele>126.5</ele>
        <time>2022-11-16T15:16:42Z</time>
      </trkpt>
      <trkpt lat="50.01191" lon="2.37989">
        <ele>126.5</ele>
        <time>2022-11-16T15:16:43Z</time>
      </trkpt>
      <trkpt lat="50.01191" lon="2.37989">
        <ele>126.5</ele>
        <time>2022-11-16T15:16:44Z</time>
      </trkpt>
      <trkpt lat="50.01191" lon="2.37989">
        <ele>126.5</ele>
        <time>2022-11-16T15:16:45Z</time>
      </trkpt>
      <trkpt lat="50.01191" lon="2.37989">
        <ele>126.5</ele>
        <time>2022-11-16T15:16:46Z</time>
      </trkpt>
      <trkpt lat="50.01191" lon="2.37989">
        <ele>126.5</ele>
        <time>2022-11-16T15:16:47Z</time>
      </trkpt>
      <trkpt lat="50.01191" lon="2.37989">
        <ele>126.5</ele>
        <time>2022-11-16T15:16:48Z</time>
      </trkpt>
      <trkpt lat="50.01191" lon="2.37989">
        <ele>126.5</ele>
        <time>2022-11-16T15:16:49Z</time>
      </trkpt>
      <trkpt lat="50.01191" lon="2.37989">
        <ele>126.5</ele>
        <time>2022-11-16T15:16:50Z</time>
      </trkpt>
      <trkpt lat="50.01191" lon="2.37989">
        <ele>126.5</ele>
        <time>2022-11-16T15:16:51Z</time>
      </trkpt>
      <trkpt lat="50.01191" lon="2.37989">
        <ele>126.5</ele>
        <time>2022-11-16T15:16:52Z</time>
      </trkpt>
      <trkpt lat="50.0119" lon="2.37989">
        <ele>126.5</ele>
        <time>2022-11-16T15:16:53Z</time>
      </trkpt>
      <trkpt lat="50.0119" lon="2.3799">
        <ele>126.5</ele>
        <time>2022-11-16T15:16:54Z</time>
      </trkpt>
      <trkpt lat="50.01189" lon="2.3799">
        <ele>126.5</ele>
        <time>2022-11-16T15:16:56Z</time>
      </trkpt>
      <trkpt lat="50.01189" lon="2.37991">
        <ele>126.5</ele>
        <time>2022-11-16T15:16:57Z</time>
      </trkpt>
      <trkpt lat="50.01188" lon="2.37992">
        <ele>126.6</ele>
        <time>2022-11-16T15:16:58Z</time>
      </trkpt>
      <trkpt lat="50.01187" lon="2.37993">
        <ele>126.6</ele>
        <time>2022-11-16T15:16:59Z</time>
      </trkpt>
      <trkpt lat="50.01186" lon="2.37995">
        <ele>126.6</ele>
        <time>2022-11-16T15:17:00Z</time>
      </trkpt>
      <trkpt lat="50.01185" lon="2.37996">
        <ele>126.7</ele>
        <time>2022-11-16T15:17:02Z</time>
      </trkpt>
      <trkpt lat="50.01185" lon="2.37997">
        <ele>126.7</ele>
        <time>2022-11-16T15:17:03Z</time>
      </trkpt>
      <trkpt lat="50.01184" lon="2.37998">
        <ele>126.7</ele>
        <time>2022-11-16T15:17:04Z</time>
      </trkpt>
      <trkpt lat="50.01183" lon="2.37999">
        <ele>126.8</ele>
        <time>2022-11-16T15:17:05Z</time>
      </trkpt>
      <trkpt lat="50.01181" lon="2.38001">
        <ele>126.8</ele>
        <time>2022-11-16T15:17:06Z</time>
      </trkpt>
      <trkpt lat="50.0118" lon="2.38002">
        <ele>126.8</ele>
        <time>2022-11-16T15:17:07Z</time>
      </trkpt>
      <trkpt lat="50.0118" lon="2.38002">
        <ele>126.9</ele>
        <time>2022-11-16T15:17:09Z</time>
      </trkpt>
      <trkpt lat="50.01179" lon="2.38003">
        <ele>126.9</ele>
        <time>2022-11-16T15:17:10Z</time>
      </trkpt>
      <trkpt lat="50.01179" lon="2.38003">
        <ele>126.9</ele>
        <time>2022-11-16T15:17:11Z</time>
      </trkpt>
      <trkpt lat="50.01178" lon="2.38004">
        <ele>126.9</ele>
        <time>2022-11-16T15:17:12Z</time>
      </trkpt>
      <trkpt lat="50.01178" lon="2.38005">
        <ele>126.9</ele>
        <time>2022-11-16T15:17:13Z</time>
      </trkpt>
      <trkpt lat="50.01177" lon="2.38008">
        <ele>127</ele>
        <time>2022-11-16T15:17:15Z</time>
      </trkpt>
      <trkpt lat="50.01176" lon="2.38009">
        <ele>127</ele>
        <time>2022-11-16T15:17:16Z</time>
      </trkpt>
      <trkpt lat="50.01176" lon="2.3801">
        <ele>127.1</ele>
        <time>2022-11-16T15:17:17Z</time>
      </trkpt>
      <trkpt lat="50.01175" lon="2.38012">
        <ele>127.1</ele>
        <time>2022-11-16T15:17:18Z</time>
      </trkpt>
      <trkpt lat="50.01174" lon="2.38014">
        <ele>127.1</ele>
        <time>2022-11-16T15:17:19Z</time>
      </trkpt>
      <trkpt lat="50.01173" lon="2.38015">
        <ele>127.2</ele>
        <time>2022-11-16T15:17:20Z</time>
      </trkpt>
      <trkpt lat="50.01172" lon="2.38017">
        <ele>127.2</ele>
        <time>2022-11-16T15:17:22Z</time>
      </trkpt>
      <trkpt lat="50.01172" lon="2.38017">
        <ele>127.2</ele>
        <time>2022-11-16T15:17:23Z</time>
      </trkpt>
      <trkpt lat="50.01171" lon="2.38018">
        <ele>127.3</ele>
        <time>2022-11-16T15:17:24Z</time>
      </trkpt>
      <trkpt lat="50.0117" lon="2.38019">
        <ele>127.3</ele>
        <time>2022-11-16T15:17:25Z</time>
      </trkpt>
      <trkpt lat="50.0117" lon="2.3802">
        <ele>127.3</ele>
        <time>2022-11-16T15:17:26Z</time>
      </trkpt>
      <trkpt lat="50.01169" lon="2.38021">
        <ele>127.3</ele>
        <time>2022-11-16T15:17:28Z</time>
      </trkpt>
      <trkpt lat="50.01169" lon="2.38021">
        <ele>127.3</ele>
        <time>2022-11-16T15:17:29Z</time>
      </trkpt>
      <trkpt lat="50.01169" lon="2.38022">
        <ele>127.4</ele>
        <time>2022-11-16T15:17:30Z</time>
      </trkpt>
      <trkpt lat="50.01168" lon="2.38023">
        <ele>127.4</ele>
        <time>2022-11-16T15:17:31Z</time>
      </trkpt>
      <trkpt lat="50.01166" lon="2.38025">
        <ele>127.4</ele>
        <time>2022-11-16T15:17:32Z</time>
      </trkpt>
      <trkpt lat="50.01165" lon="2.38026">
        <ele>127.5</ele>
        <time>2022-11-16T15:17:33Z</time>
      </trkpt>
      <trkpt lat="50.01164" lon="2.38028">
        <ele>127.5</ele>
        <time>2022-11-16T15:17:35Z</time>
      </trkpt>
      <trkpt lat="50.01163" lon="2.38029">
        <ele>127.6</ele>
        <time>2022-11-16T15:17:36Z</time>
      </trkpt>
      <trkpt lat="50.01161" lon="2.38031">
        <ele>127.6</ele>
        <time>2022-11-16T15:17:37Z</time>
      </trkpt>
      <trkpt lat="50.0116" lon="2.38032">
        <ele>127.6</ele>
        <time>2022-11-16T15:17:38Z</time>
      </trkpt>
      <trkpt lat="50.0116" lon="2.38033">
        <ele>127.6</ele>
        <time>2022-11-16T15:17:39Z</time>
      </trkpt>
      <trkpt lat="50.01159" lon="2.38034">
        <ele>127.7</ele>
        <time>2022-11-16T15:17:40Z</time>
      </trkpt>
      <trkpt lat="50.01157" lon="2.38035">
        <ele>127.7</ele>
        <time>2022-11-16T15:17:41Z</time>
      </trkpt>
      <trkpt lat="50.01156" lon="2.38036">
        <ele>127.7</ele>
        <time>2022-11-16T15:17:42Z</time>
      </trkpt>
      <trkpt lat="50.01155" lon="2.38037">
        <ele>127.7</ele>
        <time>2022-11-16T15:17:43Z</time>
      </trkpt>
      <trkpt lat="50.01154" lon="2.38038">
        <ele>127.7</ele>
        <time>2022-11-16T15:17:45Z</time>
      </trkpt>
      <trkpt lat="50.01154" lon="2.38038">
        <ele>127.7</ele>
        <time>2022-11-16T15:17:46Z</time>
      </trkpt>
      <trkpt lat="50.01153" lon="2.38039">
        <ele>127.8</ele>
        <time>2022-11-16T15:17:47Z</time>
      </trkpt>
      <trkpt lat="50.01152" lon="2.38039">
        <ele>127.8</ele>
        <time>2022-11-16T15:17:48Z</time>
      </trkpt>
      <trkpt lat="50.01151" lon="2.3804">
        <ele>127.8</ele>
        <time>2022-11-16T15:17:49Z</time>
      </trkpt>
      <trkpt lat="50.0115" lon="2.38041">
        <ele>127.8</ele>
        <time>2022-11-16T15:17:50Z</time>
      </trkpt>
      <trkpt lat="50.0115" lon="2.38041">
        <ele>127.8</ele>
        <time>2022-11-16T15:17:51Z</time>
      </trkpt>
      <trkpt lat="50.01149" lon="2.38043">
        <ele>127.8</ele>
        <time>2022-11-16T15:17:53Z</time>
      </trkpt>
      <trkpt lat="50.01148" lon="2.38044">
        <ele>127.8</ele>
        <time>2022-11-16T15:17:54Z</time>
      </trkpt>
      <trkpt lat="50.01147" lon="2.38045">
        <ele>127.8</ele>
        <time>2022-11-16T15:17:55Z</time>
      </trkpt>
      <trkpt lat="50.01147" lon="2.38046">
        <ele>127.8</ele>
        <time>2022-11-16T15:17:56Z</time>
      </trkpt>
      <trkpt lat="50.01146" lon="2.38047">
        <ele>127.8</ele>
        <time>2022-11-16T15:17:57Z</time>
      </trkpt>
      <trkpt lat="50.01145" lon="2.38048">
        <ele>127.8</ele>
        <time>2022-11-16T15:17:58Z</time>
      </trkpt>
      <trkpt lat="50.01144" lon="2.38049">
        <ele>127.8</ele>
        <time>2022-11-16T15:17:59Z</time>
      </trkpt>
      <trkpt lat="50.01144" lon="2.3805">
        <ele>127.8</ele>
        <time>2022-11-16T15:18:00Z</time>
      </trkpt>
      <trkpt lat="50.01143" lon="2.38051">
        <ele>127.8</ele>
        <time>2022-11-16T15:18:01Z</time>
      </trkpt>
      <trkpt lat="50.01142" lon="2.38052">
        <ele>127.8</ele>
        <time>2022-11-16T15:18:02Z</time>
      </trkpt>
      <trkpt lat="50.01141" lon="2.38054">
        <ele>127.8</ele>
        <time>2022-11-16T15:18:03Z</time>
      </trkpt>
      <trkpt lat="50.01141" lon="2.38055">
        <ele>127.8</ele>
        <time>2022-11-16T15:18:04Z</time>
      </trkpt>
      <trkpt lat="50.0114" lon="2.38056">
        <ele>127.8</ele>
        <time>2022-11-16T15:18:05Z</time>
      </trkpt>
      <trkpt lat="50.01139" lon="2.38057">
        <ele>127.8</ele>
        <time>2022-11-16T15:18:07Z</time>
      </trkpt>
      <trkpt lat="50.01138" lon="2.38058">
        <ele>127.7</ele>
        <time>2022-11-16T15:18:08Z</time>
      </trkpt>
      <trkpt lat="50.01138" lon="2.38059">
        <ele>127.7</ele>
        <time>2022-11-16T15:18:09Z</time>
      </trkpt>
      <trkpt lat="50.01137" lon="2.38061">
        <ele>127.7</ele>
        <time>2022-11-16T15:18:10Z</time>
      </trkpt>
      <trkpt lat="50.01136" lon="2.38061">
        <ele>127.7</ele>
        <time>2022-11-16T15:18:11Z</time>
      </trkpt>
      <trkpt lat="50.01135" lon="2.38063">
        <ele>127.7</ele>
        <time>2022-11-16T15:18:12Z</time>
      </trkpt>
      <trkpt lat="50.01135" lon="2.38065">
        <ele>127.7</ele>
        <time>2022-11-16T15:18:13Z</time>
      </trkpt>
      <trkpt lat="50.01134" lon="2.38066">
        <ele>127.7</ele>
        <time>2022-11-16T15:18:14Z</time>
      </trkpt>
      <trkpt lat="50.01133" lon="2.38068">
        <ele>127.7</ele>
        <time>2022-11-16T15:18:15Z</time>
      </trkpt>
      <trkpt lat="50.01133" lon="2.38069">
        <ele>127.7</ele>
        <time>2022-11-16T15:18:16Z</time>
      </trkpt>
      <trkpt lat="50.01132" lon="2.38071">
        <ele>127.7</ele>
        <time>2022-11-16T15:18:18Z</time>
      </trkpt>
      <trkpt lat="50.01132" lon="2.38072">
        <ele>127.7</ele>
        <time>2022-11-16T15:18:19Z</time>
      </trkpt>
      <trkpt lat="50.01131" lon="2.38074">
        <ele>127.6</ele>
        <time>2022-11-16T15:18:20Z</time>
      </trkpt>
      <trkpt lat="50.0113" lon="2.38075">
        <ele>127.6</ele>
        <time>2022-11-16T15:18:21Z</time>
      </trkpt>
      <trkpt lat="50.01129" lon="2.38076">
        <ele>127.6</ele>
        <time>2022-11-16T15:18:22Z</time>
      </trkpt>
      <trkpt lat="50.01128" lon="2.38077">
        <ele>127.6</ele>
        <time>2022-11-16T15:18:23Z</time>
      </trkpt>
      <trkpt lat="50.01128" lon="2.38078">
        <ele>127.6</ele>
        <time>2022-11-16T15:18:25Z</time>
      </trkpt>
      <trkpt lat="50.01127" lon="2.38079">
        <ele>127.6</ele>
        <time>2022-11-16T15:18:26Z</time>
      </trkpt>
      <trkpt lat="50.01126" lon="2.3808">
        <ele>127.6</ele>
        <time>2022-11-16T15:18:27Z</time>
      </trkpt>
      <trkpt lat="50.01125" lon="2.38081">
        <ele>127.6</ele>
        <time>2022-11-16T15:18:28Z</time>
      </trkpt>
      <trkpt lat="50.01124" lon="2.38082">
        <ele>127.6</ele>
        <time>2022-11-16T15:18:29Z</time>
      </trkpt>
      <trkpt lat="50.01123" lon="2.38083">
        <ele>127.6</ele>
        <time>2022-11-16T15:18:30Z</time>
      </trkpt>
      <trkpt lat="50.01123" lon="2.38084">
        <ele>127.6</ele>
        <time>2022-11-16T15:18:31Z</time>
      </trkpt>
      <trkpt lat="50.01122" lon="2.38085">
        <ele>127.5</ele>
        <time>2022-11-16T15:18:33Z</time>
      </trkpt>
      <trkpt lat="50.01121" lon="2.38086">
        <ele>127.5</ele>
        <time>2022-11-16T15:18:34Z</time>
      </trkpt>
      <trkpt lat="50.0112" lon="2.38088">
        <ele>127.5</ele>
        <time>2022-11-16T15:18:35Z</time>
      </trkpt>
      <trkpt lat="50.0112" lon="2.38089">
        <ele>127.5</ele>
        <time>2022-11-16T15:18:36Z</time>
      </trkpt>
      <trkpt lat="50.01119" lon="2.3809">
        <ele>127.5</ele>
        <time>2022-11-16T15:18:37Z</time>
      </trkpt>
      <trkpt lat="50.01118" lon="2.38092">
        <ele>127.5</ele>
        <time>2022-11-16T15:18:39Z</time>
      </trkpt>
      <trkpt lat="50.01118" lon="2.38093">
        <ele>127.5</ele>
        <time>2022-11-16T15:18:40Z</time>
      </trkpt>
      <trkpt lat="50.01116" lon="2.38094">
        <ele>127.5</ele>
        <time>2022-11-16T15:18:41Z</time>
      </trkpt>
      <trkpt lat="50.01116" lon="2.38095">
        <ele>127.5</ele>
        <time>2022-11-16T15:18:42Z</time>
      </trkpt>
      <trkpt lat="50.01115" lon="2.38096">
        <ele>127.5</ele>
        <time>2022-11-16T15:18:43Z</time>
      </trkpt>
      <trkpt lat="50.01115" lon="2.38097">
        <ele>127.5</ele>
        <time>2022-11-16T15:18:44Z</time>
      </trkpt>
      <trkpt lat="50.01114" lon="2.38098">
        <ele>127.5</ele>
        <time>2022-11-16T15:18:45Z</time>
      </trkpt>
      <trkpt lat="50.01113" lon="2.381">
        <ele>127.5</ele>
        <time>2022-11-16T15:18:46Z</time>
      </trkpt>
      <trkpt lat="50.01112" lon="2.38103">
        <ele>127.5</ele>
        <time>2022-11-16T15:18:47Z</time>
      </trkpt>
      <trkpt lat="50.01111" lon="2.38104">
        <ele>127.5</ele>
        <time>2022-11-16T15:18:49Z</time>
      </trkpt>
      <trkpt lat="50.0111" lon="2.38105">
        <ele>127.5</ele>
        <time>2022-11-16T15:18:50Z</time>
      </trkpt>
      <trkpt lat="50.0111" lon="2.38106">
        <ele>127.5</ele>
        <time>2022-11-16T15:18:51Z</time>
      </trkpt>
      <trkpt lat="50.01109" lon="2.38107">
        <ele>127.5</ele>
        <time>2022-11-16T15:18:52Z</time>
      </trkpt>
      <trkpt lat="50.01108" lon="2.38109">
        <ele>127.5</ele>
        <time>2022-11-16T15:18:53Z</time>
      </trkpt>
      <trkpt lat="50.01107" lon="2.38111">
        <ele>127.5</ele>
        <time>2022-11-16T15:18:54Z</time>
      </trkpt>
      <trkpt lat="50.01106" lon="2.38112">
        <ele>127.5</ele>
        <time>2022-11-16T15:18:55Z</time>
      </trkpt>
      <trkpt lat="50.01106" lon="2.38113">
        <ele>127.5</ele>
        <time>2022-11-16T15:18:56Z</time>
      </trkpt>
      <trkpt lat="50.01105" lon="2.38114">
        <ele>127.5</ele>
        <time>2022-11-16T15:18:58Z</time>
      </trkpt>
      <trkpt lat="50.01104" lon="2.38115">
        <ele>127.5</ele>
        <time>2022-11-16T15:18:59Z</time>
      </trkpt>
      <trkpt lat="50.01103" lon="2.38116">
        <ele>127.5</ele>
        <time>2022-11-16T15:19:00Z</time>
      </trkpt>
      <trkpt lat="50.01102" lon="2.38117">
        <ele>127.5</ele>
        <time>2022-11-16T15:19:01Z</time>
      </trkpt>
      <trkpt lat="50.01102" lon="2.38118">
        <ele>127.5</ele>
        <time>2022-11-16T15:19:02Z</time>
      </trkpt>
      <trkpt lat="50.01101" lon="2.3812">
        <ele>127.5</ele>
        <time>2022-11-16T15:19:03Z</time>
      </trkpt>
      <trkpt lat="50.01099" lon="2.38122">
        <ele>127.5</ele>
        <time>2022-11-16T15:19:04Z</time>
      </trkpt>
      <trkpt lat="50.01098" lon="2.38123">
        <ele>127.5</ele>
        <time>2022-11-16T15:19:06Z</time>
      </trkpt>
      <trkpt lat="50.01098" lon="2.38123">
        <ele>127.5</ele>
        <time>2022-11-16T15:19:07Z</time>
      </trkpt>
      <trkpt lat="50.01097" lon="2.38124">
        <ele>127.5</ele>
        <time>2022-11-16T15:19:08Z</time>
      </trkpt>
      <trkpt lat="50.01096" lon="2.38125">
        <ele>127.5</ele>
        <time>2022-11-16T15:19:09Z</time>
      </trkpt>
      <trkpt lat="50.01095" lon="2.38127">
        <ele>127.4</ele>
        <time>2022-11-16T15:19:10Z</time>
      </trkpt>
      <trkpt lat="50.01094" lon="2.38128">
        <ele>127.4</ele>
        <time>2022-11-16T15:19:11Z</time>
      </trkpt>
      <trkpt lat="50.01094" lon="2.3813">
        <ele>127.4</ele>
        <time>2022-11-16T15:19:12Z</time>
      </trkpt>
      <trkpt lat="50.01093" lon="2.38131">
        <ele>127.4</ele>
        <time>2022-11-16T15:19:13Z</time>
      </trkpt>
      <trkpt lat="50.01092" lon="2.38133">
        <ele>127.4</ele>
        <time>2022-11-16T15:19:14Z</time>
      </trkpt>
      <trkpt lat="50.01091" lon="2.38134">
        <ele>127.4</ele>
        <time>2022-11-16T15:19:16Z</time>
      </trkpt>
      <trkpt lat="50.0109" lon="2.38135">
        <ele>127.4</ele>
        <time>2022-11-16T15:19:17Z</time>
      </trkpt>
      <trkpt lat="50.0109" lon="2.38136">
        <ele>127.4</ele>
        <time>2022-11-16T15:19:18Z</time>
      </trkpt>
      <trkpt lat="50.01089" lon="2.38138">
        <ele>127.4</ele>
        <time>2022-11-16T15:19:19Z</time>
      </trkpt>
      <trkpt lat="50.01088" lon="2.38139">
        <ele>127.4</ele>
        <time>2022-11-16T15:19:20Z</time>
      </trkpt>
      <trkpt lat="50.01087" lon="2.3814">
        <ele>127.5</ele>
        <time>2022-11-16T15:19:21Z</time>
      </trkpt>
      <trkpt lat="50.01086" lon="2.38141">
        <ele>127.5</ele>
        <time>2022-11-16T15:19:22Z</time>
      </trkpt>
      <trkpt lat="50.01085" lon="2.38143">
        <ele>127.5</ele>
        <time>2022-11-16T15:19:24Z</time>
      </trkpt>
      <trkpt lat="50.01085" lon="2.38144">
        <ele>127.5</ele>
        <time>2022-11-16T15:19:25Z</time>
      </trkpt>
      <trkpt lat="50.01084" lon="2.38145">
        <ele>127.5</ele>
        <time>2022-11-16T15:19:26Z</time>
      </trkpt>
      <trkpt lat="50.01082" lon="2.38147">
        <ele>127.5</ele>
        <time>2022-11-16T15:19:27Z</time>
      </trkpt>
      <trkpt lat="50.01082" lon="2.38148">
        <ele>127.5</ele>
        <time>2022-11-16T15:19:28Z</time>
      </trkpt>
      <trkpt lat="50.01081" lon="2.38149">
        <ele>127.5</ele>
        <time>2022-11-16T15:19:29Z</time>
      </trkpt>
      <trkpt lat="50.0108" lon="2.3815">
        <ele>127.5</ele>
        <time>2022-11-16T15:19:30Z</time>
      </trkpt>
      <trkpt lat="50.0108" lon="2.38152">
        <ele>127.5</ele>
        <time>2022-11-16T15:19:31Z</time>
      </trkpt>
      <trkpt lat="50.01079" lon="2.38153">
        <ele>127.5</ele>
        <time>2022-11-16T15:19:33Z</time>
      </trkpt>
      <trkpt lat="50.01078" lon="2.38154">
        <ele>127.5</ele>
        <time>2022-11-16T15:19:34Z</time>
      </trkpt>
      <trkpt lat="50.01077" lon="2.38155">
        <ele>127.5</ele>
        <time>2022-11-16T15:19:35Z</time>
      </trkpt>
      <trkpt lat="50.01076" lon="2.38157">
        <ele>127.5</ele>
        <time>2022-11-16T15:19:36Z</time>
      </trkpt>
      <trkpt lat="50.01076" lon="2.38159">
        <ele>127.5</ele>
        <time>2022-11-16T15:19:37Z</time>
      </trkpt>
      <trkpt lat="50.01075" lon="2.3816">
        <ele>127.5</ele>
        <time>2022-11-16T15:19:38Z</time>
      </trkpt>
      <trkpt lat="50.01074" lon="2.38162">
        <ele>127.5</ele>
        <time>2022-11-16T15:19:39Z</time>
      </trkpt>
      <trkpt lat="50.01073" lon="2.38163">
        <ele>127.5</ele>
        <time>2022-11-16T15:19:41Z</time>
      </trkpt>
      <trkpt lat="50.01072" lon="2.38164">
        <ele>127.5</ele>
        <time>2022-11-16T15:19:42Z</time>
      </trkpt>
      <trkpt lat="50.01072" lon="2.38165">
        <ele>127.5</ele>
        <time>2022-11-16T15:19:43Z</time>
      </trkpt>
      <trkpt lat="50.01071" lon="2.38166">
        <ele>127.5</ele>
        <time>2022-11-16T15:19:44Z</time>
      </trkpt>
      <trkpt lat="50.0107" lon="2.38168">
        <ele>127.5</ele>
        <time>2022-11-16T15:19:45Z</time>
      </trkpt>
      <trkpt lat="50.01069" lon="2.38169">
        <ele>127.5</ele>
        <time>2022-11-16T15:19:46Z</time>
      </trkpt>
      <trkpt lat="50.01068" lon="2.38171">
        <ele>127.5</ele>
        <time>2022-11-16T15:19:47Z</time>
      </trkpt>
      <trkpt lat="50.01068" lon="2.38172">
        <ele>127.4</ele>
        <time>2022-11-16T15:19:49Z</time>
      </trkpt>
      <trkpt lat="50.01067" lon="2.38173">
        <ele>127.4</ele>
        <time>2022-11-16T15:19:50Z</time>
      </trkpt>
      <trkpt lat="50.01066" lon="2.38174">
        <ele>127.4</ele>
        <time>2022-11-16T15:19:51Z</time>
      </trkpt>
      <trkpt lat="50.01065" lon="2.38175">
        <ele>127.4</ele>
        <time>2022-11-16T15:19:52Z</time>
      </trkpt>
      <trkpt lat="50.01065" lon="2.38176">
        <ele>127.4</ele>
        <time>2022-11-16T15:19:53Z</time>
      </trkpt>
      <trkpt lat="50.01064" lon="2.38178">
        <ele>127.4</ele>
        <time>2022-11-16T15:19:54Z</time>
      </trkpt>
      <trkpt lat="50.01063" lon="2.38179">
        <ele>127.4</ele>
        <time>2022-11-16T15:19:55Z</time>
      </trkpt>
      <trkpt lat="50.01062" lon="2.3818">
        <ele>127.4</ele>
        <time>2022-11-16T15:19:57Z</time>
      </trkpt>
      <trkpt lat="50.01061" lon="2.38181">
        <ele>127.3</ele>
        <time>2022-11-16T15:19:58Z</time>
      </trkpt>
      <trkpt lat="50.01061" lon="2.38181">
        <ele>127.3</ele>
        <time>2022-11-16T15:19:59Z</time>
      </trkpt>
      <trkpt lat="50.01059" lon="2.38184">
        <ele>127.3</ele>
        <time>2022-11-16T15:20:00Z</time>
      </trkpt>
      <trkpt lat="50.01058" lon="2.38184">
        <ele>127.3</ele>
        <time>2022-11-16T15:20:01Z</time>
      </trkpt>
      <trkpt lat="50.01058" lon="2.38185">
        <ele>127.3</ele>
        <time>2022-11-16T15:20:02Z</time>
      </trkpt>
      <trkpt lat="50.01056" lon="2.38188">
        <ele>127.3</ele>
        <time>2022-11-16T15:20:03Z</time>
      </trkpt>
      <trkpt lat="50.01056" lon="2.38188">
        <ele>127.3</ele>
        <time>2022-11-16T15:20:05Z</time>
      </trkpt>
      <trkpt lat="50.01055" lon="2.38189">
        <ele>127.3</ele>
        <time>2022-11-16T15:20:06Z</time>
      </trkpt>
      <trkpt lat="50.01054" lon="2.3819">
        <ele>127.3</ele>
        <time>2022-11-16T15:20:07Z</time>
      </trkpt>
      <trkpt lat="50.01054" lon="2.38191">
        <ele>127.3</ele>
        <time>2022-11-16T15:20:08Z</time>
      </trkpt>
      <trkpt lat="50.01053" lon="2.38193">
        <ele>127.3</ele>
        <time>2022-11-16T15:20:09Z</time>
      </trkpt>
      <trkpt lat="50.01052" lon="2.38194">
        <ele>127.3</ele>
        <time>2022-11-16T15:20:10Z</time>
      </trkpt>
      <trkpt lat="50.01051" lon="2.38196">
        <ele>127.3</ele>
        <time>2022-11-16T15:20:12Z</time>
      </trkpt>
      <trkpt lat="50.01051" lon="2.38197">
        <ele>127.3</ele>
        <time>2022-11-16T15:20:13Z</time>
      </trkpt>
      <trkpt lat="50.0105" lon="2.38198">
        <ele>127.3</ele>
        <time>2022-11-16T15:20:14Z</time>
      </trkpt>
      <trkpt lat="50.01049" lon="2.38199">
        <ele>127.3</ele>
        <time>2022-11-16T15:20:15Z</time>
      </trkpt>
      <trkpt lat="50.01049" lon="2.382">
        <ele>127.3</ele>
        <time>2022-11-16T15:20:16Z</time>
      </trkpt>
      <trkpt lat="50.01048" lon="2.38201">
        <ele>127.2</ele>
        <time>2022-11-16T15:20:17Z</time>
      </trkpt>
      <trkpt lat="50.01048" lon="2.38202">
        <ele>127.2</ele>
        <time>2022-11-16T15:20:18Z</time>
      </trkpt>
      <trkpt lat="50.01047" lon="2.38203">
        <ele>127.2</ele>
        <time>2022-11-16T15:20:19Z</time>
      </trkpt>
      <trkpt lat="50.01046" lon="2.38205">
        <ele>127.2</ele>
        <time>2022-11-16T15:20:20Z</time>
      </trkpt>
      <trkpt lat="50.01045" lon="2.38206">
        <ele>127.2</ele>
        <time>2022-11-16T15:20:22Z</time>
      </trkpt>
      <trkpt lat="50.01045" lon="2.38207">
        <ele>127.2</ele>
        <time>2022-11-16T15:20:23Z</time>
      </trkpt>
      <trkpt lat="50.01044" lon="2.38208">
        <ele>127.2</ele>
        <time>2022-11-16T15:20:24Z</time>
      </trkpt>
      <trkpt lat="50.01043" lon="2.38209">
        <ele>127.2</ele>
        <time>2022-11-16T15:20:25Z</time>
      </trkpt>
      <trkpt lat="50.01042" lon="2.3821">
        <ele>127.2</ele>
        <time>2022-11-16T15:20:26Z</time>
      </trkpt>
      <trkpt lat="50.01041" lon="2.38211">
        <ele>127.2</ele>
        <time>2022-11-16T15:20:27Z</time>
      </trkpt>
      <trkpt lat="50.0104" lon="2.38212">
        <ele>127.2</ele>
        <time>2022-11-16T15:20:28Z</time>
      </trkpt>
      <trkpt lat="50.01039" lon="2.38213">
        <ele>127.2</ele>
        <time>2022-11-16T15:20:30Z</time>
      </trkpt>
      <trkpt lat="50.01039" lon="2.38214">
        <ele>127.2</ele>
        <time>2022-11-16T15:20:31Z</time>
      </trkpt>
      <trkpt lat="50.01037" lon="2.38217">
        <ele>127.1</ele>
        <time>2022-11-16T15:20:32Z</time>
      </trkpt>
      <trkpt lat="50.01036" lon="2.38217">
        <ele>127.1</ele>
        <time>2022-11-16T15:20:33Z</time>
      </trkpt>
      <trkpt lat="50.01036" lon="2.38218">
        <ele>127.1</ele>
        <time>2022-11-16T15:20:34Z</time>
      </trkpt>
      <trkpt lat="50.01035" lon="2.3822">
        <ele>127.1</ele>
        <time>2022-11-16T15:20:35Z</time>
      </trkpt>
      <trkpt lat="50.01034" lon="2.38221">
        <ele>127.1</ele>
        <time>2022-11-16T15:20:37Z</time>
      </trkpt>
      <trkpt lat="50.01033" lon="2.38222">
        <ele>127.1</ele>
        <time>2022-11-16T15:20:38Z</time>
      </trkpt>
      <trkpt lat="50.01032" lon="2.38223">
        <ele>127.1</ele>
        <time>2022-11-16T15:20:39Z</time>
      </trkpt>
      <trkpt lat="50.01032" lon="2.38224">
        <ele>127.1</ele>
        <time>2022-11-16T15:20:40Z</time>
      </trkpt>
      <trkpt lat="50.01031" lon="2.38225">
        <ele>127</ele>
        <time>2022-11-16T15:20:41Z</time>
      </trkpt>
      <trkpt lat="50.0103" lon="2.38226">
        <ele>127</ele>
        <time>2022-11-16T15:20:42Z</time>
      </trkpt>
      <trkpt lat="50.01029" lon="2.38227">
        <ele>127</ele>
        <time>2022-11-16T15:20:43Z</time>
      </trkpt>
      <trkpt lat="50.01029" lon="2.38229">
        <ele>127</ele>
        <time>2022-11-16T15:20:44Z</time>
      </trkpt>
      <trkpt lat="50.01027" lon="2.38231">
        <ele>127</ele>
        <time>2022-11-16T15:20:46Z</time>
      </trkpt>
      <trkpt lat="50.01027" lon="2.38232">
        <ele>127</ele>
        <time>2022-11-16T15:20:47Z</time>
      </trkpt>
      <trkpt lat="50.01026" lon="2.38233">
        <ele>126.9</ele>
        <time>2022-11-16T15:20:48Z</time>
      </trkpt>
      <trkpt lat="50.01025" lon="2.38234">
        <ele>126.9</ele>
        <time>2022-11-16T15:20:49Z</time>
      </trkpt>
      <trkpt lat="50.01024" lon="2.38236">
        <ele>126.9</ele>
        <time>2022-11-16T15:20:50Z</time>
      </trkpt>
      <trkpt lat="50.01024" lon="2.38237">
        <ele>126.9</ele>
        <time>2022-11-16T15:20:51Z</time>
      </trkpt>
      <trkpt lat="50.01023" lon="2.38238">
        <ele>126.9</ele>
        <time>2022-11-16T15:20:53Z</time>
      </trkpt>
      <trkpt lat="50.01022" lon="2.3824">
        <ele>126.9</ele>
        <time>2022-11-16T15:20:54Z</time>
      </trkpt>
      <trkpt lat="50.01021" lon="2.38241">
        <ele>126.9</ele>
        <time>2022-11-16T15:20:55Z</time>
      </trkpt>
      <trkpt lat="50.01021" lon="2.38242">
        <ele>126.9</ele>
        <time>2022-11-16T15:20:56Z</time>
      </trkpt>
      <trkpt lat="50.0102" lon="2.38243">
        <ele>126.9</ele>
        <time>2022-11-16T15:20:57Z</time>
      </trkpt>
      <trkpt lat="50.01019" lon="2.38245">
        <ele>126.9</ele>
        <time>2022-11-16T15:20:58Z</time>
      </trkpt>
      <trkpt lat="50.01018" lon="2.38246">
        <ele>126.9</ele>
        <time>2022-11-16T15:20:59Z</time>
      </trkpt>
      <trkpt lat="50.01017" lon="2.38247">
        <ele>126.8</ele>
        <time>2022-11-16T15:21:01Z</time>
      </trkpt>
      <trkpt lat="50.01017" lon="2.38248">
        <ele>126.8</ele>
        <time>2022-11-16T15:21:02Z</time>
      </trkpt>
      <trkpt lat="50.01016" lon="2.3825">
        <ele>126.8</ele>
        <time>2022-11-16T15:21:03Z</time>
      </trkpt>
      <trkpt lat="50.01015" lon="2.38251">
        <ele>126.8</ele>
        <time>2022-11-16T15:21:04Z</time>
      </trkpt>
      <trkpt lat="50.01015" lon="2.38252">
        <ele>126.8</ele>
        <time>2022-11-16T15:21:05Z</time>
      </trkpt>
      <trkpt lat="50.01014" lon="2.38254">
        <ele>126.8</ele>
        <time>2022-11-16T15:21:06Z</time>
      </trkpt>
      <trkpt lat="50.01013" lon="2.38255">
        <ele>126.8</ele>
        <time>2022-11-16T15:21:08Z</time>
      </trkpt>
      <trkpt lat="50.01013" lon="2.38256">
        <ele>126.8</ele>
        <time>2022-11-16T15:21:09Z</time>
      </trkpt>
      <trkpt lat="50.01012" lon="2.38257">
        <ele>126.8</ele>
        <time>2022-11-16T15:21:10Z</time>
      </trkpt>
      <trkpt lat="50.01012" lon="2.38259">
        <ele>126.8</ele>
        <time>2022-11-16T15:21:11Z</time>
      </trkpt>
      <trkpt lat="50.01011" lon="2.38261">
        <ele>126.8</ele>
        <time>2022-11-16T15:21:12Z</time>
      </trkpt>
      <trkpt lat="50.01009" lon="2.38263">
        <ele>126.8</ele>
        <time>2022-11-16T15:21:13Z</time>
      </trkpt>
      <trkpt lat="50.01009" lon="2.38264">
        <ele>126.8</ele>
        <time>2022-11-16T15:21:15Z</time>
      </trkpt>
      <trkpt lat="50.01008" lon="2.38265">
        <ele>126.8</ele>
        <time>2022-11-16T15:21:16Z</time>
      </trkpt>
      <trkpt lat="50.01007" lon="2.38266">
        <ele>126.8</ele>
        <time>2022-11-16T15:21:17Z</time>
      </trkpt>
      <trkpt lat="50.01007" lon="2.38267">
        <ele>126.8</ele>
        <time>2022-11-16T15:21:18Z</time>
      </trkpt>
      <trkpt lat="50.01006" lon="2.38268">
        <ele>126.8</ele>
        <time>2022-11-16T15:21:19Z</time>
      </trkpt>
      <trkpt lat="50.01006" lon="2.38269">
        <ele>126.8</ele>
        <time>2022-11-16T15:21:20Z</time>
      </trkpt>
      <trkpt lat="50.01005" lon="2.3827">
        <ele>126.8</ele>
        <time>2022-11-16T15:21:21Z</time>
      </trkpt>
      <trkpt lat="50.01004" lon="2.38272">
        <ele>126.8</ele>
        <time>2022-11-16T15:21:22Z</time>
      </trkpt>
      <trkpt lat="50.01004" lon="2.38273">
        <ele>126.8</ele>
        <time>2022-11-16T15:21:23Z</time>
      </trkpt>
      <trkpt lat="50.01003" lon="2.38274">
        <ele>126.8</ele>
        <time>2022-11-16T15:21:24Z</time>
      </trkpt>
      <trkpt lat="50.01002" lon="2.38275">
        <ele>126.8</ele>
        <time>2022-11-16T15:21:26Z</time>
      </trkpt>
      <trkpt lat="50.01001" lon="2.38276">
        <ele>126.8</ele>
        <time>2022-11-16T15:21:27Z</time>
      </trkpt>
      <trkpt lat="50.01001" lon="2.38277">
        <ele>126.8</ele>
        <time>2022-11-16T15:21:28Z</time>
      </trkpt>
      <trkpt lat="50.01" lon="2.38279">
        <ele>126.8</ele>
        <time>2022-11-16T15:21:29Z</time>
      </trkpt>
      <trkpt lat="50.00999" lon="2.3828">
        <ele>126.8</ele>
        <time>2022-11-16T15:21:30Z</time>
      </trkpt>
      <trkpt lat="50.00998" lon="2.38281">
        <ele>126.8</ele>
        <time>2022-11-16T15:21:31Z</time>
      </trkpt>
      <trkpt lat="50.00997" lon="2.38282">
        <ele>126.8</ele>
        <time>2022-11-16T15:21:32Z</time>
      </trkpt>
      <trkpt lat="50.00996" lon="2.38283">
        <ele>126.8</ele>
        <time>2022-11-16T15:21:34Z</time>
      </trkpt>
      <trkpt lat="50.00995" lon="2.38284">
        <ele>126.8</ele>
        <time>2022-11-16T15:21:35Z</time>
      </trkpt>
      <trkpt lat="50.00995" lon="2.38285">
        <ele>126.9</ele>
        <time>2022-11-16T15:21:36Z</time>
      </trkpt>
      <trkpt lat="50.00994" lon="2.38286">
        <ele>126.9</ele>
        <time>2022-11-16T15:21:37Z</time>
      </trkpt>
      <trkpt lat="50.00992" lon="2.38289">
        <ele>126.9</ele>
        <time>2022-11-16T15:21:38Z</time>
      </trkpt>
      <trkpt lat="50.00992" lon="2.38289">
        <ele>126.9</ele>
        <time>2022-11-16T15:21:39Z</time>
      </trkpt>
      <trkpt lat="50.00991" lon="2.3829">
        <ele>126.9</ele>
        <time>2022-11-16T15:21:40Z</time>
      </trkpt>
      <trkpt lat="50.0099" lon="2.38291">
        <ele>126.9</ele>
        <time>2022-11-16T15:21:41Z</time>
      </trkpt>
      <trkpt lat="50.00989" lon="2.38293">
        <ele>126.9</ele>
        <time>2022-11-16T15:21:43Z</time>
      </trkpt>
      <trkpt lat="50.00988" lon="2.38294">
        <ele>126.9</ele>
        <time>2022-11-16T15:21:44Z</time>
      </trkpt>
      <trkpt lat="50.00987" lon="2.38296">
        <ele>126.9</ele>
        <time>2022-11-16T15:21:45Z</time>
      </trkpt>
      <trkpt lat="50.00986" lon="2.38297">
        <ele>126.9</ele>
        <time>2022-11-16T15:21:46Z</time>
      </trkpt>
      <trkpt lat="50.00985" lon="2.38297">
        <ele>127</ele>
        <time>2022-11-16T15:21:47Z</time>
      </trkpt>
      <trkpt lat="50.00985" lon="2.38298">
        <ele>127</ele>
        <time>2022-11-16T15:21:48Z</time>
      </trkpt>
      <trkpt lat="50.00984" lon="2.38299">
        <ele>127</ele>
        <time>2022-11-16T15:21:49Z</time>
      </trkpt>
      <trkpt lat="50.00983" lon="2.38301">
        <ele>127</ele>
        <time>2022-11-16T15:21:51Z</time>
      </trkpt>
      <trkpt lat="50.00982" lon="2.38302">
        <ele>127</ele>
        <time>2022-11-16T15:21:52Z</time>
      </trkpt>
      <trkpt lat="50.00981" lon="2.38304">
        <ele>127</ele>
        <time>2022-11-16T15:21:53Z</time>
      </trkpt>
      <trkpt lat="50.00979" lon="2.38306">
        <ele>127.1</ele>
        <time>2022-11-16T15:21:54Z</time>
      </trkpt>
      <trkpt lat="50.00979" lon="2.38308">
        <ele>127.1</ele>
        <time>2022-11-16T15:21:56Z</time>
      </trkpt>
      <trkpt lat="50.00978" lon="2.38309">
        <ele>127.1</ele>
        <time>2022-11-16T15:21:57Z</time>
      </trkpt>
      <trkpt lat="50.00977" lon="2.3831">
        <ele>127.1</ele>
        <time>2022-11-16T15:21:59Z</time>
      </trkpt>
      <trkpt lat="50.00976" lon="2.38312">
        <ele>127.2</ele>
        <time>2022-11-16T15:22:00Z</time>
      </trkpt>
      <trkpt lat="50.00975" lon="2.38313">
        <ele>127.2</ele>
        <time>2022-11-16T15:22:01Z</time>
      </trkpt>
      <trkpt lat="50.00974" lon="2.38315">
        <ele>127.2</ele>
        <time>2022-11-16T15:22:03Z</time>
      </trkpt>
      <trkpt lat="50.00974" lon="2.38315">
        <ele>127.2</ele>
        <time>2022-11-16T15:22:04Z</time>
      </trkpt>
      <trkpt lat="50.00974" lon="2.38316">
        <ele>127.2</ele>
        <time>2022-11-16T15:22:05Z</time>
      </trkpt>
      <trkpt lat="50.00973" lon="2.38317">
        <ele>127.2</ele>
        <time>2022-11-16T15:22:07Z</time>
      </trkpt>
      <trkpt lat="50.00972" lon="2.38319">
        <ele>127.2</ele>
        <time>2022-11-16T15:22:08Z</time>
      </trkpt>
      <trkpt lat="50.00972" lon="2.38321">
        <ele>127.1</ele>
        <time>2022-11-16T15:22:09Z</time>
      </trkpt>
      <trkpt lat="50.00971" lon="2.38322">
        <ele>127.1</ele>
        <time>2022-11-16T15:22:10Z</time>
      </trkpt>
      <trkpt lat="50.00971" lon="2.38324">
        <ele>127.1</ele>
        <time>2022-11-16T15:22:12Z</time>
      </trkpt>
      <trkpt lat="50.0097" lon="2.38325">
        <ele>127.1</ele>
        <time>2022-11-16T15:22:13Z</time>
      </trkpt>
      <trkpt lat="50.0097" lon="2.38326">
        <ele>127.1</ele>
        <time>2022-11-16T15:22:14Z</time>
      </trkpt>
      <trkpt lat="50.00969" lon="2.38327">
        <ele>127.1</ele>
        <time>2022-11-16T15:22:16Z</time>
      </trkpt>
      <trkpt lat="50.00969" lon="2.38327">
        <ele>127.1</ele>
        <time>2022-11-16T15:22:17Z</time>
      </trkpt>
      <trkpt lat="50.00969" lon="2.38328">
        <ele>127</ele>
        <time>2022-11-16T15:22:18Z</time>
      </trkpt>
      <trkpt lat="50.00969" lon="2.38329">
        <ele>127</ele>
        <time>2022-11-16T15:22:20Z</time>
      </trkpt>
      <trkpt lat="50.00969" lon="2.38329">
        <ele>127</ele>
        <time>2022-11-16T15:22:21Z</time>
      </trkpt>
      <trkpt lat="50.00969" lon="2.38329">
        <ele>127</ele>
        <time>2022-11-16T15:22:22Z</time>
      </trkpt>
      <trkpt lat="50.00968" lon="2.38329">
        <ele>127</ele>
        <time>2022-11-16T15:22:23Z</time>
      </trkpt>
      <trkpt lat="50.00968" lon="2.3833">
        <ele>127</ele>
        <time>2022-11-16T15:22:24Z</time>
      </trkpt>
      <trkpt lat="50.00968" lon="2.38331">
        <ele>127</ele>
        <time>2022-11-16T15:22:25Z</time>
      </trkpt>
      <trkpt lat="50.00968" lon="2.38332">
        <ele>126.9</ele>
        <time>2022-11-16T15:22:26Z</time>
      </trkpt>
      <trkpt lat="50.00968" lon="2.38334">
        <ele>126.9</ele>
        <time>2022-11-16T15:22:27Z</time>
      </trkpt>
      <trkpt lat="50.00968" lon="2.38335">
        <ele>126.9</ele>
        <time>2022-11-16T15:22:28Z</time>
      </trkpt>
      <trkpt lat="50.00968" lon="2.38337">
        <ele>126.9</ele>
        <time>2022-11-16T15:22:29Z</time>
      </trkpt>
      <trkpt lat="50.00968" lon="2.3834">
        <ele>126.8</ele>
        <time>2022-11-16T15:22:31Z</time>
      </trkpt>
      <trkpt lat="50.00968" lon="2.38341">
        <ele>126.8</ele>
        <time>2022-11-16T15:22:32Z</time>
      </trkpt>
      <trkpt lat="50.00968" lon="2.38343">
        <ele>126.8</ele>
        <time>2022-11-16T15:22:33Z</time>
      </trkpt>
      <trkpt lat="50.00968" lon="2.38345">
        <ele>126.8</ele>
        <time>2022-11-16T15:22:34Z</time>
      </trkpt>
      <trkpt lat="50.00968" lon="2.38346">
        <ele>126.8</ele>
        <time>2022-11-16T15:22:35Z</time>
      </trkpt>
      <trkpt lat="50.00969" lon="2.38348">
        <ele>126.8</ele>
        <time>2022-11-16T15:22:37Z</time>
      </trkpt>
      <trkpt lat="50.00969" lon="2.38349">
        <ele>126.8</ele>
        <time>2022-11-16T15:22:38Z</time>
      </trkpt>
      <trkpt lat="50.0097" lon="2.38351">
        <ele>126.8</ele>
        <time>2022-11-16T15:22:39Z</time>
      </trkpt>
      <trkpt lat="50.00971" lon="2.38353">
        <ele>126.8</ele>
        <time>2022-11-16T15:22:41Z</time>
      </trkpt>
      <trkpt lat="50.00972" lon="2.38357">
        <ele>126.8</ele>
        <time>2022-11-16T15:22:43Z</time>
      </trkpt>
      <trkpt lat="50.00972" lon="2.38357">
        <ele>126.8</ele>
        <time>2022-11-16T15:22:44Z</time>
      </trkpt>
      <trkpt lat="50.00972" lon="2.38358">
        <ele>126.8</ele>
        <time>2022-11-16T15:22:45Z</time>
      </trkpt>
      <trkpt lat="50.00973" lon="2.3836">
        <ele>126.7</ele>
        <time>2022-11-16T15:22:46Z</time>
      </trkpt>
      <trkpt lat="50.00973" lon="2.38361">
        <ele>126.7</ele>
        <time>2022-11-16T15:22:47Z</time>
      </trkpt>
      <trkpt lat="50.00973" lon="2.38363">
        <ele>126.7</ele>
        <time>2022-11-16T15:22:49Z</time>
      </trkpt>
      <trkpt lat="50.00972" lon="2.38364">
        <ele>126.7</ele>
        <time>2022-11-16T15:22:50Z</time>
      </trkpt>
      <trkpt lat="50.00972" lon="2.38365">
        <ele>126.7</ele>
        <time>2022-11-16T15:22:51Z</time>
      </trkpt>
      <trkpt lat="50.00972" lon="2.38366">
        <ele>126.7</ele>
        <time>2022-11-16T15:22:52Z</time>
      </trkpt>
      <trkpt lat="50.00971" lon="2.38366">
        <ele>126.7</ele>
        <time>2022-11-16T15:22:53Z</time>
      </trkpt>
      <trkpt lat="50.00971" lon="2.38367">
        <ele>126.7</ele>
        <time>2022-11-16T15:22:55Z</time>
      </trkpt>
      <trkpt lat="50.0097" lon="2.38368">
        <ele>126.7</ele>
        <time>2022-11-16T15:22:56Z</time>
      </trkpt>
      <trkpt lat="50.0097" lon="2.38368">
        <ele>126.7</ele>
        <time>2022-11-16T15:22:57Z</time>
      </trkpt>
      <trkpt lat="50.0097" lon="2.38369">
        <ele>126.7</ele>
        <time>2022-11-16T15:22:58Z</time>
      </trkpt>
      <trkpt lat="50.00969" lon="2.38369">
        <ele>126.7</ele>
        <time>2022-11-16T15:22:59Z</time>
      </trkpt>
      <trkpt lat="50.00969" lon="2.3837">
        <ele>126.7</ele>
        <time>2022-11-16T15:23:00Z</time>
      </trkpt>
      <trkpt lat="50.00968" lon="2.38371">
        <ele>126.7</ele>
        <time>2022-11-16T15:23:01Z</time>
      </trkpt>
      <trkpt lat="50.00968" lon="2.38372">
        <ele>126.7</ele>
        <time>2022-11-16T15:23:02Z</time>
      </trkpt>
      <trkpt lat="50.00968" lon="2.38373">
        <ele>126.7</ele>
        <time>2022-11-16T15:23:04Z</time>
      </trkpt>
      <trkpt lat="50.00968" lon="2.38373">
        <ele>126.7</ele>
        <time>2022-11-16T15:23:05Z</time>
      </trkpt>
      <trkpt lat="50.00968" lon="2.38374">
        <ele>126.7</ele>
        <time>2022-11-16T15:23:06Z</time>
      </trkpt>
      <trkpt lat="50.00967" lon="2.38375">
        <ele>126.7</ele>
        <time>2022-11-16T15:23:07Z</time>
      </trkpt>
      <trkpt lat="50.00967" lon="2.38376">
        <ele>126.7</ele>
        <time>2022-11-16T15:23:08Z</time>
      </trkpt>
      <trkpt lat="50.00967" lon="2.38376">
        <ele>126.7</ele>
        <time>2022-11-16T15:23:10Z</time>
      </trkpt>
      <trkpt lat="50.00967" lon="2.38377">
        <ele>126.7</ele>
        <time>2022-11-16T15:23:11Z</time>
      </trkpt>
      <trkpt lat="50.00967" lon="2.38379">
        <ele>126.6</ele>
        <time>2022-11-16T15:23:12Z</time>
      </trkpt>
      <trkpt lat="50.00967" lon="2.3838">
        <ele>126.6</ele>
        <time>2022-11-16T15:23:13Z</time>
      </trkpt>
      <trkpt lat="50.00967" lon="2.38382">
        <ele>126.6</ele>
        <time>2022-11-16T15:23:14Z</time>
      </trkpt>
      <trkpt lat="50.00967" lon="2.38383">
        <ele>126.6</ele>
        <time>2022-11-16T15:23:15Z</time>
      </trkpt>
      <trkpt lat="50.00967" lon="2.38385">
        <ele>126.6</ele>
        <time>2022-11-16T15:23:16Z</time>
      </trkpt>
      <trkpt lat="50.00967" lon="2.38386">
        <ele>126.6</ele>
        <time>2022-11-16T15:23:17Z</time>
      </trkpt>
      <trkpt lat="50.00967" lon="2.38388">
        <ele>126.6</ele>
        <time>2022-11-16T15:23:19Z</time>
      </trkpt>
      <trkpt lat="50.00967" lon="2.38389">
        <ele>126.6</ele>
        <time>2022-11-16T15:23:20Z</time>
      </trkpt>
      <trkpt lat="50.00966" lon="2.3839">
        <ele>126.6</ele>
        <time>2022-11-16T15:23:21Z</time>
      </trkpt>
      <trkpt lat="50.00966" lon="2.38391">
        <ele>126.6</ele>
        <time>2022-11-16T15:23:22Z</time>
      </trkpt>
      <trkpt lat="50.00966" lon="2.38393">
        <ele>126.6</ele>
        <time>2022-11-16T15:23:23Z</time>
      </trkpt>
      <trkpt lat="50.00966" lon="2.38394">
        <ele>126.6</ele>
        <time>2022-11-16T15:23:24Z</time>
      </trkpt>
      <trkpt lat="50.00966" lon="2.38395">
        <ele>126.6</ele>
        <time>2022-11-16T15:23:25Z</time>
      </trkpt>
      <trkpt lat="50.00966" lon="2.38397">
        <ele>126.6</ele>
        <time>2022-11-16T15:23:26Z</time>
      </trkpt>
      <trkpt lat="50.00965" lon="2.38399">
        <ele>126.6</ele>
        <time>2022-11-16T15:23:27Z</time>
      </trkpt>
      <trkpt lat="50.00965" lon="2.384">
        <ele>126.6</ele>
        <time>2022-11-16T15:23:29Z</time>
      </trkpt>
      <trkpt lat="50.00965" lon="2.38401">
        <ele>126.6</ele>
        <time>2022-11-16T15:23:30Z</time>
      </trkpt>
      <trkpt lat="50.00965" lon="2.38401">
        <ele>126.6</ele>
        <time>2022-11-16T15:23:31Z</time>
      </trkpt>
      <trkpt lat="50.00965" lon="2.38402">
        <ele>126.6</ele>
        <time>2022-11-16T15:23:32Z</time>
      </trkpt>
      <trkpt lat="50.00964" lon="2.38402">
        <ele>126.5</ele>
        <time>2022-11-16T15:23:33Z</time>
      </trkpt>
      <trkpt lat="50.00964" lon="2.38402">
        <ele>126.5</ele>
        <time>2022-11-16T15:23:34Z</time>
      </trkpt>
      <trkpt lat="50.00963" lon="2.38402">
        <ele>126.5</ele>
        <time>2022-11-16T15:23:35Z</time>
      </trkpt>
      <trkpt lat="50.00963" lon="2.38403">
        <ele>126.5</ele>
        <time>2022-11-16T15:23:37Z</time>
      </trkpt>
      <trkpt lat="50.00964" lon="2.38403">
        <ele>126.5</ele>
        <time>2022-11-16T15:23:38Z</time>
      </trkpt>
      <trkpt lat="50.00964" lon="2.38404">
        <ele>126.5</ele>
        <time>2022-11-16T15:23:39Z</time>
      </trkpt>
      <trkpt lat="50.00965" lon="2.38404">
        <ele>126.5</ele>
        <time>2022-11-16T15:23:40Z</time>
      </trkpt>
      <trkpt lat="50.00965" lon="2.38404">
        <ele>126.5</ele>
        <time>2022-11-16T15:23:41Z</time>
      </trkpt>
      <trkpt lat="50.00966" lon="2.38404">
        <ele>126.5</ele>
        <time>2022-11-16T15:23:42Z</time>
      </trkpt>
      <trkpt lat="50.00966" lon="2.38404">
        <ele>126.5</ele>
        <time>2022-11-16T15:23:43Z</time>
      </trkpt>
      <trkpt lat="50.00966" lon="2.38405">
        <ele>126.5</ele>
        <time>2022-11-16T15:23:45Z</time>
      </trkpt>
      <trkpt lat="50.00967" lon="2.38405">
        <ele>126.5</ele>
        <time>2022-11-16T15:23:46Z</time>
      </trkpt>
      <trkpt lat="50.00967" lon="2.38405">
        <ele>126.5</ele>
        <time>2022-11-16T15:23:47Z</time>
      </trkpt>
      <trkpt lat="50.00968" lon="2.38405">
        <ele>126.5</ele>
        <time>2022-11-16T15:23:48Z</time>
      </trkpt>
      <trkpt lat="50.00968" lon="2.38406">
        <ele>126.5</ele>
        <time>2022-11-16T15:23:49Z</time>
      </trkpt>
      <trkpt lat="50.00969" lon="2.38405">
        <ele>126.5</ele>
        <time>2022-11-16T15:23:51Z</time>
      </trkpt>
      <trkpt lat="50.00971" lon="2.38405">
        <ele>126.5</ele>
        <time>2022-11-16T15:23:52Z</time>
      </trkpt>
      <trkpt lat="50.00971" lon="2.38405">
        <ele>126.5</ele>
        <time>2022-11-16T15:23:53Z</time>
      </trkpt>
      <trkpt lat="50.00972" lon="2.38404">
        <ele>126.5</ele>
        <time>2022-11-16T15:23:54Z</time>
      </trkpt>
      <trkpt lat="50.00973" lon="2.38404">
        <ele>126.5</ele>
        <time>2022-11-16T15:23:55Z</time>
      </trkpt>
      <trkpt lat="50.00973" lon="2.38403">
        <ele>126.5</ele>
        <time>2022-11-16T15:23:56Z</time>
      </trkpt>
      <trkpt lat="50.00973" lon="2.38403">
        <ele>126.5</ele>
        <time>2022-11-16T15:23:57Z</time>
      </trkpt>
      <trkpt lat="50.00973" lon="2.38402">
        <ele>126.5</ele>
        <time>2022-11-16T15:23:58Z</time>
      </trkpt>
      <trkpt lat="50.00973" lon="2.38402">
        <ele>126.5</ele>
        <time>2022-11-16T15:23:59Z</time>
      </trkpt>
      <trkpt lat="50.00973" lon="2.38402">
        <ele>126.5</ele>
        <time>2022-11-16T15:24:00Z</time>
      </trkpt>
      <trkpt lat="50.00973" lon="2.38402">
        <ele>126.5</ele>
        <time>2022-11-16T15:24:01Z</time>
      </trkpt>
      <trkpt lat="50.00973" lon="2.38402">
        <ele>126.5</ele>
        <time>2022-11-16T15:24:02Z</time>
      </trkpt>
      <trkpt lat="50.00973" lon="2.38402">
        <ele>126.5</ele>
        <time>2022-11-16T15:24:03Z</time>
      </trkpt>
      <trkpt lat="50.00973" lon="2.38402">
        <ele>126.5</ele>
        <time>2022-11-16T15:24:04Z</time>
      </trkpt>
      <trkpt lat="50.00972" lon="2.38402">
        <ele>126.5</ele>
        <time>2022-11-16T15:24:05Z</time>
      </trkpt>
      <trkpt lat="50.00972" lon="2.38402">
        <ele>126.5</ele>
        <time>2022-11-16T15:24:06Z</time>
      </trkpt>
      <trkpt lat="50.00972" lon="2.38402">
        <ele>126.5</ele>
        <time>2022-11-16T15:24:07Z</time>
      </trkpt>
      <trkpt lat="50.00972" lon="2.38402">
        <ele>126.5</ele>
        <time>2022-11-16T15:24:08Z</time>
      </trkpt>
      <trkpt lat="50.00972" lon="2.38402">
        <ele>126.5</ele>
        <time>2022-11-16T15:24:09Z</time>
      </trkpt>
      <trkpt lat="50.00972" lon="2.38403">
        <ele>126.5</ele>
        <time>2022-11-16T15:24:10Z</time>
      </trkpt>
      <trkpt lat="50.00972" lon="2.38403">
        <ele>126.5</ele>
        <time>2022-11-16T15:24:11Z</time>
      </trkpt>
      <trkpt lat="50.00972" lon="2.38403">
        <ele>126.5</ele>
        <time>2022-11-16T15:24:12Z</time>
      </trkpt>
      <trkpt lat="50.00972" lon="2.38403">
        <ele>126.5</ele>
        <time>2022-11-16T15:24:13Z</time>
      </trkpt>
      <trkpt lat="50.00972" lon="2.38403">
        <ele>126.5</ele>
        <time>2022-11-16T15:24:14Z</time>
      </trkpt>
      <trkpt lat="50.00972" lon="2.38403">
        <ele>126.5</ele>
        <time>2022-11-16T15:24:15Z</time>
      </trkpt>
      <trkpt lat="50.00972" lon="2.38403">
        <ele>126.5</ele>
        <time>2022-11-16T15:24:16Z</time>
      </trkpt>
      <trkpt lat="50.00972" lon="2.38403">
        <ele>126.5</ele>
        <time>2022-11-16T15:24:17Z</time>
      </trkpt>
      <trkpt lat="50.00972" lon="2.38403">
        <ele>126.5</ele>
        <time>2022-11-16T15:24:18Z</time>
      </trkpt>
      <trkpt lat="50.00972" lon="2.38403">
        <ele>126.5</ele>
        <time>2022-11-16T15:24:19Z</time>
      </trkpt>
      <trkpt lat="50.00972" lon="2.38403">
        <ele>126.5</ele>
        <time>2022-11-16T15:24:20Z</time>
      </trkpt>
      <trkpt lat="50.00972" lon="2.38403">
        <ele>126.5</ele>
        <time>2022-11-16T15:24:21Z</time>
      </trkpt>
      <trkpt lat="50.00972" lon="2.38403">
        <ele>126.5</ele>
        <time>2022-11-16T15:24:22Z</time>
      </trkpt>
      <trkpt lat="50.00972" lon="2.38403">
        <ele>126.5</ele>
        <time>2022-11-16T15:24:23Z</time>
      </trkpt>
      <trkpt lat="50.00972" lon="2.38403">
        <ele>126.5</ele>
        <time>2022-11-16T15:24:24Z</time>
      </trkpt>
      <trkpt lat="50.00972" lon="2.38403">
        <ele>126.5</ele>
        <time>2022-11-16T15:24:25Z</time>
      </trkpt>
      <trkpt lat="50.00972" lon="2.38403">
        <ele>126.5</ele>
        <time>2022-11-16T15:24:26Z</time>
      </trkpt>
      <trkpt lat="50.00972" lon="2.38403">
        <ele>126.5</ele>
        <time>2022-11-16T15:24:27Z</time>
      </trkpt>
      <trkpt lat="50.00972" lon="2.38403">
        <ele>126.5</ele>
        <time>2022-11-16T15:24:28Z</time>
      </trkpt>
      <trkpt lat="50.00972" lon="2.38403">
        <ele>126.5</ele>
        <time>2022-11-16T15:24:29Z</time>
      </trkpt>
      <trkpt lat="50.00972" lon="2.38403">
        <ele>126.5</ele>
        <time>2022-11-16T15:24:30Z</time>
      </trkpt>
      <trkpt lat="50.00972" lon="2.38403">
        <ele>126.5</ele>
        <time>2022-11-16T15:24:31Z</time>
      </trkpt>
      <trkpt lat="50.00972" lon="2.38403">
        <ele>126.5</ele>
        <time>2022-11-16T15:24:32Z</time>
      </trkpt>
      <trkpt lat="50.00972" lon="2.38403">
        <ele>126.5</ele>
        <time>2022-11-16T15:24:33Z</time>
      </trkpt>
      <trkpt lat="50.00972" lon="2.38403">
        <ele>126.5</ele>
        <time>2022-11-16T15:24:34Z</time>
      </trkpt>
      <trkpt lat="50.00972" lon="2.38403">
        <ele>126.5</ele>
        <time>2022-11-16T15:24:35Z</time>
      </trkpt>
      <trkpt lat="50.00972" lon="2.38403">
        <ele>126.5</ele>
        <time>2022-11-16T15:24:36Z</time>
      </trkpt>
      <trkpt lat="50.00972" lon="2.38403">
        <ele>126.5</ele>
        <time>2022-11-16T15:24:37Z</time>
      </trkpt>
      <trkpt lat="50.00972" lon="2.38403">
        <ele>126.5</ele>
        <time>2022-11-16T15:24:38Z</time>
      </trkpt>
      <trkpt lat="50.00972" lon="2.38403">
        <ele>126.5</ele>
        <time>2022-11-16T15:24:39Z</time>
      </trkpt>
      <trkpt lat="50.00972" lon="2.38403">
        <ele>126.5</ele>
        <time>2022-11-16T15:24:40Z</time>
      </trkpt>
      <trkpt lat="50.00972" lon="2.38403">
        <ele>126.5</ele>
        <time>2022-11-16T15:24:41Z</time>
      </trkpt>
      <trkpt lat="50.00972" lon="2.38403">
        <ele>126.5</ele>
        <time>2022-11-16T15:24:42Z</time>
      </trkpt>
      <trkpt lat="50.00972" lon="2.38403">
        <ele>126.5</ele>
        <time>2022-11-16T15:24:43Z</time>
      </trkpt>
      <trkpt lat="50.00972" lon="2.38403">
        <ele>126.5</ele>
        <time>2022-11-16T15:24:44Z</time>
      </trkpt>
      <trkpt lat="50.00972" lon="2.38403">
        <ele>126.5</ele>
        <time>2022-11-16T15:24:45Z</time>
      </trkpt>
      <trkpt lat="50.00972" lon="2.38403">
        <ele>126.5</ele>
        <time>2022-11-16T15:24:46Z</time>
      </trkpt>
      <trkpt lat="50.00972" lon="2.38403">
        <ele>126.5</ele>
        <time>2022-11-16T15:24:47Z</time>
      </trkpt>
      <trkpt lat="50.00972" lon="2.38403">
        <ele>126.5</ele>
        <time>2022-11-16T15:24:48Z</time>
      </trkpt>
      <trkpt lat="50.00972" lon="2.38403">
        <ele>126.5</ele>
        <time>2022-11-16T15:24:49Z</time>
      </trkpt>
      <trkpt lat="50.00972" lon="2.38403">
        <ele>126.5</ele>
        <time>2022-11-16T15:24:50Z</time>
      </trkpt>
      <trkpt lat="50.00972" lon="2.38403">
        <ele>126.5</ele>
        <time>2022-11-16T15:24:51Z</time>
      </trkpt>
      <trkpt lat="50.00972" lon="2.38403">
        <ele>126.5</ele>
        <time>2022-11-16T15:24:52Z</time>
      </trkpt>
      <trkpt lat="50.00972" lon="2.38403">
        <ele>126.5</ele>
        <time>2022-11-16T15:24:53Z</time>
      </trkpt>
      <trkpt lat="50.00972" lon="2.38403">
        <ele>126.5</ele>
        <time>2022-11-16T15:24:54Z</time>
      </trkpt>
      <trkpt lat="50.00972" lon="2.38403">
        <ele>126.5</ele>
        <time>2022-11-16T15:24:55Z</time>
      </trkpt>
      <trkpt lat="50.00972" lon="2.38403">
        <ele>126.5</ele>
        <time>2022-11-16T15:24:56Z</time>
      </trkpt>
      <trkpt lat="50.00972" lon="2.38403">
        <ele>126.5</ele>
        <time>2022-11-16T15:24:57Z</time>
      </trkpt>
      <trkpt lat="50.00972" lon="2.38403">
        <ele>126.5</ele>
        <time>2022-11-16T15:24:58Z</time>
      </trkpt>
      <trkpt lat="50.00972" lon="2.38403">
        <ele>126.5</ele>
        <time>2022-11-16T15:24:59Z</time>
      </trkpt>
      <trkpt lat="50.00972" lon="2.38403">
        <ele>126.5</ele>
        <time>2022-11-16T15:25:00Z</time>
      </trkpt>
      <trkpt lat="50.00972" lon="2.38403">
        <ele>126.5</ele>
        <time>2022-11-16T15:25:01Z</time>
      </trkpt>
      <trkpt lat="50.00972" lon="2.38403">
        <ele>126.5</ele>
        <time>2022-11-16T15:25:02Z</time>
      </trkpt>
      <trkpt lat="50.00972" lon="2.38403">
        <ele>126.5</ele>
        <time>2022-11-16T15:25:03Z</time>
      </trkpt>
      <trkpt lat="50.00972" lon="2.38403">
        <ele>126.5</ele>
        <time>2022-11-16T15:25:04Z</time>
      </trkpt>
      <trkpt lat="50.00972" lon="2.38403">
        <ele>126.5</ele>
        <time>2022-11-16T15:25:05Z</time>
      </trkpt>
      <trkpt lat="50.00972" lon="2.38403">
        <ele>126.5</ele>
        <time>2022-11-16T15:25:06Z</time>
      </trkpt>
      <trkpt lat="50.00972" lon="2.38403">
        <ele>126.5</ele>
        <time>2022-11-16T15:25:07Z</time>
      </trkpt>
      <trkpt lat="50.00972" lon="2.38403">
        <ele>126.5</ele>
        <time>2022-11-16T15:25:08Z</time>
      </trkpt>
      <trkpt lat="50.00972" lon="2.38403">
        <ele>126.5</ele>
        <time>2022-11-16T15:25:09Z</time>
      </trkpt>
      <trkpt lat="50.00972" lon="2.38403">
        <ele>126.5</ele>
        <time>2022-11-16T15:25:10Z</time>
      </trkpt>
      <trkpt lat="50.00972" lon="2.38403">
        <ele>126.5</ele>
        <time>2022-11-16T15:25:11Z</time>
      </trkpt>
      <trkpt lat="50.00972" lon="2.38403">
        <ele>126.5</ele>
        <time>2022-11-16T15:25:12Z</time>
      </trkpt>
      <trkpt lat="50.00972" lon="2.38403">
        <ele>126.5</ele>
        <time>2022-11-16T15:25:13Z</time>
      </trkpt>
      <trkpt lat="50.00972" lon="2.38403">
        <ele>126.5</ele>
        <time>2022-11-16T15:25:14Z</time>
      </trkpt>
      <trkpt lat="50.00972" lon="2.38403">
        <ele>126.5</ele>
        <time>2022-11-16T15:25:15Z</time>
      </trkpt>
      <trkpt lat="50.00972" lon="2.38403">
        <ele>126.5</ele>
        <time>2022-11-16T15:25:16Z</time>
      </trkpt>
      <trkpt lat="50.00972" lon="2.38403">
        <ele>126.5</ele>
        <time>2022-11-16T15:25:17Z</time>
      </trkpt>
      <trkpt lat="50.00972" lon="2.38403">
        <ele>126.5</ele>
        <time>2022-11-16T15:25:18Z</time>
      </trkpt>
      <trkpt lat="50.00972" lon="2.38403">
        <ele>126.5</ele>
        <time>2022-11-16T15:25:19Z</time>
      </trkpt>
      <trkpt lat="50.00972" lon="2.38403">
        <ele>126.5</ele>
        <time>2022-11-16T15:25:20Z</time>
      </trkpt>
      <trkpt lat="50.00972" lon="2.38403">
        <ele>126.5</ele>
        <time>2022-11-16T15:25:21Z</time>
      </trkpt>
      <trkpt lat="50.00972" lon="2.38403">
        <ele>126.5</ele>
        <time>2022-11-16T15:25:22Z</time>
      </trkpt>
      <trkpt lat="50.00972" lon="2.38403">
        <ele>126.5</ele>
        <time>2022-11-16T15:25:23Z</time>
      </trkpt>
      <trkpt lat="50.00972" lon="2.38403">
        <ele>126.5</ele>
        <time>2022-11-16T15:25:24Z</time>
      </trkpt>
      <trkpt lat="50.00972" lon="2.38403">
        <ele>126.5</ele>
        <time>2022-11-16T15:25:25Z</time>
      </trkpt>
      <trkpt lat="50.00972" lon="2.38403">
        <ele>126.5</ele>
        <time>2022-11-16T15:25:26Z</time>
      </trkpt>
      <trkpt lat="50.00972" lon="2.38403">
        <ele>126.5</ele>
        <time>2022-11-16T15:25:27Z</time>
      </trkpt>
      <trkpt lat="50.00972" lon="2.38403">
        <ele>126.5</ele>
        <time>2022-11-16T15:25:28Z</time>
      </trkpt>
      <trkpt lat="50.00972" lon="2.38403">
        <ele>126.5</ele>
        <time>2022-11-16T15:25:29Z</time>
      </trkpt>
      <trkpt lat="50.00972" lon="2.38403">
        <ele>126.5</ele>
        <time>2022-11-16T15:25:30Z</time>
      </trkpt>
      <trkpt lat="50.00972" lon="2.38403">
        <ele>126.5</ele>
        <time>2022-11-16T15:25:31Z</time>
      </trkpt>
      <trkpt lat="50.00972" lon="2.38403">
        <ele>126.5</ele>
        <time>2022-11-16T15:25:32Z</time>
      </trkpt>
      <trkpt lat="50.00972" lon="2.38403">
        <ele>126.5</ele>
        <time>2022-11-16T15:25:33Z</time>
      </trkpt>
      <trkpt lat="50.00972" lon="2.38403">
        <ele>126.5</ele>
        <time>2022-11-16T15:25:34Z</time>
      </trkpt>
      <trkpt lat="50.00972" lon="2.38403">
        <ele>126.5</ele>
        <time>2022-11-16T15:25:35Z</time>
      </trkpt>
      <trkpt lat="50.00972" lon="2.38403">
        <ele>126.5</ele>
        <time>2022-11-16T15:25:36Z</time>
      </trkpt>
      <trkpt lat="50.00972" lon="2.38403">
        <ele>126.5</ele>
        <time>2022-11-16T15:25:37Z</time>
      </trkpt>
      <trkpt lat="50.00972" lon="2.38403">
        <ele>126.5</ele>
        <time>2022-11-16T15:25:38Z</time>
      </trkpt>
      <trkpt lat="50.00972" lon="2.38403">
        <ele>126.5</ele>
        <time>2022-11-16T15:25:39Z</time>
      </trkpt>
      <trkpt lat="50.00972" lon="2.38403">
        <ele>126.5</ele>
        <time>2022-11-16T15:25:40Z</time>
      </trkpt>
      <trkpt lat="50.00969" lon="2.38408">
        <ele>126.4</ele>
        <time>2022-11-16T15:25:41Z</time>
      </trkpt>
      <trkpt lat="50.00967" lon="2.38411">
        <ele>126.4</ele>
        <time>2022-11-16T15:25:42Z</time>
      </trkpt>
      <trkpt lat="50.00966" lon="2.38412">
        <ele>126.4</ele>
        <time>2022-11-16T15:25:43Z</time>
      </trkpt>
      <trkpt lat="50.00966" lon="2.38413">
        <ele>126.4</ele>
        <time>2022-11-16T15:25:44Z</time>
      </trkpt>
      <trkpt lat="50.00966" lon="2.38413">
        <ele>126.4</ele>
        <time>2022-11-16T15:25:45Z</time>
      </trkpt>
      <trkpt lat="50.00965" lon="2.38413">
        <ele>126.4</ele>
        <time>2022-11-16T15:25:46Z</time>
      </trkpt>
      <trkpt lat="50.00965" lon="2.38413">
        <ele>126.4</ele>
        <time>2022-11-16T15:25:47Z</time>
      </trkpt>
      <trkpt lat="50.00965" lon="2.38413">
        <ele>126.4</ele>
        <time>2022-11-16T15:25:48Z</time>
      </trkpt>
      <trkpt lat="50.00965" lon="2.38413">
        <ele>126.4</ele>
        <time>2022-11-16T15:25:49Z</time>
      </trkpt>
      <trkpt lat="50.00965" lon="2.38413">
        <ele>126.4</ele>
        <time>2022-11-16T15:25:50Z</time>
      </trkpt>
      <trkpt lat="50.00965" lon="2.38413">
        <ele>126.4</ele>
        <time>2022-11-16T15:25:51Z</time>
      </trkpt>
      <trkpt lat="50.00965" lon="2.38413">
        <ele>126.4</ele>
        <time>2022-11-16T15:25:52Z</time>
      </trkpt>
      <trkpt lat="50.00965" lon="2.38413">
        <ele>126.4</ele>
        <time>2022-11-16T15:25:53Z</time>
      </trkpt>
      <trkpt lat="50.00965" lon="2.38413">
        <ele>126.4</ele>
        <time>2022-11-16T15:25:54Z</time>
      </trkpt>
      <trkpt lat="50.00965" lon="2.38413">
        <ele>126.4</ele>
        <time>2022-11-16T15:25:55Z</time>
      </trkpt>
      <trkpt lat="50.00965" lon="2.38413">
        <ele>126.4</ele>
        <time>2022-11-16T15:25:56Z</time>
      </trkpt>
      <trkpt lat="50.00965" lon="2.38413">
        <ele>126.4</ele>
        <time>2022-11-16T15:25:57Z</time>
      </trkpt>
      <trkpt lat="50.00965" lon="2.38413">
        <ele>126.4</ele>
        <time>2022-11-16T15:25:58Z</time>
      </trkpt>
      <trkpt lat="50.00965" lon="2.38413">
        <ele>126.4</ele>
        <time>2022-11-16T15:25:59Z</time>
      </trkpt>
      <trkpt lat="50.00965" lon="2.38413">
        <ele>126.4</ele>
        <time>2022-11-16T15:26:00Z</time>
      </trkpt>
      <trkpt lat="50.00965" lon="2.38413">
        <ele>126.4</ele>
        <time>2022-11-16T15:26:01Z</time>
      </trkpt>
      <trkpt lat="50.00965" lon="2.38413">
        <ele>126.4</ele>
        <time>2022-11-16T15:26:02Z</time>
      </trkpt>
      <trkpt lat="50.00965" lon="2.38413">
        <ele>126.4</ele>
        <time>2022-11-16T15:26:03Z</time>
      </trkpt>
      <trkpt lat="50.00965" lon="2.38413">
        <ele>126.4</ele>
        <time>2022-11-16T15:26:04Z</time>
      </trkpt>
      <trkpt lat="50.00965" lon="2.38413">
        <ele>126.4</ele>
        <time>2022-11-16T15:26:05Z</time>
      </trkpt>
      <trkpt lat="50.00965" lon="2.38413">
        <ele>126.4</ele>
        <time>2022-11-16T15:26:06Z</time>
      </trkpt>
      <trkpt lat="50.00965" lon="2.38413">
        <ele>126.4</ele>
        <time>2022-11-16T15:26:07Z</time>
      </trkpt>
      <trkpt lat="50.00965" lon="2.38413">
        <ele>126.4</ele>
        <time>2022-11-16T15:26:08Z</time>
      </trkpt>
      <trkpt lat="50.00965" lon="2.38413">
        <ele>126.4</ele>
        <time>2022-11-16T15:26:09Z</time>
      </trkpt>
      <trkpt lat="50.00965" lon="2.38413">
        <ele>126.4</ele>
        <time>2022-11-16T15:26:10Z</time>
      </trkpt>
      <trkpt lat="50.00965" lon="2.38413">
        <ele>126.4</ele>
        <time>2022-11-16T15:26:11Z</time>
      </trkpt>
      <trkpt lat="50.00965" lon="2.38413">
        <ele>126.4</ele>
        <time>2022-11-16T15:26:12Z</time>
      </trkpt>
      <trkpt lat="50.00965" lon="2.38413">
        <ele>126.4</ele>
        <time>2022-11-16T15:26:13Z</time>
      </trkpt>
      <trkpt lat="50.00965" lon="2.38413">
        <ele>126.4</ele>
        <time>2022-11-16T15:26:14Z</time>
      </trkpt>
      <trkpt lat="50.00965" lon="2.38413">
        <ele>126.4</ele>
        <time>2022-11-16T15:26:15Z</time>
      </trkpt>
      <trkpt lat="50.00965" lon="2.38413">
        <ele>126.4</ele>
        <time>2022-11-16T15:26:16Z</time>
      </trkpt>
      <trkpt lat="50.00965" lon="2.38413">
        <ele>126.4</ele>
        <time>2022-11-16T15:26:17Z</time>
      </trkpt>
      <trkpt lat="50.00965" lon="2.38413">
        <ele>126.4</ele>
        <time>2022-11-16T15:26:18Z</time>
      </trkpt>
      <trkpt lat="50.00965" lon="2.38413">
        <ele>126.4</ele>
        <time>2022-11-16T15:26:19Z</time>
      </trkpt>
      <trkpt lat="50.00965" lon="2.38413">
        <ele>126.4</ele>
        <time>2022-11-16T15:26:20Z</time>
      </trkpt>
      <trkpt lat="50.00965" lon="2.38414">
        <ele>126.4</ele>
        <time>2022-11-16T15:26:21Z</time>
      </trkpt>
      <trkpt lat="50.00965" lon="2.38414">
        <ele>126.4</ele>
        <time>2022-11-16T15:26:22Z</time>
      </trkpt>
      <trkpt lat="50.00965" lon="2.38414">
        <ele>126.4</ele>
        <time>2022-11-16T15:26:23Z</time>
      </trkpt>
      <trkpt lat="50.00965" lon="2.38414">
        <ele>126.4</ele>
        <time>2022-11-16T15:26:24Z</time>
      </trkpt>
      <trkpt lat="50.00965" lon="2.38414">
        <ele>126.4</ele>
        <time>2022-11-16T15:26:25Z</time>
      </trkpt>
      <trkpt lat="50.00965" lon="2.38413">
        <ele>126.4</ele>
        <time>2022-11-16T15:26:26Z</time>
      </trkpt>
      <trkpt lat="50.00965" lon="2.38413">
        <ele>126.4</ele>
        <time>2022-11-16T15:26:27Z</time>
      </trkpt>
      <trkpt lat="50.00965" lon="2.38413">
        <ele>126.4</ele>
        <time>2022-11-16T15:26:28Z</time>
      </trkpt>
      <trkpt lat="50.00965" lon="2.38413">
        <ele>126.4</ele>
        <time>2022-11-16T15:26:29Z</time>
      </trkpt>
      <trkpt lat="50.00965" lon="2.38413">
        <ele>126.4</ele>
        <time>2022-11-16T15:26:30Z</time>
      </trkpt>
      <trkpt lat="50.00965" lon="2.38413">
        <ele>126.4</ele>
        <time>2022-11-16T15:26:31Z</time>
      </trkpt>
      <trkpt lat="50.00965" lon="2.38413">
        <ele>126.4</ele>
        <time>2022-11-16T15:26:32Z</time>
      </trkpt>
      <trkpt lat="50.00965" lon="2.38413">
        <ele>126.4</ele>
        <time>2022-11-16T15:26:33Z</time>
      </trkpt>
      <trkpt lat="50.00966" lon="2.38413">
        <ele>126.4</ele>
        <time>2022-11-16T15:26:34Z</time>
      </trkpt>
      <trkpt lat="50.00966" lon="2.38413">
        <ele>126.4</ele>
        <time>2022-11-16T15:26:35Z</time>
      </trkpt>
      <trkpt lat="50.00966" lon="2.38413">
        <ele>126.4</ele>
        <time>2022-11-16T15:26:36Z</time>
      </trkpt>
      <trkpt lat="50.00966" lon="2.38413">
        <ele>126.4</ele>
        <time>2022-11-16T15:26:37Z</time>
      </trkpt>
      <trkpt lat="50.00965" lon="2.38413">
        <ele>126.4</ele>
        <time>2022-11-16T15:26:38Z</time>
      </trkpt>
      <trkpt lat="50.00965" lon="2.38413">
        <ele>126.4</ele>
        <time>2022-11-16T15:26:39Z</time>
      </trkpt>
      <trkpt lat="50.00965" lon="2.38413">
        <ele>126.4</ele>
        <time>2022-11-16T15:26:40Z</time>
      </trkpt>
      <trkpt lat="50.00965" lon="2.38413">
        <ele>126.4</ele>
        <time>2022-11-16T15:26:41Z</time>
      </trkpt>
      <trkpt lat="50.00965" lon="2.38413">
        <ele>126.4</ele>
        <time>2022-11-16T15:26:42Z</time>
      </trkpt>
      <trkpt lat="50.00965" lon="2.38413">
        <ele>126.4</ele>
        <time>2022-11-16T15:26:43Z</time>
      </trkpt>
      <trkpt lat="50.00965" lon="2.38413">
        <ele>126.4</ele>
        <time>2022-11-16T15:26:44Z</time>
      </trkpt>
      <trkpt lat="50.00965" lon="2.38413">
        <ele>126.4</ele>
        <time>2022-11-16T15:26:45Z</time>
      </trkpt>
      <trkpt lat="50.00965" lon="2.38413">
        <ele>126.4</ele>
        <time>2022-11-16T15:26:46Z</time>
      </trkpt>
      <trkpt lat="50.00965" lon="2.38413">
        <ele>126.4</ele>
        <time>2022-11-16T15:26:47Z</time>
      </trkpt>
      <trkpt lat="50.00965" lon="2.38413">
        <ele>126.4</ele>
        <time>2022-11-16T15:26:48Z</time>
      </trkpt>
      <trkpt lat="50.00965" lon="2.38413">
        <ele>126.4</ele>
        <time>2022-11-16T15:26:49Z</time>
      </trkpt>
      <trkpt lat="50.00965" lon="2.38413">
        <ele>126.4</ele>
        <time>2022-11-16T15:26:50Z</time>
      </trkpt>
      <trkpt lat="50.00965" lon="2.38413">
        <ele>126.4</ele>
        <time>2022-11-16T15:26:51Z</time>
      </trkpt>
      <trkpt lat="50.00965" lon="2.38413">
        <ele>126.4</ele>
        <time>2022-11-16T15:26:52Z</time>
      </trkpt>
      <trkpt lat="50.00965" lon="2.38413">
        <ele>126.4</ele>
        <time>2022-11-16T15:26:53Z</time>
      </trkpt>
      <trkpt lat="50.00965" lon="2.38413">
        <ele>126.4</ele>
        <time>2022-11-16T15:26:54Z</time>
      </trkpt>
      <trkpt lat="50.00965" lon="2.38413">
        <ele>126.4</ele>
        <time>2022-11-16T15:26:55Z</time>
      </trkpt>
      <trkpt lat="50.00965" lon="2.38413">
        <ele>126.4</ele>
        <time>2022-11-16T15:26:56Z</time>
      </trkpt>
      <trkpt lat="50.00965" lon="2.38413">
        <ele>126.4</ele>
        <time>2022-11-16T15:26:57Z</time>
      </trkpt>
      <trkpt lat="50.00965" lon="2.38413">
        <ele>126.4</ele>
        <time>2022-11-16T15:26:58Z</time>
      </trkpt>
      <trkpt lat="50.00965" lon="2.38413">
        <ele>126.4</ele>
        <time>2022-11-16T15:26:59Z</time>
      </trkpt>
      <trkpt lat="50.00965" lon="2.38413">
        <ele>126.4</ele>
        <time>2022-11-16T15:27:00Z</time>
      </trkpt>
      <trkpt lat="50.00965" lon="2.38413">
        <ele>126.4</ele>
        <time>2022-11-16T15:27:01Z</time>
      </trkpt>
      <trkpt lat="50.00965" lon="2.38413">
        <ele>126.4</ele>
        <time>2022-11-16T15:27:02Z</time>
      </trkpt>
      <trkpt lat="50.00965" lon="2.38413">
        <ele>126.4</ele>
        <time>2022-11-16T15:27:03Z</time>
      </trkpt>
      <trkpt lat="50.00965" lon="2.38413">
        <ele>126.4</ele>
        <time>2022-11-16T15:27:04Z</time>
      </trkpt>
      <trkpt lat="50.00965" lon="2.38413">
        <ele>126.4</ele>
        <time>2022-11-16T15:27:05Z</time>
      </trkpt>
      <trkpt lat="50.00965" lon="2.38413">
        <ele>126.4</ele>
        <time>2022-11-16T15:27:06Z</time>
      </trkpt>
      <trkpt lat="50.00965" lon="2.38413">
        <ele>126.4</ele>
        <time>2022-11-16T15:27:07Z</time>
      </trkpt>
      <trkpt lat="50.00965" lon="2.38413">
        <ele>126.4</ele>
        <time>2022-11-16T15:27:08Z</time>
      </trkpt>
      <trkpt lat="50.00965" lon="2.38413">
        <ele>126.4</ele>
        <time>2022-11-16T15:27:09Z</time>
      </trkpt>
      <trkpt lat="50.00965" lon="2.38413">
        <ele>126.4</ele>
        <time>2022-11-16T15:27:10Z</time>
      </trkpt>
      <trkpt lat="50.00965" lon="2.38413">
        <ele>126.4</ele>
        <time>2022-11-16T15:27:11Z</time>
      </trkpt>
      <trkpt lat="50.00965" lon="2.38413">
        <ele>126.4</ele>
        <time>2022-11-16T15:27:12Z</time>
      </trkpt>
      <trkpt lat="50.00965" lon="2.38413">
        <ele>126.4</ele>
        <time>2022-11-16T15:27:13Z</time>
      </trkpt>
      <trkpt lat="50.00965" lon="2.38413">
        <ele>126.4</ele>
        <time>2022-11-16T15:27:14Z</time>
      </trkpt>
      <trkpt lat="50.00965" lon="2.38413">
        <ele>126.4</ele>
        <time>2022-11-16T15:27:15Z</time>
      </trkpt>
      <trkpt lat="50.00965" lon="2.38413">
        <ele>126.4</ele>
        <time>2022-11-16T15:27:16Z</time>
      </trkpt>
      <trkpt lat="50.00965" lon="2.38413">
        <ele>126.4</ele>
        <time>2022-11-16T15:27:17Z</time>
      </trkpt>
      <trkpt lat="50.00965" lon="2.38413">
        <ele>126.4</ele>
        <time>2022-11-16T15:27:18Z</time>
      </trkpt>
      <trkpt lat="50.00965" lon="2.38413">
        <ele>126.4</ele>
        <time>2022-11-16T15:27:19Z</time>
      </trkpt>
      <trkpt lat="50.00965" lon="2.38413">
        <ele>126.4</ele>
        <time>2022-11-16T15:27:20Z</time>
      </trkpt>
      <trkpt lat="50.00965" lon="2.38413">
        <ele>126.4</ele>
        <time>2022-11-16T15:27:21Z</time>
      </trkpt>
      <trkpt lat="50.00965" lon="2.38413">
        <ele>126.4</ele>
        <time>2022-11-16T15:27:22Z</time>
      </trkpt>
      <trkpt lat="50.00965" lon="2.38413">
        <ele>126.4</ele>
        <time>2022-11-16T15:27:23Z</time>
      </trkpt>
      <trkpt lat="50.00965" lon="2.38413">
        <ele>126.4</ele>
        <time>2022-11-16T15:27:24Z</time>
      </trkpt>
      <trkpt lat="50.00965" lon="2.38413">
        <ele>126.4</ele>
        <time>2022-11-16T15:27:25Z</time>
      </trkpt>
      <trkpt lat="50.00965" lon="2.38413">
        <ele>126.4</ele>
        <time>2022-11-16T15:27:26Z</time>
      </trkpt>
      <trkpt lat="50.00965" lon="2.38413">
        <ele>126.4</ele>
        <time>2022-11-16T15:27:27Z</time>
      </trkpt>
      <trkpt lat="50.00965" lon="2.38413">
        <ele>126.4</ele>
        <time>2022-11-16T15:27:28Z</time>
      </trkpt>
      <trkpt lat="50.00965" lon="2.38413">
        <ele>126.4</ele>
        <time>2022-11-16T15:27:29Z</time>
      </trkpt>
      <trkpt lat="50.00965" lon="2.38413">
        <ele>126.4</ele>
        <time>2022-11-16T15:27:30Z</time>
      </trkpt>
      <trkpt lat="50.00965" lon="2.38413">
        <ele>126.4</ele>
        <time>2022-11-16T15:27:31Z</time>
      </trkpt>
      <trkpt lat="50.00965" lon="2.38413">
        <ele>126.4</ele>
        <time>2022-11-16T15:27:32Z</time>
      </trkpt>
      <trkpt lat="50.00965" lon="2.38413">
        <ele>126.4</ele>
        <time>2022-11-16T15:27:33Z</time>
      </trkpt>
      <trkpt lat="50.00965" lon="2.38413">
        <ele>126.4</ele>
        <time>2022-11-16T15:27:34Z</time>
      </trkpt>
      <trkpt lat="50.00965" lon="2.38413">
        <ele>126.4</ele>
        <time>2022-11-16T15:27:35Z</time>
      </trkpt>
      <trkpt lat="50.00965" lon="2.38413">
        <ele>126.4</ele>
        <time>2022-11-16T15:27:36Z</time>
      </trkpt>
      <trkpt lat="50.00965" lon="2.38413">
        <ele>126.4</ele>
        <time>2022-11-16T15:27:37Z</time>
      </trkpt>
      <trkpt lat="50.00965" lon="2.38413">
        <ele>126.4</ele>
        <time>2022-11-16T15:27:38Z</time>
      </trkpt>
      <trkpt lat="50.00965" lon="2.38413">
        <ele>126.4</ele>
        <time>2022-11-16T15:27:39Z</time>
      </trkpt>
      <trkpt lat="50.00965" lon="2.38413">
        <ele>126.4</ele>
        <time>2022-11-16T15:27:40Z</time>
      </trkpt>
      <trkpt lat="50.00965" lon="2.38413">
        <ele>126.4</ele>
        <time>2022-11-16T15:27:41Z</time>
      </trkpt>
      <trkpt lat="50.00965" lon="2.38413">
        <ele>126.4</ele>
        <time>2022-11-16T15:27:42Z</time>
      </trkpt>
      <trkpt lat="50.00965" lon="2.38413">
        <ele>126.4</ele>
        <time>2022-11-16T15:27:43Z</time>
      </trkpt>
      <trkpt lat="50.00965" lon="2.38413">
        <ele>126.4</ele>
        <time>2022-11-16T15:27:44Z</time>
      </trkpt>
      <trkpt lat="50.00965" lon="2.38413">
        <ele>126.4</ele>
        <time>2022-11-16T15:27:45Z</time>
      </trkpt>
      <trkpt lat="50.00965" lon="2.38413">
        <ele>126.4</ele>
        <time>2022-11-16T15:27:46Z</time>
      </trkpt>
      <trkpt lat="50.00965" lon="2.38413">
        <ele>126.4</ele>
        <time>2022-11-16T15:27:47Z</time>
      </trkpt>
      <trkpt lat="50.00965" lon="2.38413">
        <ele>126.4</ele>
        <time>2022-11-16T15:27:48Z</time>
      </trkpt>
      <trkpt lat="50.00965" lon="2.38413">
        <ele>126.4</ele>
        <time>2022-11-16T15:27:49Z</time>
      </trkpt>
      <trkpt lat="50.00965" lon="2.38413">
        <ele>126.4</ele>
        <time>2022-11-16T15:27:50Z</time>
      </trkpt>
      <trkpt lat="50.00965" lon="2.38413">
        <ele>126.4</ele>
        <time>2022-11-16T15:27:51Z</time>
      </trkpt>
      <trkpt lat="50.00965" lon="2.38413">
        <ele>126.4</ele>
        <time>2022-11-16T15:27:52Z</time>
      </trkpt>
      <trkpt lat="50.00965" lon="2.38413">
        <ele>126.4</ele>
        <time>2022-11-16T15:27:53Z</time>
      </trkpt>
      <trkpt lat="50.00965" lon="2.38413">
        <ele>126.4</ele>
        <time>2022-11-16T15:27:54Z</time>
      </trkpt>
      <trkpt lat="50.00965" lon="2.38413">
        <ele>126.4</ele>
        <time>2022-11-16T15:27:55Z</time>
      </trkpt>
      <trkpt lat="50.00965" lon="2.38413">
        <ele>126.4</ele>
        <time>2022-11-16T15:27:56Z</time>
      </trkpt>
      <trkpt lat="50.00965" lon="2.38413">
        <ele>126.4</ele>
        <time>2022-11-16T15:27:57Z</time>
      </trkpt>
      <trkpt lat="50.00965" lon="2.38413">
        <ele>126.4</ele>
        <time>2022-11-16T15:27:58Z</time>
      </trkpt>
      <trkpt lat="50.00965" lon="2.38413">
        <ele>126.4</ele>
        <time>2022-11-16T15:27:59Z</time>
      </trkpt>
      <trkpt lat="50.00965" lon="2.38413">
        <ele>126.4</ele>
        <time>2022-11-16T15:28:00Z</time>
      </trkpt>
      <trkpt lat="50.00965" lon="2.38413">
        <ele>126.4</ele>
        <time>2022-11-16T15:28:01Z</time>
      </trkpt>
      <trkpt lat="50.00965" lon="2.38413">
        <ele>126.4</ele>
        <time>2022-11-16T15:28:02Z</time>
      </trkpt>
      <trkpt lat="50.00965" lon="2.38413">
        <ele>126.4</ele>
        <time>2022-11-16T15:28:03Z</time>
      </trkpt>
      <trkpt lat="50.00965" lon="2.38414">
        <ele>126.4</ele>
        <time>2022-11-16T15:28:04Z</time>
      </trkpt>
      <trkpt lat="50.00965" lon="2.38414">
        <ele>126.4</ele>
        <time>2022-11-16T15:28:05Z</time>
      </trkpt>
      <trkpt lat="50.00965" lon="2.38414">
        <ele>126.4</ele>
        <time>2022-11-16T15:28:06Z</time>
      </trkpt>
      <trkpt lat="50.00965" lon="2.38414">
        <ele>126.4</ele>
        <time>2022-11-16T15:28:07Z</time>
      </trkpt>
      <trkpt lat="50.00965" lon="2.38413">
        <ele>126.4</ele>
        <time>2022-11-16T15:28:08Z</time>
      </trkpt>
      <trkpt lat="50.00965" lon="2.38413">
        <ele>126.4</ele>
        <time>2022-11-16T15:28:09Z</time>
      </trkpt>
      <trkpt lat="50.00965" lon="2.38413">
        <ele>126.4</ele>
        <time>2022-11-16T15:28:10Z</time>
      </trkpt>
      <trkpt lat="50.00965" lon="2.38412">
        <ele>126.4</ele>
        <time>2022-11-16T15:28:11Z</time>
      </trkpt>
      <trkpt lat="50.00965" lon="2.38412">
        <ele>126.4</ele>
        <time>2022-11-16T15:28:12Z</time>
      </trkpt>
      <trkpt lat="50.00965" lon="2.38412">
        <ele>126.4</ele>
        <time>2022-11-16T15:28:13Z</time>
      </trkpt>
      <trkpt lat="50.00965" lon="2.38412">
        <ele>126.4</ele>
        <time>2022-11-16T15:28:14Z</time>
      </trkpt>
      <trkpt lat="50.00965" lon="2.38411">
        <ele>126.4</ele>
        <time>2022-11-16T15:28:15Z</time>
      </trkpt>
      <trkpt lat="50.00965" lon="2.38411">
        <ele>126.4</ele>
        <time>2022-11-16T15:28:17Z</time>
      </trkpt>
      <trkpt lat="50.00965" lon="2.3841">
        <ele>126.4</ele>
        <time>2022-11-16T15:28:18Z</time>
      </trkpt>
      <trkpt lat="50.00965" lon="2.3841">
        <ele>126.3</ele>
        <time>2022-11-16T15:28:20Z</time>
      </trkpt>
      <trkpt lat="50.00965" lon="2.3841">
        <ele>126.3</ele>
        <time>2022-11-16T15:28:21Z</time>
      </trkpt>
      <trkpt lat="50.00966" lon="2.3841">
        <ele>126.3</ele>
        <time>2022-11-16T15:28:22Z</time>
      </trkpt>
      <trkpt lat="50.00966" lon="2.3841">
        <ele>126.3</ele>
        <time>2022-11-16T15:28:23Z</time>
      </trkpt>
      <trkpt lat="50.00966" lon="2.38411">
        <ele>126.3</ele>
        <time>2022-11-16T15:28:24Z</time>
      </trkpt>
      <trkpt lat="50.00966" lon="2.38411">
        <ele>126.3</ele>
        <time>2022-11-16T15:28:25Z</time>
      </trkpt>
      <trkpt lat="50.00966" lon="2.38412">
        <ele>126.3</ele>
        <time>2022-11-16T15:28:26Z</time>
      </trkpt>
      <trkpt lat="50.00966" lon="2.38412">
        <ele>126.3</ele>
        <time>2022-11-16T15:28:27Z</time>
      </trkpt>
      <trkpt lat="50.00965" lon="2.38413">
        <ele>126.3</ele>
        <time>2022-11-16T15:28:28Z</time>
      </trkpt>
      <trkpt lat="50.00965" lon="2.38413">
        <ele>126.3</ele>
        <time>2022-11-16T15:28:29Z</time>
      </trkpt>
      <trkpt lat="50.00965" lon="2.38413">
        <ele>126.3</ele>
        <time>2022-11-16T15:28:30Z</time>
      </trkpt>
      <trkpt lat="50.00966" lon="2.38413">
        <ele>126.3</ele>
        <time>2022-11-16T15:28:31Z</time>
      </trkpt>
      <trkpt lat="50.00965" lon="2.38413">
        <ele>126.3</ele>
        <time>2022-11-16T15:28:32Z</time>
      </trkpt>
      <trkpt lat="50.00965" lon="2.38413">
        <ele>126.3</ele>
        <time>2022-11-16T15:28:33Z</time>
      </trkpt>
      <trkpt lat="50.00965" lon="2.38413">
        <ele>126.3</ele>
        <time>2022-11-16T15:28:34Z</time>
      </trkpt>
      <trkpt lat="50.00965" lon="2.38413">
        <ele>126.3</ele>
        <time>2022-11-16T15:28:35Z</time>
      </trkpt>
      <trkpt lat="50.00965" lon="2.38413">
        <ele>126.3</ele>
        <time>2022-11-16T15:28:36Z</time>
      </trkpt>
      <trkpt lat="50.00965" lon="2.38413">
        <ele>126.3</ele>
        <time>2022-11-16T15:28:37Z</time>
      </trkpt>
      <trkpt lat="50.00965" lon="2.38413">
        <ele>126.3</ele>
        <time>2022-11-16T15:28:38Z</time>
      </trkpt>
      <trkpt lat="50.00965" lon="2.38413">
        <ele>126.3</ele>
        <time>2022-11-16T15:28:39Z</time>
      </trkpt>
      <trkpt lat="50.00965" lon="2.38413">
        <ele>126.3</ele>
        <time>2022-11-16T15:28:40Z</time>
      </trkpt>
      <trkpt lat="50.00965" lon="2.38413">
        <ele>126.3</ele>
        <time>2022-11-16T15:28:41Z</time>
      </trkpt>
      <trkpt lat="50.00965" lon="2.38413">
        <ele>126.3</ele>
        <time>2022-11-16T15:28:42Z</time>
      </trkpt>
      <trkpt lat="50.00965" lon="2.38413">
        <ele>126.3</ele>
        <time>2022-11-16T15:28:43Z</time>
      </trkpt>
      <trkpt lat="50.00965" lon="2.38413">
        <ele>126.3</ele>
        <time>2022-11-16T15:28:44Z</time>
      </trkpt>
      <trkpt lat="50.00965" lon="2.38413">
        <ele>126.3</ele>
        <time>2022-11-16T15:28:45Z</time>
      </trkpt>
      <trkpt lat="50.00965" lon="2.38413">
        <ele>126.3</ele>
        <time>2022-11-16T15:28:46Z</time>
      </trkpt>
      <trkpt lat="50.00965" lon="2.38413">
        <ele>126.3</ele>
        <time>2022-11-16T15:28:47Z</time>
      </trkpt>
      <trkpt lat="50.00965" lon="2.38413">
        <ele>126.3</ele>
        <time>2022-11-16T15:28:48Z</time>
      </trkpt>
      <trkpt lat="50.00965" lon="2.38413">
        <ele>126.3</ele>
        <time>2022-11-16T15:28:49Z</time>
      </trkpt>
      <trkpt lat="50.00965" lon="2.38413">
        <ele>126.3</ele>
        <time>2022-11-16T15:28:50Z</time>
      </trkpt>
      <trkpt lat="50.00965" lon="2.38413">
        <ele>126.3</ele>
        <time>2022-11-16T15:28:51Z</time>
      </trkpt>
      <trkpt lat="50.00965" lon="2.38413">
        <ele>126.3</ele>
        <time>2022-11-16T15:28:52Z</time>
      </trkpt>
      <trkpt lat="50.00965" lon="2.38413">
        <ele>126.3</ele>
        <time>2022-11-16T15:28:53Z</time>
      </trkpt>
      <trkpt lat="50.00965" lon="2.38413">
        <ele>126.3</ele>
        <time>2022-11-16T15:28:54Z</time>
      </trkpt>
      <trkpt lat="50.00965" lon="2.38413">
        <ele>126.3</ele>
        <time>2022-11-16T15:28:55Z</time>
      </trkpt>
      <trkpt lat="50.00965" lon="2.38413">
        <ele>126.3</ele>
        <time>2022-11-16T15:28:56Z</time>
      </trkpt>
      <trkpt lat="50.00965" lon="2.38413">
        <ele>126.3</ele>
        <time>2022-11-16T15:28:57Z</time>
      </trkpt>
      <trkpt lat="50.00965" lon="2.38413">
        <ele>126.3</ele>
        <time>2022-11-16T15:28:58Z</time>
      </trkpt>
      <trkpt lat="50.00965" lon="2.38413">
        <ele>126.3</ele>
        <time>2022-11-16T15:28:59Z</time>
      </trkpt>
      <trkpt lat="50.00965" lon="2.38413">
        <ele>126.3</ele>
        <time>2022-11-16T15:29:00Z</time>
      </trkpt>
      <trkpt lat="50.00965" lon="2.38413">
        <ele>126.3</ele>
        <time>2022-11-16T15:29:01Z</time>
      </trkpt>
      <trkpt lat="50.00965" lon="2.38413">
        <ele>126.3</ele>
        <time>2022-11-16T15:29:02Z</time>
      </trkpt>
      <trkpt lat="50.00965" lon="2.38413">
        <ele>126.3</ele>
        <time>2022-11-16T15:29:03Z</time>
      </trkpt>
      <trkpt lat="50.00965" lon="2.38413">
        <ele>126.3</ele>
        <time>2022-11-16T15:29:04Z</time>
      </trkpt>
      <trkpt lat="50.00965" lon="2.38413">
        <ele>126.3</ele>
        <time>2022-11-16T15:29:05Z</time>
      </trkpt>
      <trkpt lat="50.00965" lon="2.38413">
        <ele>126.3</ele>
        <time>2022-11-16T15:29:06Z</time>
      </trkpt>
      <trkpt lat="50.00965" lon="2.38413">
        <ele>126.3</ele>
        <time>2022-11-16T15:29:07Z</time>
      </trkpt>
      <trkpt lat="50.00965" lon="2.38413">
        <ele>126.3</ele>
        <time>2022-11-16T15:29:08Z</time>
      </trkpt>
      <trkpt lat="50.00965" lon="2.38413">
        <ele>126.3</ele>
        <time>2022-11-16T15:29:09Z</time>
      </trkpt>
      <trkpt lat="50.00965" lon="2.38413">
        <ele>126.3</ele>
        <time>2022-11-16T15:29:10Z</time>
      </trkpt>
      <trkpt lat="50.00965" lon="2.38413">
        <ele>126.3</ele>
        <time>2022-11-16T15:29:11Z</time>
      </trkpt>
      <trkpt lat="50.00965" lon="2.38413">
        <ele>126.3</ele>
        <time>2022-11-16T15:29:12Z</time>
      </trkpt>
      <trkpt lat="50.00965" lon="2.38413">
        <ele>126.3</ele>
        <time>2022-11-16T15:29:13Z</time>
      </trkpt>
      <trkpt lat="50.00965" lon="2.38413">
        <ele>126.3</ele>
        <time>2022-11-16T15:29:14Z</time>
      </trkpt>
      <trkpt lat="50.00965" lon="2.38413">
        <ele>126.3</ele>
        <time>2022-11-16T15:29:15Z</time>
      </trkpt>
      <trkpt lat="50.00965" lon="2.38413">
        <ele>126.3</ele>
        <time>2022-11-16T15:29:16Z</time>
      </trkpt>
      <trkpt lat="50.00965" lon="2.38413">
        <ele>126.3</ele>
        <time>2022-11-16T15:29:17Z</time>
      </trkpt>
      <trkpt lat="50.00965" lon="2.38413">
        <ele>126.3</ele>
        <time>2022-11-16T15:29:18Z</time>
      </trkpt>
      <trkpt lat="50.00965" lon="2.38413">
        <ele>126.3</ele>
        <time>2022-11-16T15:29:19Z</time>
      </trkpt>
      <trkpt lat="50.00965" lon="2.38413">
        <ele>126.3</ele>
        <time>2022-11-16T15:29:20Z</time>
      </trkpt>
      <trkpt lat="50.00965" lon="2.38413">
        <ele>126.3</ele>
        <time>2022-11-16T15:29:21Z</time>
      </trkpt>
      <trkpt lat="50.00965" lon="2.38413">
        <ele>126.3</ele>
        <time>2022-11-16T15:29:22Z</time>
      </trkpt>
      <trkpt lat="50.00965" lon="2.38413">
        <ele>126.3</ele>
        <time>2022-11-16T15:29:23Z</time>
      </trkpt>
      <trkpt lat="50.00965" lon="2.38413">
        <ele>126.3</ele>
        <time>2022-11-16T15:29:24Z</time>
      </trkpt>
      <trkpt lat="50.00965" lon="2.38413">
        <ele>126.3</ele>
        <time>2022-11-16T15:29:25Z</time>
      </trkpt>
      <trkpt lat="50.00965" lon="2.38413">
        <ele>126.3</ele>
        <time>2022-11-16T15:29:26Z</time>
      </trkpt>
      <trkpt lat="50.00965" lon="2.38413">
        <ele>126.3</ele>
        <time>2022-11-16T15:29:27Z</time>
      </trkpt>
      <trkpt lat="50.00965" lon="2.38413">
        <ele>126.3</ele>
        <time>2022-11-16T15:29:28Z</time>
      </trkpt>
      <trkpt lat="50.00965" lon="2.38413">
        <ele>126.3</ele>
        <time>2022-11-16T15:29:29Z</time>
      </trkpt>
      <trkpt lat="50.00965" lon="2.38413">
        <ele>126.3</ele>
        <time>2022-11-16T15:29:30Z</time>
      </trkpt>
      <trkpt lat="50.00965" lon="2.38413">
        <ele>126.3</ele>
        <time>2022-11-16T15:29:31Z</time>
      </trkpt>
      <trkpt lat="50.00965" lon="2.38413">
        <ele>126.3</ele>
        <time>2022-11-16T15:29:32Z</time>
      </trkpt>
      <trkpt lat="50.00965" lon="2.38413">
        <ele>126.3</ele>
        <time>2022-11-16T15:29:33Z</time>
      </trkpt>
      <trkpt lat="50.00965" lon="2.38413">
        <ele>126.3</ele>
        <time>2022-11-16T15:29:34Z</time>
      </trkpt>
      <trkpt lat="50.00965" lon="2.38413">
        <ele>126.3</ele>
        <time>2022-11-16T15:29:35Z</time>
      </trkpt>
      <trkpt lat="50.00965" lon="2.38413">
        <ele>126.3</ele>
        <time>2022-11-16T15:29:36Z</time>
      </trkpt>
      <trkpt lat="50.00965" lon="2.38413">
        <ele>126.3</ele>
        <time>2022-11-16T15:29:37Z</time>
      </trkpt>
      <trkpt lat="50.00965" lon="2.38413">
        <ele>126.3</ele>
        <time>2022-11-16T15:29:38Z</time>
      </trkpt>
      <trkpt lat="50.00965" lon="2.38413">
        <ele>126.3</ele>
        <time>2022-11-16T15:29:39Z</time>
      </trkpt>
      <trkpt lat="50.00965" lon="2.38413">
        <ele>126.3</ele>
        <time>2022-11-16T15:29:40Z</time>
      </trkpt>
      <trkpt lat="50.00965" lon="2.38413">
        <ele>126.3</ele>
        <time>2022-11-16T15:29:41Z</time>
      </trkpt>
      <trkpt lat="50.00965" lon="2.38413">
        <ele>126.3</ele>
        <time>2022-11-16T15:29:42Z</time>
      </trkpt>
      <trkpt lat="50.00965" lon="2.38413">
        <ele>126.3</ele>
        <time>2022-11-16T15:29:43Z</time>
      </trkpt>
      <trkpt lat="50.00965" lon="2.38413">
        <ele>126.3</ele>
        <time>2022-11-16T15:29:44Z</time>
      </trkpt>
      <trkpt lat="50.00965" lon="2.38413">
        <ele>126.3</ele>
        <time>2022-11-16T15:29:45Z</time>
      </trkpt>
      <trkpt lat="50.00965" lon="2.38413">
        <ele>126.3</ele>
        <time>2022-11-16T15:29:46Z</time>
      </trkpt>
      <trkpt lat="50.00965" lon="2.38413">
        <ele>126.3</ele>
        <time>2022-11-16T15:29:47Z</time>
      </trkpt>
      <trkpt lat="50.00965" lon="2.38413">
        <ele>126.3</ele>
        <time>2022-11-16T15:29:48Z</time>
      </trkpt>
      <trkpt lat="50.00965" lon="2.38413">
        <ele>126.3</ele>
        <time>2022-11-16T15:29:49Z</time>
      </trkpt>
      <trkpt lat="50.00965" lon="2.38413">
        <ele>126.3</ele>
        <time>2022-11-16T15:29:50Z</time>
      </trkpt>
      <trkpt lat="50.00965" lon="2.38413">
        <ele>126.3</ele>
        <time>2022-11-16T15:29:51Z</time>
      </trkpt>
      <trkpt lat="50.00965" lon="2.38413">
        <ele>126.3</ele>
        <time>2022-11-16T15:29:52Z</time>
      </trkpt>
      <trkpt lat="50.00965" lon="2.38413">
        <ele>126.3</ele>
        <time>2022-11-16T15:29:53Z</time>
      </trkpt>
      <trkpt lat="50.00965" lon="2.38413">
        <ele>126.3</ele>
        <time>2022-11-16T15:29:54Z</time>
      </trkpt>
      <trkpt lat="50.00965" lon="2.38413">
        <ele>126.3</ele>
        <time>2022-11-16T15:29:55Z</time>
      </trkpt>
      <trkpt lat="50.00965" lon="2.38413">
        <ele>126.3</ele>
        <time>2022-11-16T15:29:56Z</time>
      </trkpt>
      <trkpt lat="50.00965" lon="2.38413">
        <ele>126.3</ele>
        <time>2022-11-16T15:29:57Z</time>
      </trkpt>
      <trkpt lat="50.00965" lon="2.38413">
        <ele>126.3</ele>
        <time>2022-11-16T15:29:58Z</time>
      </trkpt>
      <trkpt lat="50.00965" lon="2.38413">
        <ele>126.3</ele>
        <time>2022-11-16T15:29:59Z</time>
      </trkpt>
      <trkpt lat="50.00965" lon="2.38413">
        <ele>126.3</ele>
        <time>2022-11-16T15:30:00Z</time>
      </trkpt>
      <trkpt lat="50.00965" lon="2.38413">
        <ele>126.3</ele>
        <time>2022-11-16T15:30:01Z</time>
      </trkpt>
      <trkpt lat="50.00965" lon="2.38413">
        <ele>126.3</ele>
        <time>2022-11-16T15:30:02Z</time>
      </trkpt>
      <trkpt lat="50.00965" lon="2.38413">
        <ele>126.3</ele>
        <time>2022-11-16T15:30:03Z</time>
      </trkpt>
      <trkpt lat="50.00965" lon="2.38413">
        <ele>126.3</ele>
        <time>2022-11-16T15:30:04Z</time>
      </trkpt>
      <trkpt lat="50.00965" lon="2.38413">
        <ele>126.3</ele>
        <time>2022-11-16T15:30:05Z</time>
      </trkpt>
      <trkpt lat="50.00965" lon="2.38413">
        <ele>126.3</ele>
        <time>2022-11-16T15:30:06Z</time>
      </trkpt>
      <trkpt lat="50.00965" lon="2.38413">
        <ele>126.3</ele>
        <time>2022-11-16T15:30:07Z</time>
      </trkpt>
      <trkpt lat="50.00965" lon="2.38413">
        <ele>126.3</ele>
        <time>2022-11-16T15:30:08Z</time>
      </trkpt>
      <trkpt lat="50.00965" lon="2.38413">
        <ele>126.3</ele>
        <time>2022-11-16T15:30:09Z</time>
      </trkpt>
      <trkpt lat="50.00965" lon="2.38413">
        <ele>126.3</ele>
        <time>2022-11-16T15:30:10Z</time>
      </trkpt>
      <trkpt lat="50.00965" lon="2.38413">
        <ele>126.3</ele>
        <time>2022-11-16T15:30:11Z</time>
      </trkpt>
      <trkpt lat="50.00965" lon="2.38413">
        <ele>126.3</ele>
        <time>2022-11-16T15:30:12Z</time>
      </trkpt>
      <trkpt lat="50.00965" lon="2.38413">
        <ele>126.3</ele>
        <time>2022-11-16T15:30:13Z</time>
      </trkpt>
      <trkpt lat="50.00965" lon="2.38413">
        <ele>126.3</ele>
        <time>2022-11-16T15:30:14Z</time>
      </trkpt>
      <trkpt lat="50.00965" lon="2.38413">
        <ele>126.3</ele>
        <time>2022-11-16T15:30:15Z</time>
      </trkpt>
      <trkpt lat="50.00965" lon="2.38413">
        <ele>126.3</ele>
        <time>2022-11-16T15:30:16Z</time>
      </trkpt>
      <trkpt lat="50.00965" lon="2.38413">
        <ele>126.3</ele>
        <time>2022-11-16T15:30:17Z</time>
      </trkpt>
      <trkpt lat="50.00965" lon="2.38413">
        <ele>126.3</ele>
        <time>2022-11-16T15:30:18Z</time>
      </trkpt>
      <trkpt lat="50.00965" lon="2.38413">
        <ele>126.3</ele>
        <time>2022-11-16T15:30:19Z</time>
      </trkpt>
      <trkpt lat="50.00965" lon="2.38413">
        <ele>126.3</ele>
        <time>2022-11-16T15:30:20Z</time>
      </trkpt>
      <trkpt lat="50.00965" lon="2.38413">
        <ele>126.3</ele>
        <time>2022-11-16T15:30:21Z</time>
      </trkpt>
      <trkpt lat="50.00965" lon="2.38413">
        <ele>126.3</ele>
        <time>2022-11-16T15:30:22Z</time>
      </trkpt>
      <trkpt lat="50.00965" lon="2.38413">
        <ele>126.3</ele>
        <time>2022-11-16T15:30:23Z</time>
      </trkpt>
      <trkpt lat="50.00965" lon="2.38413">
        <ele>126.3</ele>
        <time>2022-11-16T15:30:24Z</time>
      </trkpt>
      <trkpt lat="50.00965" lon="2.38413">
        <ele>126.3</ele>
        <time>2022-11-16T15:30:25Z</time>
      </trkpt>
      <trkpt lat="50.00965" lon="2.38413">
        <ele>126.3</ele>
        <time>2022-11-16T15:30:26Z</time>
      </trkpt>
      <trkpt lat="50.00965" lon="2.38413">
        <ele>126.3</ele>
        <time>2022-11-16T15:30:27Z</time>
      </trkpt>
      <trkpt lat="50.00965" lon="2.38413">
        <ele>126.3</ele>
        <time>2022-11-16T15:30:28Z</time>
      </trkpt>
      <trkpt lat="50.00965" lon="2.38413">
        <ele>126.3</ele>
        <time>2022-11-16T15:30:29Z</time>
      </trkpt>
      <trkpt lat="50.00965" lon="2.38413">
        <ele>126.3</ele>
        <time>2022-11-16T15:30:30Z</time>
      </trkpt>
      <trkpt lat="50.00965" lon="2.38413">
        <ele>126.3</ele>
        <time>2022-11-16T15:30:31Z</time>
      </trkpt>
      <trkpt lat="50.00965" lon="2.38413">
        <ele>126.3</ele>
        <time>2022-11-16T15:30:32Z</time>
      </trkpt>
      <trkpt lat="50.00965" lon="2.38413">
        <ele>126.3</ele>
        <time>2022-11-16T15:30:33Z</time>
      </trkpt>
      <trkpt lat="50.00965" lon="2.38413">
        <ele>126.3</ele>
        <time>2022-11-16T15:30:34Z</time>
      </trkpt>
      <trkpt lat="50.00965" lon="2.38413">
        <ele>126.3</ele>
        <time>2022-11-16T15:30:35Z</time>
      </trkpt>
      <trkpt lat="50.00965" lon="2.38413">
        <ele>126.3</ele>
        <time>2022-11-16T15:30:36Z</time>
      </trkpt>
      <trkpt lat="50.00965" lon="2.38413">
        <ele>126.3</ele>
        <time>2022-11-16T15:30:37Z</time>
      </trkpt>
      <trkpt lat="50.00965" lon="2.38413">
        <ele>126.3</ele>
        <time>2022-11-16T15:30:38Z</time>
      </trkpt>
      <trkpt lat="50.00965" lon="2.38413">
        <ele>126.3</ele>
        <time>2022-11-16T15:30:39Z</time>
      </trkpt>
      <trkpt lat="50.00965" lon="2.38413">
        <ele>126.3</ele>
        <time>2022-11-16T15:30:40Z</time>
      </trkpt>
      <trkpt lat="50.00965" lon="2.38413">
        <ele>126.3</ele>
        <time>2022-11-16T15:30:41Z</time>
      </trkpt>
      <trkpt lat="50.00965" lon="2.38413">
        <ele>126.3</ele>
        <time>2022-11-16T15:30:42Z</time>
      </trkpt>
      <trkpt lat="50.00965" lon="2.38413">
        <ele>126.3</ele>
        <time>2022-11-16T15:30:43Z</time>
      </trkpt>
      <trkpt lat="50.00965" lon="2.38413">
        <ele>126.3</ele>
        <time>2022-11-16T15:30:44Z</time>
      </trkpt>
      <trkpt lat="50.00965" lon="2.38413">
        <ele>126.3</ele>
        <time>2022-11-16T15:30:45Z</time>
      </trkpt>
      <trkpt lat="50.00965" lon="2.38413">
        <ele>126.3</ele>
        <time>2022-11-16T15:30:46Z</time>
      </trkpt>
      <trkpt lat="50.00965" lon="2.38413">
        <ele>126.3</ele>
        <time>2022-11-16T15:30:47Z</time>
      </trkpt>
      <trkpt lat="50.00965" lon="2.38413">
        <ele>126.3</ele>
        <time>2022-11-16T15:30:48Z</time>
      </trkpt>
      <trkpt lat="50.00965" lon="2.38413">
        <ele>126.3</ele>
        <time>2022-11-16T15:30:49Z</time>
      </trkpt>
      <trkpt lat="50.00965" lon="2.38413">
        <ele>126.3</ele>
        <time>2022-11-16T15:30:50Z</time>
      </trkpt>
      <trkpt lat="50.00965" lon="2.38413">
        <ele>126.3</ele>
        <time>2022-11-16T15:30:51Z</time>
      </trkpt>
      <trkpt lat="50.00965" lon="2.38413">
        <ele>126.3</ele>
        <time>2022-11-16T15:30:52Z</time>
      </trkpt>
      <trkpt lat="50.00965" lon="2.38413">
        <ele>126.3</ele>
        <time>2022-11-16T15:30:53Z</time>
      </trkpt>
      <trkpt lat="50.00965" lon="2.38413">
        <ele>126.3</ele>
        <time>2022-11-16T15:30:54Z</time>
      </trkpt>
      <trkpt lat="50.00965" lon="2.38413">
        <ele>126.3</ele>
        <time>2022-11-16T15:30:55Z</time>
      </trkpt>
      <trkpt lat="50.00965" lon="2.38413">
        <ele>126.3</ele>
        <time>2022-11-16T15:30:56Z</time>
      </trkpt>
      <trkpt lat="50.00965" lon="2.38413">
        <ele>126.3</ele>
        <time>2022-11-16T15:30:57Z</time>
      </trkpt>
      <trkpt lat="50.00965" lon="2.38413">
        <ele>126.3</ele>
        <time>2022-11-16T15:30:58Z</time>
      </trkpt>
      <trkpt lat="50.00965" lon="2.38413">
        <ele>126.3</ele>
        <time>2022-11-16T15:30:59Z</time>
      </trkpt>
      <trkpt lat="50.00965" lon="2.38413">
        <ele>126.3</ele>
        <time>2022-11-16T15:31:00Z</time>
      </trkpt>
      <trkpt lat="50.00965" lon="2.38413">
        <ele>126.3</ele>
        <time>2022-11-16T15:31:01Z</time>
      </trkpt>
      <trkpt lat="50.00965" lon="2.38413">
        <ele>126.3</ele>
        <time>2022-11-16T15:31:02Z</time>
      </trkpt>
      <trkpt lat="50.00965" lon="2.38413">
        <ele>126.3</ele>
        <time>2022-11-16T15:31:03Z</time>
      </trkpt>
      <trkpt lat="50.00965" lon="2.38413">
        <ele>126.3</ele>
        <time>2022-11-16T15:31:04Z</time>
      </trkpt>
      <trkpt lat="50.00965" lon="2.38413">
        <ele>126.3</ele>
        <time>2022-11-16T15:31:05Z</time>
      </trkpt>
      <trkpt lat="50.00965" lon="2.38413">
        <ele>126.3</ele>
        <time>2022-11-16T15:31:06Z</time>
      </trkpt>
      <trkpt lat="50.00965" lon="2.38413">
        <ele>126.3</ele>
        <time>2022-11-16T15:31:07Z</time>
      </trkpt>
      <trkpt lat="50.00965" lon="2.38413">
        <ele>126.3</ele>
        <time>2022-11-16T15:31:08Z</time>
      </trkpt>
      <trkpt lat="50.00965" lon="2.38413">
        <ele>126.3</ele>
        <time>2022-11-16T15:31:09Z</time>
      </trkpt>
      <trkpt lat="50.00965" lon="2.38413">
        <ele>126.3</ele>
        <time>2022-11-16T15:31:10Z</time>
      </trkpt>
      <trkpt lat="50.00965" lon="2.38413">
        <ele>126.3</ele>
        <time>2022-11-16T15:31:11Z</time>
      </trkpt>
      <trkpt lat="50.00965" lon="2.38413">
        <ele>126.3</ele>
        <time>2022-11-16T15:31:12Z</time>
      </trkpt>
      <trkpt lat="50.00965" lon="2.38413">
        <ele>126.3</ele>
        <time>2022-11-16T15:31:13Z</time>
      </trkpt>
      <trkpt lat="50.00965" lon="2.38413">
        <ele>126.3</ele>
        <time>2022-11-16T15:31:14Z</time>
      </trkpt>
      <trkpt lat="50.00965" lon="2.38413">
        <ele>126.3</ele>
        <time>2022-11-16T15:31:15Z</time>
      </trkpt>
      <trkpt lat="50.00965" lon="2.38413">
        <ele>126.3</ele>
        <time>2022-11-16T15:31:16Z</time>
      </trkpt>
      <trkpt lat="50.00965" lon="2.38413">
        <ele>126.3</ele>
        <time>2022-11-16T15:31:17Z</time>
      </trkpt>
      <trkpt lat="50.00965" lon="2.38413">
        <ele>126.3</ele>
        <time>2022-11-16T15:31:18Z</time>
      </trkpt>
      <trkpt lat="50.00965" lon="2.38413">
        <ele>126.3</ele>
        <time>2022-11-16T15:31:19Z</time>
      </trkpt>
      <trkpt lat="50.00965" lon="2.38413">
        <ele>126.3</ele>
        <time>2022-11-16T15:31:20Z</time>
      </trkpt>
      <trkpt lat="50.00965" lon="2.38413">
        <ele>126.3</ele>
        <time>2022-11-16T15:31:21Z</time>
      </trkpt>
      <trkpt lat="50.00965" lon="2.38413">
        <ele>126.3</ele>
        <time>2022-11-16T15:31:22Z</time>
      </trkpt>
      <trkpt lat="50.00965" lon="2.38413">
        <ele>126.3</ele>
        <time>2022-11-16T15:31:23Z</time>
      </trkpt>
      <trkpt lat="50.00965" lon="2.38413">
        <ele>126.3</ele>
        <time>2022-11-16T15:31:24Z</time>
      </trkpt>
      <trkpt lat="50.00965" lon="2.38413">
        <ele>126.3</ele>
        <time>2022-11-16T15:31:25Z</time>
      </trkpt>
      <trkpt lat="50.00965" lon="2.38413">
        <ele>126.3</ele>
        <time>2022-11-16T15:31:26Z</time>
      </trkpt>
      <trkpt lat="50.00965" lon="2.38413">
        <ele>126.3</ele>
        <time>2022-11-16T15:31:27Z</time>
      </trkpt>
      <trkpt lat="50.00965" lon="2.38413">
        <ele>126.3</ele>
        <time>2022-11-16T15:31:28Z</time>
      </trkpt>
      <trkpt lat="50.00965" lon="2.38413">
        <ele>126.3</ele>
        <time>2022-11-16T15:31:29Z</time>
      </trkpt>
      <trkpt lat="50.00965" lon="2.38413">
        <ele>126.3</ele>
        <time>2022-11-16T15:31:30Z</time>
      </trkpt>
      <trkpt lat="50.00965" lon="2.38413">
        <ele>126.3</ele>
        <time>2022-11-16T15:31:31Z</time>
      </trkpt>
      <trkpt lat="50.00965" lon="2.38413">
        <ele>126.3</ele>
        <time>2022-11-16T15:31:32Z</time>
      </trkpt>
      <trkpt lat="50.00965" lon="2.38413">
        <ele>126.3</ele>
        <time>2022-11-16T15:31:33Z</time>
      </trkpt>
      <trkpt lat="50.00965" lon="2.38413">
        <ele>126.3</ele>
        <time>2022-11-16T15:31:34Z</time>
      </trkpt>
      <trkpt lat="50.00965" lon="2.38413">
        <ele>126.3</ele>
        <time>2022-11-16T15:31:35Z</time>
      </trkpt>
      <trkpt lat="50.00965" lon="2.38413">
        <ele>126.3</ele>
        <time>2022-11-16T15:31:36Z</time>
      </trkpt>
      <trkpt lat="50.00965" lon="2.38413">
        <ele>126.3</ele>
        <time>2022-11-16T15:31:37Z</time>
      </trkpt>
      <trkpt lat="50.00965" lon="2.38413">
        <ele>126.3</ele>
        <time>2022-11-16T15:31:38Z</time>
      </trkpt>
      <trkpt lat="50.00965" lon="2.38413">
        <ele>126.3</ele>
        <time>2022-11-16T15:31:39Z</time>
      </trkpt>
      <trkpt lat="50.00965" lon="2.38413">
        <ele>126.3</ele>
        <time>2022-11-16T15:31:40Z</time>
      </trkpt>
      <trkpt lat="50.00965" lon="2.38413">
        <ele>126.3</ele>
        <time>2022-11-16T15:31:41Z</time>
      </trkpt>
      <trkpt lat="50.00965" lon="2.38413">
        <ele>126.3</ele>
        <time>2022-11-16T15:31:42Z</time>
      </trkpt>
      <trkpt lat="50.00965" lon="2.38413">
        <ele>126.3</ele>
        <time>2022-11-16T15:31:43Z</time>
      </trkpt>
      <trkpt lat="50.00965" lon="2.38413">
        <ele>126.3</ele>
        <time>2022-11-16T15:31:44Z</time>
      </trkpt>
      <trkpt lat="50.00965" lon="2.38413">
        <ele>126.3</ele>
        <time>2022-11-16T15:31:45Z</time>
      </trkpt>
      <trkpt lat="50.00965" lon="2.38413">
        <ele>126.3</ele>
        <time>2022-11-16T15:31:46Z</time>
      </trkpt>
      <trkpt lat="50.00965" lon="2.38413">
        <ele>126.3</ele>
        <time>2022-11-16T15:31:47Z</time>
      </trkpt>
      <trkpt lat="50.00965" lon="2.38413">
        <ele>126.3</ele>
        <time>2022-11-16T15:31:48Z</time>
      </trkpt>
      <trkpt lat="50.00965" lon="2.38413">
        <ele>126.3</ele>
        <time>2022-11-16T15:31:49Z</time>
      </trkpt>
      <trkpt lat="50.00965" lon="2.38413">
        <ele>126.3</ele>
        <time>2022-11-16T15:31:50Z</time>
      </trkpt>
      <trkpt lat="50.00965" lon="2.38413">
        <ele>126.3</ele>
        <time>2022-11-16T15:31:51Z</time>
      </trkpt>
      <trkpt lat="50.00965" lon="2.38413">
        <ele>126.3</ele>
        <time>2022-11-16T15:31:52Z</time>
      </trkpt>
      <trkpt lat="50.00965" lon="2.38413">
        <ele>126.3</ele>
        <time>2022-11-16T15:31:53Z</time>
      </trkpt>
      <trkpt lat="50.00965" lon="2.38413">
        <ele>126.3</ele>
        <time>2022-11-16T15:31:54Z</time>
      </trkpt>
      <trkpt lat="50.00965" lon="2.38413">
        <ele>126.3</ele>
        <time>2022-11-16T15:31:55Z</time>
      </trkpt>
      <trkpt lat="50.00965" lon="2.38413">
        <ele>126.3</ele>
        <time>2022-11-16T15:31:56Z</time>
      </trkpt>
      <trkpt lat="50.00965" lon="2.38413">
        <ele>126.3</ele>
        <time>2022-11-16T15:31:57Z</time>
      </trkpt>
      <trkpt lat="50.00965" lon="2.38413">
        <ele>126.3</ele>
        <time>2022-11-16T15:31:58Z</time>
      </trkpt>
      <trkpt lat="50.00965" lon="2.38413">
        <ele>126.3</ele>
        <time>2022-11-16T15:31:59Z</time>
      </trkpt>
      <trkpt lat="50.00965" lon="2.38413">
        <ele>126.3</ele>
        <time>2022-11-16T15:32:00Z</time>
      </trkpt>
      <trkpt lat="50.00965" lon="2.38413">
        <ele>126.3</ele>
        <time>2022-11-16T15:32:01Z</time>
      </trkpt>
      <trkpt lat="50.00965" lon="2.38413">
        <ele>126.3</ele>
        <time>2022-11-16T15:32:02Z</time>
      </trkpt>
      <trkpt lat="50.00965" lon="2.38413">
        <ele>126.3</ele>
        <time>2022-11-16T15:32:03Z</time>
      </trkpt>
      <trkpt lat="50.00965" lon="2.38413">
        <ele>126.3</ele>
        <time>2022-11-16T15:32:04Z</time>
      </trkpt>
      <trkpt lat="50.00965" lon="2.38413">
        <ele>126.3</ele>
        <time>2022-11-16T15:32:05Z</time>
      </trkpt>
      <trkpt lat="50.00965" lon="2.38413">
        <ele>126.3</ele>
        <time>2022-11-16T15:32:06Z</time>
      </trkpt>
      <trkpt lat="50.00965" lon="2.38413">
        <ele>126.3</ele>
        <time>2022-11-16T15:32:07Z</time>
      </trkpt>
      <trkpt lat="50.00965" lon="2.38413">
        <ele>126.3</ele>
        <time>2022-11-16T15:32:08Z</time>
      </trkpt>
      <trkpt lat="50.00965" lon="2.38413">
        <ele>126.3</ele>
        <time>2022-11-16T15:32:09Z</time>
      </trkpt>
      <trkpt lat="50.00965" lon="2.38413">
        <ele>126.3</ele>
        <time>2022-11-16T15:32:10Z</time>
      </trkpt>
      <trkpt lat="50.00965" lon="2.38413">
        <ele>126.3</ele>
        <time>2022-11-16T15:32:11Z</time>
      </trkpt>
      <trkpt lat="50.00965" lon="2.38413">
        <ele>126.3</ele>
        <time>2022-11-16T15:32:12Z</time>
      </trkpt>
      <trkpt lat="50.00965" lon="2.38413">
        <ele>126.3</ele>
        <time>2022-11-16T15:32:13Z</time>
      </trkpt>
      <trkpt lat="50.00965" lon="2.38413">
        <ele>126.3</ele>
        <time>2022-11-16T15:32:14Z</time>
      </trkpt>
      <trkpt lat="50.00965" lon="2.38413">
        <ele>126.3</ele>
        <time>2022-11-16T15:32:15Z</time>
      </trkpt>
      <trkpt lat="50.00965" lon="2.38413">
        <ele>126.3</ele>
        <time>2022-11-16T15:32:16Z</time>
      </trkpt>
      <trkpt lat="50.00965" lon="2.38413">
        <ele>126.3</ele>
        <time>2022-11-16T15:32:17Z</time>
      </trkpt>
      <trkpt lat="50.00965" lon="2.38413">
        <ele>126.3</ele>
        <time>2022-11-16T15:32:18Z</time>
      </trkpt>
      <trkpt lat="50.00965" lon="2.38413">
        <ele>126.3</ele>
        <time>2022-11-16T15:32:19Z</time>
      </trkpt>
      <trkpt lat="50.00965" lon="2.38413">
        <ele>126.3</ele>
        <time>2022-11-16T15:32:20Z</time>
      </trkpt>
      <trkpt lat="50.00965" lon="2.38413">
        <ele>126.3</ele>
        <time>2022-11-16T15:32:21Z</time>
      </trkpt>
      <trkpt lat="50.00965" lon="2.38413">
        <ele>126.3</ele>
        <time>2022-11-16T15:32:22Z</time>
      </trkpt>
      <trkpt lat="50.00965" lon="2.38413">
        <ele>126.3</ele>
        <time>2022-11-16T15:32:23Z</time>
      </trkpt>
      <trkpt lat="50.00965" lon="2.38413">
        <ele>126.3</ele>
        <time>2022-11-16T15:32:24Z</time>
      </trkpt>
      <trkpt lat="50.00965" lon="2.38413">
        <ele>126.3</ele>
        <time>2022-11-16T15:32:25Z</time>
      </trkpt>
      <trkpt lat="50.00965" lon="2.38413">
        <ele>126.3</ele>
        <time>2022-11-16T15:32:26Z</time>
      </trkpt>
      <trkpt lat="50.00965" lon="2.38413">
        <ele>126.3</ele>
        <time>2022-11-16T15:32:27Z</time>
      </trkpt>
      <trkpt lat="50.00965" lon="2.38413">
        <ele>126.3</ele>
        <time>2022-11-16T15:32:28Z</time>
      </trkpt>
      <trkpt lat="50.00965" lon="2.38413">
        <ele>126.3</ele>
        <time>2022-11-16T15:32:29Z</time>
      </trkpt>
      <trkpt lat="50.00965" lon="2.38413">
        <ele>126.3</ele>
        <time>2022-11-16T15:32:30Z</time>
      </trkpt>
      <trkpt lat="50.00965" lon="2.38413">
        <ele>126.3</ele>
        <time>2022-11-16T15:32:31Z</time>
      </trkpt>
      <trkpt lat="50.00965" lon="2.38413">
        <ele>126.3</ele>
        <time>2022-11-16T15:32:32Z</time>
      </trkpt>
      <trkpt lat="50.00965" lon="2.38413">
        <ele>126.3</ele>
        <time>2022-11-16T15:32:33Z</time>
      </trkpt>
      <trkpt lat="50.00965" lon="2.38413">
        <ele>126.3</ele>
        <time>2022-11-16T15:32:34Z</time>
      </trkpt>
      <trkpt lat="50.00965" lon="2.38413">
        <ele>126.3</ele>
        <time>2022-11-16T15:32:35Z</time>
      </trkpt>
      <trkpt lat="50.00965" lon="2.38413">
        <ele>126.3</ele>
        <time>2022-11-16T15:32:36Z</time>
      </trkpt>
      <trkpt lat="50.00965" lon="2.38413">
        <ele>126.3</ele>
        <time>2022-11-16T15:32:37Z</time>
      </trkpt>
      <trkpt lat="50.00965" lon="2.38413">
        <ele>126.3</ele>
        <time>2022-11-16T15:32:38Z</time>
      </trkpt>
      <trkpt lat="50.00965" lon="2.38413">
        <ele>126.3</ele>
        <time>2022-11-16T15:32:39Z</time>
      </trkpt>
      <trkpt lat="50.00965" lon="2.38413">
        <ele>126.3</ele>
        <time>2022-11-16T15:32:40Z</time>
      </trkpt>
      <trkpt lat="50.00965" lon="2.38413">
        <ele>126.3</ele>
        <time>2022-11-16T15:32:41Z</time>
      </trkpt>
      <trkpt lat="50.00965" lon="2.38413">
        <ele>126.3</ele>
        <time>2022-11-16T15:32:42Z</time>
      </trkpt>
      <trkpt lat="50.00965" lon="2.38413">
        <ele>126.3</ele>
        <time>2022-11-16T15:32:43Z</time>
      </trkpt>
      <trkpt lat="50.00965" lon="2.38413">
        <ele>126.3</ele>
        <time>2022-11-16T15:32:44Z</time>
      </trkpt>
      <trkpt lat="50.00965" lon="2.38413">
        <ele>126.3</ele>
        <time>2022-11-16T15:32:45Z</time>
      </trkpt>
      <trkpt lat="50.00965" lon="2.38413">
        <ele>126.3</ele>
        <time>2022-11-16T15:32:46Z</time>
      </trkpt>
      <trkpt lat="50.00965" lon="2.38413">
        <ele>126.3</ele>
        <time>2022-11-16T15:32:47Z</time>
      </trkpt>
      <trkpt lat="50.00965" lon="2.38413">
        <ele>126.3</ele>
        <time>2022-11-16T15:32:48Z</time>
      </trkpt>
      <trkpt lat="50.00965" lon="2.38413">
        <ele>126.3</ele>
        <time>2022-11-16T15:32:49Z</time>
      </trkpt>
      <trkpt lat="50.00965" lon="2.38413">
        <ele>126.3</ele>
        <time>2022-11-16T15:32:50Z</time>
      </trkpt>
      <trkpt lat="50.00965" lon="2.38413">
        <ele>126.3</ele>
        <time>2022-11-16T15:32:51Z</time>
      </trkpt>
      <trkpt lat="50.00965" lon="2.38413">
        <ele>126.3</ele>
        <time>2022-11-16T15:32:52Z</time>
      </trkpt>
      <trkpt lat="50.00965" lon="2.38413">
        <ele>126.3</ele>
        <time>2022-11-16T15:32:53Z</time>
      </trkpt>
      <trkpt lat="50.00965" lon="2.38413">
        <ele>126.3</ele>
        <time>2022-11-16T15:32:54Z</time>
      </trkpt>
      <trkpt lat="50.00965" lon="2.38413">
        <ele>126.3</ele>
        <time>2022-11-16T15:32:55Z</time>
      </trkpt>
      <trkpt lat="50.00965" lon="2.38413">
        <ele>126.3</ele>
        <time>2022-11-16T15:32:56Z</time>
      </trkpt>
      <trkpt lat="50.00965" lon="2.38413">
        <ele>126.3</ele>
        <time>2022-11-16T15:32:57Z</time>
      </trkpt>
      <trkpt lat="50.00965" lon="2.38413">
        <ele>126.3</ele>
        <time>2022-11-16T15:32:58Z</time>
      </trkpt>
      <trkpt lat="50.00965" lon="2.38413">
        <ele>126.3</ele>
        <time>2022-11-16T15:32:59Z</time>
      </trkpt>
      <trkpt lat="50.00965" lon="2.38413">
        <ele>126.3</ele>
        <time>2022-11-16T15:33:00Z</time>
      </trkpt>
      <trkpt lat="50.00965" lon="2.38413">
        <ele>126.3</ele>
        <time>2022-11-16T15:33:01Z</time>
      </trkpt>
      <trkpt lat="50.00965" lon="2.38413">
        <ele>126.3</ele>
        <time>2022-11-16T15:33:02Z</time>
      </trkpt>
      <trkpt lat="50.00965" lon="2.38413">
        <ele>126.3</ele>
        <time>2022-11-16T15:33:03Z</time>
      </trkpt>
      <trkpt lat="50.00965" lon="2.38413">
        <ele>126.3</ele>
        <time>2022-11-16T15:33:04Z</time>
      </trkpt>
      <trkpt lat="50.00965" lon="2.38413">
        <ele>126.3</ele>
        <time>2022-11-16T15:33:05Z</time>
      </trkpt>
      <trkpt lat="50.00965" lon="2.38413">
        <ele>126.3</ele>
        <time>2022-11-16T15:33:06Z</time>
      </trkpt>
      <trkpt lat="50.00965" lon="2.38413">
        <ele>126.3</ele>
        <time>2022-11-16T15:33:07Z</time>
      </trkpt>
      <trkpt lat="50.00965" lon="2.38413">
        <ele>126.3</ele>
        <time>2022-11-16T15:33:08Z</time>
      </trkpt>
      <trkpt lat="50.00965" lon="2.38413">
        <ele>126.3</ele>
        <time>2022-11-16T15:33:09Z</time>
      </trkpt>
      <trkpt lat="50.00965" lon="2.38413">
        <ele>126.3</ele>
        <time>2022-11-16T15:33:10Z</time>
      </trkpt>
      <trkpt lat="50.00965" lon="2.38413">
        <ele>126.3</ele>
        <time>2022-11-16T15:33:11Z</time>
      </trkpt>
      <trkpt lat="50.00965" lon="2.38413">
        <ele>126.3</ele>
        <time>2022-11-16T15:33:12Z</time>
      </trkpt>
      <trkpt lat="50.00965" lon="2.38413">
        <ele>126.3</ele>
        <time>2022-11-16T15:33:13Z</time>
      </trkpt>
      <trkpt lat="50.00965" lon="2.38413">
        <ele>126.3</ele>
        <time>2022-11-16T15:33:14Z</time>
      </trkpt>
      <trkpt lat="50.00965" lon="2.38413">
        <ele>126.3</ele>
        <time>2022-11-16T15:33:15Z</time>
      </trkpt>
      <trkpt lat="50.00965" lon="2.38413">
        <ele>126.3</ele>
        <time>2022-11-16T15:33:16Z</time>
      </trkpt>
      <trkpt lat="50.00965" lon="2.38413">
        <ele>126.3</ele>
        <time>2022-11-16T15:33:17Z</time>
      </trkpt>
      <trkpt lat="50.00965" lon="2.38413">
        <ele>126.3</ele>
        <time>2022-11-16T15:33:18Z</time>
      </trkpt>
      <trkpt lat="50.00965" lon="2.38413">
        <ele>126.3</ele>
        <time>2022-11-16T15:33:19Z</time>
      </trkpt>
      <trkpt lat="50.00965" lon="2.38413">
        <ele>126.3</ele>
        <time>2022-11-16T15:33:20Z</time>
      </trkpt>
      <trkpt lat="50.00965" lon="2.38413">
        <ele>126.3</ele>
        <time>2022-11-16T15:33:21Z</time>
      </trkpt>
      <trkpt lat="50.00965" lon="2.38413">
        <ele>126.3</ele>
        <time>2022-11-16T15:33:22Z</time>
      </trkpt>
      <trkpt lat="50.00965" lon="2.38413">
        <ele>126.3</ele>
        <time>2022-11-16T15:33:23Z</time>
      </trkpt>
      <trkpt lat="50.00965" lon="2.38413">
        <ele>126.3</ele>
        <time>2022-11-16T15:33:24Z</time>
      </trkpt>
      <trkpt lat="50.00965" lon="2.38413">
        <ele>126.3</ele>
        <time>2022-11-16T15:33:25Z</time>
      </trkpt>
      <trkpt lat="50.00965" lon="2.38413">
        <ele>126.3</ele>
        <time>2022-11-16T15:33:26Z</time>
      </trkpt>
      <trkpt lat="50.00965" lon="2.38413">
        <ele>126.3</ele>
        <time>2022-11-16T15:33:27Z</time>
      </trkpt>
      <trkpt lat="50.00965" lon="2.38413">
        <ele>126.3</ele>
        <time>2022-11-16T15:33:28Z</time>
      </trkpt>
      <trkpt lat="50.00965" lon="2.38413">
        <ele>126.3</ele>
        <time>2022-11-16T15:33:29Z</time>
      </trkpt>
      <trkpt lat="50.00965" lon="2.38413">
        <ele>126.3</ele>
        <time>2022-11-16T15:33:30Z</time>
      </trkpt>
      <trkpt lat="50.00965" lon="2.38413">
        <ele>126.3</ele>
        <time>2022-11-16T15:33:31Z</time>
      </trkpt>
      <trkpt lat="50.00965" lon="2.38413">
        <ele>126.3</ele>
        <time>2022-11-16T15:33:32Z</time>
      </trkpt>
      <trkpt lat="50.00965" lon="2.38413">
        <ele>126.3</ele>
        <time>2022-11-16T15:33:33Z</time>
      </trkpt>
      <trkpt lat="50.00965" lon="2.38413">
        <ele>126.3</ele>
        <time>2022-11-16T15:33:34Z</time>
      </trkpt>
      <trkpt lat="50.00965" lon="2.38413">
        <ele>126.3</ele>
        <time>2022-11-16T15:33:35Z</time>
      </trkpt>
      <trkpt lat="50.00965" lon="2.38413">
        <ele>126.3</ele>
        <time>2022-11-16T15:33:36Z</time>
      </trkpt>
      <trkpt lat="50.00965" lon="2.38413">
        <ele>126.3</ele>
        <time>2022-11-16T15:33:37Z</time>
      </trkpt>
      <trkpt lat="50.00965" lon="2.38413">
        <ele>126.3</ele>
        <time>2022-11-16T15:33:38Z</time>
      </trkpt>
      <trkpt lat="50.00965" lon="2.38413">
        <ele>126.3</ele>
        <time>2022-11-16T15:33:39Z</time>
      </trkpt>
      <trkpt lat="50.00965" lon="2.38413">
        <ele>126.3</ele>
        <time>2022-11-16T15:33:40Z</time>
      </trkpt>
      <trkpt lat="50.00965" lon="2.38413">
        <ele>126.3</ele>
        <time>2022-11-16T15:33:41Z</time>
      </trkpt>
      <trkpt lat="50.00965" lon="2.38413">
        <ele>126.3</ele>
        <time>2022-11-16T15:33:42Z</time>
      </trkpt>
      <trkpt lat="50.00965" lon="2.38413">
        <ele>126.3</ele>
        <time>2022-11-16T15:33:43Z</time>
      </trkpt>
      <trkpt lat="50.00965" lon="2.38413">
        <ele>126.3</ele>
        <time>2022-11-16T15:33:44Z</time>
      </trkpt>
      <trkpt lat="50.00965" lon="2.38413">
        <ele>126.3</ele>
        <time>2022-11-16T15:33:45Z</time>
      </trkpt>
      <trkpt lat="50.00965" lon="2.38413">
        <ele>126.3</ele>
        <time>2022-11-16T15:33:46Z</time>
      </trkpt>
      <trkpt lat="50.00965" lon="2.38413">
        <ele>126.3</ele>
        <time>2022-11-16T15:33:47Z</time>
      </trkpt>
      <trkpt lat="50.00965" lon="2.38413">
        <ele>126.3</ele>
        <time>2022-11-16T15:33:48Z</time>
      </trkpt>
      <trkpt lat="50.00965" lon="2.38413">
        <ele>126.3</ele>
        <time>2022-11-16T15:33:49Z</time>
      </trkpt>
      <trkpt lat="50.00965" lon="2.38413">
        <ele>126.3</ele>
        <time>2022-11-16T15:33:50Z</time>
      </trkpt>
      <trkpt lat="50.00965" lon="2.38413">
        <ele>126.3</ele>
        <time>2022-11-16T15:33:51Z</time>
      </trkpt>
      <trkpt lat="50.00965" lon="2.38413">
        <ele>126.3</ele>
        <time>2022-11-16T15:33:52Z</time>
      </trkpt>
      <trkpt lat="50.00965" lon="2.38413">
        <ele>126.3</ele>
        <time>2022-11-16T15:33:53Z</time>
      </trkpt>
      <trkpt lat="50.00965" lon="2.38413">
        <ele>126.3</ele>
        <time>2022-11-16T15:33:54Z</time>
      </trkpt>
      <trkpt lat="50.00965" lon="2.38413">
        <ele>126.3</ele>
        <time>2022-11-16T15:33:55Z</time>
      </trkpt>
      <trkpt lat="50.00965" lon="2.38413">
        <ele>126.3</ele>
        <time>2022-11-16T15:33:56Z</time>
      </trkpt>
      <trkpt lat="50.00965" lon="2.38413">
        <ele>126.3</ele>
        <time>2022-11-16T15:33:57Z</time>
      </trkpt>
      <trkpt lat="50.00965" lon="2.38413">
        <ele>126.3</ele>
        <time>2022-11-16T15:33:58Z</time>
      </trkpt>
      <trkpt lat="50.00965" lon="2.38413">
        <ele>126.3</ele>
        <time>2022-11-16T15:33:59Z</time>
      </trkpt>
      <trkpt lat="50.00965" lon="2.38413">
        <ele>126.3</ele>
        <time>2022-11-16T15:34:00Z</time>
      </trkpt>
      <trkpt lat="50.00965" lon="2.38413">
        <ele>126.3</ele>
        <time>2022-11-16T15:34:01Z</time>
      </trkpt>
      <trkpt lat="50.00965" lon="2.38413">
        <ele>126.3</ele>
        <time>2022-11-16T15:34:02Z</time>
      </trkpt>
      <trkpt lat="50.00965" lon="2.38413">
        <ele>126.3</ele>
        <time>2022-11-16T15:34:03Z</time>
      </trkpt>
      <trkpt lat="50.00965" lon="2.38413">
        <ele>126.3</ele>
        <time>2022-11-16T15:34:04Z</time>
      </trkpt>
      <trkpt lat="50.00965" lon="2.38413">
        <ele>126.3</ele>
        <time>2022-11-16T15:34:05Z</time>
      </trkpt>
      <trkpt lat="50.00965" lon="2.38413">
        <ele>126.3</ele>
        <time>2022-11-16T15:34:06Z</time>
      </trkpt>
      <trkpt lat="50.00965" lon="2.38413">
        <ele>126.3</ele>
        <time>2022-11-16T15:34:07Z</time>
      </trkpt>
      <trkpt lat="50.00965" lon="2.38413">
        <ele>126.3</ele>
        <time>2022-11-16T15:34:08Z</time>
      </trkpt>
      <trkpt lat="50.00965" lon="2.38413">
        <ele>126.3</ele>
        <time>2022-11-16T15:34:09Z</time>
      </trkpt>
      <trkpt lat="50.00965" lon="2.38413">
        <ele>126.3</ele>
        <time>2022-11-16T15:34:10Z</time>
      </trkpt>
      <trkpt lat="50.00965" lon="2.38413">
        <ele>126.3</ele>
        <time>2022-11-16T15:34:11Z</time>
      </trkpt>
      <trkpt lat="50.00965" lon="2.38413">
        <ele>126.3</ele>
        <time>2022-11-16T15:34:12Z</time>
      </trkpt>
      <trkpt lat="50.00965" lon="2.38413">
        <ele>126.3</ele>
        <time>2022-11-16T15:34:13Z</time>
      </trkpt>
      <trkpt lat="50.00965" lon="2.38413">
        <ele>126.3</ele>
        <time>2022-11-16T15:34:14Z</time>
      </trkpt>
      <trkpt lat="50.00965" lon="2.38413">
        <ele>126.3</ele>
        <time>2022-11-16T15:34:15Z</time>
      </trkpt>
      <trkpt lat="50.00965" lon="2.38413">
        <ele>126.3</ele>
        <time>2022-11-16T15:34:16Z</time>
      </trkpt>
      <trkpt lat="50.00965" lon="2.38413">
        <ele>126.3</ele>
        <time>2022-11-16T15:34:17Z</time>
      </trkpt>
      <trkpt lat="50.00965" lon="2.38413">
        <ele>126.3</ele>
        <time>2022-11-16T15:34:18Z</time>
      </trkpt>
      <trkpt lat="50.00965" lon="2.38413">
        <ele>126.3</ele>
        <time>2022-11-16T15:34:19Z</time>
      </trkpt>
      <trkpt lat="50.00965" lon="2.38413">
        <ele>126.3</ele>
        <time>2022-11-16T15:34:20Z</time>
      </trkpt>
      <trkpt lat="50.00965" lon="2.38413">
        <ele>126.3</ele>
        <time>2022-11-16T15:34:21Z</time>
      </trkpt>
      <trkpt lat="50.00965" lon="2.38413">
        <ele>126.3</ele>
        <time>2022-11-16T15:34:22Z</time>
      </trkpt>
      <trkpt lat="50.00965" lon="2.38413">
        <ele>126.3</ele>
        <time>2022-11-16T15:34:23Z</time>
      </trkpt>
      <trkpt lat="50.00965" lon="2.38413">
        <ele>126.3</ele>
        <time>2022-11-16T15:34:24Z</time>
      </trkpt>
      <trkpt lat="50.00965" lon="2.38413">
        <ele>126.3</ele>
        <time>2022-11-16T15:34:25Z</time>
      </trkpt>
      <trkpt lat="50.00965" lon="2.38413">
        <ele>126.3</ele>
        <time>2022-11-16T15:34:26Z</time>
      </trkpt>
      <trkpt lat="50.00965" lon="2.38413">
        <ele>126.3</ele>
        <time>2022-11-16T15:34:27Z</time>
      </trkpt>
      <trkpt lat="50.00965" lon="2.38413">
        <ele>126.3</ele>
        <time>2022-11-16T15:34:28Z</time>
      </trkpt>
      <trkpt lat="50.00965" lon="2.38413">
        <ele>126.3</ele>
        <time>2022-11-16T15:34:29Z</time>
      </trkpt>
      <trkpt lat="50.00965" lon="2.38413">
        <ele>126.3</ele>
        <time>2022-11-16T15:34:30Z</time>
      </trkpt>
      <trkpt lat="50.00965" lon="2.38413">
        <ele>126.3</ele>
        <time>2022-11-16T15:34:31Z</time>
      </trkpt>
      <trkpt lat="50.00965" lon="2.38413">
        <ele>126.3</ele>
        <time>2022-11-16T15:34:32Z</time>
      </trkpt>
      <trkpt lat="50.00965" lon="2.38413">
        <ele>126.3</ele>
        <time>2022-11-16T15:34:33Z</time>
      </trkpt>
      <trkpt lat="50.00965" lon="2.38413">
        <ele>126.3</ele>
        <time>2022-11-16T15:34:34Z</time>
      </trkpt>
      <trkpt lat="50.00965" lon="2.38413">
        <ele>126.3</ele>
        <time>2022-11-16T15:34:35Z</time>
      </trkpt>
      <trkpt lat="50.00965" lon="2.38413">
        <ele>126.3</ele>
        <time>2022-11-16T15:34:36Z</time>
      </trkpt>
      <trkpt lat="50.00965" lon="2.38413">
        <ele>126.3</ele>
        <time>2022-11-16T15:34:37Z</time>
      </trkpt>
      <trkpt lat="50.00965" lon="2.38413">
        <ele>126.3</ele>
        <time>2022-11-16T15:34:38Z</time>
      </trkpt>
      <trkpt lat="50.00965" lon="2.38413">
        <ele>126.3</ele>
        <time>2022-11-16T15:34:39Z</time>
      </trkpt>
      <trkpt lat="50.00965" lon="2.38413">
        <ele>126.3</ele>
        <time>2022-11-16T15:34:40Z</time>
      </trkpt>
      <trkpt lat="50.00965" lon="2.38413">
        <ele>126.3</ele>
        <time>2022-11-16T15:34:41Z</time>
      </trkpt>
      <trkpt lat="50.00965" lon="2.38413">
        <ele>126.3</ele>
        <time>2022-11-16T15:34:42Z</time>
      </trkpt>
      <trkpt lat="50.00965" lon="2.38413">
        <ele>126.3</ele>
        <time>2022-11-16T15:34:43Z</time>
      </trkpt>
      <trkpt lat="50.00965" lon="2.38413">
        <ele>126.3</ele>
        <time>2022-11-16T15:34:44Z</time>
      </trkpt>
      <trkpt lat="50.00965" lon="2.38413">
        <ele>126.3</ele>
        <time>2022-11-16T15:34:45Z</time>
      </trkpt>
      <trkpt lat="50.00965" lon="2.38413">
        <ele>126.3</ele>
        <time>2022-11-16T15:34:46Z</time>
      </trkpt>
      <trkpt lat="50.00965" lon="2.38413">
        <ele>126.3</ele>
        <time>2022-11-16T15:34:47Z</time>
      </trkpt>
      <trkpt lat="50.00965" lon="2.38413">
        <ele>126.3</ele>
        <time>2022-11-16T15:34:48Z</time>
      </trkpt>
      <trkpt lat="50.00965" lon="2.38413">
        <ele>126.3</ele>
        <time>2022-11-16T15:34:49Z</time>
      </trkpt>
      <trkpt lat="50.00965" lon="2.38413">
        <ele>126.3</ele>
        <time>2022-11-16T15:34:50Z</time>
      </trkpt>
      <trkpt lat="50.00965" lon="2.38413">
        <ele>126.3</ele>
        <time>2022-11-16T15:34:51Z</time>
      </trkpt>
      <trkpt lat="50.00965" lon="2.38413">
        <ele>126.3</ele>
        <time>2022-11-16T15:34:52Z</time>
      </trkpt>
      <trkpt lat="50.00965" lon="2.38413">
        <ele>126.3</ele>
        <time>2022-11-16T15:34:53Z</time>
      </trkpt>
      <trkpt lat="50.00965" lon="2.38413">
        <ele>126.3</ele>
        <time>2022-11-16T15:34:54Z</time>
      </trkpt>
      <trkpt lat="50.00965" lon="2.38413">
        <ele>126.3</ele>
        <time>2022-11-16T15:34:55Z</time>
      </trkpt>
      <trkpt lat="50.00965" lon="2.38413">
        <ele>126.3</ele>
        <time>2022-11-16T15:34:56Z</time>
      </trkpt>
      <trkpt lat="50.00965" lon="2.38413">
        <ele>126.3</ele>
        <time>2022-11-16T15:34:57Z</time>
      </trkpt>
      <trkpt lat="50.00965" lon="2.38413">
        <ele>126.3</ele>
        <time>2022-11-16T15:34:58Z</time>
      </trkpt>
      <trkpt lat="50.00965" lon="2.38413">
        <ele>126.3</ele>
        <time>2022-11-16T15:34:59Z</time>
      </trkpt>
      <trkpt lat="50.00965" lon="2.38413">
        <ele>126.3</ele>
        <time>2022-11-16T15:35:00Z</time>
      </trkpt>
      <trkpt lat="50.00965" lon="2.38413">
        <ele>126.3</ele>
        <time>2022-11-16T15:35:01Z</time>
      </trkpt>
      <trkpt lat="50.00965" lon="2.38413">
        <ele>126.3</ele>
        <time>2022-11-16T15:35:02Z</time>
      </trkpt>
      <trkpt lat="50.00965" lon="2.38413">
        <ele>126.3</ele>
        <time>2022-11-16T15:35:03Z</time>
      </trkpt>
      <trkpt lat="50.00965" lon="2.38413">
        <ele>126.3</ele>
        <time>2022-11-16T15:35:04Z</time>
      </trkpt>
      <trkpt lat="50.00965" lon="2.38413">
        <ele>126.3</ele>
        <time>2022-11-16T15:35:05Z</time>
      </trkpt>
      <trkpt lat="50.00965" lon="2.38413">
        <ele>126.3</ele>
        <time>2022-11-16T15:35:06Z</time>
      </trkpt>
      <trkpt lat="50.00965" lon="2.38413">
        <ele>126.3</ele>
        <time>2022-11-16T15:35:07Z</time>
      </trkpt>
      <trkpt lat="50.00965" lon="2.38413">
        <ele>126.3</ele>
        <time>2022-11-16T15:35:08Z</time>
      </trkpt>
      <trkpt lat="50.00965" lon="2.38413">
        <ele>126.3</ele>
        <time>2022-11-16T15:35:09Z</time>
      </trkpt>
      <trkpt lat="50.00965" lon="2.38413">
        <ele>126.3</ele>
        <time>2022-11-16T15:35:10Z</time>
      </trkpt>
      <trkpt lat="50.00965" lon="2.38413">
        <ele>126.3</ele>
        <time>2022-11-16T15:35:11Z</time>
      </trkpt>
      <trkpt lat="50.00965" lon="2.38413">
        <ele>126.3</ele>
        <time>2022-11-16T15:35:12Z</time>
      </trkpt>
      <trkpt lat="50.00965" lon="2.38413">
        <ele>126.3</ele>
        <time>2022-11-16T15:35:13Z</time>
      </trkpt>
      <trkpt lat="50.00965" lon="2.38413">
        <ele>126.3</ele>
        <time>2022-11-16T15:35:14Z</time>
      </trkpt>
      <trkpt lat="50.00965" lon="2.38413">
        <ele>126.3</ele>
        <time>2022-11-16T15:35:15Z</time>
      </trkpt>
      <trkpt lat="50.00965" lon="2.38413">
        <ele>126.3</ele>
        <time>2022-11-16T15:35:16Z</time>
      </trkpt>
      <trkpt lat="50.00965" lon="2.38413">
        <ele>126.3</ele>
        <time>2022-11-16T15:35:17Z</time>
      </trkpt>
      <trkpt lat="50.00965" lon="2.38413">
        <ele>126.3</ele>
        <time>2022-11-16T15:35:18Z</time>
      </trkpt>
      <trkpt lat="50.00965" lon="2.38413">
        <ele>126.3</ele>
        <time>2022-11-16T15:35:19Z</time>
      </trkpt>
      <trkpt lat="50.00965" lon="2.38413">
        <ele>126.3</ele>
        <time>2022-11-16T15:35:20Z</time>
      </trkpt>
      <trkpt lat="50.00965" lon="2.38413">
        <ele>126.3</ele>
        <time>2022-11-16T15:35:21Z</time>
      </trkpt>
      <trkpt lat="50.00965" lon="2.38413">
        <ele>126.3</ele>
        <time>2022-11-16T15:35:22Z</time>
      </trkpt>
      <trkpt lat="50.00965" lon="2.38413">
        <ele>126.3</ele>
        <time>2022-11-16T15:35:23Z</time>
      </trkpt>
      <trkpt lat="50.00965" lon="2.38413">
        <ele>126.3</ele>
        <time>2022-11-16T15:35:24Z</time>
      </trkpt>
      <trkpt lat="50.00965" lon="2.38413">
        <ele>126.3</ele>
        <time>2022-11-16T15:35:25Z</time>
      </trkpt>
      <trkpt lat="50.00965" lon="2.38413">
        <ele>126.3</ele>
        <time>2022-11-16T15:35:26Z</time>
      </trkpt>
      <trkpt lat="50.00965" lon="2.38413">
        <ele>126.3</ele>
        <time>2022-11-16T15:35:27Z</time>
      </trkpt>
      <trkpt lat="50.00965" lon="2.38413">
        <ele>126.3</ele>
        <time>2022-11-16T15:35:28Z</time>
      </trkpt>
      <trkpt lat="50.00965" lon="2.38413">
        <ele>126.3</ele>
        <time>2022-11-16T15:35:29Z</time>
      </trkpt>
      <trkpt lat="50.00965" lon="2.38413">
        <ele>126.3</ele>
        <time>2022-11-16T15:35:30Z</time>
      </trkpt>
      <trkpt lat="50.00965" lon="2.38413">
        <ele>126.3</ele>
        <time>2022-11-16T15:35:31Z</time>
      </trkpt>
      <trkpt lat="50.00965" lon="2.38413">
        <ele>126.3</ele>
        <time>2022-11-16T15:35:32Z</time>
      </trkpt>
      <trkpt lat="50.00965" lon="2.38413">
        <ele>126.3</ele>
        <time>2022-11-16T15:35:33Z</time>
      </trkpt>
      <trkpt lat="50.00965" lon="2.38413">
        <ele>126.3</ele>
        <time>2022-11-16T15:35:34Z</time>
      </trkpt>
      <trkpt lat="50.00965" lon="2.38413">
        <ele>126.3</ele>
        <time>2022-11-16T15:35:35Z</time>
      </trkpt>
      <trkpt lat="50.00965" lon="2.38413">
        <ele>126.3</ele>
        <time>2022-11-16T15:35:36Z</time>
      </trkpt>
      <trkpt lat="50.00965" lon="2.38413">
        <ele>126.3</ele>
        <time>2022-11-16T15:35:37Z</time>
      </trkpt>
      <trkpt lat="50.00965" lon="2.38413">
        <ele>126.3</ele>
        <time>2022-11-16T15:35:38Z</time>
      </trkpt>
      <trkpt lat="50.00965" lon="2.38413">
        <ele>126.3</ele>
        <time>2022-11-16T15:35:39Z</time>
      </trkpt>
      <trkpt lat="50.00965" lon="2.38413">
        <ele>126.3</ele>
        <time>2022-11-16T15:35:40Z</time>
      </trkpt>
      <trkpt lat="50.00965" lon="2.38413">
        <ele>126.3</ele>
        <time>2022-11-16T15:35:41Z</time>
      </trkpt>
      <trkpt lat="50.00965" lon="2.38413">
        <ele>126.3</ele>
        <time>2022-11-16T15:35:42Z</time>
      </trkpt>
      <trkpt lat="50.00965" lon="2.38413">
        <ele>126.3</ele>
        <time>2022-11-16T15:35:43Z</time>
      </trkpt>
      <trkpt lat="50.00965" lon="2.38413">
        <ele>126.3</ele>
        <time>2022-11-16T15:35:44Z</time>
      </trkpt>
      <trkpt lat="50.00964" lon="2.38411">
        <ele>126.3</ele>
        <time>2022-11-16T15:35:45Z</time>
      </trkpt>
      <trkpt lat="50.00964" lon="2.3841">
        <ele>126.3</ele>
        <time>2022-11-16T15:35:46Z</time>
      </trkpt>
      <trkpt lat="50.00964" lon="2.3841">
        <ele>126.3</ele>
        <time>2022-11-16T15:35:47Z</time>
      </trkpt>
      <trkpt lat="50.00964" lon="2.3841">
        <ele>126.3</ele>
        <time>2022-11-16T15:35:48Z</time>
      </trkpt>
      <trkpt lat="50.00964" lon="2.3841">
        <ele>126.3</ele>
        <time>2022-11-16T15:35:49Z</time>
      </trkpt>
      <trkpt lat="50.00964" lon="2.3841">
        <ele>126.3</ele>
        <time>2022-11-16T15:35:50Z</time>
      </trkpt>
      <trkpt lat="50.00964" lon="2.3841">
        <ele>126.3</ele>
        <time>2022-11-16T15:35:51Z</time>
      </trkpt>
      <trkpt lat="50.00964" lon="2.3841">
        <ele>126.3</ele>
        <time>2022-11-16T15:35:52Z</time>
      </trkpt>
      <trkpt lat="50.00964" lon="2.3841">
        <ele>126.3</ele>
        <time>2022-11-16T15:35:53Z</time>
      </trkpt>
      <trkpt lat="50.00964" lon="2.3841">
        <ele>126.3</ele>
        <time>2022-11-16T15:35:54Z</time>
      </trkpt>
      <trkpt lat="50.00964" lon="2.3841">
        <ele>126.3</ele>
        <time>2022-11-16T15:35:55Z</time>
      </trkpt>
      <trkpt lat="50.00964" lon="2.3841">
        <ele>126.3</ele>
        <time>2022-11-16T15:35:56Z</time>
      </trkpt>
      <trkpt lat="50.00964" lon="2.3841">
        <ele>126.3</ele>
        <time>2022-11-16T15:35:57Z</time>
      </trkpt>
      <trkpt lat="50.00964" lon="2.3841">
        <ele>126.3</ele>
        <time>2022-11-16T15:35:58Z</time>
      </trkpt>
      <trkpt lat="50.00964" lon="2.3841">
        <ele>126.3</ele>
        <time>2022-11-16T15:35:59Z</time>
      </trkpt>
      <trkpt lat="50.00964" lon="2.3841">
        <ele>126.3</ele>
        <time>2022-11-16T15:36:00Z</time>
      </trkpt>
      <trkpt lat="50.00964" lon="2.3841">
        <ele>126.3</ele>
        <time>2022-11-16T15:36:01Z</time>
      </trkpt>
      <trkpt lat="50.00964" lon="2.3841">
        <ele>126.3</ele>
        <time>2022-11-16T15:36:02Z</time>
      </trkpt>
      <trkpt lat="50.00964" lon="2.3841">
        <ele>126.3</ele>
        <time>2022-11-16T15:36:03Z</time>
      </trkpt>
      <trkpt lat="50.00964" lon="2.3841">
        <ele>126.3</ele>
        <time>2022-11-16T15:36:04Z</time>
      </trkpt>
      <trkpt lat="50.00964" lon="2.3841">
        <ele>126.3</ele>
        <time>2022-11-16T15:36:05Z</time>
      </trkpt>
      <trkpt lat="50.00964" lon="2.3841">
        <ele>126.3</ele>
        <time>2022-11-16T15:36:06Z</time>
      </trkpt>
      <trkpt lat="50.00964" lon="2.3841">
        <ele>126.3</ele>
        <time>2022-11-16T15:36:07Z</time>
      </trkpt>
      <trkpt lat="50.00964" lon="2.3841">
        <ele>126.3</ele>
        <time>2022-11-16T15:36:08Z</time>
      </trkpt>
      <trkpt lat="50.00964" lon="2.3841">
        <ele>126.3</ele>
        <time>2022-11-16T15:36:09Z</time>
      </trkpt>
      <trkpt lat="50.00964" lon="2.3841">
        <ele>126.3</ele>
        <time>2022-11-16T15:36:10Z</time>
      </trkpt>
      <trkpt lat="50.00964" lon="2.3841">
        <ele>126.3</ele>
        <time>2022-11-16T15:36:11Z</time>
      </trkpt>
      <trkpt lat="50.00964" lon="2.3841">
        <ele>126.3</ele>
        <time>2022-11-16T15:36:12Z</time>
      </trkpt>
      <trkpt lat="50.00964" lon="2.3841">
        <ele>126.3</ele>
        <time>2022-11-16T15:36:13Z</time>
      </trkpt>
      <trkpt lat="50.00964" lon="2.3841">
        <ele>126.3</ele>
        <time>2022-11-16T15:36:14Z</time>
      </trkpt>
      <trkpt lat="50.00964" lon="2.3841">
        <ele>126.3</ele>
        <time>2022-11-16T15:36:15Z</time>
      </trkpt>
      <trkpt lat="50.00964" lon="2.3841">
        <ele>126.3</ele>
        <time>2022-11-16T15:36:16Z</time>
      </trkpt>
      <trkpt lat="50.00964" lon="2.3841">
        <ele>126.3</ele>
        <time>2022-11-16T15:36:17Z</time>
      </trkpt>
      <trkpt lat="50.00964" lon="2.3841">
        <ele>126.3</ele>
        <time>2022-11-16T15:36:18Z</time>
      </trkpt>
      <trkpt lat="50.00964" lon="2.3841">
        <ele>126.3</ele>
        <time>2022-11-16T15:36:19Z</time>
      </trkpt>
      <trkpt lat="50.00964" lon="2.3841">
        <ele>126.3</ele>
        <time>2022-11-16T15:36:20Z</time>
      </trkpt>
      <trkpt lat="50.00964" lon="2.3841">
        <ele>126.3</ele>
        <time>2022-11-16T15:36:21Z</time>
      </trkpt>
      <trkpt lat="50.00964" lon="2.3841">
        <ele>126.3</ele>
        <time>2022-11-16T15:36:22Z</time>
      </trkpt>
      <trkpt lat="50.00964" lon="2.3841">
        <ele>126.3</ele>
        <time>2022-11-16T15:36:23Z</time>
      </trkpt>
      <trkpt lat="50.00964" lon="2.3841">
        <ele>126.3</ele>
        <time>2022-11-16T15:36:24Z</time>
      </trkpt>
      <trkpt lat="50.00964" lon="2.3841">
        <ele>126.3</ele>
        <time>2022-11-16T15:36:25Z</time>
      </trkpt>
      <trkpt lat="50.00964" lon="2.3841">
        <ele>126.3</ele>
        <time>2022-11-16T15:36:26Z</time>
      </trkpt>
      <trkpt lat="50.00964" lon="2.3841">
        <ele>126.3</ele>
        <time>2022-11-16T15:36:27Z</time>
      </trkpt>
      <trkpt lat="50.00964" lon="2.3841">
        <ele>126.3</ele>
        <time>2022-11-16T15:36:28Z</time>
      </trkpt>
      <trkpt lat="50.00964" lon="2.3841">
        <ele>126.3</ele>
        <time>2022-11-16T15:36:29Z</time>
      </trkpt>
      <trkpt lat="50.00964" lon="2.3841">
        <ele>126.3</ele>
        <time>2022-11-16T15:36:30Z</time>
      </trkpt>
      <trkpt lat="50.00964" lon="2.3841">
        <ele>126.3</ele>
        <time>2022-11-16T15:36:31Z</time>
      </trkpt>
      <trkpt lat="50.00964" lon="2.3841">
        <ele>126.3</ele>
        <time>2022-11-16T15:36:32Z</time>
      </trkpt>
      <trkpt lat="50.00964" lon="2.3841">
        <ele>126.3</ele>
        <time>2022-11-16T15:36:33Z</time>
      </trkpt>
      <trkpt lat="50.00964" lon="2.3841">
        <ele>126.3</ele>
        <time>2022-11-16T15:36:34Z</time>
      </trkpt>
      <trkpt lat="50.00964" lon="2.3841">
        <ele>126.3</ele>
        <time>2022-11-16T15:36:35Z</time>
      </trkpt>
      <trkpt lat="50.00964" lon="2.3841">
        <ele>126.3</ele>
        <time>2022-11-16T15:36:36Z</time>
      </trkpt>
      <trkpt lat="50.00964" lon="2.3841">
        <ele>126.3</ele>
        <time>2022-11-16T15:36:37Z</time>
      </trkpt>
      <trkpt lat="50.00964" lon="2.3841">
        <ele>126.3</ele>
        <time>2022-11-16T15:36:38Z</time>
      </trkpt>
      <trkpt lat="50.00964" lon="2.3841">
        <ele>126.3</ele>
        <time>2022-11-16T15:36:39Z</time>
      </trkpt>
      <trkpt lat="50.00964" lon="2.3841">
        <ele>126.3</ele>
        <time>2022-11-16T15:36:40Z</time>
      </trkpt>
      <trkpt lat="50.00964" lon="2.3841">
        <ele>126.3</ele>
        <time>2022-11-16T15:36:41Z</time>
      </trkpt>
      <trkpt lat="50.00964" lon="2.3841">
        <ele>126.3</ele>
        <time>2022-11-16T15:36:42Z</time>
      </trkpt>
      <trkpt lat="50.00964" lon="2.3841">
        <ele>126.3</ele>
        <time>2022-11-16T15:36:43Z</time>
      </trkpt>
      <trkpt lat="50.00964" lon="2.3841">
        <ele>126.3</ele>
        <time>2022-11-16T15:36:44Z</time>
      </trkpt>
      <trkpt lat="50.00964" lon="2.3841">
        <ele>126.3</ele>
        <time>2022-11-16T15:36:45Z</time>
      </trkpt>
      <trkpt lat="50.00964" lon="2.3841">
        <ele>126.3</ele>
        <time>2022-11-16T15:36:46Z</time>
      </trkpt>
      <trkpt lat="50.00964" lon="2.3841">
        <ele>126.3</ele>
        <time>2022-11-16T15:36:47Z</time>
      </trkpt>
      <trkpt lat="50.00964" lon="2.3841">
        <ele>126.3</ele>
        <time>2022-11-16T15:36:48Z</time>
      </trkpt>
      <trkpt lat="50.00964" lon="2.3841">
        <ele>126.3</ele>
        <time>2022-11-16T15:36:49Z</time>
      </trkpt>
      <trkpt lat="50.00964" lon="2.3841">
        <ele>126.3</ele>
        <time>2022-11-16T15:36:50Z</time>
      </trkpt>
      <trkpt lat="50.00964" lon="2.3841">
        <ele>126.3</ele>
        <time>2022-11-16T15:36:51Z</time>
      </trkpt>
      <trkpt lat="50.00964" lon="2.3841">
        <ele>126.3</ele>
        <time>2022-11-16T15:36:52Z</time>
      </trkpt>
      <trkpt lat="50.00964" lon="2.3841">
        <ele>126.3</ele>
        <time>2022-11-16T15:36:53Z</time>
      </trkpt>
      <trkpt lat="50.00964" lon="2.3841">
        <ele>126.3</ele>
        <time>2022-11-16T15:36:54Z</time>
      </trkpt>
      <trkpt lat="50.00964" lon="2.3841">
        <ele>126.3</ele>
        <time>2022-11-16T15:36:55Z</time>
      </trkpt>
      <trkpt lat="50.00964" lon="2.3841">
        <ele>126.3</ele>
        <time>2022-11-16T15:36:56Z</time>
      </trkpt>
      <trkpt lat="50.00964" lon="2.3841">
        <ele>126.3</ele>
        <time>2022-11-16T15:36:57Z</time>
      </trkpt>
      <trkpt lat="50.00964" lon="2.3841">
        <ele>126.3</ele>
        <time>2022-11-16T15:36:58Z</time>
      </trkpt>
      <trkpt lat="50.00964" lon="2.3841">
        <ele>126.3</ele>
        <time>2022-11-16T15:36:59Z</time>
      </trkpt>
      <trkpt lat="50.00964" lon="2.3841">
        <ele>126.3</ele>
        <time>2022-11-16T15:37:00Z</time>
      </trkpt>
      <trkpt lat="50.00964" lon="2.3841">
        <ele>126.3</ele>
        <time>2022-11-16T15:37:01Z</time>
      </trkpt>
      <trkpt lat="50.00964" lon="2.3841">
        <ele>126.3</ele>
        <time>2022-11-16T15:37:02Z</time>
      </trkpt>
      <trkpt lat="50.00964" lon="2.3841">
        <ele>126.3</ele>
        <time>2022-11-16T15:37:03Z</time>
      </trkpt>
      <trkpt lat="50.00964" lon="2.3841">
        <ele>126.3</ele>
        <time>2022-11-16T15:37:04Z</time>
      </trkpt>
      <trkpt lat="50.00964" lon="2.3841">
        <ele>126.3</ele>
        <time>2022-11-16T15:37:05Z</time>
      </trkpt>
      <trkpt lat="50.00964" lon="2.3841">
        <ele>126.3</ele>
        <time>2022-11-16T15:37:06Z</time>
      </trkpt>
      <trkpt lat="50.00964" lon="2.3841">
        <ele>126.3</ele>
        <time>2022-11-16T15:37:07Z</time>
      </trkpt>
      <trkpt lat="50.00964" lon="2.3841">
        <ele>126.3</ele>
        <time>2022-11-16T15:37:08Z</time>
      </trkpt>
      <trkpt lat="50.00964" lon="2.3841">
        <ele>126.3</ele>
        <time>2022-11-16T15:37:09Z</time>
      </trkpt>
      <trkpt lat="50.00964" lon="2.3841">
        <ele>126.3</ele>
        <time>2022-11-16T15:37:10Z</time>
      </trkpt>
      <trkpt lat="50.00964" lon="2.38409">
        <ele>126.3</ele>
        <time>2022-11-16T15:37:11Z</time>
      </trkpt>
      <trkpt lat="50.00964" lon="2.38409">
        <ele>126.3</ele>
        <time>2022-11-16T15:37:12Z</time>
      </trkpt>
      <trkpt lat="50.00964" lon="2.38409">
        <ele>126.3</ele>
        <time>2022-11-16T15:37:13Z</time>
      </trkpt>
      <trkpt lat="50.00964" lon="2.38409">
        <ele>126.3</ele>
        <time>2022-11-16T15:37:14Z</time>
      </trkpt>
      <trkpt lat="50.00964" lon="2.38409">
        <ele>126.3</ele>
        <time>2022-11-16T15:37:15Z</time>
      </trkpt>
      <trkpt lat="50.00964" lon="2.38409">
        <ele>126.3</ele>
        <time>2022-11-16T15:37:16Z</time>
      </trkpt>
      <trkpt lat="50.00964" lon="2.38409">
        <ele>126.3</ele>
        <time>2022-11-16T15:37:17Z</time>
      </trkpt>
      <trkpt lat="50.00964" lon="2.38409">
        <ele>126.3</ele>
        <time>2022-11-16T15:37:18Z</time>
      </trkpt>
      <trkpt lat="50.00964" lon="2.38409">
        <ele>126.3</ele>
        <time>2022-11-16T15:37:19Z</time>
      </trkpt>
      <trkpt lat="50.00964" lon="2.38409">
        <ele>126.3</ele>
        <time>2022-11-16T15:37:20Z</time>
      </trkpt>
      <trkpt lat="50.00964" lon="2.38409">
        <ele>126.3</ele>
        <time>2022-11-16T15:37:21Z</time>
      </trkpt>
      <trkpt lat="50.00964" lon="2.38409">
        <ele>126.3</ele>
        <time>2022-11-16T15:37:22Z</time>
      </trkpt>
      <trkpt lat="50.00964" lon="2.38409">
        <ele>126.3</ele>
        <time>2022-11-16T15:37:23Z</time>
      </trkpt>
      <trkpt lat="50.00964" lon="2.38409">
        <ele>126.3</ele>
        <time>2022-11-16T15:37:24Z</time>
      </trkpt>
      <trkpt lat="50.00964" lon="2.38409">
        <ele>126.3</ele>
        <time>2022-11-16T15:37:25Z</time>
      </trkpt>
      <trkpt lat="50.00964" lon="2.38409">
        <ele>126.3</ele>
        <time>2022-11-16T15:37:26Z</time>
      </trkpt>
      <trkpt lat="50.00964" lon="2.38409">
        <ele>126.3</ele>
        <time>2022-11-16T15:37:27Z</time>
      </trkpt>
      <trkpt lat="50.00964" lon="2.38409">
        <ele>126.3</ele>
        <time>2022-11-16T15:37:28Z</time>
      </trkpt>
      <trkpt lat="50.00964" lon="2.38409">
        <ele>126.3</ele>
        <time>2022-11-16T15:37:29Z</time>
      </trkpt>
      <trkpt lat="50.00964" lon="2.38409">
        <ele>126.3</ele>
        <time>2022-11-16T15:37:30Z</time>
      </trkpt>
      <trkpt lat="50.00964" lon="2.38409">
        <ele>126.3</ele>
        <time>2022-11-16T15:37:31Z</time>
      </trkpt>
      <trkpt lat="50.00964" lon="2.38409">
        <ele>126.3</ele>
        <time>2022-11-16T15:37:32Z</time>
      </trkpt>
      <trkpt lat="50.00964" lon="2.38409">
        <ele>126.3</ele>
        <time>2022-11-16T15:37:33Z</time>
      </trkpt>
      <trkpt lat="50.00964" lon="2.38409">
        <ele>126.3</ele>
        <time>2022-11-16T15:37:34Z</time>
      </trkpt>
      <trkpt lat="50.00964" lon="2.38409">
        <ele>126.3</ele>
        <time>2022-11-16T15:37:35Z</time>
      </trkpt>
      <trkpt lat="50.00964" lon="2.38409">
        <ele>126.3</ele>
        <time>2022-11-16T15:37:36Z</time>
      </trkpt>
      <trkpt lat="50.00964" lon="2.38409">
        <ele>126.3</ele>
        <time>2022-11-16T15:37:37Z</time>
      </trkpt>
      <trkpt lat="50.00964" lon="2.38409">
        <ele>126.3</ele>
        <time>2022-11-16T15:37:38Z</time>
      </trkpt>
      <trkpt lat="50.00964" lon="2.38409">
        <ele>126.3</ele>
        <time>2022-11-16T15:37:39Z</time>
      </trkpt>
      <trkpt lat="50.00964" lon="2.38409">
        <ele>126.3</ele>
        <time>2022-11-16T15:37:40Z</time>
      </trkpt>
      <trkpt lat="50.00964" lon="2.38409">
        <ele>126.3</ele>
        <time>2022-11-16T15:37:41Z</time>
      </trkpt>
      <trkpt lat="50.00964" lon="2.38409">
        <ele>126.3</ele>
        <time>2022-11-16T15:37:42Z</time>
      </trkpt>
      <trkpt lat="50.00964" lon="2.38409">
        <ele>126.3</ele>
        <time>2022-11-16T15:37:43Z</time>
      </trkpt>
      <trkpt lat="50.00964" lon="2.38409">
        <ele>126.3</ele>
        <time>2022-11-16T15:37:44Z</time>
      </trkpt>
      <trkpt lat="50.00964" lon="2.38409">
        <ele>126.3</ele>
        <time>2022-11-16T15:37:45Z</time>
      </trkpt>
      <trkpt lat="50.00964" lon="2.38409">
        <ele>126.3</ele>
        <time>2022-11-16T15:37:46Z</time>
      </trkpt>
      <trkpt lat="50.00964" lon="2.38409">
        <ele>126.3</ele>
        <time>2022-11-16T15:37:47Z</time>
      </trkpt>
      <trkpt lat="50.00964" lon="2.38409">
        <ele>126.3</ele>
        <time>2022-11-16T15:37:48Z</time>
      </trkpt>
      <trkpt lat="50.00964" lon="2.38409">
        <ele>126.3</ele>
        <time>2022-11-16T15:37:49Z</time>
      </trkpt>
      <trkpt lat="50.00964" lon="2.38409">
        <ele>126.3</ele>
        <time>2022-11-16T15:37:50Z</time>
      </trkpt>
      <trkpt lat="50.00964" lon="2.38409">
        <ele>126.3</ele>
        <time>2022-11-16T15:37:51Z</time>
      </trkpt>
      <trkpt lat="50.00964" lon="2.38409">
        <ele>126.3</ele>
        <time>2022-11-16T15:37:52Z</time>
      </trkpt>
      <trkpt lat="50.00964" lon="2.38409">
        <ele>126.3</ele>
        <time>2022-11-16T15:37:53Z</time>
      </trkpt>
      <trkpt lat="50.00964" lon="2.38409">
        <ele>126.3</ele>
        <time>2022-11-16T15:37:54Z</time>
      </trkpt>
      <trkpt lat="50.00964" lon="2.38409">
        <ele>126.3</ele>
        <time>2022-11-16T15:37:55Z</time>
      </trkpt>
      <trkpt lat="50.00964" lon="2.38409">
        <ele>126.3</ele>
        <time>2022-11-16T15:37:56Z</time>
      </trkpt>
      <trkpt lat="50.00964" lon="2.38409">
        <ele>126.3</ele>
        <time>2022-11-16T15:37:57Z</time>
      </trkpt>
      <trkpt lat="50.00964" lon="2.38409">
        <ele>126.3</ele>
        <time>2022-11-16T15:37:58Z</time>
      </trkpt>
      <trkpt lat="50.00964" lon="2.38409">
        <ele>126.3</ele>
        <time>2022-11-16T15:37:59Z</time>
      </trkpt>
      <trkpt lat="50.00964" lon="2.38409">
        <ele>126.3</ele>
        <time>2022-11-16T15:38:00Z</time>
      </trkpt>
      <trkpt lat="50.00964" lon="2.38409">
        <ele>126.3</ele>
        <time>2022-11-16T15:38:01Z</time>
      </trkpt>
      <trkpt lat="50.00964" lon="2.38409">
        <ele>126.3</ele>
        <time>2022-11-16T15:38:02Z</time>
      </trkpt>
      <trkpt lat="50.00964" lon="2.38409">
        <ele>126.3</ele>
        <time>2022-11-16T15:38:03Z</time>
      </trkpt>
      <trkpt lat="50.00964" lon="2.38409">
        <ele>126.3</ele>
        <time>2022-11-16T15:38:04Z</time>
      </trkpt>
      <trkpt lat="50.00964" lon="2.38409">
        <ele>126.3</ele>
        <time>2022-11-16T15:38:05Z</time>
      </trkpt>
      <trkpt lat="50.00964" lon="2.38409">
        <ele>126.3</ele>
        <time>2022-11-16T15:38:06Z</time>
      </trkpt>
      <trkpt lat="50.00964" lon="2.38409">
        <ele>126.3</ele>
        <time>2022-11-16T15:38:07Z</time>
      </trkpt>
      <trkpt lat="50.00964" lon="2.38409">
        <ele>126.3</ele>
        <time>2022-11-16T15:38:08Z</time>
      </trkpt>
      <trkpt lat="50.00964" lon="2.38409">
        <ele>126.3</ele>
        <time>2022-11-16T15:38:09Z</time>
      </trkpt>
      <trkpt lat="50.00964" lon="2.38409">
        <ele>126.3</ele>
        <time>2022-11-16T15:38:10Z</time>
      </trkpt>
      <trkpt lat="50.00964" lon="2.38409">
        <ele>126.3</ele>
        <time>2022-11-16T15:38:11Z</time>
      </trkpt>
      <trkpt lat="50.00964" lon="2.38409">
        <ele>126.3</ele>
        <time>2022-11-16T15:38:12Z</time>
      </trkpt>
      <trkpt lat="50.00964" lon="2.38409">
        <ele>126.3</ele>
        <time>2022-11-16T15:38:13Z</time>
      </trkpt>
      <trkpt lat="50.00964" lon="2.38409">
        <ele>126.3</ele>
        <time>2022-11-16T15:38:14Z</time>
      </trkpt>
      <trkpt lat="50.00964" lon="2.38409">
        <ele>126.3</ele>
        <time>2022-11-16T15:38:15Z</time>
      </trkpt>
      <trkpt lat="50.00964" lon="2.38409">
        <ele>126.3</ele>
        <time>2022-11-16T15:38:16Z</time>
      </trkpt>
      <trkpt lat="50.00964" lon="2.38409">
        <ele>126.3</ele>
        <time>2022-11-16T15:38:17Z</time>
      </trkpt>
      <trkpt lat="50.00964" lon="2.38409">
        <ele>126.3</ele>
        <time>2022-11-16T15:38:18Z</time>
      </trkpt>
      <trkpt lat="50.00964" lon="2.38409">
        <ele>126.3</ele>
        <time>2022-11-16T15:38:19Z</time>
      </trkpt>
      <trkpt lat="50.00964" lon="2.38409">
        <ele>126.3</ele>
        <time>2022-11-16T15:38:20Z</time>
      </trkpt>
      <trkpt lat="50.00964" lon="2.38409">
        <ele>126.3</ele>
        <time>2022-11-16T15:38:21Z</time>
      </trkpt>
      <trkpt lat="50.00964" lon="2.38409">
        <ele>126.3</ele>
        <time>2022-11-16T15:38:22Z</time>
      </trkpt>
      <trkpt lat="50.00964" lon="2.38409">
        <ele>126.3</ele>
        <time>2022-11-16T15:38:23Z</time>
      </trkpt>
      <trkpt lat="50.00964" lon="2.38409">
        <ele>126.3</ele>
        <time>2022-11-16T15:38:24Z</time>
      </trkpt>
      <trkpt lat="50.00963" lon="2.38409">
        <ele>126.3</ele>
        <time>2022-11-16T15:38:25Z</time>
      </trkpt>
      <trkpt lat="50.00962" lon="2.38409">
        <ele>126.3</ele>
        <time>2022-11-16T15:38:26Z</time>
      </trkpt>
      <trkpt lat="50.00962" lon="2.38409">
        <ele>126.3</ele>
        <time>2022-11-16T15:38:27Z</time>
      </trkpt>
      <trkpt lat="50.00962" lon="2.38409">
        <ele>126.3</ele>
        <time>2022-11-16T15:38:28Z</time>
      </trkpt>
      <trkpt lat="50.00961" lon="2.38409">
        <ele>126.3</ele>
        <time>2022-11-16T15:38:29Z</time>
      </trkpt>
      <trkpt lat="50.00961" lon="2.3841">
        <ele>126.3</ele>
        <time>2022-11-16T15:38:30Z</time>
      </trkpt>
      <trkpt lat="50.00961" lon="2.3841">
        <ele>126.3</ele>
        <time>2022-11-16T15:38:31Z</time>
      </trkpt>
      <trkpt lat="50.00961" lon="2.3841">
        <ele>126.3</ele>
        <time>2022-11-16T15:38:32Z</time>
      </trkpt>
      <trkpt lat="50.00961" lon="2.3841">
        <ele>126.3</ele>
        <time>2022-11-16T15:38:33Z</time>
      </trkpt>
      <trkpt lat="50.00961" lon="2.3841">
        <ele>126.3</ele>
        <time>2022-11-16T15:38:34Z</time>
      </trkpt>
      <trkpt lat="50.00961" lon="2.3841">
        <ele>126.3</ele>
        <time>2022-11-16T15:38:35Z</time>
      </trkpt>
      <trkpt lat="50.00961" lon="2.3841">
        <ele>126.3</ele>
        <time>2022-11-16T15:38:36Z</time>
      </trkpt>
      <trkpt lat="50.00961" lon="2.3841">
        <ele>126.3</ele>
        <time>2022-11-16T15:38:37Z</time>
      </trkpt>
      <trkpt lat="50.00961" lon="2.3841">
        <ele>126.3</ele>
        <time>2022-11-16T15:38:38Z</time>
      </trkpt>
      <trkpt lat="50.00961" lon="2.3841">
        <ele>126.3</ele>
        <time>2022-11-16T15:38:39Z</time>
      </trkpt>
      <trkpt lat="50.00961" lon="2.3841">
        <ele>126.3</ele>
        <time>2022-11-16T15:38:40Z</time>
      </trkpt>
      <trkpt lat="50.00961" lon="2.3841">
        <ele>126.3</ele>
        <time>2022-11-16T15:38:41Z</time>
      </trkpt>
      <trkpt lat="50.00961" lon="2.3841">
        <ele>126.3</ele>
        <time>2022-11-16T15:38:42Z</time>
      </trkpt>
      <trkpt lat="50.00961" lon="2.3841">
        <ele>126.3</ele>
        <time>2022-11-16T15:38:43Z</time>
      </trkpt>
      <trkpt lat="50.00961" lon="2.3841">
        <ele>126.3</ele>
        <time>2022-11-16T15:38:44Z</time>
      </trkpt>
      <trkpt lat="50.00961" lon="2.3841">
        <ele>126.3</ele>
        <time>2022-11-16T15:38:45Z</time>
      </trkpt>
      <trkpt lat="50.00961" lon="2.3841">
        <ele>126.3</ele>
        <time>2022-11-16T15:38:46Z</time>
      </trkpt>
      <trkpt lat="50.00961" lon="2.3841">
        <ele>126.3</ele>
        <time>2022-11-16T15:38:47Z</time>
      </trkpt>
      <trkpt lat="50.00961" lon="2.3841">
        <ele>126.3</ele>
        <time>2022-11-16T15:38:48Z</time>
      </trkpt>
      <trkpt lat="50.00961" lon="2.3841">
        <ele>126.3</ele>
        <time>2022-11-16T15:38:49Z</time>
      </trkpt>
      <trkpt lat="50.00961" lon="2.3841">
        <ele>126.3</ele>
        <time>2022-11-16T15:38:50Z</time>
      </trkpt>
      <trkpt lat="50.00961" lon="2.3841">
        <ele>126.3</ele>
        <time>2022-11-16T15:38:51Z</time>
      </trkpt>
      <trkpt lat="50.00961" lon="2.3841">
        <ele>126.3</ele>
        <time>2022-11-16T15:38:52Z</time>
      </trkpt>
      <trkpt lat="50.00961" lon="2.3841">
        <ele>126.3</ele>
        <time>2022-11-16T15:38:53Z</time>
      </trkpt>
      <trkpt lat="50.00961" lon="2.3841">
        <ele>126.3</ele>
        <time>2022-11-16T15:38:54Z</time>
      </trkpt>
      <trkpt lat="50.00961" lon="2.3841">
        <ele>126.3</ele>
        <time>2022-11-16T15:38:55Z</time>
      </trkpt>
      <trkpt lat="50.00961" lon="2.3841">
        <ele>126.3</ele>
        <time>2022-11-16T15:38:56Z</time>
      </trkpt>
      <trkpt lat="50.00961" lon="2.3841">
        <ele>126.3</ele>
        <time>2022-11-16T15:38:57Z</time>
      </trkpt>
      <trkpt lat="50.00961" lon="2.3841">
        <ele>126.3</ele>
        <time>2022-11-16T15:38:58Z</time>
      </trkpt>
      <trkpt lat="50.00961" lon="2.3841">
        <ele>126.3</ele>
        <time>2022-11-16T15:38:59Z</time>
      </trkpt>
      <trkpt lat="50.00961" lon="2.3841">
        <ele>126.3</ele>
        <time>2022-11-16T15:39:00Z</time>
      </trkpt>
      <trkpt lat="50.00961" lon="2.3841">
        <ele>126.3</ele>
        <time>2022-11-16T15:39:01Z</time>
      </trkpt>
      <trkpt lat="50.00961" lon="2.3841">
        <ele>126.3</ele>
        <time>2022-11-16T15:39:02Z</time>
      </trkpt>
      <trkpt lat="50.00961" lon="2.3841">
        <ele>126.3</ele>
        <time>2022-11-16T15:39:03Z</time>
      </trkpt>
      <trkpt lat="50.00961" lon="2.3841">
        <ele>126.3</ele>
        <time>2022-11-16T15:39:04Z</time>
      </trkpt>
      <trkpt lat="50.00961" lon="2.3841">
        <ele>126.3</ele>
        <time>2022-11-16T15:39:05Z</time>
      </trkpt>
      <trkpt lat="50.00961" lon="2.3841">
        <ele>126.3</ele>
        <time>2022-11-16T15:39:06Z</time>
      </trkpt>
      <trkpt lat="50.00961" lon="2.3841">
        <ele>126.3</ele>
        <time>2022-11-16T15:39:07Z</time>
      </trkpt>
      <trkpt lat="50.00961" lon="2.3841">
        <ele>126.3</ele>
        <time>2022-11-16T15:39:08Z</time>
      </trkpt>
      <trkpt lat="50.00961" lon="2.3841">
        <ele>126.3</ele>
        <time>2022-11-16T15:39:09Z</time>
      </trkpt>
      <trkpt lat="50.00961" lon="2.3841">
        <ele>126.3</ele>
        <time>2022-11-16T15:39:10Z</time>
      </trkpt>
      <trkpt lat="50.00961" lon="2.3841">
        <ele>126.3</ele>
        <time>2022-11-16T15:39:11Z</time>
      </trkpt>
      <trkpt lat="50.00961" lon="2.3841">
        <ele>126.3</ele>
        <time>2022-11-16T15:39:12Z</time>
      </trkpt>
      <trkpt lat="50.00961" lon="2.3841">
        <ele>126.3</ele>
        <time>2022-11-16T15:39:13Z</time>
      </trkpt>
      <trkpt lat="50.00961" lon="2.3841">
        <ele>126.3</ele>
        <time>2022-11-16T15:39:14Z</time>
      </trkpt>
      <trkpt lat="50.00961" lon="2.3841">
        <ele>126.3</ele>
        <time>2022-11-16T15:39:15Z</time>
      </trkpt>
      <trkpt lat="50.00961" lon="2.3841">
        <ele>126.3</ele>
        <time>2022-11-16T15:39:16Z</time>
      </trkpt>
      <trkpt lat="50.00961" lon="2.3841">
        <ele>126.3</ele>
        <time>2022-11-16T15:39:17Z</time>
      </trkpt>
      <trkpt lat="50.00961" lon="2.3841">
        <ele>126.3</ele>
        <time>2022-11-16T15:39:18Z</time>
      </trkpt>
      <trkpt lat="50.00961" lon="2.3841">
        <ele>126.3</ele>
        <time>2022-11-16T15:39:19Z</time>
      </trkpt>
      <trkpt lat="50.00961" lon="2.3841">
        <ele>126.3</ele>
        <time>2022-11-16T15:39:20Z</time>
      </trkpt>
      <trkpt lat="50.00961" lon="2.3841">
        <ele>126.3</ele>
        <time>2022-11-16T15:39:21Z</time>
      </trkpt>
      <trkpt lat="50.00961" lon="2.3841">
        <ele>126.3</ele>
        <time>2022-11-16T15:39:22Z</time>
      </trkpt>
      <trkpt lat="50.00961" lon="2.3841">
        <ele>126.3</ele>
        <time>2022-11-16T15:39:23Z</time>
      </trkpt>
      <trkpt lat="50.00961" lon="2.3841">
        <ele>126.3</ele>
        <time>2022-11-16T15:39:24Z</time>
      </trkpt>
      <trkpt lat="50.00961" lon="2.3841">
        <ele>126.3</ele>
        <time>2022-11-16T15:39:25Z</time>
      </trkpt>
      <trkpt lat="50.00961" lon="2.3841">
        <ele>126.3</ele>
        <time>2022-11-16T15:39:26Z</time>
      </trkpt>
      <trkpt lat="50.00961" lon="2.3841">
        <ele>126.3</ele>
        <time>2022-11-16T15:39:27Z</time>
      </trkpt>
      <trkpt lat="50.00961" lon="2.3841">
        <ele>126.3</ele>
        <time>2022-11-16T15:39:28Z</time>
      </trkpt>
      <trkpt lat="50.00961" lon="2.3841">
        <ele>126.3</ele>
        <time>2022-11-16T15:39:29Z</time>
      </trkpt>
      <trkpt lat="50.00961" lon="2.38409">
        <ele>126.3</ele>
        <time>2022-11-16T15:39:30Z</time>
      </trkpt>
      <trkpt lat="50.00961" lon="2.38409">
        <ele>126.3</ele>
        <time>2022-11-16T15:39:31Z</time>
      </trkpt>
      <trkpt lat="50.00961" lon="2.38409">
        <ele>126.3</ele>
        <time>2022-11-16T15:39:32Z</time>
      </trkpt>
      <trkpt lat="50.00961" lon="2.38409">
        <ele>126.3</ele>
        <time>2022-11-16T15:39:33Z</time>
      </trkpt>
      <trkpt lat="50.00961" lon="2.38409">
        <ele>126.3</ele>
        <time>2022-11-16T15:39:34Z</time>
      </trkpt>
      <trkpt lat="50.00961" lon="2.38409">
        <ele>126.3</ele>
        <time>2022-11-16T15:39:35Z</time>
      </trkpt>
      <trkpt lat="50.00961" lon="2.38409">
        <ele>126.3</ele>
        <time>2022-11-16T15:39:36Z</time>
      </trkpt>
      <trkpt lat="50.00961" lon="2.38409">
        <ele>126.3</ele>
        <time>2022-11-16T15:39:37Z</time>
      </trkpt>
      <trkpt lat="50.00961" lon="2.38409">
        <ele>126.3</ele>
        <time>2022-11-16T15:39:38Z</time>
      </trkpt>
      <trkpt lat="50.00961" lon="2.38409">
        <ele>126.3</ele>
        <time>2022-11-16T15:39:39Z</time>
      </trkpt>
      <trkpt lat="50.00961" lon="2.38409">
        <ele>126.3</ele>
        <time>2022-11-16T15:39:40Z</time>
      </trkpt>
      <trkpt lat="50.00961" lon="2.38409">
        <ele>126.3</ele>
        <time>2022-11-16T15:39:41Z</time>
      </trkpt>
      <trkpt lat="50.00961" lon="2.38409">
        <ele>126.3</ele>
        <time>2022-11-16T15:39:42Z</time>
      </trkpt>
      <trkpt lat="50.00961" lon="2.38409">
        <ele>126.3</ele>
        <time>2022-11-16T15:39:43Z</time>
      </trkpt>
      <trkpt lat="50.00961" lon="2.38409">
        <ele>126.3</ele>
        <time>2022-11-16T15:39:44Z</time>
      </trkpt>
      <trkpt lat="50.00961" lon="2.38409">
        <ele>126.3</ele>
        <time>2022-11-16T15:39:45Z</time>
      </trkpt>
      <trkpt lat="50.0096" lon="2.38408">
        <ele>126.3</ele>
        <time>2022-11-16T15:39:46Z</time>
      </trkpt>
      <trkpt lat="50.0096" lon="2.38408">
        <ele>126.3</ele>
        <time>2022-11-16T15:39:47Z</time>
      </trkpt>
      <trkpt lat="50.0096" lon="2.38408">
        <ele>126.3</ele>
        <time>2022-11-16T15:39:48Z</time>
      </trkpt>
      <trkpt lat="50.0096" lon="2.38408">
        <ele>126.3</ele>
        <time>2022-11-16T15:39:49Z</time>
      </trkpt>
      <trkpt lat="50.0096" lon="2.38408">
        <ele>126.3</ele>
        <time>2022-11-16T15:39:50Z</time>
      </trkpt>
      <trkpt lat="50.0096" lon="2.38408">
        <ele>126.3</ele>
        <time>2022-11-16T15:39:51Z</time>
      </trkpt>
      <trkpt lat="50.0096" lon="2.38408">
        <ele>126.3</ele>
        <time>2022-11-16T15:39:52Z</time>
      </trkpt>
      <trkpt lat="50.0096" lon="2.38408">
        <ele>126.3</ele>
        <time>2022-11-16T15:39:53Z</time>
      </trkpt>
      <trkpt lat="50.0096" lon="2.38408">
        <ele>126.3</ele>
        <time>2022-11-16T15:39:54Z</time>
      </trkpt>
      <trkpt lat="50.0096" lon="2.38408">
        <ele>126.3</ele>
        <time>2022-11-16T15:39:55Z</time>
      </trkpt>
      <trkpt lat="50.0096" lon="2.38408">
        <ele>126.3</ele>
        <time>2022-11-16T15:39:56Z</time>
      </trkpt>
      <trkpt lat="50.0096" lon="2.38408">
        <ele>126.3</ele>
        <time>2022-11-16T15:39:57Z</time>
      </trkpt>
      <trkpt lat="50.0096" lon="2.38408">
        <ele>126.3</ele>
        <time>2022-11-16T15:39:58Z</time>
      </trkpt>
      <trkpt lat="50.0096" lon="2.38408">
        <ele>126.3</ele>
        <time>2022-11-16T15:39:59Z</time>
      </trkpt>
      <trkpt lat="50.0096" lon="2.38408">
        <ele>126.3</ele>
        <time>2022-11-16T15:40:00Z</time>
      </trkpt>
      <trkpt lat="50.0096" lon="2.38408">
        <ele>126.3</ele>
        <time>2022-11-16T15:40:01Z</time>
      </trkpt>
      <trkpt lat="50.0096" lon="2.38408">
        <ele>126.3</ele>
        <time>2022-11-16T15:40:02Z</time>
      </trkpt>
      <trkpt lat="50.0096" lon="2.38407">
        <ele>126.3</ele>
        <time>2022-11-16T15:40:03Z</time>
      </trkpt>
      <trkpt lat="50.0096" lon="2.38407">
        <ele>126.3</ele>
        <time>2022-11-16T15:40:04Z</time>
      </trkpt>
      <trkpt lat="50.0096" lon="2.38407">
        <ele>126.3</ele>
        <time>2022-11-16T15:40:05Z</time>
      </trkpt>
      <trkpt lat="50.0096" lon="2.38407">
        <ele>126.3</ele>
        <time>2022-11-16T15:40:06Z</time>
      </trkpt>
      <trkpt lat="50.0096" lon="2.38407">
        <ele>126.3</ele>
        <time>2022-11-16T15:40:07Z</time>
      </trkpt>
      <trkpt lat="50.0096" lon="2.38407">
        <ele>126.3</ele>
        <time>2022-11-16T15:40:08Z</time>
      </trkpt>
      <trkpt lat="50.0096" lon="2.38407">
        <ele>126.3</ele>
        <time>2022-11-16T15:40:09Z</time>
      </trkpt>
      <trkpt lat="50.0096" lon="2.38407">
        <ele>126.3</ele>
        <time>2022-11-16T15:40:10Z</time>
      </trkpt>
      <trkpt lat="50.0096" lon="2.38407">
        <ele>126.3</ele>
        <time>2022-11-16T15:40:11Z</time>
      </trkpt>
      <trkpt lat="50.0096" lon="2.38407">
        <ele>126.3</ele>
        <time>2022-11-16T15:40:12Z</time>
      </trkpt>
      <trkpt lat="50.0096" lon="2.38407">
        <ele>126.3</ele>
        <time>2022-11-16T15:40:13Z</time>
      </trkpt>
      <trkpt lat="50.0096" lon="2.38407">
        <ele>126.3</ele>
        <time>2022-11-16T15:40:14Z</time>
      </trkpt>
      <trkpt lat="50.0096" lon="2.38407">
        <ele>126.3</ele>
        <time>2022-11-16T15:40:15Z</time>
      </trkpt>
      <trkpt lat="50.0096" lon="2.38407">
        <ele>126.3</ele>
        <time>2022-11-16T15:40:16Z</time>
      </trkpt>
      <trkpt lat="50.0096" lon="2.38407">
        <ele>126.3</ele>
        <time>2022-11-16T15:40:17Z</time>
      </trkpt>
      <trkpt lat="50.0096" lon="2.38407">
        <ele>126.3</ele>
        <time>2022-11-16T15:40:18Z</time>
      </trkpt>
      <trkpt lat="50.0096" lon="2.38406">
        <ele>126.3</ele>
        <time>2022-11-16T15:40:19Z</time>
      </trkpt>
      <trkpt lat="50.0096" lon="2.38406">
        <ele>126.3</ele>
        <time>2022-11-16T15:40:20Z</time>
      </trkpt>
      <trkpt lat="50.0096" lon="2.38406">
        <ele>126.3</ele>
        <time>2022-11-16T15:40:21Z</time>
      </trkpt>
      <trkpt lat="50.0096" lon="2.38406">
        <ele>126.3</ele>
        <time>2022-11-16T15:40:22Z</time>
      </trkpt>
      <trkpt lat="50.0096" lon="2.38406">
        <ele>126.3</ele>
        <time>2022-11-16T15:40:23Z</time>
      </trkpt>
      <trkpt lat="50.0096" lon="2.38406">
        <ele>126.3</ele>
        <time>2022-11-16T15:40:24Z</time>
      </trkpt>
      <trkpt lat="50.0096" lon="2.38406">
        <ele>126.3</ele>
        <time>2022-11-16T15:40:25Z</time>
      </trkpt>
      <trkpt lat="50.0096" lon="2.38406">
        <ele>126.2</ele>
        <time>2022-11-16T15:40:26Z</time>
      </trkpt>
      <trkpt lat="50.0096" lon="2.38406">
        <ele>126.2</ele>
        <time>2022-11-16T15:40:27Z</time>
      </trkpt>
      <trkpt lat="50.0096" lon="2.38406">
        <ele>126.2</ele>
        <time>2022-11-16T15:40:28Z</time>
      </trkpt>
      <trkpt lat="50.0096" lon="2.38406">
        <ele>126.2</ele>
        <time>2022-11-16T15:40:29Z</time>
      </trkpt>
      <trkpt lat="50.0096" lon="2.38406">
        <ele>126.2</ele>
        <time>2022-11-16T15:40:30Z</time>
      </trkpt>
      <trkpt lat="50.0096" lon="2.38406">
        <ele>126.2</ele>
        <time>2022-11-16T15:40:31Z</time>
      </trkpt>
      <trkpt lat="50.0096" lon="2.38406">
        <ele>126.2</ele>
        <time>2022-11-16T15:40:32Z</time>
      </trkpt>
      <trkpt lat="50.0096" lon="2.38406">
        <ele>126.2</ele>
        <time>2022-11-16T15:40:33Z</time>
      </trkpt>
      <trkpt lat="50.0096" lon="2.38406">
        <ele>126.2</ele>
        <time>2022-11-16T15:40:34Z</time>
      </trkpt>
      <trkpt lat="50.0096" lon="2.38406">
        <ele>126.2</ele>
        <time>2022-11-16T15:40:35Z</time>
      </trkpt>
      <trkpt lat="50.0096" lon="2.38405">
        <ele>126.2</ele>
        <time>2022-11-16T15:40:36Z</time>
      </trkpt>
      <trkpt lat="50.0096" lon="2.38405">
        <ele>126.2</ele>
        <time>2022-11-16T15:40:37Z</time>
      </trkpt>
      <trkpt lat="50.0096" lon="2.38405">
        <ele>126.2</ele>
        <time>2022-11-16T15:40:38Z</time>
      </trkpt>
      <trkpt lat="50.0096" lon="2.38405">
        <ele>126.2</ele>
        <time>2022-11-16T15:40:39Z</time>
      </trkpt>
      <trkpt lat="50.0096" lon="2.38405">
        <ele>126.2</ele>
        <time>2022-11-16T15:40:40Z</time>
      </trkpt>
      <trkpt lat="50.0096" lon="2.38405">
        <ele>126.2</ele>
        <time>2022-11-16T15:40:41Z</time>
      </trkpt>
      <trkpt lat="50.0096" lon="2.38405">
        <ele>126.2</ele>
        <time>2022-11-16T15:40:42Z</time>
      </trkpt>
      <trkpt lat="50.0096" lon="2.38405">
        <ele>126.2</ele>
        <time>2022-11-16T15:40:43Z</time>
      </trkpt>
      <trkpt lat="50.0096" lon="2.38405">
        <ele>126.2</ele>
        <time>2022-11-16T15:40:44Z</time>
      </trkpt>
      <trkpt lat="50.0096" lon="2.38405">
        <ele>126.2</ele>
        <time>2022-11-16T15:40:45Z</time>
      </trkpt>
      <trkpt lat="50.0096" lon="2.38405">
        <ele>126.2</ele>
        <time>2022-11-16T15:40:46Z</time>
      </trkpt>
      <trkpt lat="50.0096" lon="2.38405">
        <ele>126.2</ele>
        <time>2022-11-16T15:40:47Z</time>
      </trkpt>
      <trkpt lat="50.0096" lon="2.38405">
        <ele>126.2</ele>
        <time>2022-11-16T15:40:48Z</time>
      </trkpt>
      <trkpt lat="50.0096" lon="2.38405">
        <ele>126.2</ele>
        <time>2022-11-16T15:40:49Z</time>
      </trkpt>
      <trkpt lat="50.0096" lon="2.38405">
        <ele>126.2</ele>
        <time>2022-11-16T15:40:50Z</time>
      </trkpt>
      <trkpt lat="50.0096" lon="2.38405">
        <ele>126.2</ele>
        <time>2022-11-16T15:40:51Z</time>
      </trkpt>
      <trkpt lat="50.0096" lon="2.38405">
        <ele>126.2</ele>
        <time>2022-11-16T15:40:52Z</time>
      </trkpt>
      <trkpt lat="50.0096" lon="2.38404">
        <ele>126.2</ele>
        <time>2022-11-16T15:40:53Z</time>
      </trkpt>
      <trkpt lat="50.00959" lon="2.38404">
        <ele>126.2</ele>
        <time>2022-11-16T15:40:54Z</time>
      </trkpt>
      <trkpt lat="50.00959" lon="2.38404">
        <ele>126.2</ele>
        <time>2022-11-16T15:40:55Z</time>
      </trkpt>
      <trkpt lat="50.00959" lon="2.38404">
        <ele>126.2</ele>
        <time>2022-11-16T15:40:56Z</time>
      </trkpt>
      <trkpt lat="50.00959" lon="2.38404">
        <ele>126.2</ele>
        <time>2022-11-16T15:40:57Z</time>
      </trkpt>
      <trkpt lat="50.00959" lon="2.38404">
        <ele>126.2</ele>
        <time>2022-11-16T15:40:58Z</time>
      </trkpt>
      <trkpt lat="50.00959" lon="2.38404">
        <ele>126.2</ele>
        <time>2022-11-16T15:40:59Z</time>
      </trkpt>
      <trkpt lat="50.00959" lon="2.38404">
        <ele>126.2</ele>
        <time>2022-11-16T15:41:00Z</time>
      </trkpt>
      <trkpt lat="50.00959" lon="2.38404">
        <ele>126.2</ele>
        <time>2022-11-16T15:41:01Z</time>
      </trkpt>
      <trkpt lat="50.00959" lon="2.38404">
        <ele>126.2</ele>
        <time>2022-11-16T15:41:02Z</time>
      </trkpt>
      <trkpt lat="50.00959" lon="2.38404">
        <ele>126.2</ele>
        <time>2022-11-16T15:41:03Z</time>
      </trkpt>
      <trkpt lat="50.00959" lon="2.38404">
        <ele>126.2</ele>
        <time>2022-11-16T15:41:04Z</time>
      </trkpt>
      <trkpt lat="50.00959" lon="2.38404">
        <ele>126.2</ele>
        <time>2022-11-16T15:41:05Z</time>
      </trkpt>
      <trkpt lat="50.00959" lon="2.38404">
        <ele>126.2</ele>
        <time>2022-11-16T15:41:06Z</time>
      </trkpt>
      <trkpt lat="50.00959" lon="2.38404">
        <ele>126.2</ele>
        <time>2022-11-16T15:41:07Z</time>
      </trkpt>
      <trkpt lat="50.00959" lon="2.38404">
        <ele>126.2</ele>
        <time>2022-11-16T15:41:08Z</time>
      </trkpt>
      <trkpt lat="50.00959" lon="2.38403">
        <ele>126.2</ele>
        <time>2022-11-16T15:41:09Z</time>
      </trkpt>
      <trkpt lat="50.00959" lon="2.38403">
        <ele>126.2</ele>
        <time>2022-11-16T15:41:10Z</time>
      </trkpt>
      <trkpt lat="50.00959" lon="2.38403">
        <ele>126.2</ele>
        <time>2022-11-16T15:41:11Z</time>
      </trkpt>
      <trkpt lat="50.00959" lon="2.38403">
        <ele>126.2</ele>
        <time>2022-11-16T15:41:12Z</time>
      </trkpt>
      <trkpt lat="50.00959" lon="2.38403">
        <ele>126.2</ele>
        <time>2022-11-16T15:41:13Z</time>
      </trkpt>
      <trkpt lat="50.00959" lon="2.38403">
        <ele>126.2</ele>
        <time>2022-11-16T15:41:14Z</time>
      </trkpt>
      <trkpt lat="50.00959" lon="2.38403">
        <ele>126.2</ele>
        <time>2022-11-16T15:41:15Z</time>
      </trkpt>
      <trkpt lat="50.00959" lon="2.38403">
        <ele>126.2</ele>
        <time>2022-11-16T15:41:16Z</time>
      </trkpt>
      <trkpt lat="50.00959" lon="2.38403">
        <ele>126.2</ele>
        <time>2022-11-16T15:41:17Z</time>
      </trkpt>
      <trkpt lat="50.00959" lon="2.38403">
        <ele>126.2</ele>
        <time>2022-11-16T15:41:18Z</time>
      </trkpt>
      <trkpt lat="50.00959" lon="2.38403">
        <ele>126.2</ele>
        <time>2022-11-16T15:41:19Z</time>
      </trkpt>
      <trkpt lat="50.00959" lon="2.38403">
        <ele>126.2</ele>
        <time>2022-11-16T15:41:20Z</time>
      </trkpt>
      <trkpt lat="50.00959" lon="2.38403">
        <ele>126.2</ele>
        <time>2022-11-16T15:41:21Z</time>
      </trkpt>
      <trkpt lat="50.00959" lon="2.38401">
        <ele>126.2</ele>
        <time>2022-11-16T15:41:22Z</time>
      </trkpt>
      <trkpt lat="50.00958" lon="2.384">
        <ele>126.2</ele>
        <time>2022-11-16T15:41:23Z</time>
      </trkpt>
      <trkpt lat="50.00958" lon="2.38399">
        <ele>126.2</ele>
        <time>2022-11-16T15:41:24Z</time>
      </trkpt>
      <trkpt lat="50.00958" lon="2.38399">
        <ele>126.2</ele>
        <time>2022-11-16T15:41:25Z</time>
      </trkpt>
      <trkpt lat="50.00958" lon="2.38398">
        <ele>126.2</ele>
        <time>2022-11-16T15:41:26Z</time>
      </trkpt>
      <trkpt lat="50.00958" lon="2.38398">
        <ele>126.2</ele>
        <time>2022-11-16T15:41:27Z</time>
      </trkpt>
      <trkpt lat="50.00958" lon="2.38398">
        <ele>126.2</ele>
        <time>2022-11-16T15:41:28Z</time>
      </trkpt>
      <trkpt lat="50.00958" lon="2.38397">
        <ele>126.2</ele>
        <time>2022-11-16T15:41:29Z</time>
      </trkpt>
      <trkpt lat="50.00958" lon="2.38397">
        <ele>126.2</ele>
        <time>2022-11-16T15:41:30Z</time>
      </trkpt>
      <trkpt lat="50.00958" lon="2.38397">
        <ele>126.2</ele>
        <time>2022-11-16T15:41:31Z</time>
      </trkpt>
      <trkpt lat="50.00958" lon="2.38397">
        <ele>126.2</ele>
        <time>2022-11-16T15:41:32Z</time>
      </trkpt>
      <trkpt lat="50.00958" lon="2.38397">
        <ele>126.2</ele>
        <time>2022-11-16T15:41:33Z</time>
      </trkpt>
      <trkpt lat="50.00958" lon="2.38397">
        <ele>126.2</ele>
        <time>2022-11-16T15:41:34Z</time>
      </trkpt>
      <trkpt lat="50.00958" lon="2.38397">
        <ele>126.2</ele>
        <time>2022-11-16T15:41:35Z</time>
      </trkpt>
      <trkpt lat="50.00958" lon="2.38397">
        <ele>126.2</ele>
        <time>2022-11-16T15:41:36Z</time>
      </trkpt>
      <trkpt lat="50.00958" lon="2.38397">
        <ele>126.2</ele>
        <time>2022-11-16T15:41:37Z</time>
      </trkpt>
      <trkpt lat="50.00958" lon="2.38397">
        <ele>126.2</ele>
        <time>2022-11-16T15:41:38Z</time>
      </trkpt>
      <trkpt lat="50.00958" lon="2.38397">
        <ele>126.2</ele>
        <time>2022-11-16T15:41:39Z</time>
      </trkpt>
      <trkpt lat="50.00958" lon="2.38397">
        <ele>126.2</ele>
        <time>2022-11-16T15:41:40Z</time>
      </trkpt>
      <trkpt lat="50.00958" lon="2.38397">
        <ele>126.2</ele>
        <time>2022-11-16T15:41:41Z</time>
      </trkpt>
      <trkpt lat="50.00958" lon="2.38397">
        <ele>126.2</ele>
        <time>2022-11-16T15:41:42Z</time>
      </trkpt>
      <trkpt lat="50.00958" lon="2.38397">
        <ele>126.2</ele>
        <time>2022-11-16T15:41:43Z</time>
      </trkpt>
      <trkpt lat="50.00958" lon="2.38397">
        <ele>126.2</ele>
        <time>2022-11-16T15:41:44Z</time>
      </trkpt>
      <trkpt lat="50.00958" lon="2.38397">
        <ele>126.2</ele>
        <time>2022-11-16T15:41:45Z</time>
      </trkpt>
      <trkpt lat="50.00958" lon="2.38397">
        <ele>126.2</ele>
        <time>2022-11-16T15:41:46Z</time>
      </trkpt>
      <trkpt lat="50.00958" lon="2.38397">
        <ele>126.2</ele>
        <time>2022-11-16T15:41:47Z</time>
      </trkpt>
      <trkpt lat="50.00958" lon="2.38397">
        <ele>126.2</ele>
        <time>2022-11-16T15:41:48Z</time>
      </trkpt>
      <trkpt lat="50.00958" lon="2.38397">
        <ele>126.2</ele>
        <time>2022-11-16T15:41:49Z</time>
      </trkpt>
      <trkpt lat="50.00958" lon="2.38397">
        <ele>126.2</ele>
        <time>2022-11-16T15:41:50Z</time>
      </trkpt>
    </trkseg>
  </trk>
</gpx>